<?xml version='1.0' encoding='UTF-8'?><gpx version="1.1" creator="JPX - https://github.com/jenetics/jpx" xmlns="http://www.topografix.com/GPX/1/1"><trk><trkseg><trkpt lat="51.18261436007888" lon="4.907772844271254"><ele>15.999999999999998</ele><time>2026-04-06T10:06:56.99Z</time></trkpt><trkpt lat="51.18254369060837" lon="4.907721003786387"><ele>16.0</ele><time>2026-04-06T10:06:58.991Z</time></trkpt><trkpt lat="51.18247443193366" lon="4.907680832264024"><ele>16.0</ele><time>2026-04-06T10:07:00.992Z</time></trkpt><trkpt lat="51.18241846044604" lon="4.907608181433658"><ele>16.0</ele><time>2026-04-06T10:07:03.994Z</time></trkpt><trkpt lat="51.18248209486514" lon="4.9075806951638485"><ele>15.999999999999998</ele><time>2026-04-06T10:07:06.995Z</time></trkpt><trkpt lat="51.182555334140005" lon="4.907634831801348"><ele>16.0</ele><time>2026-04-06T10:07:09.996Z</time></trkpt><trkpt lat="51.18262892269748" lon="4.90770449580065"><ele>16.0</ele><time>2026-04-06T10:07:13.997Z</time></trkpt><trkpt lat="51.18273752373635" lon="4.9078652153945175"><ele>16.0</ele><time>2026-04-06T10:07:24.999Z</time></trkpt><trkpt lat="51.18288412119138" lon="4.907978261378114"><ele>16.0</ele><time>2026-04-06T10:13:03Z</time></trkpt><trkpt lat="51.18286919989287" lon="4.907878882238936"><ele>16.0</ele><time>2026-04-06T10:13:19Z</time></trkpt><trkpt lat="51.18279424575125" lon="4.907857778622357"><ele>16.0</ele><time>2026-04-06T10:14:06Z</time></trkpt><trkpt lat="51.18273251825205" lon="4.9078236366179295"><ele>15.999999999999998</ele><time>2026-04-06T10:14:23Z</time></trkpt><trkpt lat="51.182706933967836" lon="4.907933410433527"><ele>16.0</ele><time>2026-04-06T10:15:17Z</time></trkpt><trkpt lat="51.18269267107422" lon="4.908037346273118"><ele>16.0</ele><time>2026-04-06T10:15:21Z</time></trkpt><trkpt lat="51.18263596065817" lon="4.90809319299"><ele>15.999999999999998</ele><time>2026-04-06T10:17:34Z</time></trkpt><trkpt lat="51.18253956886247" lon="4.908128684840839"><ele>16.0</ele><time>2026-04-06T10:17:36Z</time></trkpt><trkpt lat="51.18247575917591" lon="4.908100374757534"><ele>16.0</ele><time>2026-04-06T10:17:38Z</time></trkpt><trkpt lat="51.182440018771246" lon="4.907969663216728"><ele>16.0</ele><time>2026-04-06T10:17:40Z</time></trkpt><trkpt lat="51.18241811925596" lon="4.9078370886833556"><ele>16.0</ele><time>2026-04-06T10:17:41Z</time></trkpt><trkpt lat="51.18239557246186" lon="4.9076731457035025"><ele>16.0</ele><time>2026-04-06T10:17:42Z</time></trkpt><trkpt lat="51.182372088453626" lon="4.907504830194809"><ele>16.0</ele><time>2026-04-06T10:17:43Z</time></trkpt><trkpt lat="51.18238230752967" lon="4.907345820976891"><ele>16.0</ele><time>2026-04-06T10:17:44Z</time></trkpt><trkpt lat="51.18235742507385" lon="4.90720215132804"><ele>16.166666666666664</ele><time>2026-04-06T10:17:45Z</time></trkpt><trkpt lat="51.18233379991258" lon="4.907065741299786"><ele>16.333333333333332</ele><time>2026-04-06T10:17:46Z</time></trkpt><trkpt lat="51.18230972489083" lon="4.906926733742854"><ele>16.5</ele><time>2026-04-06T10:17:47Z</time></trkpt><trkpt lat="51.18228589864702" lon="4.9067891626230615"><ele>16.666666666666668</ele><time>2026-04-06T10:17:48Z</time></trkpt><trkpt lat="51.182262025208765" lon="4.906651319052913"><ele>16.833333333333336</ele><time>2026-04-06T10:17:49Z</time></trkpt><trkpt lat="51.18223856896429" lon="4.906515867191748"><ele>17.0</ele><time>2026-04-06T10:17:50Z</time></trkpt><trkpt lat="51.18221507511717" lon="4.906380197113092"><ele>17.0</ele><time>2026-04-06T10:17:51Z</time></trkpt><trkpt lat="51.18219449548094" lon="4.906261355761233"><ele>17.0</ele><time>2026-04-06T10:17:52Z</time></trkpt><trkpt lat="51.182177115103" lon="4.906160989170594"><ele>17.0</ele><time>2026-04-06T10:17:53Z</time></trkpt><trkpt lat="51.182146146175555" lon="4.905982152719265"><ele>17.0</ele><time>2026-04-06T10:17:55Z</time></trkpt><trkpt lat="51.18213098382624" lon="4.9057949892774095"><ele>17.0</ele><time>2026-04-06T10:17:57Z</time></trkpt><trkpt lat="51.18222445760584" lon="4.905717121997232"><ele>16.833333333333336</ele><time>2026-04-06T10:17:58Z</time></trkpt><trkpt lat="51.182288495232854" lon="4.905623983088407"><ele>16.666666666666668</ele><time>2026-04-06T10:17:59Z</time></trkpt><trkpt lat="51.18233443111544" lon="4.905548785751339"><ele>16.5</ele><time>2026-04-06T10:18:00Z</time></trkpt><trkpt lat="51.18241511979575" lon="4.905416697749686"><ele>16.333333333333332</ele><time>2026-04-06T10:18:02Z</time></trkpt><trkpt lat="51.18245988134208" lon="4.905342707254465"><ele>16.166666666666664</ele><time>2026-04-06T10:18:03Z</time></trkpt><trkpt lat="51.182514859401" lon="4.905251686670048"><ele>16.0</ele><time>2026-04-06T10:18:04Z</time></trkpt><trkpt lat="51.182579358123725" lon="4.905144904088099"><ele>16.0</ele><time>2026-04-06T10:18:05Z</time></trkpt><trkpt lat="51.18264801218677" lon="4.905032375861082"><ele>16.0</ele><time>2026-04-06T10:18:06Z</time></trkpt><trkpt lat="51.182720564531294" lon="4.904913160567255"><ele>16.0</ele><time>2026-04-06T10:18:07Z</time></trkpt><trkpt lat="51.18279472366261" lon="4.904791305086829"><ele>16.0</ele><time>2026-04-06T10:18:08Z</time></trkpt><trkpt lat="51.18286637188276" lon="4.904673575411937"><ele>16.0</ele><time>2026-04-06T10:18:09Z</time></trkpt><trkpt lat="51.18292295367886" lon="4.904580602337697"><ele>16.0</ele><time>2026-04-06T10:18:10Z</time></trkpt><trkpt lat="51.18297499355013" lon="4.904495092367907"><ele>16.0</ele><time>2026-04-06T10:18:11Z</time></trkpt><trkpt lat="51.18308405584667" lon="4.904426714199828"><ele>16.0</ele><time>2026-04-06T10:18:13Z</time></trkpt><trkpt lat="51.183153592126345" lon="4.90449725152547"><ele>16.0</ele><time>2026-04-06T10:18:14Z</time></trkpt><trkpt lat="51.18323255036141" lon="4.904588442911408"><ele>16.0</ele><time>2026-04-06T10:18:15Z</time></trkpt><trkpt lat="51.18332134165531" lon="4.904680899372381"><ele>16.0</ele><time>2026-04-06T10:18:16Z</time></trkpt><trkpt lat="51.18342233012319" lon="4.904782262236175"><ele>16.0</ele><time>2026-04-06T10:18:17Z</time></trkpt><trkpt lat="51.18352277800037" lon="4.904886549023427"><ele>16.0</ele><time>2026-04-06T10:18:18Z</time></trkpt><trkpt lat="51.18361976786531" lon="4.90498672063475"><ele>16.0</ele><time>2026-04-06T10:18:19Z</time></trkpt><trkpt lat="51.18372269288072" lon="4.905091879258955"><ele>16.0</ele><time>2026-04-06T10:18:20Z</time></trkpt><trkpt lat="51.183825687781074" lon="4.905196214934781"><ele>16.0</ele><time>2026-04-06T10:18:21Z</time></trkpt><trkpt lat="51.183924912997725" lon="4.9052992588334785"><ele>16.0</ele><time>2026-04-06T10:18:22Z</time></trkpt><trkpt lat="51.18402343467357" lon="4.905400442492669"><ele>16.0</ele><time>2026-04-06T10:18:23Z</time></trkpt><trkpt lat="51.18412089431338" lon="4.905500313722242"><ele>16.0</ele><time>2026-04-06T10:18:24Z</time></trkpt><trkpt lat="51.184217551864" lon="4.905602547379255"><ele>16.0</ele><time>2026-04-06T10:18:25Z</time></trkpt><trkpt lat="51.18430817587642" lon="4.905701480857248"><ele>16.0</ele><time>2026-04-06T10:18:26Z</time></trkpt><trkpt lat="51.184391466248634" lon="4.905773675888706"><ele>16.0</ele><time>2026-04-06T10:18:27Z</time></trkpt><trkpt lat="51.18446981805832" lon="4.9058289988930515"><ele>16.0</ele><time>2026-04-06T10:18:28Z</time></trkpt><trkpt lat="51.18454452331658" lon="4.905866779305888"><ele>15.999999999999998</ele><time>2026-04-06T10:18:29Z</time></trkpt><trkpt lat="51.18461492533953" lon="4.905896576386357"><ele>16.0</ele><time>2026-04-06T10:18:30Z</time></trkpt><trkpt lat="51.184699626367006" lon="4.905942311175657"><ele>16.0</ele><time>2026-04-06T10:18:32Z</time></trkpt><trkpt lat="51.18475853225652" lon="4.9059797077224125"><ele>16.0</ele><time>2026-04-06T10:18:35Z</time></trkpt><trkpt lat="51.18482191309981" lon="4.905845630930797"><ele>15.999999999999998</ele><time>2026-04-06T10:18:37Z</time></trkpt><trkpt lat="51.18484566839175" lon="4.905678173610402"><ele>16.0</ele><time>2026-04-06T10:18:39Z</time></trkpt><trkpt lat="51.184868572680664" lon="4.90556151194744"><ele>16.2</ele><time>2026-04-06T10:18:40Z</time></trkpt><trkpt lat="51.184895173643305" lon="4.905426587550177"><ele>16.400000000000002</ele><time>2026-04-06T10:18:41Z</time></trkpt><trkpt lat="51.18494599837176" lon="4.905279626851494"><ele>16.6</ele><time>2026-04-06T10:18:42Z</time></trkpt><trkpt lat="51.184974215121564" lon="4.9051363881054035"><ele>16.8</ele><time>2026-04-06T10:18:43Z</time></trkpt><trkpt lat="51.18500157086847" lon="4.904994949671951"><ele>17.0</ele><time>2026-04-06T10:18:44Z</time></trkpt><trkpt lat="51.18502924852005" lon="4.9048518468588425"><ele>17.0</ele><time>2026-04-06T10:18:45Z</time></trkpt><trkpt lat="51.18505698191249" lon="4.904708455851706"><ele>17.0</ele><time>2026-04-06T10:18:46Z</time></trkpt><trkpt lat="51.18508435931372" lon="4.904566905435314"><ele>17.0</ele><time>2026-04-06T10:18:47Z</time></trkpt><trkpt lat="51.185110267237434" lon="4.904432203184681"><ele>17.0</ele><time>2026-04-06T10:18:48Z</time></trkpt><trkpt lat="51.18513311265236" lon="4.904309635731444"><ele>17.0</ele><time>2026-04-06T10:18:49Z</time></trkpt><trkpt lat="51.18515278231107" lon="4.904204106466378"><ele>17.0</ele><time>2026-04-06T10:18:50Z</time></trkpt><trkpt lat="51.185170725788105" lon="4.904107838332326"><ele>17.2</ele><time>2026-04-06T10:18:51Z</time></trkpt><trkpt lat="51.18519566540624" lon="4.903966233999525"><ele>17.4</ele><time>2026-04-06T10:18:53Z</time></trkpt><trkpt lat="51.18520981636652" lon="4.903827622200204"><ele>17.6</ele><time>2026-04-06T10:18:55Z</time></trkpt><trkpt lat="51.18533219223923" lon="4.903732232416855"><ele>17.8</ele><time>2026-04-06T10:18:57Z</time></trkpt><trkpt lat="51.1854122104698" lon="4.903705190724489"><ele>18.0</ele><time>2026-04-06T10:18:58Z</time></trkpt><trkpt lat="51.18550034431769" lon="4.903691197012918"><ele>18.0</ele><time>2026-04-06T10:18:59Z</time></trkpt><trkpt lat="51.18559641148695" lon="4.903687884070262"><ele>18.0</ele><time>2026-04-06T10:19:00Z</time></trkpt><trkpt lat="51.18570203578146" lon="4.903669138622006"><ele>18.0</ele><time>2026-04-06T10:19:01Z</time></trkpt><trkpt lat="51.18581877022577" lon="4.903633013327402"><ele>18.0</ele><time>2026-04-06T10:19:02Z</time></trkpt><trkpt lat="51.185938013777346" lon="4.903588440904168"><ele>18.0</ele><time>2026-04-06T10:19:03Z</time></trkpt><trkpt lat="51.1860537050194" lon="4.903571441680816"><ele>17.75</ele><time>2026-04-06T10:19:04Z</time></trkpt><trkpt lat="51.18616928891635" lon="4.903521613019887"><ele>17.5</ele><time>2026-04-06T10:19:05Z</time></trkpt><trkpt lat="51.18628383741709" lon="4.903467816292793"><ele>17.25</ele><time>2026-04-06T10:19:06Z</time></trkpt><trkpt lat="51.18639454896973" lon="4.903390652680246"><ele>17.0</ele><time>2026-04-06T10:19:07Z</time></trkpt><trkpt lat="51.18651410235024" lon="4.903334483552812"><ele>16.75</ele><time>2026-04-06T10:19:08Z</time></trkpt><trkpt lat="51.18664066585542" lon="4.9033038100695"><ele>16.5</ele><time>2026-04-06T10:19:09Z</time></trkpt><trkpt lat="51.1867576069481" lon="4.903222738841949"><ele>16.25</ele><time>2026-04-06T10:19:10Z</time></trkpt><trkpt lat="51.18687614316027" lon="4.903170317399549"><ele>16.0</ele><time>2026-04-06T10:19:11Z</time></trkpt><trkpt lat="51.18699237172806" lon="4.90311785674048"><ele>16.0</ele><time>2026-04-06T10:19:12Z</time></trkpt><trkpt lat="51.18710973084113" lon="4.903060315944069"><ele>16.0</ele><time>2026-04-06T10:19:13Z</time></trkpt><trkpt lat="51.18722506001771" lon="4.903009313171999"><ele>16.0</ele><time>2026-04-06T10:19:14Z</time></trkpt><trkpt lat="51.18734284937529" lon="4.902951495893926"><ele>16.0</ele><time>2026-04-06T10:19:15Z</time></trkpt><trkpt lat="51.18746205144088" lon="4.902896381566829"><ele>16.0</ele><time>2026-04-06T10:19:16Z</time></trkpt><trkpt lat="51.18758376467857" lon="4.902842156578112"><ele>16.0</ele><time>2026-04-06T10:19:17Z</time></trkpt><trkpt lat="51.18770549542685" lon="4.902787485027414"><ele>16.0</ele><time>2026-04-06T10:19:18Z</time></trkpt><trkpt lat="51.187829423054794" lon="4.902728377110799"><ele>16.0</ele><time>2026-04-06T10:19:19Z</time></trkpt><trkpt lat="51.187956704787645" lon="4.902669090179324"><ele>16.0</ele><time>2026-04-06T10:19:20Z</time></trkpt><trkpt lat="51.18808975768666" lon="4.902622837870739"><ele>16.0</ele><time>2026-04-06T10:19:21Z</time></trkpt><trkpt lat="51.188228790419934" lon="4.902595147341542"><ele>16.0</ele><time>2026-04-06T10:19:22Z</time></trkpt><trkpt lat="51.18837158649215" lon="4.902578116820793"><ele>16.0</ele><time>2026-04-06T10:19:23Z</time></trkpt><trkpt lat="51.18851722239719" lon="4.902579901737463"><ele>15.5</ele><time>2026-04-06T10:19:24Z</time></trkpt><trkpt lat="51.18866278637328" lon="4.902601913936368"><ele>15.0</ele><time>2026-04-06T10:19:25Z</time></trkpt><trkpt lat="51.18880620803901" lon="4.902642729433778"><ele>14.5</ele><time>2026-04-06T10:19:26Z</time></trkpt><trkpt lat="51.188949535899404" lon="4.902701192187222"><ele>14.0</ele><time>2026-04-06T10:19:27Z</time></trkpt><trkpt lat="51.18909820205796" lon="4.902783214981693"><ele>14.0</ele><time>2026-04-06T10:19:28Z</time></trkpt><trkpt lat="51.189251487914724" lon="4.902893751113025"><ele>14.0</ele><time>2026-04-06T10:19:29Z</time></trkpt><trkpt lat="51.18939201773676" lon="4.903019776885164"><ele>14.0</ele><time>2026-04-06T10:19:30Z</time></trkpt><trkpt lat="51.18952151692461" lon="4.903156188186053"><ele>14.0</ele><time>2026-04-06T10:19:31Z</time></trkpt><trkpt lat="51.18964966213502" lon="4.903293824634749"><ele>14.0</ele><time>2026-04-06T10:19:32Z</time></trkpt><trkpt lat="51.189778333680266" lon="4.90342362148349"><ele>14.0</ele><time>2026-04-06T10:19:33Z</time></trkpt><trkpt lat="51.189906240599846" lon="4.903553309848084"><ele>14.0</ele><time>2026-04-06T10:19:34Z</time></trkpt><trkpt lat="51.19003730530811" lon="4.903672400031231"><ele>14.0</ele><time>2026-04-06T10:19:35Z</time></trkpt><trkpt lat="51.19017850245136" lon="4.903774607080537"><ele>14.0</ele><time>2026-04-06T10:19:36Z</time></trkpt><trkpt lat="51.19032869589703" lon="4.90386781256186"><ele>14.0</ele><time>2026-04-06T10:19:37Z</time></trkpt><trkpt lat="51.19048300177984" lon="4.9039548903618355"><ele>14.0</ele><time>2026-04-06T10:19:38Z</time></trkpt><trkpt lat="51.190640683123284" lon="4.904010302007517"><ele>14.0</ele><time>2026-04-06T10:19:39Z</time></trkpt><trkpt lat="51.19080256129453" lon="4.904048096922317"><ele>13.666666666666668</ele><time>2026-04-06T10:19:40Z</time></trkpt><trkpt lat="51.19096768259232" lon="4.904071135683255"><ele>13.333333333333332</ele><time>2026-04-06T10:19:41Z</time></trkpt><trkpt lat="51.191136258394586" lon="4.904066990766069"><ele>13.0</ele><time>2026-04-06T10:19:42Z</time></trkpt><trkpt lat="51.191309860097704" lon="4.9040391013791"><ele>13.0</ele><time>2026-04-06T10:19:43Z</time></trkpt><trkpt lat="51.19148845050337" lon="4.90401612009147"><ele>13.0</ele><time>2026-04-06T10:19:44Z</time></trkpt><trkpt lat="51.19167047776319" lon="4.90398378789601"><ele>13.0</ele><time>2026-04-06T10:19:45Z</time></trkpt><trkpt lat="51.19185731048542" lon="4.903978452121124"><ele>13.333333333333332</ele><time>2026-04-06T10:19:46Z</time></trkpt><trkpt lat="51.19204460113697" lon="4.903947631322846"><ele>13.666666666666668</ele><time>2026-04-06T10:19:47Z</time></trkpt><trkpt lat="51.19222206389524" lon="4.9038929011906305"><ele>14.0</ele><time>2026-04-06T10:19:48Z</time></trkpt><trkpt lat="51.19238460675182" lon="4.903868962231064"><ele>13.5</ele><time>2026-04-06T10:19:49Z</time></trkpt><trkpt lat="51.19253658145987" lon="4.903845126884388"><ele>13.0</ele><time>2026-04-06T10:19:50Z</time></trkpt><trkpt lat="51.19267644855379" lon="4.903821537242243"><ele>12.5</ele><time>2026-04-06T10:19:51Z</time></trkpt><trkpt lat="51.19280493972809" lon="4.903799159883273"><ele>12.0</ele><time>2026-04-06T10:19:52Z</time></trkpt><trkpt lat="51.19292037179931" lon="4.903779007858405"><ele>12.0</ele><time>2026-04-06T10:19:53Z</time></trkpt><trkpt lat="51.193005555614306" lon="4.90376453130013"><ele>12.0</ele><time>2026-04-06T10:19:54Z</time></trkpt><trkpt lat="51.19309403149934" lon="4.903797964125282"><ele>12.0</ele><time>2026-04-06T10:19:56Z</time></trkpt><trkpt lat="51.193143869465324" lon="4.9039417579912215"><ele>12.0</ele><time>2026-04-06T10:19:58Z</time></trkpt><trkpt lat="51.19314998903119" lon="4.9040696489473685"><ele>12.0</ele><time>2026-04-06T10:19:59Z</time></trkpt><trkpt lat="51.19316057098987" lon="4.904186247127262"><ele>12.0</ele><time>2026-04-06T10:20:00Z</time></trkpt><trkpt lat="51.193134569802204" lon="4.904382693095952"><ele>12.2</ele><time>2026-04-06T10:20:02Z</time></trkpt><trkpt lat="51.193071185780575" lon="4.904463051528952"><ele>12.399999999999999</ele><time>2026-04-06T10:20:03Z</time></trkpt><trkpt lat="51.192982917032616" lon="4.904526683585521"><ele>12.600000000000001</ele><time>2026-04-06T10:20:04Z</time></trkpt><trkpt lat="51.19288427651679" lon="4.904586481302054"><ele>12.8</ele><time>2026-04-06T10:20:05Z</time></trkpt><trkpt lat="51.19277725857775" lon="4.904650210714892"><ele>13.0</ele><time>2026-04-06T10:20:06Z</time></trkpt><trkpt lat="51.19266327902231" lon="4.904720989359674"><ele>13.0</ele><time>2026-04-06T10:20:07Z</time></trkpt><trkpt lat="51.192557552223484" lon="4.904788620712127"><ele>13.0</ele><time>2026-04-06T10:20:08Z</time></trkpt><trkpt lat="51.192462455585286" lon="4.904862694029554"><ele>13.0</ele><time>2026-04-06T10:20:09Z</time></trkpt><trkpt lat="51.192378861406326" lon="4.904958558841984"><ele>13.0</ele><time>2026-04-06T10:20:10Z</time></trkpt><trkpt lat="51.19230897842795" lon="4.905087428808988"><ele>13.0</ele><time>2026-04-06T10:20:11Z</time></trkpt><trkpt lat="51.19225242990648" lon="4.905262680517739"><ele>13.333333333333332</ele><time>2026-04-06T10:20:12Z</time></trkpt><trkpt lat="51.19219444667634" lon="4.905467572235042"><ele>13.666666666666668</ele><time>2026-04-06T10:20:13Z</time></trkpt><trkpt lat="51.19212947935281" lon="4.905691465387689"><ele>14.0</ele><time>2026-04-06T10:20:14Z</time></trkpt><trkpt lat="51.19206505942914" lon="4.905918080646605"><ele>14.25</ele><time>2026-04-06T10:20:15Z</time></trkpt><trkpt lat="51.19200815118611" lon="4.906139781189439"><ele>14.5</ele><time>2026-04-06T10:20:16Z</time></trkpt><trkpt lat="51.19196125624081" lon="4.906366511398856"><ele>14.75</ele><time>2026-04-06T10:20:17Z</time></trkpt><trkpt lat="51.19191721757618" lon="4.906590602365275"><ele>15.0</ele><time>2026-04-06T10:20:18Z</time></trkpt><trkpt lat="51.19187530911347" lon="4.906800529228909"><ele>15.0</ele><time>2026-04-06T10:20:19Z</time></trkpt><trkpt lat="51.19183921817562" lon="4.9070011767786985"><ele>15.0</ele><time>2026-04-06T10:20:20Z</time></trkpt><trkpt lat="51.19181203555233" lon="4.907195468976602"><ele>15.0</ele><time>2026-04-06T10:20:21Z</time></trkpt><trkpt lat="51.19181364138788" lon="4.907369369560303"><ele>15.0</ele><time>2026-04-06T10:20:22Z</time></trkpt><trkpt lat="51.191843797266365" lon="4.907536817652618"><ele>14.75</ele><time>2026-04-06T10:20:23Z</time></trkpt><trkpt lat="51.19190151697673" lon="4.90769925985031"><ele>14.5</ele><time>2026-04-06T10:20:24Z</time></trkpt><trkpt lat="51.19197947526841" lon="4.90785862944341"><ele>14.25</ele><time>2026-04-06T10:20:25Z</time></trkpt><trkpt lat="51.19206021491527" lon="4.908028434389521"><ele>14.0</ele><time>2026-04-06T10:20:26Z</time></trkpt><trkpt lat="51.19213897528752" lon="4.908199351808258"><ele>14.000000000000002</ele><time>2026-04-06T10:20:27Z</time></trkpt><trkpt lat="51.19220539463711" lon="4.908341608477182"><ele>14.0</ele><time>2026-04-06T10:20:28Z</time></trkpt><trkpt lat="51.1922561794925" lon="4.908459957581563"><ele>14.0</ele><time>2026-04-06T10:20:29Z</time></trkpt><trkpt lat="51.19229370169384" lon="4.908568463732824"><ele>14.0</ele><time>2026-04-06T10:20:30Z</time></trkpt><trkpt lat="51.19229992425079" lon="4.908690410358491"><ele>14.000000000000002</ele><time>2026-04-06T10:20:31Z</time></trkpt><trkpt lat="51.19227511256454" lon="4.9088055628883875"><ele>14.0</ele><time>2026-04-06T10:20:32Z</time></trkpt><trkpt lat="51.19222130647364" lon="4.908920509870652"><ele>14.0</ele><time>2026-04-06T10:20:33Z</time></trkpt><trkpt lat="51.19214518315358" lon="4.909041616126832"><ele>14.0</ele><time>2026-04-06T10:20:34Z</time></trkpt><trkpt lat="51.19206209308582" lon="4.909182081516891"><ele>14.0</ele><time>2026-04-06T10:20:35Z</time></trkpt><trkpt lat="51.1919723452072" lon="4.909340057033166"><ele>14.0</ele><time>2026-04-06T10:20:36Z</time></trkpt><trkpt lat="51.191873890655714" lon="4.909507979023846"><ele>14.0</ele><time>2026-04-06T10:20:37Z</time></trkpt><trkpt lat="51.19177196531157" lon="4.9096824865077915"><ele>14.0</ele><time>2026-04-06T10:20:38Z</time></trkpt><trkpt lat="51.19168281880163" lon="4.9098482176314455"><ele>14.0</ele><time>2026-04-06T10:20:39Z</time></trkpt><trkpt lat="51.19159370790458" lon="4.9100115328382925"><ele>14.0</ele><time>2026-04-06T10:20:40Z</time></trkpt><trkpt lat="51.191503609185474" lon="4.910166474605008"><ele>14.0</ele><time>2026-04-06T10:20:41Z</time></trkpt><trkpt lat="51.19141609578981" lon="4.9103122500561245"><ele>13.999999999999998</ele><time>2026-04-06T10:20:42Z</time></trkpt><trkpt lat="51.191350389381164" lon="4.910437411030504"><ele>13.999999999999998</ele><time>2026-04-06T10:20:43Z</time></trkpt><trkpt lat="51.191305969221105" lon="4.910533918163528"><ele>14.0</ele><time>2026-04-06T10:20:44Z</time></trkpt><trkpt lat="51.19122247155426" lon="4.91060048418003"><ele>14.0</ele><time>2026-04-06T10:20:46Z</time></trkpt><trkpt lat="51.19115267925089" lon="4.910491452468278"><ele>14.0</ele><time>2026-04-06T10:20:47Z</time></trkpt><trkpt lat="51.19108338484696" lon="4.91045134920497"><ele>14.0</ele><time>2026-04-06T10:20:48Z</time></trkpt><trkpt lat="51.190995328117936" lon="4.910360137243983"><ele>14.0</ele><time>2026-04-06T10:20:50Z</time></trkpt><trkpt lat="51.1908949196908" lon="4.9106077693017545"><ele>14.0</ele><time>2026-04-06T10:20:51Z</time></trkpt><trkpt lat="51.190846506151956" lon="4.910764624063409"><ele>14.0</ele><time>2026-04-06T10:20:52Z</time></trkpt><trkpt lat="51.19078688822084" lon="4.910959517954457"><ele>14.0</ele><time>2026-04-06T10:20:53Z</time></trkpt><trkpt lat="51.19071704867765" lon="4.911179244177537"><ele>14.0</ele><time>2026-04-06T10:20:54Z</time></trkpt><trkpt lat="51.19064907043717" lon="4.911388871695188"><ele>14.0</ele><time>2026-04-06T10:20:55Z</time></trkpt><trkpt lat="51.190575730538754" lon="4.911608068276664"><ele>13.666666666666668</ele><time>2026-04-06T10:20:56Z</time></trkpt><trkpt lat="51.190499920691494" lon="4.911831350978568"><ele>13.333333333333332</ele><time>2026-04-06T10:20:57Z</time></trkpt><trkpt lat="51.19042696449183" lon="4.9120535962908525"><ele>13.0</ele><time>2026-04-06T10:20:58Z</time></trkpt><trkpt lat="51.19036174998244" lon="4.91226125700456"><ele>13.0</ele><time>2026-04-06T10:20:59Z</time></trkpt><trkpt lat="51.19029697238469" lon="4.912462084861769"><ele>13.0</ele><time>2026-04-06T10:21:00Z</time></trkpt><trkpt lat="51.19023465485567" lon="4.912653772645606"><ele>13.0</ele><time>2026-04-06T10:21:01Z</time></trkpt><trkpt lat="51.19017776263654" lon="4.91284147826317"><ele>13.0</ele><time>2026-04-06T10:21:02Z</time></trkpt><trkpt lat="51.19012348924394" lon="4.913020805540475"><ele>13.0</ele><time>2026-04-06T10:21:03Z</time></trkpt><trkpt lat="51.19005687220574" lon="4.91318249180649"><ele>13.0</ele><time>2026-04-06T10:21:04Z</time></trkpt><trkpt lat="51.18996729650703" lon="4.913310488549735"><ele>13.0</ele><time>2026-04-06T10:21:05Z</time></trkpt><trkpt lat="51.18986497018841" lon="4.9134230347308545"><ele>13.0</ele><time>2026-04-06T10:21:06Z</time></trkpt><trkpt lat="51.18975518047449" lon="4.913523930272998"><ele>13.2</ele><time>2026-04-06T10:21:07Z</time></trkpt><trkpt lat="51.18964303960395" lon="4.913622766535097"><ele>13.4</ele><time>2026-04-06T10:21:08Z</time></trkpt><trkpt lat="51.18953872790388" lon="4.913714753981714"><ele>13.599999999999998</ele><time>2026-04-06T10:21:09Z</time></trkpt><trkpt lat="51.189450982509356" lon="4.913795511687889"><ele>13.799999999999999</ele><time>2026-04-06T10:21:10Z</time></trkpt><trkpt lat="51.18938178837672" lon="4.913858670016382"><ele>14.0</ele><time>2026-04-06T10:21:11Z</time></trkpt><trkpt lat="51.18930363135826" lon="4.913927738264838"><ele>14.0</ele><time>2026-04-06T10:21:13Z</time></trkpt><trkpt lat="51.18923102666043" lon="4.913991190579375"><ele>13.999999999999998</ele><time>2026-04-06T10:21:16Z</time></trkpt><trkpt lat="51.18929738084492" lon="4.91419704589058"><ele>13.999999999999998</ele><time>2026-04-06T10:21:17Z</time></trkpt><trkpt lat="51.18934809362239" lon="4.914323106330538"><ele>14.0</ele><time>2026-04-06T10:21:18Z</time></trkpt><trkpt lat="51.18940625326001" lon="4.914467336253593"><ele>14.0</ele><time>2026-04-06T10:21:19Z</time></trkpt><trkpt lat="51.189459579717514" lon="4.914605037002529"><ele>14.0</ele><time>2026-04-06T10:21:20Z</time></trkpt><trkpt lat="51.18952044426945" lon="4.914749202652111"><ele>14.0</ele><time>2026-04-06T10:21:21Z</time></trkpt><trkpt lat="51.18959183173643" lon="4.914900975795001"><ele>14.0</ele><time>2026-04-06T10:21:22Z</time></trkpt><trkpt lat="51.18967083934137" lon="4.915055428067582"><ele>14.0</ele><time>2026-04-06T10:21:23Z</time></trkpt><trkpt lat="51.18975710561914" lon="4.915207134376697"><ele>14.0</ele><time>2026-04-06T10:21:24Z</time></trkpt><trkpt lat="51.18984868650721" lon="4.915359101276675"><ele>14.0</ele><time>2026-04-06T10:21:25Z</time></trkpt><trkpt lat="51.18994221369169" lon="4.91551404099068"><ele>14.0</ele><time>2026-04-06T10:21:26Z</time></trkpt><trkpt lat="51.19003052837597" lon="4.915702862175066"><ele>14.0</ele><time>2026-04-06T10:21:27Z</time></trkpt><trkpt lat="51.19013762197511" lon="4.915843717528383"><ele>13.75</ele><time>2026-04-06T10:21:28Z</time></trkpt><trkpt lat="51.19023056959089" lon="4.916003296747042"><ele>13.5</ele><time>2026-04-06T10:21:29Z</time></trkpt><trkpt lat="51.190311364602174" lon="4.9161908309796285"><ele>13.25</ele><time>2026-04-06T10:21:30Z</time></trkpt><trkpt lat="51.19038024921797" lon="4.916401701461269"><ele>13.0</ele><time>2026-04-06T10:21:31Z</time></trkpt><trkpt lat="51.19045265159597" lon="4.916610463832313"><ele>13.0</ele><time>2026-04-06T10:21:32Z</time></trkpt><trkpt lat="51.19052535303242" lon="4.916821042794062"><ele>13.0</ele><time>2026-04-06T10:21:33Z</time></trkpt><trkpt lat="51.19060299718639" lon="4.917042048277003"><ele>13.0</ele><time>2026-04-06T10:21:34Z</time></trkpt><trkpt lat="51.19068409577472" lon="4.917264242598789"><ele>13.0</ele><time>2026-04-06T10:21:35Z</time></trkpt><trkpt lat="51.190767014527566" lon="4.9174866509363975"><ele>13.0</ele><time>2026-04-06T10:21:36Z</time></trkpt><trkpt lat="51.19085181261028" lon="4.917708254451052"><ele>13.0</ele><time>2026-04-06T10:21:37Z</time></trkpt><trkpt lat="51.190935734484455" lon="4.9179318510027406"><ele>13.0</ele><time>2026-04-06T10:21:38Z</time></trkpt><trkpt lat="51.19101786122597" lon="4.91815577818797"><ele>13.0</ele><time>2026-04-06T10:21:39Z</time></trkpt><trkpt lat="51.19110804065794" lon="4.918371440609389"><ele>13.0</ele><time>2026-04-06T10:21:40Z</time></trkpt><trkpt lat="51.191209296156785" lon="4.91857633455209"><ele>13.333333333333332</ele><time>2026-04-06T10:21:41Z</time></trkpt><trkpt lat="51.19131930261368" lon="4.9187715856366685"><ele>13.666666666666668</ele><time>2026-04-06T10:21:42Z</time></trkpt><trkpt lat="51.191423009018806" lon="4.918962366885307"><ele>14.0</ele><time>2026-04-06T10:21:43Z</time></trkpt><trkpt lat="51.191514355665525" lon="4.919129029901199"><ele>14.0</ele><time>2026-04-06T10:21:44Z</time></trkpt><trkpt lat="51.19158925470487" lon="4.9192919810792795"><ele>14.0</ele><time>2026-04-06T10:21:45Z</time></trkpt><trkpt lat="51.19164914423973" lon="4.919488079882752"><ele>14.0</ele><time>2026-04-06T10:21:46Z</time></trkpt><trkpt lat="51.19168987084702" lon="4.919721927427672"><ele>14.0</ele><time>2026-04-06T10:21:47Z</time></trkpt><trkpt lat="51.19172205746705" lon="4.919970475062313"><ele>14.333333333333334</ele><time>2026-04-06T10:21:48Z</time></trkpt><trkpt lat="51.19175905641751" lon="4.920215014148298"><ele>14.666666666666668</ele><time>2026-04-06T10:21:49Z</time></trkpt><trkpt lat="51.1917961899942" lon="4.92046448098613"><ele>15.0</ele><time>2026-04-06T10:21:50Z</time></trkpt><trkpt lat="51.19183574605179" lon="4.9207138465039675"><ele>15.0</ele><time>2026-04-06T10:21:51Z</time></trkpt><trkpt lat="51.191875464097606" lon="4.920965707212431"><ele>15.0</ele><time>2026-04-06T10:21:52Z</time></trkpt><trkpt lat="51.191902043441154" lon="4.921225147452051"><ele>15.0</ele><time>2026-04-06T10:21:53Z</time></trkpt><trkpt lat="51.19192095980323" lon="4.921488213347722"><ele>14.333333333333332</ele><time>2026-04-06T10:21:54Z</time></trkpt><trkpt lat="51.1919427170032" lon="4.921747449792312"><ele>13.666666666666666</ele><time>2026-04-06T10:21:55Z</time></trkpt><trkpt lat="51.19196373021764" lon="4.922013030383656"><ele>13.0</ele><time>2026-04-06T10:21:56Z</time></trkpt><trkpt lat="51.191986875827" lon="4.922286053575271"><ele>13.0</ele><time>2026-04-06T10:21:57Z</time></trkpt><trkpt lat="51.19201181967066" lon="4.922562048622861"><ele>13.0</ele><time>2026-04-06T10:21:58Z</time></trkpt><trkpt lat="51.1920356208051" lon="4.922838928819807"><ele>13.0</ele><time>2026-04-06T10:21:59Z</time></trkpt><trkpt lat="51.192058959749865" lon="4.923105158003539"><ele>13.0</ele><time>2026-04-06T10:22:00Z</time></trkpt><trkpt lat="51.1920728087268" lon="4.923371218660408"><ele>13.0</ele><time>2026-04-06T10:22:01Z</time></trkpt><trkpt lat="51.192063688299825" lon="4.923634923275642"><ele>13.0</ele><time>2026-04-06T10:22:02Z</time></trkpt><trkpt lat="51.19204394556409" lon="4.92389027482065"><ele>13.0</ele><time>2026-04-06T10:22:03Z</time></trkpt><trkpt lat="51.19202788284704" lon="4.9241168737546985"><ele>13.0</ele><time>2026-04-06T10:22:04Z</time></trkpt><trkpt lat="51.19201808701126" lon="4.9242979298167135"><ele>13.0</ele><time>2026-04-06T10:22:05Z</time></trkpt><trkpt lat="51.192014313512935" lon="4.924470448988829"><ele>13.0</ele><time>2026-04-06T10:22:06Z</time></trkpt><trkpt lat="51.19202106353053" lon="4.924640575133569"><ele>13.0</ele><time>2026-04-06T10:22:07Z</time></trkpt><trkpt lat="51.192041638708815" lon="4.9248167035527555"><ele>13.0</ele><time>2026-04-06T10:22:08Z</time></trkpt><trkpt lat="51.19207852243058" lon="4.9249962664427445"><ele>13.0</ele><time>2026-04-06T10:22:09Z</time></trkpt><trkpt lat="51.19212113300389" lon="4.925187845662642"><ele>13.0</ele><time>2026-04-06T10:22:10Z</time></trkpt><trkpt lat="51.19216307333643" lon="4.92538765728521"><ele>13.0</ele><time>2026-04-06T10:22:11Z</time></trkpt><trkpt lat="51.19220442280969" lon="4.925594000357842"><ele>13.0</ele><time>2026-04-06T10:22:12Z</time></trkpt><trkpt lat="51.19224737871236" lon="4.9258039126039685"><ele>13.0</ele><time>2026-04-06T10:22:13Z</time></trkpt><trkpt lat="51.19229303417341" lon="4.9260055313681805"><ele>13.0</ele><time>2026-04-06T10:22:14Z</time></trkpt><trkpt lat="51.19233425095718" lon="4.9261931664105285"><ele>13.0</ele><time>2026-04-06T10:22:15Z</time></trkpt><trkpt lat="51.19236136659807" lon="4.9263684515304496"><ele>13.0</ele><time>2026-04-06T10:22:16Z</time></trkpt><trkpt lat="51.19237338365748" lon="4.926529880246283"><ele>13.0</ele><time>2026-04-06T10:22:17Z</time></trkpt><trkpt lat="51.1923521860546" lon="4.926696389565461"><ele>13.0</ele><time>2026-04-06T10:22:18Z</time></trkpt><trkpt lat="51.19230785402545" lon="4.926878239303104"><ele>13.0</ele><time>2026-04-06T10:22:19Z</time></trkpt><trkpt lat="51.192249110561114" lon="4.927069286140125"><ele>13.0</ele><time>2026-04-06T10:22:20Z</time></trkpt><trkpt lat="51.192182994459245" lon="4.927273217744353"><ele>13.0</ele><time>2026-04-06T10:22:21Z</time></trkpt><trkpt lat="51.19210254561007" lon="4.927480955998844"><ele>13.0</ele><time>2026-04-06T10:22:22Z</time></trkpt><trkpt lat="51.19201801035033" lon="4.927700911468314"><ele>13.0</ele><time>2026-04-06T10:22:23Z</time></trkpt><trkpt lat="51.19194041787213" lon="4.927919143323498"><ele>13.0</ele><time>2026-04-06T10:22:24Z</time></trkpt><trkpt lat="51.19186488194998" lon="4.928132033349219"><ele>13.0</ele><time>2026-04-06T10:22:25Z</time></trkpt><trkpt lat="51.19179141436468" lon="4.928350287357976"><ele>13.0</ele><time>2026-04-06T10:22:26Z</time></trkpt><trkpt lat="51.19172746604973" lon="4.928588570650107"><ele>13.0</ele><time>2026-04-06T10:22:27Z</time></trkpt><trkpt lat="51.191668409706224" lon="4.928848378220975"><ele>13.0</ele><time>2026-04-06T10:22:28Z</time></trkpt><trkpt lat="51.191610702864764" lon="4.929124031769727"><ele>13.0</ele><time>2026-04-06T10:22:29Z</time></trkpt><trkpt lat="51.19155171836785" lon="4.929408261695465"><ele>13.0</ele><time>2026-04-06T10:22:30Z</time></trkpt><trkpt lat="51.191493706991345" lon="4.929677268125074"><ele>13.0</ele><time>2026-04-06T10:22:31Z</time></trkpt><trkpt lat="51.19143743410915" lon="4.929944220688939"><ele>13.333333333333332</ele><time>2026-04-06T10:22:32Z</time></trkpt><trkpt lat="51.191383018578684" lon="4.930205151227406"><ele>13.666666666666668</ele><time>2026-04-06T10:22:33Z</time></trkpt><trkpt lat="51.19132852542882" lon="4.930461208164732"><ele>14.0</ele><time>2026-04-06T10:22:34Z</time></trkpt><trkpt lat="51.1912749142291" lon="4.93071387660832"><ele>14.333333333333334</ele><time>2026-04-06T10:22:35Z</time></trkpt><trkpt lat="51.191222707816095" lon="4.930964363034506"><ele>14.666666666666668</ele><time>2026-04-06T10:22:36Z</time></trkpt><trkpt lat="51.191172205224696" lon="4.931210308666707"><ele>15.0</ele><time>2026-04-06T10:22:37Z</time></trkpt><trkpt lat="51.19112275266593" lon="4.931430550845725"><ele>15.0</ele><time>2026-04-06T10:22:38Z</time></trkpt><trkpt lat="51.19108085846632" lon="4.931617711030495"><ele>15.0</ele><time>2026-04-06T10:22:39Z</time></trkpt><trkpt lat="51.19103565971878" lon="4.931773641722043"><ele>15.0</ele><time>2026-04-06T10:22:40Z</time></trkpt><trkpt lat="51.190969774058146" lon="4.931889028395163"><ele>15.0</ele><time>2026-04-06T10:22:41Z</time></trkpt><trkpt lat="51.190891366074176" lon="4.931970436480989"><ele>15.0</ele><time>2026-04-06T10:22:42Z</time></trkpt><trkpt lat="51.19079406180899" lon="4.932005717469702"><ele>14.75</ele><time>2026-04-06T10:22:43Z</time></trkpt><trkpt lat="51.19068596479822" lon="4.931990627537404"><ele>14.5</ele><time>2026-04-06T10:22:44Z</time></trkpt><trkpt lat="51.19056076133014" lon="4.931976375451313"><ele>14.25</ele><time>2026-04-06T10:22:45Z</time></trkpt><trkpt lat="51.19041920638497" lon="4.931966310514958"><ele>14.0</ele><time>2026-04-06T10:22:46Z</time></trkpt><trkpt lat="51.19028491951585" lon="4.931954795467477"><ele>14.0</ele><time>2026-04-06T10:22:47Z</time></trkpt><trkpt lat="51.19017587198517" lon="4.931949464699951"><ele>13.999999999999998</ele><time>2026-04-06T10:22:48Z</time></trkpt><trkpt lat="51.19008347122212" lon="4.931958340986081"><ele>13.999999999999998</ele><time>2026-04-06T10:22:49Z</time></trkpt><trkpt lat="51.190001862575485" lon="4.9320068613286665"><ele>14.0</ele><time>2026-04-06T10:22:50Z</time></trkpt><trkpt lat="51.189930469998224" lon="4.9320883616216875"><ele>14.0</ele><time>2026-04-06T10:22:51Z</time></trkpt><trkpt lat="51.1898833824982" lon="4.932221593875621"><ele>14.0</ele><time>2026-04-06T10:22:52Z</time></trkpt><trkpt lat="51.18984929506287" lon="4.932390048794744"><ele>14.0</ele><time>2026-04-06T10:22:53Z</time></trkpt><trkpt lat="51.18982195510103" lon="4.932595625817385"><ele>14.0</ele><time>2026-04-06T10:22:54Z</time></trkpt><trkpt lat="51.18978979804522" lon="4.932828050250672"><ele>14.0</ele><time>2026-04-06T10:22:55Z</time></trkpt><trkpt lat="51.189749938851755" lon="4.933066707376338"><ele>14.0</ele><time>2026-04-06T10:22:56Z</time></trkpt><trkpt lat="51.18971543765524" lon="4.933266557664137"><ele>13.999999999999998</ele><time>2026-04-06T10:22:57Z</time></trkpt><trkpt lat="51.189688931290505" lon="4.933443840393524"><ele>13.999999999999998</ele><time>2026-04-06T10:22:58Z</time></trkpt><trkpt lat="51.18966653648067" lon="4.933563616647779"><ele>14.0</ele><time>2026-04-06T10:22:59Z</time></trkpt><trkpt lat="51.18964203038519" lon="4.933676600248348"><ele>14.0</ele><time>2026-04-06T10:23:01Z</time></trkpt><trkpt lat="51.18960780729755" lon="4.933783231790337"><ele>14.0</ele><time>2026-04-06T10:23:05Z</time></trkpt><trkpt lat="51.18975684810294" lon="4.933931326458092"><ele>13.999999999999998</ele><time>2026-04-06T10:23:09Z</time></trkpt><trkpt lat="51.189846258152194" lon="4.933959885525631"><ele>13.999999999999998</ele><time>2026-04-06T10:23:10Z</time></trkpt><trkpt lat="51.18991934786132" lon="4.934030284303143"><ele>14.0</ele><time>2026-04-06T10:23:11Z</time></trkpt><trkpt lat="51.18998312520876" lon="4.934140398533362"><ele>14.0</ele><time>2026-04-06T10:23:12Z</time></trkpt><trkpt lat="51.19003429807223" lon="4.934288645259406"><ele>14.0</ele><time>2026-04-06T10:23:13Z</time></trkpt><trkpt lat="51.19007324207508" lon="4.934449155244637"><ele>13.999999999999998</ele><time>2026-04-06T10:23:14Z</time></trkpt><trkpt lat="51.190111287086886" lon="4.934611170597833"><ele>13.999999999999998</ele><time>2026-04-06T10:23:15Z</time></trkpt><trkpt lat="51.19014835761885" lon="4.934773439899294"><ele>14.0</ele><time>2026-04-06T10:23:16Z</time></trkpt><trkpt lat="51.1901860754387" lon="4.934947415749092"><ele>14.0</ele><time>2026-04-06T10:23:17Z</time></trkpt><trkpt lat="51.19022023603352" lon="4.935138284627477"><ele>14.0</ele><time>2026-04-06T10:23:18Z</time></trkpt><trkpt lat="51.190250420513465" lon="4.935344772987335"><ele>14.0</ele><time>2026-04-06T10:23:19Z</time></trkpt><trkpt lat="51.19028748884436" lon="4.935574723374636"><ele>14.0</ele><time>2026-04-06T10:23:20Z</time></trkpt><trkpt lat="51.19032304614841" lon="4.935792836715392"><ele>14.0</ele><time>2026-04-06T10:23:21Z</time></trkpt><trkpt lat="51.19036358966123" lon="4.936027034456526"><ele>14.0</ele><time>2026-04-06T10:23:22Z</time></trkpt><trkpt lat="51.19039628826762" lon="4.9362756224223885"><ele>14.0</ele><time>2026-04-06T10:23:23Z</time></trkpt><trkpt lat="51.1904274302122" lon="4.936528821998505"><ele>14.0</ele><time>2026-04-06T10:23:24Z</time></trkpt><trkpt lat="51.19046764160353" lon="4.936777352614095"><ele>13.799999999999999</ele><time>2026-04-06T10:23:25Z</time></trkpt><trkpt lat="51.19051414811494" lon="4.937000438142002"><ele>13.599999999999998</ele><time>2026-04-06T10:23:26Z</time></trkpt><trkpt lat="51.190555705756964" lon="4.937190358551189"><ele>13.4</ele><time>2026-04-06T10:23:27Z</time></trkpt><trkpt lat="51.19058821893462" lon="4.9373241657532425"><ele>13.2</ele><time>2026-04-06T10:23:28Z</time></trkpt><trkpt lat="51.19060796783883" lon="4.937431563963914"><ele>13.0</ele><time>2026-04-06T10:23:29Z</time></trkpt><trkpt lat="51.19059113174156" lon="4.937530174191787"><ele>13.25</ele><time>2026-04-06T10:23:30Z</time></trkpt><trkpt lat="51.19047173031555" lon="4.937663845973467"><ele>13.5</ele><time>2026-04-06T10:23:32Z</time></trkpt><trkpt lat="51.190391356980946" lon="4.937747357072733"><ele>13.75</ele><time>2026-04-06T10:23:33Z</time></trkpt><trkpt lat="51.19030163061457" lon="4.937839880109636"><ele>14.0</ele><time>2026-04-06T10:23:34Z</time></trkpt><trkpt lat="51.19019941258457" lon="4.937945996626575"><ele>14.0</ele><time>2026-04-06T10:23:35Z</time></trkpt><trkpt lat="51.19009209788584" lon="4.938057403268241"><ele>14.0</ele><time>2026-04-06T10:23:36Z</time></trkpt><trkpt lat="51.19000003878129" lon="4.938152972855176"><ele>14.0</ele><time>2026-04-06T10:23:37Z</time></trkpt><trkpt lat="51.18991131758508" lon="4.938256712058973"><ele>14.0</ele><time>2026-04-06T10:23:38Z</time></trkpt><trkpt lat="51.189803916243925" lon="4.9383223821682565"><ele>14.0</ele><time>2026-04-06T10:23:39Z</time></trkpt><trkpt lat="51.18969085619363" lon="4.938371672526011"><ele>14.0</ele><time>2026-04-06T10:23:40Z</time></trkpt><trkpt lat="51.18957255080939" lon="4.93841780951082"><ele>14.0</ele><time>2026-04-06T10:23:41Z</time></trkpt><trkpt lat="51.18944830953007" lon="4.938467125347444"><ele>14.0</ele><time>2026-04-06T10:23:42Z</time></trkpt><trkpt lat="51.189321472493106" lon="4.938517333837762"><ele>13.75</ele><time>2026-04-06T10:23:43Z</time></trkpt><trkpt lat="51.1891931476062" lon="4.938566824931802"><ele>13.5</ele><time>2026-04-06T10:23:44Z</time></trkpt><trkpt lat="51.18906326039986" lon="4.938616512998612"><ele>13.25</ele><time>2026-04-06T10:23:45Z</time></trkpt><trkpt lat="51.18893548704743" lon="4.938664977306479"><ele>13.0</ele><time>2026-04-06T10:23:46Z</time></trkpt><trkpt lat="51.188823528644086" lon="4.938707443040377"><ele>13.0</ele><time>2026-04-06T10:23:47Z</time></trkpt><trkpt lat="51.18872549214142" lon="4.93874483919723"><ele>13.0</ele><time>2026-04-06T10:23:48Z</time></trkpt><trkpt lat="51.188656004902725" lon="4.938803647228618"><ele>13.0</ele><time>2026-04-06T10:23:49Z</time></trkpt><trkpt lat="51.18855895485091" lon="4.938843191514871"><ele>13.0</ele><time>2026-04-06T10:23:51Z</time></trkpt><trkpt lat="51.18860597541018" lon="4.939152601286641"><ele>12.75</ele><time>2026-04-06T10:23:53Z</time></trkpt><trkpt lat="51.188643768394805" lon="4.939301821845748"><ele>12.5</ele><time>2026-04-06T10:23:54Z</time></trkpt><trkpt lat="51.18868904951322" lon="4.93947011753073"><ele>12.25</ele><time>2026-04-06T10:23:55Z</time></trkpt><trkpt lat="51.18874107739817" lon="4.93965876296238"><ele>12.0</ele><time>2026-04-06T10:23:56Z</time></trkpt><trkpt lat="51.18879469846707" lon="4.939868837663177"><ele>12.25</ele><time>2026-04-06T10:23:57Z</time></trkpt><trkpt lat="51.18884740812888" lon="4.940081298773073"><ele>12.5</ele><time>2026-04-06T10:23:58Z</time></trkpt><trkpt lat="51.188898718535874" lon="4.9402827155929545"><ele>12.75</ele><time>2026-04-06T10:23:59Z</time></trkpt><trkpt lat="51.18895098214763" lon="4.940485942889785"><ele>13.0</ele><time>2026-04-06T10:24:00Z</time></trkpt><trkpt lat="51.189005592494176" lon="4.940695220376948"><ele>13.0</ele><time>2026-04-06T10:24:01Z</time></trkpt><trkpt lat="51.18906017057972" lon="4.940908014142753"><ele>13.0</ele><time>2026-04-06T10:24:02Z</time></trkpt><trkpt lat="51.1891151296322" lon="4.941123532835466"><ele>13.0</ele><time>2026-04-06T10:24:03Z</time></trkpt><trkpt lat="51.18917171822422" lon="4.9413406781284595"><ele>13.0</ele><time>2026-04-06T10:24:04Z</time></trkpt><trkpt lat="51.189228179843866" lon="4.941557991180209"><ele>13.0</ele><time>2026-04-06T10:24:05Z</time></trkpt><trkpt lat="51.18928295737403" lon="4.941773664542024"><ele>13.0</ele><time>2026-04-06T10:24:06Z</time></trkpt><trkpt lat="51.18934013586084" lon="4.941989642381004"><ele>13.0</ele><time>2026-04-06T10:24:07Z</time></trkpt><trkpt lat="51.18938396830694" lon="4.942216724902176"><ele>13.0</ele><time>2026-04-06T10:24:08Z</time></trkpt><trkpt lat="51.18942284865417" lon="4.942442382558585"><ele>13.25</ele><time>2026-04-06T10:24:09Z</time></trkpt><trkpt lat="51.18946224031858" lon="4.9426511880474076"><ele>13.5</ele><time>2026-04-06T10:24:10Z</time></trkpt><trkpt lat="51.189504662394036" lon="4.9428713800066575"><ele>13.75</ele><time>2026-04-06T10:24:11Z</time></trkpt><trkpt lat="51.189547566235674" lon="4.943097125878738"><ele>14.0</ele><time>2026-04-06T10:24:12Z</time></trkpt><trkpt lat="51.18959244269898" lon="4.943326987920977"><ele>14.0</ele><time>2026-04-06T10:24:13Z</time></trkpt><trkpt lat="51.18963767153091" lon="4.943559160948319"><ele>14.0</ele><time>2026-04-06T10:24:14Z</time></trkpt><trkpt lat="51.18968269744291" lon="4.943794350864842"><ele>14.0</ele><time>2026-04-06T10:24:15Z</time></trkpt><trkpt lat="51.18972730548767" lon="4.944028453191568"><ele>14.0</ele><time>2026-04-06T10:24:16Z</time></trkpt><trkpt lat="51.1897726065894" lon="4.944261403475965"><ele>14.0</ele><time>2026-04-06T10:24:17Z</time></trkpt><trkpt lat="51.18982263749235" lon="4.944490830901433"><ele>14.0</ele><time>2026-04-06T10:24:18Z</time></trkpt><trkpt lat="51.18986122646382" lon="4.944716577202525"><ele>14.0</ele><time>2026-04-06T10:24:19Z</time></trkpt><trkpt lat="51.18988556445071" lon="4.944909238694292"><ele>14.0</ele><time>2026-04-06T10:24:20Z</time></trkpt><trkpt lat="51.18991187587989" lon="4.945099342387741"><ele>14.0</ele><time>2026-04-06T10:24:21Z</time></trkpt><trkpt lat="51.189952139242756" lon="4.945304561991962"><ele>14.0</ele><time>2026-04-06T10:24:22Z</time></trkpt><trkpt lat="51.19000396689369" lon="4.945511158383127"><ele>14.0</ele><time>2026-04-06T10:24:23Z</time></trkpt><trkpt lat="51.19006162822525" lon="4.945726595369803"><ele>14.0</ele><time>2026-04-06T10:24:24Z</time></trkpt><trkpt lat="51.19011811535534" lon="4.945947516359017"><ele>14.0</ele><time>2026-04-06T10:24:25Z</time></trkpt><trkpt lat="51.19017638612077" lon="4.946170615036201"><ele>14.0</ele><time>2026-04-06T10:24:26Z</time></trkpt><trkpt lat="51.19023584312714" lon="4.946394269146475"><ele>14.0</ele><time>2026-04-06T10:24:27Z</time></trkpt><trkpt lat="51.19029745296133" lon="4.946615395515076"><ele>14.0</ele><time>2026-04-06T10:24:28Z</time></trkpt><trkpt lat="51.19035571670657" lon="4.946833176317736"><ele>14.0</ele><time>2026-04-06T10:24:29Z</time></trkpt><trkpt lat="51.19041102815822" lon="4.947048648323698"><ele>14.0</ele><time>2026-04-06T10:24:30Z</time></trkpt><trkpt lat="51.19046746575289" lon="4.947262515653637"><ele>14.0</ele><time>2026-04-06T10:24:31Z</time></trkpt><trkpt lat="51.19052309565979" lon="4.947476795598937"><ele>14.0</ele><time>2026-04-06T10:24:32Z</time></trkpt><trkpt lat="51.19057958041573" lon="4.947689719057068"><ele>14.0</ele><time>2026-04-06T10:24:33Z</time></trkpt><trkpt lat="51.19063489119843" lon="4.9479006490471775"><ele>14.0</ele><time>2026-04-06T10:24:34Z</time></trkpt><trkpt lat="51.190685779743994" lon="4.948093907683722"><ele>13.799999999999999</ele><time>2026-04-06T10:24:35Z</time></trkpt><trkpt lat="51.19073268746749" lon="4.948268061224878"><ele>13.599999999999998</ele><time>2026-04-06T10:24:36Z</time></trkpt><trkpt lat="51.19077522472621" lon="4.948421940754514"><ele>13.4</ele><time>2026-04-06T10:24:37Z</time></trkpt><trkpt lat="51.19081691503103" lon="4.948560029086519"><ele>13.2</ele><time>2026-04-06T10:24:38Z</time></trkpt><trkpt lat="51.1908468352657" lon="4.948662696378237"><ele>13.0</ele><time>2026-04-06T10:24:39Z</time></trkpt><trkpt lat="51.190857379865854" lon="4.948820216545393"><ele>13.0</ele><time>2026-04-06T10:24:41Z</time></trkpt><trkpt lat="51.19073906617685" lon="4.94891170891538"><ele>13.0</ele><time>2026-04-06T10:24:43Z</time></trkpt><trkpt lat="51.1906765075574" lon="4.948938114787069"><ele>13.0</ele><time>2026-04-06T10:24:44Z</time></trkpt><trkpt lat="51.19059926274869" lon="4.948970719687983"><ele>13.0</ele><time>2026-04-06T10:24:45Z</time></trkpt><trkpt lat="51.19050803793295" lon="4.949009225502812"><ele>13.0</ele><time>2026-04-06T10:24:46Z</time></trkpt><trkpt lat="51.190407593323435" lon="4.949051623000484"><ele>13.25</ele><time>2026-04-06T10:24:47Z</time></trkpt><trkpt lat="51.19029167389069" lon="4.949100552706096"><ele>13.5</ele><time>2026-04-06T10:24:48Z</time></trkpt><trkpt lat="51.19016718415609" lon="4.949153100170384"><ele>13.75</ele><time>2026-04-06T10:24:49Z</time></trkpt><trkpt lat="51.19005387149063" lon="4.949228298566368"><ele>14.0</ele><time>2026-04-06T10:24:50Z</time></trkpt><trkpt lat="51.189925265085876" lon="4.9492569248894345"><ele>14.25</ele><time>2026-04-06T10:24:51Z</time></trkpt><trkpt lat="51.18980480169991" lon="4.949334906108691"><ele>14.5</ele><time>2026-04-06T10:24:52Z</time></trkpt><trkpt lat="51.18967775879986" lon="4.9493859461316365"><ele>14.75</ele><time>2026-04-06T10:24:53Z</time></trkpt><trkpt lat="51.18955175491987" lon="4.949435973135712"><ele>15.0</ele><time>2026-04-06T10:24:54Z</time></trkpt><trkpt lat="51.18943247007547" lon="4.949487920250462"><ele>15.0</ele><time>2026-04-06T10:24:55Z</time></trkpt><trkpt lat="51.189328737799876" lon="4.949534152055171"><ele>15.0</ele><time>2026-04-06T10:24:56Z</time></trkpt><trkpt lat="51.18924829927107" lon="4.949560722548433"><ele>15.0</ele><time>2026-04-06T10:24:57Z</time></trkpt><trkpt lat="51.18917987555979" lon="4.949601743026094"><ele>15.0</ele><time>2026-04-06T10:24:58Z</time></trkpt><trkpt lat="51.18912152797425" lon="4.949675156756655"><ele>15.0</ele><time>2026-04-06T10:24:59Z</time></trkpt><trkpt lat="51.189098952665084" lon="4.949829494971184"><ele>15.0</ele><time>2026-04-06T10:25:00Z</time></trkpt><trkpt lat="51.18905493243419" lon="4.949927107034044"><ele>15.2</ele><time>2026-04-06T10:25:01Z</time></trkpt><trkpt lat="51.1889887021505" lon="4.950024941279853"><ele>15.4</ele><time>2026-04-06T10:25:02Z</time></trkpt><trkpt lat="51.18889243907102" lon="4.950101655099359"><ele>15.600000000000001</ele><time>2026-04-06T10:25:03Z</time></trkpt><trkpt lat="51.188780559840225" lon="4.950165422638015"><ele>15.8</ele><time>2026-04-06T10:25:04Z</time></trkpt><trkpt lat="51.18866635548814" lon="4.950227413234656"><ele>16.0</ele><time>2026-04-06T10:25:05Z</time></trkpt><trkpt lat="51.18856955064548" lon="4.950273341640251"><ele>16.0</ele><time>2026-04-06T10:25:06Z</time></trkpt><trkpt lat="51.18848916857165" lon="4.9503179732786196"><ele>16.0</ele><time>2026-04-06T10:25:07Z</time></trkpt><trkpt lat="51.1884198033991" lon="4.950351026916718"><ele>16.0</ele><time>2026-04-06T10:25:08Z</time></trkpt><trkpt lat="51.1883521448915" lon="4.950394535506843"><ele>16.0</ele><time>2026-04-06T10:25:10Z</time></trkpt><trkpt lat="51.18836187136964" lon="4.950682795058754"><ele>16.0</ele><time>2026-04-06T10:25:14Z</time></trkpt><trkpt lat="51.18838546346583" lon="4.950812623970502"><ele>16.0</ele><time>2026-04-06T10:25:15Z</time></trkpt><trkpt lat="51.1884263842617" lon="4.950954847489077"><ele>16.0</ele><time>2026-04-06T10:25:16Z</time></trkpt><trkpt lat="51.188473299861215" lon="4.951114547870766"><ele>16.0</ele><time>2026-04-06T10:25:17Z</time></trkpt><trkpt lat="51.18852544854399" lon="4.95129179123614"><ele>16.0</ele><time>2026-04-06T10:25:18Z</time></trkpt><trkpt lat="51.18858093790233" lon="4.951451492184503"><ele>16.0</ele><time>2026-04-06T10:25:19Z</time></trkpt><trkpt lat="51.188645517888574" lon="4.951589873760952"><ele>16.0</ele><time>2026-04-06T10:25:20Z</time></trkpt><trkpt lat="51.188694287046495" lon="4.951740941246829"><ele>16.0</ele><time>2026-04-06T10:25:21Z</time></trkpt><trkpt lat="51.18874458986405" lon="4.951886402183448"><ele>16.0</ele><time>2026-04-06T10:25:22Z</time></trkpt><trkpt lat="51.18879581693798" lon="4.952036603514124"><ele>16.0</ele><time>2026-04-06T10:25:23Z</time></trkpt><trkpt lat="51.1888484837339" lon="4.952189999623354"><ele>16.0</ele><time>2026-04-06T10:25:24Z</time></trkpt><trkpt lat="51.188905901933225" lon="4.952348369733607"><ele>16.0</ele><time>2026-04-06T10:25:25Z</time></trkpt><trkpt lat="51.1889685381111" lon="4.952509216706613"><ele>16.0</ele><time>2026-04-06T10:25:26Z</time></trkpt><trkpt lat="51.18903197502064" lon="4.952674496717739"><ele>16.0</ele><time>2026-04-06T10:25:27Z</time></trkpt><trkpt lat="51.189097665873625" lon="4.952842769852621"><ele>16.0</ele><time>2026-04-06T10:25:28Z</time></trkpt><trkpt lat="51.18916806364899" lon="4.953011145024199"><ele>16.0</ele><time>2026-04-06T10:25:29Z</time></trkpt><trkpt lat="51.18924899508566" lon="4.95317772325063"><ele>16.0</ele><time>2026-04-06T10:25:30Z</time></trkpt><trkpt lat="51.189325591959026" lon="4.953354081853541"><ele>16.0</ele><time>2026-04-06T10:25:31Z</time></trkpt><trkpt lat="51.18939099207498" lon="4.953547264439902"><ele>16.0</ele><time>2026-04-06T10:25:32Z</time></trkpt><trkpt lat="51.1894804049138" lon="4.953714047849354"><ele>16.25</ele><time>2026-04-06T10:25:33Z</time></trkpt><trkpt lat="51.189569649587725" lon="4.953879658399037"><ele>16.5</ele><time>2026-04-06T10:25:34Z</time></trkpt><trkpt lat="51.18966934758597" lon="4.954042009316029"><ele>16.75</ele><time>2026-04-06T10:25:35Z</time></trkpt><trkpt lat="51.189754449111085" lon="4.954221733762795"><ele>17.0</ele><time>2026-04-06T10:25:36Z</time></trkpt><trkpt lat="51.18983595515419" lon="4.9544066066555885"><ele>16.75</ele><time>2026-04-06T10:25:37Z</time></trkpt><trkpt lat="51.18991420424496" lon="4.954593355203888"><ele>16.5</ele><time>2026-04-06T10:25:38Z</time></trkpt><trkpt lat="51.18999974514847" lon="4.954768814748132"><ele>16.25</ele><time>2026-04-06T10:25:39Z</time></trkpt><trkpt lat="51.19009675420336" lon="4.9549301110577275"><ele>16.0</ele><time>2026-04-06T10:25:40Z</time></trkpt><trkpt lat="51.19019806259883" lon="4.955083076146571"><ele>16.0</ele><time>2026-04-06T10:25:41Z</time></trkpt><trkpt lat="51.19030405622855" lon="4.9552249810203515"><ele>16.0</ele><time>2026-04-06T10:25:42Z</time></trkpt><trkpt lat="51.190424431700514" lon="4.9553612795188275"><ele>16.0</ele><time>2026-04-06T10:25:43Z</time></trkpt><trkpt lat="51.19054816182796" lon="4.955502456073259"><ele>16.0</ele><time>2026-04-06T10:25:44Z</time></trkpt><trkpt lat="51.19067536664189" lon="4.95564282095858"><ele>16.5</ele><time>2026-04-06T10:25:45Z</time></trkpt><trkpt lat="51.190799015427565" lon="4.955777169470536"><ele>17.0</ele><time>2026-04-06T10:25:46Z</time></trkpt><trkpt lat="51.19092234803129" lon="4.955912906583533"><ele>17.5</ele><time>2026-04-06T10:25:47Z</time></trkpt><trkpt lat="51.19104359619876" lon="4.956051257483331"><ele>18.0</ele><time>2026-04-06T10:25:48Z</time></trkpt><trkpt lat="51.19116028785054" lon="4.956185715540991"><ele>18.0</ele><time>2026-04-06T10:25:49Z</time></trkpt><trkpt lat="51.191273225586656" lon="4.956312222841937"><ele>18.0</ele><time>2026-04-06T10:25:50Z</time></trkpt><trkpt lat="51.191383862411215" lon="4.95643746937345"><ele>18.0</ele><time>2026-04-06T10:25:51Z</time></trkpt><trkpt lat="51.19149291154313" lon="4.956562224921177"><ele>18.0</ele><time>2026-04-06T10:25:52Z</time></trkpt><trkpt lat="51.191597241512895" lon="4.956671092480256"><ele>17.75</ele><time>2026-04-06T10:25:53Z</time></trkpt><trkpt lat="51.19169605963157" lon="4.9567832063323705"><ele>17.5</ele><time>2026-04-06T10:25:54Z</time></trkpt><trkpt lat="51.19178078397855" lon="4.95691352055219"><ele>17.25</ele><time>2026-04-06T10:25:55Z</time></trkpt><trkpt lat="51.19188180245123" lon="4.956998345106671"><ele>17.0</ele><time>2026-04-06T10:25:56Z</time></trkpt><trkpt lat="51.19197344149838" lon="4.957105674876846"><ele>17.0</ele><time>2026-04-06T10:25:57Z</time></trkpt><trkpt lat="51.1920544170922" lon="4.957190837408989"><ele>17.0</ele><time>2026-04-06T10:25:58Z</time></trkpt><trkpt lat="51.19213298938315" lon="4.9572550157688315"><ele>17.0</ele><time>2026-04-06T10:25:59Z</time></trkpt><trkpt lat="51.19219880697557" lon="4.957287221976135"><ele>17.0</ele><time>2026-04-06T10:26:00Z</time></trkpt><trkpt lat="51.19226391505676" lon="4.957275559422754"><ele>17.0</ele><time>2026-04-06T10:26:01Z</time></trkpt><trkpt lat="51.19233221354203" lon="4.957214206660328"><ele>17.0</ele><time>2026-04-06T10:26:02Z</time></trkpt><trkpt lat="51.192383115905244" lon="4.95709642315501"><ele>17.2</ele><time>2026-04-06T10:26:03Z</time></trkpt><trkpt lat="51.192450153108716" lon="4.956985363712928"><ele>17.4</ele><time>2026-04-06T10:26:04Z</time></trkpt><trkpt lat="51.19249661669284" lon="4.956874127499418"><ele>17.6</ele><time>2026-04-06T10:26:05Z</time></trkpt><trkpt lat="51.192571223219225" lon="4.956777497585352"><ele>17.8</ele><time>2026-04-06T10:26:07Z</time></trkpt><trkpt lat="51.192672964447524" lon="4.956793040691264"><ele>18.0</ele><time>2026-04-06T10:26:09Z</time></trkpt><trkpt lat="51.19272228040251" lon="4.956881747600797"><ele>18.0</ele><time>2026-04-06T10:26:10Z</time></trkpt><trkpt lat="51.19277398842229" lon="4.957011734871033"><ele>18.0</ele><time>2026-04-06T10:26:11Z</time></trkpt><trkpt lat="51.19281056690488" lon="4.957163866266056"><ele>18.0</ele><time>2026-04-06T10:26:12Z</time></trkpt><trkpt lat="51.19285057993809" lon="4.957319054298276"><ele>18.0</ele><time>2026-04-06T10:26:13Z</time></trkpt><trkpt lat="51.192918469962784" lon="4.957447242580134"><ele>18.0</ele><time>2026-04-06T10:26:14Z</time></trkpt><trkpt lat="51.19301648141277" lon="4.957554398643321"><ele>18.0</ele><time>2026-04-06T10:26:15Z</time></trkpt><trkpt lat="51.19313456251956" lon="4.957645741589828"><ele>18.0</ele><time>2026-04-06T10:26:16Z</time></trkpt><trkpt lat="51.19325434056358" lon="4.957725363384074"><ele>18.0</ele><time>2026-04-06T10:26:17Z</time></trkpt><trkpt lat="51.19336330127685" lon="4.9577779695513104"><ele>18.0</ele><time>2026-04-06T10:26:18Z</time></trkpt><trkpt lat="51.1934673063012" lon="4.957804037146172"><ele>18.0</ele><time>2026-04-06T10:26:19Z</time></trkpt><trkpt lat="51.193578557653545" lon="4.957764423294313"><ele>18.0</ele><time>2026-04-06T10:26:20Z</time></trkpt><trkpt lat="51.19368658589" lon="4.957736270767493"><ele>18.0</ele><time>2026-04-06T10:26:21Z</time></trkpt><trkpt lat="51.19379366492494" lon="4.957731190089904"><ele>18.0</ele><time>2026-04-06T10:26:22Z</time></trkpt><trkpt lat="51.19391128135771" lon="4.957774765967535"><ele>17.8</ele><time>2026-04-06T10:26:23Z</time></trkpt><trkpt lat="51.19402287637394" lon="4.957815816449276"><ele>17.6</ele><time>2026-04-06T10:26:24Z</time></trkpt><trkpt lat="51.194120392354336" lon="4.957850084727144"><ele>17.4</ele><time>2026-04-06T10:26:25Z</time></trkpt><trkpt lat="51.194205659633035" lon="4.957883850698818"><ele>17.2</ele><time>2026-04-06T10:26:26Z</time></trkpt><trkpt lat="51.19427264364608" lon="4.957917266611275"><ele>17.0</ele><time>2026-04-06T10:26:27Z</time></trkpt><trkpt lat="51.19432916776111" lon="4.958080972065987"><ele>17.0</ele><time>2026-04-06T10:26:29Z</time></trkpt><trkpt lat="51.194312123090214" lon="4.958209219466428"><ele>17.0</ele><time>2026-04-06T10:26:30Z</time></trkpt><trkpt lat="51.19426958273482" lon="4.958357339281001"><ele>17.0</ele><time>2026-04-06T10:26:31Z</time></trkpt><trkpt lat="51.194230058263436" lon="4.958529039873208"><ele>17.0</ele><time>2026-04-06T10:26:32Z</time></trkpt><trkpt lat="51.194184593516695" lon="4.958701293156796"><ele>17.0</ele><time>2026-04-06T10:26:33Z</time></trkpt><trkpt lat="51.19414781308906" lon="4.958834487551238"><ele>17.0</ele><time>2026-04-06T10:26:34Z</time></trkpt><trkpt lat="51.194132068803015" lon="4.958941727750682"><ele>17.0</ele><time>2026-04-06T10:26:35Z</time></trkpt><trkpt lat="51.194186994437466" lon="4.959137996238357"><ele>17.0</ele><time>2026-04-06T10:26:37Z</time></trkpt><trkpt lat="51.19424220189588" lon="4.959261677907276"><ele>17.0</ele><time>2026-04-06T10:26:38Z</time></trkpt><trkpt lat="51.19432425896296" lon="4.959362410089294"><ele>17.0</ele><time>2026-04-06T10:26:39Z</time></trkpt><trkpt lat="51.194386762340116" lon="4.959498798077134"><ele>17.25</ele><time>2026-04-06T10:26:40Z</time></trkpt><trkpt lat="51.19444880822898" lon="4.959636168653419"><ele>17.5</ele><time>2026-04-06T10:26:41Z</time></trkpt><trkpt lat="51.19451961161273" lon="4.959767899414696"><ele>17.75</ele><time>2026-04-06T10:26:42Z</time></trkpt><trkpt lat="51.19461138069365" lon="4.959875701523771"><ele>18.0</ele><time>2026-04-06T10:26:43Z</time></trkpt><trkpt lat="51.194726390505195" lon="4.95997969536275"><ele>17.75</ele><time>2026-04-06T10:26:44Z</time></trkpt><trkpt lat="51.19483781168861" lon="4.960068601593886"><ele>17.5</ele><time>2026-04-06T10:26:45Z</time></trkpt><trkpt lat="51.194956393054724" lon="4.960154858208492"><ele>17.25</ele><time>2026-04-06T10:26:46Z</time></trkpt><trkpt lat="51.19506429904489" lon="4.960288519451254"><ele>17.0</ele><time>2026-04-06T10:26:47Z</time></trkpt><trkpt lat="51.19517234246954" lon="4.9604325516341214"><ele>17.0</ele><time>2026-04-06T10:26:48Z</time></trkpt><trkpt lat="51.195285711908596" lon="4.96055964349402"><ele>17.0</ele><time>2026-04-06T10:26:49Z</time></trkpt><trkpt lat="51.1953844289268" lon="4.9606644985959605"><ele>17.0</ele><time>2026-04-06T10:26:50Z</time></trkpt><trkpt lat="51.1954897020638" lon="4.960750897061276"><ele>17.0</ele><time>2026-04-06T10:26:51Z</time></trkpt><trkpt lat="51.19560157225951" lon="4.960825700691049"><ele>17.0</ele><time>2026-04-06T10:26:52Z</time></trkpt><trkpt lat="51.195696737985394" lon="4.960919461778455"><ele>17.0</ele><time>2026-04-06T10:26:53Z</time></trkpt><trkpt lat="51.19576752798484" lon="4.961042492813621"><ele>17.0</ele><time>2026-04-06T10:26:54Z</time></trkpt><trkpt lat="51.195820827576554" lon="4.96117732343275"><ele>17.0</ele><time>2026-04-06T10:26:55Z</time></trkpt><trkpt lat="51.195893097402134" lon="4.961296901873454"><ele>17.0</ele><time>2026-04-06T10:26:56Z</time></trkpt><trkpt lat="51.19598588377043" lon="4.961404213527534"><ele>17.0</ele><time>2026-04-06T10:26:57Z</time></trkpt><trkpt lat="51.196085636707465" lon="4.961504301181098"><ele>17.0</ele><time>2026-04-06T10:26:58Z</time></trkpt><trkpt lat="51.19619575319586" lon="4.961570690318602"><ele>17.0</ele><time>2026-04-06T10:26:59Z</time></trkpt><trkpt lat="51.19631477534447" lon="4.961620275608897"><ele>17.0</ele><time>2026-04-06T10:27:00Z</time></trkpt><trkpt lat="51.19643003376942" lon="4.961722255533778"><ele>16.666666666666668</ele><time>2026-04-06T10:27:01Z</time></trkpt><trkpt lat="51.19654266424401" lon="4.961871738020002"><ele>16.333333333333332</ele><time>2026-04-06T10:27:02Z</time></trkpt><trkpt lat="51.196659685356394" lon="4.962048010305857"><ele>16.0</ele><time>2026-04-06T10:27:03Z</time></trkpt><trkpt lat="51.196788668292015" lon="4.9622386830400345"><ele>16.0</ele><time>2026-04-06T10:27:04Z</time></trkpt><trkpt lat="51.19691794823172" lon="4.962424914472992"><ele>16.0</ele><time>2026-04-06T10:27:05Z</time></trkpt><trkpt lat="51.19703480077532" lon="4.962591545565056"><ele>16.0</ele><time>2026-04-06T10:27:06Z</time></trkpt><trkpt lat="51.19714207612151" lon="4.9627430139495425"><ele>16.0</ele><time>2026-04-06T10:27:07Z</time></trkpt><trkpt lat="51.19724385091508" lon="4.962879375571485"><ele>16.0</ele><time>2026-04-06T10:27:08Z</time></trkpt><trkpt lat="51.19733066492808" lon="4.963018455839955"><ele>16.0</ele><time>2026-04-06T10:27:09Z</time></trkpt><trkpt lat="51.19740446847628" lon="4.963154738641587"><ele>16.0</ele><time>2026-04-06T10:27:10Z</time></trkpt><trkpt lat="51.19747340774471" lon="4.963280263762584"><ele>16.2</ele><time>2026-04-06T10:27:11Z</time></trkpt><trkpt lat="51.19754785651864" lon="4.963413121183662"><ele>16.400000000000002</ele><time>2026-04-06T10:27:12Z</time></trkpt><trkpt lat="51.19761582173653" lon="4.9635534602188125"><ele>16.6</ele><time>2026-04-06T10:27:13Z</time></trkpt><trkpt lat="51.19768734566671" lon="4.963686980473044"><ele>16.8</ele><time>2026-04-06T10:27:14Z</time></trkpt><trkpt lat="51.19777526473558" lon="4.963783100162712"><ele>17.0</ele><time>2026-04-06T10:27:15Z</time></trkpt><trkpt lat="51.197871844240545" lon="4.963871600655477"><ele>17.0</ele><time>2026-04-06T10:27:16Z</time></trkpt><trkpt lat="51.197997304323934" lon="4.9638842441607025"><ele>17.0</ele><time>2026-04-06T10:27:17Z</time></trkpt><trkpt lat="51.1981316104279" lon="4.963819280740109"><ele>17.0</ele><time>2026-04-06T10:27:18Z</time></trkpt><trkpt lat="51.19827354923386" lon="4.963754679264811"><ele>17.0</ele><time>2026-04-06T10:27:19Z</time></trkpt><trkpt lat="51.19842166154161" lon="4.9636834601087605"><ele>17.0</ele><time>2026-04-06T10:27:20Z</time></trkpt><trkpt lat="51.198560354793734" lon="4.963646819520885"><ele>17.0</ele><time>2026-04-06T10:27:21Z</time></trkpt><trkpt lat="51.19867293421435" lon="4.963597769537906"><ele>17.0</ele><time>2026-04-06T10:27:22Z</time></trkpt><trkpt lat="51.19875873785795" lon="4.963560385507056"><ele>17.0</ele><time>2026-04-06T10:27:23Z</time></trkpt><trkpt lat="51.198818882598935" lon="4.963525340540503"><ele>17.0</ele><time>2026-04-06T10:27:24Z</time></trkpt><trkpt lat="51.19890807548644" lon="4.963695118040994"><ele>17.0</ele><time>2026-04-06T10:27:26Z</time></trkpt><trkpt lat="51.19894010294874" lon="4.963856870658124"><ele>17.0</ele><time>2026-04-06T10:27:27Z</time></trkpt><trkpt lat="51.19898781120395" lon="4.964057036907471"><ele>17.0</ele><time>2026-04-06T10:27:28Z</time></trkpt><trkpt lat="51.19904514554752" lon="4.964296465830254"><ele>17.0</ele><time>2026-04-06T10:27:29Z</time></trkpt><trkpt lat="51.19909960336143" lon="4.964533291653982"><ele>17.333333333333336</ele><time>2026-04-06T10:27:30Z</time></trkpt><trkpt lat="51.19916077269495" lon="4.9647920775685925"><ele>17.666666666666668</ele><time>2026-04-06T10:27:31Z</time></trkpt><trkpt lat="51.19922738465854" lon="4.965075957848485"><ele>18.0</ele><time>2026-04-06T10:27:32Z</time></trkpt><trkpt lat="51.19929354134295" lon="4.965366211431196"><ele>18.333333333333332</ele><time>2026-04-06T10:27:33Z</time></trkpt><trkpt lat="51.19935987411029" lon="4.965653557064864"><ele>18.666666666666664</ele><time>2026-04-06T10:27:34Z</time></trkpt><trkpt lat="51.199424940926804" lon="4.965928423540576"><ele>19.0</ele><time>2026-04-06T10:27:35Z</time></trkpt><trkpt lat="51.1994886971003" lon="4.966190702857929"><ele>19.333333333333332</ele><time>2026-04-06T10:27:36Z</time></trkpt><trkpt lat="51.19954902545661" lon="4.9664498705160325"><ele>19.666666666666668</ele><time>2026-04-06T10:27:37Z</time></trkpt><trkpt lat="51.1996072135495" lon="4.966703619760267"><ele>20.0</ele><time>2026-04-06T10:27:38Z</time></trkpt><trkpt lat="51.19966661282059" lon="4.96695543083531"><ele>20.0</ele><time>2026-04-06T10:27:39Z</time></trkpt><trkpt lat="51.199726558353" lon="4.967209455112787"><ele>20.0</ele><time>2026-04-06T10:27:40Z</time></trkpt><trkpt lat="51.199787754156695" lon="4.967467506312458"><ele>20.0</ele><time>2026-04-06T10:27:41Z</time></trkpt><trkpt lat="51.19984920681747" lon="4.9677290278495105"><ele>20.0</ele><time>2026-04-06T10:27:42Z</time></trkpt><trkpt lat="51.19991154030312" lon="4.967993204078377"><ele>20.0</ele><time>2026-04-06T10:27:43Z</time></trkpt><trkpt lat="51.19997487775564" lon="4.968260546616229"><ele>20.0</ele><time>2026-04-06T10:27:44Z</time></trkpt><trkpt lat="51.200033965431054" lon="4.968512868546681"><ele>20.0</ele><time>2026-04-06T10:27:45Z</time></trkpt><trkpt lat="51.20009122971702" lon="4.9687454757120495"><ele>20.0</ele><time>2026-04-06T10:27:46Z</time></trkpt><trkpt lat="51.200137467481746" lon="4.968958374082284"><ele>20.0</ele><time>2026-04-06T10:27:47Z</time></trkpt><trkpt lat="51.20018046875215" lon="4.969148329261042"><ele>20.0</ele><time>2026-04-06T10:27:48Z</time></trkpt><trkpt lat="51.20021955962641" lon="4.9693078688709384"><ele>20.0</ele><time>2026-04-06T10:27:49Z</time></trkpt><trkpt lat="51.20025038387385" lon="4.969439449264782"><ele>20.0</ele><time>2026-04-06T10:27:50Z</time></trkpt><trkpt lat="51.200256509872546" lon="4.969555791525757"><ele>20.0</ele><time>2026-04-06T10:27:51Z</time></trkpt><trkpt lat="51.200223869940636" lon="4.969651523782285"><ele>20.0</ele><time>2026-04-06T10:27:52Z</time></trkpt><trkpt lat="51.200159962643134" lon="4.969724928787499"><ele>20.0</ele><time>2026-04-06T10:27:53Z</time></trkpt><trkpt lat="51.20006558529115" lon="4.969719124909248"><ele>20.0</ele><time>2026-04-06T10:27:54Z</time></trkpt><trkpt lat="51.19996014182561" lon="4.969756409192168"><ele>20.0</ele><time>2026-04-06T10:27:55Z</time></trkpt><trkpt lat="51.199839624868545" lon="4.96977874613962"><ele>20.0</ele><time>2026-04-06T10:27:56Z</time></trkpt><trkpt lat="51.19972273879909" lon="4.969806596446765"><ele>20.0</ele><time>2026-04-06T10:27:57Z</time></trkpt><trkpt lat="51.199635401147304" lon="4.969830978607155"><ele>20.0</ele><time>2026-04-06T10:27:58Z</time></trkpt><trkpt lat="51.199539679252304" lon="4.969954574349918"><ele>20.833333333333336</ele><time>2026-04-06T10:28:00Z</time></trkpt><trkpt lat="51.19952146963216" lon="4.970069358145168"><ele>21.666666666666668</ele><time>2026-04-06T10:28:01Z</time></trkpt><trkpt lat="51.19952724911264" lon="4.970210636920024"><ele>22.5</ele><time>2026-04-06T10:28:02Z</time></trkpt><trkpt lat="51.1995583767358" lon="4.970382282657171"><ele>23.333333333333336</ele><time>2026-04-06T10:28:03Z</time></trkpt><trkpt lat="51.199586628859585" lon="4.9705349546033375"><ele>24.166666666666668</ele><time>2026-04-06T10:28:04Z</time></trkpt><trkpt lat="51.199623596026" lon="4.970630613952076"><ele>25.0</ele><time>2026-04-06T10:28:05Z</time></trkpt><trkpt lat="51.199667663203485" lon="4.970718784957847"><ele>25.0</ele><time>2026-04-06T10:28:06Z</time></trkpt><trkpt lat="51.19974837366124" lon="4.970768899153133"><ele>25.0</ele><time>2026-04-06T10:28:07Z</time></trkpt><trkpt lat="51.1998528913676" lon="4.970743996692683"><ele>25.0</ele><time>2026-04-06T10:28:08Z</time></trkpt><trkpt lat="51.19996909584618" lon="4.970706044376118"><ele>25.0</ele><time>2026-04-06T10:28:09Z</time></trkpt><trkpt lat="51.20009818373303" lon="4.970662358358707"><ele>25.0</ele><time>2026-04-06T10:28:10Z</time></trkpt><trkpt lat="51.200235695392244" lon="4.970618339114474"><ele>24.0</ele><time>2026-04-06T10:28:11Z</time></trkpt><trkpt lat="51.200336958351535" lon="4.970558379511772"><ele>23.0</ele><time>2026-04-06T10:28:12Z</time></trkpt><trkpt lat="51.20042328751626" lon="4.970555263014619"><ele>22.0</ele><time>2026-04-06T10:28:13Z</time></trkpt><trkpt lat="51.20049566376094" lon="4.970612808010652"><ele>21.0</ele><time>2026-04-06T10:28:14Z</time></trkpt><trkpt lat="51.20054818818399" lon="4.970719221479243"><ele>20.0</ele><time>2026-04-06T10:28:15Z</time></trkpt><trkpt lat="51.20058030920072" lon="4.970871304135136"><ele>19.75</ele><time>2026-04-06T10:28:16Z</time></trkpt><trkpt lat="51.20062236288465" lon="4.971052850441205"><ele>19.5</ele><time>2026-04-06T10:28:17Z</time></trkpt><trkpt lat="51.20066894181243" lon="4.971257228655763"><ele>19.25</ele><time>2026-04-06T10:28:18Z</time></trkpt><trkpt lat="51.20072290034657" lon="4.971486006943412"><ele>19.0</ele><time>2026-04-06T10:28:19Z</time></trkpt><trkpt lat="51.20077671340496" lon="4.971712384065122"><ele>18.333333333333332</ele><time>2026-04-06T10:28:20Z</time></trkpt><trkpt lat="51.20083588562999" lon="4.97195706812838"><ele>17.666666666666668</ele><time>2026-04-06T10:28:21Z</time></trkpt><trkpt lat="51.200899959848165" lon="4.972227436811603"><ele>17.0</ele><time>2026-04-06T10:28:22Z</time></trkpt><trkpt lat="51.20096583298014" lon="4.9725121162314405"><ele>17.0</ele><time>2026-04-06T10:28:23Z</time></trkpt><trkpt lat="51.20102797527107" lon="4.972779997964288"><ele>17.0</ele><time>2026-04-06T10:28:24Z</time></trkpt><trkpt lat="51.20109042922723" lon="4.973045023253908"><ele>17.0</ele><time>2026-04-06T10:28:25Z</time></trkpt><trkpt lat="51.201151649796174" lon="4.973307712303534"><ele>17.0</ele><time>2026-04-06T10:28:26Z</time></trkpt><trkpt lat="51.20121280113097" lon="4.973563387455785"><ele>17.0</ele><time>2026-04-06T10:28:27Z</time></trkpt><trkpt lat="51.20127909921935" lon="4.973810528212137"><ele>17.0</ele><time>2026-04-06T10:28:28Z</time></trkpt><trkpt lat="51.20133917488045" lon="4.97405969763683"><ele>17.0</ele><time>2026-04-06T10:28:29Z</time></trkpt><trkpt lat="51.20139319881661" lon="4.974308168161569"><ele>17.0</ele><time>2026-04-06T10:28:30Z</time></trkpt><trkpt lat="51.201451441149096" lon="4.974552754035782"><ele>17.0</ele><time>2026-04-06T10:28:31Z</time></trkpt><trkpt lat="51.20151773601045" lon="4.974796503831718"><ele>17.333333333333336</ele><time>2026-04-06T10:28:32Z</time></trkpt><trkpt lat="51.20158814422848" lon="4.97504131182508"><ele>17.666666666666668</ele><time>2026-04-06T10:28:33Z</time></trkpt><trkpt lat="51.20165721388912" lon="4.975287724796864"><ele>18.0</ele><time>2026-04-06T10:28:34Z</time></trkpt><trkpt lat="51.201723885309995" lon="4.975526388157816"><ele>18.0</ele><time>2026-04-06T10:28:35Z</time></trkpt><trkpt lat="51.201788758601026" lon="4.975761674151431"><ele>18.0</ele><time>2026-04-06T10:28:36Z</time></trkpt><trkpt lat="51.20185368370458" lon="4.975993971112247"><ele>18.0</ele><time>2026-04-06T10:28:37Z</time></trkpt><trkpt lat="51.20191672403514" lon="4.976224301802886"><ele>18.25</ele><time>2026-04-06T10:28:38Z</time></trkpt><trkpt lat="51.2019805229683" lon="4.976447590116964"><ele>18.5</ele><time>2026-04-06T10:28:39Z</time></trkpt><trkpt lat="51.20204052116391" lon="4.9766626256142725"><ele>18.75</ele><time>2026-04-06T10:28:40Z</time></trkpt><trkpt lat="51.20208883038011" lon="4.9768762013938135"><ele>19.0</ele><time>2026-04-06T10:28:41Z</time></trkpt><trkpt lat="51.20212828038846" lon="4.977088091664117"><ele>19.0</ele><time>2026-04-06T10:28:42Z</time></trkpt><trkpt lat="51.20216288121213" lon="4.9772851917779635"><ele>19.0</ele><time>2026-04-06T10:28:43Z</time></trkpt><trkpt lat="51.20219467859108" lon="4.977471970667422"><ele>19.0</ele><time>2026-04-06T10:28:44Z</time></trkpt><trkpt lat="51.202226561753825" lon="4.977656748721789"><ele>19.0</ele><time>2026-04-06T10:28:45Z</time></trkpt><trkpt lat="51.2022606853837" lon="4.977842755678747"><ele>18.75</ele><time>2026-04-06T10:28:46Z</time></trkpt><trkpt lat="51.20229347294311" lon="4.97802288844015"><ele>18.5</ele><time>2026-04-06T10:28:47Z</time></trkpt><trkpt lat="51.20232200780789" lon="4.97819358516423"><ele>18.25</ele><time>2026-04-06T10:28:48Z</time></trkpt><trkpt lat="51.20235350577977" lon="4.978369203444639"><ele>18.0</ele><time>2026-04-06T10:28:49Z</time></trkpt><trkpt lat="51.2023864216451" lon="4.978549258811474"><ele>18.0</ele><time>2026-04-06T10:28:50Z</time></trkpt><trkpt lat="51.2024182549079" lon="4.978734363548071"><ele>18.0</ele><time>2026-04-06T10:28:51Z</time></trkpt><trkpt lat="51.20244654441441" lon="4.978919268359196"><ele>18.0</ele><time>2026-04-06T10:28:52Z</time></trkpt><trkpt lat="51.202471870237794" lon="4.979086545073096"><ele>18.0</ele><time>2026-04-06T10:28:53Z</time></trkpt><trkpt lat="51.20250197788773" lon="4.979238271575472"><ele>18.0</ele><time>2026-04-06T10:28:54Z</time></trkpt><trkpt lat="51.20252394842612" lon="4.979347797480083"><ele>18.166666666666668</ele><time>2026-04-06T10:28:55Z</time></trkpt><trkpt lat="51.20255052686209" lon="4.979490089508695"><ele>18.333333333333332</ele><time>2026-04-06T10:28:57Z</time></trkpt><trkpt lat="51.20257440098081" lon="4.9796057676000895"><ele>18.5</ele><time>2026-04-06T10:29:00Z</time></trkpt><trkpt lat="51.20268729238641" lon="4.979572770180163"><ele>18.666666666666664</ele><time>2026-04-06T10:29:01Z</time></trkpt><trkpt lat="51.20275299339124" lon="4.979550336551226"><ele>18.833333333333332</ele><time>2026-04-06T10:29:02Z</time></trkpt><trkpt lat="51.20283751050246" lon="4.9795267071033615"><ele>19.0</ele><time>2026-04-06T10:29:03Z</time></trkpt><trkpt lat="51.20294151838947" lon="4.979501734205023"><ele>19.0</ele><time>2026-04-06T10:29:04Z</time></trkpt><trkpt lat="51.20303271289195" lon="4.979478474105662"><ele>19.0</ele><time>2026-04-06T10:29:05Z</time></trkpt><trkpt lat="51.20312500201893" lon="4.979455573289692"><ele>19.0</ele><time>2026-04-06T10:29:06Z</time></trkpt><trkpt lat="51.20321876862864" lon="4.979434765110776"><ele>19.0</ele><time>2026-04-06T10:29:07Z</time></trkpt><trkpt lat="51.20331474063568" lon="4.97941422309568"><ele>19.0</ele><time>2026-04-06T10:29:08Z</time></trkpt><trkpt lat="51.20341142766582" lon="4.97939170803279"><ele>19.2</ele><time>2026-04-06T10:29:09Z</time></trkpt><trkpt lat="51.20350995331992" lon="4.979364314363429"><ele>19.4</ele><time>2026-04-06T10:29:10Z</time></trkpt><trkpt lat="51.20360907299894" lon="4.979332361892888"><ele>19.6</ele><time>2026-04-06T10:29:11Z</time></trkpt><trkpt lat="51.20370892492194" lon="4.97932468049739"><ele>19.8</ele><time>2026-04-06T10:29:12Z</time></trkpt><trkpt lat="51.20378813707632" lon="4.979270413864005"><ele>20.0</ele><time>2026-04-06T10:29:13Z</time></trkpt><trkpt lat="51.203868351334414" lon="4.979248727548534"><ele>20.0</ele><time>2026-04-06T10:29:14Z</time></trkpt><trkpt lat="51.203947642385096" lon="4.979228325382282"><ele>20.0</ele><time>2026-04-06T10:29:15Z</time></trkpt><trkpt lat="51.2040282074218" lon="4.9792091973639225"><ele>20.0</ele><time>2026-04-06T10:29:16Z</time></trkpt><trkpt lat="51.20411265234062" lon="4.979183702214513"><ele>20.0</ele><time>2026-04-06T10:29:17Z</time></trkpt><trkpt lat="51.204197347634995" lon="4.979161344467643"><ele>20.0</ele><time>2026-04-06T10:29:18Z</time></trkpt><trkpt lat="51.204286138869726" lon="4.979136143649528"><ele>20.0</ele><time>2026-04-06T10:29:19Z</time></trkpt><trkpt lat="51.20438131479446" lon="4.9791087260457205"><ele>19.8</ele><time>2026-04-06T10:29:20Z</time></trkpt><trkpt lat="51.2044801314011" lon="4.979080894078705"><ele>19.6</ele><time>2026-04-06T10:29:21Z</time></trkpt><trkpt lat="51.20458463262514" lon="4.979077664724522"><ele>19.4</ele><time>2026-04-06T10:29:22Z</time></trkpt><trkpt lat="51.204688206023455" lon="4.979027333379574"><ele>19.2</ele><time>2026-04-06T10:29:23Z</time></trkpt><trkpt lat="51.2047986848627" lon="4.979005868084857"><ele>19.0</ele><time>2026-04-06T10:29:24Z</time></trkpt><trkpt lat="51.204912048997045" lon="4.978980037716964"><ele>18.75</ele><time>2026-04-06T10:29:25Z</time></trkpt><trkpt lat="51.205026568569245" lon="4.978946169667735"><ele>18.5</ele><time>2026-04-06T10:29:26Z</time></trkpt><trkpt lat="51.20514417313215" lon="4.978911148978926"><ele>18.25</ele><time>2026-04-06T10:29:27Z</time></trkpt><trkpt lat="51.20526477285065" lon="4.978880295228288"><ele>18.0</ele><time>2026-04-06T10:29:28Z</time></trkpt><trkpt lat="51.20536811360562" lon="4.978851827063004"><ele>18.0</ele><time>2026-04-06T10:29:29Z</time></trkpt><trkpt lat="51.20544380277698" lon="4.978839332878252"><ele>18.0</ele><time>2026-04-06T10:29:30Z</time></trkpt><trkpt lat="51.20555532273652" lon="4.978835725523417"><ele>18.0</ele><time>2026-04-06T10:29:32Z</time></trkpt><trkpt lat="51.20562646796954" lon="4.978846552167957"><ele>18.0</ele><time>2026-04-06T10:29:36Z</time></trkpt><trkpt lat="51.20563960037414" lon="4.979097578901912"><ele>18.0</ele><time>2026-04-06T10:30:02Z</time></trkpt><trkpt lat="51.2055551058339" lon="4.979202227247662"><ele>18.0</ele><time>2026-04-06T10:30:28Z</time></trkpt><trkpt lat="51.20558623807202" lon="4.9793169218544175"><ele>18.0</ele><time>2026-04-06T10:30:31Z</time></trkpt><trkpt lat="51.205665772901455" lon="4.97927604359841"><ele>18.0</ele><time>2026-04-06T10:30:33Z</time></trkpt><trkpt lat="51.20573623681543" lon="4.979180920766402"><ele>18.0</ele><time>2026-04-06T10:30:35Z</time></trkpt><trkpt lat="51.205785721280925" lon="4.9791039338353436"><ele>18.0</ele><time>2026-04-06T10:30:38Z</time></trkpt><trkpt lat="51.20574968445754" lon="4.979018809659241"><ele>18.0</ele><time>2026-04-06T10:30:40Z</time></trkpt><trkpt lat="51.20567364857816" lon="4.978993214365897"><ele>18.0</ele><time>2026-04-06T10:30:59Z</time></trkpt><trkpt lat="51.2056510535441" lon="4.979103866231435"><ele>18.0</ele><time>2026-04-06T10:33:02Z</time></trkpt><trkpt lat="51.20555828287511" lon="4.97920695441702"><ele>18.0</ele><time>2026-04-06T10:33:04Z</time></trkpt><trkpt lat="51.205524530655815" lon="4.979319612811609"><ele>18.0</ele><time>2026-04-06T10:33:06Z</time></trkpt><trkpt lat="51.20547994219669" lon="4.979404883006"><ele>18.0</ele><time>2026-04-06T10:33:09Z</time></trkpt><trkpt lat="51.20543362164589" lon="4.979483573714135"><ele>18.0</ele><time>2026-04-06T10:33:11Z</time></trkpt><trkpt lat="51.20539038041417" lon="4.979559485803998"><ele>18.0</ele><time>2026-04-06T10:33:12Z</time></trkpt><trkpt lat="51.20531927539635" lon="4.979651306826035"><ele>18.0</ele><time>2026-04-06T10:33:13Z</time></trkpt><trkpt lat="51.205212085274496" lon="4.97976125223039"><ele>18.0</ele><time>2026-04-06T10:33:14Z</time></trkpt><trkpt lat="51.20509192215924" lon="4.979875152126655"><ele>18.0</ele><time>2026-04-06T10:33:15Z</time></trkpt><trkpt lat="51.2049831324289" lon="4.9799842736364255"><ele>18.25</ele><time>2026-04-06T10:33:16Z</time></trkpt><trkpt lat="51.20488032516357" lon="4.980091017258683"><ele>18.5</ele><time>2026-04-06T10:33:17Z</time></trkpt><trkpt lat="51.20477763246187" lon="4.980187888184556"><ele>18.75</ele><time>2026-04-06T10:33:18Z</time></trkpt><trkpt lat="51.20467063801248" lon="4.980280094955301"><ele>19.0</ele><time>2026-04-06T10:33:19Z</time></trkpt><trkpt lat="51.20456689186346" lon="4.98036379990684"><ele>19.0</ele><time>2026-04-06T10:33:20Z</time></trkpt><trkpt lat="51.204472724134" lon="4.980433960330089"><ele>19.0</ele><time>2026-04-06T10:33:21Z</time></trkpt><trkpt lat="51.2043839187739" lon="4.980498191741811"><ele>19.0</ele><time>2026-04-06T10:33:22Z</time></trkpt><trkpt lat="51.20430041901516" lon="4.9805545973540655"><ele>19.0</ele><time>2026-04-06T10:33:23Z</time></trkpt><trkpt lat="51.204211202777564" lon="4.980615303889127"><ele>19.0</ele><time>2026-04-06T10:33:24Z</time></trkpt><trkpt lat="51.20411500232437" lon="4.980680533194713"><ele>19.0</ele><time>2026-04-06T10:33:25Z</time></trkpt><trkpt lat="51.204005703474" lon="4.9807568607796675"><ele>19.0</ele><time>2026-04-06T10:33:26Z</time></trkpt><trkpt lat="51.2038821262315" lon="4.980843115217794"><ele>19.0</ele><time>2026-04-06T10:33:27Z</time></trkpt><trkpt lat="51.20376693435979" lon="4.980927776435638"><ele>19.0</ele><time>2026-04-06T10:33:28Z</time></trkpt><trkpt lat="51.203649217535535" lon="4.9810149962873"><ele>19.0</ele><time>2026-04-06T10:33:29Z</time></trkpt><trkpt lat="51.20352539264099" lon="4.981109213137108"><ele>19.0</ele><time>2026-04-06T10:33:30Z</time></trkpt><trkpt lat="51.20339980592148" lon="4.981197715697247"><ele>19.0</ele><time>2026-04-06T10:33:31Z</time></trkpt><trkpt lat="51.203271456511395" lon="4.981285610333252"><ele>19.0</ele><time>2026-04-06T10:33:32Z</time></trkpt><trkpt lat="51.203139792344466" lon="4.981378840481247"><ele>19.0</ele><time>2026-04-06T10:33:33Z</time></trkpt><trkpt lat="51.20300297288802" lon="4.981466687314133"><ele>19.0</ele><time>2026-04-06T10:33:34Z</time></trkpt><trkpt lat="51.202866781729085" lon="4.9815562713742585"><ele>19.0</ele><time>2026-04-06T10:33:35Z</time></trkpt><trkpt lat="51.20272555041707" lon="4.98164353039608"><ele>19.0</ele><time>2026-04-06T10:33:36Z</time></trkpt><trkpt lat="51.2025826634325" lon="4.981728183773082"><ele>18.75</ele><time>2026-04-06T10:33:37Z</time></trkpt><trkpt lat="51.20244617270298" lon="4.981801966208171"><ele>18.5</ele><time>2026-04-06T10:33:38Z</time></trkpt><trkpt lat="51.20231231192045" lon="4.981878013520641"><ele>18.25</ele><time>2026-04-06T10:33:39Z</time></trkpt><trkpt lat="51.202178556557065" lon="4.981953231430701"><ele>18.0</ele><time>2026-04-06T10:33:40Z</time></trkpt><trkpt lat="51.2020412111381" lon="4.98201484302751"><ele>18.5</ele><time>2026-04-06T10:33:41Z</time></trkpt><trkpt lat="51.20190533696132" lon="4.982083334365427"><ele>19.0</ele><time>2026-04-06T10:33:42Z</time></trkpt><trkpt lat="51.20176577687415" lon="4.982146654555821"><ele>19.5</ele><time>2026-04-06T10:33:43Z</time></trkpt><trkpt lat="51.201626507915876" lon="4.982210115900513"><ele>20.0</ele><time>2026-04-06T10:33:44Z</time></trkpt><trkpt lat="51.201484674597" lon="4.982272125791829"><ele>20.333333333333336</ele><time>2026-04-06T10:33:45Z</time></trkpt><trkpt lat="51.201341650680945" lon="4.982335496169245"><ele>20.666666666666668</ele><time>2026-04-06T10:33:46Z</time></trkpt><trkpt lat="51.20119531245579" lon="4.982402202904333"><ele>21.0</ele><time>2026-04-06T10:33:47Z</time></trkpt><trkpt lat="51.20104642043839" lon="4.982472558417144"><ele>21.0</ele><time>2026-04-06T10:33:48Z</time></trkpt><trkpt lat="51.20089454684767" lon="4.982542434459068"><ele>21.0</ele><time>2026-04-06T10:33:49Z</time></trkpt><trkpt lat="51.2007408165679" lon="4.98261004134053"><ele>21.0</ele><time>2026-04-06T10:33:50Z</time></trkpt><trkpt lat="51.20059144366116" lon="4.982668929767458"><ele>20.666666666666668</ele><time>2026-04-06T10:33:51Z</time></trkpt><trkpt lat="51.20044113694362" lon="4.982720673845025"><ele>20.333333333333336</ele><time>2026-04-06T10:33:52Z</time></trkpt><trkpt lat="51.20028977824508" lon="4.982765258853356"><ele>20.0</ele><time>2026-04-06T10:33:53Z</time></trkpt><trkpt lat="51.20013774152959" lon="4.982805858675871"><ele>20.0</ele><time>2026-04-06T10:33:54Z</time></trkpt><trkpt lat="51.19998370996982" lon="4.982838149886493"><ele>20.0</ele><time>2026-04-06T10:33:55Z</time></trkpt><trkpt lat="51.19982729267905" lon="4.982861171432831"><ele>20.0</ele><time>2026-04-06T10:33:56Z</time></trkpt><trkpt lat="51.19966890754045" lon="4.982874828259371"><ele>19.666666666666668</ele><time>2026-04-06T10:33:57Z</time></trkpt><trkpt lat="51.19950725689576" lon="4.982847638907008"><ele>19.333333333333332</ele><time>2026-04-06T10:33:58Z</time></trkpt><trkpt lat="51.19934347422586" lon="4.9828391926052475"><ele>19.0</ele><time>2026-04-06T10:33:59Z</time></trkpt><trkpt lat="51.19917749907363" lon="4.982821585075946"><ele>19.0</ele><time>2026-04-06T10:34:00Z</time></trkpt><trkpt lat="51.199011348425984" lon="4.982795516195137"><ele>19.0</ele><time>2026-04-06T10:34:01Z</time></trkpt><trkpt lat="51.19884411632948" lon="4.9827610029267575"><ele>19.0</ele><time>2026-04-06T10:34:02Z</time></trkpt><trkpt lat="51.19868551267838" lon="4.982715686566371"><ele>19.0</ele><time>2026-04-06T10:34:03Z</time></trkpt><trkpt lat="51.198544109751275" lon="4.982692122290725"><ele>19.0</ele><time>2026-04-06T10:34:04Z</time></trkpt><trkpt lat="51.19842906432064" lon="4.9826425008376045"><ele>19.0</ele><time>2026-04-06T10:34:05Z</time></trkpt><trkpt lat="51.19833026522693" lon="4.982594266153312"><ele>19.0</ele><time>2026-04-06T10:34:06Z</time></trkpt><trkpt lat="51.198244998859906" lon="4.982551676755719"><ele>19.166666666666664</ele><time>2026-04-06T10:34:07Z</time></trkpt><trkpt lat="51.19818954823845" lon="4.982501920146364"><ele>19.333333333333332</ele><time>2026-04-06T10:34:08Z</time></trkpt><trkpt lat="51.19812466509687" lon="4.982412228632228"><ele>19.5</ele><time>2026-04-06T10:34:10Z</time></trkpt><trkpt lat="51.19806526597931" lon="4.982190173467316"><ele>19.666666666666668</ele><time>2026-04-06T10:34:13Z</time></trkpt><trkpt lat="51.19801753398555" lon="4.9821031673958815"><ele>19.833333333333336</ele><time>2026-04-06T10:34:15Z</time></trkpt><trkpt lat="51.1979514078204" lon="4.982071522837731"><ele>20.0</ele><time>2026-04-06T10:34:18Z</time></trkpt><trkpt lat="51.197936532279655" lon="4.982183768442577"><ele>19.6</ele><time>2026-04-06T10:39:35Z</time></trkpt><trkpt lat="51.19786282155532" lon="4.982120256543827"><ele>19.2</ele><time>2026-04-06T10:39:47Z</time></trkpt><trkpt lat="51.1977691445518" lon="4.982085018835789"><ele>18.8</ele><time>2026-04-06T10:39:49Z</time></trkpt><trkpt lat="51.19769500889866" lon="4.982137227276454"><ele>18.4</ele><time>2026-04-06T10:39:51Z</time></trkpt><trkpt lat="51.19776874263042" lon="4.9823881464139514"><ele>18.0</ele><time>2026-04-06T10:40:13Z</time></trkpt><trkpt lat="51.197861135206395" lon="4.982449871064758"><ele>17.75</ele><time>2026-04-06T10:40:14Z</time></trkpt><trkpt lat="51.19799048581342" lon="4.98251622263207"><ele>17.5</ele><time>2026-04-06T10:40:15Z</time></trkpt><trkpt lat="51.19811791083747" lon="4.982577493333066"><ele>17.25</ele><time>2026-04-06T10:40:16Z</time></trkpt><trkpt lat="51.19822507284141" lon="4.982623271780069"><ele>17.0</ele><time>2026-04-06T10:40:17Z</time></trkpt><trkpt lat="51.19830978880291" lon="4.98265620658905"><ele>17.333333333333336</ele><time>2026-04-06T10:40:18Z</time></trkpt><trkpt lat="51.19837933439371" lon="4.9826861764741635"><ele>17.666666666666668</ele><time>2026-04-06T10:40:19Z</time></trkpt><trkpt lat="51.198430479996944" lon="4.982744855005674"><ele>18.0</ele><time>2026-04-06T10:40:20Z</time></trkpt><trkpt lat="51.19845946738185" lon="4.9828360735044"><ele>18.333333333333332</ele><time>2026-04-06T10:40:21Z</time></trkpt><trkpt lat="51.19847987960324" lon="4.982944510766147"><ele>18.666666666666664</ele><time>2026-04-06T10:40:22Z</time></trkpt><trkpt lat="51.19850206280969" lon="4.983076247816218"><ele>19.0</ele><time>2026-04-06T10:40:23Z</time></trkpt><trkpt lat="51.19852710767135" lon="4.983224822322245"><ele>18.5</ele><time>2026-04-06T10:40:24Z</time></trkpt><trkpt lat="51.198556488642936" lon="4.98338543818689"><ele>18.0</ele><time>2026-04-06T10:40:25Z</time></trkpt><trkpt lat="51.19859551992333" lon="4.983562819944404"><ele>17.5</ele><time>2026-04-06T10:40:26Z</time></trkpt><trkpt lat="51.19863715773482" lon="4.983763247206202"><ele>17.0</ele><time>2026-04-06T10:40:27Z</time></trkpt><trkpt lat="51.19867675818551" lon="4.983977215620516"><ele>17.25</ele><time>2026-04-06T10:40:28Z</time></trkpt><trkpt lat="51.19871630772995" lon="4.984186894950731"><ele>17.5</ele><time>2026-04-06T10:40:29Z</time></trkpt><trkpt lat="51.19875200006315" lon="4.984375321942002"><ele>17.75</ele><time>2026-04-06T10:40:30Z</time></trkpt><trkpt lat="51.19878604266935" lon="4.984562068004126"><ele>18.0</ele><time>2026-04-06T10:40:31Z</time></trkpt><trkpt lat="51.198821758529775" lon="4.984748126790035"><ele>18.0</ele><time>2026-04-06T10:40:32Z</time></trkpt><trkpt lat="51.1988604045633" lon="4.984932448288979"><ele>18.0</ele><time>2026-04-06T10:40:33Z</time></trkpt><trkpt lat="51.19889702546805" lon="4.9851184146583325"><ele>18.0</ele><time>2026-04-06T10:40:34Z</time></trkpt><trkpt lat="51.19893340081909" lon="4.985305209349615"><ele>18.0</ele><time>2026-04-06T10:40:35Z</time></trkpt><trkpt lat="51.19896615898048" lon="4.985488172097704"><ele>18.0</ele><time>2026-04-06T10:40:36Z</time></trkpt><trkpt lat="51.19899908038202" lon="4.985664652840916"><ele>18.0</ele><time>2026-04-06T10:40:37Z</time></trkpt><trkpt lat="51.19903019822549" lon="4.985831809239004"><ele>18.0</ele><time>2026-04-06T10:40:38Z</time></trkpt><trkpt lat="51.19905940795669" lon="4.9859832278946055"><ele>18.0</ele><time>2026-04-06T10:40:39Z</time></trkpt><trkpt lat="51.19908878617592" lon="4.9861318363753435"><ele>18.0</ele><time>2026-04-06T10:40:40Z</time></trkpt><trkpt lat="51.19911816617848" lon="4.986288943858681"><ele>18.0</ele><time>2026-04-06T10:40:41Z</time></trkpt><trkpt lat="51.19914939580613" lon="4.986461653794374"><ele>18.0</ele><time>2026-04-06T10:40:42Z</time></trkpt><trkpt lat="51.19918141532887" lon="4.986642315239397"><ele>18.0</ele><time>2026-04-06T10:40:43Z</time></trkpt><trkpt lat="51.19921706851115" lon="4.986829522992516"><ele>18.0</ele><time>2026-04-06T10:40:44Z</time></trkpt><trkpt lat="51.19925435871283" lon="4.987022898850183"><ele>18.0</ele><time>2026-04-06T10:40:45Z</time></trkpt><trkpt lat="51.19929260196004" lon="4.987225148748891"><ele>18.0</ele><time>2026-04-06T10:40:46Z</time></trkpt><trkpt lat="51.19933385027383" lon="4.987431118825931"><ele>18.0</ele><time>2026-04-06T10:40:47Z</time></trkpt><trkpt lat="51.19937404910416" lon="4.987647741151914"><ele>18.0</ele><time>2026-04-06T10:40:48Z</time></trkpt><trkpt lat="51.19941378962545" lon="4.987863079309759"><ele>18.0</ele><time>2026-04-06T10:40:49Z</time></trkpt><trkpt lat="51.19945573082168" lon="4.988082361338229"><ele>18.0</ele><time>2026-04-06T10:40:50Z</time></trkpt><trkpt lat="51.19950224537369" lon="4.9883325418226026"><ele>18.0</ele><time>2026-04-06T10:40:51Z</time></trkpt><trkpt lat="51.199549871737645" lon="4.988577994516864"><ele>18.0</ele><time>2026-04-06T10:40:52Z</time></trkpt><trkpt lat="51.19959530106983" lon="4.988818290735032"><ele>18.0</ele><time>2026-04-06T10:40:53Z</time></trkpt><trkpt lat="51.19964217317056" lon="4.989066523545429"><ele>18.0</ele><time>2026-04-06T10:40:54Z</time></trkpt><trkpt lat="51.199688372068664" lon="4.98931875442354"><ele>18.0</ele><time>2026-04-06T10:40:55Z</time></trkpt><trkpt lat="51.199736685837394" lon="4.989572687099535"><ele>18.0</ele><time>2026-04-06T10:40:56Z</time></trkpt><trkpt lat="51.199785711020176" lon="4.989826892253627"><ele>18.0</ele><time>2026-04-06T10:40:57Z</time></trkpt><trkpt lat="51.199835283004354" lon="4.990083449385478"><ele>18.0</ele><time>2026-04-06T10:40:58Z</time></trkpt><trkpt lat="51.199884010600044" lon="4.990342584380413"><ele>18.0</ele><time>2026-04-06T10:40:59Z</time></trkpt><trkpt lat="51.199928992347594" lon="4.990603857667673"><ele>18.0</ele><time>2026-04-06T10:41:00Z</time></trkpt><trkpt lat="51.199978876838294" lon="4.990861274133861"><ele>18.0</ele><time>2026-04-06T10:41:01Z</time></trkpt><trkpt lat="51.20002947168243" lon="4.991121695394914"><ele>18.0</ele><time>2026-04-06T10:41:02Z</time></trkpt><trkpt lat="51.2000802723397" lon="4.99138008893697"><ele>18.0</ele><time>2026-04-06T10:41:03Z</time></trkpt><trkpt lat="51.20013010858684" lon="4.991641389153948"><ele>18.0</ele><time>2026-04-06T10:41:04Z</time></trkpt><trkpt lat="51.20017504768418" lon="4.991888283039737"><ele>18.0</ele><time>2026-04-06T10:41:05Z</time></trkpt><trkpt lat="51.200213121944735" lon="4.9921141946766685"><ele>18.0</ele><time>2026-04-06T10:41:06Z</time></trkpt><trkpt lat="51.2002466771431" lon="4.992305022842288"><ele>18.0</ele><time>2026-04-06T10:41:07Z</time></trkpt><trkpt lat="51.200277659468604" lon="4.992472412586613"><ele>17.75</ele><time>2026-04-06T10:41:08Z</time></trkpt><trkpt lat="51.2003018449856" lon="4.992613450714588"><ele>17.5</ele><time>2026-04-06T10:41:09Z</time></trkpt><trkpt lat="51.200323188994375" lon="4.992766353624225"><ele>17.25</ele><time>2026-04-06T10:41:11Z</time></trkpt><trkpt lat="51.2004916561796" lon="4.992787456407682"><ele>17.0</ele><time>2026-04-06T10:41:15Z</time></trkpt><trkpt lat="51.200590907215464" lon="4.992756070589379"><ele>16.75</ele><time>2026-04-06T10:41:16Z</time></trkpt><trkpt lat="51.20070852264723" lon="4.992692037851772"><ele>16.5</ele><time>2026-04-06T10:41:17Z</time></trkpt><trkpt lat="51.20081601533672" lon="4.992630821031982"><ele>16.25</ele><time>2026-04-06T10:41:18Z</time></trkpt><trkpt lat="51.200936555489974" lon="4.99256217378252"><ele>16.0</ele><time>2026-04-06T10:41:19Z</time></trkpt><trkpt lat="51.20106124544218" lon="4.992463302041978"><ele>16.0</ele><time>2026-04-06T10:41:20Z</time></trkpt><trkpt lat="51.20120295547735" lon="4.992410707013036"><ele>16.0</ele><time>2026-04-06T10:41:21Z</time></trkpt><trkpt lat="51.20132802913294" lon="4.992339939945624"><ele>16.0</ele><time>2026-04-06T10:41:22Z</time></trkpt><trkpt lat="51.20143744845096" lon="4.99227797451602"><ele>16.0</ele><time>2026-04-06T10:41:23Z</time></trkpt><trkpt lat="51.2015384925265" lon="4.992221126511714"><ele>16.0</ele><time>2026-04-06T10:41:24Z</time></trkpt><trkpt lat="51.20162968268373" lon="4.9921693626515875"><ele>16.0</ele><time>2026-04-06T10:41:25Z</time></trkpt><trkpt lat="51.20169941544309" lon="4.992143790759017"><ele>16.0</ele><time>2026-04-06T10:41:26Z</time></trkpt><trkpt lat="51.201797600056615" lon="4.992281114887973"><ele>16.0</ele><time>2026-04-06T10:41:28Z</time></trkpt><trkpt lat="51.20181609777819" lon="4.9924271716094335"><ele>16.0</ele><time>2026-04-06T10:41:29Z</time></trkpt><trkpt lat="51.20182342058645" lon="4.992612245860817"><ele>16.0</ele><time>2026-04-06T10:41:30Z</time></trkpt><trkpt lat="51.20183278773296" lon="4.992830964357416"><ele>16.0</ele><time>2026-04-06T10:41:31Z</time></trkpt><trkpt lat="51.201845979850646" lon="4.99307774580862"><ele>16.0</ele><time>2026-04-06T10:41:32Z</time></trkpt><trkpt lat="51.201860059773594" lon="4.993320184773871"><ele>16.0</ele><time>2026-04-06T10:41:33Z</time></trkpt><trkpt lat="51.20187347272511" lon="4.993569751895265"><ele>16.0</ele><time>2026-04-06T10:41:34Z</time></trkpt><trkpt lat="51.201887563237634" lon="4.993833157019113"><ele>16.0</ele><time>2026-04-06T10:41:35Z</time></trkpt><trkpt lat="51.2019023652434" lon="4.994110999618698"><ele>16.0</ele><time>2026-04-06T10:41:36Z</time></trkpt><trkpt lat="51.20191610754227" lon="4.994374326899657"><ele>16.333333333333332</ele><time>2026-04-06T10:41:37Z</time></trkpt><trkpt lat="51.20193097643888" lon="4.9946314049409075"><ele>16.666666666666668</ele><time>2026-04-06T10:41:38Z</time></trkpt><trkpt lat="51.201949911356415" lon="4.994883458605329"><ele>17.0</ele><time>2026-04-06T10:41:39Z</time></trkpt><trkpt lat="51.20196594793611" lon="4.995137664935798"><ele>17.0</ele><time>2026-04-06T10:41:40Z</time></trkpt><trkpt lat="51.20196348000258" lon="4.995397920617742"><ele>17.0</ele><time>2026-04-06T10:41:41Z</time></trkpt><trkpt lat="51.201932071619964" lon="4.99566009330477"><ele>17.0</ele><time>2026-04-06T10:41:42Z</time></trkpt><trkpt lat="51.201889271757864" lon="4.995933438685149"><ele>17.333333333333336</ele><time>2026-04-06T10:41:43Z</time></trkpt><trkpt lat="51.201840204471644" lon="4.996216731922279"><ele>17.666666666666668</ele><time>2026-04-06T10:41:44Z</time></trkpt><trkpt lat="51.2017901727362" lon="4.996503472591819"><ele>18.0</ele><time>2026-04-06T10:41:45Z</time></trkpt><trkpt lat="51.201739692518416" lon="4.996794633671449"><ele>18.0</ele><time>2026-04-06T10:41:46Z</time></trkpt><trkpt lat="51.20168934772921" lon="4.997088468871455"><ele>18.0</ele><time>2026-04-06T10:41:47Z</time></trkpt><trkpt lat="51.20163845588652" lon="4.99738591544767"><ele>18.0</ele><time>2026-04-06T10:41:48Z</time></trkpt><trkpt lat="51.20158634908427" lon="4.9976872925161455"><ele>18.0</ele><time>2026-04-06T10:41:49Z</time></trkpt><trkpt lat="51.20153423302486" lon="4.997990795287504"><ele>18.0</ele><time>2026-04-06T10:41:50Z</time></trkpt><trkpt lat="51.20148127851481" lon="4.998292587222933"><ele>18.0</ele><time>2026-04-06T10:41:51Z</time></trkpt><trkpt lat="51.20143215076575" lon="4.9985771056270965"><ele>18.333333333333332</ele><time>2026-04-06T10:41:52Z</time></trkpt><trkpt lat="51.20138577831911" lon="4.9988410491220545"><ele>18.666666666666664</ele><time>2026-04-06T10:41:53Z</time></trkpt><trkpt lat="51.20134285090092" lon="4.999086648803718"><ele>19.0</ele><time>2026-04-06T10:41:54Z</time></trkpt><trkpt lat="51.201303073965875" lon="4.99931429773702"><ele>19.2</ele><time>2026-04-06T10:41:55Z</time></trkpt><trkpt lat="51.20126947529937" lon="4.999508322961523"><ele>19.4</ele><time>2026-04-06T10:41:56Z</time></trkpt><trkpt lat="51.20123944594988" lon="4.9996703530316005"><ele>19.6</ele><time>2026-04-06T10:41:57Z</time></trkpt><trkpt lat="51.20121650689167" lon="4.999792182959496"><ele>19.8</ele><time>2026-04-06T10:41:58Z</time></trkpt><trkpt lat="51.201195824492906" lon="4.999902885859977"><ele>20.0</ele><time>2026-04-06T10:41:59Z</time></trkpt><trkpt lat="51.20117741581209" lon="5.0000204079853"><ele>20.0</ele><time>2026-04-06T10:42:01Z</time></trkpt><trkpt lat="51.2011502433611" lon="5.000130224968215"><ele>20.0</ele><time>2026-04-06T10:42:04Z</time></trkpt><trkpt lat="51.201229309222484" lon="5.000196149224932"><ele>20.0</ele><time>2026-04-06T10:42:05Z</time></trkpt><trkpt lat="51.20131790903567" lon="5.000234317078732"><ele>20.0</ele><time>2026-04-06T10:42:06Z</time></trkpt><trkpt lat="51.201407048276835" lon="5.000294643297905"><ele>20.0</ele><time>2026-04-06T10:42:07Z</time></trkpt><trkpt lat="51.20151640426301" lon="5.000373726128014"><ele>19.25</ele><time>2026-04-06T10:42:08Z</time></trkpt><trkpt lat="51.201617932892056" lon="5.000450362085022"><ele>18.5</ele><time>2026-04-06T10:42:09Z</time></trkpt><trkpt lat="51.20172849896283" lon="5.000536747411082"><ele>17.75</ele><time>2026-04-06T10:42:10Z</time></trkpt><trkpt lat="51.20184714989449" lon="5.000626346254282"><ele>17.0</ele><time>2026-04-06T10:42:11Z</time></trkpt><trkpt lat="51.20196876559996" lon="5.000724490182093"><ele>17.0</ele><time>2026-04-06T10:42:12Z</time></trkpt><trkpt lat="51.20209528707436" lon="5.000821559143294"><ele>17.0</ele><time>2026-04-06T10:42:13Z</time></trkpt><trkpt lat="51.202213236034204" lon="5.0009084306871205"><ele>17.0</ele><time>2026-04-06T10:42:14Z</time></trkpt><trkpt lat="51.202310065765126" lon="5.001003236466159"><ele>17.0</ele><time>2026-04-06T10:42:15Z</time></trkpt><trkpt lat="51.202391881526424" lon="5.001069106022157"><ele>17.2</ele><time>2026-04-06T10:42:16Z</time></trkpt><trkpt lat="51.202456488100324" lon="5.001126216807247"><ele>17.4</ele><time>2026-04-06T10:42:17Z</time></trkpt><trkpt lat="51.20248045328152" lon="5.001231827339772"><ele>17.6</ele><time>2026-04-06T10:42:18Z</time></trkpt><trkpt lat="51.20246297028063" lon="5.001364536382698"><ele>17.8</ele><time>2026-04-06T10:42:19Z</time></trkpt><trkpt lat="51.20241904831027" lon="5.0015224869460715"><ele>18.0</ele><time>2026-04-06T10:42:20Z</time></trkpt><trkpt lat="51.2023775611213" lon="5.001725443571992"><ele>18.0</ele><time>2026-04-06T10:42:21Z</time></trkpt><trkpt lat="51.202343343944236" lon="5.001970696693927"><ele>18.0</ele><time>2026-04-06T10:42:22Z</time></trkpt><trkpt lat="51.202321450704204" lon="5.002216298538507"><ele>18.0</ele><time>2026-04-06T10:42:23Z</time></trkpt><trkpt lat="51.2023133999735" lon="5.002481472511645"><ele>17.666666666666668</ele><time>2026-04-06T10:42:24Z</time></trkpt><trkpt lat="51.20231124347969" lon="5.002761354179857"><ele>17.333333333333336</ele><time>2026-04-06T10:42:25Z</time></trkpt><trkpt lat="51.202303732032206" lon="5.003009874865753"><ele>17.0</ele><time>2026-04-06T10:42:26Z</time></trkpt><trkpt lat="51.2022985547586" lon="5.003235087549274"><ele>17.0</ele><time>2026-04-06T10:42:27Z</time></trkpt><trkpt lat="51.20230790383426" lon="5.003437669764148"><ele>17.0</ele><time>2026-04-06T10:42:28Z</time></trkpt><trkpt lat="51.202314646052095" lon="5.003616186633826"><ele>17.0</ele><time>2026-04-06T10:42:29Z</time></trkpt><trkpt lat="51.202302569387214" lon="5.003775422179477"><ele>17.0</ele><time>2026-04-06T10:42:30Z</time></trkpt><trkpt lat="51.20225992582892" lon="5.0039001723550856"><ele>17.0</ele><time>2026-04-06T10:42:31Z</time></trkpt><trkpt lat="51.20221159793744" lon="5.003998213816791"><ele>17.0</ele><time>2026-04-06T10:42:32Z</time></trkpt><trkpt lat="51.202183805917734" lon="5.004132050034666"><ele>17.0</ele><time>2026-04-06T10:42:33Z</time></trkpt><trkpt lat="51.20217201817497" lon="5.00429335031452"><ele>17.0</ele><time>2026-04-06T10:42:34Z</time></trkpt><trkpt lat="51.20217941304026" lon="5.004466850176637"><ele>17.0</ele><time>2026-04-06T10:42:35Z</time></trkpt><trkpt lat="51.20221093738982" lon="5.0046464573647755"><ele>17.0</ele><time>2026-04-06T10:42:36Z</time></trkpt><trkpt lat="51.202264507102804" lon="5.004836601819595"><ele>17.0</ele><time>2026-04-06T10:42:37Z</time></trkpt><trkpt lat="51.20232824126718" lon="5.005044487281026"><ele>17.0</ele><time>2026-04-06T10:42:38Z</time></trkpt><trkpt lat="51.20239309296573" lon="5.005270194482351"><ele>17.0</ele><time>2026-04-06T10:42:39Z</time></trkpt><trkpt lat="51.20245538977856" lon="5.005497565797988"><ele>17.0</ele><time>2026-04-06T10:42:40Z</time></trkpt><trkpt lat="51.20252192566204" lon="5.00573596028104"><ele>17.0</ele><time>2026-04-06T10:42:41Z</time></trkpt><trkpt lat="51.202596454237764" lon="5.0059926761976845"><ele>17.0</ele><time>2026-04-06T10:42:42Z</time></trkpt><trkpt lat="51.20267496510758" lon="5.0062618390451465"><ele>17.0</ele><time>2026-04-06T10:42:43Z</time></trkpt><trkpt lat="51.2027499765525" lon="5.006518309067044"><ele>17.0</ele><time>2026-04-06T10:42:44Z</time></trkpt><trkpt lat="51.20281993666243" lon="5.0067584946578565"><ele>17.0</ele><time>2026-04-06T10:42:45Z</time></trkpt><trkpt lat="51.20288485076582" lon="5.00698268884872"><ele>17.25</ele><time>2026-04-06T10:42:46Z</time></trkpt><trkpt lat="51.20294558418911" lon="5.00719526905457"><ele>17.5</ele><time>2026-04-06T10:42:47Z</time></trkpt><trkpt lat="51.20300070073421" lon="5.007393255758804"><ele>17.75</ele><time>2026-04-06T10:42:48Z</time></trkpt><trkpt lat="51.20305304018917" lon="5.007587091306922"><ele>18.0</ele><time>2026-04-06T10:42:49Z</time></trkpt><trkpt lat="51.20310992072891" lon="5.007781875929916"><ele>18.0</ele><time>2026-04-06T10:42:50Z</time></trkpt><trkpt lat="51.2031610539724" lon="5.007996212334593"><ele>18.0</ele><time>2026-04-06T10:42:51Z</time></trkpt><trkpt lat="51.20318316421921" lon="5.008235117153658"><ele>18.0</ele><time>2026-04-06T10:42:52Z</time></trkpt><trkpt lat="51.20320655910669" lon="5.008483440952078"><ele>18.0</ele><time>2026-04-06T10:42:53Z</time></trkpt><trkpt lat="51.20323311469626" lon="5.0087422137462045"><ele>18.0</ele><time>2026-04-06T10:42:54Z</time></trkpt><trkpt lat="51.20326263417116" lon="5.00899985707985"><ele>18.0</ele><time>2026-04-06T10:42:55Z</time></trkpt><trkpt lat="51.203291792153856" lon="5.009253191742804"><ele>18.0</ele><time>2026-04-06T10:42:56Z</time></trkpt><trkpt lat="51.20332000251641" lon="5.009511910707156"><ele>18.0</ele><time>2026-04-06T10:42:57Z</time></trkpt><trkpt lat="51.20335016182758" lon="5.009787132516927"><ele>18.0</ele><time>2026-04-06T10:42:58Z</time></trkpt><trkpt lat="51.20338046669569" lon="5.010068930585533"><ele>18.0</ele><time>2026-04-06T10:42:59Z</time></trkpt><trkpt lat="51.20341017410671" lon="5.010331420684547"><ele>18.0</ele><time>2026-04-06T10:43:00Z</time></trkpt><trkpt lat="51.203437636139874" lon="5.010581661724602"><ele>18.0</ele><time>2026-04-06T10:43:01Z</time></trkpt><trkpt lat="51.203462842129234" lon="5.0108241877673665"><ele>18.0</ele><time>2026-04-06T10:43:02Z</time></trkpt><trkpt lat="51.20348860847435" lon="5.011057452710293"><ele>18.0</ele><time>2026-04-06T10:43:03Z</time></trkpt><trkpt lat="51.20351301211585" lon="5.011277017779047"><ele>18.0</ele><time>2026-04-06T10:43:04Z</time></trkpt><trkpt lat="51.203542303570984" lon="5.011488287076713"><ele>18.0</ele><time>2026-04-06T10:43:05Z</time></trkpt><trkpt lat="51.20356584781762" lon="5.011694337982923"><ele>18.0</ele><time>2026-04-06T10:43:06Z</time></trkpt><trkpt lat="51.20358289126856" lon="5.011903313294009"><ele>18.0</ele><time>2026-04-06T10:43:07Z</time></trkpt><trkpt lat="51.20360076438054" lon="5.012121552808699"><ele>18.0</ele><time>2026-04-06T10:43:08Z</time></trkpt><trkpt lat="51.203624208122996" lon="5.012350163887726"><ele>18.0</ele><time>2026-04-06T10:43:09Z</time></trkpt><trkpt lat="51.20365057413581" lon="5.01258310184451"><ele>18.0</ele><time>2026-04-06T10:43:10Z</time></trkpt><trkpt lat="51.20367593431215" lon="5.012822845123511"><ele>18.0</ele><time>2026-04-06T10:43:11Z</time></trkpt><trkpt lat="51.20370206109125" lon="5.013071726822653"><ele>18.0</ele><time>2026-04-06T10:43:12Z</time></trkpt><trkpt lat="51.203730007892865" lon="5.013320868216234"><ele>18.0</ele><time>2026-04-06T10:43:13Z</time></trkpt><trkpt lat="51.20375729722313" lon="5.013570542491253"><ele>18.0</ele><time>2026-04-06T10:43:14Z</time></trkpt><trkpt lat="51.2037846839525" lon="5.01381653147839"><ele>18.0</ele><time>2026-04-06T10:43:15Z</time></trkpt><trkpt lat="51.20381279726842" lon="5.014063467439431"><ele>18.0</ele><time>2026-04-06T10:43:16Z</time></trkpt><trkpt lat="51.20383895809929" lon="5.014308268886919"><ele>18.0</ele><time>2026-04-06T10:43:17Z</time></trkpt><trkpt lat="51.20386567971184" lon="5.014551073234913"><ele>18.0</ele><time>2026-04-06T10:43:18Z</time></trkpt><trkpt lat="51.20389449939981" lon="5.014793056859436"><ele>18.333333333333332</ele><time>2026-04-06T10:43:19Z</time></trkpt><trkpt lat="51.203925309777354" lon="5.015033490208087"><ele>18.666666666666664</ele><time>2026-04-06T10:43:20Z</time></trkpt><trkpt lat="51.20395376191776" lon="5.015275224247313"><ele>19.0</ele><time>2026-04-06T10:43:21Z</time></trkpt><trkpt lat="51.203979269027435" lon="5.015517819627732"><ele>19.0</ele><time>2026-04-06T10:43:22Z</time></trkpt><trkpt lat="51.20400713912166" lon="5.015758015327727"><ele>19.0</ele><time>2026-04-06T10:43:23Z</time></trkpt><trkpt lat="51.20403439397001" lon="5.015990489657094"><ele>19.0</ele><time>2026-04-06T10:43:24Z</time></trkpt><trkpt lat="51.20406119343742" lon="5.016202674255095"><ele>19.0</ele><time>2026-04-06T10:43:25Z</time></trkpt><trkpt lat="51.20408613293855" lon="5.0163961652992075"><ele>19.2</ele><time>2026-04-06T10:43:26Z</time></trkpt><trkpt lat="51.204105468879895" lon="5.0165660858072405"><ele>19.4</ele><time>2026-04-06T10:43:27Z</time></trkpt><trkpt lat="51.20412210617063" lon="5.016731261576849"><ele>19.6</ele><time>2026-04-06T10:43:28Z</time></trkpt><trkpt lat="51.204142120603244" lon="5.016907672338304"><ele>19.8</ele><time>2026-04-06T10:43:29Z</time></trkpt><trkpt lat="51.20416170187947" lon="5.017098667694605"><ele>20.0</ele><time>2026-04-06T10:43:30Z</time></trkpt><trkpt lat="51.20418124865586" lon="5.0173031081596635"><ele>20.75</ele><time>2026-04-06T10:43:31Z</time></trkpt><trkpt lat="51.20420671977727" lon="5.017516218646057"><ele>21.5</ele><time>2026-04-06T10:43:32Z</time></trkpt><trkpt lat="51.20422804981074" lon="5.017727184372643"><ele>22.25</ele><time>2026-04-06T10:43:33Z</time></trkpt><trkpt lat="51.20424812495847" lon="5.017935853253285"><ele>23.0</ele><time>2026-04-06T10:43:34Z</time></trkpt><trkpt lat="51.20426951041906" lon="5.018146869780401"><ele>22.75</ele><time>2026-04-06T10:43:35Z</time></trkpt><trkpt lat="51.204292155127185" lon="5.018366521646807"><ele>22.5</ele><time>2026-04-06T10:43:36Z</time></trkpt><trkpt lat="51.204314858743615" lon="5.0185948562168505"><ele>22.25</ele><time>2026-04-06T10:43:37Z</time></trkpt><trkpt lat="51.20433854188336" lon="5.018834739121443"><ele>22.0</ele><time>2026-04-06T10:43:38Z</time></trkpt><trkpt lat="51.204363596407035" lon="5.019085715277767"><ele>21.333333333333332</ele><time>2026-04-06T10:43:39Z</time></trkpt><trkpt lat="51.20439120401747" lon="5.019344928220214"><ele>20.666666666666668</ele><time>2026-04-06T10:43:40Z</time></trkpt><trkpt lat="51.20442189351156" lon="5.0196183128721525"><ele>20.0</ele><time>2026-04-06T10:43:41Z</time></trkpt><trkpt lat="51.204452627906136" lon="5.01990521072275"><ele>20.0</ele><time>2026-04-06T10:43:42Z</time></trkpt><trkpt lat="51.20447913050818" lon="5.020179274302452"><ele>20.0</ele><time>2026-04-06T10:43:43Z</time></trkpt><trkpt lat="51.204512388986586" lon="5.020458546827995"><ele>20.0</ele><time>2026-04-06T10:43:44Z</time></trkpt><trkpt lat="51.20454335141206" lon="5.020739584870204"><ele>19.666666666666668</ele><time>2026-04-06T10:43:45Z</time></trkpt><trkpt lat="51.20457506404267" lon="5.021023092301331"><ele>19.333333333333332</ele><time>2026-04-06T10:43:46Z</time></trkpt><trkpt lat="51.20460699621287" lon="5.021307303046916"><ele>19.0</ele><time>2026-04-06T10:43:47Z</time></trkpt><trkpt lat="51.20463887193271" lon="5.021593575380875"><ele>19.0</ele><time>2026-04-06T10:43:48Z</time></trkpt><trkpt lat="51.20467051200455" lon="5.0218786992558035"><ele>19.0</ele><time>2026-04-06T10:43:49Z</time></trkpt><trkpt lat="51.20470244660273" lon="5.022166324077553"><ele>19.0</ele><time>2026-04-06T10:43:50Z</time></trkpt><trkpt lat="51.204735078041665" lon="5.022453985414366"><ele>19.0</ele><time>2026-04-06T10:43:51Z</time></trkpt><trkpt lat="51.20476651438478" lon="5.0227426048313415"><ele>19.0</ele><time>2026-04-06T10:43:52Z</time></trkpt><trkpt lat="51.20479833871657" lon="5.023032092736305"><ele>19.0</ele><time>2026-04-06T10:43:53Z</time></trkpt><trkpt lat="51.2048302782544" lon="5.023319560142852"><ele>19.333333333333332</ele><time>2026-04-06T10:43:54Z</time></trkpt><trkpt lat="51.20486338871386" lon="5.023607374542835"><ele>19.666666666666668</ele><time>2026-04-06T10:43:55Z</time></trkpt><trkpt lat="51.20489562587757" lon="5.023896048411889"><ele>20.0</ele><time>2026-04-06T10:43:56Z</time></trkpt><trkpt lat="51.20492751051009" lon="5.0241855433081595"><ele>20.0</ele><time>2026-04-06T10:43:57Z</time></trkpt><trkpt lat="51.20496134855445" lon="5.024477014674631"><ele>20.0</ele><time>2026-04-06T10:43:58Z</time></trkpt><trkpt lat="51.20499539758704" lon="5.024770490069757"><ele>20.0</ele><time>2026-04-06T10:43:59Z</time></trkpt><trkpt lat="51.20502862587183" lon="5.0250670355171785"><ele>20.0</ele><time>2026-04-06T10:44:00Z</time></trkpt><trkpt lat="51.20505961392079" lon="5.025364276781435"><ele>20.0</ele><time>2026-04-06T10:44:01Z</time></trkpt><trkpt lat="51.20509194368014" lon="5.0256646188262035"><ele>20.0</ele><time>2026-04-06T10:44:02Z</time></trkpt><trkpt lat="51.20512670368936" lon="5.0259639917377825"><ele>20.0</ele><time>2026-04-06T10:44:03Z</time></trkpt><trkpt lat="51.20515716695113" lon="5.026261230391294"><ele>20.0</ele><time>2026-04-06T10:44:04Z</time></trkpt><trkpt lat="51.20518170784254" lon="5.026572201604374"><ele>20.0</ele><time>2026-04-06T10:44:05Z</time></trkpt><trkpt lat="51.20521455460168" lon="5.026873041949456"><ele>20.0</ele><time>2026-04-06T10:44:06Z</time></trkpt><trkpt lat="51.20525015897758" lon="5.027176731861261"><ele>20.0</ele><time>2026-04-06T10:44:07Z</time></trkpt><trkpt lat="51.2052821174777" lon="5.027482295807846"><ele>20.0</ele><time>2026-04-06T10:44:08Z</time></trkpt><trkpt lat="51.20531352138342" lon="5.027789048854626"><ele>19.333333333333336</ele><time>2026-04-06T10:44:09Z</time></trkpt><trkpt lat="51.20534620838515" lon="5.028095768432313"><ele>18.666666666666668</ele><time>2026-04-06T10:44:10Z</time></trkpt><trkpt lat="51.20538025905528" lon="5.028403932868784"><ele>18.0</ele><time>2026-04-06T10:44:11Z</time></trkpt><trkpt lat="51.20541523374765" lon="5.028713070411251"><ele>18.0</ele><time>2026-04-06T10:44:12Z</time></trkpt><trkpt lat="51.205447624026306" lon="5.029022542075497"><ele>18.0</ele><time>2026-04-06T10:44:13Z</time></trkpt><trkpt lat="51.20548298075455" lon="5.0293296817181545"><ele>18.0</ele><time>2026-04-06T10:44:14Z</time></trkpt><trkpt lat="51.2055215966507" lon="5.029636401291996"><ele>18.0</ele><time>2026-04-06T10:44:15Z</time></trkpt><trkpt lat="51.205553728700664" lon="5.02994488808428"><ele>18.0</ele><time>2026-04-06T10:44:16Z</time></trkpt><trkpt lat="51.20558703605894" lon="5.03025163428451"><ele>18.0</ele><time>2026-04-06T10:44:17Z</time></trkpt><trkpt lat="51.2056213118188" lon="5.030556155861425"><ele>17.666666666666668</ele><time>2026-04-06T10:44:18Z</time></trkpt><trkpt lat="51.20565432129387" lon="5.030861901777665"><ele>17.333333333333336</ele><time>2026-04-06T10:44:19Z</time></trkpt><trkpt lat="51.205688214870946" lon="5.031166970750303"><ele>17.0</ele><time>2026-04-06T10:44:20Z</time></trkpt><trkpt lat="51.2057213906689" lon="5.031471612780048"><ele>17.333333333333336</ele><time>2026-04-06T10:44:21Z</time></trkpt><trkpt lat="51.20575360807289" lon="5.031775400204557"><ele>17.666666666666668</ele><time>2026-04-06T10:44:22Z</time></trkpt><trkpt lat="51.20578586951142" lon="5.032079083200754"><ele>18.0</ele><time>2026-04-06T10:44:23Z</time></trkpt><trkpt lat="51.20581738942118" lon="5.032379193686741"><ele>18.0</ele><time>2026-04-06T10:44:24Z</time></trkpt><trkpt lat="51.20584926536765" lon="5.032678283639114"><ele>18.0</ele><time>2026-04-06T10:44:25Z</time></trkpt><trkpt lat="51.20588141162727" lon="5.032974828763461"><ele>18.0</ele><time>2026-04-06T10:44:26Z</time></trkpt><trkpt lat="51.20591113139885" lon="5.033262223956909"><ele>18.333333333333332</ele><time>2026-04-06T10:44:27Z</time></trkpt><trkpt lat="51.20594109973578" lon="5.033538477042618"><ele>18.666666666666664</ele><time>2026-04-06T10:44:28Z</time></trkpt><trkpt lat="51.20596906772877" lon="5.033804679474587"><ele>19.0</ele><time>2026-04-06T10:44:29Z</time></trkpt><trkpt lat="51.20599643291811" lon="5.034059682833214"><ele>19.333333333333332</ele><time>2026-04-06T10:44:30Z</time></trkpt><trkpt lat="51.20602391146106" lon="5.03430403110528"><ele>19.666666666666668</ele><time>2026-04-06T10:44:31Z</time></trkpt><trkpt lat="51.206050734852056" lon="5.03454026163543"><ele>20.0</ele><time>2026-04-06T10:44:32Z</time></trkpt><trkpt lat="51.206076756253296" lon="5.034769212739776"><ele>20.25</ele><time>2026-04-06T10:44:33Z</time></trkpt><trkpt lat="51.20610207867665" lon="5.034990871552168"><ele>20.5</ele><time>2026-04-06T10:44:34Z</time></trkpt><trkpt lat="51.206126514224174" lon="5.035204063114792"><ele>20.75</ele><time>2026-04-06T10:44:35Z</time></trkpt><trkpt lat="51.20615033209286" lon="5.035414205352104"><ele>21.0</ele><time>2026-04-06T10:44:36Z</time></trkpt><trkpt lat="51.20617173648197" lon="5.035621270496037"><ele>21.200000000000003</ele><time>2026-04-06T10:44:37Z</time></trkpt><trkpt lat="51.206190337203225" lon="5.035823677169409"><ele>21.400000000000002</ele><time>2026-04-06T10:44:38Z</time></trkpt><trkpt lat="51.20620924215078" lon="5.036010999282882"><ele>21.6</ele><time>2026-04-06T10:44:39Z</time></trkpt><trkpt lat="51.20622290535281" lon="5.036161418689736"><ele>21.8</ele><time>2026-04-06T10:44:40Z</time></trkpt><trkpt lat="51.20624827488743" lon="5.036267352503443"><ele>22.0</ele><time>2026-04-06T10:44:41Z</time></trkpt><trkpt lat="51.206248537451465" lon="5.036371268470691"><ele>22.0</ele><time>2026-04-06T10:44:43Z</time></trkpt><trkpt lat="51.206252605981774" lon="5.036514060738708"><ele>22.0</ele><time>2026-04-06T10:44:49Z</time></trkpt><trkpt lat="51.20630032196988" lon="5.036591953792353"><ele>22.0</ele><time>2026-04-06T10:44:50Z</time></trkpt><trkpt lat="51.20639198058952" lon="5.036661385714069"><ele>22.0</ele><time>2026-04-06T10:44:51Z</time></trkpt><trkpt lat="51.20649601873633" lon="5.036752895742226"><ele>22.0</ele><time>2026-04-06T10:44:52Z</time></trkpt><trkpt lat="51.20659834641651" lon="5.036834484412598"><ele>21.75</ele><time>2026-04-06T10:44:53Z</time></trkpt><trkpt lat="51.20671356137969" lon="5.036922500144251"><ele>21.5</ele><time>2026-04-06T10:44:54Z</time></trkpt><trkpt lat="51.20683663662613" lon="5.037017167385586"><ele>21.25</ele><time>2026-04-06T10:44:55Z</time></trkpt><trkpt lat="51.2069671739046" lon="5.037121505553011"><ele>21.0</ele><time>2026-04-06T10:44:56Z</time></trkpt><trkpt lat="51.20709577607913" lon="5.037225925144133"><ele>21.0</ele><time>2026-04-06T10:44:57Z</time></trkpt><trkpt lat="51.20721999681302" lon="5.037322028699014"><ele>21.0</ele><time>2026-04-06T10:44:58Z</time></trkpt><trkpt lat="51.20734214568938" lon="5.0374219181425115"><ele>21.0</ele><time>2026-04-06T10:44:59Z</time></trkpt><trkpt lat="51.20745897814326" lon="5.037530837086726"><ele>21.0</ele><time>2026-04-06T10:45:00Z</time></trkpt><trkpt lat="51.2075684636635" lon="5.037653520290632"><ele>21.0</ele><time>2026-04-06T10:45:01Z</time></trkpt><trkpt lat="51.20766921316832" lon="5.037789544184407"><ele>21.0</ele><time>2026-04-06T10:45:02Z</time></trkpt><trkpt lat="51.207757837755025" lon="5.037927201302625"><ele>21.0</ele><time>2026-04-06T10:45:03Z</time></trkpt><trkpt lat="51.20783427583499" lon="5.038053311486438"><ele>21.0</ele><time>2026-04-06T10:45:04Z</time></trkpt><trkpt lat="51.20789514191985" lon="5.038155067509935"><ele>21.0</ele><time>2026-04-06T10:45:05Z</time></trkpt><trkpt lat="51.20795580114749" lon="5.038256008578082"><ele>21.0</ele><time>2026-04-06T10:45:07Z</time></trkpt><trkpt lat="51.20800115122706" lon="5.038334605879291"><ele>21.0</ele><time>2026-04-06T10:45:19Z</time></trkpt><trkpt lat="51.20804098167289" lon="5.038416474422399"><ele>21.0</ele><time>2026-04-06T10:45:20Z</time></trkpt><trkpt lat="51.20809218209417" lon="5.038531078802544"><ele>21.0</ele><time>2026-04-06T10:45:21Z</time></trkpt><trkpt lat="51.208152315086934" lon="5.038668544582952"><ele>21.0</ele><time>2026-04-06T10:45:22Z</time></trkpt><trkpt lat="51.20821531399275" lon="5.038819549618213"><ele>21.25</ele><time>2026-04-06T10:45:23Z</time></trkpt><trkpt lat="51.20828396316035" lon="5.03899522628203"><ele>21.5</ele><time>2026-04-06T10:45:24Z</time></trkpt><trkpt lat="51.20835406388784" lon="5.039208831335617"><ele>21.75</ele><time>2026-04-06T10:45:25Z</time></trkpt><trkpt lat="51.20841567827565" lon="5.039418741741452"><ele>22.0</ele><time>2026-04-06T10:45:26Z</time></trkpt><trkpt lat="51.208478874615146" lon="5.039636279172896"><ele>23.666666666666664</ele><time>2026-04-06T10:45:27Z</time></trkpt><trkpt lat="51.208538308111414" lon="5.039873688291703"><ele>25.333333333333332</ele><time>2026-04-06T10:45:28Z</time></trkpt><trkpt lat="51.20858856592758" lon="5.04012521399039"><ele>27.0</ele><time>2026-04-06T10:45:29Z</time></trkpt><trkpt lat="51.20863921891517" lon="5.040387910836387"><ele>28.0</ele><time>2026-04-06T10:45:30Z</time></trkpt><trkpt lat="51.208692634936355" lon="5.040665247030828"><ele>29.0</ele><time>2026-04-06T10:45:31Z</time></trkpt><trkpt lat="51.20874893959502" lon="5.040930796302488"><ele>30.0</ele><time>2026-04-06T10:45:32Z</time></trkpt><trkpt lat="51.20879956055194" lon="5.041195192086151"><ele>30.666666666666664</ele><time>2026-04-06T10:45:33Z</time></trkpt><trkpt lat="51.208850412346955" lon="5.041459127677736"><ele>31.333333333333332</ele><time>2026-04-06T10:45:34Z</time></trkpt><trkpt lat="51.208901494981134" lon="5.0417262276387875"><ele>32.0</ele><time>2026-04-06T10:45:35Z</time></trkpt><trkpt lat="51.208956649571526" lon="5.041994496638934"><ele>31.0</ele><time>2026-04-06T10:45:36Z</time></trkpt><trkpt lat="51.20902910603499" lon="5.042253634741697"><ele>30.0</ele><time>2026-04-06T10:45:37Z</time></trkpt><trkpt lat="51.209115406190904" lon="5.042506001951921"><ele>29.0</ele><time>2026-04-06T10:45:38Z</time></trkpt><trkpt lat="51.209214352579146" lon="5.04275346058231"><ele>28.0</ele><time>2026-04-06T10:45:39Z</time></trkpt><trkpt lat="51.20932551698951" lon="5.042993133291554"><ele>27.0</ele><time>2026-04-06T10:45:40Z</time></trkpt><trkpt lat="51.209443628626715" lon="5.0432254707646385"><ele>26.0</ele><time>2026-04-06T10:45:41Z</time></trkpt><trkpt lat="51.20957017197041" lon="5.043438365276949"><ele>25.333333333333332</ele><time>2026-04-06T10:45:42Z</time></trkpt><trkpt lat="51.20970410939918" lon="5.043634086347674"><ele>24.666666666666664</ele><time>2026-04-06T10:45:43Z</time></trkpt><trkpt lat="51.20984926418004" lon="5.0438144831978065"><ele>24.0</ele><time>2026-04-06T10:45:44Z</time></trkpt><trkpt lat="51.21000038973807" lon="5.0439815973404"><ele>24.333333333333336</ele><time>2026-04-06T10:45:45Z</time></trkpt><trkpt lat="51.21015867067748" lon="5.044133311219829"><ele>24.666666666666668</ele><time>2026-04-06T10:45:46Z</time></trkpt><trkpt lat="51.210324143884186" lon="5.0442647267646015"><ele>25.0</ele><time>2026-04-06T10:45:47Z</time></trkpt><trkpt lat="51.21049404222688" lon="5.044380578469804"><ele>25.666666666666668</ele><time>2026-04-06T10:45:48Z</time></trkpt><trkpt lat="51.21066556947663" lon="5.044479906238946"><ele>26.333333333333336</ele><time>2026-04-06T10:45:49Z</time></trkpt><trkpt lat="51.2108413240876" lon="5.044559419888413"><ele>27.0</ele><time>2026-04-06T10:45:50Z</time></trkpt><trkpt lat="51.21101967626713" lon="5.044614753794122"><ele>27.0</ele><time>2026-04-06T10:45:51Z</time></trkpt><trkpt lat="51.211200270646934" lon="5.044646866416915"><ele>27.0</ele><time>2026-04-06T10:45:52Z</time></trkpt><trkpt lat="51.21138087144859" lon="5.044658294960675"><ele>27.0</ele><time>2026-04-06T10:45:53Z</time></trkpt><trkpt lat="51.21156117670797" lon="5.044658696808354"><ele>27.666666666666664</ele><time>2026-04-06T10:45:54Z</time></trkpt><trkpt lat="51.21174152232309" lon="5.044650466023581"><ele>28.333333333333332</ele><time>2026-04-06T10:45:55Z</time></trkpt><trkpt lat="51.21191936149926" lon="5.04461536700529"><ele>29.0</ele><time>2026-04-06T10:45:56Z</time></trkpt><trkpt lat="51.212095384100145" lon="5.044555693203432"><ele>29.0</ele><time>2026-04-06T10:45:57Z</time></trkpt><trkpt lat="51.212268260014966" lon="5.044476759998399"><ele>29.0</ele><time>2026-04-06T10:45:58Z</time></trkpt><trkpt lat="51.212440914724816" lon="5.0443931112688505"><ele>29.0</ele><time>2026-04-06T10:45:59Z</time></trkpt><trkpt lat="51.21260972890242" lon="5.044308715568317"><ele>27.333333333333332</ele><time>2026-04-06T10:46:00Z</time></trkpt><trkpt lat="51.21277593156165" lon="5.044230200616473"><ele>25.666666666666664</ele><time>2026-04-06T10:46:01Z</time></trkpt><trkpt lat="51.2129398691788" lon="5.044157638169021"><ele>24.0</ele><time>2026-04-06T10:46:02Z</time></trkpt><trkpt lat="51.21310496630088" lon="5.044088667050206"><ele>23.0</ele><time>2026-04-06T10:46:03Z</time></trkpt><trkpt lat="51.213276704057634" lon="5.0440640824943035"><ele>22.0</ele><time>2026-04-06T10:46:04Z</time></trkpt><trkpt lat="51.213452715588886" lon="5.044037626879569"><ele>21.0</ele><time>2026-04-06T10:46:05Z</time></trkpt><trkpt lat="51.213631679638034" lon="5.044003794129752"><ele>21.0</ele><time>2026-04-06T10:46:06Z</time></trkpt><trkpt lat="51.21381529268743" lon="5.0440087723915"><ele>21.0</ele><time>2026-04-06T10:46:07Z</time></trkpt><trkpt lat="51.21400066909093" lon="5.044031336704525"><ele>21.0</ele><time>2026-04-06T10:46:08Z</time></trkpt><trkpt lat="51.21418388041665" lon="5.044081047156212"><ele>21.666666666666668</ele><time>2026-04-06T10:46:09Z</time></trkpt><trkpt lat="51.214365379842874" lon="5.044152759855687"><ele>22.333333333333336</ele><time>2026-04-06T10:46:10Z</time></trkpt><trkpt lat="51.21454426427696" lon="5.044241783267882"><ele>23.0</ele><time>2026-04-06T10:46:11Z</time></trkpt><trkpt lat="51.21471821393784" lon="5.044347706024564"><ele>22.333333333333336</ele><time>2026-04-06T10:46:12Z</time></trkpt><trkpt lat="51.214887072092225" lon="5.044475462069875"><ele>21.666666666666668</ele><time>2026-04-06T10:46:13Z</time></trkpt><trkpt lat="51.215050221925246" lon="5.044619716872687"><ele>21.0</ele><time>2026-04-06T10:46:14Z</time></trkpt><trkpt lat="51.21520598706623" lon="5.04478288400825"><ele>21.0</ele><time>2026-04-06T10:46:15Z</time></trkpt><trkpt lat="51.215356288769385" lon="5.044962876846648"><ele>21.0</ele><time>2026-04-06T10:46:16Z</time></trkpt><trkpt lat="51.21549878480822" lon="5.045161303059852"><ele>21.0</ele><time>2026-04-06T10:46:17Z</time></trkpt><trkpt lat="51.21563340549202" lon="5.045376186716921"><ele>21.0</ele><time>2026-04-06T10:46:18Z</time></trkpt><trkpt lat="51.21576793083193" lon="5.045586562180641"><ele>21.0</ele><time>2026-04-06T10:46:19Z</time></trkpt><trkpt lat="51.215905325697165" lon="5.04579553740941"><ele>21.0</ele><time>2026-04-06T10:46:20Z</time></trkpt><trkpt lat="51.2160418558884" lon="5.046005855566722"><ele>21.0</ele><time>2026-04-06T10:46:21Z</time></trkpt><trkpt lat="51.21617779569032" lon="5.046215462716915"><ele>21.0</ele><time>2026-04-06T10:46:22Z</time></trkpt><trkpt lat="51.21631079304646" lon="5.046427640272836"><ele>21.0</ele><time>2026-04-06T10:46:23Z</time></trkpt><trkpt lat="51.216448440832046" lon="5.046631337352086"><ele>21.666666666666668</ele><time>2026-04-06T10:46:24Z</time></trkpt><trkpt lat="51.21658454821059" lon="5.046835016058699"><ele>22.333333333333336</ele><time>2026-04-06T10:46:25Z</time></trkpt><trkpt lat="51.21671274301347" lon="5.047050421434521"><ele>23.0</ele><time>2026-04-06T10:46:26Z</time></trkpt><trkpt lat="51.216845289991085" lon="5.047250200848091"><ele>23.0</ele><time>2026-04-06T10:46:27Z</time></trkpt><trkpt lat="51.21699300012191" lon="5.0474269272935794"><ele>23.0</ele><time>2026-04-06T10:46:28Z</time></trkpt><trkpt lat="51.217146501726255" lon="5.047597771984692"><ele>23.0</ele><time>2026-04-06T10:46:29Z</time></trkpt><trkpt lat="51.21730414669583" lon="5.047774051166719"><ele>22.666666666666668</ele><time>2026-04-06T10:46:30Z</time></trkpt><trkpt lat="51.21745855612912" lon="5.047949232008773"><ele>22.333333333333332</ele><time>2026-04-06T10:46:31Z</time></trkpt><trkpt lat="51.21761117941769" lon="5.048119958970978"><ele>22.0</ele><time>2026-04-06T10:46:32Z</time></trkpt><trkpt lat="51.21776512106077" lon="5.0482844800103965"><ele>22.0</ele><time>2026-04-06T10:46:33Z</time></trkpt><trkpt lat="51.217916441926754" lon="5.0484525378386"><ele>22.0</ele><time>2026-04-06T10:46:34Z</time></trkpt><trkpt lat="51.21806474871389" lon="5.048619300239244"><ele>22.0</ele><time>2026-04-06T10:46:35Z</time></trkpt><trkpt lat="51.21821515671403" lon="5.048784768995419"><ele>21.666666666666664</ele><time>2026-04-06T10:46:36Z</time></trkpt><trkpt lat="51.21836346930407" lon="5.048949238994438"><ele>21.333333333333332</ele><time>2026-04-06T10:46:37Z</time></trkpt><trkpt lat="51.21851132872714" lon="5.049114463702856"><ele>21.0</ele><time>2026-04-06T10:46:38Z</time></trkpt><trkpt lat="51.21865875269375" lon="5.049278289000993"><ele>21.0</ele><time>2026-04-06T10:46:39Z</time></trkpt><trkpt lat="51.218806537448906" lon="5.049440778771211"><ele>21.0</ele><time>2026-04-06T10:46:40Z</time></trkpt><trkpt lat="51.21895309582014" lon="5.049604702760488"><ele>21.0</ele><time>2026-04-06T10:46:41Z</time></trkpt><trkpt lat="51.21909935787755" lon="5.0497678730582995"><ele>21.333333333333332</ele><time>2026-04-06T10:46:42Z</time></trkpt><trkpt lat="51.21924560712648" lon="5.049928071888876"><ele>21.666666666666664</ele><time>2026-04-06T10:46:43Z</time></trkpt><trkpt lat="51.21939504734524" lon="5.050088627405255"><ele>22.0</ele><time>2026-04-06T10:46:44Z</time></trkpt><trkpt lat="51.21953606728874" lon="5.050264900411404"><ele>22.0</ele><time>2026-04-06T10:46:45Z</time></trkpt><trkpt lat="51.21966929578337" lon="5.050460342747695"><ele>22.0</ele><time>2026-04-06T10:46:46Z</time></trkpt><trkpt lat="51.219798991874406" lon="5.05066429084393"><ele>22.0</ele><time>2026-04-06T10:46:47Z</time></trkpt><trkpt lat="51.21992688354564" lon="5.050870968066575"><ele>22.0</ele><time>2026-04-06T10:46:48Z</time></trkpt><trkpt lat="51.220058691800176" lon="5.0510731005162"><ele>22.0</ele><time>2026-04-06T10:46:49Z</time></trkpt><trkpt lat="51.22018908379975" lon="5.051278104044711"><ele>22.0</ele><time>2026-04-06T10:46:50Z</time></trkpt><trkpt lat="51.2203165395917" lon="5.051484406737928"><ele>22.0</ele><time>2026-04-06T10:46:51Z</time></trkpt><trkpt lat="51.22044677703604" lon="5.051689529966469"><ele>22.0</ele><time>2026-04-06T10:46:52Z</time></trkpt><trkpt lat="51.220577542065676" lon="5.0518935035645836"><ele>22.0</ele><time>2026-04-06T10:46:53Z</time></trkpt><trkpt lat="51.22070812416352" lon="5.0520994840895375"><ele>22.0</ele><time>2026-04-06T10:46:54Z</time></trkpt><trkpt lat="51.22083824537947" lon="5.052305369283354"><ele>22.0</ele><time>2026-04-06T10:46:55Z</time></trkpt><trkpt lat="51.22096951012906" lon="5.052508228033466"><ele>22.0</ele><time>2026-04-06T10:46:56Z</time></trkpt><trkpt lat="51.221100299029125" lon="5.052712754950434"><ele>22.0</ele><time>2026-04-06T10:46:57Z</time></trkpt><trkpt lat="51.2212316402606" lon="5.052917306470589"><ele>22.0</ele><time>2026-04-06T10:46:58Z</time></trkpt><trkpt lat="51.221358828400895" lon="5.053123548074334"><ele>22.0</ele><time>2026-04-06T10:46:59Z</time></trkpt><trkpt lat="51.22148894521683" lon="5.05332920073259"><ele>22.333333333333332</ele><time>2026-04-06T10:47:00Z</time></trkpt><trkpt lat="51.22161853704958" lon="5.053533391576953"><ele>22.666666666666668</ele><time>2026-04-06T10:47:01Z</time></trkpt><trkpt lat="51.221747616545166" lon="5.0537347625510725"><ele>23.0</ele><time>2026-04-06T10:47:02Z</time></trkpt><trkpt lat="51.221874449321355" lon="5.0539398963247315"><ele>23.0</ele><time>2026-04-06T10:47:03Z</time></trkpt><trkpt lat="51.22200250351185" lon="5.0541418596167285"><ele>23.0</ele><time>2026-04-06T10:47:04Z</time></trkpt><trkpt lat="51.22213124016073" lon="5.054341225083007"><ele>23.0</ele><time>2026-04-06T10:47:05Z</time></trkpt><trkpt lat="51.2222589681609" lon="5.054542034188167"><ele>22.666666666666668</ele><time>2026-04-06T10:47:06Z</time></trkpt><trkpt lat="51.22238625238004" lon="5.054742136043074"><ele>22.333333333333332</ele><time>2026-04-06T10:47:07Z</time></trkpt><trkpt lat="51.22251405403007" lon="5.054943870316782"><ele>22.0</ele><time>2026-04-06T10:47:08Z</time></trkpt><trkpt lat="51.22264154129957" lon="5.055144156254762"><ele>22.0</ele><time>2026-04-06T10:47:09Z</time></trkpt><trkpt lat="51.222769656582805" lon="5.055345810801535"><ele>22.0</ele><time>2026-04-06T10:47:10Z</time></trkpt><trkpt lat="51.22289624102273" lon="5.0555488495700605"><ele>22.0</ele><time>2026-04-06T10:47:11Z</time></trkpt><trkpt lat="51.223023822393095" lon="5.0557557065922065"><ele>23.0</ele><time>2026-04-06T10:47:12Z</time></trkpt><trkpt lat="51.22315134050319" lon="5.055960199244664"><ele>24.0</ele><time>2026-04-06T10:47:13Z</time></trkpt><trkpt lat="51.22329196633387" lon="5.056140186999485"><ele>25.0</ele><time>2026-04-06T10:47:14Z</time></trkpt><trkpt lat="51.223449568856786" lon="5.056295635636037"><ele>25.0</ele><time>2026-04-06T10:47:15Z</time></trkpt><trkpt lat="51.22362114911119" lon="5.056439721342464"><ele>25.0</ele><time>2026-04-06T10:47:16Z</time></trkpt><trkpt lat="51.22379502117674" lon="5.056585454099212"><ele>25.0</ele><time>2026-04-06T10:47:17Z</time></trkpt><trkpt lat="51.22396610751651" lon="5.056731225855408"><ele>24.666666666666668</ele><time>2026-04-06T10:47:18Z</time></trkpt><trkpt lat="51.22413311968422" lon="5.056876049385925"><ele>24.333333333333336</ele><time>2026-04-06T10:47:19Z</time></trkpt><trkpt lat="51.224300438823015" lon="5.0570174939013555"><ele>24.0</ele><time>2026-04-06T10:47:20Z</time></trkpt><trkpt lat="51.224461376071666" lon="5.057154278549729"><ele>24.0</ele><time>2026-04-06T10:47:21Z</time></trkpt><trkpt lat="51.22461781901413" lon="5.057290053025783"><ele>24.0</ele><time>2026-04-06T10:47:22Z</time></trkpt><trkpt lat="51.224771664446315" lon="5.057424293037874"><ele>24.0</ele><time>2026-04-06T10:47:23Z</time></trkpt><trkpt lat="51.22492745682626" lon="5.057553052241978"><ele>24.0</ele><time>2026-04-06T10:47:24Z</time></trkpt><trkpt lat="51.22508124489698" lon="5.0576815959892"><ele>24.0</ele><time>2026-04-06T10:47:25Z</time></trkpt><trkpt lat="51.22523395610916" lon="5.057813173672446"><ele>24.0</ele><time>2026-04-06T10:47:26Z</time></trkpt><trkpt lat="51.22538658360337" lon="5.057943170829693"><ele>24.0</ele><time>2026-04-06T10:47:27Z</time></trkpt><trkpt lat="51.2255395831596" lon="5.0580746456222245"><ele>24.0</ele><time>2026-04-06T10:47:28Z</time></trkpt><trkpt lat="51.22569300254531" lon="5.058204267503074"><ele>24.0</ele><time>2026-04-06T10:47:29Z</time></trkpt><trkpt lat="51.22584669084839" lon="5.0583336445516816"><ele>24.333333333333336</ele><time>2026-04-06T10:47:30Z</time></trkpt><trkpt lat="51.22599961202424" lon="5.058463828745541"><ele>24.666666666666668</ele><time>2026-04-06T10:47:31Z</time></trkpt><trkpt lat="51.22615693655994" lon="5.058593388134229"><ele>25.0</ele><time>2026-04-06T10:47:32Z</time></trkpt><trkpt lat="51.22630964982056" lon="5.058723340624472"><ele>25.0</ele><time>2026-04-06T10:47:33Z</time></trkpt><trkpt lat="51.22646413701104" lon="5.05885538473242"><ele>25.0</ele><time>2026-04-06T10:47:34Z</time></trkpt><trkpt lat="51.2266193247199" lon="5.058988494827465"><ele>25.0</ele><time>2026-04-06T10:47:35Z</time></trkpt><trkpt lat="51.22677441153855" lon="5.059118849315369"><ele>25.333333333333336</ele><time>2026-04-06T10:47:36Z</time></trkpt><trkpt lat="51.226929143728036" lon="5.059249747831648"><ele>25.666666666666664</ele><time>2026-04-06T10:47:37Z</time></trkpt><trkpt lat="51.22708362166281" lon="5.059381249168349"><ele>26.0</ele><time>2026-04-06T10:47:38Z</time></trkpt><trkpt lat="51.22723812465412" lon="5.059512866312971"><ele>25.333333333333332</ele><time>2026-04-06T10:47:39Z</time></trkpt><trkpt lat="51.22739251899975" lon="5.059644381878761"><ele>24.666666666666664</ele><time>2026-04-06T10:47:40Z</time></trkpt><trkpt lat="51.2275470304272" lon="5.0597761831975845"><ele>24.0</ele><time>2026-04-06T10:47:41Z</time></trkpt><trkpt lat="51.22770186562397" lon="5.059906443153504"><ele>24.333333333333336</ele><time>2026-04-06T10:47:42Z</time></trkpt><trkpt lat="51.227856675403004" lon="5.060037594747853"><ele>24.666666666666668</ele><time>2026-04-06T10:47:43Z</time></trkpt><trkpt lat="51.228011375665865" lon="5.060168133137273"><ele>25.0</ele><time>2026-04-06T10:47:44Z</time></trkpt><trkpt lat="51.22816572976229" lon="5.0602980387423875"><ele>24.333333333333336</ele><time>2026-04-06T10:47:45Z</time></trkpt><trkpt lat="51.22831970440595" lon="5.060427483100017"><ele>23.666666666666668</ele><time>2026-04-06T10:47:46Z</time></trkpt><trkpt lat="51.228477122501936" lon="5.060560675466794"><ele>23.0</ele><time>2026-04-06T10:47:47Z</time></trkpt><trkpt lat="51.22863403665365" lon="5.060694644236398"><ele>22.666666666666668</ele><time>2026-04-06T10:47:48Z</time></trkpt><trkpt lat="51.22878985175827" lon="5.060827374291655"><ele>22.333333333333332</ele><time>2026-04-06T10:47:49Z</time></trkpt><trkpt lat="51.2289457058068" lon="5.060958825251038"><ele>22.0</ele><time>2026-04-06T10:47:50Z</time></trkpt><trkpt lat="51.229100153388316" lon="5.061092567622393"><ele>22.666666666666664</ele><time>2026-04-06T10:47:51Z</time></trkpt><trkpt lat="51.229254161487795" lon="5.061224338651378"><ele>23.333333333333332</ele><time>2026-04-06T10:47:52Z</time></trkpt><trkpt lat="51.22940906034811" lon="5.061352165499959"><ele>24.0</ele><time>2026-04-06T10:47:53Z</time></trkpt><trkpt lat="51.2295625483478" lon="5.061481693063787"><ele>24.0</ele><time>2026-04-06T10:47:54Z</time></trkpt><trkpt lat="51.22971528090906" lon="5.061610445441846"><ele>24.0</ele><time>2026-04-06T10:47:55Z</time></trkpt><trkpt lat="51.229867708282185" lon="5.061738908910156"><ele>24.0</ele><time>2026-04-06T10:47:56Z</time></trkpt><trkpt lat="51.23001952894487" lon="5.061868794349087"><ele>23.666666666666668</ele><time>2026-04-06T10:47:57Z</time></trkpt><trkpt lat="51.23017133572081" lon="5.061998170938954"><ele>23.333333333333336</ele><time>2026-04-06T10:47:58Z</time></trkpt><trkpt lat="51.230322463373334" lon="5.062125239177996"><ele>23.0</ele><time>2026-04-06T10:47:59Z</time></trkpt><trkpt lat="51.230473763475636" lon="5.062252965380724"><ele>23.0</ele><time>2026-04-06T10:48:00Z</time></trkpt><trkpt lat="51.230624161714026" lon="5.062382015488947"><ele>23.0</ele><time>2026-04-06T10:48:01Z</time></trkpt><trkpt lat="51.23077474357134" lon="5.06251044685915"><ele>23.0</ele><time>2026-04-06T10:48:02Z</time></trkpt><trkpt lat="51.23092466133291" lon="5.062637770046825"><ele>22.666666666666668</ele><time>2026-04-06T10:48:03Z</time></trkpt><trkpt lat="51.231073608832915" lon="5.062765346026212"><ele>22.333333333333332</ele><time>2026-04-06T10:48:04Z</time></trkpt><trkpt lat="51.23122193548443" lon="5.062893363962895"><ele>22.0</ele><time>2026-04-06T10:48:05Z</time></trkpt><trkpt lat="51.23137058622674" lon="5.063020067847527"><ele>22.333333333333332</ele><time>2026-04-06T10:48:06Z</time></trkpt><trkpt lat="51.23151788595978" lon="5.063148126534775"><ele>22.666666666666668</ele><time>2026-04-06T10:48:07Z</time></trkpt><trkpt lat="51.231656286238604" lon="5.063268759399934"><ele>23.0</ele><time>2026-04-06T10:48:08Z</time></trkpt><trkpt lat="51.23178744845558" lon="5.0633810548698275"><ele>23.0</ele><time>2026-04-06T10:48:09Z</time></trkpt><trkpt lat="51.2319153656919" lon="5.063489628540369"><ele>23.0</ele><time>2026-04-06T10:48:10Z</time></trkpt><trkpt lat="51.23203718683983" lon="5.0635925093973135"><ele>23.0</ele><time>2026-04-06T10:48:11Z</time></trkpt><trkpt lat="51.23214739541403" lon="5.063688781074606"><ele>23.0</ele><time>2026-04-06T10:48:12Z</time></trkpt><trkpt lat="51.232260067707294" lon="5.063786585100655"><ele>22.25</ele><time>2026-04-06T10:48:13Z</time></trkpt><trkpt lat="51.23237412231526" lon="5.063886793172689"><ele>21.5</ele><time>2026-04-06T10:48:14Z</time></trkpt><trkpt lat="51.232487422108235" lon="5.063989642622251"><ele>20.75</ele><time>2026-04-06T10:48:15Z</time></trkpt><trkpt lat="51.23260041931756" lon="5.064093836525255"><ele>20.0</ele><time>2026-04-06T10:48:16Z</time></trkpt><trkpt lat="51.23271041124318" lon="5.064192542622111"><ele>20.0</ele><time>2026-04-06T10:48:17Z</time></trkpt><trkpt lat="51.23280661778654" lon="5.064276018777935"><ele>20.0</ele><time>2026-04-06T10:48:18Z</time></trkpt><trkpt lat="51.232891794976915" lon="5.064346015805501"><ele>20.0</ele><time>2026-04-06T10:48:19Z</time></trkpt><trkpt lat="51.2329489483531" lon="5.064415869603641"><ele>20.0</ele><time>2026-04-06T10:48:20Z</time></trkpt><trkpt lat="51.23297837145359" lon="5.0645260271269885"><ele>20.0</ele><time>2026-04-06T10:48:21Z</time></trkpt><trkpt lat="51.232985704714075" lon="5.064669419819557"><ele>20.0</ele><time>2026-04-06T10:48:22Z</time></trkpt><trkpt lat="51.23297881713589" lon="5.064847629833034"><ele>20.0</ele><time>2026-04-06T10:48:23Z</time></trkpt><trkpt lat="51.23297120108507" lon="5.0650648190644825"><ele>20.0</ele><time>2026-04-06T10:48:24Z</time></trkpt><trkpt lat="51.23296376009943" lon="5.065315617530562"><ele>20.0</ele><time>2026-04-06T10:48:25Z</time></trkpt><trkpt lat="51.232953687655076" lon="5.0655760267581"><ele>20.333333333333336</ele><time>2026-04-06T10:48:26Z</time></trkpt><trkpt lat="51.23294268104175" lon="5.065834127991899"><ele>20.666666666666668</ele><time>2026-04-06T10:48:27Z</time></trkpt><trkpt lat="51.23293473288734" lon="5.066102007228477"><ele>21.0</ele><time>2026-04-06T10:48:28Z</time></trkpt><trkpt lat="51.23292420753534" lon="5.066382103186474"><ele>21.0</ele><time>2026-04-06T10:48:29Z</time></trkpt><trkpt lat="51.23291262064151" lon="5.066670158347797"><ele>21.0</ele><time>2026-04-06T10:48:30Z</time></trkpt><trkpt lat="51.23290212436718" lon="5.066942932591862"><ele>21.0</ele><time>2026-04-06T10:48:31Z</time></trkpt><trkpt lat="51.23289226124627" lon="5.067212481457433"><ele>21.0</ele><time>2026-04-06T10:48:32Z</time></trkpt><trkpt lat="51.232883024371276" lon="5.06748170385928"><ele>21.0</ele><time>2026-04-06T10:48:33Z</time></trkpt><trkpt lat="51.23287321604511" lon="5.067748991405989"><ele>21.0</ele><time>2026-04-06T10:48:34Z</time></trkpt><trkpt lat="51.23286257491717" lon="5.068017047390212"><ele>21.0</ele><time>2026-04-06T10:48:35Z</time></trkpt><trkpt lat="51.23285258366069" lon="5.068287438702474"><ele>21.0</ele><time>2026-04-06T10:48:36Z</time></trkpt><trkpt lat="51.23284159940644" lon="5.068562072759476"><ele>21.0</ele><time>2026-04-06T10:48:37Z</time></trkpt><trkpt lat="51.23283040399959" lon="5.068840385973427"><ele>21.333333333333332</ele><time>2026-04-06T10:48:38Z</time></trkpt><trkpt lat="51.23281893305937" lon="5.069122216163301"><ele>21.666666666666664</ele><time>2026-04-06T10:48:39Z</time></trkpt><trkpt lat="51.23280845458149" lon="5.069406562223505"><ele>22.0</ele><time>2026-04-06T10:48:40Z</time></trkpt><trkpt lat="51.23279890024658" lon="5.069692886051792"><ele>22.0</ele><time>2026-04-06T10:48:41Z</time></trkpt><trkpt lat="51.232787363165244" lon="5.069980291177803"><ele>22.0</ele><time>2026-04-06T10:48:42Z</time></trkpt><trkpt lat="51.2327767679826" lon="5.07026409968906"><ele>22.0</ele><time>2026-04-06T10:48:43Z</time></trkpt><trkpt lat="51.23276723141508" lon="5.07054598487854"><ele>22.0</ele><time>2026-04-06T10:48:44Z</time></trkpt><trkpt lat="51.232757665990874" lon="5.070827993944036"><ele>22.0</ele><time>2026-04-06T10:48:45Z</time></trkpt><trkpt lat="51.232747225283795" lon="5.071108883877245"><ele>22.0</ele><time>2026-04-06T10:48:46Z</time></trkpt><trkpt lat="51.232736237971196" lon="5.071388547794008"><ele>21.666666666666664</ele><time>2026-04-06T10:48:47Z</time></trkpt><trkpt lat="51.232725344551" lon="5.071667701621209"><ele>21.333333333333332</ele><time>2026-04-06T10:48:48Z</time></trkpt><trkpt lat="51.23271544596705" lon="5.071948079006879"><ele>21.0</ele><time>2026-04-06T10:48:49Z</time></trkpt><trkpt lat="51.23270497769365" lon="5.072226741725007"><ele>21.333333333333332</ele><time>2026-04-06T10:48:50Z</time></trkpt><trkpt lat="51.23269420088598" lon="5.072506410841368"><ele>21.666666666666664</ele><time>2026-04-06T10:48:51Z</time></trkpt><trkpt lat="51.23268319707321" lon="5.072785058154298"><ele>22.0</ele><time>2026-04-06T10:48:52Z</time></trkpt><trkpt lat="51.232672243067334" lon="5.0730631889414255"><ele>22.333333333333332</ele><time>2026-04-06T10:48:53Z</time></trkpt><trkpt lat="51.232661287779514" lon="5.073341688761507"><ele>22.666666666666668</ele><time>2026-04-06T10:48:54Z</time></trkpt><trkpt lat="51.23265048565664" lon="5.073620913359533"><ele>23.0</ele><time>2026-04-06T10:48:55Z</time></trkpt><trkpt lat="51.232640427012534" lon="5.07390467345559"><ele>22.666666666666668</ele><time>2026-04-06T10:48:56Z</time></trkpt><trkpt lat="51.232630155328124" lon="5.07419284048193"><ele>22.333333333333332</ele><time>2026-04-06T10:48:57Z</time></trkpt><trkpt lat="51.23261992222414" lon="5.074481821534448"><ele>22.0</ele><time>2026-04-06T10:48:58Z</time></trkpt><trkpt lat="51.2326088910143" lon="5.074770981229261"><ele>22.0</ele><time>2026-04-06T10:48:59Z</time></trkpt><trkpt lat="51.23259872715597" lon="5.075061456378055"><ele>22.0</ele><time>2026-04-06T10:49:00Z</time></trkpt><trkpt lat="51.232588654928094" lon="5.075352684172214"><ele>22.0</ele><time>2026-04-06T10:49:01Z</time></trkpt><trkpt lat="51.23257744002438" lon="5.07564485827871"><ele>21.666666666666664</ele><time>2026-04-06T10:49:02Z</time></trkpt><trkpt lat="51.2325671306295" lon="5.075937157523824"><ele>21.333333333333332</ele><time>2026-04-06T10:49:03Z</time></trkpt><trkpt lat="51.2325579741078" lon="5.076230118819863"><ele>21.0</ele><time>2026-04-06T10:49:04Z</time></trkpt><trkpt lat="51.232547637171955" lon="5.076523764550587"><ele>21.333333333333332</ele><time>2026-04-06T10:49:05Z</time></trkpt><trkpt lat="51.23253618965546" lon="5.07681716445043"><ele>21.666666666666664</ele><time>2026-04-06T10:49:06Z</time></trkpt><trkpt lat="51.232524666556216" lon="5.077110380163694"><ele>22.0</ele><time>2026-04-06T10:49:07Z</time></trkpt><trkpt lat="51.23251365620078" lon="5.077404477184917"><ele>21.666666666666664</ele><time>2026-04-06T10:49:08Z</time></trkpt><trkpt lat="51.232502276038694" lon="5.077697331911381"><ele>21.333333333333332</ele><time>2026-04-06T10:49:09Z</time></trkpt><trkpt lat="51.2324907525982" lon="5.0779917206369625"><ele>21.0</ele><time>2026-04-06T10:49:10Z</time></trkpt><trkpt lat="51.23248002004939" lon="5.078286186951939"><ele>21.0</ele><time>2026-04-06T10:49:11Z</time></trkpt><trkpt lat="51.23247014806427" lon="5.078580684616761"><ele>21.0</ele><time>2026-04-06T10:49:12Z</time></trkpt><trkpt lat="51.232460096220464" lon="5.078874820225359"><ele>21.0</ele><time>2026-04-06T10:49:13Z</time></trkpt><trkpt lat="51.23244949192399" lon="5.079170091244662"><ele>21.0</ele><time>2026-04-06T10:49:14Z</time></trkpt><trkpt lat="51.23243722997908" lon="5.079464803191825"><ele>21.0</ele><time>2026-04-06T10:49:15Z</time></trkpt><trkpt lat="51.23242604523831" lon="5.079759965142307"><ele>21.0</ele><time>2026-04-06T10:49:16Z</time></trkpt><trkpt lat="51.23241523670122" lon="5.080055554528899"><ele>20.666666666666668</ele><time>2026-04-06T10:49:17Z</time></trkpt><trkpt lat="51.232404287613996" lon="5.080347982354176"><ele>20.333333333333336</ele><time>2026-04-06T10:49:18Z</time></trkpt><trkpt lat="51.232393381935815" lon="5.080637803131021"><ele>20.0</ele><time>2026-04-06T10:49:19Z</time></trkpt><trkpt lat="51.23238267321581" lon="5.080926148218364"><ele>21.0</ele><time>2026-04-06T10:49:20Z</time></trkpt><trkpt lat="51.232371864320704" lon="5.081213561518323"><ele>22.0</ele><time>2026-04-06T10:49:21Z</time></trkpt><trkpt lat="51.23235987075815" lon="5.081500982833136"><ele>23.0</ele><time>2026-04-06T10:49:22Z</time></trkpt><trkpt lat="51.232348755102606" lon="5.08178682615116"><ele>23.333333333333336</ele><time>2026-04-06T10:49:23Z</time></trkpt><trkpt lat="51.23233958702946" lon="5.08207146208011"><ele>23.666666666666668</ele><time>2026-04-06T10:49:24Z</time></trkpt><trkpt lat="51.23233048497767" lon="5.082355273526625"><ele>24.0</ele><time>2026-04-06T10:49:25Z</time></trkpt><trkpt lat="51.232319194168575" lon="5.0826380461451235"><ele>24.0</ele><time>2026-04-06T10:49:26Z</time></trkpt><trkpt lat="51.23230894328865" lon="5.082920017794961"><ele>24.0</ele><time>2026-04-06T10:49:27Z</time></trkpt><trkpt lat="51.23229817954593" lon="5.083203200529965"><ele>24.0</ele><time>2026-04-06T10:49:28Z</time></trkpt><trkpt lat="51.23228793795232" lon="5.083488484490303"><ele>24.0</ele><time>2026-04-06T10:49:29Z</time></trkpt><trkpt lat="51.232276536062095" lon="5.083775873925747"><ele>24.0</ele><time>2026-04-06T10:49:30Z</time></trkpt><trkpt lat="51.232261848165955" lon="5.084065387400585"><ele>24.0</ele><time>2026-04-06T10:49:31Z</time></trkpt><trkpt lat="51.23225328775464" lon="5.084356836745418"><ele>24.0</ele><time>2026-04-06T10:49:32Z</time></trkpt><trkpt lat="51.23225661707504" lon="5.084648246516311"><ele>24.0</ele><time>2026-04-06T10:49:33Z</time></trkpt><trkpt lat="51.232267243375894" lon="5.084940942723229"><ele>24.0</ele><time>2026-04-06T10:49:34Z</time></trkpt><trkpt lat="51.23227585255941" lon="5.085236113583437"><ele>23.666666666666668</ele><time>2026-04-06T10:49:35Z</time></trkpt><trkpt lat="51.23228551412573" lon="5.0855330841612645"><ele>23.333333333333336</ele><time>2026-04-06T10:49:36Z</time></trkpt><trkpt lat="51.232295793885214" lon="5.085832858292614"><ele>23.0</ele><time>2026-04-06T10:49:37Z</time></trkpt><trkpt lat="51.232306560024654" lon="5.08612991977491"><ele>22.666666666666668</ele><time>2026-04-06T10:49:38Z</time></trkpt><trkpt lat="51.232314588373015" lon="5.0864209159246485"><ele>22.333333333333332</ele><time>2026-04-06T10:49:39Z</time></trkpt><trkpt lat="51.23231882070136" lon="5.086705812915654"><ele>22.0</ele><time>2026-04-06T10:49:40Z</time></trkpt><trkpt lat="51.23232770927073" lon="5.086987703219089"><ele>22.0</ele><time>2026-04-06T10:49:41Z</time></trkpt><trkpt lat="51.232339328731626" lon="5.087268071182401"><ele>22.0</ele><time>2026-04-06T10:49:42Z</time></trkpt><trkpt lat="51.23234880496247" lon="5.087548216838679"><ele>22.0</ele><time>2026-04-06T10:49:43Z</time></trkpt><trkpt lat="51.232355284588834" lon="5.087828627280372"><ele>22.0</ele><time>2026-04-06T10:49:44Z</time></trkpt><trkpt lat="51.23236231608687" lon="5.0881001705369036"><ele>22.0</ele><time>2026-04-06T10:49:45Z</time></trkpt><trkpt lat="51.232374946816854" lon="5.088349444778679"><ele>22.0</ele><time>2026-04-06T10:49:46Z</time></trkpt><trkpt lat="51.232377252368146" lon="5.0885727079941105"><ele>22.400000000000002</ele><time>2026-04-06T10:49:47Z</time></trkpt><trkpt lat="51.2323586389394" lon="5.088736474018491"><ele>22.8</ele><time>2026-04-06T10:49:48Z</time></trkpt><trkpt lat="51.23233502489498" lon="5.0888841634506825"><ele>23.2</ele><time>2026-04-06T10:49:49Z</time></trkpt><trkpt lat="51.23230968392269" lon="5.089019382289515"><ele>23.6</ele><time>2026-04-06T10:49:50Z</time></trkpt><trkpt lat="51.23228243168639" lon="5.08914349217512"><ele>24.0</ele><time>2026-04-06T10:49:51Z</time></trkpt><trkpt lat="51.232245551878044" lon="5.089257224793379"><ele>24.0</ele><time>2026-04-06T10:49:52Z</time></trkpt><trkpt lat="51.2322114450937" lon="5.089349144367023"><ele>24.0</ele><time>2026-04-06T10:49:53Z</time></trkpt><trkpt lat="51.23222721073923" lon="5.089529529894016"><ele>24.0</ele><time>2026-04-06T10:49:55Z</time></trkpt><trkpt lat="51.232277346397346" lon="5.089594209542979"><ele>24.0</ele><time>2026-04-06T10:49:56Z</time></trkpt><trkpt lat="51.23240218775701" lon="5.089570583560768"><ele>24.0</ele><time>2026-04-06T10:49:58Z</time></trkpt><trkpt lat="51.232478992515986" lon="5.089512050537188"><ele>24.0</ele><time>2026-04-06T10:49:59Z</time></trkpt><trkpt lat="51.232576908064466" lon="5.089492793117948"><ele>24.0</ele><time>2026-04-06T10:50:00Z</time></trkpt><trkpt lat="51.23268854556654" lon="5.089480819634889"><ele>24.0</ele><time>2026-04-06T10:50:01Z</time></trkpt><trkpt lat="51.232811341047636" lon="5.089436847712089"><ele>24.0</ele><time>2026-04-06T10:50:02Z</time></trkpt><trkpt lat="51.23295751783362" lon="5.089411832951656"><ele>24.0</ele><time>2026-04-06T10:50:03Z</time></trkpt><trkpt lat="51.23311730096568" lon="5.08944097305884"><ele>24.0</ele><time>2026-04-06T10:50:04Z</time></trkpt><trkpt lat="51.23326852015608" lon="5.089489705756902"><ele>24.0</ele><time>2026-04-06T10:50:05Z</time></trkpt><trkpt lat="51.2334264977625" lon="5.089576141935386"><ele>23.333333333333332</ele><time>2026-04-06T10:50:06Z</time></trkpt><trkpt lat="51.23357716326065" lon="5.089700148710088"><ele>22.666666666666664</ele><time>2026-04-06T10:50:07Z</time></trkpt><trkpt lat="51.23372731768136" lon="5.089856061225167"><ele>22.0</ele><time>2026-04-06T10:50:08Z</time></trkpt><trkpt lat="51.233859423594595" lon="5.090036596812363"><ele>22.0</ele><time>2026-04-06T10:50:09Z</time></trkpt><trkpt lat="51.233971554558146" lon="5.090232838015922"><ele>22.0</ele><time>2026-04-06T10:50:10Z</time></trkpt><trkpt lat="51.234070627609384" lon="5.090450501062845"><ele>22.0</ele><time>2026-04-06T10:50:11Z</time></trkpt><trkpt lat="51.23415710218333" lon="5.0906898464185515"><ele>22.666666666666664</ele><time>2026-04-06T10:50:12Z</time></trkpt><trkpt lat="51.234229952282355" lon="5.090945863342449"><ele>23.333333333333332</ele><time>2026-04-06T10:50:13Z</time></trkpt><trkpt lat="51.23429588904348" lon="5.091213053945591"><ele>24.0</ele><time>2026-04-06T10:50:14Z</time></trkpt><trkpt lat="51.23436588388612" lon="5.091483658214292"><ele>24.333333333333336</ele><time>2026-04-06T10:50:15Z</time></trkpt><trkpt lat="51.23444014272696" lon="5.091758489108295"><ele>24.666666666666668</ele><time>2026-04-06T10:50:16Z</time></trkpt><trkpt lat="51.234512646803516" lon="5.092040482193494"><ele>25.0</ele><time>2026-04-06T10:50:17Z</time></trkpt><trkpt lat="51.234584840609756" lon="5.092325642030232"><ele>25.0</ele><time>2026-04-06T10:50:18Z</time></trkpt><trkpt lat="51.23465871438132" lon="5.09261056315374"><ele>25.0</ele><time>2026-04-06T10:50:19Z</time></trkpt><trkpt lat="51.23473059909083" lon="5.092887989437393"><ele>25.0</ele><time>2026-04-06T10:50:20Z</time></trkpt><trkpt lat="51.23480103377279" lon="5.093161204329307"><ele>26.0</ele><time>2026-04-06T10:50:21Z</time></trkpt><trkpt lat="51.23487252674686" lon="5.093429856799769"><ele>27.0</ele><time>2026-04-06T10:50:22Z</time></trkpt><trkpt lat="51.234946007222334" lon="5.093693509307229"><ele>28.0</ele><time>2026-04-06T10:50:23Z</time></trkpt><trkpt lat="51.235016063099195" lon="5.093957880149739"><ele>27.333333333333336</ele><time>2026-04-06T10:50:24Z</time></trkpt><trkpt lat="51.23508441622903" lon="5.094220230406993"><ele>26.666666666666664</ele><time>2026-04-06T10:50:25Z</time></trkpt><trkpt lat="51.23515315840331" lon="5.094484711009455"><ele>26.0</ele><time>2026-04-06T10:50:26Z</time></trkpt><trkpt lat="51.235222899936524" lon="5.0947480993445815"><ele>26.333333333333332</ele><time>2026-04-06T10:50:27Z</time></trkpt><trkpt lat="51.23529020046655" lon="5.095012293262065"><ele>26.666666666666664</ele><time>2026-04-06T10:50:28Z</time></trkpt><trkpt lat="51.235358969828155" lon="5.095274825515058"><ele>27.0</ele><time>2026-04-06T10:50:29Z</time></trkpt><trkpt lat="51.23542924748942" lon="5.095535056157841"><ele>27.333333333333336</ele><time>2026-04-06T10:50:30Z</time></trkpt><trkpt lat="51.235500562358894" lon="5.095796327772852"><ele>27.666666666666668</ele><time>2026-04-06T10:50:31Z</time></trkpt><trkpt lat="51.23556573306144" lon="5.09605918157422"><ele>28.0</ele><time>2026-04-06T10:50:32Z</time></trkpt><trkpt lat="51.235638928603535" lon="5.096320884648216"><ele>28.0</ele><time>2026-04-06T10:50:33Z</time></trkpt><trkpt lat="51.235706577448475" lon="5.096583919178853"><ele>28.0</ele><time>2026-04-06T10:50:33.999Z</time></trkpt><trkpt lat="51.23577271581616" lon="5.09684750039486"><ele>28.0</ele><time>2026-04-06T10:50:34.999Z</time></trkpt><trkpt lat="51.235840048513154" lon="5.0971091655446115"><ele>27.333333333333336</ele><time>2026-04-06T10:50:35.999Z</time></trkpt><trkpt lat="51.23590661979747" lon="5.0973663628901"><ele>26.666666666666664</ele><time>2026-04-06T10:50:36.999Z</time></trkpt><trkpt lat="51.235972961031706" lon="5.097619206515216"><ele>26.0</ele><time>2026-04-06T10:50:37.999Z</time></trkpt><trkpt lat="51.23603938506922" lon="5.097871531073129"><ele>26.0</ele><time>2026-04-06T10:50:38.999Z</time></trkpt><trkpt lat="51.236104445477956" lon="5.098122483255061"><ele>26.0</ele><time>2026-04-06T10:50:39.999Z</time></trkpt><trkpt lat="51.236164611194575" lon="5.098353362981315"><ele>26.0</ele><time>2026-04-06T10:50:40.999Z</time></trkpt><trkpt lat="51.23622123829565" lon="5.098567603106446"><ele>26.0</ele><time>2026-04-06T10:50:41.999Z</time></trkpt><trkpt lat="51.23627297083904" lon="5.098769545828676"><ele>26.0</ele><time>2026-04-06T10:50:42.999Z</time></trkpt><trkpt lat="51.236323268020946" lon="5.098961322627139"><ele>26.0</ele><time>2026-04-06T10:50:43.999Z</time></trkpt><trkpt lat="51.23637001936885" lon="5.099135334269863"><ele>26.0</ele><time>2026-04-06T10:50:44.999Z</time></trkpt><trkpt lat="51.23641541985058" lon="5.099302299682483"><ele>26.0</ele><time>2026-04-06T10:50:45.999Z</time></trkpt><trkpt lat="51.23646143877729" lon="5.099476186756196"><ele>26.0</ele><time>2026-04-06T10:50:46.999Z</time></trkpt><trkpt lat="51.2365059576655" lon="5.099650221792865"><ele>26.0</ele><time>2026-04-06T10:50:47.999Z</time></trkpt><trkpt lat="51.23655177976365" lon="5.0998206988542"><ele>26.0</ele><time>2026-04-06T10:50:48.999Z</time></trkpt><trkpt lat="51.236597597449006" lon="5.09999178103777"><ele>25.5</ele><time>2026-04-06T10:50:49.999Z</time></trkpt><trkpt lat="51.2366427763119" lon="5.100161434330031"><ele>25.0</ele><time>2026-04-06T10:50:50.999Z</time></trkpt><trkpt lat="51.23668630206588" lon="5.1003300874688655"><ele>24.5</ele><time>2026-04-06T10:50:51.999Z</time></trkpt><trkpt lat="51.236729284376835" lon="5.100498022798072"><ele>24.0</ele><time>2026-04-06T10:50:52.999Z</time></trkpt><trkpt lat="51.2367723266683" lon="5.100665261672535"><ele>24.25</ele><time>2026-04-06T10:50:54Z</time></trkpt><trkpt lat="51.236815879633546" lon="5.100833047150791"><ele>24.5</ele><time>2026-04-06T10:50:55Z</time></trkpt><trkpt lat="51.23686095309661" lon="5.10100610352588"><ele>24.75</ele><time>2026-04-06T10:50:56Z</time></trkpt><trkpt lat="51.23690724715409" lon="5.101185624703741"><ele>25.0</ele><time>2026-04-06T10:50:57Z</time></trkpt><trkpt lat="51.236953775795705" lon="5.1013673305293565"><ele>25.0</ele><time>2026-04-06T10:50:58Z</time></trkpt><trkpt lat="51.2370019347246" lon="5.101552186166426"><ele>25.0</ele><time>2026-04-06T10:50:59Z</time></trkpt><trkpt lat="51.23705082942646" lon="5.101738675589455"><ele>25.0</ele><time>2026-04-06T10:51:00Z</time></trkpt><trkpt lat="51.23710048339731" lon="5.101926269535841"><ele>25.0</ele><time>2026-04-06T10:51:01Z</time></trkpt><trkpt lat="51.237150514784524" lon="5.102114177752872"><ele>25.0</ele><time>2026-04-06T10:51:02Z</time></trkpt><trkpt lat="51.23719979771681" lon="5.102299527400512"><ele>25.0</ele><time>2026-04-06T10:51:03Z</time></trkpt><trkpt lat="51.23724839160959" lon="5.102484361178613"><ele>25.0</ele><time>2026-04-06T10:51:04Z</time></trkpt><trkpt lat="51.237295091022304" lon="5.102668206976842"><ele>25.0</ele><time>2026-04-06T10:51:05Z</time></trkpt><trkpt lat="51.237344431105875" lon="5.102851433442324"><ele>24.75</ele><time>2026-04-06T10:51:06Z</time></trkpt><trkpt lat="51.237393781327924" lon="5.103033503677407"><ele>24.5</ele><time>2026-04-06T10:51:07Z</time></trkpt><trkpt lat="51.23744190683506" lon="5.103216356861569"><ele>24.25</ele><time>2026-04-06T10:51:08Z</time></trkpt><trkpt lat="51.23749140968256" lon="5.103396779586055"><ele>24.0</ele><time>2026-04-06T10:51:09Z</time></trkpt><trkpt lat="51.237540579098294" lon="5.103576805761809"><ele>24.0</ele><time>2026-04-06T10:51:10Z</time></trkpt><trkpt lat="51.23758737952445" lon="5.103759579339685"><ele>24.0</ele><time>2026-04-06T10:51:11Z</time></trkpt><trkpt lat="51.23763312686133" lon="5.103942328273713"><ele>24.0</ele><time>2026-04-06T10:51:12Z</time></trkpt><trkpt lat="51.23768179736913" lon="5.1041211024946795"><ele>24.0</ele><time>2026-04-06T10:51:13Z</time></trkpt><trkpt lat="51.23773268266075" lon="5.1043002526277395"><ele>24.25</ele><time>2026-04-06T10:51:14Z</time></trkpt><trkpt lat="51.237782405894635" lon="5.104477595374403"><ele>24.5</ele><time>2026-04-06T10:51:15Z</time></trkpt><trkpt lat="51.23783388890699" lon="5.1046546969146664"><ele>24.75</ele><time>2026-04-06T10:51:16Z</time></trkpt><trkpt lat="51.23788715610926" lon="5.104830780944278"><ele>25.0</ele><time>2026-04-06T10:51:17Z</time></trkpt><trkpt lat="51.23794224903051" lon="5.105006873889059"><ele>25.0</ele><time>2026-04-06T10:51:18Z</time></trkpt><trkpt lat="51.23800414053924" lon="5.105177150901695"><ele>25.0</ele><time>2026-04-06T10:51:19Z</time></trkpt><trkpt lat="51.2380708497331" lon="5.10534177575043"><ele>25.0</ele><time>2026-04-06T10:51:20Z</time></trkpt><trkpt lat="51.23813921993347" lon="5.1055054474135195"><ele>25.0</ele><time>2026-04-06T10:51:21Z</time></trkpt><trkpt lat="51.23821068566189" lon="5.105667375380552"><ele>24.75</ele><time>2026-04-06T10:51:22Z</time></trkpt><trkpt lat="51.23828325303263" lon="5.105831244295268"><ele>24.5</ele><time>2026-04-06T10:51:23Z</time></trkpt><trkpt lat="51.238356972639856" lon="5.1059951374597095"><ele>24.25</ele><time>2026-04-06T10:51:24Z</time></trkpt><trkpt lat="51.238431208048624" lon="5.106160585590243"><ele>24.0</ele><time>2026-04-06T10:51:25Z</time></trkpt><trkpt lat="51.23850564343844" lon="5.106326443516059"><ele>24.0</ele><time>2026-04-06T10:51:26Z</time></trkpt><trkpt lat="51.23857898821642" lon="5.106491797561889"><ele>24.0</ele><time>2026-04-06T10:51:27Z</time></trkpt><trkpt lat="51.23864734868154" lon="5.106644444284302"><ele>24.0</ele><time>2026-04-06T10:51:28Z</time></trkpt><trkpt lat="51.23871157737309" lon="5.106785497671364"><ele>24.0</ele><time>2026-04-06T10:51:29Z</time></trkpt><trkpt lat="51.23877364971693" lon="5.106922881095872"><ele>24.0</ele><time>2026-04-06T10:51:30Z</time></trkpt><trkpt lat="51.238833769171364" lon="5.107058384402762"><ele>24.0</ele><time>2026-04-06T10:51:31Z</time></trkpt><trkpt lat="51.23889165475621" lon="5.107191817373889"><ele>24.0</ele><time>2026-04-06T10:51:32Z</time></trkpt><trkpt lat="51.23894447162089" lon="5.107328501256185"><ele>24.0</ele><time>2026-04-06T10:51:33Z</time></trkpt><trkpt lat="51.2389880796765" lon="5.107468375738418"><ele>24.0</ele><time>2026-04-06T10:51:34Z</time></trkpt><trkpt lat="51.23902919587876" lon="5.107619902761024"><ele>24.0</ele><time>2026-04-06T10:51:35Z</time></trkpt><trkpt lat="51.23906005423221" lon="5.107781769190524"><ele>24.0</ele><time>2026-04-06T10:51:36Z</time></trkpt><trkpt lat="51.23907640635021" lon="5.107952382687931"><ele>24.0</ele><time>2026-04-06T10:51:37Z</time></trkpt><trkpt lat="51.23908051830481" lon="5.108130097303636"><ele>24.0</ele><time>2026-04-06T10:51:38Z</time></trkpt><trkpt lat="51.239075627704764" lon="5.1083108728117015"><ele>24.0</ele><time>2026-04-06T10:51:39Z</time></trkpt><trkpt lat="51.23904533509983" lon="5.108487452948524"><ele>24.0</ele><time>2026-04-06T10:51:40Z</time></trkpt><trkpt lat="51.2390444974721" lon="5.108674102717087"><ele>24.0</ele><time>2026-04-06T10:51:41Z</time></trkpt><trkpt lat="51.23902547180717" lon="5.108853341168948"><ele>24.0</ele><time>2026-04-06T10:51:42Z</time></trkpt><trkpt lat="51.239010662026786" lon="5.109026030677012"><ele>24.0</ele><time>2026-04-06T10:51:43Z</time></trkpt><trkpt lat="51.23899251623119" lon="5.109195434289021"><ele>24.0</ele><time>2026-04-06T10:51:44Z</time></trkpt><trkpt lat="51.238975891954084" lon="5.109361135956968"><ele>24.2</ele><time>2026-04-06T10:51:45Z</time></trkpt><trkpt lat="51.238958097988686" lon="5.109523023807843"><ele>24.4</ele><time>2026-04-06T10:51:46Z</time></trkpt><trkpt lat="51.2389414764793" lon="5.10968007089572"><ele>24.6</ele><time>2026-04-06T10:51:47Z</time></trkpt><trkpt lat="51.23892504529093" lon="5.109834598696829"><ele>24.8</ele><time>2026-04-06T10:51:48Z</time></trkpt><trkpt lat="51.23891131555658" lon="5.1099896407902845"><ele>25.0</ele><time>2026-04-06T10:51:49Z</time></trkpt><trkpt lat="51.23889738130602" lon="5.11014131569924"><ele>25.0</ele><time>2026-04-06T10:51:50Z</time></trkpt><trkpt lat="51.23888367201329" lon="5.110292321966305"><ele>25.0</ele><time>2026-04-06T10:51:51Z</time></trkpt><trkpt lat="51.23887165260167" lon="5.110443639893568"><ele>25.0</ele><time>2026-04-06T10:51:52Z</time></trkpt><trkpt lat="51.23885960922562" lon="5.110592801187192"><ele>25.0</ele><time>2026-04-06T10:51:53Z</time></trkpt><trkpt lat="51.23884951810573" lon="5.110740459535997"><ele>25.0</ele><time>2026-04-06T10:51:54Z</time></trkpt><trkpt lat="51.23884611370468" lon="5.110889089176537"><ele>25.0</ele><time>2026-04-06T10:51:55Z</time></trkpt><trkpt lat="51.238846909320515" lon="5.111038265454222"><ele>25.0</ele><time>2026-04-06T10:51:56Z</time></trkpt><trkpt lat="51.238852367493436" lon="5.111186593411603"><ele>25.0</ele><time>2026-04-06T10:51:57Z</time></trkpt><trkpt lat="51.238858737151624" lon="5.111335108345925"><ele>25.0</ele><time>2026-04-06T10:51:58Z</time></trkpt><trkpt lat="51.238869936041034" lon="5.111485748192182"><ele>25.0</ele><time>2026-04-06T10:51:59Z</time></trkpt><trkpt lat="51.238885404847025" lon="5.111635817230853"><ele>25.000000000000004</ele><time>2026-04-06T10:52:00Z</time></trkpt><trkpt lat="51.23890305214437" lon="5.111782963987277"><ele>25.0</ele><time>2026-04-06T10:52:01Z</time></trkpt><trkpt lat="51.23892538441219" lon="5.111918237280057"><ele>25.0</ele><time>2026-04-06T10:52:02Z</time></trkpt><trkpt lat="51.238946909419205" lon="5.112041632839802"><ele>25.0</ele><time>2026-04-06T10:52:03Z</time></trkpt><trkpt lat="51.23896903745422" lon="5.1121603381235134"><ele>25.000000000000004</ele><time>2026-04-06T10:52:04Z</time></trkpt><trkpt lat="51.23899579129649" lon="5.112272067763657"><ele>25.0</ele><time>2026-04-06T10:52:05Z</time></trkpt><trkpt lat="51.23902091228702" lon="5.112373240273356"><ele>25.166666666666668</ele><time>2026-04-06T10:52:06Z</time></trkpt><trkpt lat="51.23905717183982" lon="5.112508094396772"><ele>25.333333333333336</ele><time>2026-04-06T10:52:08Z</time></trkpt><trkpt lat="51.239102442425406" lon="5.112630784507196"><ele>25.5</ele><time>2026-04-06T10:52:11Z</time></trkpt><trkpt lat="51.239171484299106" lon="5.112787114306445"><ele>25.666666666666664</ele><time>2026-04-06T10:52:13Z</time></trkpt><trkpt lat="51.23921958100313" lon="5.11287417011083"><ele>25.833333333333332</ele><time>2026-04-06T10:52:14Z</time></trkpt><trkpt lat="51.2392714230249" lon="5.11295394810867"><ele>26.0</ele><time>2026-04-06T10:52:15Z</time></trkpt><trkpt lat="51.23932164404743" lon="5.113036726016644"><ele>25.999999999999996</ele><time>2026-04-06T10:52:16Z</time></trkpt><trkpt lat="51.239365244420725" lon="5.113144616618039"><ele>26.0</ele><time>2026-04-06T10:52:17Z</time></trkpt><trkpt lat="51.239404495399164" lon="5.113262324272895"><ele>26.0</ele><time>2026-04-06T10:52:18Z</time></trkpt><trkpt lat="51.23944451000077" lon="5.113383304277662"><ele>26.0</ele><time>2026-04-06T10:52:19Z</time></trkpt><trkpt lat="51.23948057303061" lon="5.113503209993362"><ele>25.999999999999996</ele><time>2026-04-06T10:52:20Z</time></trkpt><trkpt lat="51.23952894102068" lon="5.113670515860951"><ele>26.0</ele><time>2026-04-06T10:52:22Z</time></trkpt><trkpt lat="51.239517951572964" lon="5.113808901013897"><ele>26.0</ele><time>2026-04-06T10:52:24Z</time></trkpt><trkpt lat="51.23940273959875" lon="5.1139320528505685"><ele>26.0</ele><time>2026-04-06T10:52:26Z</time></trkpt><trkpt lat="51.239321193836645" lon="5.1140047950685785"><ele>26.0</ele><time>2026-04-06T10:52:27Z</time></trkpt><trkpt lat="51.239227979577635" lon="5.114082961657916"><ele>26.0</ele><time>2026-04-06T10:52:27.999Z</time></trkpt><trkpt lat="51.23913681821129" lon="5.114159272563447"><ele>26.0</ele><time>2026-04-06T10:52:28.999Z</time></trkpt><trkpt lat="51.23904120704519" lon="5.114205450162189"><ele>25.8</ele><time>2026-04-06T10:52:29.999Z</time></trkpt><trkpt lat="51.2389503409221" lon="5.114264797516933"><ele>25.6</ele><time>2026-04-06T10:52:30.999Z</time></trkpt><trkpt lat="51.238851571362204" lon="5.1143124747389885"><ele>25.4</ele><time>2026-04-06T10:52:31.999Z</time></trkpt><trkpt lat="51.238746607642476" lon="5.1143722369505165"><ele>25.2</ele><time>2026-04-06T10:52:32.999Z</time></trkpt><trkpt lat="51.23863358402935" lon="5.114392493733836"><ele>25.0</ele><time>2026-04-06T10:52:33.999Z</time></trkpt><trkpt lat="51.238520308605" lon="5.1144118759050174"><ele>25.0</ele><time>2026-04-06T10:52:34.999Z</time></trkpt><trkpt lat="51.23840674661765" lon="5.114431961579085"><ele>25.0</ele><time>2026-04-06T10:52:35.999Z</time></trkpt><trkpt lat="51.238294951442825" lon="5.114453636379748"><ele>25.0</ele><time>2026-04-06T10:52:36.999Z</time></trkpt><trkpt lat="51.23818499041412" lon="5.114489320240355"><ele>25.0</ele><time>2026-04-06T10:52:37.999Z</time></trkpt><trkpt lat="51.2380748549716" lon="5.114512859759501"><ele>25.0</ele><time>2026-04-06T10:52:38.999Z</time></trkpt><trkpt lat="51.2379736535531" lon="5.114579328823572"><ele>25.0</ele><time>2026-04-06T10:52:39.999Z</time></trkpt><trkpt lat="51.23787888942514" lon="5.114668392559708"><ele>25.0</ele><time>2026-04-06T10:52:40.999Z</time></trkpt><trkpt lat="51.237794675970406" lon="5.114788514257716"><ele>25.0</ele><time>2026-04-06T10:52:41.999Z</time></trkpt><trkpt lat="51.23772853142996" lon="5.114931263614848"><ele>25.0</ele><time>2026-04-06T10:52:42.999Z</time></trkpt><trkpt lat="51.23765678356655" lon="5.115059473504985"><ele>25.0</ele><time>2026-04-06T10:52:43.999Z</time></trkpt><trkpt lat="51.23758319607142" lon="5.115201839288884"><ele>25.0</ele><time>2026-04-06T10:52:44.999Z</time></trkpt><trkpt lat="51.23750201248003" lon="5.115334029981944"><ele>25.0</ele><time>2026-04-06T10:52:45.999Z</time></trkpt><trkpt lat="51.23743680917878" lon="5.115476464709423"><ele>25.0</ele><time>2026-04-06T10:52:46.999Z</time></trkpt><trkpt lat="51.23736994459911" lon="5.115626808689327"><ele>24.75</ele><time>2026-04-06T10:52:47.999Z</time></trkpt><trkpt lat="51.23731658185222" lon="5.115787739316572"><ele>24.5</ele><time>2026-04-06T10:52:48.999Z</time></trkpt><trkpt lat="51.23727664686816" lon="5.115955032571328"><ele>24.25</ele><time>2026-04-06T10:52:49.999Z</time></trkpt><trkpt lat="51.237240179657206" lon="5.1161304217748995"><ele>24.0</ele><time>2026-04-06T10:52:50.999Z</time></trkpt><trkpt lat="51.237206354822135" lon="5.116307840184628"><ele>24.0</ele><time>2026-04-06T10:52:51.999Z</time></trkpt><trkpt lat="51.23717527939673" lon="5.116488125296654"><ele>24.0</ele><time>2026-04-06T10:52:52.999Z</time></trkpt><trkpt lat="51.23714453998794" lon="5.11666857830998"><ele>24.0</ele><time>2026-04-06T10:52:53.999Z</time></trkpt><trkpt lat="51.23711274090111" lon="5.1168493013613325"><ele>24.0</ele><time>2026-04-06T10:52:54.999Z</time></trkpt><trkpt lat="51.23708194070462" lon="5.117029784050332"><ele>24.0</ele><time>2026-04-06T10:52:55.999Z</time></trkpt><trkpt lat="51.23705120552844" lon="5.117208983358267"><ele>24.0</ele><time>2026-04-06T10:52:56.999Z</time></trkpt><trkpt lat="51.237020353030545" lon="5.117388082427379"><ele>24.0</ele><time>2026-04-06T10:52:57.999Z</time></trkpt><trkpt lat="51.23698920920123" lon="5.117567166365284"><ele>24.0</ele><time>2026-04-06T10:52:58.999Z</time></trkpt><trkpt lat="51.23695917654351" lon="5.117745517187185"><ele>24.25</ele><time>2026-04-06T10:52:59.999Z</time></trkpt><trkpt lat="51.23692750477493" lon="5.117924004633769"><ele>24.5</ele><time>2026-04-06T10:53:00.999Z</time></trkpt><trkpt lat="51.236896555641174" lon="5.118103168403904"><ele>24.75</ele><time>2026-04-06T10:53:01.999Z</time></trkpt><trkpt lat="51.23687317116773" lon="5.118285301955906"><ele>25.0</ele><time>2026-04-06T10:53:02.999Z</time></trkpt><trkpt lat="51.23685965411389" lon="5.118469096462989"><ele>25.0</ele><time>2026-04-06T10:53:03.999Z</time></trkpt><trkpt lat="51.23685616910638" lon="5.1186551495783075"><ele>25.0</ele><time>2026-04-06T10:53:04.999Z</time></trkpt><trkpt lat="51.23686566936709" lon="5.118841168525229"><ele>25.0</ele><time>2026-04-06T10:53:05.999Z</time></trkpt><trkpt lat="51.23688212143099" lon="5.119027731966658"><ele>25.0</ele><time>2026-04-06T10:53:06.999Z</time></trkpt><trkpt lat="51.23690015019863" lon="5.119215120917076"><ele>25.0</ele><time>2026-04-06T10:53:07.999Z</time></trkpt><trkpt lat="51.23691829156995" lon="5.1194042324681"><ele>25.0</ele><time>2026-04-06T10:53:09Z</time></trkpt><trkpt lat="51.23693653833308" lon="5.119597356985255"><ele>25.0</ele><time>2026-04-06T10:53:10Z</time></trkpt><trkpt lat="51.23695351259279" lon="5.119793695532147"><ele>25.0</ele><time>2026-04-06T10:53:11Z</time></trkpt><trkpt lat="51.23697046034263" lon="5.119990462391053"><ele>25.0</ele><time>2026-04-06T10:53:12Z</time></trkpt><trkpt lat="51.23698862178718" lon="5.1201889108357115"><ele>25.0</ele><time>2026-04-06T10:53:13Z</time></trkpt><trkpt lat="51.237005141645184" lon="5.120388971499027"><ele>25.0</ele><time>2026-04-06T10:53:14Z</time></trkpt><trkpt lat="51.23702279441204" lon="5.120587203303964"><ele>25.0</ele><time>2026-04-06T10:53:15Z</time></trkpt><trkpt lat="51.23703828629214" lon="5.120782484572153"><ele>25.0</ele><time>2026-04-06T10:53:16Z</time></trkpt><trkpt lat="51.237054146327715" lon="5.120976585882107"><ele>25.0</ele><time>2026-04-06T10:53:17Z</time></trkpt><trkpt lat="51.23707084254396" lon="5.121169816693563"><ele>25.0</ele><time>2026-04-06T10:53:18Z</time></trkpt><trkpt lat="51.2370872824338" lon="5.121364020707235"><ele>25.0</ele><time>2026-04-06T10:53:19Z</time></trkpt><trkpt lat="51.23710496198155" lon="5.121559434661172"><ele>25.0</ele><time>2026-04-06T10:53:20Z</time></trkpt><trkpt lat="51.237123333899135" lon="5.121755165503257"><ele>25.0</ele><time>2026-04-06T10:53:21Z</time></trkpt><trkpt lat="51.237142903237185" lon="5.121956442339882"><ele>25.0</ele><time>2026-04-06T10:53:22Z</time></trkpt><trkpt lat="51.237161910517656" lon="5.122158973105179"><ele>25.0</ele><time>2026-04-06T10:53:23Z</time></trkpt><trkpt lat="51.23718488521785" lon="5.122363617453726"><ele>24.75</ele><time>2026-04-06T10:53:24Z</time></trkpt><trkpt lat="51.23721146365045" lon="5.122564781738487"><ele>24.5</ele><time>2026-04-06T10:53:25Z</time></trkpt><trkpt lat="51.23723801494263" lon="5.122762711138662"><ele>24.25</ele><time>2026-04-06T10:53:26Z</time></trkpt><trkpt lat="51.23726317039381" lon="5.122957517320235"><ele>24.0</ele><time>2026-04-06T10:53:27Z</time></trkpt><trkpt lat="51.237287970992696" lon="5.12315142081865"><ele>24.25</ele><time>2026-04-06T10:53:28Z</time></trkpt><trkpt lat="51.23731197652683" lon="5.123342004948715"><ele>24.5</ele><time>2026-04-06T10:53:29Z</time></trkpt><trkpt lat="51.23733651712453" lon="5.1235324047887465"><ele>24.75</ele><time>2026-04-06T10:53:30Z</time></trkpt><trkpt lat="51.237360532365194" lon="5.123720405110909"><ele>25.0</ele><time>2026-04-06T10:53:31Z</time></trkpt><trkpt lat="51.2373875622718" lon="5.12390765158171"><ele>24.75</ele><time>2026-04-06T10:53:32Z</time></trkpt><trkpt lat="51.237411105996" lon="5.124095497037322"><ele>24.5</ele><time>2026-04-06T10:53:33Z</time></trkpt><trkpt lat="51.237436128903" lon="5.124281942219556"><ele>24.25</ele><time>2026-04-06T10:53:34Z</time></trkpt><trkpt lat="51.23746708636163" lon="5.124468447288032"><ele>24.0</ele><time>2026-04-06T10:53:35Z</time></trkpt><trkpt lat="51.23750586978656" lon="5.1246527077468595"><ele>24.0</ele><time>2026-04-06T10:53:36Z</time></trkpt><trkpt lat="51.23755305892957" lon="5.124831876715179"><ele>24.0</ele><time>2026-04-06T10:53:37Z</time></trkpt><trkpt lat="51.237608324885905" lon="5.125008048256059"><ele>24.0</ele><time>2026-04-06T10:53:38Z</time></trkpt><trkpt lat="51.2376716685462" lon="5.125180127023447"><ele>24.0</ele><time>2026-04-06T10:53:39Z</time></trkpt><trkpt lat="51.237740160120296" lon="5.1253485766890075"><ele>24.0</ele><time>2026-04-06T10:53:40Z</time></trkpt><trkpt lat="51.23780885570374" lon="5.125520107989249"><ele>24.0</ele><time>2026-04-06T10:53:41Z</time></trkpt><trkpt lat="51.23787735516047" lon="5.125692295205753"><ele>24.0</ele><time>2026-04-06T10:53:42Z</time></trkpt><trkpt lat="51.23794380906319" lon="5.125862580755156"><ele>24.0</ele><time>2026-04-06T10:53:43Z</time></trkpt><trkpt lat="51.23801044205846" lon="5.126030476275496"><ele>24.0</ele><time>2026-04-06T10:53:44Z</time></trkpt><trkpt lat="51.23807622103323" lon="5.126197942421008"><ele>24.0</ele><time>2026-04-06T10:53:45Z</time></trkpt><trkpt lat="51.238141787075506" lon="5.126364628837654"><ele>24.0</ele><time>2026-04-06T10:53:46Z</time></trkpt><trkpt lat="51.23820643915101" lon="5.1265298098663274"><ele>24.0</ele><time>2026-04-06T10:53:47Z</time></trkpt><trkpt lat="51.238271217410784" lon="5.126693773676886"><ele>24.25</ele><time>2026-04-06T10:53:48Z</time></trkpt><trkpt lat="51.238335928583794" lon="5.126857858604801"><ele>24.5</ele><time>2026-04-06T10:53:49Z</time></trkpt><trkpt lat="51.2383995435978" lon="5.1270212297876325"><ele>24.75</ele><time>2026-04-06T10:53:50Z</time></trkpt><trkpt lat="51.23846321226335" lon="5.127183673748067"><ele>25.0</ele><time>2026-04-06T10:53:51Z</time></trkpt><trkpt lat="51.2385270488782" lon="5.127347094853131"><ele>25.0</ele><time>2026-04-06T10:53:52Z</time></trkpt><trkpt lat="51.238590011395104" lon="5.127509819462827"><ele>25.0</ele><time>2026-04-06T10:53:53Z</time></trkpt><trkpt lat="51.23865354783251" lon="5.127672948137986"><ele>25.0</ele><time>2026-04-06T10:53:54Z</time></trkpt><trkpt lat="51.23871818318831" lon="5.127838174632351"><ele>25.0</ele><time>2026-04-06T10:53:55Z</time></trkpt><trkpt lat="51.23878274501358" lon="5.128003384948164"><ele>25.0</ele><time>2026-04-06T10:53:56Z</time></trkpt><trkpt lat="51.238847947254555" lon="5.128170825139516"><ele>25.0</ele><time>2026-04-06T10:53:57Z</time></trkpt><trkpt lat="51.23891347484357" lon="5.128338337710947"><ele>25.0</ele><time>2026-04-06T10:53:58Z</time></trkpt><trkpt lat="51.23898004215712" lon="5.12850660956277"><ele>25.0</ele><time>2026-04-06T10:53:59Z</time></trkpt><trkpt lat="51.23904667066453" lon="5.128676372751678"><ele>25.0</ele><time>2026-04-06T10:54:00Z</time></trkpt><trkpt lat="51.23911342477834" lon="5.128846559541747"><ele>25.0</ele><time>2026-04-06T10:54:01Z</time></trkpt><trkpt lat="51.239178562490494" lon="5.129019648662346"><ele>25.0</ele><time>2026-04-06T10:54:02Z</time></trkpt><trkpt lat="51.23924071568305" lon="5.129198582016098"><ele>25.0</ele><time>2026-04-06T10:54:03Z</time></trkpt><trkpt lat="51.23929545441879" lon="5.1293829980604535"><ele>25.5</ele><time>2026-04-06T10:54:04Z</time></trkpt><trkpt lat="51.23934475718906" lon="5.129574556573542"><ele>26.0</ele><time>2026-04-06T10:54:05Z</time></trkpt><trkpt lat="51.23938990104285" lon="5.129769414516757"><ele>26.5</ele><time>2026-04-06T10:54:06Z</time></trkpt><trkpt lat="51.239433089124404" lon="5.129964774765774"><ele>27.0</ele><time>2026-04-06T10:54:07Z</time></trkpt><trkpt lat="51.23947656416005" lon="5.130158594698972"><ele>27.0</ele><time>2026-04-06T10:54:08Z</time></trkpt><trkpt lat="51.23951956866971" lon="5.130350350640377"><ele>27.0</ele><time>2026-04-06T10:54:09Z</time></trkpt><trkpt lat="51.23956147444914" lon="5.13054064245417"><ele>27.0</ele><time>2026-04-06T10:54:10Z</time></trkpt><trkpt lat="51.239602345441234" lon="5.130730530573717"><ele>27.0</ele><time>2026-04-06T10:54:11Z</time></trkpt><trkpt lat="51.239638673222125" lon="5.130919844846626"><ele>26.75</ele><time>2026-04-06T10:54:12Z</time></trkpt><trkpt lat="51.239669779827935" lon="5.1311097827434455"><ele>26.5</ele><time>2026-04-06T10:54:13Z</time></trkpt><trkpt lat="51.23969605984884" lon="5.131301163479868"><ele>26.25</ele><time>2026-04-06T10:54:14Z</time></trkpt><trkpt lat="51.239719003772635" lon="5.131496212075825"><ele>26.0</ele><time>2026-04-06T10:54:15Z</time></trkpt><trkpt lat="51.23974096041814" lon="5.131692794614294"><ele>25.75</ele><time>2026-04-06T10:54:16Z</time></trkpt><trkpt lat="51.23976251479683" lon="5.131890375886874"><ele>25.5</ele><time>2026-04-06T10:54:17Z</time></trkpt><trkpt lat="51.23978477041804" lon="5.132090086433472"><ele>25.25</ele><time>2026-04-06T10:54:18Z</time></trkpt><trkpt lat="51.23980572856986" lon="5.132290288143602"><ele>25.0</ele><time>2026-04-06T10:54:18.999Z</time></trkpt><trkpt lat="51.239826357668726" lon="5.132493101988153"><ele>25.5</ele><time>2026-04-06T10:54:19.999Z</time></trkpt><trkpt lat="51.23984770642994" lon="5.132695942122786"><ele>26.0</ele><time>2026-04-06T10:54:20.999Z</time></trkpt><trkpt lat="51.23986912319723" lon="5.132898992303206"><ele>26.5</ele><time>2026-04-06T10:54:21.999Z</time></trkpt><trkpt lat="51.239891786732585" lon="5.133101715094428"><ele>27.0</ele><time>2026-04-06T10:54:22.999Z</time></trkpt><trkpt lat="51.23991406838582" lon="5.133302909865454"><ele>27.0</ele><time>2026-04-06T10:54:23.999Z</time></trkpt><trkpt lat="51.239934633005724" lon="5.133500578677407"><ele>27.0</ele><time>2026-04-06T10:54:24.999Z</time></trkpt><trkpt lat="51.239953835141456" lon="5.133691203827667"><ele>27.0</ele><time>2026-04-06T10:54:25.999Z</time></trkpt><trkpt lat="51.23997361393504" lon="5.133879448621023"><ele>27.0</ele><time>2026-04-06T10:54:26.999Z</time></trkpt><trkpt lat="51.23999393780576" lon="5.134068398867897"><ele>27.25</ele><time>2026-04-06T10:54:27.999Z</time></trkpt><trkpt lat="51.240014867794706" lon="5.134259051954314"><ele>27.5</ele><time>2026-04-06T10:54:28.999Z</time></trkpt><trkpt lat="51.24003578733777" lon="5.134451073786554"><ele>27.75</ele><time>2026-04-06T10:54:29.999Z</time></trkpt><trkpt lat="51.24005666771191" lon="5.134646446028792"><ele>28.0</ele><time>2026-04-06T10:54:30.999Z</time></trkpt><trkpt lat="51.2400775303002" lon="5.134842824897771"><ele>27.75</ele><time>2026-04-06T10:54:31.999Z</time></trkpt><trkpt lat="51.240098721915054" lon="5.13504029476506"><ele>27.5</ele><time>2026-04-06T10:54:32.999Z</time></trkpt><trkpt lat="51.24012060241681" lon="5.135240556038514"><ele>27.25</ele><time>2026-04-06T10:54:33.999Z</time></trkpt><trkpt lat="51.240142236815416" lon="5.1354413935789305"><ele>27.0</ele><time>2026-04-06T10:54:34.999Z</time></trkpt><trkpt lat="51.24016423020437" lon="5.135644483148205"><ele>26.75</ele><time>2026-04-06T10:54:35.999Z</time></trkpt><trkpt lat="51.24018544181664" lon="5.13584787422073"><ele>26.5</ele><time>2026-04-06T10:54:36.999Z</time></trkpt><trkpt lat="51.24020683164765" lon="5.136050404230339"><ele>26.25</ele><time>2026-04-06T10:54:37.999Z</time></trkpt><trkpt lat="51.24023033871078" lon="5.136254337877464"><ele>26.0</ele><time>2026-04-06T10:54:38.999Z</time></trkpt><trkpt lat="51.24025180860087" lon="5.136456222548838"><ele>26.0</ele><time>2026-04-06T10:54:39.999Z</time></trkpt><trkpt lat="51.240273855681814" lon="5.136656785347097"><ele>26.0</ele><time>2026-04-06T10:54:40.999Z</time></trkpt><trkpt lat="51.240295766602785" lon="5.136856495102153"><ele>26.0</ele><time>2026-04-06T10:54:41.999Z</time></trkpt><trkpt lat="51.24031745567229" lon="5.137055238392689"><ele>26.0</ele><time>2026-04-06T10:54:42.999Z</time></trkpt><trkpt lat="51.24033817961329" lon="5.137253239042488"><ele>26.0</ele><time>2026-04-06T10:54:43.999Z</time></trkpt><trkpt lat="51.24035737877596" lon="5.137449039100117"><ele>26.0</ele><time>2026-04-06T10:54:44.999Z</time></trkpt><trkpt lat="51.24037330997078" lon="5.137641156756509"><ele>26.0</ele><time>2026-04-06T10:54:45.999Z</time></trkpt><trkpt lat="51.240384762741385" lon="5.137830037393715"><ele>26.0</ele><time>2026-04-06T10:54:46.999Z</time></trkpt><trkpt lat="51.240394041494966" lon="5.138018114522226"><ele>26.0</ele><time>2026-04-06T10:54:47.999Z</time></trkpt><trkpt lat="51.240401049437665" lon="5.138206783898227"><ele>26.0</ele><time>2026-04-06T10:54:48.999Z</time></trkpt><trkpt lat="51.240405744694364" lon="5.1383947694922085"><ele>26.0</ele><time>2026-04-06T10:54:49.999Z</time></trkpt><trkpt lat="51.240410055319565" lon="5.1385818263339145"><ele>26.0</ele><time>2026-04-06T10:54:50.999Z</time></trkpt><trkpt lat="51.240413754614124" lon="5.138773627544061"><ele>26.0</ele><time>2026-04-06T10:54:51.999Z</time></trkpt><trkpt lat="51.240417262777335" lon="5.138968685698589"><ele>26.0</ele><time>2026-04-06T10:54:52.999Z</time></trkpt><trkpt lat="51.240421124878246" lon="5.139164492957761"><ele>26.0</ele><time>2026-04-06T10:54:53.999Z</time></trkpt><trkpt lat="51.24042635691327" lon="5.139362708555322"><ele>26.0</ele><time>2026-04-06T10:54:54.999Z</time></trkpt><trkpt lat="51.240429925712895" lon="5.139562622009322"><ele>26.0</ele><time>2026-04-06T10:54:55.999Z</time></trkpt><trkpt lat="51.240434490450376" lon="5.139762708392788"><ele>26.0</ele><time>2026-04-06T10:54:56.999Z</time></trkpt><trkpt lat="51.24043818474726" lon="5.139963023043563"><ele>26.0</ele><time>2026-04-06T10:54:57.999Z</time></trkpt><trkpt lat="51.240442170538735" lon="5.140163711558537"><ele>26.0</ele><time>2026-04-06T10:54:58.999Z</time></trkpt><trkpt lat="51.24044535387949" lon="5.140360074562844"><ele>26.25</ele><time>2026-04-06T10:54:59.999Z</time></trkpt><trkpt lat="51.240450388199875" lon="5.140553983393522"><ele>26.5</ele><time>2026-04-06T10:55:00.999Z</time></trkpt><trkpt lat="51.240454555248384" lon="5.140746412531359"><ele>26.75</ele><time>2026-04-06T10:55:01.999Z</time></trkpt><trkpt lat="51.240458577105144" lon="5.140935512817286"><ele>27.0</ele><time>2026-04-06T10:55:02.999Z</time></trkpt><trkpt lat="51.2404614812594" lon="5.141123708365762"><ele>27.0</ele><time>2026-04-06T10:55:03.999Z</time></trkpt><trkpt lat="51.240464507868516" lon="5.141309789951371"><ele>27.0</ele><time>2026-04-06T10:55:04.999Z</time></trkpt><trkpt lat="51.240466999921004" lon="5.141494779420968"><ele>27.0</ele><time>2026-04-06T10:55:06Z</time></trkpt><trkpt lat="51.24046961924632" lon="5.141679402705773"><ele>27.0</ele><time>2026-04-06T10:55:07Z</time></trkpt><trkpt lat="51.24047255436899" lon="5.141862777364834"><ele>27.0</ele><time>2026-04-06T10:55:08Z</time></trkpt><trkpt lat="51.24047734289483" lon="5.142045564208596"><ele>27.0</ele><time>2026-04-06T10:55:09Z</time></trkpt><trkpt lat="51.24048136499029" lon="5.142229615026725"><ele>27.0</ele><time>2026-04-06T10:55:10Z</time></trkpt><trkpt lat="51.240484762382835" lon="5.14241143836807"><ele>27.0</ele><time>2026-04-06T10:55:11Z</time></trkpt><trkpt lat="51.2404885738454" lon="5.1425936488582655"><ele>27.25</ele><time>2026-04-06T10:55:12Z</time></trkpt><trkpt lat="51.24049163878594" lon="5.1427760942887595"><ele>27.5</ele><time>2026-04-06T10:55:13Z</time></trkpt><trkpt lat="51.240494687730255" lon="5.142959267600401"><ele>27.75</ele><time>2026-04-06T10:55:14Z</time></trkpt><trkpt lat="51.24049938756498" lon="5.1431433240035425"><ele>28.0</ele><time>2026-04-06T10:55:15Z</time></trkpt><trkpt lat="51.2405039322953" lon="5.1433285413152765"><ele>28.0</ele><time>2026-04-06T10:55:16Z</time></trkpt><trkpt lat="51.24050928317315" lon="5.1435143222885324"><ele>28.0</ele><time>2026-04-06T10:55:17Z</time></trkpt><trkpt lat="51.240514629362046" lon="5.14370003447662"><ele>28.0</ele><time>2026-04-06T10:55:18Z</time></trkpt><trkpt lat="51.24051866845715" lon="5.143887111685816"><ele>28.0</ele><time>2026-04-06T10:55:19Z</time></trkpt><trkpt lat="51.240521831284546" lon="5.144073903380973"><ele>28.0</ele><time>2026-04-06T10:55:20Z</time></trkpt><trkpt lat="51.240524385860404" lon="5.144260940171283"><ele>27.999999999999996</ele><time>2026-04-06T10:55:21Z</time></trkpt><trkpt lat="51.24052682767317" lon="5.144449095337446"><ele>27.999999999999996</ele><time>2026-04-06T10:55:22Z</time></trkpt><trkpt lat="51.24052913751981" lon="5.144627127065729"><ele>28.0</ele><time>2026-04-06T10:55:23Z</time></trkpt><trkpt lat="51.24053063774318" lon="5.144791232480694"><ele>28.0</ele><time>2026-04-06T10:55:24Z</time></trkpt><trkpt lat="51.24053117886299" lon="5.1449432659765995"><ele>28.0</ele><time>2026-04-06T10:55:25Z</time></trkpt><trkpt lat="51.240527008622465" lon="5.145087520106175"><ele>27.999999999999996</ele><time>2026-04-06T10:55:26Z</time></trkpt><trkpt lat="51.24051802931166" lon="5.145237373895531"><ele>27.999999999999996</ele><time>2026-04-06T10:55:27Z</time></trkpt><trkpt lat="51.240508280730026" lon="5.145399522600344"><ele>28.0</ele><time>2026-04-06T10:55:28Z</time></trkpt><trkpt lat="51.2404936095875" lon="5.1455625266375415"><ele>28.0</ele><time>2026-04-06T10:55:29Z</time></trkpt><trkpt lat="51.240479965285516" lon="5.1457267788740975"><ele>28.0</ele><time>2026-04-06T10:55:30Z</time></trkpt><trkpt lat="51.24046718864103" lon="5.145892939880268"><ele>27.999999999999996</ele><time>2026-04-06T10:55:31Z</time></trkpt><trkpt lat="51.240453965860965" lon="5.14606160462774"><ele>27.999999999999996</ele><time>2026-04-06T10:55:32Z</time></trkpt><trkpt lat="51.240441068244735" lon="5.146229643318733"><ele>28.0</ele><time>2026-04-06T10:55:33Z</time></trkpt><trkpt lat="51.24042714339553" lon="5.146401992465631"><ele>28.0</ele><time>2026-04-06T10:55:34Z</time></trkpt><trkpt lat="51.24041160828768" lon="5.146574548111418"><ele>27.799999999999997</ele><time>2026-04-06T10:55:35Z</time></trkpt><trkpt lat="51.240397116355325" lon="5.146747551984047"><ele>27.599999999999998</ele><time>2026-04-06T10:55:36Z</time></trkpt><trkpt lat="51.24038399939383" lon="5.146922313168817"><ele>27.400000000000002</ele><time>2026-04-06T10:55:37Z</time></trkpt><trkpt lat="51.24036932905192" lon="5.147098022449415"><ele>27.200000000000003</ele><time>2026-04-06T10:55:38Z</time></trkpt><trkpt lat="51.24035449628795" lon="5.147276597730935"><ele>27.0</ele><time>2026-04-06T10:55:39Z</time></trkpt><trkpt lat="51.24034189791451" lon="5.147453671311677"><ele>27.0</ele><time>2026-04-06T10:55:40Z</time></trkpt><trkpt lat="51.240328440873" lon="5.147626209713654"><ele>27.000000000000004</ele><time>2026-04-06T10:55:41Z</time></trkpt><trkpt lat="51.240316092199585" lon="5.147788132182769"><ele>27.000000000000004</ele><time>2026-04-06T10:55:42Z</time></trkpt><trkpt lat="51.24030378503953" lon="5.147951656345078"><ele>27.0</ele><time>2026-04-06T10:55:43Z</time></trkpt><trkpt lat="51.240291878736656" lon="5.148114265601185"><ele>27.0</ele><time>2026-04-06T10:55:44Z</time></trkpt><trkpt lat="51.240280209494266" lon="5.148276102524828"><ele>27.0</ele><time>2026-04-06T10:55:45Z</time></trkpt><trkpt lat="51.240268037687535" lon="5.148426879163374"><ele>27.000000000000004</ele><time>2026-04-06T10:55:46Z</time></trkpt><trkpt lat="51.24025626465083" lon="5.148566372589898"><ele>27.000000000000004</ele><time>2026-04-06T10:55:47Z</time></trkpt><trkpt lat="51.240242733092614" lon="5.148723096847419"><ele>27.0</ele><time>2026-04-06T10:55:48Z</time></trkpt><trkpt lat="51.240233215849024" lon="5.148887385435388"><ele>27.0</ele><time>2026-04-06T10:55:49Z</time></trkpt><trkpt lat="51.24021978145399" lon="5.149064419294907"><ele>27.0</ele><time>2026-04-06T10:55:50Z</time></trkpt><trkpt lat="51.24021028652768" lon="5.149251612960451"><ele>27.0</ele><time>2026-04-06T10:55:51Z</time></trkpt><trkpt lat="51.2402033739516" lon="5.149439598215536"><ele>27.0</ele><time>2026-04-06T10:55:52Z</time></trkpt><trkpt lat="51.24019872921561" lon="5.149631656986009"><ele>27.0</ele><time>2026-04-06T10:55:53Z</time></trkpt><trkpt lat="51.24019963039217" lon="5.149824265278901"><ele>27.0</ele><time>2026-04-06T10:55:54Z</time></trkpt><trkpt lat="51.24020305784821" lon="5.150019545283289"><ele>27.0</ele><time>2026-04-06T10:55:55Z</time></trkpt><trkpt lat="51.24021044502833" lon="5.150215790015106"><ele>27.0</ele><time>2026-04-06T10:55:56Z</time></trkpt><trkpt lat="51.24022048404679" lon="5.150414193306656"><ele>27.0</ele><time>2026-04-06T10:55:57Z</time></trkpt><trkpt lat="51.2402308532582" lon="5.150611441553492"><ele>27.25</ele><time>2026-04-06T10:55:58Z</time></trkpt><trkpt lat="51.24024257899789" lon="5.150811185106789"><ele>27.5</ele><time>2026-04-06T10:55:59Z</time></trkpt><trkpt lat="51.2402540287174" lon="5.15101005256936"><ele>27.75</ele><time>2026-04-06T10:56:00Z</time></trkpt><trkpt lat="51.24026590675744" lon="5.151209904606329"><ele>28.0</ele><time>2026-04-06T10:56:01Z</time></trkpt><trkpt lat="51.24027858039514" lon="5.151412187358934"><ele>28.25</ele><time>2026-04-06T10:56:02Z</time></trkpt><trkpt lat="51.240288838708324" lon="5.151612798162923"><ele>28.5</ele><time>2026-04-06T10:56:03Z</time></trkpt><trkpt lat="51.24029921393259" lon="5.151815090013903"><ele>28.75</ele><time>2026-04-06T10:56:04Z</time></trkpt><trkpt lat="51.24030751015444" lon="5.152016618317118"><ele>29.0</ele><time>2026-04-06T10:56:05Z</time></trkpt><trkpt lat="51.240317439866224" lon="5.1522183124897625"><ele>28.75</ele><time>2026-04-06T10:56:06Z</time></trkpt><trkpt lat="51.2403278409706" lon="5.152419505253401"><ele>28.5</ele><time>2026-04-06T10:56:07Z</time></trkpt><trkpt lat="51.240338208934524" lon="5.152623028015663"><ele>28.25</ele><time>2026-04-06T10:56:08Z</time></trkpt><trkpt lat="51.24034796156552" lon="5.152825135520973"><ele>28.0</ele><time>2026-04-06T10:56:09Z</time></trkpt><trkpt lat="51.24035940283384" lon="5.153028761463315"><ele>28.0</ele><time>2026-04-06T10:56:10Z</time></trkpt><trkpt lat="51.24037124314133" lon="5.153231946505321"><ele>28.0</ele><time>2026-04-06T10:56:11Z</time></trkpt><trkpt lat="51.24038229535165" lon="5.153433880917538"><ele>28.0</ele><time>2026-04-06T10:56:12Z</time></trkpt><trkpt lat="51.24039325923596" lon="5.153635735086319"><ele>28.0</ele><time>2026-04-06T10:56:13Z</time></trkpt><trkpt lat="51.24040398633134" lon="5.1538399928598695"><ele>28.25</ele><time>2026-04-06T10:56:14Z</time></trkpt><trkpt lat="51.24041652740027" lon="5.154041494898208"><ele>28.5</ele><time>2026-04-06T10:56:15Z</time></trkpt><trkpt lat="51.24042591354442" lon="5.154245182091518"><ele>28.75</ele><time>2026-04-06T10:56:16Z</time></trkpt><trkpt lat="51.24043378941074" lon="5.154448231808603"><ele>29.0</ele><time>2026-04-06T10:56:17Z</time></trkpt><trkpt lat="51.24044293130609" lon="5.154647598617096"><ele>29.0</ele><time>2026-04-06T10:56:18Z</time></trkpt><trkpt lat="51.240453746819306" lon="5.154848269021553"><ele>29.0</ele><time>2026-04-06T10:56:19Z</time></trkpt><trkpt lat="51.24046493446182" lon="5.1550476863349886"><ele>29.0</ele><time>2026-04-06T10:56:20Z</time></trkpt><trkpt lat="51.240474772401065" lon="5.155250744947057"><ele>29.0</ele><time>2026-04-06T10:56:21Z</time></trkpt><trkpt lat="51.240485855888124" lon="5.155452188283382"><ele>29.0</ele><time>2026-04-06T10:56:22Z</time></trkpt><trkpt lat="51.2404960894719" lon="5.155657886155001"><ele>29.0</ele><time>2026-04-06T10:56:23Z</time></trkpt><trkpt lat="51.240507862927544" lon="5.155864831044189"><ele>29.0</ele><time>2026-04-06T10:56:24Z</time></trkpt><trkpt lat="51.24051951503024" lon="5.156072039674871"><ele>29.0</ele><time>2026-04-06T10:56:25Z</time></trkpt><trkpt lat="51.24053193880522" lon="5.156274809209271"><ele>29.0</ele><time>2026-04-06T10:56:26Z</time></trkpt><trkpt lat="51.24054449562189" lon="5.156480238107054"><ele>29.0</ele><time>2026-04-06T10:56:27Z</time></trkpt><trkpt lat="51.24055587569642" lon="5.156686489718823"><ele>29.0</ele><time>2026-04-06T10:56:28Z</time></trkpt><trkpt lat="51.2405678052219" lon="5.156888503362981"><ele>29.0</ele><time>2026-04-06T10:56:29Z</time></trkpt><trkpt lat="51.240580807450854" lon="5.157092602068117"><ele>29.0</ele><time>2026-04-06T10:56:30Z</time></trkpt><trkpt lat="51.2405938374605" lon="5.157297280640523"><ele>29.0</ele><time>2026-04-06T10:56:31Z</time></trkpt><trkpt lat="51.24060883273937" lon="5.157497621348176"><ele>29.0</ele><time>2026-04-06T10:56:32Z</time></trkpt><trkpt lat="51.24062688721911" lon="5.157702395803746"><ele>29.0</ele><time>2026-04-06T10:56:33Z</time></trkpt><trkpt lat="51.24064626453646" lon="5.157906996108237"><ele>29.5</ele><time>2026-04-06T10:56:34Z</time></trkpt><trkpt lat="51.2406659008532" lon="5.158117468964644"><ele>30.0</ele><time>2026-04-06T10:56:35Z</time></trkpt><trkpt lat="51.2406899632524" lon="5.158338292901817"><ele>30.5</ele><time>2026-04-06T10:56:36Z</time></trkpt><trkpt lat="51.2407105707948" lon="5.158571979995134"><ele>31.0</ele><time>2026-04-06T10:56:37Z</time></trkpt><trkpt lat="51.24073445412854" lon="5.15882038165607"><ele>31.333333333333336</ele><time>2026-04-06T10:56:38Z</time></trkpt><trkpt lat="51.240761238864394" lon="5.159088541422142"><ele>31.666666666666664</ele><time>2026-04-06T10:56:39Z</time></trkpt><trkpt lat="51.24079290280124" lon="5.159379610432027"><ele>32.0</ele><time>2026-04-06T10:56:40Z</time></trkpt><trkpt lat="51.24082711236501" lon="5.1596718234049"><ele>32.0</ele><time>2026-04-06T10:56:41Z</time></trkpt><trkpt lat="51.24086389986232" lon="5.159957228913126"><ele>32.0</ele><time>2026-04-06T10:56:42Z</time></trkpt><trkpt lat="51.24090120054153" lon="5.160236351708349"><ele>32.0</ele><time>2026-04-06T10:56:43Z</time></trkpt><trkpt lat="51.240938259184254" lon="5.160511717894989"><ele>31.666666666666664</ele><time>2026-04-06T10:56:44Z</time></trkpt><trkpt lat="51.24097386012922" lon="5.16078252766461"><ele>31.333333333333336</ele><time>2026-04-06T10:56:45Z</time></trkpt><trkpt lat="51.241007589756954" lon="5.161050752258668"><ele>31.0</ele><time>2026-04-06T10:56:46Z</time></trkpt><trkpt lat="51.241041797836004" lon="5.16131599725448"><ele>30.666666666666668</ele><time>2026-04-06T10:56:47Z</time></trkpt><trkpt lat="51.24107717283717" lon="5.161580995646138"><ele>30.333333333333336</ele><time>2026-04-06T10:56:48Z</time></trkpt><trkpt lat="51.241112722381324" lon="5.161843956843757"><ele>30.0</ele><time>2026-04-06T10:56:49Z</time></trkpt><trkpt lat="51.24114783698838" lon="5.162105573914855"><ele>30.666666666666664</ele><time>2026-04-06T10:56:50Z</time></trkpt><trkpt lat="51.24117772361337" lon="5.162367745716386"><ele>31.333333333333332</ele><time>2026-04-06T10:56:51Z</time></trkpt><trkpt lat="51.24121329164889" lon="5.162623981111676"><ele>32.0</ele><time>2026-04-06T10:56:52Z</time></trkpt><trkpt lat="51.241246192015765" lon="5.162879897298243"><ele>32.0</ele><time>2026-04-06T10:56:53Z</time></trkpt><trkpt lat="51.241278104660886" lon="5.163136052815088"><ele>32.0</ele><time>2026-04-06T10:56:54Z</time></trkpt><trkpt lat="51.24131228148947" lon="5.1633863869198455"><ele>32.0</ele><time>2026-04-06T10:56:55Z</time></trkpt><trkpt lat="51.24134569155556" lon="5.163642145378496"><ele>32.0</ele><time>2026-04-06T10:56:56Z</time></trkpt><trkpt lat="51.24137992015638" lon="5.163904571420336"><ele>32.0</ele><time>2026-04-06T10:56:57Z</time></trkpt><trkpt lat="51.24141499498875" lon="5.164172998072776"><ele>32.0</ele><time>2026-04-06T10:56:58Z</time></trkpt><trkpt lat="51.24145057295654" lon="5.164446574691148"><ele>32.0</ele><time>2026-04-06T10:56:59Z</time></trkpt><trkpt lat="51.24148600707094" lon="5.164723802909031"><ele>32.0</ele><time>2026-04-06T10:57:00Z</time></trkpt><trkpt lat="51.24152288063415" lon="5.16499752286134"><ele>32.0</ele><time>2026-04-06T10:57:01Z</time></trkpt><trkpt lat="51.24156356756338" lon="5.165270558825919"><ele>32.0</ele><time>2026-04-06T10:57:02Z</time></trkpt><trkpt lat="51.24160782895879" lon="5.165538656566557"><ele>32.0</ele><time>2026-04-06T10:57:03Z</time></trkpt><trkpt lat="51.24165429826271" lon="5.16580355147986"><ele>32.0</ele><time>2026-04-06T10:57:04Z</time></trkpt><trkpt lat="51.24170053360822" lon="5.166063275355907"><ele>32.33333333333333</ele><time>2026-04-06T10:57:05Z</time></trkpt><trkpt lat="51.24174845236135" lon="5.1663209974759505"><ele>32.666666666666664</ele><time>2026-04-06T10:57:06Z</time></trkpt><trkpt lat="51.24179351250197" lon="5.16657917385701"><ele>33.0</ele><time>2026-04-06T10:57:07Z</time></trkpt><trkpt lat="51.24184014707061" lon="5.166845067375889"><ele>33.0</ele><time>2026-04-06T10:57:08Z</time></trkpt><trkpt lat="51.24188755775883" lon="5.167113280391314"><ele>33.0</ele><time>2026-04-06T10:57:09Z</time></trkpt><trkpt lat="51.24193443265948" lon="5.167388347570074"><ele>33.0</ele><time>2026-04-06T10:57:10Z</time></trkpt><trkpt lat="51.241984677649185" lon="5.167662159007615"><ele>32.333333333333336</ele><time>2026-04-06T10:57:11Z</time></trkpt><trkpt lat="51.24203081108443" lon="5.167941129105094"><ele>31.666666666666668</ele><time>2026-04-06T10:57:12Z</time></trkpt><trkpt lat="51.24207778744669" lon="5.168223028963475"><ele>31.0</ele><time>2026-04-06T10:57:13Z</time></trkpt><trkpt lat="51.24212567764168" lon="5.168503534294431"><ele>30.333333333333336</ele><time>2026-04-06T10:57:14Z</time></trkpt><trkpt lat="51.24217379144355" lon="5.168784699169511"><ele>29.666666666666664</ele><time>2026-04-06T10:57:15Z</time></trkpt><trkpt lat="51.242221403027024" lon="5.169066526445253"><ele>29.0</ele><time>2026-04-06T10:57:16Z</time></trkpt><trkpt lat="51.24226803783864" lon="5.169346999467419"><ele>29.666666666666664</ele><time>2026-04-06T10:57:17Z</time></trkpt><trkpt lat="51.24231420089026" lon="5.169624296403431"><ele>30.333333333333336</ele><time>2026-04-06T10:57:18Z</time></trkpt><trkpt lat="51.24236104983343" lon="5.169902884430038"><ele>31.0</ele><time>2026-04-06T10:57:19Z</time></trkpt><trkpt lat="51.242408322875725" lon="5.1701735353468345"><ele>31.0</ele><time>2026-04-06T10:57:20Z</time></trkpt><trkpt lat="51.24245536514686" lon="5.1704479217064945"><ele>31.0</ele><time>2026-04-06T10:57:21Z</time></trkpt><trkpt lat="51.24250072030683" lon="5.170717255141243"><ele>31.0</ele><time>2026-04-06T10:57:22Z</time></trkpt><trkpt lat="51.24254717688223" lon="5.170987311139466"><ele>31.0</ele><time>2026-04-06T10:57:23Z</time></trkpt><trkpt lat="51.24259335194289" lon="5.171255835137008"><ele>31.0</ele><time>2026-04-06T10:57:24Z</time></trkpt><trkpt lat="51.242639321422125" lon="5.1715258289911175"><ele>31.0</ele><time>2026-04-06T10:57:25Z</time></trkpt><trkpt lat="51.24268564365189" lon="5.171798121692826"><ele>31.0</ele><time>2026-04-06T10:57:26Z</time></trkpt><trkpt lat="51.24273159217815" lon="5.172065871282136"><ele>31.0</ele><time>2026-04-06T10:57:27Z</time></trkpt><trkpt lat="51.242776888166084" lon="5.172334425361175"><ele>31.0</ele><time>2026-04-06T10:57:28Z</time></trkpt><trkpt lat="51.24282198517859" lon="5.172605439586635"><ele>31.0</ele><time>2026-04-06T10:57:29Z</time></trkpt><trkpt lat="51.242867886922454" lon="5.172876886473626"><ele>31.0</ele><time>2026-04-06T10:57:30Z</time></trkpt><trkpt lat="51.24291358168456" lon="5.1731473573188795"><ele>31.0</ele><time>2026-04-06T10:57:31Z</time></trkpt><trkpt lat="51.24296002640922" lon="5.173420609234001"><ele>31.0</ele><time>2026-04-06T10:57:32Z</time></trkpt><trkpt lat="51.24300468247592" lon="5.173693182772396"><ele>31.0</ele><time>2026-04-06T10:57:33Z</time></trkpt><trkpt lat="51.24305114582779" lon="5.173966248554667"><ele>31.0</ele><time>2026-04-06T10:57:34Z</time></trkpt><trkpt lat="51.24309794035311" lon="5.1742399620560295"><ele>33.0</ele><time>2026-04-06T10:57:35Z</time></trkpt><trkpt lat="51.24314557086679" lon="5.174511584262767"><ele>35.0</ele><time>2026-04-06T10:57:36Z</time></trkpt><trkpt lat="51.24319120142806" lon="5.174781869417426"><ele>37.0</ele><time>2026-04-06T10:57:37Z</time></trkpt><trkpt lat="51.2432366356942" lon="5.175054690875792"><ele>37.333333333333336</ele><time>2026-04-06T10:57:38Z</time></trkpt><trkpt lat="51.243282388019566" lon="5.175322858549085"><ele>37.666666666666664</ele><time>2026-04-06T10:57:39Z</time></trkpt><trkpt lat="51.24332909297107" lon="5.175595967748958"><ele>38.0</ele><time>2026-04-06T10:57:40Z</time></trkpt><trkpt lat="51.243375820152266" lon="5.1758703502438"><ele>38.0</ele><time>2026-04-06T10:57:41Z</time></trkpt><trkpt lat="51.24342119413315" lon="5.176145212773415"><ele>38.0</ele><time>2026-04-06T10:57:42Z</time></trkpt><trkpt lat="51.243467407467335" lon="5.176417422586716"><ele>38.0</ele><time>2026-04-06T10:57:43Z</time></trkpt><trkpt lat="51.24351306728819" lon="5.176689288854162"><ele>38.0</ele><time>2026-04-06T10:57:44Z</time></trkpt><trkpt lat="51.243557841857964" lon="5.176962138074027"><ele>38.0</ele><time>2026-04-06T10:57:45Z</time></trkpt><trkpt lat="51.243601452864105" lon="5.177235309686385"><ele>38.0</ele><time>2026-04-06T10:57:46Z</time></trkpt><trkpt lat="51.243647099542805" lon="5.177504517591729"><ele>38.33333333333333</ele><time>2026-04-06T10:57:47Z</time></trkpt><trkpt lat="51.243693116177" lon="5.177773598926299"><ele>38.666666666666664</ele><time>2026-04-06T10:57:48Z</time></trkpt><trkpt lat="51.243740907772526" lon="5.178039624013917"><ele>39.0</ele><time>2026-04-06T10:57:49Z</time></trkpt><trkpt lat="51.24378644674155" lon="5.178306023819652"><ele>38.333333333333336</ele><time>2026-04-06T10:57:50Z</time></trkpt><trkpt lat="51.24383160304529" lon="5.178572239315216"><ele>37.66666666666667</ele><time>2026-04-06T10:57:51Z</time></trkpt><trkpt lat="51.243876092292545" lon="5.178839010482585"><ele>37.0</ele><time>2026-04-06T10:57:52Z</time></trkpt><trkpt lat="51.24392150664429" lon="5.179106554454079"><ele>37.333333333333336</ele><time>2026-04-06T10:57:53Z</time></trkpt><trkpt lat="51.243966486609814" lon="5.179373159727997"><ele>37.666666666666664</ele><time>2026-04-06T10:57:54Z</time></trkpt><trkpt lat="51.24400957862692" lon="5.179639874405835"><ele>38.0</ele><time>2026-04-06T10:57:55Z</time></trkpt><trkpt lat="51.24405412872088" lon="5.179905154354282"><ele>38.33333333333333</ele><time>2026-04-06T10:57:56Z</time></trkpt><trkpt lat="51.2440977817569" lon="5.180169507473676"><ele>38.666666666666664</ele><time>2026-04-06T10:57:57Z</time></trkpt><trkpt lat="51.244141744662926" lon="5.180432691768818"><ele>39.0</ele><time>2026-04-06T10:57:58Z</time></trkpt><trkpt lat="51.244185811112466" lon="5.180694449646576"><ele>39.0</ele><time>2026-04-06T10:57:59Z</time></trkpt><trkpt lat="51.24423305473528" lon="5.180955536048922"><ele>39.0</ele><time>2026-04-06T10:58:00Z</time></trkpt><trkpt lat="51.24427864840124" lon="5.181218838606731"><ele>39.0</ele><time>2026-04-06T10:58:01Z</time></trkpt><trkpt lat="51.24432236777999" lon="5.181482329638529"><ele>38.666666666666664</ele><time>2026-04-06T10:58:02Z</time></trkpt><trkpt lat="51.244364406632855" lon="5.181746526059758"><ele>38.33333333333333</ele><time>2026-04-06T10:58:03Z</time></trkpt><trkpt lat="51.24440669611078" lon="5.182010777247253"><ele>38.0</ele><time>2026-04-06T10:58:04Z</time></trkpt><trkpt lat="51.24445241134761" lon="5.182276653523989"><ele>37.0</ele><time>2026-04-06T10:58:05Z</time></trkpt><trkpt lat="51.24449649459229" lon="5.182540686381928"><ele>36.0</ele><time>2026-04-06T10:58:06Z</time></trkpt><trkpt lat="51.244543437967764" lon="5.182801791582828"><ele>35.0</ele><time>2026-04-06T10:58:07Z</time></trkpt><trkpt lat="51.24458979368667" lon="5.183069909382127"><ele>34.666666666666664</ele><time>2026-04-06T10:58:08Z</time></trkpt><trkpt lat="51.24462744844603" lon="5.1833370103632666"><ele>34.333333333333336</ele><time>2026-04-06T10:58:09Z</time></trkpt><trkpt lat="51.244679033041486" lon="5.183607944745957"><ele>34.0</ele><time>2026-04-06T10:58:10Z</time></trkpt><trkpt lat="51.24472283525874" lon="5.1838745606373875"><ele>34.66666666666667</ele><time>2026-04-06T10:58:11Z</time></trkpt><trkpt lat="51.244761782990835" lon="5.184132767518555"><ele>35.333333333333336</ele><time>2026-04-06T10:58:12Z</time></trkpt><trkpt lat="51.24480394049352" lon="5.1843825835743385"><ele>36.0</ele><time>2026-04-06T10:58:13Z</time></trkpt><trkpt lat="51.24484281105118" lon="5.184630484989589"><ele>35.333333333333336</ele><time>2026-04-06T10:58:14Z</time></trkpt><trkpt lat="51.24488242094408" lon="5.184865541362566"><ele>34.66666666666667</ele><time>2026-04-06T10:58:15Z</time></trkpt><trkpt lat="51.2449199331462" lon="5.185097275314227"><ele>34.0</ele><time>2026-04-06T10:58:16Z</time></trkpt><trkpt lat="51.244963762053274" lon="5.185324441790486"><ele>34.0</ele><time>2026-04-06T10:58:17Z</time></trkpt><trkpt lat="51.24499703581118" lon="5.1855384350849025"><ele>34.0</ele><time>2026-04-06T10:58:18Z</time></trkpt><trkpt lat="51.245029399594166" lon="5.185742902346887"><ele>34.0</ele><time>2026-04-06T10:58:19Z</time></trkpt><trkpt lat="51.24505579040323" lon="5.185926554192632"><ele>34.0</ele><time>2026-04-06T10:58:20Z</time></trkpt><trkpt lat="51.24508108801248" lon="5.186085068678853"><ele>34.0</ele><time>2026-04-06T10:58:21Z</time></trkpt><trkpt lat="51.24510514947983" lon="5.186228501013826"><ele>34.0</ele><time>2026-04-06T10:58:22Z</time></trkpt><trkpt lat="51.24512369890331" lon="5.186347576043644"><ele>34.0</ele><time>2026-04-06T10:58:23Z</time></trkpt><trkpt lat="51.24515272044421" lon="5.186521017479521"><ele>34.0</ele><time>2026-04-06T10:58:25Z</time></trkpt><trkpt lat="51.24515866862161" lon="5.186640198124951"><ele>34.0</ele><time>2026-04-06T10:58:27Z</time></trkpt><trkpt lat="51.245025959243385" lon="5.1867527906346345"><ele>34.0</ele><time>2026-04-06T10:58:36Z</time></trkpt><trkpt lat="51.24495961293545" lon="5.186740900281184"><ele>34.0</ele><time>2026-04-06T10:58:37Z</time></trkpt><trkpt lat="51.2448913244118" lon="5.186734462555403"><ele>34.0</ele><time>2026-04-06T10:58:38Z</time></trkpt><trkpt lat="51.24480531984142" lon="5.186725033260396"><ele>34.0</ele><time>2026-04-06T10:58:39Z</time></trkpt><trkpt lat="51.24469226645493" lon="5.18670931443411"><ele>34.0</ele><time>2026-04-06T10:58:40Z</time></trkpt><trkpt lat="51.2445941814354" lon="5.186699129850905"><ele>34.0</ele><time>2026-04-06T10:58:41Z</time></trkpt><trkpt lat="51.24449203836576" lon="5.18668672923418"><ele>33.75</ele><time>2026-04-06T10:58:42Z</time></trkpt><trkpt lat="51.24438032838618" lon="5.186681426462262"><ele>33.5</ele><time>2026-04-06T10:58:43Z</time></trkpt><trkpt lat="51.24425780176353" lon="5.186680297572057"><ele>33.25</ele><time>2026-04-06T10:58:44Z</time></trkpt><trkpt lat="51.24412201543352" lon="5.186674360035237"><ele>33.0</ele><time>2026-04-06T10:58:45Z</time></trkpt><trkpt lat="51.24397180696055" lon="5.186639299638061"><ele>33.75</ele><time>2026-04-06T10:58:46Z</time></trkpt><trkpt lat="51.24383221831306" lon="5.186644116489155"><ele>34.5</ele><time>2026-04-06T10:58:47Z</time></trkpt><trkpt lat="51.24369577971027" lon="5.186640024145319"><ele>35.25</ele><time>2026-04-06T10:58:48Z</time></trkpt><trkpt lat="51.24355899533608" lon="5.186630671035733"><ele>36.0</ele><time>2026-04-06T10:58:49Z</time></trkpt><trkpt lat="51.243419347320526" lon="5.186625450894268"><ele>36.0</ele><time>2026-04-06T10:58:50Z</time></trkpt><trkpt lat="51.24327337797272" lon="5.186616928633818"><ele>36.0</ele><time>2026-04-06T10:58:51Z</time></trkpt><trkpt lat="51.24312064566387" lon="5.186607945726923"><ele>36.0</ele><time>2026-04-06T10:58:52Z</time></trkpt><trkpt lat="51.242952333144665" lon="5.186598015542552"><ele>37.0</ele><time>2026-04-06T10:58:53Z</time></trkpt><trkpt lat="51.24277005439511" lon="5.18658582159597"><ele>38.0</ele><time>2026-04-06T10:58:54Z</time></trkpt><trkpt lat="51.24257472015569" lon="5.186570439113237"><ele>39.0</ele><time>2026-04-06T10:58:55Z</time></trkpt><trkpt lat="51.24238781515953" lon="5.186556907598369"><ele>39.333333333333336</ele><time>2026-04-06T10:58:56Z</time></trkpt><trkpt lat="51.24220163047239" lon="5.18654712472723"><ele>39.66666666666667</ele><time>2026-04-06T10:58:57Z</time></trkpt><trkpt lat="51.24202174741813" lon="5.1865357378052765"><ele>40.0</ele><time>2026-04-06T10:58:58Z</time></trkpt><trkpt lat="51.241847923011164" lon="5.1865229393900245"><ele>40.0</ele><time>2026-04-06T10:58:59Z</time></trkpt><trkpt lat="51.241677951516046" lon="5.186514487112586"><ele>40.0</ele><time>2026-04-06T10:59:00Z</time></trkpt><trkpt lat="51.241513081003305" lon="5.18649776414926"><ele>40.0</ele><time>2026-04-06T10:59:01Z</time></trkpt><trkpt lat="51.2413508356938" lon="5.186491584238318"><ele>38.333333333333336</ele><time>2026-04-06T10:59:02Z</time></trkpt><trkpt lat="51.24119077863758" lon="5.186481851395768"><ele>36.666666666666664</ele><time>2026-04-06T10:59:03Z</time></trkpt><trkpt lat="51.24103182344257" lon="5.186474079292842"><ele>35.0</ele><time>2026-04-06T10:59:04Z</time></trkpt><trkpt lat="51.24087678859926" lon="5.186465288701727"><ele>35.0</ele><time>2026-04-06T10:59:05Z</time></trkpt><trkpt lat="51.24072015222515" lon="5.186458159910355"><ele>35.0</ele><time>2026-04-06T10:59:06Z</time></trkpt><trkpt lat="51.24056207977663" lon="5.186448652823058"><ele>35.0</ele><time>2026-04-06T10:59:07Z</time></trkpt><trkpt lat="51.24040390973864" lon="5.186438141700701"><ele>35.0</ele><time>2026-04-06T10:59:08Z</time></trkpt><trkpt lat="51.24024484625961" lon="5.186426358705761"><ele>35.0</ele><time>2026-04-06T10:59:09Z</time></trkpt><trkpt lat="51.2400844789587" lon="5.186415210773533"><ele>35.0</ele><time>2026-04-06T10:59:10Z</time></trkpt><trkpt lat="51.239923651394484" lon="5.186404544777245"><ele>35.25</ele><time>2026-04-06T10:59:11Z</time></trkpt><trkpt lat="51.239770597623874" lon="5.1863947388968885"><ele>35.5</ele><time>2026-04-06T10:59:12Z</time></trkpt><trkpt lat="51.239627182076305" lon="5.186385665048103"><ele>35.75</ele><time>2026-04-06T10:59:13Z</time></trkpt><trkpt lat="51.23949203416486" lon="5.186377210730346"><ele>36.0</ele><time>2026-04-06T10:59:14Z</time></trkpt><trkpt lat="51.239365653063395" lon="5.186369113264675"><ele>36.0</ele><time>2026-04-06T10:59:15Z</time></trkpt><trkpt lat="51.23926232629956" lon="5.186363219808587"><ele>36.0</ele><time>2026-04-06T10:59:16Z</time></trkpt><trkpt lat="51.23918251173916" lon="5.18636154496631"><ele>36.0</ele><time>2026-04-06T10:59:17Z</time></trkpt><trkpt lat="51.23911906413384" lon="5.186370934577131"><ele>36.0</ele><time>2026-04-06T10:59:18Z</time></trkpt><trkpt lat="51.23905543518749" lon="5.1863954838301485"><ele>36.0</ele><time>2026-04-06T10:59:20Z</time></trkpt><trkpt lat="51.238917615313504" lon="5.186453395729603"><ele>35.2</ele><time>2026-04-06T11:00:10Z</time></trkpt><trkpt lat="51.2388395334303" lon="5.186477148101863"><ele>34.400000000000006</ele><time>2026-04-06T11:00:11Z</time></trkpt><trkpt lat="51.23876452257254" lon="5.186496168427582"><ele>33.6</ele><time>2026-04-06T11:00:12Z</time></trkpt><trkpt lat="51.23867055814048" lon="5.186513410063814"><ele>32.800000000000004</ele><time>2026-04-06T11:00:13Z</time></trkpt><trkpt lat="51.238561454264705" lon="5.186533429647055"><ele>32.0</ele><time>2026-04-06T11:00:14Z</time></trkpt><trkpt lat="51.23846659843191" lon="5.186550834847325"><ele>31.8</ele><time>2026-04-06T11:00:15Z</time></trkpt><trkpt lat="51.23838222709661" lon="5.186566582416456"><ele>31.6</ele><time>2026-04-06T11:00:16Z</time></trkpt><trkpt lat="51.23829777005914" lon="5.186581737240119"><ele>31.400000000000002</ele><time>2026-04-06T11:00:17Z</time></trkpt><trkpt lat="51.23820781968433" lon="5.186598656370847"><ele>31.200000000000003</ele><time>2026-04-06T11:00:18Z</time></trkpt><trkpt lat="51.238110196120005" lon="5.186616880082615"><ele>31.0</ele><time>2026-04-06T11:00:19Z</time></trkpt><trkpt lat="51.23801184089287" lon="5.186635030075657"><ele>31.8</ele><time>2026-04-06T11:00:20Z</time></trkpt><trkpt lat="51.23793350195578" lon="5.186649486371586"><ele>32.6</ele><time>2026-04-06T11:00:21Z</time></trkpt><trkpt lat="51.237840270513864" lon="5.186655001904792"><ele>33.4</ele><time>2026-04-06T11:00:23Z</time></trkpt><trkpt lat="51.23774057679278" lon="5.186630548212358"><ele>34.2</ele><time>2026-04-06T11:00:25Z</time></trkpt><trkpt lat="51.2376746351066" lon="5.186462403727867"><ele>35.0</ele><time>2026-04-06T11:00:27Z</time></trkpt><trkpt lat="51.237674583366605" lon="5.186316800542405"><ele>35.0</ele><time>2026-04-06T11:00:28Z</time></trkpt><trkpt lat="51.237634462655436" lon="5.186173310226204"><ele>35.0</ele><time>2026-04-06T11:00:29Z</time></trkpt><trkpt lat="51.2376089867923" lon="5.1860328475579625"><ele>35.0</ele><time>2026-04-06T11:00:30Z</time></trkpt><trkpt lat="51.23759755810393" lon="5.185882857494499"><ele>35.0</ele><time>2026-04-06T11:00:31Z</time></trkpt><trkpt lat="51.23755602825175" lon="5.185743891499024"><ele>35.0</ele><time>2026-04-06T11:00:32Z</time></trkpt><trkpt lat="51.237527907000306" lon="5.185589696912378"><ele>34.8</ele><time>2026-04-06T11:00:33Z</time></trkpt><trkpt lat="51.23750023845438" lon="5.1854379857706245"><ele>34.6</ele><time>2026-04-06T11:00:34Z</time></trkpt><trkpt lat="51.23747241844323" lon="5.185288073569361"><ele>34.4</ele><time>2026-04-06T11:00:35Z</time></trkpt><trkpt lat="51.237442133275536" lon="5.185140901635491"><ele>34.2</ele><time>2026-04-06T11:00:36Z</time></trkpt><trkpt lat="51.23740840916461" lon="5.185007632408091"><ele>34.0</ele><time>2026-04-06T11:00:37Z</time></trkpt><trkpt lat="51.23735809027391" lon="5.184889531173952"><ele>33.6</ele><time>2026-04-06T11:00:38Z</time></trkpt><trkpt lat="51.237303433135814" lon="5.184783879062835"><ele>33.2</ele><time>2026-04-06T11:00:39Z</time></trkpt><trkpt lat="51.2372346108644" lon="5.184696739045059"><ele>32.800000000000004</ele><time>2026-04-06T11:00:40Z</time></trkpt><trkpt lat="51.23715606192785" lon="5.184620244684147"><ele>32.4</ele><time>2026-04-06T11:00:41Z</time></trkpt><trkpt lat="51.23706869769279" lon="5.184565368190363"><ele>32.0</ele><time>2026-04-06T11:00:42Z</time></trkpt><trkpt lat="51.23697487436525" lon="5.184520495846536"><ele>32.0</ele><time>2026-04-06T11:00:43Z</time></trkpt><trkpt lat="51.23687434601511" lon="5.184498399155292"><ele>32.0</ele><time>2026-04-06T11:00:44Z</time></trkpt><trkpt lat="51.23677106260084" lon="5.184488195196123"><ele>32.0</ele><time>2026-04-06T11:00:45Z</time></trkpt><trkpt lat="51.23666565311586" lon="5.184486811506437"><ele>32.0</ele><time>2026-04-06T11:00:46Z</time></trkpt><trkpt lat="51.23655691131739" lon="5.184484600991767"><ele>32.0</ele><time>2026-04-06T11:00:47Z</time></trkpt><trkpt lat="51.23644431298096" lon="5.184481200216833"><ele>32.0</ele><time>2026-04-06T11:00:48Z</time></trkpt><trkpt lat="51.23633111194387" lon="5.184455526366874"><ele>32.0</ele><time>2026-04-06T11:00:49Z</time></trkpt><trkpt lat="51.236213392819835" lon="5.184450535223468"><ele>32.0</ele><time>2026-04-06T11:00:50Z</time></trkpt><trkpt lat="51.2360868395843" lon="5.184444440742713"><ele>32.0</ele><time>2026-04-06T11:00:51Z</time></trkpt><trkpt lat="51.235951682115136" lon="5.184439305379797"><ele>32.0</ele><time>2026-04-06T11:00:52Z</time></trkpt><trkpt lat="51.23579930158443" lon="5.184432884751924"><ele>32.0</ele><time>2026-04-06T11:00:53Z</time></trkpt><trkpt lat="51.23562360736456" lon="5.184425557426255"><ele>32.0</ele><time>2026-04-06T11:00:54Z</time></trkpt><trkpt lat="51.23545072430094" lon="5.1844170652263974"><ele>31.0</ele><time>2026-04-06T11:00:55Z</time></trkpt><trkpt lat="51.23526030709724" lon="5.1844091779191155"><ele>30.0</ele><time>2026-04-06T11:00:56Z</time></trkpt><trkpt lat="51.23508027975192" lon="5.184401019342573"><ele>29.0</ele><time>2026-04-06T11:00:57Z</time></trkpt><trkpt lat="51.23490732222132" lon="5.184393540148623"><ele>28.666666666666664</ele><time>2026-04-06T11:00:58Z</time></trkpt><trkpt lat="51.23473424614924" lon="5.18438640544567"><ele>28.333333333333336</ele><time>2026-04-06T11:00:59Z</time></trkpt><trkpt lat="51.23456463900775" lon="5.184379650211645"><ele>28.0</ele><time>2026-04-06T11:01:00Z</time></trkpt><trkpt lat="51.23439643884197" lon="5.184371806598654"><ele>28.0</ele><time>2026-04-06T11:01:01Z</time></trkpt><trkpt lat="51.23422810725465" lon="5.184380346685392"><ele>28.0</ele><time>2026-04-06T11:01:02Z</time></trkpt><trkpt lat="51.23405617180281" lon="5.184373047437641"><ele>28.0</ele><time>2026-04-06T11:01:03Z</time></trkpt><trkpt lat="51.23388312267735" lon="5.184365061276617"><ele>28.333333333333336</ele><time>2026-04-06T11:01:04Z</time></trkpt><trkpt lat="51.23371015027437" lon="5.184357432672175"><ele>28.666666666666664</ele><time>2026-04-06T11:01:05Z</time></trkpt><trkpt lat="51.2335346587995" lon="5.184348871112936"><ele>29.0</ele><time>2026-04-06T11:01:06Z</time></trkpt><trkpt lat="51.23335621586328" lon="5.184340619970391"><ele>29.0</ele><time>2026-04-06T11:01:07Z</time></trkpt><trkpt lat="51.23318080768504" lon="5.184332564783418"><ele>29.0</ele><time>2026-04-06T11:01:08Z</time></trkpt><trkpt lat="51.233003260204335" lon="5.1843245614080375"><ele>29.0</ele><time>2026-04-06T11:01:09Z</time></trkpt><trkpt lat="51.23282331684268" lon="5.184316450035669"><ele>28.333333333333332</ele><time>2026-04-06T11:01:10Z</time></trkpt><trkpt lat="51.23265168533505" lon="5.18430855425364"><ele>27.666666666666664</ele><time>2026-04-06T11:01:11Z</time></trkpt><trkpt lat="51.232473032204204" lon="5.184299936194353"><ele>27.0</ele><time>2026-04-06T11:01:12Z</time></trkpt><trkpt lat="51.23229171625303" lon="5.184291611180061"><ele>26.666666666666664</ele><time>2026-04-06T11:01:13Z</time></trkpt><trkpt lat="51.232110508679106" lon="5.184283291144153"><ele>26.333333333333332</ele><time>2026-04-06T11:01:14Z</time></trkpt><trkpt lat="51.23192346119525" lon="5.184274702973172"><ele>26.0</ele><time>2026-04-06T11:01:15Z</time></trkpt><trkpt lat="51.231734143699" lon="5.184266098471204"><ele>26.0</ele><time>2026-04-06T11:01:16Z</time></trkpt><trkpt lat="51.23154317894219" lon="5.18425741113076"><ele>26.0</ele><time>2026-04-06T11:01:17Z</time></trkpt><trkpt lat="51.231350809267106" lon="5.184248540682186"><ele>26.0</ele><time>2026-04-06T11:01:18Z</time></trkpt><trkpt lat="51.23116094941174" lon="5.184239785962842"><ele>26.666666666666664</ele><time>2026-04-06T11:01:19Z</time></trkpt><trkpt lat="51.230971595137525" lon="5.184231207022267"><ele>27.333333333333336</ele><time>2026-04-06T11:01:20Z</time></trkpt><trkpt lat="51.230783708817334" lon="5.184222733021924"><ele>28.0</ele><time>2026-04-06T11:01:21Z</time></trkpt><trkpt lat="51.230596887027794" lon="5.184214304220682"><ele>29.0</ele><time>2026-04-06T11:01:22Z</time></trkpt><trkpt lat="51.230412140390875" lon="5.184205624862798"><ele>30.0</ele><time>2026-04-06T11:01:23Z</time></trkpt><trkpt lat="51.230228943306514" lon="5.184197139784292"><ele>31.0</ele><time>2026-04-06T11:01:24Z</time></trkpt><trkpt lat="51.230047349130054" lon="5.184213646090939"><ele>31.0</ele><time>2026-04-06T11:01:25Z</time></trkpt><trkpt lat="51.22986776318742" lon="5.184203008830314"><ele>31.0</ele><time>2026-04-06T11:01:26Z</time></trkpt><trkpt lat="51.22968178834917" lon="5.184190381600801"><ele>31.0</ele><time>2026-04-06T11:01:27Z</time></trkpt><trkpt lat="51.22948960520094" lon="5.184181059824939"><ele>31.0</ele><time>2026-04-06T11:01:28Z</time></trkpt><trkpt lat="51.22929103062027" lon="5.18417054020235"><ele>31.0</ele><time>2026-04-06T11:01:29Z</time></trkpt><trkpt lat="51.22909452563409" lon="5.1841529150544385"><ele>31.0</ele><time>2026-04-06T11:01:30Z</time></trkpt><trkpt lat="51.22889821344015" lon="5.1841362589834725"><ele>31.666666666666668</ele><time>2026-04-06T11:01:31Z</time></trkpt><trkpt lat="51.22870235045147" lon="5.1840890500144186"><ele>32.333333333333336</ele><time>2026-04-06T11:01:32Z</time></trkpt><trkpt lat="51.22850656954011" lon="5.184068272025987"><ele>33.0</ele><time>2026-04-06T11:01:33Z</time></trkpt><trkpt lat="51.22831193890934" lon="5.184046717426405"><ele>33.0</ele><time>2026-04-06T11:01:34Z</time></trkpt><trkpt lat="51.22811973615744" lon="5.184026383166977"><ele>33.0</ele><time>2026-04-06T11:01:35Z</time></trkpt><trkpt lat="51.22793155495181" lon="5.184002059766385"><ele>33.0</ele><time>2026-04-06T11:01:36Z</time></trkpt><trkpt lat="51.22774652191461" lon="5.183973294935719"><ele>33.0</ele><time>2026-04-06T11:01:37Z</time></trkpt><trkpt lat="51.22756317426176" lon="5.183953757490462"><ele>33.0</ele><time>2026-04-06T11:01:38Z</time></trkpt><trkpt lat="51.22738291419908" lon="5.183934711021644"><ele>33.0</ele><time>2026-04-06T11:01:39Z</time></trkpt><trkpt lat="51.22720361856474" lon="5.18391563514468"><ele>32.666666666666664</ele><time>2026-04-06T11:01:40Z</time></trkpt><trkpt lat="51.22702537326358" lon="5.183896559638759"><ele>32.33333333333333</ele><time>2026-04-06T11:01:41Z</time></trkpt><trkpt lat="51.226845918508786" lon="5.183877998915976"><ele>32.0</ele><time>2026-04-06T11:01:42Z</time></trkpt><trkpt lat="51.22666721193143" lon="5.183859484336465"><ele>32.0</ele><time>2026-04-06T11:01:43Z</time></trkpt><trkpt lat="51.22648778512023" lon="5.183840756611115"><ele>32.0</ele><time>2026-04-06T11:01:44Z</time></trkpt><trkpt lat="51.2263098006163" lon="5.183821694760032"><ele>32.0</ele><time>2026-04-06T11:01:45Z</time></trkpt><trkpt lat="51.22613081828787" lon="5.183802259054087"><ele>32.0</ele><time>2026-04-06T11:01:46Z</time></trkpt><trkpt lat="51.22595188172826" lon="5.183782949511498"><ele>32.0</ele><time>2026-04-06T11:01:47Z</time></trkpt><trkpt lat="51.22577237791614" lon="5.183764415842635"><ele>32.0</ele><time>2026-04-06T11:01:48Z</time></trkpt><trkpt lat="51.22559290688613" lon="5.183745796421327"><ele>32.666666666666664</ele><time>2026-04-06T11:01:49Z</time></trkpt><trkpt lat="51.22541296761739" lon="5.183726566154525"><ele>33.333333333333336</ele><time>2026-04-06T11:01:50Z</time></trkpt><trkpt lat="51.225232804414745" lon="5.183706930681775"><ele>34.0</ele><time>2026-04-06T11:01:51Z</time></trkpt><trkpt lat="51.22505102473953" lon="5.183687786845201"><ele>34.0</ele><time>2026-04-06T11:01:52Z</time></trkpt><trkpt lat="51.224869169580906" lon="5.183668793209009"><ele>34.0</ele><time>2026-04-06T11:01:53Z</time></trkpt><trkpt lat="51.224687421691286" lon="5.183649676365847"><ele>34.0</ele><time>2026-04-06T11:01:54Z</time></trkpt><trkpt lat="51.224504244226296" lon="5.183630411599836"><ele>33.66666666666667</ele><time>2026-04-06T11:01:55Z</time></trkpt><trkpt lat="51.224320083855545" lon="5.183610621878934"><ele>33.333333333333336</ele><time>2026-04-06T11:01:56Z</time></trkpt><trkpt lat="51.22413769425876" lon="5.183591593785838"><ele>33.0</ele><time>2026-04-06T11:01:57Z</time></trkpt><trkpt lat="51.22395413082243" lon="5.183572000688968"><ele>33.0</ele><time>2026-04-06T11:01:58Z</time></trkpt><trkpt lat="51.22377144383738" lon="5.183552029093952"><ele>33.0</ele><time>2026-04-06T11:01:59Z</time></trkpt><trkpt lat="51.22358638383823" lon="5.183532703164533"><ele>33.0</ele><time>2026-04-06T11:02:00Z</time></trkpt><trkpt lat="51.22340156788026" lon="5.1835136075802275"><ele>33.0</ele><time>2026-04-06T11:02:01Z</time></trkpt><trkpt lat="51.223217780030666" lon="5.183494293340182"><ele>33.0</ele><time>2026-04-06T11:02:02Z</time></trkpt><trkpt lat="51.22303657432221" lon="5.183474881795069"><ele>33.0</ele><time>2026-04-06T11:02:03Z</time></trkpt><trkpt lat="51.22286022203744" lon="5.183455895512952"><ele>33.666666666666664</ele><time>2026-04-06T11:02:04Z</time></trkpt><trkpt lat="51.22268873092957" lon="5.1834374856188195"><ele>34.33333333333333</ele><time>2026-04-06T11:02:05Z</time></trkpt><trkpt lat="51.222516736652544" lon="5.183419321549086"><ele>35.0</ele><time>2026-04-06T11:02:06Z</time></trkpt><trkpt lat="51.22234895222835" lon="5.183401720994947"><ele>35.33333333333333</ele><time>2026-04-06T11:02:07Z</time></trkpt><trkpt lat="51.222179819054816" lon="5.183384572799762"><ele>35.666666666666664</ele><time>2026-04-06T11:02:08Z</time></trkpt><trkpt lat="51.222006862349396" lon="5.183366051991224"><ele>36.0</ele><time>2026-04-06T11:02:09Z</time></trkpt><trkpt lat="51.2218319183152" lon="5.1833473790293105"><ele>36.0</ele><time>2026-04-06T11:02:10Z</time></trkpt><trkpt lat="51.221656899834215" lon="5.183329365832285"><ele>36.0</ele><time>2026-04-06T11:02:11Z</time></trkpt><trkpt lat="51.22148088315404" lon="5.183310929726178"><ele>36.0</ele><time>2026-04-06T11:02:12Z</time></trkpt><trkpt lat="51.22130310746949" lon="5.18329227020207"><ele>36.0</ele><time>2026-04-06T11:02:13Z</time></trkpt><trkpt lat="51.22112432964039" lon="5.183273553765522"><ele>36.0</ele><time>2026-04-06T11:02:14Z</time></trkpt><trkpt lat="51.22094618993888" lon="5.183254728342846"><ele>36.0</ele><time>2026-04-06T11:02:15Z</time></trkpt><trkpt lat="51.22077095988922" lon="5.1832360761352145"><ele>36.0</ele><time>2026-04-06T11:02:16Z</time></trkpt><trkpt lat="51.2205980674376" lon="5.183217555495367"><ele>36.0</ele><time>2026-04-06T11:02:17Z</time></trkpt><trkpt lat="51.220428204351144" lon="5.1831996283803505"><ele>36.0</ele><time>2026-04-06T11:02:18Z</time></trkpt><trkpt lat="51.22026466680814" lon="5.183181557619918"><ele>34.666666666666664</ele><time>2026-04-06T11:02:19Z</time></trkpt><trkpt lat="51.220105838580025" lon="5.183164781136971"><ele>33.33333333333333</ele><time>2026-04-06T11:02:20Z</time></trkpt><trkpt lat="51.219952552798894" lon="5.183148826551817"><ele>32.0</ele><time>2026-04-06T11:02:21Z</time></trkpt><trkpt lat="51.21980265934667" lon="5.18313321159964"><ele>32.0</ele><time>2026-04-06T11:02:22Z</time></trkpt><trkpt lat="51.21966184985354" lon="5.183118029170318"><ele>32.0</ele><time>2026-04-06T11:02:23Z</time></trkpt><trkpt lat="51.21952920099482" lon="5.183129435959021"><ele>32.0</ele><time>2026-04-06T11:02:24Z</time></trkpt><trkpt lat="51.21940243403549" lon="5.1831176087650155"><ele>32.0</ele><time>2026-04-06T11:02:25Z</time></trkpt><trkpt lat="51.21928135063137" lon="5.1830961955177965"><ele>32.0</ele><time>2026-04-06T11:02:26Z</time></trkpt><trkpt lat="51.21915967553374" lon="5.183083267242237"><ele>32.0</ele><time>2026-04-06T11:02:27Z</time></trkpt><trkpt lat="51.21903020028214" lon="5.183068768208414"><ele>32.0</ele><time>2026-04-06T11:02:28Z</time></trkpt><trkpt lat="51.21889082239667" lon="5.183054386232616"><ele>32.0</ele><time>2026-04-06T11:02:29Z</time></trkpt><trkpt lat="51.21874579543172" lon="5.183039059959873"><ele>34.33333333333333</ele><time>2026-04-06T11:02:30Z</time></trkpt><trkpt lat="51.21859737914803" lon="5.183025050370638"><ele>36.666666666666664</ele><time>2026-04-06T11:02:31Z</time></trkpt><trkpt lat="51.2184437454053" lon="5.183010935998645"><ele>39.0</ele><time>2026-04-06T11:02:32Z</time></trkpt><trkpt lat="51.21827808184926" lon="5.1829919831649525"><ele>38.666666666666664</ele><time>2026-04-06T11:02:33Z</time></trkpt><trkpt lat="51.21811552196207" lon="5.182973435048888"><ele>38.33333333333333</ele><time>2026-04-06T11:02:34Z</time></trkpt><trkpt lat="51.21795687397091" lon="5.182955254094653"><ele>38.0</ele><time>2026-04-06T11:02:35Z</time></trkpt><trkpt lat="51.217796692531266" lon="5.182939222121259"><ele>38.0</ele><time>2026-04-06T11:02:36Z</time></trkpt><trkpt lat="51.217638165241624" lon="5.182924093710942"><ele>38.0</ele><time>2026-04-06T11:02:37Z</time></trkpt><trkpt lat="51.21748098296807" lon="5.182908320559336"><ele>38.0</ele><time>2026-04-06T11:02:38Z</time></trkpt><trkpt lat="51.2173240252716" lon="5.18289535237035"><ele>37.666666666666664</ele><time>2026-04-06T11:02:39Z</time></trkpt><trkpt lat="51.21716787673956" lon="5.182876028224906"><ele>37.333333333333336</ele><time>2026-04-06T11:02:40Z</time></trkpt><trkpt lat="51.21701267082031" lon="5.18285751564075"><ele>37.0</ele><time>2026-04-06T11:02:41Z</time></trkpt><trkpt lat="51.216856609956736" lon="5.1828469573640525"><ele>37.0</ele><time>2026-04-06T11:02:42Z</time></trkpt><trkpt lat="51.21670384746605" lon="5.182809747703681"><ele>37.0</ele><time>2026-04-06T11:02:43Z</time></trkpt><trkpt lat="51.21654286767334" lon="5.1827897453266125"><ele>37.0</ele><time>2026-04-06T11:02:44Z</time></trkpt><trkpt lat="51.216368996464425" lon="5.182768616972764"><ele>37.0</ele><time>2026-04-06T11:02:45Z</time></trkpt><trkpt lat="51.21621420064708" lon="5.182752721619225"><ele>37.0</ele><time>2026-04-06T11:02:46Z</time></trkpt><trkpt lat="51.216070011904556" lon="5.182736758180604"><ele>37.0</ele><time>2026-04-06T11:02:47Z</time></trkpt><trkpt lat="51.2159355948551" lon="5.182721930247608"><ele>37.0</ele><time>2026-04-06T11:02:48Z</time></trkpt><trkpt lat="51.21581142912201" lon="5.182709294761478"><ele>37.0</ele><time>2026-04-06T11:02:49Z</time></trkpt><trkpt lat="51.215690845817186" lon="5.182696387023967"><ele>37.0</ele><time>2026-04-06T11:02:50Z</time></trkpt><trkpt lat="51.21556923676336" lon="5.182683369521732"><ele>37.0</ele><time>2026-04-06T11:02:51Z</time></trkpt><trkpt lat="51.21544888114424" lon="5.182669634570949"><ele>37.0</ele><time>2026-04-06T11:02:52Z</time></trkpt><trkpt lat="51.21532797954751" lon="5.18265673693151"><ele>37.0</ele><time>2026-04-06T11:02:53Z</time></trkpt><trkpt lat="51.21520466349095" lon="5.182643949713482"><ele>37.0</ele><time>2026-04-06T11:02:54Z</time></trkpt><trkpt lat="51.21507843131249" lon="5.182629974708196"><ele>37.0</ele><time>2026-04-06T11:02:55Z</time></trkpt><trkpt lat="51.21495634772549" lon="5.182617411360935"><ele>37.0</ele><time>2026-04-06T11:02:56Z</time></trkpt><trkpt lat="51.2148475123741" lon="5.182605352190102"><ele>37.0</ele><time>2026-04-06T11:02:57Z</time></trkpt><trkpt lat="51.214736634074214" lon="5.182593741361057"><ele>37.0</ele><time>2026-04-06T11:02:58Z</time></trkpt><trkpt lat="51.21461920949544" lon="5.182581095645705"><ele>37.0</ele><time>2026-04-06T11:02:59Z</time></trkpt><trkpt lat="51.21449563096281" lon="5.1825671901565595"><ele>37.0</ele><time>2026-04-06T11:03:00Z</time></trkpt><trkpt lat="51.2143673945199" lon="5.182554157332237"><ele>37.0</ele><time>2026-04-06T11:03:01Z</time></trkpt><trkpt lat="51.21423971086445" lon="5.182540379582788"><ele>37.0</ele><time>2026-04-06T11:03:02Z</time></trkpt><trkpt lat="51.214126353936386" lon="5.182528586238352"><ele>37.0</ele><time>2026-04-06T11:03:03Z</time></trkpt><trkpt lat="51.214015424022804" lon="5.182516374596143"><ele>37.0</ele><time>2026-04-06T11:03:04Z</time></trkpt><trkpt lat="51.21390163699835" lon="5.182504813351743"><ele>36.800000000000004</ele><time>2026-04-06T11:03:05Z</time></trkpt><trkpt lat="51.2137886770509" lon="5.182492916984839"><ele>36.6</ele><time>2026-04-06T11:03:06Z</time></trkpt><trkpt lat="51.21367698780772" lon="5.182480714249975"><ele>36.400000000000006</ele><time>2026-04-06T11:03:07Z</time></trkpt><trkpt lat="51.21357411813678" lon="5.18246989755422"><ele>36.2</ele><time>2026-04-06T11:03:08Z</time></trkpt><trkpt lat="51.213482752290204" lon="5.182460438294476"><ele>36.0</ele><time>2026-04-06T11:03:09Z</time></trkpt><trkpt lat="51.213397164671846" lon="5.182451483108056"><ele>36.0</ele><time>2026-04-06T11:03:10Z</time></trkpt><trkpt lat="51.21330877249944" lon="5.18244212164798"><ele>36.0</ele><time>2026-04-06T11:03:11Z</time></trkpt><trkpt lat="51.21322456696227" lon="5.182433203601105"><ele>36.0</ele><time>2026-04-06T11:03:12Z</time></trkpt><trkpt lat="51.21314038649372" lon="5.182423800839248"><ele>36.0</ele><time>2026-04-06T11:03:13Z</time></trkpt><trkpt lat="51.21305627321939" lon="5.182414731515824"><ele>36.0</ele><time>2026-04-06T11:03:14Z</time></trkpt><trkpt lat="51.21297338653967" lon="5.182406451678653"><ele>36.0</ele><time>2026-04-06T11:03:15Z</time></trkpt><trkpt lat="51.2129060251571" lon="5.18239972267969"><ele>35.0</ele><time>2026-04-06T11:03:16Z</time></trkpt><trkpt lat="51.21283316471481" lon="5.18239198337744"><ele>34.0</ele><time>2026-04-06T11:03:18Z</time></trkpt><trkpt lat="51.212732227193555" lon="5.18238079370918"><ele>33.0</ele><time>2026-04-06T11:03:26Z</time></trkpt><trkpt lat="51.21266962083374" lon="5.1824048499888296"><ele>32.0</ele><time>2026-04-06T11:03:28Z</time></trkpt><trkpt lat="51.21267815659205" lon="5.182804075078907"><ele>32.0</ele><time>2026-04-06T11:03:29Z</time></trkpt><trkpt lat="51.212723124629306" lon="5.18294026304932"><ele>32.0</ele><time>2026-04-06T11:03:30Z</time></trkpt><trkpt lat="51.21278088835954" lon="5.1831132245189995"><ele>32.0</ele><time>2026-04-06T11:03:31Z</time></trkpt><trkpt lat="51.212847478560825" lon="5.183321105470999"><ele>32.0</ele><time>2026-04-06T11:03:32Z</time></trkpt><trkpt lat="51.212907781125274" lon="5.183515127172644"><ele>31.75</ele><time>2026-04-06T11:03:33Z</time></trkpt><trkpt lat="51.21296344725706" lon="5.183697678197786"><ele>31.5</ele><time>2026-04-06T11:03:34Z</time></trkpt><trkpt lat="51.21301711481849" lon="5.183877063615331"><ele>31.25</ele><time>2026-04-06T11:03:35Z</time></trkpt><trkpt lat="51.21306898128499" lon="5.184047940106682"><ele>31.0</ele><time>2026-04-06T11:03:36Z</time></trkpt><trkpt lat="51.21311397416244" lon="5.184199873602179"><ele>31.0</ele><time>2026-04-06T11:03:37Z</time></trkpt><trkpt lat="51.21316277563248" lon="5.18435328291282"><ele>31.0</ele><time>2026-04-06T11:03:38Z</time></trkpt><trkpt lat="51.21321351016052" lon="5.18452018692352"><ele>31.0</ele><time>2026-04-06T11:03:39Z</time></trkpt><trkpt lat="51.21329082746724" lon="5.184699276171338"><ele>31.0</ele><time>2026-04-06T11:03:40Z</time></trkpt><trkpt lat="51.21336172993515" lon="5.184933071582156"><ele>31.0</ele><time>2026-04-06T11:03:41Z</time></trkpt><trkpt lat="51.21343408272167" lon="5.185206444153015"><ele>31.0</ele><time>2026-04-06T11:03:42Z</time></trkpt><trkpt lat="51.213515771953325" lon="5.185502179676282"><ele>31.0</ele><time>2026-04-06T11:03:43Z</time></trkpt><trkpt lat="51.21359771109531" lon="5.1857589230354915"><ele>30.666666666666668</ele><time>2026-04-06T11:03:44Z</time></trkpt><trkpt lat="51.21366710098293" lon="5.185998207566416"><ele>30.333333333333336</ele><time>2026-04-06T11:03:45Z</time></trkpt><trkpt lat="51.213738996895174" lon="5.1862367839909265"><ele>30.0</ele><time>2026-04-06T11:03:46Z</time></trkpt><trkpt lat="51.213811459506786" lon="5.186478355608373"><ele>30.0</ele><time>2026-04-06T11:03:47Z</time></trkpt><trkpt lat="51.21388697011345" lon="5.186719656878834"><ele>30.0</ele><time>2026-04-06T11:03:48Z</time></trkpt><trkpt lat="51.21396105752998" lon="5.186959739184651"><ele>30.0</ele><time>2026-04-06T11:03:49Z</time></trkpt><trkpt lat="51.21402946923849" lon="5.187189011554454"><ele>30.333333333333336</ele><time>2026-04-06T11:03:50Z</time></trkpt><trkpt lat="51.21408783373942" lon="5.187416358065043"><ele>30.666666666666668</ele><time>2026-04-06T11:03:51Z</time></trkpt><trkpt lat="51.214153711269454" lon="5.187631384512805"><ele>31.0</ele><time>2026-04-06T11:03:52Z</time></trkpt><trkpt lat="51.21421926991271" lon="5.187846561991095"><ele>31.0</ele><time>2026-04-06T11:03:53Z</time></trkpt><trkpt lat="51.2142891653269" lon="5.18806011255168"><ele>31.0</ele><time>2026-04-06T11:03:54Z</time></trkpt><trkpt lat="51.21436917489955" lon="5.188283817719353"><ele>31.0</ele><time>2026-04-06T11:03:55Z</time></trkpt><trkpt lat="51.214440483727316" lon="5.188526095098783"><ele>31.0</ele><time>2026-04-06T11:03:56Z</time></trkpt><trkpt lat="51.21451714582187" lon="5.1887731446606145"><ele>31.0</ele><time>2026-04-06T11:03:57Z</time></trkpt><trkpt lat="51.21459486944392" lon="5.18902730527081"><ele>31.0</ele><time>2026-04-06T11:03:58Z</time></trkpt><trkpt lat="51.21467454541284" lon="5.189284389019578"><ele>31.333333333333336</ele><time>2026-04-06T11:03:59Z</time></trkpt><trkpt lat="51.21475428991962" lon="5.189547431238641"><ele>31.666666666666664</ele><time>2026-04-06T11:04:00Z</time></trkpt><trkpt lat="51.214833397315694" lon="5.189814331862917"><ele>32.0</ele><time>2026-04-06T11:04:01Z</time></trkpt><trkpt lat="51.21491163378116" lon="5.1900744666844245"><ele>32.33333333333333</ele><time>2026-04-06T11:04:02Z</time></trkpt><trkpt lat="51.21499129128265" lon="5.190325323691036"><ele>32.666666666666664</ele><time>2026-04-06T11:04:03Z</time></trkpt><trkpt lat="51.21506757848287" lon="5.190573051769897"><ele>33.0</ele><time>2026-04-06T11:04:04Z</time></trkpt><trkpt lat="51.21514265123303" lon="5.190818240092589"><ele>33.333333333333336</ele><time>2026-04-06T11:04:05Z</time></trkpt><trkpt lat="51.21521658395108" lon="5.191060797681654"><ele>33.66666666666667</ele><time>2026-04-06T11:04:06Z</time></trkpt><trkpt lat="51.215290920600964" lon="5.19130433023604"><ele>34.0</ele><time>2026-04-06T11:04:07Z</time></trkpt><trkpt lat="51.21536643486594" lon="5.191547930165756"><ele>34.0</ele><time>2026-04-06T11:04:08Z</time></trkpt><trkpt lat="51.21544384151362" lon="5.191798737387822"><ele>34.0</ele><time>2026-04-06T11:04:09Z</time></trkpt><trkpt lat="51.215523151775464" lon="5.192055361650799"><ele>34.0</ele><time>2026-04-06T11:04:10Z</time></trkpt><trkpt lat="51.21560068865496" lon="5.192316418812087"><ele>33.333333333333336</ele><time>2026-04-06T11:04:11Z</time></trkpt><trkpt lat="51.21568326394601" lon="5.1925643376845105"><ele>32.666666666666664</ele><time>2026-04-06T11:04:12Z</time></trkpt><trkpt lat="51.21576094623424" lon="5.19281027849282"><ele>32.0</ele><time>2026-04-06T11:04:13Z</time></trkpt><trkpt lat="51.215833523480335" lon="5.193052969003634"><ele>32.33333333333333</ele><time>2026-04-06T11:04:14Z</time></trkpt><trkpt lat="51.21590744647174" lon="5.193293461174583"><ele>32.666666666666664</ele><time>2026-04-06T11:04:15Z</time></trkpt><trkpt lat="51.21598313948409" lon="5.193538925762084"><ele>33.0</ele><time>2026-04-06T11:04:16Z</time></trkpt><trkpt lat="51.21606060031326" lon="5.193790741063918"><ele>33.333333333333336</ele><time>2026-04-06T11:04:17Z</time></trkpt><trkpt lat="51.216138045989204" lon="5.194042895081027"><ele>33.66666666666667</ele><time>2026-04-06T11:04:18Z</time></trkpt><trkpt lat="51.21621660728587" lon="5.194297456434817"><ele>34.0</ele><time>2026-04-06T11:04:19Z</time></trkpt><trkpt lat="51.21629429854803" lon="5.1945512362103035"><ele>34.0</ele><time>2026-04-06T11:04:20Z</time></trkpt><trkpt lat="51.21637279404987" lon="5.194803567661679"><ele>34.0</ele><time>2026-04-06T11:04:21Z</time></trkpt><trkpt lat="51.21645178880272" lon="5.195054077619832"><ele>34.0</ele><time>2026-04-06T11:04:22Z</time></trkpt><trkpt lat="51.216529930815526" lon="5.195304867189054"><ele>34.0</ele><time>2026-04-06T11:04:23Z</time></trkpt><trkpt lat="51.2166085650929" lon="5.195552786203449"><ele>34.0</ele><time>2026-04-06T11:04:24Z</time></trkpt><trkpt lat="51.21668711410828" lon="5.195801406123282"><ele>34.0</ele><time>2026-04-06T11:04:25Z</time></trkpt><trkpt lat="51.216760987263896" lon="5.196048006718037"><ele>34.333333333333336</ele><time>2026-04-06T11:04:26Z</time></trkpt><trkpt lat="51.21683622134217" lon="5.19628954402637"><ele>34.666666666666664</ele><time>2026-04-06T11:04:27Z</time></trkpt><trkpt lat="51.21690578384548" lon="5.196512529043948"><ele>35.0</ele><time>2026-04-06T11:04:28Z</time></trkpt><trkpt lat="51.21696717759528" lon="5.196722266763606"><ele>35.0</ele><time>2026-04-06T11:04:29Z</time></trkpt><trkpt lat="51.217026583129574" lon="5.196917768516472"><ele>35.0</ele><time>2026-04-06T11:04:30Z</time></trkpt><trkpt lat="51.21708151644188" lon="5.197105412324503"><ele>35.0</ele><time>2026-04-06T11:04:31Z</time></trkpt><trkpt lat="51.217135376669596" lon="5.197274165680367"><ele>35.0</ele><time>2026-04-06T11:04:32Z</time></trkpt><trkpt lat="51.21718558757005" lon="5.1974333501187315"><ele>35.0</ele><time>2026-04-06T11:04:33Z</time></trkpt><trkpt lat="51.217238845068145" lon="5.197594072345593"><ele>35.0</ele><time>2026-04-06T11:04:34Z</time></trkpt><trkpt lat="51.21729030253543" lon="5.197757401290549"><ele>35.0</ele><time>2026-04-06T11:04:35Z</time></trkpt><trkpt lat="51.21733910665733" lon="5.197922957203765"><ele>35.0</ele><time>2026-04-06T11:04:36Z</time></trkpt><trkpt lat="51.21738998114789" lon="5.198092200942551"><ele>34.5</ele><time>2026-04-06T11:04:37Z</time></trkpt><trkpt lat="51.217441198287155" lon="5.198263626647424"><ele>34.0</ele><time>2026-04-06T11:04:38Z</time></trkpt><trkpt lat="51.217493468120814" lon="5.1984342583330845"><ele>33.5</ele><time>2026-04-06T11:04:39Z</time></trkpt><trkpt lat="51.217547174356945" lon="5.198605767799624"><ele>33.0</ele><time>2026-04-06T11:04:40Z</time></trkpt><trkpt lat="51.217603680504226" lon="5.198782560151654"><ele>33.0</ele><time>2026-04-06T11:04:41Z</time></trkpt><trkpt lat="51.217662104988534" lon="5.198966089675084"><ele>33.0</ele><time>2026-04-06T11:04:42Z</time></trkpt><trkpt lat="51.217717563848844" lon="5.199148246353205"><ele>33.0</ele><time>2026-04-06T11:04:43Z</time></trkpt><trkpt lat="51.21777099874667" lon="5.199330215733865"><ele>33.0</ele><time>2026-04-06T11:04:44Z</time></trkpt><trkpt lat="51.217827787964566" lon="5.1995110709155945"><ele>33.25</ele><time>2026-04-06T11:04:45Z</time></trkpt><trkpt lat="51.2178835041613" lon="5.1996928291205995"><ele>33.5</ele><time>2026-04-06T11:04:46Z</time></trkpt><trkpt lat="51.21793849779846" lon="5.199872627376443"><ele>33.75</ele><time>2026-04-06T11:04:47Z</time></trkpt><trkpt lat="51.21799488752736" lon="5.200053382376228"><ele>34.0</ele><time>2026-04-06T11:04:48Z</time></trkpt><trkpt lat="51.218049528055204" lon="5.200233045823701"><ele>34.0</ele><time>2026-04-06T11:04:49Z</time></trkpt><trkpt lat="51.218106975924776" lon="5.200414889261348"><ele>34.0</ele><time>2026-04-06T11:04:50Z</time></trkpt><trkpt lat="51.218162839814" lon="5.200601258879676"><ele>34.0</ele><time>2026-04-06T11:04:51Z</time></trkpt><trkpt lat="51.21822185554784" lon="5.200788884400237"><ele>34.0</ele><time>2026-04-06T11:04:52Z</time></trkpt><trkpt lat="51.2182816730916" lon="5.200976725525675"><ele>34.5</ele><time>2026-04-06T11:04:53Z</time></trkpt><trkpt lat="51.21833957105342" lon="5.201168307709043"><ele>35.0</ele><time>2026-04-06T11:04:54Z</time></trkpt><trkpt lat="51.218397658698436" lon="5.201359335326685"><ele>35.5</ele><time>2026-04-06T11:04:55Z</time></trkpt><trkpt lat="51.21845674376624" lon="5.201549459684103"><ele>36.0</ele><time>2026-04-06T11:04:56Z</time></trkpt><trkpt lat="51.21851614966797" lon="5.201740245077059"><ele>36.0</ele><time>2026-04-06T11:04:57Z</time></trkpt><trkpt lat="51.21857515499258" lon="5.201931983027395"><ele>36.0</ele><time>2026-04-06T11:04:58Z</time></trkpt><trkpt lat="51.21863488362702" lon="5.202123894368069"><ele>36.0</ele><time>2026-04-06T11:04:59Z</time></trkpt><trkpt lat="51.21869400811001" lon="5.202314858564626"><ele>36.0</ele><time>2026-04-06T11:05:00Z</time></trkpt><trkpt lat="51.218753853851474" lon="5.2025060889774295"><ele>36.0</ele><time>2026-04-06T11:05:01Z</time></trkpt><trkpt lat="51.218813033893106" lon="5.202693427144843"><ele>36.0</ele><time>2026-04-06T11:05:02Z</time></trkpt><trkpt lat="51.21886973310042" lon="5.202888556327434"><ele>36.0</ele><time>2026-04-06T11:05:03Z</time></trkpt><trkpt lat="51.21892873425753" lon="5.203083558129432"><ele>36.0</ele><time>2026-04-06T11:05:04Z</time></trkpt><trkpt lat="51.218989129229705" lon="5.203274271652219"><ele>36.0</ele><time>2026-04-06T11:05:05Z</time></trkpt><trkpt lat="51.219047750060824" lon="5.20346607546201"><ele>36.0</ele><time>2026-04-06T11:05:06Z</time></trkpt><trkpt lat="51.219106414410106" lon="5.203656715996916"><ele>36.0</ele><time>2026-04-06T11:05:07Z</time></trkpt><trkpt lat="51.219164740694765" lon="5.203849046860727"><ele>36.0</ele><time>2026-04-06T11:05:08Z</time></trkpt><trkpt lat="51.21922190169703" lon="5.2040368723144335"><ele>35.75</ele><time>2026-04-06T11:05:09Z</time></trkpt><trkpt lat="51.2192798747736" lon="5.204224604419768"><ele>35.5</ele><time>2026-04-06T11:05:10Z</time></trkpt><trkpt lat="51.21933723200402" lon="5.20441158450283"><ele>35.25</ele><time>2026-04-06T11:05:11Z</time></trkpt><trkpt lat="51.219396741703804" lon="5.204596111232091"><ele>35.0</ele><time>2026-04-06T11:05:12Z</time></trkpt><trkpt lat="51.21945607935917" lon="5.204784456196496"><ele>35.0</ele><time>2026-04-06T11:05:13Z</time></trkpt><trkpt lat="51.219513338916066" lon="5.204973119503303"><ele>35.0</ele><time>2026-04-06T11:05:14Z</time></trkpt><trkpt lat="51.21956786318317" lon="5.205161253712905"><ele>35.0</ele><time>2026-04-06T11:05:15Z</time></trkpt><trkpt lat="51.21962655629922" lon="5.205347133366212"><ele>35.0</ele><time>2026-04-06T11:05:16Z</time></trkpt><trkpt lat="51.21968132599464" lon="5.205536427160969"><ele>35.25</ele><time>2026-04-06T11:05:17Z</time></trkpt><trkpt lat="51.21973663372507" lon="5.205724564206798"><ele>35.5</ele><time>2026-04-06T11:05:18Z</time></trkpt><trkpt lat="51.21979506231688" lon="5.205909796731298"><ele>35.75</ele><time>2026-04-06T11:05:19Z</time></trkpt><trkpt lat="51.21985248834675" lon="5.20609410943562"><ele>36.0</ele><time>2026-04-06T11:05:20Z</time></trkpt><trkpt lat="51.219906838159325" lon="5.206276636282313"><ele>36.0</ele><time>2026-04-06T11:05:21Z</time></trkpt><trkpt lat="51.219960089279745" lon="5.206449651154944"><ele>36.0</ele><time>2026-04-06T11:05:22Z</time></trkpt><trkpt lat="51.22000765808335" lon="5.206606835387718"><ele>36.0</ele><time>2026-04-06T11:05:23Z</time></trkpt><trkpt lat="51.220040111982634" lon="5.206712979954257"><ele>36.0</ele><time>2026-04-06T11:05:24Z</time></trkpt><trkpt lat="51.22007095483698" lon="5.206809344425345"><ele>36.0</ele><time>2026-04-06T11:05:26Z</time></trkpt><trkpt lat="51.220106972769955" lon="5.206922981525242"><ele>36.0</ele><time>2026-04-06T11:05:30Z</time></trkpt><trkpt lat="51.220152683527836" lon="5.207079651366835"><ele>36.0</ele><time>2026-04-06T11:05:32Z</time></trkpt><trkpt lat="51.22018728802332" lon="5.207189278545697"><ele>36.0</ele><time>2026-04-06T11:05:33Z</time></trkpt><trkpt lat="51.22023068109025" lon="5.207328034850137"><ele>36.0</ele><time>2026-04-06T11:05:34Z</time></trkpt><trkpt lat="51.22028175303159" lon="5.207497536771391"><ele>36.0</ele><time>2026-04-06T11:05:35Z</time></trkpt><trkpt lat="51.22033861823389" lon="5.207684733343631"><ele>36.0</ele><time>2026-04-06T11:05:36Z</time></trkpt><trkpt lat="51.220392364133716" lon="5.207863498950829"><ele>36.0</ele><time>2026-04-06T11:05:37Z</time></trkpt><trkpt lat="51.22045251044588" lon="5.208060394397921"><ele>36.0</ele><time>2026-04-06T11:05:38Z</time></trkpt><trkpt lat="51.22051917685298" lon="5.2082758768495845"><ele>36.0</ele><time>2026-04-06T11:05:39Z</time></trkpt><trkpt lat="51.22059167511364" lon="5.208510723530028"><ele>36.0</ele><time>2026-04-06T11:05:40Z</time></trkpt><trkpt lat="51.22066343538193" lon="5.208745435823349"><ele>36.0</ele><time>2026-04-06T11:05:41Z</time></trkpt><trkpt lat="51.22073447120136" lon="5.208976809712519"><ele>36.0</ele><time>2026-04-06T11:05:42Z</time></trkpt><trkpt lat="51.2208073270758" lon="5.209215195281288"><ele>36.0</ele><time>2026-04-06T11:05:43Z</time></trkpt><trkpt lat="51.22088336752165" lon="5.209459310878697"><ele>36.0</ele><time>2026-04-06T11:05:44Z</time></trkpt><trkpt lat="51.2209615088592" lon="5.209706494054517"><ele>36.0</ele><time>2026-04-06T11:05:45Z</time></trkpt><trkpt lat="51.22103562832309" lon="5.209948233267912"><ele>36.0</ele><time>2026-04-06T11:05:46Z</time></trkpt><trkpt lat="51.22110848595802" lon="5.210183804575123"><ele>36.0</ele><time>2026-04-06T11:05:47Z</time></trkpt><trkpt lat="51.221180962525295" lon="5.21041660191196"><ele>36.0</ele><time>2026-04-06T11:05:48Z</time></trkpt><trkpt lat="51.22125068091721" lon="5.210647250134043"><ele>36.333333333333336</ele><time>2026-04-06T11:05:49Z</time></trkpt><trkpt lat="51.22132143011717" lon="5.210874118188331"><ele>36.66666666666667</ele><time>2026-04-06T11:05:50Z</time></trkpt><trkpt lat="51.221391419901074" lon="5.211097159267929"><ele>37.0</ele><time>2026-04-06T11:05:51Z</time></trkpt><trkpt lat="51.22146342390404" lon="5.211324203832319"><ele>37.0</ele><time>2026-04-06T11:05:52Z</time></trkpt><trkpt lat="51.2215284862502" lon="5.211559059220906"><ele>37.0</ele><time>2026-04-06T11:05:53Z</time></trkpt><trkpt lat="51.22160157731621" lon="5.211801063540782"><ele>37.0</ele><time>2026-04-06T11:05:54Z</time></trkpt><trkpt lat="51.221675761481954" lon="5.212043387136768"><ele>37.0</ele><time>2026-04-06T11:05:55Z</time></trkpt><trkpt lat="51.221750596568235" lon="5.212285100722144"><ele>37.0</ele><time>2026-04-06T11:05:56Z</time></trkpt><trkpt lat="51.22182246205348" lon="5.2125260643988325"><ele>37.0</ele><time>2026-04-06T11:05:57Z</time></trkpt><trkpt lat="51.22189833298192" lon="5.212767325499467"><ele>37.0</ele><time>2026-04-06T11:05:58Z</time></trkpt><trkpt lat="51.22197086573986" lon="5.213009260101454"><ele>37.0</ele><time>2026-04-06T11:05:59Z</time></trkpt><trkpt lat="51.222043227928154" lon="5.213252352527111"><ele>37.0</ele><time>2026-04-06T11:06:00Z</time></trkpt><trkpt lat="51.222115577857934" lon="5.2134931990218965"><ele>37.0</ele><time>2026-04-06T11:06:01Z</time></trkpt><trkpt lat="51.222191289432274" lon="5.213732572202246"><ele>37.0</ele><time>2026-04-06T11:06:02Z</time></trkpt><trkpt lat="51.22226657055914" lon="5.213971271706103"><ele>37.0</ele><time>2026-04-06T11:06:03Z</time></trkpt><trkpt lat="51.222332004810724" lon="5.214218549090302"><ele>37.0</ele><time>2026-04-06T11:06:04Z</time></trkpt><trkpt lat="51.2223851697101" lon="5.214472355950474"><ele>37.0</ele><time>2026-04-06T11:06:05Z</time></trkpt><trkpt lat="51.222428905860845" lon="5.214736798773145"><ele>37.0</ele><time>2026-04-06T11:06:06Z</time></trkpt><trkpt lat="51.22246192163359" lon="5.215010292514857"><ele>37.66666666666667</ele><time>2026-04-06T11:06:07Z</time></trkpt><trkpt lat="51.222495546813775" lon="5.215284421768459"><ele>38.333333333333336</ele><time>2026-04-06T11:06:08Z</time></trkpt><trkpt lat="51.2225320793428" lon="5.2155634356001634"><ele>39.0</ele><time>2026-04-06T11:06:09Z</time></trkpt><trkpt lat="51.22256885056811" lon="5.2158420472416935"><ele>39.333333333333336</ele><time>2026-04-06T11:06:10Z</time></trkpt><trkpt lat="51.222607340414726" lon="5.216121555999404"><ele>39.66666666666667</ele><time>2026-04-06T11:06:11Z</time></trkpt><trkpt lat="51.22264695442575" lon="5.216401197993578"><ele>40.0</ele><time>2026-04-06T11:06:12Z</time></trkpt><trkpt lat="51.22268480591101" lon="5.216679337961621"><ele>40.0</ele><time>2026-04-06T11:06:13Z</time></trkpt><trkpt lat="51.222724026206095" lon="5.216955304549128"><ele>40.0</ele><time>2026-04-06T11:06:14Z</time></trkpt><trkpt lat="51.222762637502655" lon="5.217231211535171"><ele>40.0</ele><time>2026-04-06T11:06:15Z</time></trkpt><trkpt lat="51.222799326158494" lon="5.217511078486298"><ele>40.333333333333336</ele><time>2026-04-06T11:06:16Z</time></trkpt><trkpt lat="51.22283514959682" lon="5.217799246978238"><ele>40.666666666666664</ele><time>2026-04-06T11:06:17Z</time></trkpt><trkpt lat="51.222875626055064" lon="5.218088819022542"><ele>41.0</ele><time>2026-04-06T11:06:18Z</time></trkpt><trkpt lat="51.22291645577142" lon="5.218378711394535"><ele>41.33333333333333</ele><time>2026-04-06T11:06:19Z</time></trkpt><trkpt lat="51.22295643875128" lon="5.218665700638912"><ele>41.666666666666664</ele><time>2026-04-06T11:06:20Z</time></trkpt><trkpt lat="51.22299171774314" lon="5.218950911273097"><ele>42.0</ele><time>2026-04-06T11:06:21Z</time></trkpt><trkpt lat="51.223034879521265" lon="5.219229490991846"><ele>42.0</ele><time>2026-04-06T11:06:22Z</time></trkpt><trkpt lat="51.22308712030835" lon="5.219504058681086"><ele>42.0</ele><time>2026-04-06T11:06:23Z</time></trkpt><trkpt lat="51.22313610887514" lon="5.2197795278895125"><ele>42.0</ele><time>2026-04-06T11:06:24Z</time></trkpt><trkpt lat="51.223175733493484" lon="5.2200585556157995"><ele>42.0</ele><time>2026-04-06T11:06:25Z</time></trkpt><trkpt lat="51.22321234824732" lon="5.220337333304547"><ele>42.0</ele><time>2026-04-06T11:06:26Z</time></trkpt><trkpt lat="51.22324972230889" lon="5.220617328320329"><ele>42.0</ele><time>2026-04-06T11:06:27Z</time></trkpt><trkpt lat="51.22328734396245" lon="5.220896071628666"><ele>42.0</ele><time>2026-04-06T11:06:28Z</time></trkpt><trkpt lat="51.22332568597629" lon="5.221176103103005"><ele>42.0</ele><time>2026-04-06T11:06:29Z</time></trkpt><trkpt lat="51.223362561863304" lon="5.22145561224264"><ele>42.0</ele><time>2026-04-06T11:06:30Z</time></trkpt><trkpt lat="51.22339950352599" lon="5.2217355284914895"><ele>42.0</ele><time>2026-04-06T11:06:31Z</time></trkpt><trkpt lat="51.223438759632145" lon="5.222013862987275"><ele>42.0</ele><time>2026-04-06T11:06:32Z</time></trkpt><trkpt lat="51.223473297788225" lon="5.2222917505400925"><ele>42.0</ele><time>2026-04-06T11:06:33Z</time></trkpt><trkpt lat="51.223506063197675" lon="5.222556983928444"><ele>42.0</ele><time>2026-04-06T11:06:34Z</time></trkpt><trkpt lat="51.2235396160947" lon="5.222801819517338"><ele>42.0</ele><time>2026-04-06T11:06:35Z</time></trkpt><trkpt lat="51.22357161139428" lon="5.223045460180765"><ele>42.0</ele><time>2026-04-06T11:06:36Z</time></trkpt><trkpt lat="51.22360199975178" lon="5.223283317870489"><ele>41.75</ele><time>2026-04-06T11:06:37Z</time></trkpt><trkpt lat="51.22363233532291" lon="5.223516113397688"><ele>41.5</ele><time>2026-04-06T11:06:38Z</time></trkpt><trkpt lat="51.22365971402974" lon="5.22374530366405"><ele>41.25</ele><time>2026-04-06T11:06:39Z</time></trkpt><trkpt lat="51.22369468774098" lon="5.223979903400649"><ele>41.0</ele><time>2026-04-06T11:06:40Z</time></trkpt><trkpt lat="51.22371524920609" lon="5.224231530996971"><ele>41.0</ele><time>2026-04-06T11:06:41Z</time></trkpt><trkpt lat="51.22374026713571" lon="5.224492808754538"><ele>41.0</ele><time>2026-04-06T11:06:42Z</time></trkpt><trkpt lat="51.22379155093761" lon="5.224753565592208"><ele>41.0</ele><time>2026-04-06T11:06:43Z</time></trkpt><trkpt lat="51.223841427638604" lon="5.225032012143794"><ele>41.0</ele><time>2026-04-06T11:06:44Z</time></trkpt><trkpt lat="51.22388021112555" lon="5.225318616699419"><ele>41.0</ele><time>2026-04-06T11:06:45Z</time></trkpt><trkpt lat="51.22391629762871" lon="5.225597616418606"><ele>41.0</ele><time>2026-04-06T11:06:46Z</time></trkpt><trkpt lat="51.223953505656844" lon="5.225868899172431"><ele>40.666666666666664</ele><time>2026-04-06T11:06:47Z</time></trkpt><trkpt lat="51.22398857731187" lon="5.226133392056847"><ele>40.333333333333336</ele><time>2026-04-06T11:06:48Z</time></trkpt><trkpt lat="51.224023644773666" lon="5.226391664575592"><ele>40.0</ele><time>2026-04-06T11:06:49Z</time></trkpt><trkpt lat="51.22405807438589" lon="5.226644825488528"><ele>39.66666666666667</ele><time>2026-04-06T11:06:50Z</time></trkpt><trkpt lat="51.22409081323645" lon="5.226893453492194"><ele>39.333333333333336</ele><time>2026-04-06T11:06:51Z</time></trkpt><trkpt lat="51.22412200310663" lon="5.227137567193319"><ele>39.0</ele><time>2026-04-06T11:06:52Z</time></trkpt><trkpt lat="51.22417243665585" lon="5.227376891489603"><ele>39.0</ele><time>2026-04-06T11:06:53Z</time></trkpt><trkpt lat="51.224208944613615" lon="5.22763211066593"><ele>39.0</ele><time>2026-04-06T11:06:54Z</time></trkpt><trkpt lat="51.224223760616454" lon="5.22790338739796"><ele>39.0</ele><time>2026-04-06T11:06:55Z</time></trkpt><trkpt lat="51.22426061702192" lon="5.228180657740792"><ele>39.0</ele><time>2026-04-06T11:06:56Z</time></trkpt><trkpt lat="51.22429706984862" lon="5.228456351674401"><ele>39.0</ele><time>2026-04-06T11:06:57Z</time></trkpt><trkpt lat="51.22433249721503" lon="5.228730281007065"><ele>39.0</ele><time>2026-04-06T11:06:58Z</time></trkpt><trkpt lat="51.224371182917636" lon="5.22900451745216"><ele>39.0</ele><time>2026-04-06T11:06:59Z</time></trkpt><trkpt lat="51.22441043126457" lon="5.2292814034598365"><ele>39.0</ele><time>2026-04-06T11:07:00Z</time></trkpt><trkpt lat="51.224448898716695" lon="5.229563803346064"><ele>39.0</ele><time>2026-04-06T11:07:01Z</time></trkpt><trkpt lat="51.22448712269978" lon="5.229846229093734"><ele>39.666666666666664</ele><time>2026-04-06T11:07:02Z</time></trkpt><trkpt lat="51.22452601782303" lon="5.230129303346336"><ele>40.33333333333333</ele><time>2026-04-06T11:07:03Z</time></trkpt><trkpt lat="51.22456327998747" lon="5.230413148230611"><ele>41.0</ele><time>2026-04-06T11:07:04Z</time></trkpt><trkpt lat="51.22460106924864" lon="5.2306942366665385"><ele>41.0</ele><time>2026-04-06T11:07:05Z</time></trkpt><trkpt lat="51.224640530767275" lon="5.230972264883909"><ele>41.0</ele><time>2026-04-06T11:07:06Z</time></trkpt><trkpt lat="51.22467977838495" lon="5.23124870080412"><ele>41.0</ele><time>2026-04-06T11:07:07Z</time></trkpt><trkpt lat="51.224715432256325" lon="5.231526229345314"><ele>41.0</ele><time>2026-04-06T11:07:08Z</time></trkpt><trkpt lat="51.22475059021683" lon="5.231802533853664"><ele>41.0</ele><time>2026-04-06T11:07:09Z</time></trkpt><trkpt lat="51.22479072825174" lon="5.232077662098778"><ele>41.0</ele><time>2026-04-06T11:07:10Z</time></trkpt><trkpt lat="51.22482921050223" lon="5.232354565411597"><ele>41.33333333333333</ele><time>2026-04-06T11:07:11Z</time></trkpt><trkpt lat="51.22486705182453" lon="5.23263135519413"><ele>41.666666666666664</ele><time>2026-04-06T11:07:12Z</time></trkpt><trkpt lat="51.224905556864314" lon="5.232909410809912"><ele>42.0</ele><time>2026-04-06T11:07:13Z</time></trkpt><trkpt lat="51.224959500146916" lon="5.233183075128315"><ele>42.0</ele><time>2026-04-06T11:07:14Z</time></trkpt><trkpt lat="51.22499819859487" lon="5.233463584454067"><ele>42.0</ele><time>2026-04-06T11:07:15Z</time></trkpt><trkpt lat="51.22503724038677" lon="5.233746690101241"><ele>42.0</ele><time>2026-04-06T11:07:16Z</time></trkpt><trkpt lat="51.22507551265543" lon="5.234030190803923"><ele>41.666666666666664</ele><time>2026-04-06T11:07:17Z</time></trkpt><trkpt lat="51.22511486090974" lon="5.234312859693814"><ele>41.33333333333333</ele><time>2026-04-06T11:07:18Z</time></trkpt><trkpt lat="51.22515310161742" lon="5.23459750437378"><ele>41.0</ele><time>2026-04-06T11:07:19Z</time></trkpt><trkpt lat="51.2251918224124" lon="5.234883805461498"><ele>41.0</ele><time>2026-04-06T11:07:20Z</time></trkpt><trkpt lat="51.2252318423417" lon="5.235170242936187"><ele>41.0</ele><time>2026-04-06T11:07:21Z</time></trkpt><trkpt lat="51.22527103425573" lon="5.235456352127877"><ele>41.0</ele><time>2026-04-06T11:07:22Z</time></trkpt><trkpt lat="51.22530909307019" lon="5.2357377963787854"><ele>40.666666666666664</ele><time>2026-04-06T11:07:23Z</time></trkpt><trkpt lat="51.22534617127508" lon="5.236015401430591"><ele>40.333333333333336</ele><time>2026-04-06T11:07:24Z</time></trkpt><trkpt lat="51.2253839784382" lon="5.236291061607691"><ele>40.0</ele><time>2026-04-06T11:07:25Z</time></trkpt><trkpt lat="51.225422223472954" lon="5.236569801673706"><ele>40.0</ele><time>2026-04-06T11:07:26Z</time></trkpt><trkpt lat="51.225460287669186" lon="5.23684856172622"><ele>40.0</ele><time>2026-04-06T11:07:27Z</time></trkpt><trkpt lat="51.22549909477219" lon="5.237127840375098"><ele>40.0</ele><time>2026-04-06T11:07:28Z</time></trkpt><trkpt lat="51.22553748781591" lon="5.237410805529989"><ele>39.66666666666667</ele><time>2026-04-06T11:07:29Z</time></trkpt><trkpt lat="51.225576068506165" lon="5.237692797829321"><ele>39.333333333333336</ele><time>2026-04-06T11:07:30Z</time></trkpt><trkpt lat="51.22561683493371" lon="5.237977159841998"><ele>39.0</ele><time>2026-04-06T11:07:31Z</time></trkpt><trkpt lat="51.22565583746104" lon="5.238263570469875"><ele>39.0</ele><time>2026-04-06T11:07:32Z</time></trkpt><trkpt lat="51.225695329847525" lon="5.238556258719131"><ele>39.0</ele><time>2026-04-06T11:07:33Z</time></trkpt><trkpt lat="51.225711744585084" lon="5.238858651402402"><ele>39.0</ele><time>2026-04-06T11:07:34Z</time></trkpt><trkpt lat="51.225753905035" lon="5.239155338398609"><ele>39.0</ele><time>2026-04-06T11:07:35Z</time></trkpt><trkpt lat="51.22579443903153" lon="5.239452703536288"><ele>39.0</ele><time>2026-04-06T11:07:36Z</time></trkpt><trkpt lat="51.225834572526324" lon="5.23974979259487"><ele>39.0</ele><time>2026-04-06T11:07:37Z</time></trkpt><trkpt lat="51.22587439332552" lon="5.240042927855554"><ele>39.0</ele><time>2026-04-06T11:07:38Z</time></trkpt><trkpt lat="51.22591466889858" lon="5.240332547491455"><ele>39.0</ele><time>2026-04-06T11:07:39Z</time></trkpt><trkpt lat="51.225954761796395" lon="5.240616780350144"><ele>39.0</ele><time>2026-04-06T11:07:40Z</time></trkpt><trkpt lat="51.22599281077972" lon="5.24089393629594"><ele>39.333333333333336</ele><time>2026-04-06T11:07:41Z</time></trkpt><trkpt lat="51.226029449540654" lon="5.241164878626676"><ele>39.66666666666667</ele><time>2026-04-06T11:07:42Z</time></trkpt><trkpt lat="51.2260653478417" lon="5.241430234480214"><ele>40.0</ele><time>2026-04-06T11:07:43Z</time></trkpt><trkpt lat="51.22610135095934" lon="5.2416928783497045"><ele>40.333333333333336</ele><time>2026-04-06T11:07:44Z</time></trkpt><trkpt lat="51.226135735863245" lon="5.241952001697355"><ele>40.666666666666664</ele><time>2026-04-06T11:07:45Z</time></trkpt><trkpt lat="51.2261705474968" lon="5.242208547799518"><ele>41.0</ele><time>2026-04-06T11:07:46Z</time></trkpt><trkpt lat="51.22620309790427" lon="5.242450140949607"><ele>41.0</ele><time>2026-04-06T11:07:47Z</time></trkpt><trkpt lat="51.22623337483537" lon="5.242674849978691"><ele>41.0</ele><time>2026-04-06T11:07:48Z</time></trkpt><trkpt lat="51.22626281754314" lon="5.242890433731509"><ele>41.0</ele><time>2026-04-06T11:07:49Z</time></trkpt><trkpt lat="51.22629306131086" lon="5.243089437475501"><ele>41.0</ele><time>2026-04-06T11:07:50Z</time></trkpt><trkpt lat="51.22632317024709" lon="5.243291755747898"><ele>40.75</ele><time>2026-04-06T11:07:51Z</time></trkpt><trkpt lat="51.226352135460964" lon="5.243499822205913"><ele>40.5</ele><time>2026-04-06T11:07:52Z</time></trkpt><trkpt lat="51.226373925233574" lon="5.243714296823207"><ele>40.25</ele><time>2026-04-06T11:07:53Z</time></trkpt><trkpt lat="51.22638895805554" lon="5.243932981279357"><ele>40.0</ele><time>2026-04-06T11:07:54Z</time></trkpt><trkpt lat="51.22641053464601" lon="5.244148106726618"><ele>40.0</ele><time>2026-04-06T11:07:55Z</time></trkpt><trkpt lat="51.226442685610486" lon="5.244360952715561"><ele>40.0</ele><time>2026-04-06T11:07:56Z</time></trkpt><trkpt lat="51.22648627620017" lon="5.244563990155021"><ele>40.0</ele><time>2026-04-06T11:07:57Z</time></trkpt><trkpt lat="51.22652725701476" lon="5.244770321770795"><ele>40.0</ele><time>2026-04-06T11:07:58Z</time></trkpt><trkpt lat="51.226556942139105" lon="5.244979093521485"><ele>40.25</ele><time>2026-04-06T11:07:59Z</time></trkpt><trkpt lat="51.22658323714719" lon="5.245189184235133"><ele>40.5</ele><time>2026-04-06T11:08:00Z</time></trkpt><trkpt lat="51.2266128020498" lon="5.245398368203426"><ele>40.75</ele><time>2026-04-06T11:08:01Z</time></trkpt><trkpt lat="51.226640832020976" lon="5.245607283868604"><ele>41.0</ele><time>2026-04-06T11:08:02Z</time></trkpt><trkpt lat="51.226670194053476" lon="5.245815568630819"><ele>41.25</ele><time>2026-04-06T11:08:03Z</time></trkpt><trkpt lat="51.22669867516983" lon="5.24602319937895"><ele>41.5</ele><time>2026-04-06T11:08:04Z</time></trkpt><trkpt lat="51.22672700752567" lon="5.246230776988905"><ele>41.75</ele><time>2026-04-06T11:08:05Z</time></trkpt><trkpt lat="51.22675603378941" lon="5.24643690966581"><ele>42.0</ele><time>2026-04-06T11:08:06Z</time></trkpt><trkpt lat="51.2267832433768" lon="5.2466414573341265"><ele>42.25</ele><time>2026-04-06T11:08:07Z</time></trkpt><trkpt lat="51.22681110604137" lon="5.24684588061606"><ele>42.5</ele><time>2026-04-06T11:08:08Z</time></trkpt><trkpt lat="51.22683878694548" lon="5.247047791211906"><ele>42.75</ele><time>2026-04-06T11:08:09Z</time></trkpt><trkpt lat="51.22686667109791" lon="5.24725038217016"><ele>43.0</ele><time>2026-04-06T11:08:10Z</time></trkpt><trkpt lat="51.226894655804706" lon="5.247451018593154"><ele>43.25</ele><time>2026-04-06T11:08:11Z</time></trkpt><trkpt lat="51.226923088046256" lon="5.247649366472174"><ele>43.5</ele><time>2026-04-06T11:08:12Z</time></trkpt><trkpt lat="51.22694923506047" lon="5.247850265650628"><ele>43.75</ele><time>2026-04-06T11:08:13Z</time></trkpt><trkpt lat="51.22697673332645" lon="5.248048882267254"><ele>44.0</ele><time>2026-04-06T11:08:14Z</time></trkpt><trkpt lat="51.2270052801299" lon="5.248246829505169"><ele>44.0</ele><time>2026-04-06T11:08:15Z</time></trkpt><trkpt lat="51.227033964162075" lon="5.248445717750918"><ele>44.0</ele><time>2026-04-06T11:08:16Z</time></trkpt><trkpt lat="51.22706131431577" lon="5.248642917682312"><ele>44.0</ele><time>2026-04-06T11:08:17Z</time></trkpt><trkpt lat="51.22708900458968" lon="5.248840091524817"><ele>44.0</ele><time>2026-04-06T11:08:18Z</time></trkpt><trkpt lat="51.227116657188894" lon="5.249037274881541"><ele>43.75</ele><time>2026-04-06T11:08:19Z</time></trkpt><trkpt lat="51.22714520879318" lon="5.249235080719701"><ele>43.5</ele><time>2026-04-06T11:08:20Z</time></trkpt><trkpt lat="51.22717239643213" lon="5.24943831252501"><ele>43.25</ele><time>2026-04-06T11:08:21Z</time></trkpt><trkpt lat="51.22719850981731" lon="5.249648391647368"><ele>43.0</ele><time>2026-04-06T11:08:22Z</time></trkpt><trkpt lat="51.22721248149886" lon="5.2498653658170005"><ele>42.75</ele><time>2026-04-06T11:08:23Z</time></trkpt><trkpt lat="51.227233734825155" lon="5.250081869005648"><ele>42.5</ele><time>2026-04-06T11:08:24Z</time></trkpt><trkpt lat="51.22726808494137" lon="5.250298353607557"><ele>42.25</ele><time>2026-04-06T11:08:25Z</time></trkpt><trkpt lat="51.227307812521985" lon="5.250517306870322"><ele>42.0</ele><time>2026-04-06T11:08:26Z</time></trkpt><trkpt lat="51.227348916987715" lon="5.250751143329942"><ele>42.0</ele><time>2026-04-06T11:08:27Z</time></trkpt><trkpt lat="51.22738612498914" lon="5.251016765269557"><ele>42.0</ele><time>2026-04-06T11:08:28Z</time></trkpt><trkpt lat="51.22742487102847" lon="5.2513113883379905"><ele>42.0</ele><time>2026-04-06T11:08:29Z</time></trkpt><trkpt lat="51.22746521544885" lon="5.251610913024932"><ele>42.333333333333336</ele><time>2026-04-06T11:08:30Z</time></trkpt><trkpt lat="51.22750606401151" lon="5.251894193403153"><ele>42.66666666666667</ele><time>2026-04-06T11:08:31Z</time></trkpt><trkpt lat="51.22754815672489" lon="5.2521843863373245"><ele>43.0</ele><time>2026-04-06T11:08:32Z</time></trkpt><trkpt lat="51.22758760051517" lon="5.252467315063926"><ele>44.0</ele><time>2026-04-06T11:08:33Z</time></trkpt><trkpt lat="51.22762537630429" lon="5.252743603650155"><ele>45.0</ele><time>2026-04-06T11:08:34Z</time></trkpt><trkpt lat="51.22766112752398" lon="5.253014701185345"><ele>46.0</ele><time>2026-04-06T11:08:35Z</time></trkpt><trkpt lat="51.22769703651996" lon="5.253282271108732"><ele>46.333333333333336</ele><time>2026-04-06T11:08:36Z</time></trkpt><trkpt lat="51.22773259425694" lon="5.253546126761062"><ele>46.666666666666664</ele><time>2026-04-06T11:08:37Z</time></trkpt><trkpt lat="51.22776811412424" lon="5.253804800838927"><ele>47.0</ele><time>2026-04-06T11:08:38Z</time></trkpt><trkpt lat="51.227804842827716" lon="5.254062261738553"><ele>46.33333333333333</ele><time>2026-04-06T11:08:39Z</time></trkpt><trkpt lat="51.2278399573834" lon="5.25431874173653"><ele>45.666666666666664</ele><time>2026-04-06T11:08:40Z</time></trkpt><trkpt lat="51.22787306612471" lon="5.25458259306381"><ele>45.0</ele><time>2026-04-06T11:08:41Z</time></trkpt><trkpt lat="51.22790840521235" lon="5.254847902131194"><ele>45.0</ele><time>2026-04-06T11:08:42Z</time></trkpt><trkpt lat="51.227943669369836" lon="5.255115447451212"><ele>45.0</ele><time>2026-04-06T11:08:43Z</time></trkpt><trkpt lat="51.227980069112874" lon="5.255385693345502"><ele>45.0</ele><time>2026-04-06T11:08:44Z</time></trkpt><trkpt lat="51.22801816784005" lon="5.2556524512047575"><ele>45.333333333333336</ele><time>2026-04-06T11:08:45Z</time></trkpt><trkpt lat="51.228055905182046" lon="5.255918730058426"><ele>45.66666666666667</ele><time>2026-04-06T11:08:46Z</time></trkpt><trkpt lat="51.22809028676484" lon="5.2561832549521545"><ele>46.0</ele><time>2026-04-06T11:08:47Z</time></trkpt><trkpt lat="51.22812416201231" lon="5.256443097540349"><ele>45.66666666666667</ele><time>2026-04-06T11:08:48Z</time></trkpt><trkpt lat="51.22815816346613" lon="5.256697052791295"><ele>45.333333333333336</ele><time>2026-04-06T11:08:49Z</time></trkpt><trkpt lat="51.2281939640088" lon="5.256948609943664"><ele>45.0</ele><time>2026-04-06T11:08:50Z</time></trkpt><trkpt lat="51.22822828267463" lon="5.257201481721069"><ele>45.333333333333336</ele><time>2026-04-06T11:08:51Z</time></trkpt><trkpt lat="51.22825877341829" lon="5.257459014368654"><ele>45.66666666666667</ele><time>2026-04-06T11:08:52Z</time></trkpt><trkpt lat="51.228296794049776" lon="5.257715372854499"><ele>46.0</ele><time>2026-04-06T11:08:53Z</time></trkpt><trkpt lat="51.2283334609482" lon="5.257976100650412"><ele>46.0</ele><time>2026-04-06T11:08:54Z</time></trkpt><trkpt lat="51.22836731635656" lon="5.258240272098766"><ele>46.0</ele><time>2026-04-06T11:08:55Z</time></trkpt><trkpt lat="51.22840356184186" lon="5.2585039031828495"><ele>46.0</ele><time>2026-04-06T11:08:56Z</time></trkpt><trkpt lat="51.22843809504872" lon="5.2587655954454995"><ele>45.66666666666667</ele><time>2026-04-06T11:08:57Z</time></trkpt><trkpt lat="51.228473005625176" lon="5.25902613447397"><ele>45.333333333333336</ele><time>2026-04-06T11:08:58Z</time></trkpt><trkpt lat="51.22850698528141" lon="5.259282925058687"><ele>45.0</ele><time>2026-04-06T11:08:59Z</time></trkpt><trkpt lat="51.228542344499864" lon="5.259539657952049"><ele>44.333333333333336</ele><time>2026-04-06T11:09:00Z</time></trkpt><trkpt lat="51.228577793528096" lon="5.259799544698801"><ele>43.66666666666667</ele><time>2026-04-06T11:09:01Z</time></trkpt><trkpt lat="51.22861607649576" lon="5.260073902721555"><ele>43.0</ele><time>2026-04-06T11:09:02Z</time></trkpt><trkpt lat="51.22865373732489" lon="5.260355493472992"><ele>42.66666666666667</ele><time>2026-04-06T11:09:03Z</time></trkpt><trkpt lat="51.22869229682967" lon="5.260643608447212"><ele>42.333333333333336</ele><time>2026-04-06T11:09:04Z</time></trkpt><trkpt lat="51.22873150442811" lon="5.260924978566066"><ele>42.0</ele><time>2026-04-06T11:09:05Z</time></trkpt><trkpt lat="51.22877014158104" lon="5.261209397075425"><ele>42.333333333333336</ele><time>2026-04-06T11:09:06Z</time></trkpt><trkpt lat="51.22880942115833" lon="5.261497538790637"><ele>42.66666666666667</ele><time>2026-04-06T11:09:07Z</time></trkpt><trkpt lat="51.22884961406162" lon="5.261788052979168"><ele>43.0</ele><time>2026-04-06T11:09:08Z</time></trkpt><trkpt lat="51.22888918790359" lon="5.262080424408822"><ele>43.0</ele><time>2026-04-06T11:09:09Z</time></trkpt><trkpt lat="51.22892823605558" lon="5.262375686812816"><ele>43.0</ele><time>2026-04-06T11:09:10Z</time></trkpt><trkpt lat="51.22896636496673" lon="5.262671978419356"><ele>43.0</ele><time>2026-04-06T11:09:11Z</time></trkpt><trkpt lat="51.22900541677396" lon="5.262967961446778"><ele>43.0</ele><time>2026-04-06T11:09:12Z</time></trkpt><trkpt lat="51.22904544498728" lon="5.263261542670548"><ele>43.0</ele><time>2026-04-06T11:09:13Z</time></trkpt><trkpt lat="51.22908673093214" lon="5.26355227092061"><ele>43.0</ele><time>2026-04-06T11:09:14Z</time></trkpt><trkpt lat="51.229127156490506" lon="5.263840195074266"><ele>43.66666666666667</ele><time>2026-04-06T11:09:15Z</time></trkpt><trkpt lat="51.22916620631988" lon="5.264127775408244"><ele>44.333333333333336</ele><time>2026-04-06T11:09:16Z</time></trkpt><trkpt lat="51.2292034600735" lon="5.264417751908001"><ele>45.0</ele><time>2026-04-06T11:09:17Z</time></trkpt><trkpt lat="51.22923962655254" lon="5.264708918412366"><ele>45.333333333333336</ele><time>2026-04-06T11:09:18Z</time></trkpt><trkpt lat="51.22927723999408" lon="5.264999060403896"><ele>45.66666666666667</ele><time>2026-04-06T11:09:19Z</time></trkpt><trkpt lat="51.229317251699335" lon="5.2652876949164735"><ele>46.0</ele><time>2026-04-06T11:09:20Z</time></trkpt><trkpt lat="51.22935757923887" lon="5.26557666494095"><ele>45.66666666666667</ele><time>2026-04-06T11:09:21Z</time></trkpt><trkpt lat="51.229396937675865" lon="5.265864669517514"><ele>45.333333333333336</ele><time>2026-04-06T11:09:22Z</time></trkpt><trkpt lat="51.22943653218532" lon="5.266151618189229"><ele>45.0</ele><time>2026-04-06T11:09:23Z</time></trkpt><trkpt lat="51.22947551694486" lon="5.266438817879764"><ele>45.333333333333336</ele><time>2026-04-06T11:09:24Z</time></trkpt><trkpt lat="51.22951295556249" lon="5.266725318828298"><ele>45.66666666666667</ele><time>2026-04-06T11:09:25Z</time></trkpt><trkpt lat="51.22954957641468" lon="5.267010730535666"><ele>46.0</ele><time>2026-04-06T11:09:26Z</time></trkpt><trkpt lat="51.229585916530446" lon="5.267287727933592"><ele>46.0</ele><time>2026-04-06T11:09:27Z</time></trkpt><trkpt lat="51.22962166493574" lon="5.267541647604109"><ele>46.0</ele><time>2026-04-06T11:09:27.999Z</time></trkpt><trkpt lat="51.22965479117536" lon="5.267783169694177"><ele>46.0</ele><time>2026-04-06T11:09:28.999Z</time></trkpt><trkpt lat="51.22968518349726" lon="5.2680253848752745"><ele>46.0</ele><time>2026-04-06T11:09:29.999Z</time></trkpt><trkpt lat="51.22971504483778" lon="5.268264901249818"><ele>46.0</ele><time>2026-04-06T11:09:30.999Z</time></trkpt><trkpt lat="51.22975102008412" lon="5.268499292631625"><ele>46.0</ele><time>2026-04-06T11:09:31.999Z</time></trkpt><trkpt lat="51.229789003907236" lon="5.268728216337134"><ele>45.5</ele><time>2026-04-06T11:09:32.999Z</time></trkpt><trkpt lat="51.22982109948742" lon="5.2689583489893685"><ele>45.0</ele><time>2026-04-06T11:09:33.999Z</time></trkpt><trkpt lat="51.22984010939618" lon="5.2691866517381225"><ele>44.5</ele><time>2026-04-06T11:09:34.999Z</time></trkpt><trkpt lat="51.229853921022745" lon="5.269395271075061"><ele>44.0</ele><time>2026-04-06T11:09:35.999Z</time></trkpt><trkpt lat="51.22986352025016" lon="5.269588066284698"><ele>44.0</ele><time>2026-04-06T11:09:36.999Z</time></trkpt><trkpt lat="51.22986827290619" lon="5.269765511309187"><ele>44.0</ele><time>2026-04-06T11:09:37.999Z</time></trkpt><trkpt lat="51.22986898252508" lon="5.269922775932446"><ele>44.0</ele><time>2026-04-06T11:09:38.999Z</time></trkpt><trkpt lat="51.22987537985735" lon="5.27004709791081"><ele>44.0</ele><time>2026-04-06T11:09:39.999Z</time></trkpt><trkpt lat="51.2298922031752" lon="5.270170639698713"><ele>44.0</ele><time>2026-04-06T11:09:41.999Z</time></trkpt><trkpt lat="51.22991656393809" lon="5.270311577530406"><ele>44.166666666666664</ele><time>2026-04-06T11:09:44.999Z</time></trkpt><trkpt lat="51.22986533305622" lon="5.27042017423067"><ele>44.33333333333333</ele><time>2026-04-06T11:09:45.999Z</time></trkpt><trkpt lat="51.22984351230004" lon="5.270519043670154"><ele>44.5</ele><time>2026-04-06T11:09:46.999Z</time></trkpt><trkpt lat="51.22986433287719" lon="5.27061496142669"><ele>44.666666666666664</ele><time>2026-04-06T11:09:48Z</time></trkpt><trkpt lat="51.22991171843717" lon="5.270710975026069"><ele>44.833333333333336</ele><time>2026-04-06T11:09:49Z</time></trkpt><trkpt lat="51.22998179298484" lon="5.270822319641052"><ele>45.0</ele><time>2026-04-06T11:09:50Z</time></trkpt><trkpt lat="51.23002492243593" lon="5.270990816222316"><ele>45.25</ele><time>2026-04-06T11:09:51Z</time></trkpt><trkpt lat="51.230066362073245" lon="5.271200265641275"><ele>45.5</ele><time>2026-04-06T11:09:52Z</time></trkpt><trkpt lat="51.230110413206226" lon="5.2714002106012225"><ele>45.75</ele><time>2026-04-06T11:09:53Z</time></trkpt><trkpt lat="51.23015060046807" lon="5.27160608751902"><ele>46.0</ele><time>2026-04-06T11:09:54Z</time></trkpt><trkpt lat="51.23018076667502" lon="5.271824365426146"><ele>46.0</ele><time>2026-04-06T11:09:55Z</time></trkpt><trkpt lat="51.230210347038124" lon="5.272043556245245"><ele>46.0</ele><time>2026-04-06T11:09:56Z</time></trkpt><trkpt lat="51.23024202911874" lon="5.272267682338134"><ele>46.0</ele><time>2026-04-06T11:09:57Z</time></trkpt><trkpt lat="51.23027468987447" lon="5.27251090597533"><ele>46.0</ele><time>2026-04-06T11:09:58Z</time></trkpt><trkpt lat="51.230311307425296" lon="5.272777857085176"><ele>46.0</ele><time>2026-04-06T11:09:59Z</time></trkpt><trkpt lat="51.23036893773298" lon="5.273051871859488"><ele>46.0</ele><time>2026-04-06T11:10:00Z</time></trkpt><trkpt lat="51.230443060367826" lon="5.273303990135546"><ele>46.0</ele><time>2026-04-06T11:10:01Z</time></trkpt><trkpt lat="51.230529926423856" lon="5.27356399020047"><ele>45.66666666666667</ele><time>2026-04-06T11:10:02Z</time></trkpt><trkpt lat="51.23062153660855" lon="5.273823812037513"><ele>45.333333333333336</ele><time>2026-04-06T11:10:03Z</time></trkpt><trkpt lat="51.23071149188675" lon="5.274079768469769"><ele>45.0</ele><time>2026-04-06T11:10:04Z</time></trkpt><trkpt lat="51.23079954122859" lon="5.274331580893857"><ele>45.0</ele><time>2026-04-06T11:10:05Z</time></trkpt><trkpt lat="51.23088592626738" lon="5.274578289164447"><ele>45.0</ele><time>2026-04-06T11:10:06Z</time></trkpt><trkpt lat="51.23096961464438" lon="5.2748158907837635"><ele>45.0</ele><time>2026-04-06T11:10:07Z</time></trkpt><trkpt lat="51.23105146661692" lon="5.275045046824063"><ele>45.0</ele><time>2026-04-06T11:10:08Z</time></trkpt><trkpt lat="51.23113276974166" lon="5.27527668999706"><ele>45.0</ele><time>2026-04-06T11:10:09Z</time></trkpt><trkpt lat="51.23121240440507" lon="5.275511997910862"><ele>45.0</ele><time>2026-04-06T11:10:10Z</time></trkpt><trkpt lat="51.23129597242498" lon="5.275747766531149"><ele>45.0</ele><time>2026-04-06T11:10:11Z</time></trkpt><trkpt lat="51.23137962801642" lon="5.275985407161254"><ele>45.0</ele><time>2026-04-06T11:10:12Z</time></trkpt><trkpt lat="51.23146426209289" lon="5.276224774199323"><ele>45.0</ele><time>2026-04-06T11:10:13Z</time></trkpt><trkpt lat="51.23154798151919" lon="5.2764658485161915"><ele>45.333333333333336</ele><time>2026-04-06T11:10:14Z</time></trkpt><trkpt lat="51.231631358479554" lon="5.276708500447828"><ele>45.66666666666667</ele><time>2026-04-06T11:10:15Z</time></trkpt><trkpt lat="51.23171571868241" lon="5.276954041840913"><ele>46.0</ele><time>2026-04-06T11:10:16Z</time></trkpt><trkpt lat="51.231801034733294" lon="5.277199849316699"><ele>45.66666666666667</ele><time>2026-04-06T11:10:17Z</time></trkpt><trkpt lat="51.23188819302256" lon="5.277446227827611"><ele>45.333333333333336</ele><time>2026-04-06T11:10:18Z</time></trkpt><trkpt lat="51.23197611552203" lon="5.2776934222327405"><ele>45.0</ele><time>2026-04-06T11:10:19Z</time></trkpt><trkpt lat="51.23206307909439" lon="5.277942727586911"><ele>45.333333333333336</ele><time>2026-04-06T11:10:20Z</time></trkpt><trkpt lat="51.232146650635336" lon="5.278197047350119"><ele>45.66666666666667</ele><time>2026-04-06T11:10:21Z</time></trkpt><trkpt lat="51.23223446363394" lon="5.278447849352192"><ele>46.0</ele><time>2026-04-06T11:10:22Z</time></trkpt><trkpt lat="51.23232937642606" lon="5.278693412332299"><ele>46.66666666666667</ele><time>2026-04-06T11:10:23Z</time></trkpt><trkpt lat="51.23241922173433" lon="5.278945255052223"><ele>47.333333333333336</ele><time>2026-04-06T11:10:24Z</time></trkpt><trkpt lat="51.232499558680615" lon="5.2792066936448485"><ele>48.0</ele><time>2026-04-06T11:10:25Z</time></trkpt><trkpt lat="51.23256697134753" lon="5.2794774343820965"><ele>48.0</ele><time>2026-04-06T11:10:26Z</time></trkpt><trkpt lat="51.23262330611324" lon="5.279754884450576"><ele>48.0</ele><time>2026-04-06T11:10:27Z</time></trkpt><trkpt lat="51.23267814673779" lon="5.280035461283228"><ele>48.0</ele><time>2026-04-06T11:10:28Z</time></trkpt><trkpt lat="51.23273478312578" lon="5.280313618879742"><ele>48.0</ele><time>2026-04-06T11:10:29Z</time></trkpt><trkpt lat="51.23279247375447" lon="5.2805951469163555"><ele>48.0</ele><time>2026-04-06T11:10:30Z</time></trkpt><trkpt lat="51.23284694970027" lon="5.280877693432131"><ele>48.0</ele><time>2026-04-06T11:10:31Z</time></trkpt><trkpt lat="51.23290316076967" lon="5.281161553816202"><ele>48.33333333333333</ele><time>2026-04-06T11:10:31.999Z</time></trkpt><trkpt lat="51.23296264724806" lon="5.281445072232726"><ele>48.666666666666664</ele><time>2026-04-06T11:10:32.999Z</time></trkpt><trkpt lat="51.233020236387034" lon="5.281730998986792"><ele>49.0</ele><time>2026-04-06T11:10:33.999Z</time></trkpt><trkpt lat="51.23307911100387" lon="5.282017523917203"><ele>49.0</ele><time>2026-04-06T11:10:34.999Z</time></trkpt><trkpt lat="51.23313560794952" lon="5.282307087464137"><ele>49.0</ele><time>2026-04-06T11:10:35.999Z</time></trkpt><trkpt lat="51.233187393315774" lon="5.282601345181958"><ele>49.0</ele><time>2026-04-06T11:10:36.999Z</time></trkpt><trkpt lat="51.233224768734544" lon="5.282902843820236"><ele>49.33333333333333</ele><time>2026-04-06T11:10:37.999Z</time></trkpt><trkpt lat="51.233248325965334" lon="5.283207098127907"><ele>49.66666666666667</ele><time>2026-04-06T11:10:38.999Z</time></trkpt><trkpt lat="51.23325870877464" lon="5.283513291841987"><ele>50.0</ele><time>2026-04-06T11:10:39.999Z</time></trkpt><trkpt lat="51.23326359764882" lon="5.283821107089442"><ele>50.0</ele><time>2026-04-06T11:10:40.999Z</time></trkpt><trkpt lat="51.23326319589421" lon="5.284128251116017"><ele>50.0</ele><time>2026-04-06T11:10:41.999Z</time></trkpt><trkpt lat="51.23325272202" lon="5.284435217469906"><ele>50.0</ele><time>2026-04-06T11:10:42.999Z</time></trkpt><trkpt lat="51.233232871390044" lon="5.284740658060692"><ele>50.66666666666667</ele><time>2026-04-06T11:10:43.999Z</time></trkpt><trkpt lat="51.23320854855789" lon="5.285025283678506"><ele>51.33333333333333</ele><time>2026-04-06T11:10:44.999Z</time></trkpt><trkpt lat="51.23318432525499" lon="5.2852911438266625"><ele>52.0</ele><time>2026-04-06T11:10:45.999Z</time></trkpt><trkpt lat="51.23316494279267" lon="5.285542861445647"><ele>51.25</ele><time>2026-04-06T11:10:46.999Z</time></trkpt><trkpt lat="51.23313504370443" lon="5.285777094621897"><ele>50.5</ele><time>2026-04-06T11:10:47.999Z</time></trkpt><trkpt lat="51.23310082451041" lon="5.285996458749896"><ele>49.75</ele><time>2026-04-06T11:10:48.999Z</time></trkpt><trkpt lat="51.233073207435964" lon="5.286202585224067"><ele>49.0</ele><time>2026-04-06T11:10:49.999Z</time></trkpt><trkpt lat="51.2330526775732" lon="5.286396031621911"><ele>48.800000000000004</ele><time>2026-04-06T11:10:50.999Z</time></trkpt><trkpt lat="51.23303720191246" lon="5.286579727566139"><ele>48.6</ele><time>2026-04-06T11:10:51.999Z</time></trkpt><trkpt lat="51.23302348649886" lon="5.286759797127387"><ele>48.4</ele><time>2026-04-06T11:10:52.999Z</time></trkpt><trkpt lat="51.23301141526224" lon="5.286935152470351"><ele>48.2</ele><time>2026-04-06T11:10:53.999Z</time></trkpt><trkpt lat="51.23300374106805" lon="5.287105447918789"><ele>48.0</ele><time>2026-04-06T11:10:54.999Z</time></trkpt><trkpt lat="51.23300143937634" lon="5.287278502297153"><ele>48.0</ele><time>2026-04-06T11:10:55.999Z</time></trkpt><trkpt lat="51.232991641260405" lon="5.287455752945628"><ele>48.0</ele><time>2026-04-06T11:10:56.999Z</time></trkpt><trkpt lat="51.232972918020714" lon="5.28763465410697"><ele>48.0</ele><time>2026-04-06T11:10:57.999Z</time></trkpt><trkpt lat="51.23295262295847" lon="5.287817252126514"><ele>48.0</ele><time>2026-04-06T11:10:58.999Z</time></trkpt><trkpt lat="51.23293609944205" lon="5.288011025213963"><ele>47.75</ele><time>2026-04-06T11:10:59.999Z</time></trkpt><trkpt lat="51.23291866831328" lon="5.288214046869185"><ele>47.5</ele><time>2026-04-06T11:11:00.999Z</time></trkpt><trkpt lat="51.23290031790921" lon="5.288423588649761"><ele>47.25</ele><time>2026-04-06T11:11:01.999Z</time></trkpt><trkpt lat="51.232882687705334" lon="5.288634325336048"><ele>47.0</ele><time>2026-04-06T11:11:02.999Z</time></trkpt><trkpt lat="51.2328629473506" lon="5.2888454567449665"><ele>47.0</ele><time>2026-04-06T11:11:03.999Z</time></trkpt><trkpt lat="51.23284375750092" lon="5.289058998141583"><ele>47.0</ele><time>2026-04-06T11:11:04.999Z</time></trkpt><trkpt lat="51.23282541122032" lon="5.2892748895376815"><ele>47.0</ele><time>2026-04-06T11:11:05.999Z</time></trkpt><trkpt lat="51.23281163867245" lon="5.289490127453181"><ele>47.0</ele><time>2026-04-06T11:11:06.999Z</time></trkpt><trkpt lat="51.23279396101607" lon="5.289704030326413"><ele>47.25</ele><time>2026-04-06T11:11:07.999Z</time></trkpt><trkpt lat="51.232779523465894" lon="5.289916154845629"><ele>47.5</ele><time>2026-04-06T11:11:08.999Z</time></trkpt><trkpt lat="51.23278548871588" lon="5.290129610353678"><ele>47.75</ele><time>2026-04-06T11:11:09.999Z</time></trkpt><trkpt lat="51.232799168930015" lon="5.290342703440855"><ele>48.0</ele><time>2026-04-06T11:11:10.999Z</time></trkpt><trkpt lat="51.232804422410794" lon="5.2905569953373215"><ele>47.75</ele><time>2026-04-06T11:11:11.999Z</time></trkpt><trkpt lat="51.23280075160625" lon="5.290771473165902"><ele>47.5</ele><time>2026-04-06T11:11:12.999Z</time></trkpt><trkpt lat="51.23279931800242" lon="5.290984269652508"><ele>47.25</ele><time>2026-04-06T11:11:14Z</time></trkpt><trkpt lat="51.232811921190994" lon="5.291195350037532"><ele>47.0</ele><time>2026-04-06T11:11:15Z</time></trkpt><trkpt lat="51.232828714280096" lon="5.291408243767711"><ele>47.0</ele><time>2026-04-06T11:11:16Z</time></trkpt><trkpt lat="51.23284218817165" lon="5.291622918520195"><ele>47.0</ele><time>2026-04-06T11:11:17Z</time></trkpt><trkpt lat="51.23285302613328" lon="5.291839652766126"><ele>47.0</ele><time>2026-04-06T11:11:18Z</time></trkpt><trkpt lat="51.232859291973185" lon="5.292058320787722"><ele>47.0</ele><time>2026-04-06T11:11:19Z</time></trkpt><trkpt lat="51.23286642734899" lon="5.292276184501362"><ele>47.0</ele><time>2026-04-06T11:11:20Z</time></trkpt><trkpt lat="51.23287612970155" lon="5.2924937564563805"><ele>47.0</ele><time>2026-04-06T11:11:21Z</time></trkpt><trkpt lat="51.23288507078551" lon="5.292712779491233"><ele>47.0</ele><time>2026-04-06T11:11:22Z</time></trkpt><trkpt lat="51.23289273498609" lon="5.292931326543878"><ele>47.0</ele><time>2026-04-06T11:11:23Z</time></trkpt><trkpt lat="51.23290195951963" lon="5.293152351126619"><ele>46.75</ele><time>2026-04-06T11:11:24Z</time></trkpt><trkpt lat="51.232909649691756" lon="5.29337400041952"><ele>46.5</ele><time>2026-04-06T11:11:25Z</time></trkpt><trkpt lat="51.232916952247834" lon="5.2935967053093185"><ele>46.25</ele><time>2026-04-06T11:11:26Z</time></trkpt><trkpt lat="51.23292527293888" lon="5.293817374016125"><ele>46.0</ele><time>2026-04-06T11:11:27Z</time></trkpt><trkpt lat="51.23293452576606" lon="5.2940389472647"><ele>46.0</ele><time>2026-04-06T11:11:28Z</time></trkpt><trkpt lat="51.232942968802995" lon="5.2942593948372005"><ele>46.0</ele><time>2026-04-06T11:11:29Z</time></trkpt><trkpt lat="51.23295223870168" lon="5.2944808094102545"><ele>46.0</ele><time>2026-04-06T11:11:30Z</time></trkpt><trkpt lat="51.23296058430913" lon="5.294702148125304"><ele>46.0</ele><time>2026-04-06T11:11:31Z</time></trkpt><trkpt lat="51.232969890182005" lon="5.2949217366321655"><ele>46.0</ele><time>2026-04-06T11:11:32Z</time></trkpt><trkpt lat="51.23297928495788" lon="5.295142340507509"><ele>46.0</ele><time>2026-04-06T11:11:33Z</time></trkpt><trkpt lat="51.2329826391801" lon="5.2953626501618265"><ele>46.0</ele><time>2026-04-06T11:11:34Z</time></trkpt><trkpt lat="51.232967190627754" lon="5.295582468967397"><ele>46.0</ele><time>2026-04-06T11:11:35Z</time></trkpt><trkpt lat="51.232932069322885" lon="5.295795568368888"><ele>46.0</ele><time>2026-04-06T11:11:36Z</time></trkpt><trkpt lat="51.23289367090295" lon="5.296006022438355"><ele>46.0</ele><time>2026-04-06T11:11:37Z</time></trkpt><trkpt lat="51.23286195643196" lon="5.296218953805874"><ele>46.0</ele><time>2026-04-06T11:11:38Z</time></trkpt><trkpt lat="51.23282932618821" lon="5.296433000091756"><ele>46.0</ele><time>2026-04-06T11:11:39Z</time></trkpt><trkpt lat="51.23280069068022" lon="5.296646323227904"><ele>45.75</ele><time>2026-04-06T11:11:40Z</time></trkpt><trkpt lat="51.232769858168965" lon="5.29685476657146"><ele>45.5</ele><time>2026-04-06T11:11:41Z</time></trkpt><trkpt lat="51.23273992612546" lon="5.297042641929438"><ele>45.25</ele><time>2026-04-06T11:11:42Z</time></trkpt><trkpt lat="51.232710982957826" lon="5.297225794029549"><ele>45.0</ele><time>2026-04-06T11:11:43Z</time></trkpt><trkpt lat="51.2326825374123" lon="5.297405816550114"><ele>45.0</ele><time>2026-04-06T11:11:44Z</time></trkpt><trkpt lat="51.232654528863065" lon="5.297590109620711"><ele>45.0</ele><time>2026-04-06T11:11:45Z</time></trkpt><trkpt lat="51.23262473812065" lon="5.297779729270241"><ele>45.0</ele><time>2026-04-06T11:11:46Z</time></trkpt><trkpt lat="51.232594455684435" lon="5.2979723631703495"><ele>45.0</ele><time>2026-04-06T11:11:47Z</time></trkpt><trkpt lat="51.23256453745237" lon="5.298168434075284"><ele>45.0</ele><time>2026-04-06T11:11:48Z</time></trkpt><trkpt lat="51.23253447254824" lon="5.298366442398989"><ele>45.0</ele><time>2026-04-06T11:11:49Z</time></trkpt><trkpt lat="51.23250401656056" lon="5.298565965424078"><ele>45.0</ele><time>2026-04-06T11:11:50Z</time></trkpt><trkpt lat="51.232474102114146" lon="5.298767177978132"><ele>45.0</ele><time>2026-04-06T11:11:51Z</time></trkpt><trkpt lat="51.2324435757664" lon="5.298969311655644"><ele>45.5</ele><time>2026-04-06T11:11:52Z</time></trkpt><trkpt lat="51.23241152615969" lon="5.299171872985629"><ele>46.0</ele><time>2026-04-06T11:11:53Z</time></trkpt><trkpt lat="51.23237994504748" lon="5.29937598271454"><ele>46.5</ele><time>2026-04-06T11:11:54Z</time></trkpt><trkpt lat="51.23234879259753" lon="5.299581804104757"><ele>47.0</ele><time>2026-04-06T11:11:55Z</time></trkpt><trkpt lat="51.2323182286843" lon="5.299789650005423"><ele>47.0</ele><time>2026-04-06T11:11:56Z</time></trkpt><trkpt lat="51.232286710827104" lon="5.299997972988938"><ele>47.0</ele><time>2026-04-06T11:11:57Z</time></trkpt><trkpt lat="51.23225496381041" lon="5.300204054371171"><ele>47.0</ele><time>2026-04-06T11:11:58Z</time></trkpt><trkpt lat="51.23222361618702" lon="5.30040595713656"><ele>47.0</ele><time>2026-04-06T11:11:59Z</time></trkpt><trkpt lat="51.23219135080418" lon="5.300603810244786"><ele>47.0</ele><time>2026-04-06T11:12:00Z</time></trkpt><trkpt lat="51.232161361514216" lon="5.300798556391573"><ele>47.0</ele><time>2026-04-06T11:12:01Z</time></trkpt><trkpt lat="51.23213290874103" lon="5.3009880757542245"><ele>47.0</ele><time>2026-04-06T11:12:02Z</time></trkpt><trkpt lat="51.23210484307239" lon="5.30117296844248"><ele>47.0</ele><time>2026-04-06T11:12:03Z</time></trkpt><trkpt lat="51.23207712617755" lon="5.301353015996323"><ele>46.8</ele><time>2026-04-06T11:12:04Z</time></trkpt><trkpt lat="51.23205038119" lon="5.301527513731734"><ele>46.6</ele><time>2026-04-06T11:12:05Z</time></trkpt><trkpt lat="51.232024284006" lon="5.30168510889609"><ele>46.4</ele><time>2026-04-06T11:12:06Z</time></trkpt><trkpt lat="51.23200193519098" lon="5.301833577485627"><ele>46.199999999999996</ele><time>2026-04-06T11:12:07Z</time></trkpt><trkpt lat="51.23197867590714" lon="5.301973941066381"><ele>46.0</ele><time>2026-04-06T11:12:08Z</time></trkpt><trkpt lat="51.231957229032886" lon="5.302102522828565"><ele>46.0</ele><time>2026-04-06T11:12:09Z</time></trkpt><trkpt lat="51.231936206371174" lon="5.302222803044483"><ele>46.0</ele><time>2026-04-06T11:12:10Z</time></trkpt><trkpt lat="51.23191814154864" lon="5.302321211702896"><ele>46.0</ele><time>2026-04-06T11:12:11Z</time></trkpt><trkpt lat="51.23189933312726" lon="5.30244180224823"><ele>46.0</ele><time>2026-04-06T11:12:13Z</time></trkpt><trkpt lat="51.23188093415983" lon="5.3025718564517685"><ele>46.0</ele><time>2026-04-06T11:12:16Z</time></trkpt><trkpt lat="51.231902920208384" lon="5.30271012714151"><ele>46.0</ele><time>2026-04-06T11:12:25Z</time></trkpt><trkpt lat="51.23202603144824" lon="5.302753509562859"><ele>46.0</ele><time>2026-04-06T11:12:26Z</time></trkpt><trkpt lat="51.232127514040016" lon="5.302763576433794"><ele>46.0</ele><time>2026-04-06T11:12:27Z</time></trkpt><trkpt lat="51.23225128715486" lon="5.302780764073471"><ele>46.0</ele><time>2026-04-06T11:12:28Z</time></trkpt><trkpt lat="51.23236228100805" lon="5.302791578714555"><ele>46.0</ele><time>2026-04-06T11:12:29Z</time></trkpt><trkpt lat="51.23247531695731" lon="5.302793593325298"><ele>46.199999999999996</ele><time>2026-04-06T11:12:30Z</time></trkpt><trkpt lat="51.23259138565223" lon="5.302793341597439"><ele>46.4</ele><time>2026-04-06T11:12:31Z</time></trkpt><trkpt lat="51.232706255306915" lon="5.302795531739198"><ele>46.6</ele><time>2026-04-06T11:12:32Z</time></trkpt><trkpt lat="51.23281061699418" lon="5.302792773110544"><ele>46.8</ele><time>2026-04-06T11:12:33Z</time></trkpt><trkpt lat="51.232901061664755" lon="5.302819330996244"><ele>47.0</ele><time>2026-04-06T11:12:34Z</time></trkpt><trkpt lat="51.232972696544046" lon="5.30281132554161"><ele>47.0</ele><time>2026-04-06T11:12:35Z</time></trkpt><trkpt lat="51.233028012013925" lon="5.302879044209341"><ele>47.0</ele><time>2026-04-06T11:12:36Z</time></trkpt><trkpt lat="51.23306474369686" lon="5.302995132435266"><ele>47.0</ele><time>2026-04-06T11:12:37Z</time></trkpt><trkpt lat="51.23307389725595" lon="5.303133845186561"><ele>47.0</ele><time>2026-04-06T11:12:38Z</time></trkpt><trkpt lat="51.233079202634244" lon="5.30327815691509"><ele>47.0</ele><time>2026-04-06T11:12:39Z</time></trkpt><trkpt lat="51.23308749677948" lon="5.30342831084704"><ele>47.0</ele><time>2026-04-06T11:12:40Z</time></trkpt><trkpt lat="51.233101741570124" lon="5.303581824055383"><ele>47.0</ele><time>2026-04-06T11:12:41Z</time></trkpt><trkpt lat="51.23312630652368" lon="5.303739026442616"><ele>47.0</ele><time>2026-04-06T11:12:42Z</time></trkpt><trkpt lat="51.2331569834087" lon="5.303900796081019"><ele>47.0</ele><time>2026-04-06T11:12:43Z</time></trkpt><trkpt lat="51.23319317978347" lon="5.304062710340695"><ele>47.0</ele><time>2026-04-06T11:12:44Z</time></trkpt><trkpt lat="51.23323098554197" lon="5.3042225831298815"><ele>47.0</ele><time>2026-04-06T11:12:45Z</time></trkpt><trkpt lat="51.233268895158595" lon="5.304382015272149"><ele>47.0</ele><time>2026-04-06T11:12:46Z</time></trkpt><trkpt lat="51.23330610819318" lon="5.3045425822584065"><ele>47.0</ele><time>2026-04-06T11:12:47Z</time></trkpt><trkpt lat="51.23334258961657" lon="5.304701706973492"><ele>47.0</ele><time>2026-04-06T11:12:48Z</time></trkpt><trkpt lat="51.23337936825036" lon="5.3048601885937225"><ele>47.0</ele><time>2026-04-06T11:12:49Z</time></trkpt><trkpt lat="51.23341521904442" lon="5.305023555747796"><ele>47.0</ele><time>2026-04-06T11:12:50Z</time></trkpt><trkpt lat="51.23345442044897" lon="5.305206616700604"><ele>46.8</ele><time>2026-04-06T11:12:51Z</time></trkpt><trkpt lat="51.233490645334335" lon="5.305373208631164"><ele>46.6</ele><time>2026-04-06T11:12:52Z</time></trkpt><trkpt lat="51.233527217562" lon="5.305536020968944"><ele>46.4</ele><time>2026-04-06T11:12:53Z</time></trkpt><trkpt lat="51.233564431087274" lon="5.305698374043083"><ele>46.199999999999996</ele><time>2026-04-06T11:12:54Z</time></trkpt><trkpt lat="51.233600551641814" lon="5.305860644683568"><ele>46.0</ele><time>2026-04-06T11:12:55Z</time></trkpt><trkpt lat="51.23363446932376" lon="5.306023654359241"><ele>46.199999999999996</ele><time>2026-04-06T11:12:56Z</time></trkpt><trkpt lat="51.2336694495133" lon="5.306186585335912"><ele>46.4</ele><time>2026-04-06T11:12:57Z</time></trkpt><trkpt lat="51.23370540524022" lon="5.306349576367838"><ele>46.6</ele><time>2026-04-06T11:12:58Z</time></trkpt><trkpt lat="51.23374229196733" lon="5.3065118319323545"><ele>46.8</ele><time>2026-04-06T11:12:59Z</time></trkpt><trkpt lat="51.23377950860505" lon="5.306675906608193"><ele>47.0</ele><time>2026-04-06T11:13:00Z</time></trkpt><trkpt lat="51.23381668095688" lon="5.306848491977932"><ele>47.0</ele><time>2026-04-06T11:13:01Z</time></trkpt><trkpt lat="51.23385119222878" lon="5.307025741624792"><ele>47.0</ele><time>2026-04-06T11:13:02Z</time></trkpt><trkpt lat="51.23389033702779" lon="5.307209301351458"><ele>47.0</ele><time>2026-04-06T11:13:03Z</time></trkpt><trkpt lat="51.23393079689802" lon="5.3073936574682605"><ele>47.0</ele><time>2026-04-06T11:13:04Z</time></trkpt><trkpt lat="51.23397325298914" lon="5.307580981323002"><ele>47.0</ele><time>2026-04-06T11:13:05Z</time></trkpt><trkpt lat="51.23401227671318" lon="5.307772029205661"><ele>47.0</ele><time>2026-04-06T11:13:06Z</time></trkpt><trkpt lat="51.2340535842334" lon="5.307953017056279"><ele>47.0</ele><time>2026-04-06T11:13:07Z</time></trkpt><trkpt lat="51.23408949645221" lon="5.308117029285366"><ele>47.0</ele><time>2026-04-06T11:13:08Z</time></trkpt><trkpt lat="51.23412550430812" lon="5.3082727189734555"><ele>47.0</ele><time>2026-04-06T11:13:09Z</time></trkpt><trkpt lat="51.234170315847365" lon="5.308417996931534"><ele>47.0</ele><time>2026-04-06T11:13:10Z</time></trkpt><trkpt lat="51.234230609938365" lon="5.308550715666412"><ele>47.0</ele><time>2026-04-06T11:13:11Z</time></trkpt><trkpt lat="51.23430125068732" lon="5.308673021483552"><ele>47.0</ele><time>2026-04-06T11:13:12Z</time></trkpt><trkpt lat="51.23437000728438" lon="5.308808917639506"><ele>47.0</ele><time>2026-04-06T11:13:13Z</time></trkpt><trkpt lat="51.234432601776284" lon="5.3089656342195575"><ele>47.0</ele><time>2026-04-06T11:13:14Z</time></trkpt><trkpt lat="51.234495695813266" lon="5.309129455060487"><ele>47.0</ele><time>2026-04-06T11:13:15Z</time></trkpt><trkpt lat="51.23455830057793" lon="5.309297672375073"><ele>47.0</ele><time>2026-04-06T11:13:16Z</time></trkpt><trkpt lat="51.234624623958304" lon="5.309467406222436"><ele>47.0</ele><time>2026-04-06T11:13:17Z</time></trkpt><trkpt lat="51.234689934454806" lon="5.309639273787602"><ele>47.0</ele><time>2026-04-06T11:13:18Z</time></trkpt><trkpt lat="51.23475495173579" lon="5.309803210747544"><ele>47.0</ele><time>2026-04-06T11:13:19Z</time></trkpt><trkpt lat="51.23481794597103" lon="5.309963415851619"><ele>47.0</ele><time>2026-04-06T11:13:20Z</time></trkpt><trkpt lat="51.23487700521996" lon="5.310122020344376"><ele>47.0</ele><time>2026-04-06T11:13:21Z</time></trkpt><trkpt lat="51.234936419591214" lon="5.310280724711655"><ele>47.0</ele><time>2026-04-06T11:13:22Z</time></trkpt><trkpt lat="51.23499552459927" lon="5.310439976726524"><ele>47.0</ele><time>2026-04-06T11:13:23Z</time></trkpt><trkpt lat="51.235055745371824" lon="5.310599577497388"><ele>47.0</ele><time>2026-04-06T11:13:24Z</time></trkpt><trkpt lat="51.23511848146234" lon="5.310760965886839"><ele>47.0</ele><time>2026-04-06T11:13:25Z</time></trkpt><trkpt lat="51.23518154910142" lon="5.310922322421614"><ele>47.0</ele><time>2026-04-06T11:13:26Z</time></trkpt><trkpt lat="51.23524436552137" lon="5.311087023257843"><ele>47.0</ele><time>2026-04-06T11:13:27Z</time></trkpt><trkpt lat="51.23530720982168" lon="5.3112525359605485"><ele>47.0</ele><time>2026-04-06T11:13:28Z</time></trkpt><trkpt lat="51.235369801958036" lon="5.311420353128837"><ele>47.0</ele><time>2026-04-06T11:13:29Z</time></trkpt><trkpt lat="51.23543275473272" lon="5.311590305078767"><ele>47.25</ele><time>2026-04-06T11:13:30Z</time></trkpt><trkpt lat="51.2354948799829" lon="5.3117628758472115"><ele>47.5</ele><time>2026-04-06T11:13:31Z</time></trkpt><trkpt lat="51.23556205490906" lon="5.3119309110278135"><ele>47.75</ele><time>2026-04-06T11:13:32Z</time></trkpt><trkpt lat="51.23562683107808" lon="5.31209755233441"><ele>48.0</ele><time>2026-04-06T11:13:33Z</time></trkpt><trkpt lat="51.23568910334496" lon="5.312262193744439"><ele>48.0</ele><time>2026-04-06T11:13:34Z</time></trkpt><trkpt lat="51.2357506855904" lon="5.312424858250769"><ele>48.0</ele><time>2026-04-06T11:13:35Z</time></trkpt><trkpt lat="51.235808037631735" lon="5.312589752647274"><ele>48.0</ele><time>2026-04-06T11:13:36Z</time></trkpt><trkpt lat="51.23586294577135" lon="5.312755374695479"><ele>48.0</ele><time>2026-04-06T11:13:37Z</time></trkpt><trkpt lat="51.235914567982995" lon="5.312924503866112"><ele>47.75</ele><time>2026-04-06T11:13:38Z</time></trkpt><trkpt lat="51.235965407452305" lon="5.313096365525206"><ele>47.5</ele><time>2026-04-06T11:13:39Z</time></trkpt><trkpt lat="51.23601745537852" lon="5.31326798968283"><ele>47.25</ele><time>2026-04-06T11:13:40Z</time></trkpt><trkpt lat="51.23606367458046" lon="5.313444831396404"><ele>47.0</ele><time>2026-04-06T11:13:41Z</time></trkpt><trkpt lat="51.23610153757805" lon="5.313627928081836"><ele>47.0</ele><time>2026-04-06T11:13:42Z</time></trkpt><trkpt lat="51.236132525202194" lon="5.313816182196576"><ele>47.0</ele><time>2026-04-06T11:13:43Z</time></trkpt><trkpt lat="51.23615824780471" lon="5.314006205483682"><ele>47.0</ele><time>2026-04-06T11:13:44Z</time></trkpt><trkpt lat="51.236183631454075" lon="5.314196259429593"><ele>47.0</ele><time>2026-04-06T11:13:45Z</time></trkpt><trkpt lat="51.23620969181733" lon="5.314371853492134"><ele>46.8</ele><time>2026-04-06T11:13:46Z</time></trkpt><trkpt lat="51.236234445935956" lon="5.314534280117995"><ele>46.6</ele><time>2026-04-06T11:13:47Z</time></trkpt><trkpt lat="51.23625883007212" lon="5.3146857556613405"><ele>46.4</ele><time>2026-04-06T11:13:48Z</time></trkpt><trkpt lat="51.23628102433772" lon="5.314832281990233"><ele>46.199999999999996</ele><time>2026-04-06T11:13:49Z</time></trkpt><trkpt lat="51.236306855544996" lon="5.3149583253895205"><ele>46.0</ele><time>2026-04-06T11:13:50Z</time></trkpt><trkpt lat="51.236320943501134" lon="5.315078311497219"><ele>46.0</ele><time>2026-04-06T11:13:51Z</time></trkpt><trkpt lat="51.2363388838339" lon="5.315180596449522"><ele>46.0</ele><time>2026-04-06T11:13:52Z</time></trkpt><trkpt lat="51.23635494226184" lon="5.315278316675648"><ele>46.0</ele><time>2026-04-06T11:13:53Z</time></trkpt><trkpt lat="51.236183898452175" lon="5.315399930673569"><ele>46.0</ele><time>2026-04-06T11:13:55Z</time></trkpt><trkpt lat="51.23610795724787" lon="5.315418302108995"><ele>46.0</ele><time>2026-04-06T11:13:56Z</time></trkpt><trkpt lat="51.236010945946084" lon="5.315400293094427"><ele>46.0</ele><time>2026-04-06T11:13:57Z</time></trkpt><trkpt lat="51.23589782988154" lon="5.315372746203967"><ele>46.0</ele><time>2026-04-06T11:13:58Z</time></trkpt><trkpt lat="51.2357715855985" lon="5.315344140536021"><ele>46.0</ele><time>2026-04-06T11:13:59Z</time></trkpt><trkpt lat="51.2356574747144" lon="5.3153201933208365"><ele>46.0</ele><time>2026-04-06T11:14:00Z</time></trkpt><trkpt lat="51.235540400947166" lon="5.315293598567151"><ele>46.5</ele><time>2026-04-06T11:14:01Z</time></trkpt><trkpt lat="51.23542538314091" lon="5.315258124076749"><ele>47.0</ele><time>2026-04-06T11:14:02Z</time></trkpt><trkpt lat="51.235308531955816" lon="5.3152229035344964"><ele>47.5</ele><time>2026-04-06T11:14:03Z</time></trkpt><trkpt lat="51.23518839609044" lon="5.315212679997638"><ele>48.0</ele><time>2026-04-06T11:14:04Z</time></trkpt><trkpt lat="51.23506470464265" lon="5.315215323556606"><ele>48.0</ele><time>2026-04-06T11:14:05Z</time></trkpt><trkpt lat="51.23494223398993" lon="5.315227670402238"><ele>48.0</ele><time>2026-04-06T11:14:06Z</time></trkpt><trkpt lat="51.23482118718565" lon="5.315254715404963"><ele>48.0</ele><time>2026-04-06T11:14:07Z</time></trkpt><trkpt lat="51.23470165401383" lon="5.315293754686176"><ele>48.0</ele><time>2026-04-06T11:14:08Z</time></trkpt><trkpt lat="51.23458327059102" lon="5.315342277315793"><ele>48.0</ele><time>2026-04-06T11:14:09Z</time></trkpt><trkpt lat="51.234466616909444" lon="5.315398658812119"><ele>48.0</ele><time>2026-04-06T11:14:10Z</time></trkpt><trkpt lat="51.23435019778722" lon="5.315456592656543"><ele>48.0</ele><time>2026-04-06T11:14:11Z</time></trkpt><trkpt lat="51.23423233778179" lon="5.315516391017536"><ele>48.0</ele><time>2026-04-06T11:14:12Z</time></trkpt><trkpt lat="51.234112969087825" lon="5.315575432836296"><ele>48.0</ele><time>2026-04-06T11:14:13Z</time></trkpt><trkpt lat="51.23399219448736" lon="5.315634974090246"><ele>48.0</ele><time>2026-04-06T11:14:14Z</time></trkpt><trkpt lat="51.233869238499764" lon="5.315695543904902"><ele>48.0</ele><time>2026-04-06T11:14:15Z</time></trkpt><trkpt lat="51.23374550427844" lon="5.315761510697611"><ele>48.0</ele><time>2026-04-06T11:14:16Z</time></trkpt><trkpt lat="51.23361988088266" lon="5.315827698520967"><ele>48.25</ele><time>2026-04-06T11:14:17Z</time></trkpt><trkpt lat="51.233492343445214" lon="5.315894466998103"><ele>48.5</ele><time>2026-04-06T11:14:18Z</time></trkpt><trkpt lat="51.23336416681447" lon="5.315961779814855"><ele>48.75</ele><time>2026-04-06T11:14:19Z</time></trkpt><trkpt lat="51.2332336083642" lon="5.31602404119236"><ele>49.0</ele><time>2026-04-06T11:14:20Z</time></trkpt><trkpt lat="51.23310212226895" lon="5.316086340716422"><ele>48.5</ele><time>2026-04-06T11:14:21Z</time></trkpt><trkpt lat="51.23297075667523" lon="5.316149753979776"><ele>48.0</ele><time>2026-04-06T11:14:22Z</time></trkpt><trkpt lat="51.23283850915921" lon="5.316214004717075"><ele>47.5</ele><time>2026-04-06T11:14:23Z</time></trkpt><trkpt lat="51.23270548199672" lon="5.316279004599009"><ele>47.0</ele><time>2026-04-06T11:14:24Z</time></trkpt><trkpt lat="51.232571662646194" lon="5.316348239888407"><ele>47.25</ele><time>2026-04-06T11:14:25Z</time></trkpt><trkpt lat="51.23243840765713" lon="5.316422890109472"><ele>47.5</ele><time>2026-04-06T11:14:26Z</time></trkpt><trkpt lat="51.23230763256433" lon="5.316482494224224"><ele>47.75</ele><time>2026-04-06T11:14:27Z</time></trkpt><trkpt lat="51.23219046222198" lon="5.316534694710623"><ele>48.0</ele><time>2026-04-06T11:14:28Z</time></trkpt><trkpt lat="51.23207314234795" lon="5.316594698168677"><ele>47.5</ele><time>2026-04-06T11:14:29Z</time></trkpt><trkpt lat="51.23195597962904" lon="5.31665511534315"><ele>47.0</ele><time>2026-04-06T11:14:30Z</time></trkpt><trkpt lat="51.23183717214772" lon="5.316708861535113"><ele>46.5</ele><time>2026-04-06T11:14:31Z</time></trkpt><trkpt lat="51.23171738416711" lon="5.316754273075923"><ele>46.0</ele><time>2026-04-06T11:14:32Z</time></trkpt><trkpt lat="51.2315992940231" lon="5.316808402408525"><ele>46.0</ele><time>2026-04-06T11:14:33Z</time></trkpt><trkpt lat="51.2314837840062" lon="5.316873513575067"><ele>46.0</ele><time>2026-04-06T11:14:34Z</time></trkpt><trkpt lat="51.23136792181519" lon="5.316937695967604"><ele>46.0</ele><time>2026-04-06T11:14:35Z</time></trkpt><trkpt lat="51.2312515952544" lon="5.316997364773378"><ele>46.0</ele><time>2026-04-06T11:14:36Z</time></trkpt><trkpt lat="51.231136371488745" lon="5.3170576616499545"><ele>46.5</ele><time>2026-04-06T11:14:37Z</time></trkpt><trkpt lat="51.231019113552094" lon="5.3171103651646"><ele>47.0</ele><time>2026-04-06T11:14:38Z</time></trkpt><trkpt lat="51.23090257590682" lon="5.317160973111032"><ele>47.5</ele><time>2026-04-06T11:14:39Z</time></trkpt><trkpt lat="51.230795362082816" lon="5.317237205883726"><ele>48.0</ele><time>2026-04-06T11:14:40Z</time></trkpt><trkpt lat="51.23070158848855" lon="5.31731689718443"><ele>48.0</ele><time>2026-04-06T11:14:41Z</time></trkpt><trkpt lat="51.230615316786576" lon="5.317405712190831"><ele>48.0</ele><time>2026-04-06T11:14:42Z</time></trkpt><trkpt lat="51.23053368828191" lon="5.317513985705535"><ele>48.0</ele><time>2026-04-06T11:14:43Z</time></trkpt><trkpt lat="51.23045158812392" lon="5.317632132607452"><ele>48.0</ele><time>2026-04-06T11:14:44Z</time></trkpt><trkpt lat="51.23036695735417" lon="5.317750812690856"><ele>48.0</ele><time>2026-04-06T11:14:45Z</time></trkpt><trkpt lat="51.23027569878887" lon="5.317862135715454"><ele>48.0</ele><time>2026-04-06T11:14:46Z</time></trkpt><trkpt lat="51.230181948422704" lon="5.317971900827292"><ele>48.0</ele><time>2026-04-06T11:14:47Z</time></trkpt><trkpt lat="51.23008255968163" lon="5.318072976536198"><ele>48.0</ele><time>2026-04-06T11:14:48Z</time></trkpt><trkpt lat="51.22996931672857" lon="5.3181365161179635"><ele>48.0</ele><time>2026-04-06T11:14:49Z</time></trkpt><trkpt lat="51.229849768074864" lon="5.31818592465623"><ele>48.25</ele><time>2026-04-06T11:14:50Z</time></trkpt><trkpt lat="51.22972984707173" lon="5.318239897673487"><ele>48.5</ele><time>2026-04-06T11:14:51Z</time></trkpt><trkpt lat="51.22960783229432" lon="5.318298623015763"><ele>48.75</ele><time>2026-04-06T11:14:52Z</time></trkpt><trkpt lat="51.229493644523245" lon="5.318353625015866"><ele>49.0</ele><time>2026-04-06T11:14:53Z</time></trkpt><trkpt lat="51.229391138384464" lon="5.318400735134272"><ele>48.99999999999999</ele><time>2026-04-06T11:14:54Z</time></trkpt><trkpt lat="51.22929609645751" lon="5.318441831692882"><ele>49.0</ele><time>2026-04-06T11:14:55Z</time></trkpt><trkpt lat="51.22920896362139" lon="5.318477953266006"><ele>49.0</ele><time>2026-04-06T11:14:56Z</time></trkpt><trkpt lat="51.22912913801835" lon="5.31851238399694"><ele>49.0</ele><time>2026-04-06T11:14:57Z</time></trkpt><trkpt lat="51.22905183577547" lon="5.3185442307395165"><ele>48.99999999999999</ele><time>2026-04-06T11:14:58Z</time></trkpt><trkpt lat="51.228984927125" lon="5.318574114903619"><ele>49.0</ele><time>2026-04-06T11:14:59Z</time></trkpt><trkpt lat="51.228901755609705" lon="5.318608272568371"><ele>48.800000000000004</ele><time>2026-04-06T11:15:01Z</time></trkpt><trkpt lat="51.22883620717992" lon="5.318636718509781"><ele>48.6</ele><time>2026-04-06T11:15:49Z</time></trkpt><trkpt lat="51.22873265913168" lon="5.3186869862333985"><ele>48.4</ele><time>2026-04-06T11:15:51Z</time></trkpt><trkpt lat="51.228662631640056" lon="5.318718322352991"><ele>48.2</ele><time>2026-04-06T11:15:53Z</time></trkpt><trkpt lat="51.22869938399998" lon="5.318983003587017"><ele>48.0</ele><time>2026-04-06T11:15:54Z</time></trkpt><trkpt lat="51.22873103391466" lon="5.319141576747862"><ele>48.0</ele><time>2026-04-06T11:15:55Z</time></trkpt><trkpt lat="51.228766727512436" lon="5.319323472597702"><ele>48.0</ele><time>2026-04-06T11:15:56Z</time></trkpt><trkpt lat="51.22879955192599" lon="5.319496464207649"><ele>48.0</ele><time>2026-04-06T11:15:57Z</time></trkpt><trkpt lat="51.228828735463814" lon="5.319653825777783"><ele>48.0</ele><time>2026-04-06T11:15:58Z</time></trkpt><trkpt lat="51.22885673516461" lon="5.319812649345729"><ele>48.0</ele><time>2026-04-06T11:15:59Z</time></trkpt><trkpt lat="51.22888752424872" lon="5.319975635152889"><ele>48.0</ele><time>2026-04-06T11:16:00Z</time></trkpt><trkpt lat="51.22891676056532" lon="5.320142075017028"><ele>48.0</ele><time>2026-04-06T11:16:01Z</time></trkpt><trkpt lat="51.22894628579766" lon="5.320312804623785"><ele>48.0</ele><time>2026-04-06T11:16:02Z</time></trkpt><trkpt lat="51.228983768802756" lon="5.320489732998552"><ele>48.0</ele><time>2026-04-06T11:16:03Z</time></trkpt><trkpt lat="51.22901808041286" lon="5.320671974709759"><ele>48.25</ele><time>2026-04-06T11:16:04Z</time></trkpt><trkpt lat="51.229052866009496" lon="5.320855903279852"><ele>48.5</ele><time>2026-04-06T11:16:05Z</time></trkpt><trkpt lat="51.229084808431665" lon="5.321042646809883"><ele>48.75</ele><time>2026-04-06T11:16:06Z</time></trkpt><trkpt lat="51.22911908196987" lon="5.321225636017084"><ele>49.0</ele><time>2026-04-06T11:16:07Z</time></trkpt><trkpt lat="51.229151587834416" lon="5.3214057874497"><ele>49.2</ele><time>2026-04-06T11:16:08Z</time></trkpt><trkpt lat="51.2291824702534" lon="5.321584428034564"><ele>49.400000000000006</ele><time>2026-04-06T11:16:09Z</time></trkpt><trkpt lat="51.22921133986634" lon="5.321755194699936"><ele>49.6</ele><time>2026-04-06T11:16:10Z</time></trkpt><trkpt lat="51.229239955042345" lon="5.321923748156998"><ele>49.8</ele><time>2026-04-06T11:16:11Z</time></trkpt><trkpt lat="51.22926581279263" lon="5.322085369058488"><ele>50.0</ele><time>2026-04-06T11:16:12Z</time></trkpt><trkpt lat="51.22929461535304" lon="5.322232606616484"><ele>49.66666666666667</ele><time>2026-04-06T11:16:13Z</time></trkpt><trkpt lat="51.229320208796224" lon="5.322369092926578"><ele>49.333333333333336</ele><time>2026-04-06T11:16:14Z</time></trkpt><trkpt lat="51.22934141265379" lon="5.322481457836297"><ele>49.0</ele><time>2026-04-06T11:16:15Z</time></trkpt><trkpt lat="51.229360013554725" lon="5.322579173590881"><ele>48.66666666666667</ele><time>2026-04-06T11:16:17Z</time></trkpt><trkpt lat="51.22938106203508" lon="5.3226861159521475"><ele>48.333333333333336</ele><time>2026-04-06T11:16:20Z</time></trkpt><trkpt lat="51.2294233532146" lon="5.322899235121968"><ele>48.0</ele><time>2026-04-06T11:16:22Z</time></trkpt><trkpt lat="51.229457801186115" lon="5.323052773652522"><ele>47.8</ele><time>2026-04-06T11:16:23Z</time></trkpt><trkpt lat="51.22949916098192" lon="5.323230907543507"><ele>47.599999999999994</ele><time>2026-04-06T11:16:24Z</time></trkpt><trkpt lat="51.229536915529536" lon="5.32338898138148"><ele>47.400000000000006</ele><time>2026-04-06T11:16:25Z</time></trkpt><trkpt lat="51.22957593920551" lon="5.323547824115447"><ele>47.2</ele><time>2026-04-06T11:16:26Z</time></trkpt><trkpt lat="51.229616999888634" lon="5.323707285833346"><ele>47.0</ele><time>2026-04-06T11:16:27Z</time></trkpt><trkpt lat="51.22965980134411" lon="5.323864138394957"><ele>47.25</ele><time>2026-04-06T11:16:28Z</time></trkpt><trkpt lat="51.22970558233508" lon="5.324026652072409"><ele>47.5</ele><time>2026-04-06T11:16:29Z</time></trkpt><trkpt lat="51.22975442173503" lon="5.324191903298492"><ele>47.75</ele><time>2026-04-06T11:16:30Z</time></trkpt><trkpt lat="51.22980528090969" lon="5.32436121263614"><ele>48.0</ele><time>2026-04-06T11:16:31Z</time></trkpt><trkpt lat="51.22985867278012" lon="5.324533221303473"><ele>48.0</ele><time>2026-04-06T11:16:32Z</time></trkpt><trkpt lat="51.22991470421753" lon="5.32470762972289"><ele>48.0</ele><time>2026-04-06T11:16:33Z</time></trkpt><trkpt lat="51.22997213713241" lon="5.324885021518695"><ele>48.0</ele><time>2026-04-06T11:16:34Z</time></trkpt><trkpt lat="51.2300289804077" lon="5.325064733786915"><ele>48.0</ele><time>2026-04-06T11:16:35Z</time></trkpt><trkpt lat="51.23008758533537" lon="5.3252459780442205"><ele>48.0</ele><time>2026-04-06T11:16:36Z</time></trkpt><trkpt lat="51.230145926031135" lon="5.3254280114393024"><ele>48.0</ele><time>2026-04-06T11:16:37Z</time></trkpt><trkpt lat="51.230204157779305" lon="5.325611670096049"><ele>48.0</ele><time>2026-04-06T11:16:38Z</time></trkpt><trkpt lat="51.23026347992361" lon="5.3257945177104515"><ele>48.0</ele><time>2026-04-06T11:16:39Z</time></trkpt><trkpt lat="51.23032291849236" lon="5.325977596982885"><ele>47.75</ele><time>2026-04-06T11:16:40Z</time></trkpt><trkpt lat="51.23038334734156" lon="5.326160711837833"><ele>47.5</ele><time>2026-04-06T11:16:41Z</time></trkpt><trkpt lat="51.23044463572715" lon="5.326345060833146"><ele>47.25</ele><time>2026-04-06T11:16:42Z</time></trkpt><trkpt lat="51.2305049089914" lon="5.3265284071683645"><ele>47.0</ele><time>2026-04-06T11:16:43Z</time></trkpt><trkpt lat="51.230564780799924" lon="5.3267102124535075"><ele>47.25</ele><time>2026-04-06T11:16:44Z</time></trkpt><trkpt lat="51.23062215409452" lon="5.326886234746474"><ele>47.5</ele><time>2026-04-06T11:16:45Z</time></trkpt><trkpt lat="51.23067883071264" lon="5.327061177284545"><ele>47.75</ele><time>2026-04-06T11:16:46Z</time></trkpt><trkpt lat="51.23073524280488" lon="5.3272358751431295"><ele>48.0</ele><time>2026-04-06T11:16:47Z</time></trkpt><trkpt lat="51.23079154094803" lon="5.327409770165352"><ele>48.0</ele><time>2026-04-06T11:16:48Z</time></trkpt><trkpt lat="51.230847303220116" lon="5.327583468288876"><ele>48.0</ele><time>2026-04-06T11:16:49Z</time></trkpt><trkpt lat="51.230903126794885" lon="5.327757935633562"><ele>48.0</ele><time>2026-04-06T11:16:50Z</time></trkpt><trkpt lat="51.23096020118578" lon="5.327932386446606"><ele>48.0</ele><time>2026-04-06T11:16:51Z</time></trkpt><trkpt lat="51.231018486186066" lon="5.32810600230396"><ele>48.25</ele><time>2026-04-06T11:16:52Z</time></trkpt><trkpt lat="51.23107600884876" lon="5.32828077924571"><ele>48.5</ele><time>2026-04-06T11:16:53Z</time></trkpt><trkpt lat="51.231134127811124" lon="5.328456490301731"><ele>48.75</ele><time>2026-04-06T11:16:54Z</time></trkpt><trkpt lat="51.23119282183368" lon="5.328634435930848"><ele>49.0</ele><time>2026-04-06T11:16:55Z</time></trkpt><trkpt lat="51.231252981228906" lon="5.328813418656562"><ele>48.75</ele><time>2026-04-06T11:16:56Z</time></trkpt><trkpt lat="51.2313125907612" lon="5.328995760444758"><ele>48.5</ele><time>2026-04-06T11:16:57Z</time></trkpt><trkpt lat="51.23137162325988" lon="5.329177653418162"><ele>48.25</ele><time>2026-04-06T11:16:58Z</time></trkpt><trkpt lat="51.23143023761213" lon="5.32936046956917"><ele>48.0</ele><time>2026-04-06T11:16:59Z</time></trkpt><trkpt lat="51.23148920075309" lon="5.329543001848593"><ele>48.0</ele><time>2026-04-06T11:17:00Z</time></trkpt><trkpt lat="51.23154751504373" lon="5.3297251101261285"><ele>48.0</ele><time>2026-04-06T11:17:01Z</time></trkpt><trkpt lat="51.23160600397905" lon="5.329907182478115"><ele>48.0</ele><time>2026-04-06T11:17:02Z</time></trkpt><trkpt lat="51.23166416859101" lon="5.3300884047611286"><ele>48.0</ele><time>2026-04-06T11:17:03Z</time></trkpt><trkpt lat="51.23172281181309" lon="5.330269357971167"><ele>47.75</ele><time>2026-04-06T11:17:04Z</time></trkpt><trkpt lat="51.23178116098416" lon="5.330451194373844"><ele>47.5</ele><time>2026-04-06T11:17:05Z</time></trkpt><trkpt lat="51.231838060307645" lon="5.330624756522427"><ele>47.25</ele><time>2026-04-06T11:17:06Z</time></trkpt><trkpt lat="51.231890233365036" lon="5.330783908132978"><ele>47.0</ele><time>2026-04-06T11:17:07Z</time></trkpt><trkpt lat="51.231938055968165" lon="5.33092963596982"><ele>47.0</ele><time>2026-04-06T11:17:08Z</time></trkpt><trkpt lat="51.231981493276535" lon="5.331065087116071"><ele>47.0</ele><time>2026-04-06T11:17:09Z</time></trkpt><trkpt lat="51.232021279573296" lon="5.3312010248432955"><ele>47.0</ele><time>2026-04-06T11:17:10Z</time></trkpt><trkpt lat="51.23206481751815" lon="5.331354619880238"><ele>47.0</ele><time>2026-04-06T11:17:11Z</time></trkpt><trkpt lat="51.23210348923595" lon="5.33152045947225"><ele>47.0</ele><time>2026-04-06T11:17:12Z</time></trkpt><trkpt lat="51.232136558765376" lon="5.331691465608686"><ele>47.0</ele><time>2026-04-06T11:17:13Z</time></trkpt><trkpt lat="51.23216672104588" lon="5.3318627120021365"><ele>47.0</ele><time>2026-04-06T11:17:14Z</time></trkpt><trkpt lat="51.232189760509506" lon="5.332035475103343"><ele>47.0</ele><time>2026-04-06T11:17:15Z</time></trkpt><trkpt lat="51.23220675141813" lon="5.332207409542181"><ele>47.0</ele><time>2026-04-06T11:17:16Z</time></trkpt><trkpt lat="51.23221631547665" lon="5.332379640021239"><ele>47.0</ele><time>2026-04-06T11:17:17Z</time></trkpt><trkpt lat="51.23221892576943" lon="5.332555597348918"><ele>47.0</ele><time>2026-04-06T11:17:18Z</time></trkpt><trkpt lat="51.232219050872494" lon="5.332740336428898"><ele>47.0</ele><time>2026-04-06T11:17:19Z</time></trkpt><trkpt lat="51.2322172043911" lon="5.332930791237194"><ele>47.0</ele><time>2026-04-06T11:17:20Z</time></trkpt><trkpt lat="51.23220559855312" lon="5.3331235263953"><ele>47.0</ele><time>2026-04-06T11:17:21Z</time></trkpt><trkpt lat="51.23218501401168" lon="5.333318697739169"><ele>47.0</ele><time>2026-04-06T11:17:22Z</time></trkpt><trkpt lat="51.2321624149088" lon="5.333516772563216"><ele>47.0</ele><time>2026-04-06T11:17:23Z</time></trkpt><trkpt lat="51.232140482878734" lon="5.333718299342659"><ele>47.0</ele><time>2026-04-06T11:17:24Z</time></trkpt><trkpt lat="51.23211786887328" lon="5.333921456564362"><ele>47.0</ele><time>2026-04-06T11:17:25Z</time></trkpt><trkpt lat="51.23209691846517" lon="5.334129210104624"><ele>46.75</ele><time>2026-04-06T11:17:26Z</time></trkpt><trkpt lat="51.23207487704084" lon="5.334338281264298"><ele>46.5</ele><time>2026-04-06T11:17:27Z</time></trkpt><trkpt lat="51.23205287609119" lon="5.3345494595049905"><ele>46.25</ele><time>2026-04-06T11:17:28Z</time></trkpt><trkpt lat="51.23203344418428" lon="5.334753195559437"><ele>46.0</ele><time>2026-04-06T11:17:29Z</time></trkpt><trkpt lat="51.2320116485493" lon="5.334945476641376"><ele>46.0</ele><time>2026-04-06T11:17:30Z</time></trkpt><trkpt lat="51.23196942533609" lon="5.335132730958282"><ele>46.0</ele><time>2026-04-06T11:17:31Z</time></trkpt><trkpt lat="51.23190589613514" lon="5.335304497266375"><ele>46.0</ele><time>2026-04-06T11:17:32Z</time></trkpt><trkpt lat="51.23182349451535" lon="5.335455448217818"><ele>46.0</ele><time>2026-04-06T11:17:33Z</time></trkpt><trkpt lat="51.2317331908549" lon="5.3355920162664345"><ele>45.75</ele><time>2026-04-06T11:17:34Z</time></trkpt><trkpt lat="51.2316467159367" lon="5.335734406938661"><ele>45.5</ele><time>2026-04-06T11:17:35Z</time></trkpt><trkpt lat="51.23156164132909" lon="5.335877946759045"><ele>45.25</ele><time>2026-04-06T11:17:36Z</time></trkpt><trkpt lat="51.23147723382979" lon="5.3360188265848745"><ele>45.0</ele><time>2026-04-06T11:17:37Z</time></trkpt><trkpt lat="51.23139372736833" lon="5.336162091246149"><ele>45.25</ele><time>2026-04-06T11:17:38Z</time></trkpt><trkpt lat="51.231320576229216" lon="5.336317085850048"><ele>45.5</ele><time>2026-04-06T11:17:39Z</time></trkpt><trkpt lat="51.23126706977108" lon="5.336489429107343"><ele>45.75</ele><time>2026-04-06T11:17:40Z</time></trkpt><trkpt lat="51.23123619547417" lon="5.336673557102067"><ele>46.0</ele><time>2026-04-06T11:17:41Z</time></trkpt><trkpt lat="51.231223592071835" lon="5.336862358828342"><ele>46.0</ele><time>2026-04-06T11:17:42Z</time></trkpt><trkpt lat="51.23122924557847" lon="5.33705427076597"><ele>46.0</ele><time>2026-04-06T11:17:43Z</time></trkpt><trkpt lat="51.231243806941805" lon="5.337243545506176"><ele>46.0</ele><time>2026-04-06T11:17:44Z</time></trkpt><trkpt lat="51.23126092421802" lon="5.3374356686541065"><ele>46.0</ele><time>2026-04-06T11:17:45Z</time></trkpt><trkpt lat="51.23128060694852" lon="5.337628555686115"><ele>45.8</ele><time>2026-04-06T11:17:46Z</time></trkpt><trkpt lat="51.23129910726084" lon="5.3378027119534055"><ele>45.599999999999994</ele><time>2026-04-06T11:17:47Z</time></trkpt><trkpt lat="51.231314085044104" lon="5.337946572740873"><ele>45.4</ele><time>2026-04-06T11:17:48Z</time></trkpt><trkpt lat="51.231318318091645" lon="5.338082666608767"><ele>45.2</ele><time>2026-04-06T11:17:49Z</time></trkpt><trkpt lat="51.231315094128206" lon="5.338220005873071"><ele>45.0</ele><time>2026-04-06T11:17:50Z</time></trkpt><trkpt lat="51.23132436412555" lon="5.338365389088443"><ele>45.0</ele><time>2026-04-06T11:17:51Z</time></trkpt><trkpt lat="51.23135502874169" lon="5.338513341297161"><ele>45.0</ele><time>2026-04-06T11:17:52Z</time></trkpt><trkpt lat="51.2313831760415" lon="5.338673547791655"><ele>45.0</ele><time>2026-04-06T11:17:53Z</time></trkpt><trkpt lat="51.23139859717352" lon="5.3388425924177465"><ele>45.0</ele><time>2026-04-06T11:17:54Z</time></trkpt><trkpt lat="51.23141241381725" lon="5.339018249292004"><ele>45.0</ele><time>2026-04-06T11:17:55Z</time></trkpt><trkpt lat="51.231434009117194" lon="5.339200890038241"><ele>45.0</ele><time>2026-04-06T11:17:56Z</time></trkpt><trkpt lat="51.23145203345143" lon="5.339388635058105"><ele>45.0</ele><time>2026-04-06T11:17:57Z</time></trkpt><trkpt lat="51.23147016045856" lon="5.339580943115099"><ele>45.0</ele><time>2026-04-06T11:17:58Z</time></trkpt><trkpt lat="51.23149083222966" lon="5.3397769746056705"><ele>45.0</ele><time>2026-04-06T11:17:59Z</time></trkpt><trkpt lat="51.231510714535204" lon="5.339978334136034"><ele>45.0</ele><time>2026-04-06T11:18:00Z</time></trkpt><trkpt lat="51.231529814821045" lon="5.340183219884892"><ele>45.0</ele><time>2026-04-06T11:18:01Z</time></trkpt><trkpt lat="51.231550931413935" lon="5.340389975126108"><ele>45.0</ele><time>2026-04-06T11:18:02Z</time></trkpt><trkpt lat="51.23156862890891" lon="5.340602040281874"><ele>45.0</ele><time>2026-04-06T11:18:03Z</time></trkpt><trkpt lat="51.23158561287321" lon="5.340816084464958"><ele>45.0</ele><time>2026-04-06T11:18:04Z</time></trkpt><trkpt lat="51.23160659069674" lon="5.341033837252162"><ele>45.0</ele><time>2026-04-06T11:18:05Z</time></trkpt><trkpt lat="51.23162874961862" lon="5.341255200096033"><ele>45.0</ele><time>2026-04-06T11:18:06Z</time></trkpt><trkpt lat="51.23164963406157" lon="5.341476508137524"><ele>45.0</ele><time>2026-04-06T11:18:07Z</time></trkpt><trkpt lat="51.23166927539559" lon="5.341690863804041"><ele>44.75</ele><time>2026-04-06T11:18:08Z</time></trkpt><trkpt lat="51.231688070290886" lon="5.341901297883594"><ele>44.5</ele><time>2026-04-06T11:18:09Z</time></trkpt><trkpt lat="51.23170513791389" lon="5.342108482526981"><ele>44.25</ele><time>2026-04-06T11:18:10Z</time></trkpt><trkpt lat="51.2317217610021" lon="5.3423118742141025"><ele>44.0</ele><time>2026-04-06T11:18:11Z</time></trkpt><trkpt lat="51.231736386976756" lon="5.342512035815455"><ele>44.25</ele><time>2026-04-06T11:18:12Z</time></trkpt><trkpt lat="51.23175056653111" lon="5.342708549529121"><ele>44.5</ele><time>2026-04-06T11:18:13Z</time></trkpt><trkpt lat="51.231764729079124" lon="5.342899381345442"><ele>44.75</ele><time>2026-04-06T11:18:14Z</time></trkpt><trkpt lat="51.23177928370549" lon="5.3430870858786985"><ele>45.0</ele><time>2026-04-06T11:18:15Z</time></trkpt><trkpt lat="51.2317915590443" lon="5.343270294257091"><ele>45.0</ele><time>2026-04-06T11:18:16Z</time></trkpt><trkpt lat="51.23180347689568" lon="5.343449808486586"><ele>45.0</ele><time>2026-04-06T11:18:17Z</time></trkpt><trkpt lat="51.23181475154944" lon="5.343628160940454"><ele>45.0</ele><time>2026-04-06T11:18:18Z</time></trkpt><trkpt lat="51.231827428185554" lon="5.34380993972977"><ele>45.0</ele><time>2026-04-06T11:18:19Z</time></trkpt><trkpt lat="51.231841476181216" lon="5.3439975786842675"><ele>45.0</ele><time>2026-04-06T11:18:20Z</time></trkpt><trkpt lat="51.23185898963525" lon="5.344188261162447"><ele>45.0</ele><time>2026-04-06T11:18:21Z</time></trkpt><trkpt lat="51.23187452604485" lon="5.344383857247988"><ele>45.0</ele><time>2026-04-06T11:18:22Z</time></trkpt><trkpt lat="51.23188732453295" lon="5.344581572023085"><ele>45.0</ele><time>2026-04-06T11:18:23Z</time></trkpt><trkpt lat="51.23190174072659" lon="5.344780523721939"><ele>45.25</ele><time>2026-04-06T11:18:24Z</time></trkpt><trkpt lat="51.23191484586792" lon="5.344979464489617"><ele>45.5</ele><time>2026-04-06T11:18:25Z</time></trkpt><trkpt lat="51.23193000474797" lon="5.345181089525084"><ele>45.75</ele><time>2026-04-06T11:18:26Z</time></trkpt><trkpt lat="51.23194419230301" lon="5.345382581040381"><ele>46.0</ele><time>2026-04-06T11:18:27Z</time></trkpt><trkpt lat="51.23195850954392" lon="5.345584305527679"><ele>46.0</ele><time>2026-04-06T11:18:28Z</time></trkpt><trkpt lat="51.23197385696144" lon="5.345786760523242"><ele>46.0</ele><time>2026-04-06T11:18:29Z</time></trkpt><trkpt lat="51.23198976056964" lon="5.345986869005758"><ele>46.0</ele><time>2026-04-06T11:18:30Z</time></trkpt><trkpt lat="51.2320053371484" lon="5.346185103315569"><ele>46.0</ele><time>2026-04-06T11:18:31Z</time></trkpt><trkpt lat="51.232019871091104" lon="5.346382609406036"><ele>45.75</ele><time>2026-04-06T11:18:32Z</time></trkpt><trkpt lat="51.23203456809674" lon="5.346578158215508"><ele>45.5</ele><time>2026-04-06T11:18:33Z</time></trkpt><trkpt lat="51.232050022445215" lon="5.346772588775729"><ele>45.25</ele><time>2026-04-06T11:18:34Z</time></trkpt><trkpt lat="51.23206293293337" lon="5.346966579975876"><ele>45.0</ele><time>2026-04-06T11:18:35Z</time></trkpt><trkpt lat="51.232076871732566" lon="5.3471582997461"><ele>45.0</ele><time>2026-04-06T11:18:36Z</time></trkpt><trkpt lat="51.23209101172108" lon="5.347347588443136"><ele>45.0</ele><time>2026-04-06T11:18:37Z</time></trkpt><trkpt lat="51.23210511038622" lon="5.347537342002485"><ele>45.0</ele><time>2026-04-06T11:18:38Z</time></trkpt><trkpt lat="51.23211900576884" lon="5.347726374720469"><ele>45.0</ele><time>2026-04-06T11:18:39Z</time></trkpt><trkpt lat="51.232131775376615" lon="5.347914324445719"><ele>44.75</ele><time>2026-04-06T11:18:40Z</time></trkpt><trkpt lat="51.232145707115706" lon="5.3481010031843175"><ele>44.5</ele><time>2026-04-06T11:18:41Z</time></trkpt><trkpt lat="51.23215879996072" lon="5.348288151051499"><ele>44.25</ele><time>2026-04-06T11:18:42Z</time></trkpt><trkpt lat="51.23217153452168" lon="5.348476234464244"><ele>44.0</ele><time>2026-04-06T11:18:43Z</time></trkpt><trkpt lat="51.23218427546938" lon="5.34866384827802"><ele>44.0</ele><time>2026-04-06T11:18:44Z</time></trkpt><trkpt lat="51.232196815993206" lon="5.348850632532609"><ele>44.0</ele><time>2026-04-06T11:18:45Z</time></trkpt><trkpt lat="51.23220970647534" lon="5.349035576032952"><ele>44.0</ele><time>2026-04-06T11:18:46Z</time></trkpt><trkpt lat="51.232220993803026" lon="5.349183907155064"><ele>44.0</ele><time>2026-04-06T11:18:47Z</time></trkpt><trkpt lat="51.23222717435134" lon="5.3492901223232385"><ele>44.0</ele><time>2026-04-06T11:18:48Z</time></trkpt><trkpt lat="51.232236825938585" lon="5.349424557304944"><ele>44.0</ele><time>2026-04-06T11:18:50Z</time></trkpt><trkpt lat="51.2322675698212" lon="5.349556974096494"><ele>44.0</ele><time>2026-04-06T11:18:52Z</time></trkpt><trkpt lat="51.23240243146398" lon="5.349651243473334"><ele>44.0</ele><time>2026-04-06T11:18:54Z</time></trkpt><trkpt lat="51.23246206609167" lon="5.349741847203925"><ele>44.0</ele><time>2026-04-06T11:18:55Z</time></trkpt><trkpt lat="51.23250258980837" lon="5.349846355425453"><ele>44.0</ele><time>2026-04-06T11:18:56Z</time></trkpt><trkpt lat="51.23254445895515" lon="5.349981233475783"><ele>44.0</ele><time>2026-04-06T11:18:57Z</time></trkpt><trkpt lat="51.23259111639215" lon="5.350142685198609"><ele>44.0</ele><time>2026-04-06T11:18:58Z</time></trkpt><trkpt lat="51.23264296938542" lon="5.350315988047143"><ele>44.0</ele><time>2026-04-06T11:18:59Z</time></trkpt><trkpt lat="51.232688536260426" lon="5.350492583846459"><ele>44.0</ele><time>2026-04-06T11:19:00Z</time></trkpt><trkpt lat="51.23272005334799" lon="5.350635630451696"><ele>44.0</ele><time>2026-04-06T11:19:01Z</time></trkpt><trkpt lat="51.232742166710054" lon="5.3507577329406715"><ele>44.0</ele><time>2026-04-06T11:19:02Z</time></trkpt><trkpt lat="51.23276613413575" lon="5.35088202211517"><ele>44.0</ele><time>2026-04-06T11:19:03Z</time></trkpt><trkpt lat="51.232789709613265" lon="5.3510216389945775"><ele>44.0</ele><time>2026-04-06T11:19:04Z</time></trkpt><trkpt lat="51.23281731785502" lon="5.351168383821354"><ele>44.0</ele><time>2026-04-06T11:19:05Z</time></trkpt><trkpt lat="51.23284858002364" lon="5.351335896643608"><ele>44.0</ele><time>2026-04-06T11:19:06Z</time></trkpt><trkpt lat="51.23288266884948" lon="5.351518260878986"><ele>44.0</ele><time>2026-04-06T11:19:07Z</time></trkpt><trkpt lat="51.2329220174027" lon="5.351723295395617"><ele>44.0</ele><time>2026-04-06T11:19:08Z</time></trkpt><trkpt lat="51.23295798102561" lon="5.351923383440123"><ele>44.0</ele><time>2026-04-06T11:19:09Z</time></trkpt><trkpt lat="51.23299394257518" lon="5.352125017933204"><ele>44.0</ele><time>2026-04-06T11:19:10Z</time></trkpt><trkpt lat="51.233031758334086" lon="5.352334072804698"><ele>43.75</ele><time>2026-04-06T11:19:11Z</time></trkpt><trkpt lat="51.23307136192963" lon="5.352547333674272"><ele>43.5</ele><time>2026-04-06T11:19:12Z</time></trkpt><trkpt lat="51.23311150361108" lon="5.352760711502704"><ele>43.25</ele><time>2026-04-06T11:19:13Z</time></trkpt><trkpt lat="51.23314955281484" lon="5.352968365404714"><ele>43.0</ele><time>2026-04-06T11:19:14Z</time></trkpt><trkpt lat="51.233185853273504" lon="5.353173595704246"><ele>43.5</ele><time>2026-04-06T11:19:15Z</time></trkpt><trkpt lat="51.23322187907692" lon="5.353370846032311"><ele>44.0</ele><time>2026-04-06T11:19:16Z</time></trkpt><trkpt lat="51.23325688969526" lon="5.353566927802266"><ele>44.5</ele><time>2026-04-06T11:19:17Z</time></trkpt><trkpt lat="51.23329166704302" lon="5.353762672733178"><ele>45.0</ele><time>2026-04-06T11:19:18Z</time></trkpt><trkpt lat="51.23332755738611" lon="5.353958321754458"><ele>45.0</ele><time>2026-04-06T11:19:19Z</time></trkpt><trkpt lat="51.233363390982426" lon="5.354154430274092"><ele>45.0</ele><time>2026-04-06T11:19:20Z</time></trkpt><trkpt lat="51.23339781611457" lon="5.354351789667233"><ele>45.0</ele><time>2026-04-06T11:19:21Z</time></trkpt><trkpt lat="51.23343222820134" lon="5.354549803639856"><ele>45.0</ele><time>2026-04-06T11:19:22Z</time></trkpt><trkpt lat="51.233467254730435" lon="5.354740924534068"><ele>44.5</ele><time>2026-04-06T11:19:23Z</time></trkpt><trkpt lat="51.233500943963364" lon="5.354921801687313"><ele>44.0</ele><time>2026-04-06T11:19:24Z</time></trkpt><trkpt lat="51.233535916291515" lon="5.355111690498449"><ele>43.5</ele><time>2026-04-06T11:19:25Z</time></trkpt><trkpt lat="51.23357220778217" lon="5.355305074864817"><ele>43.0</ele><time>2026-04-06T11:19:26Z</time></trkpt><trkpt lat="51.23360886228993" lon="5.355500599801559"><ele>43.0</ele><time>2026-04-06T11:19:27Z</time></trkpt><trkpt lat="51.23364390418135" lon="5.355698474331733"><ele>43.0</ele><time>2026-04-06T11:19:28Z</time></trkpt><trkpt lat="51.23368080787669" lon="5.355899600423756"><ele>43.0</ele><time>2026-04-06T11:19:29Z</time></trkpt><trkpt lat="51.23371895105145" lon="5.356103326630868"><ele>43.0</ele><time>2026-04-06T11:19:30Z</time></trkpt><trkpt lat="51.2337555861219" lon="5.3563036084393625"><ele>43.2</ele><time>2026-04-06T11:19:31Z</time></trkpt><trkpt lat="51.23378802302043" lon="5.356488413002166"><ele>43.4</ele><time>2026-04-06T11:19:32Z</time></trkpt><trkpt lat="51.233818980633885" lon="5.356665132645278"><ele>43.6</ele><time>2026-04-06T11:19:33Z</time></trkpt><trkpt lat="51.23385081476276" lon="5.356831500346706"><ele>43.800000000000004</ele><time>2026-04-06T11:19:34Z</time></trkpt><trkpt lat="51.233879655043594" lon="5.3569830746994835"><ele>44.0</ele><time>2026-04-06T11:19:35Z</time></trkpt><trkpt lat="51.23390456875435" lon="5.3571129537405655"><ele>44.0</ele><time>2026-04-06T11:19:36Z</time></trkpt><trkpt lat="51.23393372329812" lon="5.357277153005332"><ele>44.0</ele><time>2026-04-06T11:19:38Z</time></trkpt><trkpt lat="51.233957076996425" lon="5.357404583147073"><ele>44.0</ele><time>2026-04-06T11:19:40Z</time></trkpt><trkpt lat="51.23398981552629" lon="5.357583072896381"><ele>44.0</ele><time>2026-04-06T11:19:42Z</time></trkpt><trkpt lat="51.23401252507159" lon="5.35769833911008"><ele>44.0</ele><time>2026-04-06T11:19:43Z</time></trkpt><trkpt lat="51.23404073893514" lon="5.357840951066024"><ele>44.0</ele><time>2026-04-06T11:19:44Z</time></trkpt><trkpt lat="51.234072374577266" lon="5.358016820837025"><ele>44.0</ele><time>2026-04-06T11:19:45Z</time></trkpt><trkpt lat="51.23410792098005" lon="5.3581987770205"><ele>44.0</ele><time>2026-04-06T11:19:46Z</time></trkpt><trkpt lat="51.23414138966031" lon="5.358388681181686"><ele>44.0</ele><time>2026-04-06T11:19:47Z</time></trkpt><trkpt lat="51.234175199128856" lon="5.358590772163072"><ele>44.0</ele><time>2026-04-06T11:19:48Z</time></trkpt><trkpt lat="51.234207885304365" lon="5.3587947430248795"><ele>44.0</ele><time>2026-04-06T11:19:49Z</time></trkpt><trkpt lat="51.234237987059316" lon="5.359000044293846"><ele>44.0</ele><time>2026-04-06T11:19:50Z</time></trkpt><trkpt lat="51.2342657629279" lon="5.359206428770377"><ele>44.0</ele><time>2026-04-06T11:19:51Z</time></trkpt><trkpt lat="51.23429521802742" lon="5.359415536213566"><ele>44.0</ele><time>2026-04-06T11:19:52Z</time></trkpt><trkpt lat="51.23432331991676" lon="5.359624975680781"><ele>44.0</ele><time>2026-04-06T11:19:53Z</time></trkpt><trkpt lat="51.23435135737021" lon="5.359834577568633"><ele>44.0</ele><time>2026-04-06T11:19:54Z</time></trkpt><trkpt lat="51.234378512667405" lon="5.360044931860174"><ele>44.0</ele><time>2026-04-06T11:19:55Z</time></trkpt><trkpt lat="51.234405457350924" lon="5.360253664917773"><ele>44.0</ele><time>2026-04-06T11:19:56Z</time></trkpt><trkpt lat="51.23443075364198" lon="5.360458961973234"><ele>44.0</ele><time>2026-04-06T11:19:57Z</time></trkpt><trkpt lat="51.234455348478036" lon="5.360654350690056"><ele>44.0</ele><time>2026-04-06T11:19:58Z</time></trkpt><trkpt lat="51.23447925208718" lon="5.360844258030684"><ele>44.0</ele><time>2026-04-06T11:19:59Z</time></trkpt><trkpt lat="51.23450360956515" lon="5.361032465149174"><ele>43.75</ele><time>2026-04-06T11:20:00Z</time></trkpt><trkpt lat="51.23452974019946" lon="5.361225705070712"><ele>43.5</ele><time>2026-04-06T11:20:01Z</time></trkpt><trkpt lat="51.234556123467556" lon="5.361422405442807"><ele>43.25</ele><time>2026-04-06T11:20:02Z</time></trkpt><trkpt lat="51.234581981159465" lon="5.361623667239006"><ele>43.0</ele><time>2026-04-06T11:20:03Z</time></trkpt><trkpt lat="51.234606246985116" lon="5.361818799987983"><ele>43.0</ele><time>2026-04-06T11:20:04Z</time></trkpt><trkpt lat="51.23462834076772" lon="5.36199609658389"><ele>43.0</ele><time>2026-04-06T11:20:05Z</time></trkpt><trkpt lat="51.23464953202863" lon="5.362158751671892"><ele>43.0</ele><time>2026-04-06T11:20:06Z</time></trkpt><trkpt lat="51.23466682460308" lon="5.362291052463196"><ele>43.0</ele><time>2026-04-06T11:20:07Z</time></trkpt><trkpt lat="51.23468001323801" lon="5.362396344667022"><ele>43.0</ele><time>2026-04-06T11:20:08Z</time></trkpt><trkpt lat="51.23469315544678" lon="5.362497413033684"><ele>43.0</ele><time>2026-04-06T11:20:09Z</time></trkpt><trkpt lat="51.23470873545896" lon="5.362622915255089"><ele>42.8</ele><time>2026-04-06T11:20:10Z</time></trkpt><trkpt lat="51.23472771133885" lon="5.362763258545047"><ele>42.599999999999994</ele><time>2026-04-06T11:20:11Z</time></trkpt><trkpt lat="51.23474810613598" lon="5.3629204173670875"><ele>42.400000000000006</ele><time>2026-04-06T11:20:12Z</time></trkpt><trkpt lat="51.23477119613898" lon="5.363098923753329"><ele>42.2</ele><time>2026-04-06T11:20:13Z</time></trkpt><trkpt lat="51.23479058995647" lon="5.36324847506815"><ele>42.0</ele><time>2026-04-06T11:20:14Z</time></trkpt><trkpt lat="51.23480403085264" lon="5.363358490843942"><ele>42.0</ele><time>2026-04-06T11:20:15Z</time></trkpt><trkpt lat="51.234827044151736" lon="5.363545218969011"><ele>42.0</ele><time>2026-04-06T11:20:17Z</time></trkpt><trkpt lat="51.23484419849587" lon="5.36366897838173"><ele>42.0</ele><time>2026-04-06T11:20:18Z</time></trkpt><trkpt lat="51.23486635016611" lon="5.363817674019696"><ele>42.0</ele><time>2026-04-06T11:20:19Z</time></trkpt><trkpt lat="51.23489163240859" lon="5.363991284804557"><ele>42.0</ele><time>2026-04-06T11:20:20Z</time></trkpt><trkpt lat="51.234914575114196" lon="5.364166868325113"><ele>42.0</ele><time>2026-04-06T11:20:21Z</time></trkpt><trkpt lat="51.23493708142351" lon="5.364341882569668"><ele>42.0</ele><time>2026-04-06T11:20:22Z</time></trkpt><trkpt lat="51.23496075849077" lon="5.364524306467895"><ele>42.0</ele><time>2026-04-06T11:20:23Z</time></trkpt><trkpt lat="51.23498504193448" lon="5.3647099486365555"><ele>42.0</ele><time>2026-04-06T11:20:24Z</time></trkpt><trkpt lat="51.23500791994553" lon="5.3648974131958145"><ele>42.0</ele><time>2026-04-06T11:20:25Z</time></trkpt><trkpt lat="51.23503265507049" lon="5.365088178544359"><ele>42.0</ele><time>2026-04-06T11:20:26Z</time></trkpt><trkpt lat="51.2350560547784" lon="5.365280387223747"><ele>42.0</ele><time>2026-04-06T11:20:27Z</time></trkpt><trkpt lat="51.235080177695956" lon="5.365474035426521"><ele>42.0</ele><time>2026-04-06T11:20:28Z</time></trkpt><trkpt lat="51.235106508107805" lon="5.365670176238723"><ele>42.0</ele><time>2026-04-06T11:20:29Z</time></trkpt><trkpt lat="51.23513233196597" lon="5.365867573645012"><ele>42.0</ele><time>2026-04-06T11:20:30Z</time></trkpt><trkpt lat="51.235159624998" lon="5.366066777024211"><ele>42.0</ele><time>2026-04-06T11:20:31Z</time></trkpt><trkpt lat="51.235185273552375" lon="5.366268176033818"><ele>42.0</ele><time>2026-04-06T11:20:32Z</time></trkpt><trkpt lat="51.23521064247717" lon="5.366472680322883"><ele>42.0</ele><time>2026-04-06T11:20:33Z</time></trkpt><trkpt lat="51.23523497055674" lon="5.366677184473188"><ele>42.0</ele><time>2026-04-06T11:20:34Z</time></trkpt><trkpt lat="51.2352601528452" lon="5.366883948841724"><ele>42.0</ele><time>2026-04-06T11:20:35Z</time></trkpt><trkpt lat="51.23528648687714" lon="5.367091228297544"><ele>42.0</ele><time>2026-04-06T11:20:36Z</time></trkpt><trkpt lat="51.23531229230884" lon="5.367294214604125"><ele>42.0</ele><time>2026-04-06T11:20:37Z</time></trkpt><trkpt lat="51.23533796607299" lon="5.367481843791542"><ele>42.0</ele><time>2026-04-06T11:20:38Z</time></trkpt><trkpt lat="51.235362948248536" lon="5.367652585419305"><ele>42.0</ele><time>2026-04-06T11:20:39Z</time></trkpt><trkpt lat="51.23538615348674" lon="5.367790624575438"><ele>42.0</ele><time>2026-04-06T11:20:40Z</time></trkpt><trkpt lat="51.23539991010395" lon="5.367904051818306"><ele>42.0</ele><time>2026-04-06T11:20:41Z</time></trkpt><trkpt lat="51.23539118640453" lon="5.368065277802717"><ele>41.8</ele><time>2026-04-06T11:20:43Z</time></trkpt><trkpt lat="51.2353330184583" lon="5.3682258799208755"><ele>41.6</ele><time>2026-04-06T11:20:45Z</time></trkpt><trkpt lat="51.235348687988676" lon="5.368413936919683"><ele>41.4</ele><time>2026-04-06T11:20:47Z</time></trkpt><trkpt lat="51.235399741689726" lon="5.368530843733748"><ele>41.199999999999996</ele><time>2026-04-06T11:20:49Z</time></trkpt><trkpt lat="51.23546620912593" lon="5.368652502462193"><ele>41.0</ele><time>2026-04-06T11:20:51Z</time></trkpt><trkpt lat="51.23542283154553" lon="5.368832858715304"><ele>41.0</ele><time>2026-04-06T11:20:52Z</time></trkpt><trkpt lat="51.23538773258117" lon="5.369011317401653"><ele>41.0</ele><time>2026-04-06T11:20:53Z</time></trkpt><trkpt lat="51.235346833141264" lon="5.369231700038467"><ele>41.0</ele><time>2026-04-06T11:20:54Z</time></trkpt><trkpt lat="51.23531106738494" lon="5.3694319167424664"><ele>41.0</ele><time>2026-04-06T11:20:55Z</time></trkpt><trkpt lat="51.23527568318279" lon="5.36963358156055"><ele>41.0</ele><time>2026-04-06T11:20:56Z</time></trkpt><trkpt lat="51.23523964196574" lon="5.369833812239829"><ele>41.0</ele><time>2026-04-06T11:20:57Z</time></trkpt><trkpt lat="51.23520386417087" lon="5.370032129476872"><ele>41.0</ele><time>2026-04-06T11:20:58Z</time></trkpt><trkpt lat="51.23517022565606" lon="5.370229789031595"><ele>41.0</ele><time>2026-04-06T11:20:59Z</time></trkpt><trkpt lat="51.23513740883903" lon="5.370419696660107"><ele>41.199999999999996</ele><time>2026-04-06T11:21:00Z</time></trkpt><trkpt lat="51.235104714296" lon="5.370600576657923"><ele>41.4</ele><time>2026-04-06T11:21:01Z</time></trkpt><trkpt lat="51.23507400191375" lon="5.370772349723795"><ele>41.6</ele><time>2026-04-06T11:21:02Z</time></trkpt><trkpt lat="51.23504425891212" lon="5.370937758332869"><ele>41.8</ele><time>2026-04-06T11:21:03Z</time></trkpt><trkpt lat="51.23501534348304" lon="5.371097078481728"><ele>42.0</ele><time>2026-04-06T11:21:04Z</time></trkpt><trkpt lat="51.23499393683607" lon="5.37125278773325"><ele>42.0</ele><time>2026-04-06T11:21:05Z</time></trkpt><trkpt lat="51.23497072534343" lon="5.371400712446321"><ele>42.0</ele><time>2026-04-06T11:21:06Z</time></trkpt><trkpt lat="51.23494948570293" lon="5.371510203429866"><ele>42.0</ele><time>2026-04-06T11:21:07Z</time></trkpt><trkpt lat="51.23493014816823" lon="5.3716102321938015"><ele>42.0</ele><time>2026-04-06T11:21:08Z</time></trkpt><trkpt lat="51.23487031403874" lon="5.371704092348798"><ele>42.0</ele><time>2026-04-06T11:21:10Z</time></trkpt><trkpt lat="51.23481420978305" lon="5.371770661765661"><ele>42.0</ele><time>2026-04-06T11:21:16Z</time></trkpt><trkpt lat="51.23483944661549" lon="5.371990346698218"><ele>42.0</ele><time>2026-04-06T11:21:18Z</time></trkpt><trkpt lat="51.23485837443767" lon="5.372116237361541"><ele>42.0</ele><time>2026-04-06T11:21:19Z</time></trkpt><trkpt lat="51.234877836118045" lon="5.37225356135841"><ele>42.0</ele><time>2026-04-06T11:21:20Z</time></trkpt><trkpt lat="51.2348959595674" lon="5.372369533350444"><ele>42.0</ele><time>2026-04-06T11:21:21Z</time></trkpt><trkpt lat="51.234915782104956" lon="5.3724777618333945"><ele>42.0</ele><time>2026-04-06T11:21:22Z</time></trkpt><trkpt lat="51.23493780467563" lon="5.372590006787458"><ele>42.0</ele><time>2026-04-06T11:21:23Z</time></trkpt><trkpt lat="51.23496022544902" lon="5.372710564306064"><ele>42.0</ele><time>2026-04-06T11:21:24Z</time></trkpt><trkpt lat="51.23498589156071" lon="5.372836157959032"><ele>42.0</ele><time>2026-04-06T11:21:25Z</time></trkpt><trkpt lat="51.23501186314769" lon="5.372970884212037"><ele>42.0</ele><time>2026-04-06T11:21:26Z</time></trkpt><trkpt lat="51.23503555000842" lon="5.3731075793926335"><ele>42.0</ele><time>2026-04-06T11:21:27Z</time></trkpt><trkpt lat="51.23506249671386" lon="5.373248617893163"><ele>42.0</ele><time>2026-04-06T11:21:28Z</time></trkpt><trkpt lat="51.23509105374748" lon="5.373388910902342"><ele>42.0</ele><time>2026-04-06T11:21:29Z</time></trkpt><trkpt lat="51.235118338033885" lon="5.373530765716879"><ele>41.8</ele><time>2026-04-06T11:21:30Z</time></trkpt><trkpt lat="51.235145885202975" lon="5.373671377551766"><ele>41.6</ele><time>2026-04-06T11:21:31Z</time></trkpt><trkpt lat="51.235173395351495" lon="5.373813628484681"><ele>41.4</ele><time>2026-04-06T11:21:32Z</time></trkpt><trkpt lat="51.23519995776151" lon="5.373957279184406"><ele>41.199999999999996</ele><time>2026-04-06T11:21:33Z</time></trkpt><trkpt lat="51.235226295450495" lon="5.3740997385573035"><ele>41.0</ele><time>2026-04-06T11:21:34Z</time></trkpt><trkpt lat="51.235253660741364" lon="5.374243330021778"><ele>41.33333333333333</ele><time>2026-04-06T11:21:35Z</time></trkpt><trkpt lat="51.23527915436591" lon="5.3743850520007195"><ele>41.666666666666664</ele><time>2026-04-06T11:21:36Z</time></trkpt><trkpt lat="51.23530506996654" lon="5.374527939632495"><ele>42.0</ele><time>2026-04-06T11:21:37Z</time></trkpt><trkpt lat="51.23532893675343" lon="5.374668495027259"><ele>42.333333333333336</ele><time>2026-04-06T11:21:38Z</time></trkpt><trkpt lat="51.2353512750401" lon="5.374796132125829"><ele>42.66666666666667</ele><time>2026-04-06T11:21:39Z</time></trkpt><trkpt lat="51.23537316837768" lon="5.374913229810149"><ele>43.0</ele><time>2026-04-06T11:21:40Z</time></trkpt><trkpt lat="51.23539465314325" lon="5.375016213975502"><ele>43.0</ele><time>2026-04-06T11:21:41Z</time></trkpt><trkpt lat="51.23542734036237" lon="5.375193708799368"><ele>43.0</ele><time>2026-04-06T11:21:43Z</time></trkpt><trkpt lat="51.23546343140465" lon="5.375394477703243"><ele>43.0</ele><time>2026-04-06T11:21:45Z</time></trkpt><trkpt lat="51.235482941253714" lon="5.375508993501147"><ele>43.0</ele><time>2026-04-06T11:21:46Z</time></trkpt><trkpt lat="51.235502658595486" lon="5.375628128754533"><ele>43.0</ele><time>2026-04-06T11:21:47Z</time></trkpt><trkpt lat="51.235526826151904" lon="5.3757578976821465"><ele>43.0</ele><time>2026-04-06T11:21:48Z</time></trkpt><trkpt lat="51.2355519937178" lon="5.375892684599118"><ele>43.0</ele><time>2026-04-06T11:21:49Z</time></trkpt><trkpt lat="51.23558041638017" lon="5.376035885468848"><ele>43.0</ele><time>2026-04-06T11:21:50Z</time></trkpt><trkpt lat="51.23560845942244" lon="5.376183948770573"><ele>43.0</ele><time>2026-04-06T11:21:51Z</time></trkpt><trkpt lat="51.23564038347103" lon="5.376336634134786"><ele>43.0</ele><time>2026-04-06T11:21:52Z</time></trkpt><trkpt lat="51.23567336272041" lon="5.3764938106869975"><ele>43.0</ele><time>2026-04-06T11:21:53Z</time></trkpt><trkpt lat="51.235712071374564" lon="5.37665415264435"><ele>43.0</ele><time>2026-04-06T11:21:54Z</time></trkpt><trkpt lat="51.235751944488875" lon="5.376823534778269"><ele>43.0</ele><time>2026-04-06T11:21:55Z</time></trkpt><trkpt lat="51.23579429778861" lon="5.377000960564116"><ele>43.0</ele><time>2026-04-06T11:21:56Z</time></trkpt><trkpt lat="51.235834677934925" lon="5.3771704880013385"><ele>42.5</ele><time>2026-04-06T11:21:57Z</time></trkpt><trkpt lat="51.23587590902148" lon="5.377342151189843"><ele>42.0</ele><time>2026-04-06T11:21:58Z</time></trkpt><trkpt lat="51.23591838207658" lon="5.37751643217032"><ele>41.5</ele><time>2026-04-06T11:21:59Z</time></trkpt><trkpt lat="51.23596135188183" lon="5.377690742537362"><ele>41.0</ele><time>2026-04-06T11:22:00Z</time></trkpt><trkpt lat="51.23600541967924" lon="5.377866524673649"><ele>40.75</ele><time>2026-04-06T11:22:01Z</time></trkpt><trkpt lat="51.236050007629885" lon="5.37804141805094"><ele>40.5</ele><time>2026-04-06T11:22:02Z</time></trkpt><trkpt lat="51.236093439214464" lon="5.378217645742706"><ele>40.25</ele><time>2026-04-06T11:22:03Z</time></trkpt><trkpt lat="51.236137372725835" lon="5.378392626940077"><ele>40.0</ele><time>2026-04-06T11:22:04Z</time></trkpt><trkpt lat="51.23618272670065" lon="5.378568524945011"><ele>40.0</ele><time>2026-04-06T11:22:05Z</time></trkpt><trkpt lat="51.23623080742262" lon="5.378744626786801"><ele>40.0</ele><time>2026-04-06T11:22:06Z</time></trkpt><trkpt lat="51.23627692786425" lon="5.378924556592017"><ele>40.0</ele><time>2026-04-06T11:22:07Z</time></trkpt><trkpt lat="51.236322572783955" lon="5.379105968110876"><ele>40.0</ele><time>2026-04-06T11:22:08Z</time></trkpt><trkpt lat="51.23637096193787" lon="5.379288152343554"><ele>39.75</ele><time>2026-04-06T11:22:09Z</time></trkpt><trkpt lat="51.2364181571666" lon="5.379472734083155"><ele>39.5</ele><time>2026-04-06T11:22:10Z</time></trkpt><trkpt lat="51.23646558947125" lon="5.379658144160054"><ele>39.25</ele><time>2026-04-06T11:22:11Z</time></trkpt><trkpt lat="51.236512601850315" lon="5.379845338529882"><ele>39.0</ele><time>2026-04-06T11:22:12Z</time></trkpt><trkpt lat="51.23656286059694" lon="5.380033120749048"><ele>39.0</ele><time>2026-04-06T11:22:13Z</time></trkpt><trkpt lat="51.23661265615077" lon="5.38021943099342"><ele>39.0</ele><time>2026-04-06T11:22:14Z</time></trkpt><trkpt lat="51.2366561744726" lon="5.3803913661877845"><ele>39.0</ele><time>2026-04-06T11:22:15Z</time></trkpt><trkpt lat="51.23669735355754" lon="5.380548616064026"><ele>39.0</ele><time>2026-04-06T11:22:16Z</time></trkpt><trkpt lat="51.23673624229486" lon="5.380690435147403"><ele>39.0</ele><time>2026-04-06T11:22:17Z</time></trkpt><trkpt lat="51.236772193582304" lon="5.380826648164469"><ele>39.0</ele><time>2026-04-06T11:22:18Z</time></trkpt><trkpt lat="51.23679571367145" lon="5.380966022320329"><ele>39.0</ele><time>2026-04-06T11:22:19Z</time></trkpt><trkpt lat="51.23680319601832" lon="5.381114799043931"><ele>39.0</ele><time>2026-04-06T11:22:20Z</time></trkpt><trkpt lat="51.236782669883745" lon="5.381271217736824"><ele>39.0</ele><time>2026-04-06T11:22:21Z</time></trkpt><trkpt lat="51.236727890590345" lon="5.381400014661974"><ele>39.0</ele><time>2026-04-06T11:22:22Z</time></trkpt><trkpt lat="51.23665625496992" lon="5.381534105139183"><ele>39.25</ele><time>2026-04-06T11:22:23Z</time></trkpt><trkpt lat="51.23658227333261" lon="5.3816710747628145"><ele>39.5</ele><time>2026-04-06T11:22:24Z</time></trkpt><trkpt lat="51.236509322644494" lon="5.381808049475889"><ele>39.75</ele><time>2026-04-06T11:22:25Z</time></trkpt><trkpt lat="51.236432822634214" lon="5.3819503114966585"><ele>40.0</ele><time>2026-04-06T11:22:26Z</time></trkpt><trkpt lat="51.236356531049175" lon="5.382092445408348"><ele>39.5</ele><time>2026-04-06T11:22:27Z</time></trkpt><trkpt lat="51.23627708775081" lon="5.382235700108682"><ele>39.0</ele><time>2026-04-06T11:22:28Z</time></trkpt><trkpt lat="51.236200568668224" lon="5.382378327628008"><ele>38.5</ele><time>2026-04-06T11:22:29Z</time></trkpt><trkpt lat="51.23612231045286" lon="5.382519454920649"><ele>38.0</ele><time>2026-04-06T11:22:30Z</time></trkpt><trkpt lat="51.236045117771454" lon="5.382662967319886"><ele>38.0</ele><time>2026-04-06T11:22:31Z</time></trkpt><trkpt lat="51.23596723976826" lon="5.382806967895268"><ele>38.0</ele><time>2026-04-06T11:22:32Z</time></trkpt><trkpt lat="51.235888008571386" lon="5.382951032882094"><ele>38.0</ele><time>2026-04-06T11:22:33Z</time></trkpt><trkpt lat="51.23581061002951" lon="5.383099154431056"><ele>38.0</ele><time>2026-04-06T11:22:34Z</time></trkpt><trkpt lat="51.235731712071875" lon="5.383248183590704"><ele>38.25</ele><time>2026-04-06T11:22:35Z</time></trkpt><trkpt lat="51.23565291383948" lon="5.383396433616186"><ele>38.5</ele><time>2026-04-06T11:22:36Z</time></trkpt><trkpt lat="51.235573370164865" lon="5.383549340431746"><ele>38.75</ele><time>2026-04-06T11:22:37Z</time></trkpt><trkpt lat="51.23549026003447" lon="5.3837019199742695"><ele>39.0</ele><time>2026-04-06T11:22:38Z</time></trkpt><trkpt lat="51.235406451270556" lon="5.383853934291159"><ele>39.25</ele><time>2026-04-06T11:22:39Z</time></trkpt><trkpt lat="51.235322879474495" lon="5.3840043222704965"><ele>39.5</ele><time>2026-04-06T11:22:40Z</time></trkpt><trkpt lat="51.235239028585234" lon="5.38415309128896"><ele>39.75</ele><time>2026-04-06T11:22:41Z</time></trkpt><trkpt lat="51.23515783781425" lon="5.384304378754701"><ele>40.0</ele><time>2026-04-06T11:22:42Z</time></trkpt><trkpt lat="51.23507457906342" lon="5.384457195534335"><ele>40.0</ele><time>2026-04-06T11:22:43Z</time></trkpt><trkpt lat="51.23499466359656" lon="5.384610332474444"><ele>40.0</ele><time>2026-04-06T11:22:44Z</time></trkpt><trkpt lat="51.23491529021745" lon="5.384765519151042"><ele>40.0</ele><time>2026-04-06T11:22:45Z</time></trkpt><trkpt lat="51.23483225961614" lon="5.3849211762606854"><ele>40.0</ele><time>2026-04-06T11:22:46Z</time></trkpt><trkpt lat="51.23474657417094" lon="5.385071753981853"><ele>40.25</ele><time>2026-04-06T11:22:47Z</time></trkpt><trkpt lat="51.23466245695883" lon="5.385228530028321"><ele>40.5</ele><time>2026-04-06T11:22:48Z</time></trkpt><trkpt lat="51.234579879547844" lon="5.385387429371259"><ele>40.75</ele><time>2026-04-06T11:22:49Z</time></trkpt><trkpt lat="51.234494086910395" lon="5.385546564175315"><ele>41.0</ele><time>2026-04-06T11:22:50Z</time></trkpt><trkpt lat="51.23440744464783" lon="5.385702378399934"><ele>41.0</ele><time>2026-04-06T11:22:51Z</time></trkpt><trkpt lat="51.23432039894362" lon="5.385858425292067"><ele>41.0</ele><time>2026-04-06T11:22:52Z</time></trkpt><trkpt lat="51.23423556977475" lon="5.386018318576028"><ele>41.0</ele><time>2026-04-06T11:22:53Z</time></trkpt><trkpt lat="51.23415192870898" lon="5.386174049215539"><ele>41.0</ele><time>2026-04-06T11:22:54Z</time></trkpt><trkpt lat="51.234074176472454" lon="5.386315827482861"><ele>40.8</ele><time>2026-04-06T11:22:55Z</time></trkpt><trkpt lat="51.233999495107824" lon="5.386448942638096"><ele>40.599999999999994</ele><time>2026-04-06T11:22:56Z</time></trkpt><trkpt lat="51.23392949157299" lon="5.386571175700312"><ele>40.4</ele><time>2026-04-06T11:22:57Z</time></trkpt><trkpt lat="51.23386239803876" lon="5.386685345407201"><ele>40.2</ele><time>2026-04-06T11:22:58Z</time></trkpt><trkpt lat="51.233809125711566" lon="5.386807571114774"><ele>40.0</ele><time>2026-04-06T11:22:59Z</time></trkpt><trkpt lat="51.233775523795615" lon="5.386948437916246"><ele>40.0</ele><time>2026-04-06T11:23:00Z</time></trkpt><trkpt lat="51.23375892848761" lon="5.387097475470228"><ele>40.0</ele><time>2026-04-06T11:23:01Z</time></trkpt><trkpt lat="51.233752678888436" lon="5.387252536038359"><ele>40.0</ele><time>2026-04-06T11:23:02Z</time></trkpt><trkpt lat="51.23375258604796" lon="5.387409367193258"><ele>40.0</ele><time>2026-04-06T11:23:03Z</time></trkpt><trkpt lat="51.23375200722062" lon="5.387573879263262"><ele>40.0</ele><time>2026-04-06T11:23:04Z</time></trkpt><trkpt lat="51.233751326844086" lon="5.387739199070203"><ele>40.0</ele><time>2026-04-06T11:23:05Z</time></trkpt><trkpt lat="51.23374763886821" lon="5.387907660701526"><ele>40.0</ele><time>2026-04-06T11:23:06Z</time></trkpt><trkpt lat="51.23374595025359" lon="5.388077876029489"><ele>40.0</ele><time>2026-04-06T11:23:07Z</time></trkpt><trkpt lat="51.23374385789261" lon="5.388248503649537"><ele>40.0</ele><time>2026-04-06T11:23:08Z</time></trkpt><trkpt lat="51.23374156542662" lon="5.388420492272088"><ele>40.0</ele><time>2026-04-06T11:23:09Z</time></trkpt><trkpt lat="51.23374094621993" lon="5.388596086762437"><ele>40.2</ele><time>2026-04-06T11:23:10Z</time></trkpt><trkpt lat="51.23373863792716" lon="5.388770033441813"><ele>40.4</ele><time>2026-04-06T11:23:11Z</time></trkpt><trkpt lat="51.233735659820944" lon="5.38894509408634"><ele>40.599999999999994</ele><time>2026-04-06T11:23:12Z</time></trkpt><trkpt lat="51.233732928955995" lon="5.389124124046229"><ele>40.8</ele><time>2026-04-06T11:23:13Z</time></trkpt><trkpt lat="51.23372961485224" lon="5.389301364044168"><ele>41.0</ele><time>2026-04-06T11:23:14Z</time></trkpt><trkpt lat="51.23373148913989" lon="5.3894797913253765"><ele>41.0</ele><time>2026-04-06T11:23:15Z</time></trkpt><trkpt lat="51.23373037279205" lon="5.389659589794943"><ele>41.0</ele><time>2026-04-06T11:23:16Z</time></trkpt><trkpt lat="51.23372835633537" lon="5.389840864547793"><ele>41.0</ele><time>2026-04-06T11:23:17Z</time></trkpt><trkpt lat="51.2337275548471" lon="5.390022585212323"><ele>41.0</ele><time>2026-04-06T11:23:18Z</time></trkpt><trkpt lat="51.23372562514613" lon="5.390202889934232"><ele>41.25</ele><time>2026-04-06T11:23:19Z</time></trkpt><trkpt lat="51.23372244725191" lon="5.390383693181409"><ele>41.5</ele><time>2026-04-06T11:23:20Z</time></trkpt><trkpt lat="51.2337194633367" lon="5.3905636618598844"><ele>41.75</ele><time>2026-04-06T11:23:21Z</time></trkpt><trkpt lat="51.23372052550633" lon="5.390744071428107"><ele>42.0</ele><time>2026-04-06T11:23:22Z</time></trkpt><trkpt lat="51.23371983914297" lon="5.390924173993075"><ele>42.0</ele><time>2026-04-06T11:23:23Z</time></trkpt><trkpt lat="51.23371663439081" lon="5.3911048858151736"><ele>42.0</ele><time>2026-04-06T11:23:24Z</time></trkpt><trkpt lat="51.23371400576546" lon="5.391285722253958"><ele>42.0</ele><time>2026-04-06T11:23:25Z</time></trkpt><trkpt lat="51.233715966033635" lon="5.391466711834493"><ele>42.0</ele><time>2026-04-06T11:23:26Z</time></trkpt><trkpt lat="51.23371813872496" lon="5.391647245990588"><ele>42.0</ele><time>2026-04-06T11:23:27Z</time></trkpt><trkpt lat="51.2337185865943" lon="5.391828278817178"><ele>42.0</ele><time>2026-04-06T11:23:28Z</time></trkpt><trkpt lat="51.23371574542091" lon="5.392009005704441"><ele>42.0</ele><time>2026-04-06T11:23:29Z</time></trkpt><trkpt lat="51.233714362653394" lon="5.392189302168711"><ele>42.0</ele><time>2026-04-06T11:23:30Z</time></trkpt><trkpt lat="51.23371441849363" lon="5.39236946342342"><ele>42.0</ele><time>2026-04-06T11:23:31Z</time></trkpt><trkpt lat="51.23371417313193" lon="5.392550353748876"><ele>42.0</ele><time>2026-04-06T11:23:32Z</time></trkpt><trkpt lat="51.23371381624004" lon="5.392729487106103"><ele>42.0</ele><time>2026-04-06T11:23:33Z</time></trkpt><trkpt lat="51.233712908975974" lon="5.392908045691398"><ele>42.0</ele><time>2026-04-06T11:23:34Z</time></trkpt><trkpt lat="51.233711476477886" lon="5.3930814109605745"><ele>42.0</ele><time>2026-04-06T11:23:35Z</time></trkpt><trkpt lat="51.233707702640054" lon="5.39325120318211"><ele>42.0</ele><time>2026-04-06T11:23:36Z</time></trkpt><trkpt lat="51.23370450583971" lon="5.393416325582953"><ele>42.0</ele><time>2026-04-06T11:23:37Z</time></trkpt><trkpt lat="51.2337019871294" lon="5.393579919869456"><ele>42.0</ele><time>2026-04-06T11:23:38Z</time></trkpt><trkpt lat="51.23370068578773" lon="5.393742422422759"><ele>42.0</ele><time>2026-04-06T11:23:39Z</time></trkpt><trkpt lat="51.23370144573147" lon="5.393905475898968"><ele>42.0</ele><time>2026-04-06T11:23:40Z</time></trkpt><trkpt lat="51.23370164963232" lon="5.394070908921004"><ele>42.0</ele><time>2026-04-06T11:23:41Z</time></trkpt><trkpt lat="51.2336972545499" lon="5.394237315036462"><ele>42.0</ele><time>2026-04-06T11:23:42Z</time></trkpt><trkpt lat="51.2336939679481" lon="5.394406419072816"><ele>42.0</ele><time>2026-04-06T11:23:43Z</time></trkpt><trkpt lat="51.2336933143451" lon="5.394578535057424"><ele>42.0</ele><time>2026-04-06T11:23:44Z</time></trkpt><trkpt lat="51.233694349991616" lon="5.394752251263695"><ele>42.0</ele><time>2026-04-06T11:23:45Z</time></trkpt><trkpt lat="51.23369484456208" lon="5.394928125285567"><ele>41.8</ele><time>2026-04-06T11:23:46Z</time></trkpt><trkpt lat="51.23369315395705" lon="5.395105623932291"><ele>41.6</ele><time>2026-04-06T11:23:47Z</time></trkpt><trkpt lat="51.23369294665584" lon="5.395283008743374"><ele>41.4</ele><time>2026-04-06T11:23:48Z</time></trkpt><trkpt lat="51.233690239221154" lon="5.395461997752541"><ele>41.199999999999996</ele><time>2026-04-06T11:23:49Z</time></trkpt><trkpt lat="51.23368750559993" lon="5.395644394133593"><ele>41.0</ele><time>2026-04-06T11:23:50Z</time></trkpt><trkpt lat="51.23368236916823" lon="5.395832728337341"><ele>40.666666666666664</ele><time>2026-04-06T11:23:51Z</time></trkpt><trkpt lat="51.23368133227106" lon="5.3960476630926095"><ele>40.333333333333336</ele><time>2026-04-06T11:23:52Z</time></trkpt><trkpt lat="51.233682473007875" lon="5.396299804696485"><ele>40.0</ele><time>2026-04-06T11:23:53Z</time></trkpt><trkpt lat="51.23367917332653" lon="5.3965802101195415"><ele>41.0</ele><time>2026-04-06T11:23:54Z</time></trkpt><trkpt lat="51.23367598690025" lon="5.396842036400305"><ele>42.0</ele><time>2026-04-06T11:23:55Z</time></trkpt><trkpt lat="51.233673837769445" lon="5.397106901809515"><ele>43.0</ele><time>2026-04-06T11:23:56Z</time></trkpt><trkpt lat="51.23367318069682" lon="5.3973662097045745"><ele>43.0</ele><time>2026-04-06T11:23:57Z</time></trkpt><trkpt lat="51.233671460736" lon="5.3976205177643575"><ele>43.0</ele><time>2026-04-06T11:23:58Z</time></trkpt><trkpt lat="51.23367043072486" lon="5.3978676492475515"><ele>43.0</ele><time>2026-04-06T11:23:59Z</time></trkpt><trkpt lat="51.233665025696354" lon="5.398110450857321"><ele>43.0</ele><time>2026-04-06T11:24:00Z</time></trkpt><trkpt lat="51.233661738969225" lon="5.398349317558085"><ele>43.0</ele><time>2026-04-06T11:24:01Z</time></trkpt><trkpt lat="51.23366153042243" lon="5.398585129408311"><ele>43.0</ele><time>2026-04-06T11:24:02Z</time></trkpt><trkpt lat="51.2336620386317" lon="5.3988256202897285"><ele>43.0</ele><time>2026-04-06T11:24:03Z</time></trkpt><trkpt lat="51.23364793311807" lon="5.399074390826658"><ele>42.66666666666667</ele><time>2026-04-06T11:24:04Z</time></trkpt><trkpt lat="51.23361684354273" lon="5.399324127361323"><ele>42.333333333333336</ele><time>2026-04-06T11:24:05Z</time></trkpt><trkpt lat="51.2335785977361" lon="5.399577864836609"><ele>42.0</ele><time>2026-04-06T11:24:06Z</time></trkpt><trkpt lat="51.23354288028441" lon="5.399835537961131"><ele>42.0</ele><time>2026-04-06T11:24:07Z</time></trkpt><trkpt lat="51.233505827927274" lon="5.400097225761298"><ele>42.0</ele><time>2026-04-06T11:24:08Z</time></trkpt><trkpt lat="51.233470624447165" lon="5.4003618373181626"><ele>42.0</ele><time>2026-04-06T11:24:09Z</time></trkpt><trkpt lat="51.233434871230635" lon="5.400629649831948"><ele>43.0</ele><time>2026-04-06T11:24:10Z</time></trkpt><trkpt lat="51.23339432225609" lon="5.400896754683369"><ele>44.0</ele><time>2026-04-06T11:24:11Z</time></trkpt><trkpt lat="51.23335341942548" lon="5.40116085312235"><ele>45.0</ele><time>2026-04-06T11:24:12Z</time></trkpt><trkpt lat="51.23331454835948" lon="5.401418503273003"><ele>45.333333333333336</ele><time>2026-04-06T11:24:13Z</time></trkpt><trkpt lat="51.23327887250864" lon="5.401667053404228"><ele>45.66666666666667</ele><time>2026-04-06T11:24:14Z</time></trkpt><trkpt lat="51.23324575173937" lon="5.401897043859778"><ele>46.0</ele><time>2026-04-06T11:24:15Z</time></trkpt><trkpt lat="51.2332115922047" lon="5.402128567859012"><ele>45.25</ele><time>2026-04-06T11:24:16Z</time></trkpt><trkpt lat="51.23317667321646" lon="5.402360943481954"><ele>44.5</ele><time>2026-04-06T11:24:17Z</time></trkpt><trkpt lat="51.233141664548924" lon="5.402590145671421"><ele>43.75</ele><time>2026-04-06T11:24:18Z</time></trkpt><trkpt lat="51.23310510862486" lon="5.402818850667386"><ele>43.0</ele><time>2026-04-06T11:24:19Z</time></trkpt><trkpt lat="51.233066838316205" lon="5.403047124634772"><ele>42.66666666666667</ele><time>2026-04-06T11:24:20Z</time></trkpt><trkpt lat="51.23302540105345" lon="5.403276246597499"><ele>42.333333333333336</ele><time>2026-04-06T11:24:21Z</time></trkpt><trkpt lat="51.2329860143223" lon="5.40350780883376"><ele>42.0</ele><time>2026-04-06T11:24:22Z</time></trkpt><trkpt lat="51.232947883958126" lon="5.4037402543755215"><ele>42.0</ele><time>2026-04-06T11:24:23Z</time></trkpt><trkpt lat="51.23291089745938" lon="5.403974084008346"><ele>42.0</ele><time>2026-04-06T11:24:24Z</time></trkpt><trkpt lat="51.23287433670829" lon="5.404208796725301"><ele>42.0</ele><time>2026-04-06T11:24:25Z</time></trkpt><trkpt lat="51.23283516480567" lon="5.404445233126053"><ele>42.333333333333336</ele><time>2026-04-06T11:24:26Z</time></trkpt><trkpt lat="51.232797210701946" lon="5.404681317486018"><ele>42.66666666666667</ele><time>2026-04-06T11:24:27Z</time></trkpt><trkpt lat="51.23275825117281" lon="5.404917702746833"><ele>43.0</ele><time>2026-04-06T11:24:28Z</time></trkpt><trkpt lat="51.23271803330214" lon="5.405156859663655"><ele>43.0</ele><time>2026-04-06T11:24:29Z</time></trkpt><trkpt lat="51.23268063300643" lon="5.405390163813401"><ele>43.0</ele><time>2026-04-06T11:24:30Z</time></trkpt><trkpt lat="51.23264540086909" lon="5.4056028684693676"><ele>43.0</ele><time>2026-04-06T11:24:31Z</time></trkpt><trkpt lat="51.232611475393455" lon="5.405799339464898"><ele>43.0</ele><time>2026-04-06T11:24:32Z</time></trkpt><trkpt lat="51.23258097356924" lon="5.40598037240281"><ele>43.599999999999994</ele><time>2026-04-06T11:24:33Z</time></trkpt><trkpt lat="51.23254851160684" lon="5.406112706549159"><ele>44.199999999999996</ele><time>2026-04-06T11:24:34Z</time></trkpt><trkpt lat="51.232522903846345" lon="5.406213938549225"><ele>44.8</ele><time>2026-04-06T11:24:35Z</time></trkpt><trkpt lat="51.23234850091501" lon="5.406262700042067"><ele>45.4</ele><time>2026-04-06T11:24:37Z</time></trkpt><trkpt lat="51.23224349173618" lon="5.4062289266909636"><ele>46.0</ele><time>2026-04-06T11:24:38Z</time></trkpt><trkpt lat="51.232127410471314" lon="5.406174157310741"><ele>46.0</ele><time>2026-04-06T11:24:39Z</time></trkpt><trkpt lat="51.232000608693326" lon="5.406108999147862"><ele>46.0</ele><time>2026-04-06T11:24:40Z</time></trkpt><trkpt lat="51.23185402598405" lon="5.406038190275513"><ele>46.0</ele><time>2026-04-06T11:24:41Z</time></trkpt><trkpt lat="51.2317000595374" lon="5.405961520994003"><ele>46.0</ele><time>2026-04-06T11:24:42Z</time></trkpt><trkpt lat="51.23154846871365" lon="5.405889798744214"><ele>47.333333333333336</ele><time>2026-04-06T11:24:43Z</time></trkpt><trkpt lat="51.231389916696735" lon="5.4058143457079115"><ele>48.66666666666667</ele><time>2026-04-06T11:24:44Z</time></trkpt><trkpt lat="51.23122686576443" lon="5.405737253213179"><ele>50.0</ele><time>2026-04-06T11:24:45Z</time></trkpt><trkpt lat="51.23106394742842" lon="5.4056635440029055"><ele>50.0</ele><time>2026-04-06T11:24:46Z</time></trkpt><trkpt lat="51.23090628559921" lon="5.4055936242189375"><ele>50.0</ele><time>2026-04-06T11:24:47Z</time></trkpt><trkpt lat="51.230745289357785" lon="5.405527009577793"><ele>50.0</ele><time>2026-04-06T11:24:48Z</time></trkpt><trkpt lat="51.230570033491304" lon="5.405458486569813"><ele>48.66666666666667</ele><time>2026-04-06T11:24:49Z</time></trkpt><trkpt lat="51.23040448148701" lon="5.405395789345531"><ele>47.333333333333336</ele><time>2026-04-06T11:24:50Z</time></trkpt><trkpt lat="51.230241922010016" lon="5.405339211160264"><ele>46.0</ele><time>2026-04-06T11:24:51Z</time></trkpt><trkpt lat="51.23008095004528" lon="5.405276073449218"><ele>46.0</ele><time>2026-04-06T11:24:52Z</time></trkpt><trkpt lat="51.22992187325224" lon="5.405207445375015"><ele>46.0</ele><time>2026-04-06T11:24:53Z</time></trkpt><trkpt lat="51.22975791162037" lon="5.405135126643947"><ele>46.0</ele><time>2026-04-06T11:24:54Z</time></trkpt><trkpt lat="51.229587044836464" lon="5.405057531154086"><ele>46.66666666666667</ele><time>2026-04-06T11:24:55Z</time></trkpt><trkpt lat="51.22941099626302" lon="5.4049744089050025"><ele>47.333333333333336</ele><time>2026-04-06T11:24:56Z</time></trkpt><trkpt lat="51.22923077962429" lon="5.404883506727584"><ele>48.0</ele><time>2026-04-06T11:24:57Z</time></trkpt><trkpt lat="51.229046374305966" lon="5.404787579000967"><ele>47.666666666666664</ele><time>2026-04-06T11:24:58Z</time></trkpt><trkpt lat="51.22885825049549" lon="5.404685575002496"><ele>47.33333333333333</ele><time>2026-04-06T11:24:59Z</time></trkpt><trkpt lat="51.22866520285984" lon="5.404584279128326"><ele>47.0</ele><time>2026-04-06T11:25:00Z</time></trkpt><trkpt lat="51.228463030874735" lon="5.4044851866407075"><ele>46.33333333333333</ele><time>2026-04-06T11:25:01Z</time></trkpt><trkpt lat="51.22825553165395" lon="5.404385873370828"><ele>45.666666666666664</ele><time>2026-04-06T11:25:02Z</time></trkpt><trkpt lat="51.228058593480185" lon="5.40429321383397"><ele>45.0</ele><time>2026-04-06T11:25:03Z</time></trkpt><trkpt lat="51.22785912515343" lon="5.404194901773652"><ele>44.666666666666664</ele><time>2026-04-06T11:25:04Z</time></trkpt><trkpt lat="51.227657932542975" lon="5.404088108266625"><ele>44.33333333333333</ele><time>2026-04-06T11:25:05Z</time></trkpt><trkpt lat="51.22746075848105" lon="5.403983078731399"><ele>44.0</ele><time>2026-04-06T11:25:06Z</time></trkpt><trkpt lat="51.22726703864819" lon="5.403883867453517"><ele>45.0</ele><time>2026-04-06T11:25:07Z</time></trkpt><trkpt lat="51.227074505450325" lon="5.403780485803113"><ele>46.0</ele><time>2026-04-06T11:25:08Z</time></trkpt><trkpt lat="51.226878740813554" lon="5.403676841885516"><ele>47.0</ele><time>2026-04-06T11:25:09Z</time></trkpt><trkpt lat="51.226679132648904" lon="5.403571692112608"><ele>47.0</ele><time>2026-04-06T11:25:10Z</time></trkpt><trkpt lat="51.22648131590232" lon="5.403465645504134"><ele>47.0</ele><time>2026-04-06T11:25:11Z</time></trkpt><trkpt lat="51.22628349077355" lon="5.4033589758788985"><ele>47.0</ele><time>2026-04-06T11:25:12Z</time></trkpt><trkpt lat="51.22608575193297" lon="5.403251377234427"><ele>47.0</ele><time>2026-04-06T11:25:13Z</time></trkpt><trkpt lat="51.22588581070243" lon="5.403145539430832"><ele>47.0</ele><time>2026-04-06T11:25:14Z</time></trkpt><trkpt lat="51.22568231437025" lon="5.403041705874075"><ele>47.0</ele><time>2026-04-06T11:25:15Z</time></trkpt><trkpt lat="51.22547639809909" lon="5.40293823396516"><ele>46.666666666666664</ele><time>2026-04-06T11:25:16Z</time></trkpt><trkpt lat="51.225269799855866" lon="5.402832525534317"><ele>46.333333333333336</ele><time>2026-04-06T11:25:17Z</time></trkpt><trkpt lat="51.22505983302339" lon="5.402724548822982"><ele>46.0</ele><time>2026-04-06T11:25:18Z</time></trkpt><trkpt lat="51.2248460906883" lon="5.402613641843946"><ele>45.5</ele><time>2026-04-06T11:25:19Z</time></trkpt><trkpt lat="51.22462916710193" lon="5.4025032639459205"><ele>45.0</ele><time>2026-04-06T11:25:20Z</time></trkpt><trkpt lat="51.224407188197965" lon="5.402391641056483"><ele>45.0</ele><time>2026-04-06T11:25:21Z</time></trkpt><trkpt lat="51.22418038630487" lon="5.402279358441565"><ele>45.0</ele><time>2026-04-06T11:25:22Z</time></trkpt><trkpt lat="51.223947707003106" lon="5.402168115750241"><ele>45.0</ele><time>2026-04-06T11:25:23Z</time></trkpt><trkpt lat="51.22370842849434" lon="5.402055023818415"><ele>45.0</ele><time>2026-04-06T11:25:24Z</time></trkpt><trkpt lat="51.22345873999353" lon="5.401938143737448"><ele>45.0</ele><time>2026-04-06T11:25:25Z</time></trkpt><trkpt lat="51.22320450784835" lon="5.4018098497936515"><ele>45.0</ele><time>2026-04-06T11:25:26Z</time></trkpt><trkpt lat="51.22295583153561" lon="5.401679196027894"><ele>46.5</ele><time>2026-04-06T11:25:27Z</time></trkpt><trkpt lat="51.22269294792895" lon="5.401537820506774"><ele>48.0</ele><time>2026-04-06T11:25:28Z</time></trkpt><trkpt lat="51.222423951559485" lon="5.401395975402615"><ele>47.5</ele><time>2026-04-06T11:25:29Z</time></trkpt><trkpt lat="51.222151956464366" lon="5.401254071322846"><ele>47.0</ele><time>2026-04-06T11:25:30Z</time></trkpt><trkpt lat="51.22187853316648" lon="5.401110560704858"><ele>47.0</ele><time>2026-04-06T11:25:31Z</time></trkpt><trkpt lat="51.22160022809174" lon="5.400966771241138"><ele>47.0</ele><time>2026-04-06T11:25:32Z</time></trkpt><trkpt lat="51.22132287922384" lon="5.400824656139406"><ele>48.0</ele><time>2026-04-06T11:25:33Z</time></trkpt><trkpt lat="51.221046466186095" lon="5.400681436214057"><ele>49.0</ele><time>2026-04-06T11:25:34Z</time></trkpt><trkpt lat="51.22077300883793" lon="5.400530285374085"><ele>48.0</ele><time>2026-04-06T11:25:35Z</time></trkpt><trkpt lat="51.22050278063233" lon="5.400365187402782"><ele>47.0</ele><time>2026-04-06T11:25:36Z</time></trkpt><trkpt lat="51.22023245257308" lon="5.4001960757317455"><ele>47.0</ele><time>2026-04-06T11:25:37Z</time></trkpt><trkpt lat="51.21996128078209" lon="5.40004563514071"><ele>47.0</ele><time>2026-04-06T11:25:38Z</time></trkpt><trkpt lat="51.21969829299881" lon="5.399908018507907"><ele>46.5</ele><time>2026-04-06T11:25:39Z</time></trkpt><trkpt lat="51.21944466011712" lon="5.399774227944808"><ele>46.0</ele><time>2026-04-06T11:25:40Z</time></trkpt><trkpt lat="51.21919692434717" lon="5.399644138391018"><ele>47.0</ele><time>2026-04-06T11:25:41Z</time></trkpt><trkpt lat="51.21894626452628" lon="5.399514213308526"><ele>48.0</ele><time>2026-04-06T11:25:42Z</time></trkpt><trkpt lat="51.21868898712574" lon="5.399381523901784"><ele>48.0</ele><time>2026-04-06T11:25:43Z</time></trkpt><trkpt lat="51.218426565156776" lon="5.399244877017233"><ele>48.0</ele><time>2026-04-06T11:25:44Z</time></trkpt><trkpt lat="51.218160087552526" lon="5.399104186534126"><ele>47.0</ele><time>2026-04-06T11:25:45Z</time></trkpt><trkpt lat="51.217888941560865" lon="5.398960125576758"><ele>46.0</ele><time>2026-04-06T11:25:46Z</time></trkpt><trkpt lat="51.21761634353147" lon="5.398816524428516"><ele>45.5</ele><time>2026-04-06T11:25:47Z</time></trkpt><trkpt lat="51.21734180584992" lon="5.398673779431031"><ele>45.0</ele><time>2026-04-06T11:25:48Z</time></trkpt><trkpt lat="51.217071366081875" lon="5.398538210166416"><ele>46.5</ele><time>2026-04-06T11:25:49Z</time></trkpt><trkpt lat="51.216810155078285" lon="5.398411089250064"><ele>48.0</ele><time>2026-04-06T11:25:50Z</time></trkpt><trkpt lat="51.21655382736269" lon="5.398286147652411"><ele>49.5</ele><time>2026-04-06T11:25:51Z</time></trkpt><trkpt lat="51.21629581548594" lon="5.398158766819448"><ele>51.0</ele><time>2026-04-06T11:25:52Z</time></trkpt><trkpt lat="51.21603434354367" lon="5.3980295255841915"><ele>49.5</ele><time>2026-04-06T11:25:53Z</time></trkpt><trkpt lat="51.21576809918963" lon="5.3979019617036545"><ele>48.0</ele><time>2026-04-06T11:25:54Z</time></trkpt><trkpt lat="51.21549847087425" lon="5.3977717291713185"><ele>47.0</ele><time>2026-04-06T11:25:55Z</time></trkpt><trkpt lat="51.215224406399855" lon="5.397638688933744"><ele>46.0</ele><time>2026-04-06T11:25:56Z</time></trkpt><trkpt lat="51.214948152149404" lon="5.397502164384563"><ele>45.5</ele><time>2026-04-06T11:25:57Z</time></trkpt><trkpt lat="51.21467093438118" lon="5.39736396683597"><ele>45.0</ele><time>2026-04-06T11:25:58Z</time></trkpt><trkpt lat="51.21439342323235" lon="5.3972295498217155"><ele>44.0</ele><time>2026-04-06T11:25:59Z</time></trkpt><trkpt lat="51.214115801702555" lon="5.397093820707735"><ele>43.0</ele><time>2026-04-06T11:26:00Z</time></trkpt><trkpt lat="51.21383855959386" lon="5.3969571526284374"><ele>43.0</ele><time>2026-04-06T11:26:01Z</time></trkpt><trkpt lat="51.21356305039593" lon="5.396819516772661"><ele>43.0</ele><time>2026-04-06T11:26:02Z</time></trkpt><trkpt lat="51.2132883682704" lon="5.396683851100984"><ele>45.0</ele><time>2026-04-06T11:26:03Z</time></trkpt><trkpt lat="51.21301107665064" lon="5.396546105547046"><ele>47.0</ele><time>2026-04-06T11:26:04Z</time></trkpt><trkpt lat="51.21273410842162" lon="5.39640803174683"><ele>45.5</ele><time>2026-04-06T11:26:05Z</time></trkpt><trkpt lat="51.21245648524464" lon="5.396272265220162"><ele>44.0</ele><time>2026-04-06T11:26:06Z</time></trkpt><trkpt lat="51.2121793716691" lon="5.396134437152362"><ele>44.0</ele><time>2026-04-06T11:26:07Z</time></trkpt><trkpt lat="51.21190187374015" lon="5.395995582442433"><ele>44.0</ele><time>2026-04-06T11:26:08Z</time></trkpt><trkpt lat="51.21162341579353" lon="5.395855950817898"><ele>44.5</ele><time>2026-04-06T11:26:09Z</time></trkpt><trkpt lat="51.211344462403126" lon="5.395715534140333"><ele>45.0</ele><time>2026-04-06T11:26:10Z</time></trkpt><trkpt lat="51.211065800063956" lon="5.395576038379163"><ele>44.5</ele><time>2026-04-06T11:26:11Z</time></trkpt><trkpt lat="51.21078799019972" lon="5.395434603857565"><ele>44.0</ele><time>2026-04-06T11:26:12Z</time></trkpt><trkpt lat="51.21051042229296" lon="5.395293245093139"><ele>43.5</ele><time>2026-04-06T11:26:13Z</time></trkpt><trkpt lat="51.21023355706009" lon="5.395153413388782"><ele>43.0</ele><time>2026-04-06T11:26:14Z</time></trkpt><trkpt lat="51.20995430295185" lon="5.395015832512862"><ele>43.0</ele><time>2026-04-06T11:26:15Z</time></trkpt><trkpt lat="51.20967687390368" lon="5.394874128161349"><ele>43.0</ele><time>2026-04-06T11:26:16Z</time></trkpt><trkpt lat="51.20939718417489" lon="5.39473409778682"><ele>43.0</ele><time>2026-04-06T11:26:17Z</time></trkpt><trkpt lat="51.20911595139678" lon="5.394591775024351"><ele>43.0</ele><time>2026-04-06T11:26:18Z</time></trkpt><trkpt lat="51.20883291294468" lon="5.394447494582015"><ele>42.0</ele><time>2026-04-06T11:26:19Z</time></trkpt><trkpt lat="51.2085468529752" lon="5.394307510915459"><ele>41.0</ele><time>2026-04-06T11:26:20Z</time></trkpt><trkpt lat="51.20825700551356" lon="5.3941690881325695"><ele>41.0</ele><time>2026-04-06T11:26:21Z</time></trkpt><trkpt lat="51.20796555296876" lon="5.394030739060089"><ele>41.0</ele><time>2026-04-06T11:26:22Z</time></trkpt><trkpt lat="51.20767262308376" lon="5.393891316907154"><ele>41.0</ele><time>2026-04-06T11:26:23Z</time></trkpt><trkpt lat="51.20737930740119" lon="5.393756365144511"><ele>41.0</ele><time>2026-04-06T11:26:24Z</time></trkpt><trkpt lat="51.20708931580488" lon="5.393619894151966"><ele>41.5</ele><time>2026-04-06T11:26:25Z</time></trkpt><trkpt lat="51.206804897086606" lon="5.393494805789962"><ele>42.0</ele><time>2026-04-06T11:26:26Z</time></trkpt><trkpt lat="51.206525370563554" lon="5.393373961544707"><ele>41.5</ele><time>2026-04-06T11:26:27Z</time></trkpt><trkpt lat="51.20624621076339" lon="5.393257203780644"><ele>41.0</ele><time>2026-04-06T11:26:28Z</time></trkpt><trkpt lat="51.205967391695914" lon="5.393142959212716"><ele>41.0</ele><time>2026-04-06T11:26:29Z</time></trkpt><trkpt lat="51.20568923176265" lon="5.3930315344724065"><ele>41.0</ele><time>2026-04-06T11:26:30Z</time></trkpt><trkpt lat="51.205412152167625" lon="5.392923636222167"><ele>41.5</ele><time>2026-04-06T11:26:31Z</time></trkpt><trkpt lat="51.20513556940299" lon="5.392820431842639"><ele>42.0</ele><time>2026-04-06T11:26:32Z</time></trkpt><trkpt lat="51.20485921361387" lon="5.392719075683924"><ele>42.0</ele><time>2026-04-06T11:26:33Z</time></trkpt><trkpt lat="51.20458256787267" lon="5.392623059786654"><ele>42.0</ele><time>2026-04-06T11:26:34Z</time></trkpt><trkpt lat="51.204307245323896" lon="5.392529872369561"><ele>42.0</ele><time>2026-04-06T11:26:35Z</time></trkpt><trkpt lat="51.204035335042796" lon="5.3924395924809705"><ele>42.0</ele><time>2026-04-06T11:26:36Z</time></trkpt><trkpt lat="51.203770952763655" lon="5.392354314918526"><ele>42.5</ele><time>2026-04-06T11:26:37Z</time></trkpt><trkpt lat="51.20351442789637" lon="5.392275165501137"><ele>43.0</ele><time>2026-04-06T11:26:38Z</time></trkpt><trkpt lat="51.20326199271438" lon="5.392200478421212"><ele>43.0</ele><time>2026-04-06T11:26:39Z</time></trkpt><trkpt lat="51.20301163522411" lon="5.3921249048085675"><ele>43.0</ele><time>2026-04-06T11:26:40Z</time></trkpt><trkpt lat="51.20276021363407" lon="5.392051663223454"><ele>43.0</ele><time>2026-04-06T11:26:41Z</time></trkpt><trkpt lat="51.202504228922805" lon="5.391980026642778"><ele>43.0</ele><time>2026-04-06T11:26:42Z</time></trkpt><trkpt lat="51.20224528062365" lon="5.391911373423356"><ele>42.5</ele><time>2026-04-06T11:26:43Z</time></trkpt><trkpt lat="51.20198443883981" lon="5.391847564734594"><ele>42.0</ele><time>2026-04-06T11:26:44Z</time></trkpt><trkpt lat="51.201725961790636" lon="5.391784476299379"><ele>44.0</ele><time>2026-04-06T11:26:45Z</time></trkpt><trkpt lat="51.20147053013431" lon="5.39172317015201"><ele>46.0</ele><time>2026-04-06T11:26:46Z</time></trkpt><trkpt lat="51.201215719222944" lon="5.391669777620516"><ele>46.0</ele><time>2026-04-06T11:26:47Z</time></trkpt><trkpt lat="51.20096379662307" lon="5.391616518631704"><ele>46.0</ele><time>2026-04-06T11:26:48Z</time></trkpt><trkpt lat="51.20071166572626" lon="5.39155746289609"><ele>45.5</ele><time>2026-04-06T11:26:49Z</time></trkpt><trkpt lat="51.20045964588253" lon="5.391501825740762"><ele>45.0</ele><time>2026-04-06T11:26:50Z</time></trkpt><trkpt lat="51.200206237280504" lon="5.391456528258088"><ele>45.0</ele><time>2026-04-06T11:26:51Z</time></trkpt><trkpt lat="51.19995192932511" lon="5.391412851121719"><ele>45.0</ele><time>2026-04-06T11:26:52Z</time></trkpt><trkpt lat="51.19969566700822" lon="5.391370943715655"><ele>44.5</ele><time>2026-04-06T11:26:53Z</time></trkpt><trkpt lat="51.199439416648865" lon="5.3913271707616355"><ele>44.0</ele><time>2026-04-06T11:26:54Z</time></trkpt><trkpt lat="51.1991801414725" lon="5.391286934753591"><ele>44.5</ele><time>2026-04-06T11:26:55Z</time></trkpt><trkpt lat="51.19891901432597" lon="5.391245999209611"><ele>45.0</ele><time>2026-04-06T11:26:56Z</time></trkpt><trkpt lat="51.19865208795647" lon="5.391214337953754"><ele>45.0</ele><time>2026-04-06T11:26:57Z</time></trkpt><trkpt lat="51.198374036553176" lon="5.391186155895888"><ele>45.0</ele><time>2026-04-06T11:26:58Z</time></trkpt><trkpt lat="51.198067255985556" lon="5.391149497019334"><ele>45.0</ele><time>2026-04-06T11:26:59Z</time></trkpt><trkpt lat="51.19774160436833" lon="5.391114206358509"><ele>45.0</ele><time>2026-04-06T11:27:00Z</time></trkpt><trkpt lat="51.19741513060081" lon="5.391083760811981"><ele>45.5</ele><time>2026-04-06T11:27:01Z</time></trkpt><trkpt lat="51.19711658852876" lon="5.391060520045438"><ele>46.0</ele><time>2026-04-06T11:27:02Z</time></trkpt><trkpt lat="51.19682372835579" lon="5.391039989319981"><ele>46.0</ele><time>2026-04-06T11:27:03Z</time></trkpt><trkpt lat="51.19653461995376" lon="5.391022368548071"><ele>46.0</ele><time>2026-04-06T11:27:04Z</time></trkpt><trkpt lat="51.196249232972356" lon="5.391006356790967"><ele>46.5</ele><time>2026-04-06T11:27:05Z</time></trkpt><trkpt lat="51.19596985835689" lon="5.390995722830127"><ele>47.0</ele><time>2026-04-06T11:27:06Z</time></trkpt><trkpt lat="51.19569461336329" lon="5.390986858096863"><ele>46.5</ele><time>2026-04-06T11:27:07Z</time></trkpt><trkpt lat="51.19542321914768" lon="5.3909794061153535"><ele>46.0</ele><time>2026-04-06T11:27:08Z</time></trkpt><trkpt lat="51.19514992085245" lon="5.390975041513833"><ele>46.0</ele><time>2026-04-06T11:27:09Z</time></trkpt><trkpt lat="51.19487321311334" lon="5.39097342281271"><ele>46.0</ele><time>2026-04-06T11:27:10Z</time></trkpt><trkpt lat="51.19459251686182" lon="5.390974813799115"><ele>46.5</ele><time>2026-04-06T11:27:11Z</time></trkpt><trkpt lat="51.19431006998174" lon="5.390978506688542"><ele>47.0</ele><time>2026-04-06T11:27:12Z</time></trkpt><trkpt lat="51.19402211987141" lon="5.390986224909266"><ele>48.0</ele><time>2026-04-06T11:27:13Z</time></trkpt><trkpt lat="51.19372302974817" lon="5.390998108611028"><ele>49.0</ele><time>2026-04-06T11:27:14Z</time></trkpt><trkpt lat="51.19341641906711" lon="5.391012872973881"><ele>48.5</ele><time>2026-04-06T11:27:15Z</time></trkpt><trkpt lat="51.19310527319141" lon="5.391027414018885"><ele>48.0</ele><time>2026-04-06T11:27:16Z</time></trkpt><trkpt lat="51.19278974106575" lon="5.391044501437567"><ele>48.0</ele><time>2026-04-06T11:27:17Z</time></trkpt><trkpt lat="51.19247124348545" lon="5.391065660603366"><ele>48.0</ele><time>2026-04-06T11:27:18Z</time></trkpt><trkpt lat="51.19215169046485" lon="5.3910914610283625"><ele>48.0</ele><time>2026-04-06T11:27:19Z</time></trkpt><trkpt lat="51.191831872669184" lon="5.3911188918168085"><ele>48.0</ele><time>2026-04-06T11:27:20Z</time></trkpt><trkpt lat="51.191510960701684" lon="5.391148381196747"><ele>48.0</ele><time>2026-04-06T11:27:21Z</time></trkpt><trkpt lat="51.1911900680458" lon="5.391178020289471"><ele>48.0</ele><time>2026-04-06T11:27:22Z</time></trkpt><trkpt lat="51.190868215326134" lon="5.391201173684997"><ele>49.5</ele><time>2026-04-06T11:27:23Z</time></trkpt><trkpt lat="51.190547257590765" lon="5.391237017783398"><ele>51.0</ele><time>2026-04-06T11:27:24Z</time></trkpt><trkpt lat="51.190225095009794" lon="5.39126876290693"><ele>51.0</ele><time>2026-04-06T11:27:25Z</time></trkpt><trkpt lat="51.189903434967995" lon="5.39129145937402"><ele>51.0</ele><time>2026-04-06T11:27:26Z</time></trkpt><trkpt lat="51.189587690383426" lon="5.3913216770802155"><ele>51.0</ele><time>2026-04-06T11:27:27Z</time></trkpt><trkpt lat="51.1892817136347" lon="5.391352550724125"><ele>51.0</ele><time>2026-04-06T11:27:28Z</time></trkpt><trkpt lat="51.18898773249337" lon="5.391380494493162"><ele>51.0</ele><time>2026-04-06T11:27:29Z</time></trkpt><trkpt lat="51.18870300388162" lon="5.391406420348782"><ele>51.0</ele><time>2026-04-06T11:27:30Z</time></trkpt><trkpt lat="51.1884207215025" lon="5.39143210222817"><ele>52.0</ele><time>2026-04-06T11:27:31Z</time></trkpt><trkpt lat="51.18813616867355" lon="5.39146475114282"><ele>53.0</ele><time>2026-04-06T11:27:32Z</time></trkpt><trkpt lat="51.187846486790235" lon="5.39150069743232"><ele>53.0</ele><time>2026-04-06T11:27:33Z</time></trkpt><trkpt lat="51.18755821666336" lon="5.3915371435375095"><ele>53.0</ele><time>2026-04-06T11:27:34Z</time></trkpt><trkpt lat="51.187272317710345" lon="5.391580520967526"><ele>52.0</ele><time>2026-04-06T11:27:35Z</time></trkpt><trkpt lat="51.18698828229846" lon="5.391629221260088"><ele>51.0</ele><time>2026-04-06T11:27:36Z</time></trkpt><trkpt lat="51.18670534206145" lon="5.391677358235805"><ele>52.5</ele><time>2026-04-06T11:27:37Z</time></trkpt><trkpt lat="51.18642389441295" lon="5.391728139547778"><ele>54.0</ele><time>2026-04-06T11:27:38Z</time></trkpt><trkpt lat="51.18613943280433" lon="5.391787631734114"><ele>54.0</ele><time>2026-04-06T11:27:39Z</time></trkpt><trkpt lat="51.18585936284856" lon="5.391848219451227"><ele>54.0</ele><time>2026-04-06T11:27:40Z</time></trkpt><trkpt lat="51.18558640641877" lon="5.391910474230245"><ele>55.5</ele><time>2026-04-06T11:27:41Z</time></trkpt><trkpt lat="51.18532045229107" lon="5.391975704719737"><ele>57.0</ele><time>2026-04-06T11:27:42Z</time></trkpt><trkpt lat="51.185060729142556" lon="5.392048845720508"><ele>55.0</ele><time>2026-04-06T11:27:43Z</time></trkpt><trkpt lat="51.18480204572879" lon="5.392131614253614"><ele>53.0</ele><time>2026-04-06T11:27:44Z</time></trkpt><trkpt lat="51.1845409613738" lon="5.3922172708408675"><ele>52.5</ele><time>2026-04-06T11:27:45Z</time></trkpt><trkpt lat="51.184278876922185" lon="5.392305610449757"><ele>52.0</ele><time>2026-04-06T11:27:46Z</time></trkpt><trkpt lat="51.184016183576496" lon="5.392397084911834"><ele>52.5</ele><time>2026-04-06T11:27:47Z</time></trkpt><trkpt lat="51.18375283333633" lon="5.392492696259824"><ele>53.0</ele><time>2026-04-06T11:27:48Z</time></trkpt><trkpt lat="51.18348937017914" lon="5.392594843952509"><ele>53.0</ele><time>2026-04-06T11:27:49Z</time></trkpt><trkpt lat="51.18322559566364" lon="5.392703670369461"><ele>53.0</ele><time>2026-04-06T11:27:50Z</time></trkpt><trkpt lat="51.18296215902237" lon="5.392820928418604"><ele>53.0</ele><time>2026-04-06T11:27:51Z</time></trkpt><trkpt lat="51.1826982742283" lon="5.392944760054865"><ele>53.0</ele><time>2026-04-06T11:27:52Z</time></trkpt><trkpt lat="51.182432702328896" lon="5.393075061248394"><ele>53.0</ele><time>2026-04-06T11:27:53Z</time></trkpt><trkpt lat="51.18216732179221" lon="5.393207796815688"><ele>53.0</ele><time>2026-04-06T11:27:54Z</time></trkpt><trkpt lat="51.18190358742736" lon="5.393346915660264"><ele>53.0</ele><time>2026-04-06T11:27:55Z</time></trkpt><trkpt lat="51.181639476584294" lon="5.393486827556001"><ele>53.0</ele><time>2026-04-06T11:27:56Z</time></trkpt><trkpt lat="51.18137721697848" lon="5.393632695333076"><ele>52.5</ele><time>2026-04-06T11:27:57Z</time></trkpt><trkpt lat="51.18111866678473" lon="5.393785693491957"><ele>52.0</ele><time>2026-04-06T11:27:58Z</time></trkpt><trkpt lat="51.18086379684331" lon="5.393941180787079"><ele>51.0</ele><time>2026-04-06T11:27:59Z</time></trkpt><trkpt lat="51.180612906474295" lon="5.394102354164384"><ele>50.0</ele><time>2026-04-06T11:28:00Z</time></trkpt><trkpt lat="51.18036176087665" lon="5.394284670720402"><ele>50.0</ele><time>2026-04-06T11:28:01Z</time></trkpt><trkpt lat="51.1801015567146" lon="5.394468456050148"><ele>50.0</ele><time>2026-04-06T11:28:02Z</time></trkpt><trkpt lat="51.179829741349366" lon="5.394645609263759"><ele>50.5</ele><time>2026-04-06T11:28:03Z</time></trkpt><trkpt lat="51.17955086167822" lon="5.394842579878321"><ele>51.0</ele><time>2026-04-06T11:28:04Z</time></trkpt><trkpt lat="51.179266503270995" lon="5.395063797984772"><ele>52.0</ele><time>2026-04-06T11:28:05Z</time></trkpt><trkpt lat="51.179005212271996" lon="5.395268318437581"><ele>53.0</ele><time>2026-04-06T11:28:06Z</time></trkpt><trkpt lat="51.17875692951532" lon="5.395467995744843"><ele>52.0</ele><time>2026-04-06T11:28:07Z</time></trkpt><trkpt lat="51.178520541080346" lon="5.395663063364824"><ele>51.0</ele><time>2026-04-06T11:28:08Z</time></trkpt><trkpt lat="51.1782905500186" lon="5.395856319900471"><ele>51.5</ele><time>2026-04-06T11:28:09Z</time></trkpt><trkpt lat="51.178063616017" lon="5.396046558028317"><ele>52.0</ele><time>2026-04-06T11:28:10Z</time></trkpt><trkpt lat="51.177841055226516" lon="5.396238718790687"><ele>52.0</ele><time>2026-04-06T11:28:11Z</time></trkpt><trkpt lat="51.17762136650448" lon="5.396430525792561"><ele>52.0</ele><time>2026-04-06T11:28:12Z</time></trkpt><trkpt lat="51.17740125295897" lon="5.396621695919248"><ele>52.0</ele><time>2026-04-06T11:28:13Z</time></trkpt><trkpt lat="51.1771834584249" lon="5.39681383926087"><ele>52.0</ele><time>2026-04-06T11:28:14Z</time></trkpt><trkpt lat="51.17696629150212" lon="5.397012380198469"><ele>51.5</ele><time>2026-04-06T11:28:15Z</time></trkpt><trkpt lat="51.17674978942429" lon="5.397211156312067"><ele>51.0</ele><time>2026-04-06T11:28:16Z</time></trkpt><trkpt lat="51.176531737392914" lon="5.397407123547023"><ele>52.0</ele><time>2026-04-06T11:28:17Z</time></trkpt><trkpt lat="51.17631552646309" lon="5.3976074240268614"><ele>53.0</ele><time>2026-04-06T11:28:18Z</time></trkpt><trkpt lat="51.1760984672609" lon="5.397809383902668"><ele>52.5</ele><time>2026-04-06T11:28:19Z</time></trkpt><trkpt lat="51.17588121565618" lon="5.398009873935824"><ele>52.0</ele><time>2026-04-06T11:28:20Z</time></trkpt><trkpt lat="51.17566347119841" lon="5.3982076158828844"><ele>53.5</ele><time>2026-04-06T11:28:21Z</time></trkpt><trkpt lat="51.17544815622651" lon="5.398406315700499"><ele>55.0</ele><time>2026-04-06T11:28:22Z</time></trkpt><trkpt lat="51.175229334082914" lon="5.398601903444531"><ele>55.0</ele><time>2026-04-06T11:28:23Z</time></trkpt><trkpt lat="51.175007142021606" lon="5.398783042063401"><ele>55.0</ele><time>2026-04-06T11:28:24Z</time></trkpt><trkpt lat="51.17478372648071" lon="5.398961673604024"><ele>56.5</ele><time>2026-04-06T11:28:25Z</time></trkpt><trkpt lat="51.17456819793948" lon="5.399147678373701"><ele>58.0</ele><time>2026-04-06T11:28:26Z</time></trkpt><trkpt lat="51.174367080034074" lon="5.3993364954432295"><ele>58.0</ele><time>2026-04-06T11:28:27Z</time></trkpt><trkpt lat="51.17417822715593" lon="5.399517640239706"><ele>58.0</ele><time>2026-04-06T11:28:28Z</time></trkpt><trkpt lat="51.17399374712091" lon="5.3996771993612676"><ele>58.0</ele><time>2026-04-06T11:28:29Z</time></trkpt><trkpt lat="51.17381178106977" lon="5.39982960420927"><ele>57.33333333333333</ele><time>2026-04-06T11:28:30Z</time></trkpt><trkpt lat="51.17363166168072" lon="5.3999831528355005"><ele>56.66666666666667</ele><time>2026-04-06T11:28:31Z</time></trkpt><trkpt lat="51.1734543857488" lon="5.400135039305349"><ele>56.0</ele><time>2026-04-06T11:28:32Z</time></trkpt><trkpt lat="51.17327818186935" lon="5.4002795125536345"><ele>55.66666666666667</ele><time>2026-04-06T11:28:33Z</time></trkpt><trkpt lat="51.17309758778867" lon="5.400401277694998"><ele>55.33333333333333</ele><time>2026-04-06T11:28:34Z</time></trkpt><trkpt lat="51.17291212656887" lon="5.400504855022445"><ele>55.0</ele><time>2026-04-06T11:28:35Z</time></trkpt><trkpt lat="51.17272221505677" lon="5.400590431885838"><ele>55.0</ele><time>2026-04-06T11:28:36Z</time></trkpt><trkpt lat="51.1725270282862" lon="5.40064294819525"><ele>55.0</ele><time>2026-04-06T11:28:37Z</time></trkpt><trkpt lat="51.17233072365938" lon="5.400665074540504"><ele>55.0</ele><time>2026-04-06T11:28:38Z</time></trkpt><trkpt lat="51.17213701656206" lon="5.400648823513638"><ele>54.666666666666664</ele><time>2026-04-06T11:28:39Z</time></trkpt><trkpt lat="51.171942944837554" lon="5.4005992666142815"><ele>54.33333333333333</ele><time>2026-04-06T11:28:40Z</time></trkpt><trkpt lat="51.17174888896237" lon="5.40051857095572"><ele>54.0</ele><time>2026-04-06T11:28:41Z</time></trkpt><trkpt lat="51.171560479967454" lon="5.400402851392256"><ele>53.66666666666667</ele><time>2026-04-06T11:28:42Z</time></trkpt><trkpt lat="51.171380351253646" lon="5.400259873258865"><ele>53.333333333333336</ele><time>2026-04-06T11:28:43Z</time></trkpt><trkpt lat="51.17121763859976" lon="5.400119762993557"><ele>53.0</ele><time>2026-04-06T11:28:44Z</time></trkpt><trkpt lat="51.171060746139325" lon="5.39999540383901"><ele>53.0</ele><time>2026-04-06T11:28:45Z</time></trkpt><trkpt lat="51.17089822071499" lon="5.39988088302488"><ele>53.0</ele><time>2026-04-06T11:28:46Z</time></trkpt><trkpt lat="51.17073234396575" lon="5.399797532566381"><ele>53.0</ele><time>2026-04-06T11:28:47Z</time></trkpt><trkpt lat="51.17056851888444" lon="5.399707599802311"><ele>53.66666666666667</ele><time>2026-04-06T11:28:48Z</time></trkpt><trkpt lat="51.17039538596097" lon="5.399705634652253"><ele>54.33333333333333</ele><time>2026-04-06T11:28:49Z</time></trkpt><trkpt lat="51.17022949691323" lon="5.399776309690885"><ele>55.0</ele><time>2026-04-06T11:28:50Z</time></trkpt><trkpt lat="51.17007447995207" lon="5.399854437260565"><ele>55.0</ele><time>2026-04-06T11:28:51Z</time></trkpt><trkpt lat="51.16993834212262" lon="5.399944024515868"><ele>55.0</ele><time>2026-04-06T11:28:52Z</time></trkpt><trkpt lat="51.16983162756486" lon="5.400043421802434"><ele>55.0</ele><time>2026-04-06T11:28:53Z</time></trkpt><trkpt lat="51.169758506828266" lon="5.400168023034531"><ele>55.0</ele><time>2026-04-06T11:28:54Z</time></trkpt><trkpt lat="51.169684109203104" lon="5.400278615236996"><ele>54.99999999999999</ele><time>2026-04-06T11:28:55Z</time></trkpt><trkpt lat="51.1696193176425" lon="5.400380995823445"><ele>55.0</ele><time>2026-04-06T11:28:56Z</time></trkpt><trkpt lat="51.16956095319034" lon="5.400455932441081"><ele>55.0</ele><time>2026-04-06T11:28:57Z</time></trkpt><trkpt lat="51.16949468930319" lon="5.400513008666635"><ele>55.0</ele><time>2026-04-06T11:28:59Z</time></trkpt><trkpt lat="51.16941804517089" lon="5.400346394243371"><ele>54.99999999999999</ele><time>2026-04-06T11:29:00Z</time></trkpt><trkpt lat="51.16936742191131" lon="5.400276244015779"><ele>55.0</ele><time>2026-04-06T11:29:01Z</time></trkpt><trkpt lat="51.169307932894334" lon="5.4001984752359"><ele>55.5</ele><time>2026-04-06T11:29:02Z</time></trkpt><trkpt lat="51.169227000510006" lon="5.40009302418088"><ele>56.0</ele><time>2026-04-06T11:29:03Z</time></trkpt><trkpt lat="51.169126374999045" lon="5.399962030131595"><ele>56.5</ele><time>2026-04-06T11:29:04Z</time></trkpt><trkpt lat="51.16900436189197" lon="5.399813419980247"><ele>57.0</ele><time>2026-04-06T11:29:05Z</time></trkpt><trkpt lat="51.16888536587902" lon="5.399694641590409"><ele>59.66666666666667</ele><time>2026-04-06T11:29:06Z</time></trkpt><trkpt lat="51.16874523324858" lon="5.399573187807607"><ele>62.333333333333336</ele><time>2026-04-06T11:29:07Z</time></trkpt><trkpt lat="51.16859158095956" lon="5.399454296125355"><ele>65.0</ele><time>2026-04-06T11:29:08Z</time></trkpt><trkpt lat="51.16842518980898" lon="5.399339902808175"><ele>65.0</ele><time>2026-04-06T11:29:09Z</time></trkpt><trkpt lat="51.16827592227298" lon="5.39925057558208"><ele>65.0</ele><time>2026-04-06T11:29:10Z</time></trkpt><trkpt lat="51.168129432991975" lon="5.399157906628844"><ele>65.0</ele><time>2026-04-06T11:29:11Z</time></trkpt><trkpt lat="51.16798265504132" lon="5.399060336915221"><ele>64.66666666666667</ele><time>2026-04-06T11:29:12Z</time></trkpt><trkpt lat="51.167838354547406" lon="5.398963370299033"><ele>64.33333333333333</ele><time>2026-04-06T11:29:13Z</time></trkpt><trkpt lat="51.16769879801217" lon="5.398864237292364"><ele>64.0</ele><time>2026-04-06T11:29:14Z</time></trkpt><trkpt lat="51.16755613351486" lon="5.398754401115958"><ele>64.0</ele><time>2026-04-06T11:29:15Z</time></trkpt><trkpt lat="51.16741114836046" lon="5.398643168053945"><ele>64.0</ele><time>2026-04-06T11:29:16Z</time></trkpt><trkpt lat="51.16727086028831" lon="5.398529584015896"><ele>64.0</ele><time>2026-04-06T11:29:17Z</time></trkpt><trkpt lat="51.16713710117956" lon="5.39840740694372"><ele>64.0</ele><time>2026-04-06T11:29:18Z</time></trkpt><trkpt lat="51.16700552647155" lon="5.398284595123664"><ele>64.0</ele><time>2026-04-06T11:29:19Z</time></trkpt><trkpt lat="51.16687341606505" lon="5.398162105209503"><ele>64.0</ele><time>2026-04-06T11:29:20Z</time></trkpt><trkpt lat="51.166741257092156" lon="5.398040761542425"><ele>64.33333333333333</ele><time>2026-04-06T11:29:21Z</time></trkpt><trkpt lat="51.166608214191356" lon="5.397918716820298"><ele>64.66666666666667</ele><time>2026-04-06T11:29:22Z</time></trkpt><trkpt lat="51.166470892190524" lon="5.397792896201222"><ele>65.0</ele><time>2026-04-06T11:29:23Z</time></trkpt><trkpt lat="51.1663279371634" lon="5.397661914351529"><ele>65.33333333333334</ele><time>2026-04-06T11:29:24Z</time></trkpt><trkpt lat="51.16618111140011" lon="5.3975271099522795"><ele>65.66666666666667</ele><time>2026-04-06T11:29:25Z</time></trkpt><trkpt lat="51.16603145576919" lon="5.3973896706636415"><ele>66.0</ele><time>2026-04-06T11:29:26Z</time></trkpt><trkpt lat="51.16588074792662" lon="5.397251294909718"><ele>67.0</ele><time>2026-04-06T11:29:27Z</time></trkpt><trkpt lat="51.165729746166384" lon="5.397114332219743"><ele>68.0</ele><time>2026-04-06T11:29:28Z</time></trkpt><trkpt lat="51.16557690308481" lon="5.3969753775625975"><ele>69.0</ele><time>2026-04-06T11:29:29Z</time></trkpt><trkpt lat="51.16542888145487" lon="5.396842602854185"><ele>67.0</ele><time>2026-04-06T11:29:30Z</time></trkpt><trkpt lat="51.1652827141644" lon="5.3967105477441315"><ele>65.0</ele><time>2026-04-06T11:29:31Z</time></trkpt><trkpt lat="51.165140507617814" lon="5.396581907448787"><ele>63.0</ele><time>2026-04-06T11:29:32Z</time></trkpt><trkpt lat="51.16500277217528" lon="5.396453176275964"><ele>63.5</ele><time>2026-04-06T11:29:33Z</time></trkpt><trkpt lat="51.16487126631668" lon="5.3963308510143015"><ele>64.0</ele><time>2026-04-06T11:29:34Z</time></trkpt><trkpt lat="51.16474433750929" lon="5.39623282466221"><ele>64.5</ele><time>2026-04-06T11:29:35Z</time></trkpt><trkpt lat="51.16462354747935" lon="5.3961484511111495"><ele>65.0</ele><time>2026-04-06T11:29:36Z</time></trkpt><trkpt lat="51.16451916517374" lon="5.396083113028289"><ele>64.0</ele><time>2026-04-06T11:29:37Z</time></trkpt><trkpt lat="51.164419813983464" lon="5.396022747710237"><ele>63.0</ele><time>2026-04-06T11:29:38Z</time></trkpt><trkpt lat="51.16434732741012" lon="5.395987608353301"><ele>62.0</ele><time>2026-04-06T11:29:39Z</time></trkpt><trkpt lat="51.16426439989101" lon="5.395920477032481"><ele>61.0</ele><time>2026-04-06T11:29:41Z</time></trkpt><trkpt lat="51.16419700162492" lon="5.395900895132522"><ele>60.0</ele><time>2026-04-06T11:29:43Z</time></trkpt><trkpt lat="51.16408709638275" lon="5.3959478227698"><ele>60.5</ele><time>2026-04-06T11:35:06Z</time></trkpt><trkpt lat="51.16399792237997" lon="5.395945732653705"><ele>61.0</ele><time>2026-04-06T11:35:07Z</time></trkpt><trkpt lat="51.16387317122917" lon="5.395918244813742"><ele>61.5</ele><time>2026-04-06T11:35:08Z</time></trkpt><trkpt lat="51.163716899982425" lon="5.395881595482043"><ele>62.0</ele><time>2026-04-06T11:35:09Z</time></trkpt><trkpt lat="51.16358930676904" lon="5.395826866540457"><ele>62.0</ele><time>2026-04-06T11:35:10Z</time></trkpt><trkpt lat="51.163483250854775" lon="5.395827279653731"><ele>62.0</ele><time>2026-04-06T11:35:11Z</time></trkpt><trkpt lat="51.1633827163727" lon="5.395830186711295"><ele>62.0</ele><time>2026-04-06T11:35:12Z</time></trkpt><trkpt lat="51.1632881049547" lon="5.395895084663379"><ele>62.0</ele><time>2026-04-06T11:35:13Z</time></trkpt><trkpt lat="51.1631886730988" lon="5.395897750281331"><ele>62.0</ele><time>2026-04-06T11:35:14Z</time></trkpt><trkpt lat="51.163093136850186" lon="5.3959030938632395"><ele>61.8</ele><time>2026-04-06T11:35:15Z</time></trkpt><trkpt lat="51.16299790394664" lon="5.395911240532765"><ele>61.6</ele><time>2026-04-06T11:35:16Z</time></trkpt><trkpt lat="51.16290578908095" lon="5.395928214213683"><ele>61.39999999999999</ele><time>2026-04-06T11:35:17Z</time></trkpt><trkpt lat="51.162814826343485" lon="5.395946911866787"><ele>61.199999999999996</ele><time>2026-04-06T11:35:18Z</time></trkpt><trkpt lat="51.16272270705754" lon="5.3959717445022175"><ele>61.0</ele><time>2026-04-06T11:35:19Z</time></trkpt><trkpt lat="51.16262674302801" lon="5.395957600794202"><ele>61.0</ele><time>2026-04-06T11:35:20Z</time></trkpt><trkpt lat="51.16253122485297" lon="5.395988066054613"><ele>60.99999999999999</ele><time>2026-04-06T11:35:21Z</time></trkpt><trkpt lat="51.162436013936535" lon="5.396018972861882"><ele>60.99999999999999</ele><time>2026-04-06T11:35:22Z</time></trkpt><trkpt lat="51.162341449559705" lon="5.3960496698031815"><ele>61.0</ele><time>2026-04-06T11:35:23Z</time></trkpt><trkpt lat="51.162245540190675" lon="5.396080803350222"><ele>61.0</ele><time>2026-04-06T11:35:24Z</time></trkpt><trkpt lat="51.16215021149507" lon="5.396111748381562"><ele>60.4</ele><time>2026-04-06T11:35:25Z</time></trkpt><trkpt lat="51.16205276538824" lon="5.396143380783057"><ele>59.8</ele><time>2026-04-06T11:35:26Z</time></trkpt><trkpt lat="51.161954359342374" lon="5.396175324800289"><ele>59.199999999999996</ele><time>2026-04-06T11:35:27Z</time></trkpt><trkpt lat="51.16185456625316" lon="5.396207719044399"><ele>58.599999999999994</ele><time>2026-04-06T11:35:28Z</time></trkpt><trkpt lat="51.16175470524756" lon="5.396237362263916"><ele>58.0</ele><time>2026-04-06T11:35:29Z</time></trkpt><trkpt lat="51.16165389644747" lon="5.396267071149313"><ele>58.0</ele><time>2026-04-06T11:35:30Z</time></trkpt><trkpt lat="51.16155219223976" lon="5.39629061953168"><ele>58.0</ele><time>2026-04-06T11:35:31Z</time></trkpt><trkpt lat="51.16144749267375" lon="5.396311888348454"><ele>58.0</ele><time>2026-04-06T11:35:32Z</time></trkpt><trkpt lat="51.16133890103724" lon="5.396334041379243"><ele>58.0</ele><time>2026-04-06T11:35:33Z</time></trkpt><trkpt lat="51.16122936690329" lon="5.396342999974396"><ele>58.0</ele><time>2026-04-06T11:35:34Z</time></trkpt><trkpt lat="51.16111596080955" lon="5.39635014115095"><ele>58.0</ele><time>2026-04-06T11:35:35Z</time></trkpt><trkpt lat="51.16099921976899" lon="5.396345240946244"><ele>58.0</ele><time>2026-04-06T11:35:36Z</time></trkpt><trkpt lat="51.160885233951035" lon="5.396337996363067"><ele>58.0</ele><time>2026-04-06T11:35:37Z</time></trkpt><trkpt lat="51.16077044206278" lon="5.396320193788748"><ele>58.0</ele><time>2026-04-06T11:35:38Z</time></trkpt><trkpt lat="51.16065971223129" lon="5.39630042906741"><ele>58.25</ele><time>2026-04-06T11:35:39Z</time></trkpt><trkpt lat="51.16055126030112" lon="5.396272252805927"><ele>58.5</ele><time>2026-04-06T11:35:40Z</time></trkpt><trkpt lat="51.16042967039396" lon="5.396233024987033"><ele>58.75</ele><time>2026-04-06T11:35:41Z</time></trkpt><trkpt lat="51.160301115291695" lon="5.3961915499459545"><ele>59.0</ele><time>2026-04-06T11:35:42Z</time></trkpt><trkpt lat="51.16017142375023" lon="5.39614970834732"><ele>59.0</ele><time>2026-04-06T11:35:43Z</time></trkpt><trkpt lat="51.16004729440881" lon="5.3961081504188275"><ele>59.0</ele><time>2026-04-06T11:35:44Z</time></trkpt><trkpt lat="51.159923725319004" lon="5.396064325234213"><ele>59.0</ele><time>2026-04-06T11:35:45Z</time></trkpt><trkpt lat="51.15980104001551" lon="5.396025582509892"><ele>59.0</ele><time>2026-04-06T11:35:46Z</time></trkpt><trkpt lat="51.159679618160084" lon="5.395987238709308"><ele>59.25</ele><time>2026-04-06T11:35:47Z</time></trkpt><trkpt lat="51.159557962783566" lon="5.39594750961553"><ele>59.5</ele><time>2026-04-06T11:35:48Z</time></trkpt><trkpt lat="51.15943610727993" lon="5.395909202304292"><ele>59.75</ele><time>2026-04-06T11:35:49Z</time></trkpt><trkpt lat="51.159312125809464" lon="5.39586655054289"><ele>60.0</ele><time>2026-04-06T11:35:50Z</time></trkpt><trkpt lat="51.15919005809821" lon="5.395817594349795"><ele>60.0</ele><time>2026-04-06T11:35:51Z</time></trkpt><trkpt lat="51.15906326203927" lon="5.395765744061703"><ele>60.0</ele><time>2026-04-06T11:35:52Z</time></trkpt><trkpt lat="51.15894245434899" lon="5.395698075973359"><ele>60.0</ele><time>2026-04-06T11:35:53Z</time></trkpt><trkpt lat="51.1588196244254" lon="5.395622897793841"><ele>60.0</ele><time>2026-04-06T11:35:54Z</time></trkpt><trkpt lat="51.15869977439656" lon="5.395538285392186"><ele>59.75</ele><time>2026-04-06T11:35:55Z</time></trkpt><trkpt lat="51.15857927690398" lon="5.395441677352414"><ele>59.5</ele><time>2026-04-06T11:35:56Z</time></trkpt><trkpt lat="51.15846040021594" lon="5.395330103430781"><ele>59.25</ele><time>2026-04-06T11:35:57Z</time></trkpt><trkpt lat="51.1583437257947" lon="5.395214563417041"><ele>59.0</ele><time>2026-04-06T11:35:58Z</time></trkpt><trkpt lat="51.15822623161768" lon="5.395092339874059"><ele>59.75</ele><time>2026-04-06T11:35:59Z</time></trkpt><trkpt lat="51.15810844064403" lon="5.394969807651815"><ele>60.5</ele><time>2026-04-06T11:36:00Z</time></trkpt><trkpt lat="51.15799090141889" lon="5.394847537260804"><ele>61.25</ele><time>2026-04-06T11:36:01Z</time></trkpt><trkpt lat="51.157875301134304" lon="5.394727334450648"><ele>62.0</ele><time>2026-04-06T11:36:02Z</time></trkpt><trkpt lat="51.15775982150315" lon="5.394607221387695"><ele>62.0</ele><time>2026-04-06T11:36:03Z</time></trkpt><trkpt lat="51.1576448958124" lon="5.394487343537881"><ele>62.0</ele><time>2026-04-06T11:36:04Z</time></trkpt><trkpt lat="51.157529912034946" lon="5.3943674034570845"><ele>62.0</ele><time>2026-04-06T11:36:05Z</time></trkpt><trkpt lat="51.15741589902268" lon="5.394249431137391"><ele>62.0</ele><time>2026-04-06T11:36:06Z</time></trkpt><trkpt lat="51.157302569052256" lon="5.394132069009957"><ele>61.5</ele><time>2026-04-06T11:36:07Z</time></trkpt><trkpt lat="51.1571899708752" lon="5.394014563798542"><ele>61.0</ele><time>2026-04-06T11:36:08Z</time></trkpt><trkpt lat="51.157076789867226" lon="5.393899503262339"><ele>60.5</ele><time>2026-04-06T11:36:09Z</time></trkpt><trkpt lat="51.15696596747509" lon="5.393783313594516"><ele>60.0</ele><time>2026-04-06T11:36:10Z</time></trkpt><trkpt lat="51.15685434880074" lon="5.393666289040174"><ele>60.0</ele><time>2026-04-06T11:36:11Z</time></trkpt><trkpt lat="51.15674373832558" lon="5.3935503211355424"><ele>60.0</ele><time>2026-04-06T11:36:12Z</time></trkpt><trkpt lat="51.1566021311611" lon="5.393510097236432"><ele>60.0</ele><time>2026-04-06T11:36:13Z</time></trkpt><trkpt lat="51.15649137444365" lon="5.393393069055242"><ele>60.0</ele><time>2026-04-06T11:36:14Z</time></trkpt><trkpt lat="51.15638225872021" lon="5.39327894455828"><ele>60.0</ele><time>2026-04-06T11:36:15Z</time></trkpt><trkpt lat="51.156284828740304" lon="5.393177554094452"><ele>60.0</ele><time>2026-04-06T11:36:16Z</time></trkpt><trkpt lat="51.15622550897967" lon="5.393011914058196"><ele>60.0</ele><time>2026-04-06T11:36:17Z</time></trkpt><trkpt lat="51.15614391555349" lon="5.392927088171501"><ele>60.0</ele><time>2026-04-06T11:36:18Z</time></trkpt><trkpt lat="51.15606815288492" lon="5.392848323390012"><ele>60.0</ele><time>2026-04-06T11:36:19Z</time></trkpt><trkpt lat="51.156000212558304" lon="5.3927776912322845"><ele>60.0</ele><time>2026-04-06T11:36:20Z</time></trkpt><trkpt lat="51.15593218819087" lon="5.392706971774061"><ele>60.0</ele><time>2026-04-06T11:36:22Z</time></trkpt><trkpt lat="51.155857852154845" lon="5.392632405147169"><ele>60.0</ele><time>2026-04-06T11:36:50Z</time></trkpt><trkpt lat="51.15579752665449" lon="5.392576316042772"><ele>60.0</ele><time>2026-04-06T11:36:51Z</time></trkpt><trkpt lat="51.15582699316543" lon="5.392391844040974"><ele>60.0</ele><time>2026-04-06T11:36:53Z</time></trkpt><trkpt lat="51.15587474974594" lon="5.3922518019203975"><ele>60.5</ele><time>2026-04-06T11:36:54Z</time></trkpt><trkpt lat="51.15591764539122" lon="5.392100237487197"><ele>61.0</ele><time>2026-04-06T11:36:55Z</time></trkpt><trkpt lat="51.155941678506544" lon="5.391926280887554"><ele>61.5</ele><time>2026-04-06T11:36:56Z</time></trkpt><trkpt lat="51.15600349798017" lon="5.391764461982558"><ele>62.0</ele><time>2026-04-06T11:36:57Z</time></trkpt><trkpt lat="51.15605260498076" lon="5.3915978939316265"><ele>62.0</ele><time>2026-04-06T11:36:58Z</time></trkpt><trkpt lat="51.156102437289796" lon="5.391433599336394"><ele>62.0</ele><time>2026-04-06T11:36:59Z</time></trkpt><trkpt lat="51.15615156143853" lon="5.391271696763226"><ele>62.0</ele><time>2026-04-06T11:37:00Z</time></trkpt><trkpt lat="51.1562002932658" lon="5.391110072277441"><ele>62.0</ele><time>2026-04-06T11:37:01Z</time></trkpt><trkpt lat="51.15625283776614" lon="5.390934113880645"><ele>62.0</ele><time>2026-04-06T11:37:02Z</time></trkpt><trkpt lat="51.15630334788774" lon="5.390764349135702"><ele>62.0</ele><time>2026-04-06T11:37:03Z</time></trkpt><trkpt lat="51.156332995385014" lon="5.390581457486659"><ele>62.0</ele><time>2026-04-06T11:37:04Z</time></trkpt><trkpt lat="51.15638307676249" lon="5.390399577459543"><ele>62.0</ele><time>2026-04-06T11:37:05Z</time></trkpt><trkpt lat="51.15640198192314" lon="5.390203883610252"><ele>62.0</ele><time>2026-04-06T11:37:06Z</time></trkpt><trkpt lat="51.15641776349546" lon="5.390002784191432"><ele>62.0</ele><time>2026-04-06T11:37:07Z</time></trkpt><trkpt lat="51.15642663182953" lon="5.389805656861253"><ele>62.0</ele><time>2026-04-06T11:37:08Z</time></trkpt><trkpt lat="51.15640412436656" lon="5.389603169562157"><ele>62.0</ele><time>2026-04-06T11:37:09Z</time></trkpt><trkpt lat="51.1563718610706" lon="5.3894115772990085"><ele>61.75</ele><time>2026-04-06T11:37:10Z</time></trkpt><trkpt lat="51.15633770571709" lon="5.389213933668925"><ele>61.5</ele><time>2026-04-06T11:37:11Z</time></trkpt><trkpt lat="51.15630355889531" lon="5.389015073456112"><ele>61.25</ele><time>2026-04-06T11:37:12Z</time></trkpt><trkpt lat="51.15627007021527" lon="5.388820794533335"><ele>61.0</ele><time>2026-04-06T11:37:13Z</time></trkpt><trkpt lat="51.156236447933225" lon="5.38862574062442"><ele>61.0</ele><time>2026-04-06T11:37:14Z</time></trkpt><trkpt lat="51.156202470104354" lon="5.3884288899415"><ele>61.0</ele><time>2026-04-06T11:37:15Z</time></trkpt><trkpt lat="51.1561676301895" lon="5.388227533554889"><ele>61.0</ele><time>2026-04-06T11:37:16Z</time></trkpt><trkpt lat="51.156131704846864" lon="5.388019904050894"><ele>61.0</ele><time>2026-04-06T11:37:17Z</time></trkpt><trkpt lat="51.15609945384524" lon="5.387809525684603"><ele>61.0</ele><time>2026-04-06T11:37:18Z</time></trkpt><trkpt lat="51.15606542976472" lon="5.387596926574146"><ele>61.0</ele><time>2026-04-06T11:37:19Z</time></trkpt><trkpt lat="51.156028696717335" lon="5.387392497389481"><ele>61.0</ele><time>2026-04-06T11:37:20Z</time></trkpt><trkpt lat="51.15599194858991" lon="5.3871872387717294"><ele>61.0</ele><time>2026-04-06T11:37:21Z</time></trkpt><trkpt lat="51.15595516035972" lon="5.386980270925908"><ele>61.25</ele><time>2026-04-06T11:37:22Z</time></trkpt><trkpt lat="51.15591910435363" lon="5.38677411356653"><ele>61.5</ele><time>2026-04-06T11:37:23Z</time></trkpt><trkpt lat="51.15588210391885" lon="5.3865652968261"><ele>61.75</ele><time>2026-04-06T11:37:24Z</time></trkpt><trkpt lat="51.15584744488928" lon="5.386357335068234"><ele>62.0</ele><time>2026-04-06T11:37:25Z</time></trkpt><trkpt lat="51.15581605043467" lon="5.386145198154046"><ele>62.0</ele><time>2026-04-06T11:37:26Z</time></trkpt><trkpt lat="51.15579593417386" lon="5.385930135765363"><ele>62.0</ele><time>2026-04-06T11:37:27Z</time></trkpt><trkpt lat="51.15577972400111" lon="5.385709301108384"><ele>62.0</ele><time>2026-04-06T11:37:28Z</time></trkpt><trkpt lat="51.15577083483576" lon="5.385487252503285"><ele>62.0</ele><time>2026-04-06T11:37:29Z</time></trkpt><trkpt lat="51.155756490392854" lon="5.385263110309716"><ele>62.0</ele><time>2026-04-06T11:37:30Z</time></trkpt><trkpt lat="51.15576837541738" lon="5.385038856674999"><ele>62.0</ele><time>2026-04-06T11:37:31Z</time></trkpt><trkpt lat="51.15578455504688" lon="5.384814866531719"><ele>62.0</ele><time>2026-04-06T11:37:32Z</time></trkpt><trkpt lat="51.15580580695949" lon="5.384594728138686"><ele>62.0</ele><time>2026-04-06T11:37:33Z</time></trkpt><trkpt lat="51.15583197986179" lon="5.384375965829779"><ele>62.0</ele><time>2026-04-06T11:37:34Z</time></trkpt><trkpt lat="51.15585319518774" lon="5.384157068397276"><ele>62.0</ele><time>2026-04-06T11:37:35Z</time></trkpt><trkpt lat="51.155874894720924" lon="5.383937389176885"><ele>62.0</ele><time>2026-04-06T11:37:36Z</time></trkpt><trkpt lat="51.15589945357321" lon="5.383718733759738"><ele>62.0</ele><time>2026-04-06T11:37:37Z</time></trkpt><trkpt lat="51.155921048495316" lon="5.3835007421492165"><ele>62.0</ele><time>2026-04-06T11:37:38Z</time></trkpt><trkpt lat="51.15595291986722" lon="5.383284551971344"><ele>62.0</ele><time>2026-04-06T11:37:39Z</time></trkpt><trkpt lat="51.155976197564875" lon="5.383065312464468"><ele>62.0</ele><time>2026-04-06T11:37:40Z</time></trkpt><trkpt lat="51.15598896602682" lon="5.3828434120672055"><ele>62.0</ele><time>2026-04-06T11:37:41Z</time></trkpt><trkpt lat="51.15601692652475" lon="5.382625623516365"><ele>62.0</ele><time>2026-04-06T11:37:42Z</time></trkpt><trkpt lat="51.15603566122294" lon="5.38241236341721"><ele>62.0</ele><time>2026-04-06T11:37:43Z</time></trkpt><trkpt lat="51.15604105668627" lon="5.382209207069881"><ele>62.0</ele><time>2026-04-06T11:37:44Z</time></trkpt><trkpt lat="51.15602716701772" lon="5.382005536780598"><ele>62.0</ele><time>2026-04-06T11:37:45Z</time></trkpt><trkpt lat="51.15599742061578" lon="5.381804248691686"><ele>62.5</ele><time>2026-04-06T11:37:46Z</time></trkpt><trkpt lat="51.155949965126936" lon="5.381610020889358"><ele>63.0</ele><time>2026-04-06T11:37:47Z</time></trkpt><trkpt lat="51.155885699647484" lon="5.381426836148629"><ele>63.5</ele><time>2026-04-06T11:37:48Z</time></trkpt><trkpt lat="51.15583639713213" lon="5.3812318560032315"><ele>64.0</ele><time>2026-04-06T11:37:49Z</time></trkpt><trkpt lat="51.1557704210345" lon="5.381042549501982"><ele>64.0</ele><time>2026-04-06T11:37:50Z</time></trkpt><trkpt lat="51.15570281013138" lon="5.380855949628241"><ele>64.0</ele><time>2026-04-06T11:37:51Z</time></trkpt><trkpt lat="51.155642901508486" lon="5.3806927350549465"><ele>64.0</ele><time>2026-04-06T11:37:52Z</time></trkpt><trkpt lat="51.155600390658996" lon="5.380574715392985"><ele>64.0</ele><time>2026-04-06T11:37:53Z</time></trkpt><trkpt lat="51.155548604568324" lon="5.380476919344184"><ele>64.0</ele><time>2026-04-06T11:37:54Z</time></trkpt><trkpt lat="51.15555040295192" lon="5.380369208812978"><ele>63.666666666666664</ele><time>2026-04-06T11:37:55Z</time></trkpt><trkpt lat="51.15557114770902" lon="5.380270781013723"><ele>63.33333333333333</ele><time>2026-04-06T11:37:56Z</time></trkpt><trkpt lat="51.15561006647116" lon="5.380174370162944"><ele>63.0</ele><time>2026-04-06T11:37:57Z</time></trkpt><trkpt lat="51.15566885466491" lon="5.3800651506472565"><ele>62.66666666666667</ele><time>2026-04-06T11:37:58Z</time></trkpt><trkpt lat="51.155744239889" lon="5.379954167602517"><ele>62.333333333333336</ele><time>2026-04-06T11:37:59Z</time></trkpt><trkpt lat="51.155838349581266" lon="5.379861629334637"><ele>62.0</ele><time>2026-04-06T11:38:00Z</time></trkpt><trkpt lat="51.15593902770624" lon="5.37975518583698"><ele>62.0</ele><time>2026-04-06T11:38:01Z</time></trkpt><trkpt lat="51.15604661746128" lon="5.379615618049764"><ele>62.0</ele><time>2026-04-06T11:38:02Z</time></trkpt><trkpt lat="51.156144219954676" lon="5.379478112553355"><ele>62.0</ele><time>2026-04-06T11:38:03Z</time></trkpt><trkpt lat="51.15623954407781" lon="5.379338668749693"><ele>62.0</ele><time>2026-04-06T11:38:04Z</time></trkpt><trkpt lat="51.15633383171477" lon="5.37919783762814"><ele>62.0</ele><time>2026-04-06T11:38:05Z</time></trkpt><trkpt lat="51.15642530444438" lon="5.379052786422672"><ele>62.0</ele><time>2026-04-06T11:38:06Z</time></trkpt><trkpt lat="51.15650513063556" lon="5.378892549670425"><ele>62.0</ele><time>2026-04-06T11:38:07Z</time></trkpt><trkpt lat="51.15658189150349" lon="5.378726340520647"><ele>62.0</ele><time>2026-04-06T11:38:08Z</time></trkpt><trkpt lat="51.1566491030778" lon="5.378566910103004"><ele>61.75</ele><time>2026-04-06T11:38:09Z</time></trkpt><trkpt lat="51.15671034677235" lon="5.378403234763228"><ele>61.5</ele><time>2026-04-06T11:38:10Z</time></trkpt><trkpt lat="51.156769913962144" lon="5.378229423640207"><ele>61.25</ele><time>2026-04-06T11:38:11Z</time></trkpt><trkpt lat="51.15682250224613" lon="5.37804707510668"><ele>61.0</ele><time>2026-04-06T11:38:12Z</time></trkpt><trkpt lat="51.15686471256686" lon="5.3778539574454465"><ele>61.0</ele><time>2026-04-06T11:38:13Z</time></trkpt><trkpt lat="51.156899808646315" lon="5.377651860815187"><ele>61.0</ele><time>2026-04-06T11:38:14Z</time></trkpt><trkpt lat="51.156937432124124" lon="5.377446533137421"><ele>61.0</ele><time>2026-04-06T11:38:15Z</time></trkpt><trkpt lat="51.15697656516392" lon="5.377238477777185"><ele>61.0</ele><time>2026-04-06T11:38:16Z</time></trkpt><trkpt lat="51.15701809590017" lon="5.377026812660701"><ele>61.0</ele><time>2026-04-06T11:38:17Z</time></trkpt><trkpt lat="51.15705961528543" lon="5.376812235767663"><ele>61.0</ele><time>2026-04-06T11:38:18Z</time></trkpt><trkpt lat="51.157101415105345" lon="5.376595517004518"><ele>61.0</ele><time>2026-04-06T11:38:19Z</time></trkpt><trkpt lat="51.15714517741693" lon="5.376383244694306"><ele>61.0</ele><time>2026-04-06T11:38:20Z</time></trkpt><trkpt lat="51.15718308921049" lon="5.376188476455317"><ele>61.0</ele><time>2026-04-06T11:38:21Z</time></trkpt><trkpt lat="51.15722591379579" lon="5.3759994067373"><ele>61.0</ele><time>2026-04-06T11:38:22Z</time></trkpt><trkpt lat="51.157271431177946" lon="5.3758122925588125"><ele>61.0</ele><time>2026-04-06T11:38:23Z</time></trkpt><trkpt lat="51.1573210315893" lon="5.37563164107034"><ele>61.0</ele><time>2026-04-06T11:38:24Z</time></trkpt><trkpt lat="51.157368229888775" lon="5.3754658068152565"><ele>60.599999999999994</ele><time>2026-04-06T11:38:25Z</time></trkpt><trkpt lat="51.157413810067005" lon="5.375317847468006"><ele>60.199999999999996</ele><time>2026-04-06T11:38:26Z</time></trkpt><trkpt lat="51.15745877148515" lon="5.375183930599277"><ele>59.800000000000004</ele><time>2026-04-06T11:38:27Z</time></trkpt><trkpt lat="51.157508693225324" lon="5.375042867816695"><ele>59.400000000000006</ele><time>2026-04-06T11:38:28Z</time></trkpt><trkpt lat="51.15756060688409" lon="5.374899102121039"><ele>59.0</ele><time>2026-04-06T11:38:29Z</time></trkpt><trkpt lat="51.157613197818065" lon="5.374754874967044"><ele>59.2</ele><time>2026-04-06T11:38:30Z</time></trkpt><trkpt lat="51.15766861777111" lon="5.374609578770979"><ele>59.400000000000006</ele><time>2026-04-06T11:38:31Z</time></trkpt><trkpt lat="51.157725147851565" lon="5.374462714505633"><ele>59.6</ele><time>2026-04-06T11:38:32Z</time></trkpt><trkpt lat="51.15778357434167" lon="5.374314499297544"><ele>59.8</ele><time>2026-04-06T11:38:33Z</time></trkpt><trkpt lat="51.15784537059467" lon="5.374154723173812"><ele>60.0</ele><time>2026-04-06T11:38:34Z</time></trkpt><trkpt lat="51.15791110766173" lon="5.373984913714653"><ele>60.5</ele><time>2026-04-06T11:38:35Z</time></trkpt><trkpt lat="51.157977757795614" lon="5.373817239616677"><ele>61.0</ele><time>2026-04-06T11:38:36Z</time></trkpt><trkpt lat="51.15804385573859" lon="5.373651954424682"><ele>61.5</ele><time>2026-04-06T11:38:37Z</time></trkpt><trkpt lat="51.158109701289966" lon="5.373486923871814"><ele>62.0</ele><time>2026-04-06T11:38:38Z</time></trkpt><trkpt lat="51.158176865318254" lon="5.373323696678879"><ele>61.5</ele><time>2026-04-06T11:38:39Z</time></trkpt><trkpt lat="51.15824479806045" lon="5.373162216221301"><ele>61.0</ele><time>2026-04-06T11:38:40Z</time></trkpt><trkpt lat="51.15831587593345" lon="5.372995993120776"><ele>60.5</ele><time>2026-04-06T11:38:41Z</time></trkpt><trkpt lat="51.15839163332275" lon="5.3728032915834065"><ele>60.0</ele><time>2026-04-06T11:38:42Z</time></trkpt><trkpt lat="51.15848492089253" lon="5.372571520702945"><ele>60.0</ele><time>2026-04-06T11:38:43Z</time></trkpt><trkpt lat="51.158594062858434" lon="5.3722977043512605"><ele>60.0</ele><time>2026-04-06T11:38:44Z</time></trkpt><trkpt lat="51.15870599169877" lon="5.372021587040002"><ele>60.0</ele><time>2026-04-06T11:38:45Z</time></trkpt><trkpt lat="51.158812602387215" lon="5.371752704269674"><ele>59.66666666666667</ele><time>2026-04-06T11:38:46Z</time></trkpt><trkpt lat="51.15891815734607" lon="5.371493313387181"><ele>59.333333333333336</ele><time>2026-04-06T11:38:47Z</time></trkpt><trkpt lat="51.15901900464599" lon="5.371239862033648"><ele>59.0</ele><time>2026-04-06T11:38:48Z</time></trkpt><trkpt lat="51.159119392326744" lon="5.3709942005253195"><ele>60.0</ele><time>2026-04-06T11:38:49Z</time></trkpt><trkpt lat="51.15922107146298" lon="5.370742857591602"><ele>61.0</ele><time>2026-04-06T11:38:50Z</time></trkpt><trkpt lat="51.15932410386604" lon="5.370491051878305"><ele>62.0</ele><time>2026-04-06T11:38:51Z</time></trkpt><trkpt lat="51.15942584568541" lon="5.3702360713754524"><ele>62.333333333333336</ele><time>2026-04-06T11:38:52Z</time></trkpt><trkpt lat="51.159528683712715" lon="5.3699837507110475"><ele>62.66666666666667</ele><time>2026-04-06T11:38:53Z</time></trkpt><trkpt lat="51.15963064096255" lon="5.369730917199741"><ele>63.0</ele><time>2026-04-06T11:38:54Z</time></trkpt><trkpt lat="51.159732163584465" lon="5.369477704799297"><ele>63.0</ele><time>2026-04-06T11:38:55Z</time></trkpt><trkpt lat="51.15983281338746" lon="5.3692250029474495"><ele>63.0</ele><time>2026-04-06T11:38:56Z</time></trkpt><trkpt lat="51.15993448614219" lon="5.368972686347689"><ele>63.0</ele><time>2026-04-06T11:38:57Z</time></trkpt><trkpt lat="51.16003509478502" lon="5.3687194502680216"><ele>62.0</ele><time>2026-04-06T11:38:58Z</time></trkpt><trkpt lat="51.16013572771219" lon="5.36846696286128"><ele>61.0</ele><time>2026-04-06T11:38:59Z</time></trkpt><trkpt lat="51.16023618388844" lon="5.368217304748986"><ele>60.0</ele><time>2026-04-06T11:39:00Z</time></trkpt><trkpt lat="51.16033639408354" lon="5.367968743531977"><ele>59.66666666666667</ele><time>2026-04-06T11:39:01Z</time></trkpt><trkpt lat="51.16043606263122" lon="5.3677224525161265"><ele>59.333333333333336</ele><time>2026-04-06T11:39:02Z</time></trkpt><trkpt lat="51.16053411490746" lon="5.367477468867257"><ele>59.0</ele><time>2026-04-06T11:39:03Z</time></trkpt><trkpt lat="51.16063035084516" lon="5.367234518759361"><ele>60.333333333333336</ele><time>2026-04-06T11:39:04Z</time></trkpt><trkpt lat="51.16072644676977" lon="5.366995754880419"><ele>61.66666666666667</ele><time>2026-04-06T11:39:05Z</time></trkpt><trkpt lat="51.160819719517626" lon="5.3667591485195025"><ele>63.0</ele><time>2026-04-06T11:39:06Z</time></trkpt><trkpt lat="51.16091164031896" lon="5.366524230317439"><ele>62.33333333333333</ele><time>2026-04-06T11:39:07Z</time></trkpt><trkpt lat="51.16100390562631" lon="5.3662915281969354"><ele>61.666666666666664</ele><time>2026-04-06T11:39:08Z</time></trkpt><trkpt lat="51.161097318939085" lon="5.3660653516466725"><ele>61.0</ele><time>2026-04-06T11:39:09Z</time></trkpt><trkpt lat="51.16118359400443" lon="5.365861820290539"><ele>61.0</ele><time>2026-04-06T11:39:10Z</time></trkpt><trkpt lat="51.16126241313269" lon="5.365666486736109"><ele>61.0</ele><time>2026-04-06T11:39:11Z</time></trkpt><trkpt lat="51.16133579194452" lon="5.365485281997082"><ele>61.0</ele><time>2026-04-06T11:39:12Z</time></trkpt><trkpt lat="51.161405590807405" lon="5.365316196763894"><ele>61.0</ele><time>2026-04-06T11:39:13Z</time></trkpt><trkpt lat="51.16147080903533" lon="5.365161021478047"><ele>60.99999999999999</ele><time>2026-04-06T11:39:14Z</time></trkpt><trkpt lat="51.161528330894406" lon="5.3650305411024535"><ele>61.0</ele><time>2026-04-06T11:39:15Z</time></trkpt><trkpt lat="51.161567335824024" lon="5.364919331054939"><ele>61.0</ele><time>2026-04-06T11:39:16Z</time></trkpt><trkpt lat="51.16159408895265" lon="5.364821476814645"><ele>61.0</ele><time>2026-04-06T11:39:17Z</time></trkpt><trkpt lat="51.161608849759475" lon="5.364715987632042"><ele>60.99999999999999</ele><time>2026-04-06T11:39:19Z</time></trkpt><trkpt lat="51.16161276728007" lon="5.364540180243716"><ele>61.0</ele><time>2026-04-06T11:39:29Z</time></trkpt><trkpt lat="51.161623680172376" lon="5.364383165155912"><ele>60.5</ele><time>2026-04-06T11:39:30Z</time></trkpt><trkpt lat="51.16163403780388" lon="5.364195722382932"><ele>60.0</ele><time>2026-04-06T11:39:31Z</time></trkpt><trkpt lat="51.16164375995567" lon="5.363998614705412"><ele>59.5</ele><time>2026-04-06T11:39:32Z</time></trkpt><trkpt lat="51.161654983957874" lon="5.363783045574901"><ele>59.0</ele><time>2026-04-06T11:39:33Z</time></trkpt><trkpt lat="51.16167134185342" lon="5.363530059290376"><ele>59.0</ele><time>2026-04-06T11:39:34Z</time></trkpt><trkpt lat="51.161687657566695" lon="5.363277232898445"><ele>59.0</ele><time>2026-04-06T11:39:35Z</time></trkpt><trkpt lat="51.16170377733611" lon="5.363016313637441"><ele>59.0</ele><time>2026-04-06T11:39:36Z</time></trkpt><trkpt lat="51.161720978163174" lon="5.3627319228446035"><ele>58.66666666666667</ele><time>2026-04-06T11:39:37Z</time></trkpt><trkpt lat="51.16173633189366" lon="5.362439816601516"><ele>58.33333333333333</ele><time>2026-04-06T11:39:38Z</time></trkpt><trkpt lat="51.16174204257892" lon="5.362144704441556"><ele>58.0</ele><time>2026-04-06T11:39:39Z</time></trkpt><trkpt lat="51.16174942112352" lon="5.361833308530652"><ele>58.0</ele><time>2026-04-06T11:39:40Z</time></trkpt><trkpt lat="51.16175201897019" lon="5.361518580951725"><ele>58.0</ele><time>2026-04-06T11:39:41Z</time></trkpt><trkpt lat="51.161745428231484" lon="5.36120040283261"><ele>58.0</ele><time>2026-04-06T11:39:42Z</time></trkpt><trkpt lat="51.16173617693775" lon="5.3608772994537075"><ele>59.0</ele><time>2026-04-06T11:39:43Z</time></trkpt><trkpt lat="51.16172671146914" lon="5.360555059661873"><ele>60.0</ele><time>2026-04-06T11:39:44Z</time></trkpt><trkpt lat="51.161718902993364" lon="5.360228203546102"><ele>61.0</ele><time>2026-04-06T11:39:45Z</time></trkpt><trkpt lat="51.161711920949344" lon="5.359898580514763"><ele>61.33333333333333</ele><time>2026-04-06T11:39:46Z</time></trkpt><trkpt lat="51.16170315335425" lon="5.359569997940746"><ele>61.66666666666667</ele><time>2026-04-06T11:39:47Z</time></trkpt><trkpt lat="51.161692757764406" lon="5.359243450311057"><ele>62.0</ele><time>2026-04-06T11:39:48Z</time></trkpt><trkpt lat="51.1616846161154" lon="5.358918779566465"><ele>61.66666666666667</ele><time>2026-04-06T11:39:49Z</time></trkpt><trkpt lat="51.161678132833174" lon="5.358599740864986"><ele>61.33333333333333</ele><time>2026-04-06T11:39:50Z</time></trkpt><trkpt lat="51.16167272023732" lon="5.358284312726116"><ele>61.0</ele><time>2026-04-06T11:39:51Z</time></trkpt><trkpt lat="51.161665978409715" lon="5.357972802791405"><ele>61.0</ele><time>2026-04-06T11:39:52Z</time></trkpt><trkpt lat="51.16165668110894" lon="5.357664957510785"><ele>61.0</ele><time>2026-04-06T11:39:53Z</time></trkpt><trkpt lat="51.161644526576694" lon="5.357361002831723"><ele>61.0</ele><time>2026-04-06T11:39:54Z</time></trkpt><trkpt lat="51.16163047309275" lon="5.357062839285747"><ele>60.666666666666664</ele><time>2026-04-06T11:39:55Z</time></trkpt><trkpt lat="51.16161019322633" lon="5.356769404772791"><ele>60.33333333333333</ele><time>2026-04-06T11:39:56Z</time></trkpt><trkpt lat="51.16158815406576" lon="5.356476271556311"><ele>60.0</ele><time>2026-04-06T11:39:57Z</time></trkpt><trkpt lat="51.16156355840281" lon="5.356184759032506"><ele>60.0</ele><time>2026-04-06T11:39:58Z</time></trkpt><trkpt lat="51.16153736634598" lon="5.355893369273478"><ele>60.0</ele><time>2026-04-06T11:39:59Z</time></trkpt><trkpt lat="51.16151026214107" lon="5.355599687872559"><ele>60.0</ele><time>2026-04-06T11:40:00Z</time></trkpt><trkpt lat="51.16148244159728" lon="5.355308402052575"><ele>59.66666666666667</ele><time>2026-04-06T11:40:01Z</time></trkpt><trkpt lat="51.161460184785966" lon="5.355015347542382"><ele>59.333333333333336</ele><time>2026-04-06T11:40:02Z</time></trkpt><trkpt lat="51.16143711488675" lon="5.354722344720962"><ele>59.0</ele><time>2026-04-06T11:40:03Z</time></trkpt><trkpt lat="51.16140298509468" lon="5.3544348525613525"><ele>61.0</ele><time>2026-04-06T11:40:04Z</time></trkpt><trkpt lat="51.16137315231219" lon="5.354138384195167"><ele>63.0</ele><time>2026-04-06T11:40:05Z</time></trkpt><trkpt lat="51.16135291883379" lon="5.353835096648908"><ele>65.0</ele><time>2026-04-06T11:40:06Z</time></trkpt><trkpt lat="51.16133371592073" lon="5.353528671534397"><ele>65.33333333333334</ele><time>2026-04-06T11:40:07Z</time></trkpt><trkpt lat="51.16132146069417" lon="5.353217357716788"><ele>65.66666666666667</ele><time>2026-04-06T11:40:08Z</time></trkpt><trkpt lat="51.161313316823566" lon="5.352911575603376"><ele>66.0</ele><time>2026-04-06T11:40:09Z</time></trkpt><trkpt lat="51.161308448965805" lon="5.352609568953406"><ele>66.0</ele><time>2026-04-06T11:40:10Z</time></trkpt><trkpt lat="51.161306821724054" lon="5.3523095199474495"><ele>66.0</ele><time>2026-04-06T11:40:11Z</time></trkpt><trkpt lat="51.16131057260252" lon="5.352012805361679"><ele>66.0</ele><time>2026-04-06T11:40:12Z</time></trkpt><trkpt lat="51.161318202977945" lon="5.351716955394576"><ele>66.0</ele><time>2026-04-06T11:40:13Z</time></trkpt><trkpt lat="51.16133252321015" lon="5.351426033410152"><ele>66.0</ele><time>2026-04-06T11:40:14Z</time></trkpt><trkpt lat="51.1613412375579" lon="5.35113589037217"><ele>66.0</ele><time>2026-04-06T11:40:15Z</time></trkpt><trkpt lat="51.16135027676225" lon="5.350847113399167"><ele>66.0</ele><time>2026-04-06T11:40:16Z</time></trkpt><trkpt lat="51.161359709668375" lon="5.350558598440776"><ele>66.0</ele><time>2026-04-06T11:40:17Z</time></trkpt><trkpt lat="51.16136798676279" lon="5.350270431529898"><ele>66.0</ele><time>2026-04-06T11:40:18Z</time></trkpt><trkpt lat="51.16137647460693" lon="5.3499820292041775"><ele>66.0</ele><time>2026-04-06T11:40:19Z</time></trkpt><trkpt lat="51.16138571811683" lon="5.349694475158873"><ele>66.0</ele><time>2026-04-06T11:40:20Z</time></trkpt><trkpt lat="51.16139664375945" lon="5.349408583104363"><ele>66.0</ele><time>2026-04-06T11:40:21Z</time></trkpt><trkpt lat="51.16140676649767" lon="5.349123308998177"><ele>66.33333333333333</ele><time>2026-04-06T11:40:22Z</time></trkpt><trkpt lat="51.161416587914594" lon="5.348838274981705"><ele>66.66666666666666</ele><time>2026-04-06T11:40:23Z</time></trkpt><trkpt lat="51.16142761162376" lon="5.348554035101426"><ele>67.0</ele><time>2026-04-06T11:40:24Z</time></trkpt><trkpt lat="51.1614394159839" lon="5.348269157662229"><ele>67.0</ele><time>2026-04-06T11:40:25Z</time></trkpt><trkpt lat="51.161449874411225" lon="5.347985318907742"><ele>67.0</ele><time>2026-04-06T11:40:26Z</time></trkpt><trkpt lat="51.16145886468617" lon="5.347700394081136"><ele>67.0</ele><time>2026-04-06T11:40:27Z</time></trkpt><trkpt lat="51.16146775554232" lon="5.347414049678563"><ele>66.66666666666666</ele><time>2026-04-06T11:40:28Z</time></trkpt><trkpt lat="51.16147807917598" lon="5.3471278744992485"><ele>66.33333333333333</ele><time>2026-04-06T11:40:29Z</time></trkpt><trkpt lat="51.161489138503235" lon="5.346841510735903"><ele>66.0</ele><time>2026-04-06T11:40:30Z</time></trkpt><trkpt lat="51.16149976143504" lon="5.34655474533266"><ele>66.0</ele><time>2026-04-06T11:40:31Z</time></trkpt><trkpt lat="51.16151080819756" lon="5.3462664426387105"><ele>66.0</ele><time>2026-04-06T11:40:32Z</time></trkpt><trkpt lat="51.161521469314565" lon="5.3459774104729565"><ele>66.0</ele><time>2026-04-06T11:40:33Z</time></trkpt><trkpt lat="51.161530894704725" lon="5.345688808445956"><ele>66.0</ele><time>2026-04-06T11:40:34Z</time></trkpt><trkpt lat="51.16153864612959" lon="5.345398857646614"><ele>66.0</ele><time>2026-04-06T11:40:35Z</time></trkpt><trkpt lat="51.16154698361572" lon="5.345108827877082"><ele>66.0</ele><time>2026-04-06T11:40:36Z</time></trkpt><trkpt lat="51.16155511743425" lon="5.344817939707223"><ele>65.66666666666667</ele><time>2026-04-06T11:40:37Z</time></trkpt><trkpt lat="51.161567552941776" lon="5.344528454832047"><ele>65.33333333333334</ele><time>2026-04-06T11:40:38Z</time></trkpt><trkpt lat="51.16158655335022" lon="5.34423958289063"><ele>65.0</ele><time>2026-04-06T11:40:39Z</time></trkpt><trkpt lat="51.161605632735025" lon="5.3439501481891485"><ele>65.0</ele><time>2026-04-06T11:40:40Z</time></trkpt><trkpt lat="51.16161767517981" lon="5.343659185037204"><ele>65.0</ele><time>2026-04-06T11:40:41Z</time></trkpt><trkpt lat="51.16162256266532" lon="5.34336781442358"><ele>65.0</ele><time>2026-04-06T11:40:42Z</time></trkpt><trkpt lat="51.16162191882291" lon="5.343075473787254"><ele>65.33333333333334</ele><time>2026-04-06T11:40:43Z</time></trkpt><trkpt lat="51.16162464056129" lon="5.342782338999562"><ele>65.66666666666667</ele><time>2026-04-06T11:40:44Z</time></trkpt><trkpt lat="51.16163362956514" lon="5.342488225605193"><ele>66.0</ele><time>2026-04-06T11:40:45Z</time></trkpt><trkpt lat="51.1616469410153" lon="5.3421965283526145"><ele>66.0</ele><time>2026-04-06T11:40:46Z</time></trkpt><trkpt lat="51.161655872674146" lon="5.341910624791518"><ele>66.0</ele><time>2026-04-06T11:40:47Z</time></trkpt><trkpt lat="51.16166559999155" lon="5.341628663924179"><ele>66.0</ele><time>2026-04-06T11:40:48Z</time></trkpt><trkpt lat="51.16167691712616" lon="5.341349663663401"><ele>66.0</ele><time>2026-04-06T11:40:49Z</time></trkpt><trkpt lat="51.161686230575256" lon="5.34107209727721"><ele>66.0</ele><time>2026-04-06T11:40:50Z</time></trkpt><trkpt lat="51.16169631458918" lon="5.340797859964153"><ele>66.0</ele><time>2026-04-06T11:40:51Z</time></trkpt><trkpt lat="51.1617055395207" lon="5.340524110291328"><ele>66.33333333333333</ele><time>2026-04-06T11:40:52Z</time></trkpt><trkpt lat="51.16171500185246" lon="5.340250298233075"><ele>66.66666666666666</ele><time>2026-04-06T11:40:53Z</time></trkpt><trkpt lat="51.16172391641876" lon="5.339976519885419"><ele>67.0</ele><time>2026-04-06T11:40:54Z</time></trkpt><trkpt lat="51.16173290935451" lon="5.339702293465788"><ele>66.33333333333333</ele><time>2026-04-06T11:40:55Z</time></trkpt><trkpt lat="51.161740739647136" lon="5.33942692856666"><ele>65.66666666666667</ele><time>2026-04-06T11:40:56Z</time></trkpt><trkpt lat="51.16174759596469" lon="5.339149236349359"><ele>65.0</ele><time>2026-04-06T11:40:57Z</time></trkpt><trkpt lat="51.161760280653525" lon="5.338873570486251"><ele>63.0</ele><time>2026-04-06T11:40:58Z</time></trkpt><trkpt lat="51.161768852611" lon="5.338596397678975"><ele>61.0</ele><time>2026-04-06T11:40:59Z</time></trkpt><trkpt lat="51.16177741668224" lon="5.338317225924201"><ele>59.0</ele><time>2026-04-06T11:41:00Z</time></trkpt><trkpt lat="51.16178721089783" lon="5.3380361577855915"><ele>57.66666666666667</ele><time>2026-04-06T11:41:01Z</time></trkpt><trkpt lat="51.16179581324823" lon="5.337754284334202"><ele>56.33333333333333</ele><time>2026-04-06T11:41:02Z</time></trkpt><trkpt lat="51.16180731125264" lon="5.33747166837787"><ele>55.0</ele><time>2026-04-06T11:41:03Z</time></trkpt><trkpt lat="51.161817651388176" lon="5.337189053285803"><ele>54.666666666666664</ele><time>2026-04-06T11:41:04Z</time></trkpt><trkpt lat="51.16182688641493" lon="5.336906027379797"><ele>54.33333333333333</ele><time>2026-04-06T11:41:05Z</time></trkpt><trkpt lat="51.1618354514582" lon="5.336622030687418"><ele>54.0</ele><time>2026-04-06T11:41:06Z</time></trkpt><trkpt lat="51.161844497061026" lon="5.33633955779789"><ele>54.0</ele><time>2026-04-06T11:41:07Z</time></trkpt><trkpt lat="51.16185418840243" lon="5.336056430637279"><ele>54.0</ele><time>2026-04-06T11:41:08Z</time></trkpt><trkpt lat="51.161865375923256" lon="5.3357739856724"><ele>54.0</ele><time>2026-04-06T11:41:09Z</time></trkpt><trkpt lat="51.161875279010005" lon="5.335492160316674"><ele>54.33333333333333</ele><time>2026-04-06T11:41:10Z</time></trkpt><trkpt lat="51.161883648761744" lon="5.335210411924003"><ele>54.666666666666664</ele><time>2026-04-06T11:41:11Z</time></trkpt><trkpt lat="51.16189412757532" lon="5.334930206415964"><ele>55.0</ele><time>2026-04-06T11:41:12Z</time></trkpt><trkpt lat="51.16190446806237" lon="5.3346509973649825"><ele>54.33333333333333</ele><time>2026-04-06T11:41:13Z</time></trkpt><trkpt lat="51.16191366890152" lon="5.334371649295467"><ele>53.66666666666667</ele><time>2026-04-06T11:41:14Z</time></trkpt><trkpt lat="51.16192226149199" lon="5.334094529037402"><ele>53.0</ele><time>2026-04-06T11:41:15Z</time></trkpt><trkpt lat="51.16193366305154" lon="5.333818059960912"><ele>53.0</ele><time>2026-04-06T11:41:16Z</time></trkpt><trkpt lat="51.161943320805925" lon="5.333542836558376"><ele>53.0</ele><time>2026-04-06T11:41:17Z</time></trkpt><trkpt lat="51.16195205045106" lon="5.333268438862226"><ele>53.0</ele><time>2026-04-06T11:41:18Z</time></trkpt><trkpt lat="51.16196217532494" lon="5.332994097930927"><ele>53.0</ele><time>2026-04-06T11:41:19Z</time></trkpt><trkpt lat="51.161972739000156" lon="5.332720912864361"><ele>53.0</ele><time>2026-04-06T11:41:20Z</time></trkpt><trkpt lat="51.16198045852955" lon="5.332448564227074"><ele>53.0</ele><time>2026-04-06T11:41:21Z</time></trkpt><trkpt lat="51.16199324346785" lon="5.332176459301153"><ele>52.333333333333336</ele><time>2026-04-06T11:41:22Z</time></trkpt><trkpt lat="51.16200271779812" lon="5.33190590795984"><ele>51.66666666666667</ele><time>2026-04-06T11:41:23Z</time></trkpt><trkpt lat="51.16200936772585" lon="5.331635032518489"><ele>51.0</ele><time>2026-04-06T11:41:24Z</time></trkpt><trkpt lat="51.16201940210075" lon="5.331366145589854"><ele>51.0</ele><time>2026-04-06T11:41:25Z</time></trkpt><trkpt lat="51.16202989341588" lon="5.3310978463420335"><ele>51.0</ele><time>2026-04-06T11:41:26Z</time></trkpt><trkpt lat="51.16203853532271" lon="5.33082901791025"><ele>51.0</ele><time>2026-04-06T11:41:27Z</time></trkpt><trkpt lat="51.162043943121986" lon="5.330561378010713"><ele>51.33333333333333</ele><time>2026-04-06T11:41:28Z</time></trkpt><trkpt lat="51.16205073219725" lon="5.33029390260385"><ele>51.666666666666664</ele><time>2026-04-06T11:41:29Z</time></trkpt><trkpt lat="51.162059969150505" lon="5.330025699780987"><ele>52.0</ele><time>2026-04-06T11:41:30Z</time></trkpt><trkpt lat="51.162071426188035" lon="5.329759385271137"><ele>52.0</ele><time>2026-04-06T11:41:31Z</time></trkpt><trkpt lat="51.16208126013431" lon="5.329493819114033"><ele>52.0</ele><time>2026-04-06T11:41:32Z</time></trkpt><trkpt lat="51.16209133969331" lon="5.3292271672903695"><ele>52.0</ele><time>2026-04-06T11:41:33Z</time></trkpt><trkpt lat="51.16210130088031" lon="5.32896103401358"><ele>52.33333333333333</ele><time>2026-04-06T11:41:34Z</time></trkpt><trkpt lat="51.162112425837215" lon="5.3286946872687"><ele>52.66666666666667</ele><time>2026-04-06T11:41:35Z</time></trkpt><trkpt lat="51.162122409448" lon="5.328422495868214"><ele>53.0</ele><time>2026-04-06T11:41:36Z</time></trkpt><trkpt lat="51.16213204226751" lon="5.32813721961853"><ele>52.333333333333336</ele><time>2026-04-06T11:41:37Z</time></trkpt><trkpt lat="51.162137470531704" lon="5.327851218512054"><ele>51.66666666666667</ele><time>2026-04-06T11:41:38Z</time></trkpt><trkpt lat="51.162147724431335" lon="5.327562127262083"><ele>51.0</ele><time>2026-04-06T11:41:39Z</time></trkpt><trkpt lat="51.162161378024564" lon="5.327269757300311"><ele>51.33333333333333</ele><time>2026-04-06T11:41:40Z</time></trkpt><trkpt lat="51.16217382101591" lon="5.326974470039985"><ele>51.666666666666664</ele><time>2026-04-06T11:41:41Z</time></trkpt><trkpt lat="51.162190037714026" lon="5.326677264244683"><ele>52.0</ele><time>2026-04-06T11:41:42Z</time></trkpt><trkpt lat="51.16221798562968" lon="5.326378769150458"><ele>52.33333333333333</ele><time>2026-04-06T11:41:43Z</time></trkpt><trkpt lat="51.16225263124621" lon="5.326080082766315"><ele>52.66666666666667</ele><time>2026-04-06T11:41:44Z</time></trkpt><trkpt lat="51.1622877703107" lon="5.325782530374539"><ele>53.0</ele><time>2026-04-06T11:41:45Z</time></trkpt><trkpt lat="51.16232781251115" lon="5.325486356751036"><ele>53.0</ele><time>2026-04-06T11:41:46Z</time></trkpt><trkpt lat="51.16237128390041" lon="5.3251909661827295"><ele>53.0</ele><time>2026-04-06T11:41:47Z</time></trkpt><trkpt lat="51.16241196504575" lon="5.324895391895073"><ele>53.0</ele><time>2026-04-06T11:41:48Z</time></trkpt><trkpt lat="51.16245011022892" lon="5.324603396530595"><ele>52.66666666666667</ele><time>2026-04-06T11:41:49Z</time></trkpt><trkpt lat="51.16248326034623" lon="5.324310895323117"><ele>52.33333333333333</ele><time>2026-04-06T11:41:50Z</time></trkpt><trkpt lat="51.16250557147893" lon="5.32401787551795"><ele>52.0</ele><time>2026-04-06T11:41:51Z</time></trkpt><trkpt lat="51.162523859232365" lon="5.3237251223636655"><ele>51.666666666666664</ele><time>2026-04-06T11:41:52Z</time></trkpt><trkpt lat="51.162547848720884" lon="5.3234341781423495"><ele>51.33333333333333</ele><time>2026-04-06T11:41:53Z</time></trkpt><trkpt lat="51.16253476896101" lon="5.323139044636711"><ele>51.0</ele><time>2026-04-06T11:41:54Z</time></trkpt><trkpt lat="51.16253513553337" lon="5.3228469355692365"><ele>50.66666666666667</ele><time>2026-04-06T11:41:55Z</time></trkpt><trkpt lat="51.16253375689888" lon="5.322554475586385"><ele>50.333333333333336</ele><time>2026-04-06T11:41:56Z</time></trkpt><trkpt lat="51.16253037064893" lon="5.322259889924021"><ele>50.0</ele><time>2026-04-06T11:41:57Z</time></trkpt><trkpt lat="51.162525617552994" lon="5.321965819838878"><ele>50.66666666666667</ele><time>2026-04-06T11:41:58Z</time></trkpt><trkpt lat="51.162520878718155" lon="5.32167178555689"><ele>51.33333333333333</ele><time>2026-04-06T11:41:59Z</time></trkpt><trkpt lat="51.1625146328913" lon="5.321378000745198"><ele>52.0</ele><time>2026-04-06T11:42:00Z</time></trkpt><trkpt lat="51.16251051417666" lon="5.321084210216485"><ele>53.0</ele><time>2026-04-06T11:42:01Z</time></trkpt><trkpt lat="51.162504844569106" lon="5.320789908426547"><ele>54.0</ele><time>2026-04-06T11:42:02Z</time></trkpt><trkpt lat="51.16249932655699" lon="5.320496004337223"><ele>55.0</ele><time>2026-04-06T11:42:03Z</time></trkpt><trkpt lat="51.16249796541591" lon="5.320201301359235"><ele>55.666666666666664</ele><time>2026-04-06T11:42:04Z</time></trkpt><trkpt lat="51.16249312620986" lon="5.319909568764604"><ele>56.33333333333333</ele><time>2026-04-06T11:42:05Z</time></trkpt><trkpt lat="51.16248880394625" lon="5.3196151347589264"><ele>57.0</ele><time>2026-04-06T11:42:06Z</time></trkpt><trkpt lat="51.16250222886027" lon="5.319312761510212"><ele>57.33333333333333</ele><time>2026-04-06T11:42:07Z</time></trkpt><trkpt lat="51.1624833384317" lon="5.319011084735986"><ele>57.666666666666664</ele><time>2026-04-06T11:42:08Z</time></trkpt><trkpt lat="51.16248395604388" lon="5.318716070169669"><ele>58.0</ele><time>2026-04-06T11:42:09Z</time></trkpt><trkpt lat="51.1624774050355" lon="5.31842295733942"><ele>58.0</ele><time>2026-04-06T11:42:10Z</time></trkpt><trkpt lat="51.16246544245818" lon="5.318131524371713"><ele>58.0</ele><time>2026-04-06T11:42:11Z</time></trkpt><trkpt lat="51.1624484350751" lon="5.317844384044186"><ele>58.0</ele><time>2026-04-06T11:42:12Z</time></trkpt><trkpt lat="51.162420089366144" lon="5.31755558456959"><ele>57.666666666666664</ele><time>2026-04-06T11:42:13Z</time></trkpt><trkpt lat="51.16238676532933" lon="5.317268330073551"><ele>57.33333333333333</ele><time>2026-04-06T11:42:14Z</time></trkpt><trkpt lat="51.162343419043424" lon="5.316980757488771"><ele>57.0</ele><time>2026-04-06T11:42:15Z</time></trkpt><trkpt lat="51.16229465640491" lon="5.316693083466682"><ele>57.0</ele><time>2026-04-06T11:42:16Z</time></trkpt><trkpt lat="51.16224176067517" lon="5.316405806269505"><ele>57.0</ele><time>2026-04-06T11:42:17Z</time></trkpt><trkpt lat="51.16217926813058" lon="5.31612186542418"><ele>57.0</ele><time>2026-04-06T11:42:18Z</time></trkpt><trkpt lat="51.16210493385367" lon="5.315848436739919"><ele>56.66666666666667</ele><time>2026-04-06T11:42:19Z</time></trkpt><trkpt lat="51.16202376265872" lon="5.315575716006458"><ele>56.333333333333336</ele><time>2026-04-06T11:42:20Z</time></trkpt><trkpt lat="51.16194374407842" lon="5.3153098012593345"><ele>56.0</ele><time>2026-04-06T11:42:21Z</time></trkpt><trkpt lat="51.161871093035835" lon="5.315057996334654"><ele>56.0</ele><time>2026-04-06T11:42:22Z</time></trkpt><trkpt lat="51.161805368286295" lon="5.314820874798791"><ele>56.0</ele><time>2026-04-06T11:42:23Z</time></trkpt><trkpt lat="51.16173858415935" lon="5.3145867394736515"><ele>56.0</ele><time>2026-04-06T11:42:24Z</time></trkpt><trkpt lat="51.16167492154133" lon="5.314350873371306"><ele>56.0</ele><time>2026-04-06T11:42:25Z</time></trkpt><trkpt lat="51.161618288307125" lon="5.314112549891331"><ele>56.0</ele><time>2026-04-06T11:42:26Z</time></trkpt><trkpt lat="51.16155897670798" lon="5.3138797218081635"><ele>56.0</ele><time>2026-04-06T11:42:27Z</time></trkpt><trkpt lat="51.16149571393335" lon="5.313651732864942"><ele>55.66666666666667</ele><time>2026-04-06T11:42:28Z</time></trkpt><trkpt lat="51.16143090944475" lon="5.313425504328202"><ele>55.33333333333333</ele><time>2026-04-06T11:42:29Z</time></trkpt><trkpt lat="51.161361016906376" lon="5.313210348878104"><ele>55.0</ele><time>2026-04-06T11:42:30Z</time></trkpt><trkpt lat="51.161290894576425" lon="5.312985211878234"><ele>56.0</ele><time>2026-04-06T11:42:31Z</time></trkpt><trkpt lat="51.1612235100851" lon="5.312752498599345"><ele>57.0</ele><time>2026-04-06T11:42:32Z</time></trkpt><trkpt lat="51.1611527415667" lon="5.31251518415483"><ele>58.0</ele><time>2026-04-06T11:42:33Z</time></trkpt><trkpt lat="51.161082084417366" lon="5.312270946292389"><ele>58.33333333333333</ele><time>2026-04-06T11:42:34Z</time></trkpt><trkpt lat="51.161011740760955" lon="5.312024850526169"><ele>58.66666666666667</ele><time>2026-04-06T11:42:35Z</time></trkpt><trkpt lat="51.16094455928387" lon="5.3117782234835555"><ele>59.0</ele><time>2026-04-06T11:42:36Z</time></trkpt><trkpt lat="51.16087630174018" lon="5.311533623859859"><ele>59.0</ele><time>2026-04-06T11:42:37Z</time></trkpt><trkpt lat="51.16080557943789" lon="5.311288421821197"><ele>59.0</ele><time>2026-04-06T11:42:38Z</time></trkpt><trkpt lat="51.16073386381326" lon="5.311037986710341"><ele>59.0</ele><time>2026-04-06T11:42:39Z</time></trkpt><trkpt lat="51.16065983366245" lon="5.3107805849070715"><ele>59.333333333333336</ele><time>2026-04-06T11:42:40Z</time></trkpt><trkpt lat="51.16058254556672" lon="5.3105123154988645"><ele>59.66666666666667</ele><time>2026-04-06T11:42:41Z</time></trkpt><trkpt lat="51.160503885313126" lon="5.310235180888961"><ele>60.0</ele><time>2026-04-06T11:42:42Z</time></trkpt><trkpt lat="51.16043943048673" lon="5.309948985443753"><ele>59.0</ele><time>2026-04-06T11:42:43Z</time></trkpt><trkpt lat="51.16036165194553" lon="5.3096748130633085"><ele>58.0</ele><time>2026-04-06T11:42:44Z</time></trkpt><trkpt lat="51.16028425298113" lon="5.309402884277056"><ele>57.0</ele><time>2026-04-06T11:42:45Z</time></trkpt><trkpt lat="51.160208004257946" lon="5.309133639760874"><ele>57.0</ele><time>2026-04-06T11:42:46Z</time></trkpt><trkpt lat="51.160131933563015" lon="5.3088657891400235"><ele>57.0</ele><time>2026-04-06T11:42:47Z</time></trkpt><trkpt lat="51.16005652234909" lon="5.30860099340606"><ele>57.0</ele><time>2026-04-06T11:42:48Z</time></trkpt><trkpt lat="51.159981361774825" lon="5.308336488942899"><ele>57.33333333333333</ele><time>2026-04-06T11:42:49Z</time></trkpt><trkpt lat="51.159906972845896" lon="5.308075702857932"><ele>57.666666666666664</ele><time>2026-04-06T11:42:50Z</time></trkpt><trkpt lat="51.15983381207697" lon="5.307818759999163"><ele>58.0</ele><time>2026-04-06T11:42:51Z</time></trkpt><trkpt lat="51.15976058831733" lon="5.307561424849706"><ele>57.0</ele><time>2026-04-06T11:42:52Z</time></trkpt><trkpt lat="51.15967567276704" lon="5.307319163831166"><ele>56.0</ele><time>2026-04-06T11:42:53Z</time></trkpt><trkpt lat="51.159619093469054" lon="5.3070628918705065"><ele>55.0</ele><time>2026-04-06T11:42:54Z</time></trkpt><trkpt lat="51.159556903468555" lon="5.30681876468357"><ele>55.0</ele><time>2026-04-06T11:42:55Z</time></trkpt><trkpt lat="51.15948412409142" lon="5.30658737353273"><ele>55.0</ele><time>2026-04-06T11:42:56Z</time></trkpt><trkpt lat="51.15940228329388" lon="5.306365598628489"><ele>55.0</ele><time>2026-04-06T11:42:57Z</time></trkpt><trkpt lat="51.15934445658061" lon="5.306111098547213"><ele>55.666666666666664</ele><time>2026-04-06T11:42:58Z</time></trkpt><trkpt lat="51.1592717345317" lon="5.305855273682008"><ele>56.33333333333333</ele><time>2026-04-06T11:42:59Z</time></trkpt><trkpt lat="51.15919745975333" lon="5.305593996597157"><ele>57.0</ele><time>2026-04-06T11:43:00Z</time></trkpt><trkpt lat="51.159125281425055" lon="5.305331791521413"><ele>57.33333333333333</ele><time>2026-04-06T11:43:01Z</time></trkpt><trkpt lat="51.159041934009686" lon="5.30507518846665"><ele>57.666666666666664</ele><time>2026-04-06T11:43:02Z</time></trkpt><trkpt lat="51.15898079311883" lon="5.304804148372341"><ele>58.0</ele><time>2026-04-06T11:43:03Z</time></trkpt><trkpt lat="51.158924312029995" lon="5.304530526660729"><ele>55.33333333333333</ele><time>2026-04-06T11:43:04Z</time></trkpt><trkpt lat="51.158871395018195" lon="5.3042542541530695"><ele>52.66666666666667</ele><time>2026-04-06T11:43:05Z</time></trkpt><trkpt lat="51.15882634740155" lon="5.303976106966888"><ele>50.0</ele><time>2026-04-06T11:43:06Z</time></trkpt><trkpt lat="51.158789935039884" lon="5.303699947460951"><ele>49.66666666666667</ele><time>2026-04-06T11:43:07Z</time></trkpt><trkpt lat="51.158762575944884" lon="5.30342587241818"><ele>49.33333333333333</ele><time>2026-04-06T11:43:08Z</time></trkpt><trkpt lat="51.15873918588246" lon="5.303152696384211"><ele>49.0</ele><time>2026-04-06T11:43:09Z</time></trkpt><trkpt lat="51.158718214811884" lon="5.302883195736454"><ele>50.666666666666664</ele><time>2026-04-06T11:43:10Z</time></trkpt><trkpt lat="51.15870018317571" lon="5.302615312917639"><ele>52.33333333333333</ele><time>2026-04-06T11:43:11Z</time></trkpt><trkpt lat="51.15868325780065" lon="5.302348428924256"><ele>54.0</ele><time>2026-04-06T11:43:12Z</time></trkpt><trkpt lat="51.158663893588425" lon="5.302082385871374"><ele>54.0</ele><time>2026-04-06T11:43:13Z</time></trkpt><trkpt lat="51.15864238798023" lon="5.3018172814978"><ele>54.0</ele><time>2026-04-06T11:43:14Z</time></trkpt><trkpt lat="51.15862631085811" lon="5.301552180620511"><ele>54.0</ele><time>2026-04-06T11:43:15Z</time></trkpt><trkpt lat="51.15860823327263" lon="5.301280402254079"><ele>53.66666666666667</ele><time>2026-04-06T11:43:16Z</time></trkpt><trkpt lat="51.15859258651292" lon="5.301006127413468"><ele>53.333333333333336</ele><time>2026-04-06T11:43:17Z</time></trkpt><trkpt lat="51.158586692922725" lon="5.300722703480655"><ele>53.0</ele><time>2026-04-06T11:43:18Z</time></trkpt><trkpt lat="51.158601549700506" lon="5.300428811636269"><ele>53.0</ele><time>2026-04-06T11:43:19Z</time></trkpt><trkpt lat="51.15862469069924" lon="5.300129101668491"><ele>53.0</ele><time>2026-04-06T11:43:20Z</time></trkpt><trkpt lat="51.15866272169439" lon="5.29983189804828"><ele>53.0</ele><time>2026-04-06T11:43:21Z</time></trkpt><trkpt lat="51.1587105919312" lon="5.299531357108951"><ele>52.333333333333336</ele><time>2026-04-06T11:43:22Z</time></trkpt><trkpt lat="51.158769685176914" lon="5.299247466784024"><ele>51.66666666666667</ele><time>2026-04-06T11:43:23Z</time></trkpt><trkpt lat="51.1588432007666" lon="5.2989999295220445"><ele>51.0</ele><time>2026-04-06T11:43:24Z</time></trkpt><trkpt lat="51.15892517012803" lon="5.298772777900796"><ele>50.66666666666667</ele><time>2026-04-06T11:43:25Z</time></trkpt><trkpt lat="51.15900974646761" lon="5.298553029169794"><ele>50.333333333333336</ele><time>2026-04-06T11:43:26Z</time></trkpt><trkpt lat="51.159099721980105" lon="5.298345365350386"><ele>50.0</ele><time>2026-04-06T11:43:27Z</time></trkpt><trkpt lat="51.15919539085453" lon="5.298147982517378"><ele>49.66666666666667</ele><time>2026-04-06T11:43:28Z</time></trkpt><trkpt lat="51.159294662773064" lon="5.29795378570474"><ele>49.33333333333333</ele><time>2026-04-06T11:43:29Z</time></trkpt><trkpt lat="51.159395754803576" lon="5.297756021053843"><ele>49.0</ele><time>2026-04-06T11:43:30Z</time></trkpt><trkpt lat="51.15950000484413" lon="5.2975562366094655"><ele>49.0</ele><time>2026-04-06T11:43:31Z</time></trkpt><trkpt lat="51.15960382667893" lon="5.297355185753779"><ele>49.0</ele><time>2026-04-06T11:43:32Z</time></trkpt><trkpt lat="51.159707668072016" lon="5.297156170157846"><ele>49.0</ele><time>2026-04-06T11:43:33Z</time></trkpt><trkpt lat="51.15981132912366" lon="5.29695743142016"><ele>49.33333333333333</ele><time>2026-04-06T11:43:34Z</time></trkpt><trkpt lat="51.15991342362715" lon="5.296761612342059"><ele>49.66666666666667</ele><time>2026-04-06T11:43:35Z</time></trkpt><trkpt lat="51.16001739947971" lon="5.296566208725456"><ele>50.0</ele><time>2026-04-06T11:43:36Z</time></trkpt><trkpt lat="51.160120984006944" lon="5.296371307865864"><ele>50.333333333333336</ele><time>2026-04-06T11:43:37Z</time></trkpt><trkpt lat="51.16022431602897" lon="5.296174826352303"><ele>50.66666666666667</ele><time>2026-04-06T11:43:38Z</time></trkpt><trkpt lat="51.160329014087736" lon="5.295977830308583"><ele>51.0</ele><time>2026-04-06T11:43:39Z</time></trkpt><trkpt lat="51.16043686914508" lon="5.295767537439553"><ele>50.66666666666667</ele><time>2026-04-06T11:43:40Z</time></trkpt><trkpt lat="51.16055001208442" lon="5.295552577441267"><ele>50.333333333333336</ele><time>2026-04-06T11:43:41Z</time></trkpt><trkpt lat="51.16066125642672" lon="5.2953416714099815"><ele>50.0</ele><time>2026-04-06T11:43:42Z</time></trkpt><trkpt lat="51.16077060952372" lon="5.295135344637514"><ele>49.75</ele><time>2026-04-06T11:43:43Z</time></trkpt><trkpt lat="51.16086994547758" lon="5.294946393351032"><ele>49.5</ele><time>2026-04-06T11:43:44Z</time></trkpt><trkpt lat="51.160953090122376" lon="5.294781522559206"><ele>49.25</ele><time>2026-04-06T11:43:45Z</time></trkpt><trkpt lat="51.16102788620184" lon="5.294630832763204"><ele>49.0</ele><time>2026-04-06T11:43:46Z</time></trkpt><trkpt lat="51.16109257799127" lon="5.294493431698504"><ele>48.6</ele><time>2026-04-06T11:43:47Z</time></trkpt><trkpt lat="51.1611513018491" lon="5.2943586820211985"><ele>48.2</ele><time>2026-04-06T11:43:48Z</time></trkpt><trkpt lat="51.16120651141806" lon="5.294226480307261"><ele>47.800000000000004</ele><time>2026-04-06T11:43:49Z</time></trkpt><trkpt lat="51.16126020276946" lon="5.294100925130151"><ele>47.400000000000006</ele><time>2026-04-06T11:43:50Z</time></trkpt><trkpt lat="51.161326490332925" lon="5.293986120667033"><ele>47.0</ele><time>2026-04-06T11:43:51Z</time></trkpt><trkpt lat="51.16137530155998" lon="5.293838932990237"><ele>46.8</ele><time>2026-04-06T11:43:52Z</time></trkpt><trkpt lat="51.16143736259357" lon="5.293701278640415"><ele>46.6</ele><time>2026-04-06T11:43:53Z</time></trkpt><trkpt lat="51.16149849317533" lon="5.293561983900666"><ele>46.4</ele><time>2026-04-06T11:43:54Z</time></trkpt><trkpt lat="51.16154903760243" lon="5.29344708838064"><ele>46.199999999999996</ele><time>2026-04-06T11:43:55Z</time></trkpt><trkpt lat="51.16158926480012" lon="5.293351192310541"><ele>46.0</ele><time>2026-04-06T11:43:56Z</time></trkpt><trkpt lat="51.16165566174133" lon="5.293225546730516"><ele>45.75</ele><time>2026-04-06T11:43:58Z</time></trkpt><trkpt lat="51.16159128366154" lon="5.293030215156336"><ele>45.5</ele><time>2026-04-06T11:43:59Z</time></trkpt><trkpt lat="51.16161082134236" lon="5.292865870774685"><ele>45.25</ele><time>2026-04-06T11:44:00Z</time></trkpt><trkpt lat="51.16163743038542" lon="5.292676179192234"><ele>45.0</ele><time>2026-04-06T11:44:01Z</time></trkpt><trkpt lat="51.161667625950884" lon="5.292454413530512"><ele>45.25</ele><time>2026-04-06T11:44:02Z</time></trkpt><trkpt lat="51.16169824110875" lon="5.292221153805141"><ele>45.5</ele><time>2026-04-06T11:44:03Z</time></trkpt><trkpt lat="51.16172528681915" lon="5.292007530509321"><ele>45.75</ele><time>2026-04-06T11:44:04Z</time></trkpt><trkpt lat="51.161756423864716" lon="5.291788719226585"><ele>46.0</ele><time>2026-04-06T11:44:05Z</time></trkpt><trkpt lat="51.161787483608805" lon="5.291568972390531"><ele>46.0</ele><time>2026-04-06T11:44:06Z</time></trkpt><trkpt lat="51.16181808869908" lon="5.2913417001609355"><ele>46.0</ele><time>2026-04-06T11:44:07Z</time></trkpt><trkpt lat="51.16185262058442" lon="5.291104405660351"><ele>46.0</ele><time>2026-04-06T11:44:08Z</time></trkpt><trkpt lat="51.16188538462481" lon="5.290862945605504"><ele>46.0</ele><time>2026-04-06T11:44:09Z</time></trkpt><trkpt lat="51.161918896193775" lon="5.2906165731042005"><ele>46.0</ele><time>2026-04-06T11:44:10Z</time></trkpt><trkpt lat="51.16195042172578" lon="5.290364230741242"><ele>46.0</ele><time>2026-04-06T11:44:11Z</time></trkpt><trkpt lat="51.161981652801295" lon="5.290109584028975"><ele>45.66666666666667</ele><time>2026-04-06T11:44:12Z</time></trkpt><trkpt lat="51.162032225979154" lon="5.289860609945036"><ele>45.333333333333336</ele><time>2026-04-06T11:44:13Z</time></trkpt><trkpt lat="51.16205072256169" lon="5.289605023312969"><ele>45.0</ele><time>2026-04-06T11:44:14Z</time></trkpt><trkpt lat="51.162085509869726" lon="5.28936160126249"><ele>45.0</ele><time>2026-04-06T11:44:15Z</time></trkpt><trkpt lat="51.16212449080643" lon="5.289118346849291"><ele>45.0</ele><time>2026-04-06T11:44:16Z</time></trkpt><trkpt lat="51.16216264494002" lon="5.288866142350219"><ele>45.0</ele><time>2026-04-06T11:44:17Z</time></trkpt><trkpt lat="51.16219639221495" lon="5.288608059471451"><ele>45.0</ele><time>2026-04-06T11:44:18Z</time></trkpt><trkpt lat="51.162231549660355" lon="5.288358053748526"><ele>45.0</ele><time>2026-04-06T11:44:19Z</time></trkpt><trkpt lat="51.1622662293917" lon="5.288128184826751"><ele>45.0</ele><time>2026-04-06T11:44:20Z</time></trkpt><trkpt lat="51.16230610558218" lon="5.2878978424723755"><ele>44.75</ele><time>2026-04-06T11:44:21Z</time></trkpt><trkpt lat="51.162339539522684" lon="5.287688577183921"><ele>44.5</ele><time>2026-04-06T11:44:22Z</time></trkpt><trkpt lat="51.16238576664438" lon="5.287509571023538"><ele>44.25</ele><time>2026-04-06T11:44:23Z</time></trkpt><trkpt lat="51.16240196055942" lon="5.287337459066186"><ele>44.0</ele><time>2026-04-06T11:44:24Z</time></trkpt><trkpt lat="51.162395384952646" lon="5.287158190125435"><ele>44.0</ele><time>2026-04-06T11:44:25Z</time></trkpt><trkpt lat="51.16237408752354" lon="5.286966821463524"><ele>44.0</ele><time>2026-04-06T11:44:26Z</time></trkpt><trkpt lat="51.16234429243199" lon="5.286758521129911"><ele>44.0</ele><time>2026-04-06T11:44:27Z</time></trkpt><trkpt lat="51.162305294312134" lon="5.28653437966733"><ele>44.0</ele><time>2026-04-06T11:44:28Z</time></trkpt><trkpt lat="51.16226142468687" lon="5.286306142841753"><ele>43.5</ele><time>2026-04-06T11:44:29Z</time></trkpt><trkpt lat="51.16222271590363" lon="5.286094319849158"><ele>43.0</ele><time>2026-04-06T11:44:30Z</time></trkpt><trkpt lat="51.162181531325125" lon="5.285911291217195"><ele>42.5</ele><time>2026-04-06T11:44:31Z</time></trkpt><trkpt lat="51.162142961399184" lon="5.28574762188282"><ele>42.0</ele><time>2026-04-06T11:44:32Z</time></trkpt><trkpt lat="51.16210759735465" lon="5.285597556456885"><ele>42.0</ele><time>2026-04-06T11:44:33Z</time></trkpt><trkpt lat="51.16207492872377" lon="5.285458929104239"><ele>42.0</ele><time>2026-04-06T11:44:34Z</time></trkpt><trkpt lat="51.16204599971044" lon="5.285334532275904"><ele>42.0</ele><time>2026-04-06T11:44:35Z</time></trkpt><trkpt lat="51.162022367340484" lon="5.285232614771051"><ele>42.0</ele><time>2026-04-06T11:44:36Z</time></trkpt><trkpt lat="51.16198073451293" lon="5.285056176165103"><ele>42.0</ele><time>2026-04-06T11:44:38Z</time></trkpt><trkpt lat="51.16195801331215" lon="5.284959518393785"><ele>42.0</ele><time>2026-04-06T11:44:39Z</time></trkpt><trkpt lat="51.16192994567502" lon="5.284839150950061"><ele>42.25</ele><time>2026-04-06T11:44:40Z</time></trkpt><trkpt lat="51.16189580152799" lon="5.28469195262411"><ele>42.5</ele><time>2026-04-06T11:44:41Z</time></trkpt><trkpt lat="51.1618557278931" lon="5.284514790008707"><ele>42.75</ele><time>2026-04-06T11:44:42Z</time></trkpt><trkpt lat="51.161812863052894" lon="5.284312462088969"><ele>43.0</ele><time>2026-04-06T11:44:43Z</time></trkpt><trkpt lat="51.161767281246476" lon="5.284094273089598"><ele>43.333333333333336</ele><time>2026-04-06T11:44:44Z</time></trkpt><trkpt lat="51.16171959340037" lon="5.283866173904871"><ele>43.666666666666664</ele><time>2026-04-06T11:44:45Z</time></trkpt><trkpt lat="51.16167068332633" lon="5.283632376479285"><ele>44.0</ele><time>2026-04-06T11:44:46Z</time></trkpt><trkpt lat="51.161626728386615" lon="5.2833866857589555"><ele>44.0</ele><time>2026-04-06T11:44:47Z</time></trkpt><trkpt lat="51.161592021144195" lon="5.283126730206829"><ele>44.0</ele><time>2026-04-06T11:44:48Z</time></trkpt><trkpt lat="51.161556472445504" lon="5.282859452116775"><ele>44.0</ele><time>2026-04-06T11:44:49Z</time></trkpt><trkpt lat="51.16152000018628" lon="5.282585777701983"><ele>43.33333333333333</ele><time>2026-04-06T11:44:50Z</time></trkpt><trkpt lat="51.16148564849449" lon="5.282328418714298"><ele>42.666666666666664</ele><time>2026-04-06T11:44:51Z</time></trkpt><trkpt lat="51.16145619700469" lon="5.282094750413883"><ele>42.0</ele><time>2026-04-06T11:44:52Z</time></trkpt><trkpt lat="51.16142831394321" lon="5.281874561037044"><ele>42.0</ele><time>2026-04-06T11:44:53Z</time></trkpt><trkpt lat="51.16140248386368" lon="5.281673984935161"><ele>42.0</ele><time>2026-04-06T11:44:54Z</time></trkpt><trkpt lat="51.16137997170229" lon="5.281489010878275"><ele>42.0</ele><time>2026-04-06T11:44:55Z</time></trkpt><trkpt lat="51.161349239859916" lon="5.281321617049841"><ele>42.0</ele><time>2026-04-06T11:44:56Z</time></trkpt><trkpt lat="51.16136665839743" lon="5.281144138290523"><ele>42.0</ele><time>2026-04-06T11:44:57Z</time></trkpt><trkpt lat="51.16141977723956" lon="5.280972079351403"><ele>42.0</ele><time>2026-04-06T11:44:58Z</time></trkpt><trkpt lat="51.16149277168752" lon="5.280803089962058"><ele>42.0</ele><time>2026-04-06T11:44:59Z</time></trkpt><trkpt lat="51.161567446175525" lon="5.280624010369932"><ele>42.0</ele><time>2026-04-06T11:45:00Z</time></trkpt><trkpt lat="51.161637746546354" lon="5.280450158283522"><ele>42.0</ele><time>2026-04-06T11:45:01Z</time></trkpt><trkpt lat="51.161690567920154" lon="5.280284044377831"><ele>42.0</ele><time>2026-04-06T11:45:02Z</time></trkpt><trkpt lat="51.161736806384006" lon="5.280106874812377"><ele>42.0</ele><time>2026-04-06T11:45:03Z</time></trkpt><trkpt lat="51.16173455403409" lon="5.279874879624382"><ele>42.0</ele><time>2026-04-06T11:45:04Z</time></trkpt><trkpt lat="51.16173682888252" lon="5.279632498435796"><ele>42.25</ele><time>2026-04-06T11:45:05Z</time></trkpt><trkpt lat="51.1617379564723" lon="5.279388272292298"><ele>42.5</ele><time>2026-04-06T11:45:06Z</time></trkpt><trkpt lat="51.161739328882355" lon="5.279145693621148"><ele>42.75</ele><time>2026-04-06T11:45:07Z</time></trkpt><trkpt lat="51.16173762678078" lon="5.2789320486199305"><ele>43.0</ele><time>2026-04-06T11:45:08Z</time></trkpt><trkpt lat="51.16173395307845" lon="5.278731379851115"><ele>43.0</ele><time>2026-04-06T11:45:09Z</time></trkpt><trkpt lat="51.161729561651136" lon="5.278553192689853"><ele>43.0</ele><time>2026-04-06T11:45:10Z</time></trkpt><trkpt lat="51.161724706439905" lon="5.278408132140434"><ele>43.0</ele><time>2026-04-06T11:45:11Z</time></trkpt><trkpt lat="51.16172205046696" lon="5.2782871243159795"><ele>43.0</ele><time>2026-04-06T11:45:12Z</time></trkpt><trkpt lat="51.161712003488375" lon="5.278176571686055"><ele>43.0</ele><time>2026-04-06T11:45:13Z</time></trkpt><trkpt lat="51.16173542143341" lon="5.278059715534077"><ele>43.0</ele><time>2026-04-06T11:45:14Z</time></trkpt><trkpt lat="51.161681832286355" lon="5.277896084858557"><ele>42.5</ele><time>2026-04-06T11:45:15Z</time></trkpt><trkpt lat="51.161634431871946" lon="5.277738826750904"><ele>42.0</ele><time>2026-04-06T11:45:16Z</time></trkpt><trkpt lat="51.161581735775336" lon="5.27756286916864"><ele>41.5</ele><time>2026-04-06T11:45:17Z</time></trkpt><trkpt lat="51.16151866017686" lon="5.277356596276937"><ele>41.0</ele><time>2026-04-06T11:45:18Z</time></trkpt><trkpt lat="51.161458366743105" lon="5.277156610153714"><ele>41.0</ele><time>2026-04-06T11:45:19Z</time></trkpt><trkpt lat="51.16143048348275" lon="5.276944314373607"><ele>41.0</ele><time>2026-04-06T11:45:20Z</time></trkpt><trkpt lat="51.16140893453577" lon="5.276707301877802"><ele>41.0</ele><time>2026-04-06T11:45:21Z</time></trkpt><trkpt lat="51.16138595951429" lon="5.276457213022823"><ele>41.0</ele><time>2026-04-06T11:45:22Z</time></trkpt><trkpt lat="51.16136274905076" lon="5.2762045609805215"><ele>41.0</ele><time>2026-04-06T11:45:23Z</time></trkpt><trkpt lat="51.16134073708092" lon="5.275964954972272"><ele>41.0</ele><time>2026-04-06T11:45:24Z</time></trkpt><trkpt lat="51.161320505836876" lon="5.275744732320958"><ele>41.0</ele><time>2026-04-06T11:45:25Z</time></trkpt><trkpt lat="51.161302881500845" lon="5.275555605487843"><ele>41.0</ele><time>2026-04-06T11:45:26Z</time></trkpt><trkpt lat="51.16128731382126" lon="5.275388830446191"><ele>41.199999999999996</ele><time>2026-04-06T11:45:27Z</time></trkpt><trkpt lat="51.16127798387767" lon="5.2752483650896345"><ele>41.4</ele><time>2026-04-06T11:45:28Z</time></trkpt><trkpt lat="51.16127857631321" lon="5.275139719371586"><ele>41.6</ele><time>2026-04-06T11:45:29Z</time></trkpt><trkpt lat="51.16137730630864" lon="5.2750248049228885"><ele>41.8</ele><time>2026-04-06T11:45:31Z</time></trkpt><trkpt lat="51.161469229547066" lon="5.2750366462152485"><ele>42.0</ele><time>2026-04-06T11:45:32Z</time></trkpt><trkpt lat="51.16158668433579" lon="5.275045305638289"><ele>42.25</ele><time>2026-04-06T11:45:33Z</time></trkpt><trkpt lat="51.16172877862701" lon="5.275040722449399"><ele>42.5</ele><time>2026-04-06T11:45:34Z</time></trkpt><trkpt lat="51.16187715921173" lon="5.275038888539114"><ele>42.75</ele><time>2026-04-06T11:45:35Z</time></trkpt><trkpt lat="51.16200452659582" lon="5.275041551753214"><ele>43.0</ele><time>2026-04-06T11:45:36Z</time></trkpt><trkpt lat="51.16212105410547" lon="5.275042163488937"><ele>43.0</ele><time>2026-04-06T11:45:37Z</time></trkpt><trkpt lat="51.16223216570917" lon="5.275042243321086"><ele>43.0</ele><time>2026-04-06T11:45:38Z</time></trkpt><trkpt lat="51.16234220045342" lon="5.275036929334458"><ele>43.0</ele><time>2026-04-06T11:45:39Z</time></trkpt><trkpt lat="51.16244427204152" lon="5.274998191874314"><ele>43.0</ele><time>2026-04-06T11:45:40Z</time></trkpt><trkpt lat="51.162543622625265" lon="5.274950575207191"><ele>43.0</ele><time>2026-04-06T11:45:41Z</time></trkpt><trkpt lat="51.162630957360335" lon="5.274843254649924"><ele>42.25</ele><time>2026-04-06T11:45:42Z</time></trkpt><trkpt lat="51.16271010585854" lon="5.274691765291212"><ele>41.5</ele><time>2026-04-06T11:45:43Z</time></trkpt><trkpt lat="51.16276937627983" lon="5.2744951832595035"><ele>40.75</ele><time>2026-04-06T11:45:44Z</time></trkpt><trkpt lat="51.16282624180069" lon="5.274293072931574"><ele>40.0</ele><time>2026-04-06T11:45:45Z</time></trkpt><trkpt lat="51.162884326050175" lon="5.274086347836058"><ele>40.0</ele><time>2026-04-06T11:45:46Z</time></trkpt><trkpt lat="51.16294350186014" lon="5.273888535335322"><ele>40.0</ele><time>2026-04-06T11:45:47Z</time></trkpt><trkpt lat="51.163022229424" lon="5.273716182513927"><ele>40.0</ele><time>2026-04-06T11:45:48Z</time></trkpt><trkpt lat="51.163126483289446" lon="5.27358455902882"><ele>40.0</ele><time>2026-04-06T11:45:49Z</time></trkpt><trkpt lat="51.16323618937142" lon="5.273461932092226"><ele>40.5</ele><time>2026-04-06T11:45:50Z</time></trkpt><trkpt lat="51.16334696894138" lon="5.2733391640868605"><ele>41.0</ele><time>2026-04-06T11:45:51Z</time></trkpt><trkpt lat="51.16345058767099" lon="5.273198188035467"><ele>41.5</ele><time>2026-04-06T11:45:52Z</time></trkpt><trkpt lat="51.16356448466506" lon="5.273078766016791"><ele>42.0</ele><time>2026-04-06T11:45:53Z</time></trkpt><trkpt lat="51.163678442397476" lon="5.272955707886904"><ele>42.0</ele><time>2026-04-06T11:45:54Z</time></trkpt><trkpt lat="51.163795280397714" lon="5.272826206211512"><ele>42.0</ele><time>2026-04-06T11:45:55Z</time></trkpt><trkpt lat="51.16391607903255" lon="5.272691055405576"><ele>42.0</ele><time>2026-04-06T11:45:56Z</time></trkpt><trkpt lat="51.16404026684901" lon="5.272554693931247"><ele>42.0</ele><time>2026-04-06T11:45:57Z</time></trkpt><trkpt lat="51.16416614791176" lon="5.272417015449574"><ele>42.333333333333336</ele><time>2026-04-06T11:45:58Z</time></trkpt><trkpt lat="51.16429240368918" lon="5.272274352421066"><ele>42.66666666666667</ele><time>2026-04-06T11:45:59Z</time></trkpt><trkpt lat="51.164429692365786" lon="5.272155489925034"><ele>43.0</ele><time>2026-04-06T11:46:00Z</time></trkpt><trkpt lat="51.16454590485491" lon="5.272028544393855"><ele>43.0</ele><time>2026-04-06T11:46:01Z</time></trkpt><trkpt lat="51.16465196668943" lon="5.271912687044822"><ele>43.0</ele><time>2026-04-06T11:46:02Z</time></trkpt><trkpt lat="51.16475164144843" lon="5.2718038065619925"><ele>43.0</ele><time>2026-04-06T11:46:03Z</time></trkpt><trkpt lat="51.16484176790128" lon="5.27170535660204"><ele>43.0</ele><time>2026-04-06T11:46:04Z</time></trkpt><trkpt lat="51.16490955954033" lon="5.271631303926115"><ele>43.0</ele><time>2026-04-06T11:46:05Z</time></trkpt><trkpt lat="51.16498246601272" lon="5.271520894716406"><ele>43.0</ele><time>2026-04-06T11:46:07Z</time></trkpt><trkpt lat="51.16504330964791" lon="5.271485166258252"><ele>43.0</ele><time>2026-04-06T11:46:30Z</time></trkpt><trkpt lat="51.16500956147276" lon="5.27124497928666"><ele>43.0</ele><time>2026-04-06T11:46:32Z</time></trkpt><trkpt lat="51.16494801065398" lon="5.271112803246372"><ele>43.0</ele><time>2026-04-06T11:46:33Z</time></trkpt><trkpt lat="51.16485664382205" lon="5.270974210576097"><ele>43.0</ele><time>2026-04-06T11:46:34Z</time></trkpt><trkpt lat="51.16475861258118" lon="5.270798017840658"><ele>43.0</ele><time>2026-04-06T11:46:35Z</time></trkpt><trkpt lat="51.164663924872144" lon="5.2706189026855865"><ele>43.0</ele><time>2026-04-06T11:46:36Z</time></trkpt><trkpt lat="51.16456123426196" lon="5.270432903350969"><ele>43.0</ele><time>2026-04-06T11:46:37Z</time></trkpt><trkpt lat="51.16445511101449" lon="5.27026284791457"><ele>43.0</ele><time>2026-04-06T11:46:38Z</time></trkpt><trkpt lat="51.16434031918275" lon="5.270099704096319"><ele>43.0</ele><time>2026-04-06T11:46:39Z</time></trkpt><trkpt lat="51.164224914628065" lon="5.2699508493935365"><ele>43.0</ele><time>2026-04-06T11:46:40Z</time></trkpt><trkpt lat="51.16411843715825" lon="5.269822237705318"><ele>43.0</ele><time>2026-04-06T11:46:41Z</time></trkpt><trkpt lat="51.16402559098541" lon="5.269676157660135"><ele>43.0</ele><time>2026-04-06T11:46:42Z</time></trkpt><trkpt lat="51.163919721149995" lon="5.269551987922674"><ele>43.0</ele><time>2026-04-06T11:46:43Z</time></trkpt><trkpt lat="51.16381364720579" lon="5.2694256406433775"><ele>43.0</ele><time>2026-04-06T11:46:44Z</time></trkpt><trkpt lat="51.163710058492185" lon="5.269301819558143"><ele>43.0</ele><time>2026-04-06T11:46:45Z</time></trkpt><trkpt lat="51.16360836041637" lon="5.269180190467947"><ele>43.0</ele><time>2026-04-06T11:46:46Z</time></trkpt><trkpt lat="51.163507257707764" lon="5.269059557494984"><ele>43.0</ele><time>2026-04-06T11:46:47Z</time></trkpt><trkpt lat="51.163408160422414" lon="5.268941692337185"><ele>43.0</ele><time>2026-04-06T11:46:48Z</time></trkpt><trkpt lat="51.16331097531022" lon="5.268826101524891"><ele>43.0</ele><time>2026-04-06T11:46:49Z</time></trkpt><trkpt lat="51.163218758591945" lon="5.268707758216496"><ele>42.75</ele><time>2026-04-06T11:46:50Z</time></trkpt><trkpt lat="51.16312982480722" lon="5.268584037710544"><ele>42.5</ele><time>2026-04-06T11:46:51Z</time></trkpt><trkpt lat="51.1630471724636" lon="5.2684529680031025"><ele>42.25</ele><time>2026-04-06T11:46:52Z</time></trkpt><trkpt lat="51.16296814922939" lon="5.268318892614735"><ele>42.0</ele><time>2026-04-06T11:46:53Z</time></trkpt><trkpt lat="51.162892287983865" lon="5.268175012159916"><ele>42.0</ele><time>2026-04-06T11:46:54Z</time></trkpt><trkpt lat="51.16281768777509" lon="5.268033523572173"><ele>42.0</ele><time>2026-04-06T11:46:55Z</time></trkpt><trkpt lat="51.16271806335737" lon="5.267929069933291"><ele>42.0</ele><time>2026-04-06T11:46:56Z</time></trkpt><trkpt lat="51.16265155926668" lon="5.267784568534357"><ele>42.0</ele><time>2026-04-06T11:46:57Z</time></trkpt><trkpt lat="51.16258588824652" lon="5.267641990899378"><ele>42.0</ele><time>2026-04-06T11:46:58Z</time></trkpt><trkpt lat="51.162523192152484" lon="5.267505572565003"><ele>42.0</ele><time>2026-04-06T11:46:59Z</time></trkpt><trkpt lat="51.16249115842275" lon="5.267344757535771"><ele>42.0</ele><time>2026-04-06T11:47:00Z</time></trkpt><trkpt lat="51.16243062993947" lon="5.267218102826949"><ele>42.0</ele><time>2026-04-06T11:47:01Z</time></trkpt><trkpt lat="51.162370033632875" lon="5.267091311362563"><ele>42.0</ele><time>2026-04-06T11:47:02Z</time></trkpt><trkpt lat="51.162310044047544" lon="5.266962878176754"><ele>42.2</ele><time>2026-04-06T11:47:03Z</time></trkpt><trkpt lat="51.16225323549188" lon="5.266827495508813"><ele>42.400000000000006</ele><time>2026-04-06T11:47:04Z</time></trkpt><trkpt lat="51.162191617932656" lon="5.266687831453836"><ele>42.599999999999994</ele><time>2026-04-06T11:47:05Z</time></trkpt><trkpt lat="51.16212786648581" lon="5.266552141300803"><ele>42.8</ele><time>2026-04-06T11:47:06Z</time></trkpt><trkpt lat="51.162065538754206" lon="5.266419481286631"><ele>43.0</ele><time>2026-04-06T11:47:07Z</time></trkpt><trkpt lat="51.162003737431704" lon="5.266287941779809"><ele>43.0</ele><time>2026-04-06T11:47:08Z</time></trkpt><trkpt lat="51.161943086921596" lon="5.266158851704009"><ele>43.0</ele><time>2026-04-06T11:47:09Z</time></trkpt><trkpt lat="51.161882467290724" lon="5.266029827425515"><ele>43.0</ele><time>2026-04-06T11:47:10Z</time></trkpt><trkpt lat="51.1618221988872" lon="5.265901550644821"><ele>43.0</ele><time>2026-04-06T11:47:11Z</time></trkpt><trkpt lat="51.16175909619333" lon="5.265773445022983"><ele>43.0</ele><time>2026-04-06T11:47:12Z</time></trkpt><trkpt lat="51.161694679280856" lon="5.26564841087138"><ele>43.0</ele><time>2026-04-06T11:47:13Z</time></trkpt><trkpt lat="51.1616288670124" lon="5.265521000160786"><ele>43.0</ele><time>2026-04-06T11:47:14Z</time></trkpt><trkpt lat="51.16156718899436" lon="5.265390085199583"><ele>43.0</ele><time>2026-04-06T11:47:15Z</time></trkpt><trkpt lat="51.16150486253185" lon="5.265254167375106"><ele>43.0</ele><time>2026-04-06T11:47:16Z</time></trkpt><trkpt lat="51.161442313037" lon="5.265117832344696"><ele>43.0</ele><time>2026-04-06T11:47:17Z</time></trkpt><trkpt lat="51.1613794514792" lon="5.264980207613934"><ele>43.0</ele><time>2026-04-06T11:47:18Z</time></trkpt><trkpt lat="51.161315996823596" lon="5.264840642616975"><ele>43.0</ele><time>2026-04-06T11:47:19Z</time></trkpt><trkpt lat="51.1612522768783" lon="5.264701074372371"><ele>43.0</ele><time>2026-04-06T11:47:20Z</time></trkpt><trkpt lat="51.16118755637738" lon="5.264560022935556"><ele>43.0</ele><time>2026-04-06T11:47:21Z</time></trkpt><trkpt lat="51.1611223376994" lon="5.264417885690382"><ele>43.0</ele><time>2026-04-06T11:47:22Z</time></trkpt><trkpt lat="51.161056457244875" lon="5.2642743118011355"><ele>42.5</ele><time>2026-04-06T11:47:23Z</time></trkpt><trkpt lat="51.16098548515728" lon="5.264125132151308"><ele>42.0</ele><time>2026-04-06T11:47:24Z</time></trkpt><trkpt lat="51.1609124643424" lon="5.263969831208236"><ele>41.5</ele><time>2026-04-06T11:47:25Z</time></trkpt><trkpt lat="51.16083754355446" lon="5.263809869342225"><ele>41.0</ele><time>2026-04-06T11:47:26Z</time></trkpt><trkpt lat="51.16076029162415" lon="5.263644930412306"><ele>40.75</ele><time>2026-04-06T11:47:27Z</time></trkpt><trkpt lat="51.16068073638607" lon="5.26347507369277"><ele>40.5</ele><time>2026-04-06T11:47:28Z</time></trkpt><trkpt lat="51.16059887155508" lon="5.263300643116502"><ele>40.25</ele><time>2026-04-06T11:47:29Z</time></trkpt><trkpt lat="51.160515511052104" lon="5.263123646403695"><ele>40.0</ele><time>2026-04-06T11:47:30Z</time></trkpt><trkpt lat="51.16043150154823" lon="5.262945309592266"><ele>39.75</ele><time>2026-04-06T11:47:31Z</time></trkpt><trkpt lat="51.16034724085603" lon="5.262767961906834"><ele>39.5</ele><time>2026-04-06T11:47:32Z</time></trkpt><trkpt lat="51.160263810919176" lon="5.262592362965829"><ele>39.25</ele><time>2026-04-06T11:47:33Z</time></trkpt><trkpt lat="51.160179725574196" lon="5.262415295645123"><ele>39.0</ele><time>2026-04-06T11:47:34Z</time></trkpt><trkpt lat="51.16008936351747" lon="5.262241983549672"><ele>39.0</ele><time>2026-04-06T11:47:35Z</time></trkpt><trkpt lat="51.15998724984232" lon="5.2620865364646905"><ele>39.0</ele><time>2026-04-06T11:47:36Z</time></trkpt><trkpt lat="51.15988053143817" lon="5.261941488754519"><ele>39.0</ele><time>2026-04-06T11:47:37Z</time></trkpt><trkpt lat="51.15976690380433" lon="5.261806818568497"><ele>39.0</ele><time>2026-04-06T11:47:38Z</time></trkpt><trkpt lat="51.15964546926588" lon="5.2616881150605685"><ele>39.0</ele><time>2026-04-06T11:47:39Z</time></trkpt><trkpt lat="51.15951934283269" lon="5.261582749652461"><ele>39.0</ele><time>2026-04-06T11:47:40Z</time></trkpt><trkpt lat="51.159385651269005" lon="5.261500604547586"><ele>39.0</ele><time>2026-04-06T11:47:41Z</time></trkpt><trkpt lat="51.159249339130454" lon="5.261432025916461"><ele>39.0</ele><time>2026-04-06T11:47:42Z</time></trkpt><trkpt lat="51.159108468787444" lon="5.261400019841823"><ele>39.5</ele><time>2026-04-06T11:47:43Z</time></trkpt><trkpt lat="51.158977712049705" lon="5.261361319108733"><ele>40.0</ele><time>2026-04-06T11:47:44Z</time></trkpt><trkpt lat="51.15884856993675" lon="5.261342202291732"><ele>40.5</ele><time>2026-04-06T11:47:45Z</time></trkpt><trkpt lat="51.158728137375114" lon="5.261333318720638"><ele>41.0</ele><time>2026-04-06T11:47:46Z</time></trkpt><trkpt lat="51.15862006423386" lon="5.261334227186004"><ele>41.0</ele><time>2026-04-06T11:47:47Z</time></trkpt><trkpt lat="51.1585333674236" lon="5.261338144396142"><ele>41.0</ele><time>2026-04-06T11:47:48Z</time></trkpt><trkpt lat="51.15846604232533" lon="5.261312868055206"><ele>41.0</ele><time>2026-04-06T11:47:49Z</time></trkpt><trkpt lat="51.15835204242492" lon="5.26131981170265"><ele>41.0</ele><time>2026-04-06T11:47:51Z</time></trkpt><trkpt lat="51.158269763145654" lon="5.261323440163472"><ele>41.0</ele><time>2026-04-06T11:47:52Z</time></trkpt><trkpt lat="51.15816924493224" lon="5.261352584146093"><ele>41.0</ele><time>2026-04-06T11:47:53Z</time></trkpt><trkpt lat="51.158049356583696" lon="5.261357057177613"><ele>41.0</ele><time>2026-04-06T11:47:54Z</time></trkpt><trkpt lat="51.15792230300883" lon="5.261363938765257"><ele>41.0</ele><time>2026-04-06T11:47:55Z</time></trkpt><trkpt lat="51.157790876194134" lon="5.261371591799481"><ele>41.0</ele><time>2026-04-06T11:47:56Z</time></trkpt><trkpt lat="51.1576492476782" lon="5.261351411403686"><ele>41.0</ele><time>2026-04-06T11:47:57Z</time></trkpt><trkpt lat="51.157498807784044" lon="5.261358023812275"><ele>41.0</ele><time>2026-04-06T11:47:58Z</time></trkpt><trkpt lat="51.1573418051777" lon="5.261365861841001"><ele>41.0</ele><time>2026-04-06T11:47:59Z</time></trkpt><trkpt lat="51.15717937346344" lon="5.261373151080416"><ele>41.0</ele><time>2026-04-06T11:48:00Z</time></trkpt><trkpt lat="51.157013946812405" lon="5.261380543240041"><ele>41.0</ele><time>2026-04-06T11:48:01Z</time></trkpt><trkpt lat="51.156849015248966" lon="5.261387828750831"><ele>41.0</ele><time>2026-04-06T11:48:02Z</time></trkpt><trkpt lat="51.15668839963468" lon="5.26139576187849"><ele>42.0</ele><time>2026-04-06T11:48:03Z</time></trkpt><trkpt lat="51.156529378587756" lon="5.261403574655378"><ele>43.0</ele><time>2026-04-06T11:48:04Z</time></trkpt><trkpt lat="51.156372507639105" lon="5.261410871891199"><ele>44.0</ele><time>2026-04-06T11:48:05Z</time></trkpt><trkpt lat="51.15621786596481" lon="5.26141799007694"><ele>44.0</ele><time>2026-04-06T11:48:06Z</time></trkpt><trkpt lat="51.15606365405729" lon="5.261425014584307"><ele>44.0</ele><time>2026-04-06T11:48:07Z</time></trkpt><trkpt lat="51.15590791115398" lon="5.26143196072872"><ele>44.0</ele><time>2026-04-06T11:48:08Z</time></trkpt><trkpt lat="51.15575011284394" lon="5.261438998546508"><ele>43.666666666666664</ele><time>2026-04-06T11:48:09Z</time></trkpt><trkpt lat="51.15559030696111" lon="5.261446125899263"><ele>43.333333333333336</ele><time>2026-04-06T11:48:10Z</time></trkpt><trkpt lat="51.15542940569126" lon="5.261454737811204"><ele>43.0</ele><time>2026-04-06T11:48:11Z</time></trkpt><trkpt lat="51.155267598639966" lon="5.261463590666282"><ele>43.0</ele><time>2026-04-06T11:48:12Z</time></trkpt><trkpt lat="51.155109027227326" lon="5.261472266490463"><ele>43.0</ele><time>2026-04-06T11:48:13Z</time></trkpt><trkpt lat="51.15496323423094" lon="5.261480243185857"><ele>43.0</ele><time>2026-04-06T11:48:14Z</time></trkpt><trkpt lat="51.154818686251176" lon="5.261488151748656"><ele>43.0</ele><time>2026-04-06T11:48:15Z</time></trkpt><trkpt lat="51.15467350554585" lon="5.261501218684236"><ele>43.25</ele><time>2026-04-06T11:48:16Z</time></trkpt><trkpt lat="51.15453278467111" lon="5.261538575781606"><ele>43.5</ele><time>2026-04-06T11:48:17Z</time></trkpt><trkpt lat="51.15440126543814" lon="5.2615547047593525"><ele>43.75</ele><time>2026-04-06T11:48:18Z</time></trkpt><trkpt lat="51.1542768671898" lon="5.261540526823277"><ele>44.0</ele><time>2026-04-06T11:48:19Z</time></trkpt><trkpt lat="51.15416741449801" lon="5.261551345230287"><ele>44.0</ele><time>2026-04-06T11:48:20Z</time></trkpt><trkpt lat="51.1540814695115" lon="5.261559756017146"><ele>44.0</ele><time>2026-04-06T11:48:21Z</time></trkpt><trkpt lat="51.15400932098283" lon="5.261573514530744"><ele>44.0</ele><time>2026-04-06T11:48:22Z</time></trkpt><trkpt lat="51.153968955031196" lon="5.261496234803996"><ele>44.0</ele><time>2026-04-06T11:48:23Z</time></trkpt><trkpt lat="51.153994633851916" lon="5.261272547212285"><ele>44.0</ele><time>2026-04-06T11:48:25Z</time></trkpt><trkpt lat="51.154002662887976" lon="5.261110045030025"><ele>43.75</ele><time>2026-04-06T11:48:26Z</time></trkpt><trkpt lat="51.154010560558376" lon="5.260923982249515"><ele>43.5</ele><time>2026-04-06T11:48:27Z</time></trkpt><trkpt lat="51.15401971567521" lon="5.260709250900873"><ele>43.25</ele><time>2026-04-06T11:48:28Z</time></trkpt><trkpt lat="51.15402929463205" lon="5.2604643210271895"><ele>43.0</ele><time>2026-04-06T11:48:29Z</time></trkpt><trkpt lat="51.15403449947237" lon="5.260229144529335"><ele>43.0</ele><time>2026-04-06T11:48:30Z</time></trkpt><trkpt lat="51.154040234390045" lon="5.2599628308902755"><ele>43.0</ele><time>2026-04-06T11:48:31Z</time></trkpt><trkpt lat="51.15404222889341" lon="5.259674989081502"><ele>43.0</ele><time>2026-04-06T11:48:32Z</time></trkpt><trkpt lat="51.15404222889302" lon="5.259367559520439"><ele>43.0</ele><time>2026-04-06T11:48:33Z</time></trkpt><trkpt lat="51.1540441364297" lon="5.259078888854257"><ele>43.0</ele><time>2026-04-06T11:48:34Z</time></trkpt><trkpt lat="51.154046187975936" lon="5.2587802681257525"><ele>43.0</ele><time>2026-04-06T11:48:35Z</time></trkpt><trkpt lat="51.15404850078055" lon="5.258478822430334"><ele>42.66666666666667</ele><time>2026-04-06T11:48:36Z</time></trkpt><trkpt lat="51.154050843972406" lon="5.258179558437438"><ele>42.333333333333336</ele><time>2026-04-06T11:48:37Z</time></trkpt><trkpt lat="51.15405320552166" lon="5.257877949799492"><ele>42.0</ele><time>2026-04-06T11:48:38Z</time></trkpt><trkpt lat="51.15405500458176" lon="5.257572733594119"><ele>42.0</ele><time>2026-04-06T11:48:39Z</time></trkpt><trkpt lat="51.15405721242401" lon="5.257268336312196"><ele>42.0</ele><time>2026-04-06T11:48:40Z</time></trkpt><trkpt lat="51.15405942043261" lon="5.256963916070166"><ele>42.0</ele><time>2026-04-06T11:48:41Z</time></trkpt><trkpt lat="51.154061691080955" lon="5.256650859555007"><ele>41.666666666666664</ele><time>2026-04-06T11:48:42Z</time></trkpt><trkpt lat="51.15406399316433" lon="5.256333463385823"><ele>41.33333333333333</ele><time>2026-04-06T11:48:43Z</time></trkpt><trkpt lat="51.154065524036525" lon="5.256022001853958"><ele>41.0</ele><time>2026-04-06T11:48:44Z</time></trkpt><trkpt lat="51.154069119546925" lon="5.255718070494239"><ele>41.0</ele><time>2026-04-06T11:48:45Z</time></trkpt><trkpt lat="51.154073599567546" lon="5.255420101420817"><ele>41.0</ele><time>2026-04-06T11:48:46Z</time></trkpt><trkpt lat="51.15407849126528" lon="5.255125782141036"><ele>41.0</ele><time>2026-04-06T11:48:47Z</time></trkpt><trkpt lat="51.154082540960864" lon="5.254836733852161"><ele>41.33333333333333</ele><time>2026-04-06T11:48:48Z</time></trkpt><trkpt lat="51.154086915887135" lon="5.254551696220138"><ele>41.666666666666664</ele><time>2026-04-06T11:48:49Z</time></trkpt><trkpt lat="51.15409122750771" lon="5.254271367905135"><ele>42.0</ele><time>2026-04-06T11:48:50Z</time></trkpt><trkpt lat="51.15405734818936" lon="5.253991721816731"><ele>42.333333333333336</ele><time>2026-04-06T11:48:51Z</time></trkpt><trkpt lat="51.154061955352674" lon="5.253719400985128"><ele>42.66666666666667</ele><time>2026-04-06T11:48:52Z</time></trkpt><trkpt lat="51.15406612049168" lon="5.253458735811019"><ele>43.0</ele><time>2026-04-06T11:48:53Z</time></trkpt><trkpt lat="51.15406858102536" lon="5.253223551714044"><ele>43.25</ele><time>2026-04-06T11:48:54Z</time></trkpt><trkpt lat="51.1540745638335" lon="5.25300997905074"><ele>43.5</ele><time>2026-04-06T11:48:55Z</time></trkpt><trkpt lat="51.154089458218515" lon="5.252811525621316"><ele>43.75</ele><time>2026-04-06T11:48:56Z</time></trkpt><trkpt lat="51.15411244233072" lon="5.252638730033369"><ele>44.0</ele><time>2026-04-06T11:48:57Z</time></trkpt><trkpt lat="51.15416596292654" lon="5.252490115978593"><ele>44.0</ele><time>2026-04-06T11:48:58Z</time></trkpt><trkpt lat="51.15420423090519" lon="5.252343652423617"><ele>44.0</ele><time>2026-04-06T11:48:59Z</time></trkpt><trkpt lat="51.154249891778036" lon="5.252201697157463"><ele>44.0</ele><time>2026-04-06T11:49:00Z</time></trkpt><trkpt lat="51.154296104260744" lon="5.252060938517783"><ele>44.0</ele><time>2026-04-06T11:49:01Z</time></trkpt><trkpt lat="51.154341232517176" lon="5.251924415445924"><ele>44.0</ele><time>2026-04-06T11:49:02Z</time></trkpt><trkpt lat="51.1543814304905" lon="5.251804189045876"><ele>43.800000000000004</ele><time>2026-04-06T11:49:03Z</time></trkpt><trkpt lat="51.15441933820397" lon="5.2516935874441"><ele>43.6</ele><time>2026-04-06T11:49:04Z</time></trkpt><trkpt lat="51.154458334461545" lon="5.251583082714685"><ele>43.4</ele><time>2026-04-06T11:49:05Z</time></trkpt><trkpt lat="51.15450239722746" lon="5.2514621668428765"><ele>43.2</ele><time>2026-04-06T11:49:06Z</time></trkpt><trkpt lat="51.154547380932726" lon="5.25132494246995"><ele>43.0</ele><time>2026-04-06T11:49:07Z</time></trkpt><trkpt lat="51.15458899176048" lon="5.251164273243681"><ele>42.5</ele><time>2026-04-06T11:49:08Z</time></trkpt><trkpt lat="51.154621239725074" lon="5.250972095178309"><ele>42.0</ele><time>2026-04-06T11:49:09Z</time></trkpt><trkpt lat="51.15464134834133" lon="5.25074925491935"><ele>41.5</ele><time>2026-04-06T11:49:10Z</time></trkpt><trkpt lat="51.15465374359124" lon="5.250546741022534"><ele>41.0</ele><time>2026-04-06T11:49:11Z</time></trkpt><trkpt lat="51.15466612109905" lon="5.250338286808254"><ele>41.0</ele><time>2026-04-06T11:49:12Z</time></trkpt><trkpt lat="51.15467806899846" lon="5.250126463355468"><ele>41.0</ele><time>2026-04-06T11:49:13Z</time></trkpt><trkpt lat="51.15469089303607" lon="5.249910637034462"><ele>41.0</ele><time>2026-04-06T11:49:14Z</time></trkpt><trkpt lat="51.15470395616243" lon="5.24968973457133"><ele>41.0</ele><time>2026-04-06T11:49:15Z</time></trkpt><trkpt lat="51.15471709551572" lon="5.249455153258836"><ele>40.666666666666664</ele><time>2026-04-06T11:49:16Z</time></trkpt><trkpt lat="51.15473076607374" lon="5.249211021975299"><ele>40.333333333333336</ele><time>2026-04-06T11:49:17Z</time></trkpt><trkpt lat="51.1547445493473" lon="5.248955540009168"><ele>40.0</ele><time>2026-04-06T11:49:18Z</time></trkpt><trkpt lat="51.15475909427596" lon="5.248685940163762"><ele>39.66666666666667</ele><time>2026-04-06T11:49:19Z</time></trkpt><trkpt lat="51.15477491830221" lon="5.248392631667929"><ele>39.333333333333336</ele><time>2026-04-06T11:49:20Z</time></trkpt><trkpt lat="51.154790335360964" lon="5.248107807070748"><ele>39.0</ele><time>2026-04-06T11:49:21Z</time></trkpt><trkpt lat="51.15480594326658" lon="5.247826723190203"><ele>38.666666666666664</ele><time>2026-04-06T11:49:22Z</time></trkpt><trkpt lat="51.15482161997598" lon="5.2475441413937025"><ele>38.33333333333333</ele><time>2026-04-06T11:49:23Z</time></trkpt><trkpt lat="51.15483653697321" lon="5.247264673779088"><ele>38.0</ele><time>2026-04-06T11:49:24Z</time></trkpt><trkpt lat="51.15485155846934" lon="5.246987252941674"><ele>38.0</ele><time>2026-04-06T11:49:25Z</time></trkpt><trkpt lat="51.15486685609374" lon="5.2467092662941415"><ele>38.0</ele><time>2026-04-06T11:49:26Z</time></trkpt><trkpt lat="51.154882387678605" lon="5.246429842247994"><ele>38.0</ele><time>2026-04-06T11:49:27Z</time></trkpt><trkpt lat="51.15489858281397" lon="5.246146128299437"><ele>38.0</ele><time>2026-04-06T11:49:28Z</time></trkpt><trkpt lat="51.15491460975602" lon="5.245857926808957"><ele>38.0</ele><time>2026-04-06T11:49:29Z</time></trkpt><trkpt lat="51.15493122460229" lon="5.245566999416925"><ele>38.0</ele><time>2026-04-06T11:49:30Z</time></trkpt><trkpt lat="51.15494814510596" lon="5.245270707558997"><ele>37.666666666666664</ele><time>2026-04-06T11:49:31Z</time></trkpt><trkpt lat="51.15496494413885" lon="5.244973190280017"><ele>37.333333333333336</ele><time>2026-04-06T11:49:32Z</time></trkpt><trkpt lat="51.15498186221785" lon="5.24467515427495"><ele>37.0</ele><time>2026-04-06T11:49:33Z</time></trkpt><trkpt lat="51.154998524568796" lon="5.244383426112625"><ele>37.0</ele><time>2026-04-06T11:49:34Z</time></trkpt><trkpt lat="51.1550148467587" lon="5.244097653423382"><ele>37.0</ele><time>2026-04-06T11:49:35Z</time></trkpt><trkpt lat="51.155030815049564" lon="5.2438175321352976"><ele>37.0</ele><time>2026-04-06T11:49:36Z</time></trkpt><trkpt lat="51.15504605427471" lon="5.243545983693778"><ele>38.0</ele><time>2026-04-06T11:49:37Z</time></trkpt><trkpt lat="51.15506131994544" lon="5.243281594723241"><ele>39.0</ele><time>2026-04-06T11:49:38Z</time></trkpt><trkpt lat="51.15507621133122" lon="5.243024425260711"><ele>40.0</ele><time>2026-04-06T11:49:39Z</time></trkpt><trkpt lat="51.15509030982124" lon="5.242771179660243"><ele>40.0</ele><time>2026-04-06T11:49:40Z</time></trkpt><trkpt lat="51.155104687688784" lon="5.242520497250816"><ele>40.0</ele><time>2026-04-06T11:49:41Z</time></trkpt><trkpt lat="51.15511789713757" lon="5.242267020732637"><ele>40.0</ele><time>2026-04-06T11:49:42Z</time></trkpt><trkpt lat="51.155132388122" lon="5.242011583001489"><ele>40.0</ele><time>2026-04-06T11:49:43Z</time></trkpt><trkpt lat="51.15514839066565" lon="5.241750515612031"><ele>40.0</ele><time>2026-04-06T11:49:44Z</time></trkpt><trkpt lat="51.15516314618977" lon="5.241488502173326"><ele>40.0</ele><time>2026-04-06T11:49:45Z</time></trkpt><trkpt lat="51.15517826634208" lon="5.241229160989239"><ele>39.66666666666667</ele><time>2026-04-06T11:49:46Z</time></trkpt><trkpt lat="51.15519339414192" lon="5.240968478740476"><ele>39.333333333333336</ele><time>2026-04-06T11:49:47Z</time></trkpt><trkpt lat="51.15520868551647" lon="5.240707027739966"><ele>39.0</ele><time>2026-04-06T11:49:48Z</time></trkpt><trkpt lat="51.15522372840758" lon="5.240445730220806"><ele>39.0</ele><time>2026-04-06T11:49:49Z</time></trkpt><trkpt lat="51.15523935511193" lon="5.240179981976848"><ele>39.0</ele><time>2026-04-06T11:49:50Z</time></trkpt><trkpt lat="51.15525437709432" lon="5.239911515130812"><ele>39.0</ele><time>2026-04-06T11:49:51Z</time></trkpt><trkpt lat="51.15527002876531" lon="5.239640245999997"><ele>39.0</ele><time>2026-04-06T11:49:52Z</time></trkpt><trkpt lat="51.15528500549965" lon="5.23936662716357"><ele>39.0</ele><time>2026-04-06T11:49:53Z</time></trkpt><trkpt lat="51.15530031233981" lon="5.239089794300991"><ele>39.0</ele><time>2026-04-06T11:49:54Z</time></trkpt><trkpt lat="51.155315418345985" lon="5.23881022802863"><ele>39.0</ele><time>2026-04-06T11:49:55Z</time></trkpt><trkpt lat="51.15533120394607" lon="5.2385308317535815"><ele>39.0</ele><time>2026-04-06T11:49:56Z</time></trkpt><trkpt lat="51.155346966050836" lon="5.238248988075258"><ele>39.0</ele><time>2026-04-06T11:49:57Z</time></trkpt><trkpt lat="51.155361849550175" lon="5.237967934322199"><ele>39.0</ele><time>2026-04-06T11:49:58Z</time></trkpt><trkpt lat="51.15537730262629" lon="5.237685249084223"><ele>39.0</ele><time>2026-04-06T11:49:59Z</time></trkpt><trkpt lat="51.15539315759271" lon="5.2373999171243435"><ele>39.0</ele><time>2026-04-06T11:50:00Z</time></trkpt><trkpt lat="51.15540900471187" lon="5.237113393283592"><ele>39.0</ele><time>2026-04-06T11:50:01Z</time></trkpt><trkpt lat="51.15542507385931" lon="5.236822003499673"><ele>39.0</ele><time>2026-04-06T11:50:02Z</time></trkpt><trkpt lat="51.155441470249755" lon="5.236527387646578"><ele>39.0</ele><time>2026-04-06T11:50:03Z</time></trkpt><trkpt lat="51.15545812454103" lon="5.236231164705721"><ele>38.666666666666664</ele><time>2026-04-06T11:50:04Z</time></trkpt><trkpt lat="51.15547474624857" lon="5.2359314763942475"><ele>38.33333333333333</ele><time>2026-04-06T11:50:05Z</time></trkpt><trkpt lat="51.155491336062006" lon="5.235628565816235"><ele>38.0</ele><time>2026-04-06T11:50:06Z</time></trkpt><trkpt lat="51.15550806373042" lon="5.235323373608604"><ele>38.0</ele><time>2026-04-06T11:50:07Z</time></trkpt><trkpt lat="51.155524697391876" lon="5.235017686234652"><ele>38.0</ele><time>2026-04-06T11:50:08Z</time></trkpt><trkpt lat="51.1555415450076" lon="5.2347117683363615"><ele>38.0</ele><time>2026-04-06T11:50:09Z</time></trkpt><trkpt lat="51.15555833880418" lon="5.234407089079457"><ele>37.666666666666664</ele><time>2026-04-06T11:50:10Z</time></trkpt><trkpt lat="51.15557534943425" lon="5.234102169527862"><ele>37.333333333333336</ele><time>2026-04-06T11:50:11Z</time></trkpt><trkpt lat="51.15559240869805" lon="5.233797887937491"><ele>37.0</ele><time>2026-04-06T11:50:12Z</time></trkpt><trkpt lat="51.155608824987155" lon="5.233493242068079"><ele>37.0</ele><time>2026-04-06T11:50:13Z</time></trkpt><trkpt lat="51.15562516464481" lon="5.233189831027387"><ele>37.0</ele><time>2026-04-06T11:50:14Z</time></trkpt><trkpt lat="51.15564152098531" lon="5.232885613033661"><ele>37.0</ele><time>2026-04-06T11:50:15Z</time></trkpt><trkpt lat="51.15565771906707" lon="5.232580235242265"><ele>37.0</ele><time>2026-04-06T11:50:16Z</time></trkpt><trkpt lat="51.155673835936895" lon="5.232276388544604"><ele>37.0</ele><time>2026-04-06T11:50:17Z</time></trkpt><trkpt lat="51.155690517331806" lon="5.2319728055638475"><ele>37.0</ele><time>2026-04-06T11:50:18Z</time></trkpt><trkpt lat="51.15570746161021" lon="5.23167007614017"><ele>37.333333333333336</ele><time>2026-04-06T11:50:19Z</time></trkpt><trkpt lat="51.155724509598144" lon="5.2313670468868745"><ele>37.666666666666664</ele><time>2026-04-06T11:50:20Z</time></trkpt><trkpt lat="51.15574154994896" lon="5.231064592544738"><ele>38.0</ele><time>2026-04-06T11:50:21Z</time></trkpt><trkpt lat="51.155758314945935" lon="5.230763935689053"><ele>38.0</ele><time>2026-04-06T11:50:22Z</time></trkpt><trkpt lat="51.1557749300541" lon="5.230464462254913"><ele>38.0</ele><time>2026-04-06T11:50:23Z</time></trkpt><trkpt lat="51.15579152070289" lon="5.230165429636302"><ele>38.0</ele><time>2026-04-06T11:50:24Z</time></trkpt><trkpt lat="51.15580985307156" lon="5.229868330068937"><ele>37.33333333333333</ele><time>2026-04-06T11:50:25Z</time></trkpt><trkpt lat="51.155821705740635" lon="5.2295731054921415"><ele>36.666666666666664</ele><time>2026-04-06T11:50:26Z</time></trkpt><trkpt lat="51.15583773767751" lon="5.2292798822158915"><ele>36.0</ele><time>2026-04-06T11:50:27Z</time></trkpt><trkpt lat="51.15585375279546" lon="5.228987186675346"><ele>36.333333333333336</ele><time>2026-04-06T11:50:28Z</time></trkpt><trkpt lat="51.155869802315756" lon="5.228693862349011"><ele>36.66666666666667</ele><time>2026-04-06T11:50:29Z</time></trkpt><trkpt lat="51.15588580293999" lon="5.228401431692273"><ele>37.0</ele><time>2026-04-06T11:50:30Z</time></trkpt><trkpt lat="51.15590190122461" lon="5.228107323210685"><ele>37.333333333333336</ele><time>2026-04-06T11:50:31Z</time></trkpt><trkpt lat="51.15591780598515" lon="5.227810890051496"><ele>37.666666666666664</ele><time>2026-04-06T11:50:32Z</time></trkpt><trkpt lat="51.15593392820579" lon="5.227515456319979"><ele>38.0</ele><time>2026-04-06T11:50:33Z</time></trkpt><trkpt lat="51.155950022652256" lon="5.22722081896705"><ele>38.0</ele><time>2026-04-06T11:50:34Z</time></trkpt><trkpt lat="51.155966219577365" lon="5.226925057363611"><ele>38.0</ele><time>2026-04-06T11:50:35Z</time></trkpt><trkpt lat="51.15597977442364" lon="5.22662700264244"><ele>38.0</ele><time>2026-04-06T11:50:36Z</time></trkpt><trkpt lat="51.155995122088875" lon="5.226324604788005"><ele>38.0</ele><time>2026-04-06T11:50:37Z</time></trkpt><trkpt lat="51.15601169985232" lon="5.2260180053549465"><ele>38.0</ele><time>2026-04-06T11:50:38Z</time></trkpt><trkpt lat="51.1560287992262" lon="5.225711941976638"><ele>38.0</ele><time>2026-04-06T11:50:39Z</time></trkpt><trkpt lat="51.15604571062423" lon="5.225404121883657"><ele>38.33333333333333</ele><time>2026-04-06T11:50:40Z</time></trkpt><trkpt lat="51.15606381522716" lon="5.225092952495961"><ele>38.666666666666664</ele><time>2026-04-06T11:50:41Z</time></trkpt><trkpt lat="51.1560807672718" lon="5.224778326434585"><ele>39.0</ele><time>2026-04-06T11:50:42Z</time></trkpt><trkpt lat="51.156098399861214" lon="5.224466464422275"><ele>39.333333333333336</ele><time>2026-04-06T11:50:43Z</time></trkpt><trkpt lat="51.156116211699086" lon="5.224148773440304"><ele>39.66666666666667</ele><time>2026-04-06T11:50:44Z</time></trkpt><trkpt lat="51.15613400209303" lon="5.223833773448107"><ele>40.0</ele><time>2026-04-06T11:50:45Z</time></trkpt><trkpt lat="51.15615156211748" lon="5.223517969294773"><ele>39.333333333333336</ele><time>2026-04-06T11:50:46Z</time></trkpt><trkpt lat="51.15616887463582" lon="5.223206616583154"><ele>38.666666666666664</ele><time>2026-04-06T11:50:47Z</time></trkpt><trkpt lat="51.156185738899666" lon="5.222901868528323"><ele>38.0</ele><time>2026-04-06T11:50:48Z</time></trkpt><trkpt lat="51.156202260445276" lon="5.222602734260879"><ele>36.666666666666664</ele><time>2026-04-06T11:50:49Z</time></trkpt><trkpt lat="51.15621882494754" lon="5.222308425002644"><ele>35.333333333333336</ele><time>2026-04-06T11:50:50Z</time></trkpt><trkpt lat="51.15623513146896" lon="5.222014764941606"><ele>34.0</ele><time>2026-04-06T11:50:51Z</time></trkpt><trkpt lat="51.15625122980456" lon="5.221724854685569"><ele>34.333333333333336</ele><time>2026-04-06T11:50:52Z</time></trkpt><trkpt lat="51.1562672814534" lon="5.22143680205422"><ele>34.666666666666664</ele><time>2026-04-06T11:50:53Z</time></trkpt><trkpt lat="51.156282909009995" lon="5.221147714795552"><ele>35.0</ele><time>2026-04-06T11:50:54Z</time></trkpt><trkpt lat="51.156299414962064" lon="5.220857090699828"><ele>35.33333333333333</ele><time>2026-04-06T11:50:55Z</time></trkpt><trkpt lat="51.1563154492342" lon="5.220567794324041"><ele>35.666666666666664</ele><time>2026-04-06T11:50:56Z</time></trkpt><trkpt lat="51.15633143934514" lon="5.220274424318383"><ele>36.0</ele><time>2026-04-06T11:50:57Z</time></trkpt><trkpt lat="51.1563478932131" lon="5.219980311311893"><ele>36.0</ele><time>2026-04-06T11:50:58Z</time></trkpt><trkpt lat="51.15636447376615" lon="5.2196852677432295"><ele>36.0</ele><time>2026-04-06T11:50:59Z</time></trkpt><trkpt lat="51.15638118040918" lon="5.219390125840618"><ele>36.0</ele><time>2026-04-06T11:51:00Z</time></trkpt><trkpt lat="51.156397707421824" lon="5.219093305920792"><ele>35.666666666666664</ele><time>2026-04-06T11:51:01Z</time></trkpt><trkpt lat="51.15641396521458" lon="5.21879638067213"><ele>35.33333333333333</ele><time>2026-04-06T11:51:02Z</time></trkpt><trkpt lat="51.15643013883175" lon="5.218499675463756"><ele>35.0</ele><time>2026-04-06T11:51:03Z</time></trkpt><trkpt lat="51.15644660284451" lon="5.2182028945849295"><ele>34.666666666666664</ele><time>2026-04-06T11:51:04Z</time></trkpt><trkpt lat="51.156463080705855" lon="5.217905581795601"><ele>34.333333333333336</ele><time>2026-04-06T11:51:05Z</time></trkpt><trkpt lat="51.15647961779513" lon="5.21760903507643"><ele>34.0</ele><time>2026-04-06T11:51:06Z</time></trkpt><trkpt lat="51.156496389034714" lon="5.217311428693144"><ele>34.0</ele><time>2026-04-06T11:51:07Z</time></trkpt><trkpt lat="51.15651279729253" lon="5.217013311432371"><ele>34.0</ele><time>2026-04-06T11:51:08Z</time></trkpt><trkpt lat="51.156528417270906" lon="5.216714501747567"><ele>34.0</ele><time>2026-04-06T11:51:09Z</time></trkpt><trkpt lat="51.156543620467126" lon="5.216415855291401"><ele>34.333333333333336</ele><time>2026-04-06T11:51:10Z</time></trkpt><trkpt lat="51.156559900624714" lon="5.216118232647579"><ele>34.666666666666664</ele><time>2026-04-06T11:51:11Z</time></trkpt><trkpt lat="51.15657564030527" lon="5.21582181804715"><ele>35.0</ele><time>2026-04-06T11:51:12Z</time></trkpt><trkpt lat="51.156591865231874" lon="5.215524255041876"><ele>35.0</ele><time>2026-04-06T11:51:13Z</time></trkpt><trkpt lat="51.15660730769686" lon="5.215227991807328"><ele>35.0</ele><time>2026-04-06T11:51:14Z</time></trkpt><trkpt lat="51.15662275488629" lon="5.214934497891855"><ele>35.0</ele><time>2026-04-06T11:51:15Z</time></trkpt><trkpt lat="51.15663864816601" lon="5.214640341851215"><ele>35.33333333333333</ele><time>2026-04-06T11:51:16Z</time></trkpt><trkpt lat="51.1566547085149" lon="5.214343901162326"><ele>35.666666666666664</ele><time>2026-04-06T11:51:17Z</time></trkpt><trkpt lat="51.15667063267514" lon="5.214046771944348"><ele>36.0</ele><time>2026-04-06T11:51:18Z</time></trkpt><trkpt lat="51.1566862138764" lon="5.213751079842041"><ele>36.666666666666664</ele><time>2026-04-06T11:51:19Z</time></trkpt><trkpt lat="51.1567019135391" lon="5.213455016963733"><ele>37.33333333333333</ele><time>2026-04-06T11:51:20Z</time></trkpt><trkpt lat="51.15671734102302" lon="5.213166807786915"><ele>38.0</ele><time>2026-04-06T11:51:21Z</time></trkpt><trkpt lat="51.156732463392416" lon="5.21288328225056"><ele>38.0</ele><time>2026-04-06T11:51:22Z</time></trkpt><trkpt lat="51.156747562473534" lon="5.212603214873078"><ele>38.0</ele><time>2026-04-06T11:51:23Z</time></trkpt><trkpt lat="51.15676270387086" lon="5.212326564555518"><ele>38.0</ele><time>2026-04-06T11:51:24Z</time></trkpt><trkpt lat="51.156776591705956" lon="5.212054565233646"><ele>38.33333333333333</ele><time>2026-04-06T11:51:25Z</time></trkpt><trkpt lat="51.156790085643806" lon="5.211800017448455"><ele>38.666666666666664</ele><time>2026-04-06T11:51:26Z</time></trkpt><trkpt lat="51.15680290765045" lon="5.211561651140271"><ele>39.0</ele><time>2026-04-06T11:51:27Z</time></trkpt><trkpt lat="51.15681526079856" lon="5.2113383979649415"><ele>39.333333333333336</ele><time>2026-04-06T11:51:28Z</time></trkpt><trkpt lat="51.15682599041756" lon="5.211138694867163"><ele>39.666666666666664</ele><time>2026-04-06T11:51:29Z</time></trkpt><trkpt lat="51.156833510037345" lon="5.210994583549223"><ele>40.0</ele><time>2026-04-06T11:51:30Z</time></trkpt><trkpt lat="51.15683913855389" lon="5.21088812154375"><ele>40.33333333333333</ele><time>2026-04-06T11:51:31Z</time></trkpt><trkpt lat="51.156844503398005" lon="5.210786189421994"><ele>40.666666666666664</ele><time>2026-04-06T11:51:32Z</time></trkpt><trkpt lat="51.15685063724972" lon="5.210671999662668"><ele>41.0</ele><time>2026-04-06T11:51:33Z</time></trkpt><trkpt lat="51.156857642712296" lon="5.210540931110054"><ele>41.25</ele><time>2026-04-06T11:51:34Z</time></trkpt><trkpt lat="51.15686519723919" lon="5.21039856413936"><ele>41.5</ele><time>2026-04-06T11:51:35Z</time></trkpt><trkpt lat="51.156873580428346" lon="5.210226426814539"><ele>41.75</ele><time>2026-04-06T11:51:36Z</time></trkpt><trkpt lat="51.15688510295319" lon="5.21001519795215"><ele>42.0</ele><time>2026-04-06T11:51:37Z</time></trkpt><trkpt lat="51.15689651398566" lon="5.209791658274144"><ele>41.0</ele><time>2026-04-06T11:51:38Z</time></trkpt><trkpt lat="51.15690864367974" lon="5.20956450036872"><ele>40.0</ele><time>2026-04-06T11:51:39Z</time></trkpt><trkpt lat="51.156921908199045" lon="5.209304161479874"><ele>39.0</ele><time>2026-04-06T11:51:40Z</time></trkpt><trkpt lat="51.15693747500472" lon="5.209015011951136"><ele>38.0</ele><time>2026-04-06T11:51:41Z</time></trkpt><trkpt lat="51.15695418122219" lon="5.208718216268598"><ele>37.0</ele><time>2026-04-06T11:51:42Z</time></trkpt><trkpt lat="51.15697033727447" lon="5.208432606766846"><ele>36.0</ele><time>2026-04-06T11:51:43Z</time></trkpt><trkpt lat="51.156986603833666" lon="5.208140022513444"><ele>36.0</ele><time>2026-04-06T11:51:44Z</time></trkpt><trkpt lat="51.15700306515908" lon="5.207841762408393"><ele>36.0</ele><time>2026-04-06T11:51:45Z</time></trkpt><trkpt lat="51.15701965577081" lon="5.207541160041503"><ele>36.0</ele><time>2026-04-06T11:51:46Z</time></trkpt><trkpt lat="51.15703616286915" lon="5.207242244790047"><ele>36.333333333333336</ele><time>2026-04-06T11:51:47Z</time></trkpt><trkpt lat="51.15705384132816" lon="5.206947841882135"><ele>36.66666666666667</ele><time>2026-04-06T11:51:48Z</time></trkpt><trkpt lat="51.157071416126776" lon="5.206655189746698"><ele>37.0</ele><time>2026-04-06T11:51:49Z</time></trkpt><trkpt lat="51.157088909126614" lon="5.206365389439424"><ele>37.333333333333336</ele><time>2026-04-06T11:51:50Z</time></trkpt><trkpt lat="51.15710679985033" lon="5.206078144399931"><ele>37.666666666666664</ele><time>2026-04-06T11:51:51Z</time></trkpt><trkpt lat="51.15712629346244" lon="5.2057942505077115"><ele>38.0</ele><time>2026-04-06T11:51:52Z</time></trkpt><trkpt lat="51.15714851345728" lon="5.2055113925785585"><ele>37.0</ele><time>2026-04-06T11:51:53Z</time></trkpt><trkpt lat="51.157171713925436" lon="5.20522839190985"><ele>36.0</ele><time>2026-04-06T11:51:54Z</time></trkpt><trkpt lat="51.15719697714078" lon="5.204948236745604"><ele>35.0</ele><time>2026-04-06T11:51:55Z</time></trkpt><trkpt lat="51.15722268153286" lon="5.204668812990591"><ele>35.0</ele><time>2026-04-06T11:51:56Z</time></trkpt><trkpt lat="51.157248218051386" lon="5.204390843377855"><ele>35.0</ele><time>2026-04-06T11:51:57Z</time></trkpt><trkpt lat="51.15727433264816" lon="5.20411248939226"><ele>35.0</ele><time>2026-04-06T11:51:58Z</time></trkpt><trkpt lat="51.15730259838193" lon="5.203835170165617"><ele>35.0</ele><time>2026-04-06T11:51:59Z</time></trkpt><trkpt lat="51.157330406851855" lon="5.2035542606665155"><ele>35.0</ele><time>2026-04-06T11:52:00Z</time></trkpt><trkpt lat="51.15735846200593" lon="5.203273580856208"><ele>35.0</ele><time>2026-04-06T11:52:01Z</time></trkpt><trkpt lat="51.15738701988569" lon="5.202990928008475"><ele>34.666666666666664</ele><time>2026-04-06T11:52:02Z</time></trkpt><trkpt lat="51.15741537108219" lon="5.202705946274229"><ele>34.333333333333336</ele><time>2026-04-06T11:52:03Z</time></trkpt><trkpt lat="51.15744351960785" lon="5.2024198103289985"><ele>34.0</ele><time>2026-04-06T11:52:04Z</time></trkpt><trkpt lat="51.15747192180576" lon="5.2021300351698425"><ele>34.0</ele><time>2026-04-06T11:52:05Z</time></trkpt><trkpt lat="51.157500490939256" lon="5.201838557605005"><ele>34.0</ele><time>2026-04-06T11:52:06Z</time></trkpt><trkpt lat="51.15752622725437" lon="5.2015436048556625"><ele>34.0</ele><time>2026-04-06T11:52:07Z</time></trkpt><trkpt lat="51.15755151637318" lon="5.201249550428932"><ele>33.66666666666667</ele><time>2026-04-06T11:52:08Z</time></trkpt><trkpt lat="51.15758222366773" lon="5.200956290123025"><ele>33.333333333333336</ele><time>2026-04-06T11:52:09Z</time></trkpt><trkpt lat="51.157614478732256" lon="5.200659516861828"><ele>33.0</ele><time>2026-04-06T11:52:10Z</time></trkpt><trkpt lat="51.15764437663563" lon="5.200361971922278"><ele>33.0</ele><time>2026-04-06T11:52:11Z</time></trkpt><trkpt lat="51.157672691125626" lon="5.200064579927859"><ele>33.0</ele><time>2026-04-06T11:52:12Z</time></trkpt><trkpt lat="51.15770096159077" lon="5.199767851955818"><ele>33.0</ele><time>2026-04-06T11:52:13Z</time></trkpt><trkpt lat="51.157730613605885" lon="5.19947779160537"><ele>32.666666666666664</ele><time>2026-04-06T11:52:14Z</time></trkpt><trkpt lat="51.15775743493553" lon="5.1991914013339136"><ele>32.33333333333333</ele><time>2026-04-06T11:52:15Z</time></trkpt><trkpt lat="51.15778412800914" lon="5.198912534511561"><ele>32.0</ele><time>2026-04-06T11:52:16Z</time></trkpt><trkpt lat="51.15781112993327" lon="5.198637465832157"><ele>32.0</ele><time>2026-04-06T11:52:17Z</time></trkpt><trkpt lat="51.15783688757439" lon="5.19836600290031"><ele>32.0</ele><time>2026-04-06T11:52:18Z</time></trkpt><trkpt lat="51.157859372123355" lon="5.198086832896318"><ele>32.0</ele><time>2026-04-06T11:52:19Z</time></trkpt><trkpt lat="51.15786849956954" lon="5.197811789168975"><ele>32.0</ele><time>2026-04-06T11:52:20Z</time></trkpt><trkpt lat="51.15786573139641" lon="5.197526162774069"><ele>32.0</ele><time>2026-04-06T11:52:21Z</time></trkpt><trkpt lat="51.1578520821994" lon="5.197248207826329"><ele>32.0</ele><time>2026-04-06T11:52:22Z</time></trkpt><trkpt lat="51.15783920881992" lon="5.196992448901242"><ele>32.0</ele><time>2026-04-06T11:52:23Z</time></trkpt><trkpt lat="51.15782797724211" lon="5.196754887179889"><ele>32.0</ele><time>2026-04-06T11:52:24Z</time></trkpt><trkpt lat="51.157824566313174" lon="5.196535310539391"><ele>32.0</ele><time>2026-04-06T11:52:25Z</time></trkpt><trkpt lat="51.157823982268106" lon="5.196325011032934"><ele>32.0</ele><time>2026-04-06T11:52:26Z</time></trkpt><trkpt lat="51.15782733672541" lon="5.196129545113894"><ele>32.0</ele><time>2026-04-06T11:52:27Z</time></trkpt><trkpt lat="51.15783674444652" lon="5.195935580888403"><ele>32.0</ele><time>2026-04-06T11:52:28Z</time></trkpt><trkpt lat="51.15784718286778" lon="5.195751903581549"><ele>32.0</ele><time>2026-04-06T11:52:29Z</time></trkpt><trkpt lat="51.1578580531005" lon="5.1955866528376875"><ele>32.0</ele><time>2026-04-06T11:52:30Z</time></trkpt><trkpt lat="51.15786910434775" lon="5.195444248881716"><ele>32.0</ele><time>2026-04-06T11:52:31Z</time></trkpt><trkpt lat="51.157872923945796" lon="5.195317137483588"><ele>31.999999999999996</ele><time>2026-04-06T11:52:32Z</time></trkpt><trkpt lat="51.15785265241692" lon="5.195197102837418"><ele>32.0</ele><time>2026-04-06T11:52:33Z</time></trkpt><trkpt lat="51.15782101973952" lon="5.195084313959292"><ele>32.0</ele><time>2026-04-06T11:52:35Z</time></trkpt><trkpt lat="51.15776352877019" lon="5.194948978471727"><ele>32.0</ele><time>2026-04-06T11:52:41Z</time></trkpt><trkpt lat="51.157831735842144" lon="5.194874404144856"><ele>31.999999999999996</ele><time>2026-04-06T11:52:42Z</time></trkpt><trkpt lat="51.15789703887681" lon="5.194750115103774"><ele>32.0</ele><time>2026-04-06T11:52:43Z</time></trkpt><trkpt lat="51.157969355009214" lon="5.194610641355363"><ele>32.0</ele><time>2026-04-06T11:52:44Z</time></trkpt><trkpt lat="51.15803180883872" lon="5.194487296410587"><ele>32.0</ele><time>2026-04-06T11:52:45Z</time></trkpt><trkpt lat="51.15809452054378" lon="5.194362387224974"><ele>32.0</ele><time>2026-04-06T11:52:46Z</time></trkpt><trkpt lat="51.15815693117487" lon="5.1942384780318545"><ele>32.0</ele><time>2026-04-06T11:52:47Z</time></trkpt><trkpt lat="51.15821913832125" lon="5.194115386466856"><ele>32.0</ele><time>2026-04-06T11:52:48Z</time></trkpt><trkpt lat="51.15828137294425" lon="5.193992088144211"><ele>31.833333333333332</ele><time>2026-04-06T11:52:49Z</time></trkpt><trkpt lat="51.15834208422602" lon="5.193869932210128"><ele>31.666666666666664</ele><time>2026-04-06T11:52:50Z</time></trkpt><trkpt lat="51.15839938969309" lon="5.193754628941372"><ele>31.5</ele><time>2026-04-06T11:52:51Z</time></trkpt><trkpt lat="51.158453705205226" lon="5.193644051532216"><ele>31.333333333333336</ele><time>2026-04-06T11:52:52Z</time></trkpt><trkpt lat="51.158504935202025" lon="5.193537577813154"><ele>31.166666666666668</ele><time>2026-04-06T11:52:53Z</time></trkpt><trkpt lat="51.158535838478834" lon="5.19341205549369"><ele>31.0</ele><time>2026-04-06T11:52:54Z</time></trkpt><trkpt lat="51.158585516347934" lon="5.193307711130226"><ele>31.000000000000004</ele><time>2026-04-06T11:52:55Z</time></trkpt><trkpt lat="51.15863560886184" lon="5.193203099946693"><ele>31.0</ele><time>2026-04-06T11:52:56Z</time></trkpt><trkpt lat="51.158686901524675" lon="5.19310549252287"><ele>31.0</ele><time>2026-04-06T11:52:57Z</time></trkpt><trkpt lat="51.15873784889775" lon="5.193006999509525"><ele>31.0</ele><time>2026-04-06T11:52:58Z</time></trkpt><trkpt lat="51.15878708988917" lon="5.192907004914018"><ele>31.000000000000004</ele><time>2026-04-06T11:52:59Z</time></trkpt><trkpt lat="51.15883709729384" lon="5.19280880640637"><ele>31.0</ele><time>2026-04-06T11:53:00Z</time></trkpt><trkpt lat="51.158886892488276" lon="5.19270776947114"><ele>30.833333333333336</ele><time>2026-04-06T11:53:01Z</time></trkpt><trkpt lat="51.15893667833699" lon="5.1926074064750996"><ele>30.666666666666668</ele><time>2026-04-06T11:53:02Z</time></trkpt><trkpt lat="51.15900299673097" lon="5.192528158622096"><ele>30.5</ele><time>2026-04-06T11:53:03Z</time></trkpt><trkpt lat="51.15905359290405" lon="5.192426758362745"><ele>30.333333333333336</ele><time>2026-04-06T11:53:04Z</time></trkpt><trkpt lat="51.15910025545295" lon="5.192332376530999"><ele>30.166666666666668</ele><time>2026-04-06T11:53:05Z</time></trkpt><trkpt lat="51.15914987931526" lon="5.192233308662476"><ele>30.0</ele><time>2026-04-06T11:53:06Z</time></trkpt><trkpt lat="51.159203393935755" lon="5.1921270026931685"><ele>30.166666666666668</ele><time>2026-04-06T11:53:07Z</time></trkpt><trkpt lat="51.159256931292546" lon="5.192019700909907"><ele>30.333333333333336</ele><time>2026-04-06T11:53:08Z</time></trkpt><trkpt lat="51.15930928504612" lon="5.191914771278335"><ele>30.5</ele><time>2026-04-06T11:53:09Z</time></trkpt><trkpt lat="51.15936177020755" lon="5.191809661281895"><ele>30.666666666666668</ele><time>2026-04-06T11:53:10Z</time></trkpt><trkpt lat="51.159414797841166" lon="5.191703490903515"><ele>30.833333333333336</ele><time>2026-04-06T11:53:11Z</time></trkpt><trkpt lat="51.15946815361726" lon="5.191596663499974"><ele>31.0</ele><time>2026-04-06T11:53:12Z</time></trkpt><trkpt lat="51.15952040239213" lon="5.19149174960097"><ele>31.000000000000004</ele><time>2026-04-06T11:53:13Z</time></trkpt><trkpt lat="51.15957195901741" lon="5.191387451733694"><ele>31.0</ele><time>2026-04-06T11:53:14Z</time></trkpt><trkpt lat="51.15962148986897" lon="5.191287254801846"><ele>31.0</ele><time>2026-04-06T11:53:15Z</time></trkpt><trkpt lat="51.1596722501371" lon="5.191186977653137"><ele>31.0</ele><time>2026-04-06T11:53:16Z</time></trkpt><trkpt lat="51.1597237493094" lon="5.191083773183176"><ele>31.000000000000004</ele><time>2026-04-06T11:53:17Z</time></trkpt><trkpt lat="51.159782548677086" lon="5.190966291884313"><ele>31.0</ele><time>2026-04-06T11:53:18Z</time></trkpt><trkpt lat="51.159857171007054" lon="5.190817046788069"><ele>32.66666666666667</ele><time>2026-04-06T11:53:19Z</time></trkpt><trkpt lat="51.159947003776196" lon="5.190637772341871"><ele>34.333333333333336</ele><time>2026-04-06T11:53:20Z</time></trkpt><trkpt lat="51.16004707444468" lon="5.190437150164675"><ele>36.0</ele><time>2026-04-06T11:53:21Z</time></trkpt><trkpt lat="51.160140936078434" lon="5.190248694581841"><ele>36.0</ele><time>2026-04-06T11:53:22Z</time></trkpt><trkpt lat="51.1602359145521" lon="5.190060736109895"><ele>36.0</ele><time>2026-04-06T11:53:23Z</time></trkpt><trkpt lat="51.16033320567411" lon="5.189864777114368"><ele>36.0</ele><time>2026-04-06T11:53:24Z</time></trkpt><trkpt lat="51.160424218196" lon="5.189653282894813"><ele>35.75</ele><time>2026-04-06T11:53:25Z</time></trkpt><trkpt lat="51.16052517550811" lon="5.189457041506633"><ele>35.5</ele><time>2026-04-06T11:53:26Z</time></trkpt><trkpt lat="51.16061282392199" lon="5.189275639251816"><ele>35.25</ele><time>2026-04-06T11:53:27Z</time></trkpt><trkpt lat="51.16070349215942" lon="5.189099292835271"><ele>35.0</ele><time>2026-04-06T11:53:28Z</time></trkpt><trkpt lat="51.16078851002127" lon="5.188929059639814"><ele>34.0</ele><time>2026-04-06T11:53:29Z</time></trkpt><trkpt lat="51.160872884549974" lon="5.188762242728032"><ele>33.0</ele><time>2026-04-06T11:53:30Z</time></trkpt><trkpt lat="51.16095468612224" lon="5.188597303128604"><ele>32.0</ele><time>2026-04-06T11:53:31Z</time></trkpt><trkpt lat="51.16103538265816" lon="5.188435480992065"><ele>31.0</ele><time>2026-04-06T11:53:32Z</time></trkpt><trkpt lat="51.16111786581646" lon="5.18827739462441"><ele>31.0</ele><time>2026-04-06T11:53:33Z</time></trkpt><trkpt lat="51.16120218033567" lon="5.188122453652165"><ele>31.0</ele><time>2026-04-06T11:53:34Z</time></trkpt><trkpt lat="51.16128234630756" lon="5.187961193011452"><ele>31.0</ele><time>2026-04-06T11:53:35Z</time></trkpt><trkpt lat="51.16137443597988" lon="5.187814974837722"><ele>31.0</ele><time>2026-04-06T11:53:36Z</time></trkpt><trkpt lat="51.16145722138149" lon="5.187652501075769"><ele>31.5</ele><time>2026-04-06T11:53:37Z</time></trkpt><trkpt lat="51.16153929468826" lon="5.187488010905077"><ele>32.0</ele><time>2026-04-06T11:53:38Z</time></trkpt><trkpt lat="51.1616196235715" lon="5.187317587589566"><ele>32.5</ele><time>2026-04-06T11:53:39Z</time></trkpt><trkpt lat="51.161696513004266" lon="5.187142505390388"><ele>33.0</ele><time>2026-04-06T11:53:40Z</time></trkpt><trkpt lat="51.16177148592892" lon="5.186963917242234"><ele>33.0</ele><time>2026-04-06T11:53:41Z</time></trkpt><trkpt lat="51.161844491977725" lon="5.1867827746498305"><ele>33.0</ele><time>2026-04-06T11:53:42Z</time></trkpt><trkpt lat="51.16191712044547" lon="5.186603105494145"><ele>33.0</ele><time>2026-04-06T11:53:43Z</time></trkpt><trkpt lat="51.16199378663619" lon="5.186425446538623"><ele>33.0</ele><time>2026-04-06T11:53:44Z</time></trkpt><trkpt lat="51.162070539190175" lon="5.186247627553506"><ele>33.25</ele><time>2026-04-06T11:53:45Z</time></trkpt><trkpt lat="51.16214708216671" lon="5.186069718462143"><ele>33.5</ele><time>2026-04-06T11:53:46Z</time></trkpt><trkpt lat="51.16222400844854" lon="5.185890847850364"><ele>33.75</ele><time>2026-04-06T11:53:47Z</time></trkpt><trkpt lat="51.16229841295244" lon="5.185716260531892"><ele>34.0</ele><time>2026-04-06T11:53:48Z</time></trkpt><trkpt lat="51.16237369243273" lon="5.185541047323331"><ele>34.25</ele><time>2026-04-06T11:53:49Z</time></trkpt><trkpt lat="51.16244818963273" lon="5.185366435824929"><ele>34.5</ele><time>2026-04-06T11:53:50Z</time></trkpt><trkpt lat="51.162522534023175" lon="5.1851934719611235"><ele>34.75</ele><time>2026-04-06T11:53:51Z</time></trkpt><trkpt lat="51.16259664221802" lon="5.185021643494558"><ele>35.0</ele><time>2026-04-06T11:53:52Z</time></trkpt><trkpt lat="51.16266354146295" lon="5.184843933448979"><ele>35.0</ele><time>2026-04-06T11:53:53Z</time></trkpt><trkpt lat="51.16273536110482" lon="5.184678119031083"><ele>35.0</ele><time>2026-04-06T11:53:54Z</time></trkpt><trkpt lat="51.16280228700721" lon="5.184507932544857"><ele>35.0</ele><time>2026-04-06T11:53:55Z</time></trkpt><trkpt lat="51.16287058287211" lon="5.18434125671357"><ele>35.0</ele><time>2026-04-06T11:53:56Z</time></trkpt><trkpt lat="51.16294382232667" lon="5.184178703517201"><ele>35.0</ele><time>2026-04-06T11:53:57Z</time></trkpt><trkpt lat="51.16301632672656" lon="5.184016823666016"><ele>35.0</ele><time>2026-04-06T11:53:58Z</time></trkpt><trkpt lat="51.163088272335195" lon="5.183852554443203"><ele>35.0</ele><time>2026-04-06T11:53:59Z</time></trkpt><trkpt lat="51.16316407094925" lon="5.1836825630208905"><ele>35.0</ele><time>2026-04-06T11:54:00Z</time></trkpt><trkpt lat="51.16324276730262" lon="5.183509996067198"><ele>35.0</ele><time>2026-04-06T11:54:01Z</time></trkpt><trkpt lat="51.16332173800472" lon="5.183331914215068"><ele>35.0</ele><time>2026-04-06T11:54:02Z</time></trkpt><trkpt lat="51.16340071669712" lon="5.183149881410579"><ele>35.0</ele><time>2026-04-06T11:54:03Z</time></trkpt><trkpt lat="51.163479242209" lon="5.182966372354642"><ele>35.0</ele><time>2026-04-06T11:54:04Z</time></trkpt><trkpt lat="51.16355670787562" lon="5.1827844190200825"><ele>35.0</ele><time>2026-04-06T11:54:05Z</time></trkpt><trkpt lat="51.16363114893428" lon="5.1826028701538664"><ele>35.0</ele><time>2026-04-06T11:54:06Z</time></trkpt><trkpt lat="51.16371360012698" lon="5.182432478354812"><ele>35.0</ele><time>2026-04-06T11:54:07Z</time></trkpt><trkpt lat="51.163791779746916" lon="5.182250559920117"><ele>35.0</ele><time>2026-04-06T11:54:08Z</time></trkpt><trkpt lat="51.163874122789395" lon="5.182058953531731"><ele>35.33333333333333</ele><time>2026-04-06T11:54:09Z</time></trkpt><trkpt lat="51.163963729647456" lon="5.181850649380972"><ele>35.666666666666664</ele><time>2026-04-06T11:54:10Z</time></trkpt><trkpt lat="51.16405986285724" lon="5.181627229064513"><ele>36.0</ele><time>2026-04-06T11:54:11Z</time></trkpt><trkpt lat="51.164160667481134" lon="5.181392645696914"><ele>36.666666666666664</ele><time>2026-04-06T11:54:12Z</time></trkpt><trkpt lat="51.16425516038348" lon="5.181172761778085"><ele>37.33333333333333</ele><time>2026-04-06T11:54:13Z</time></trkpt><trkpt lat="51.16435313910949" lon="5.180944763047669"><ele>38.0</ele><time>2026-04-06T11:54:14Z</time></trkpt><trkpt lat="51.16443823219103" lon="5.180701093132447"><ele>38.0</ele><time>2026-04-06T11:54:15Z</time></trkpt><trkpt lat="51.16453739859161" lon="5.180470925259026"><ele>38.0</ele><time>2026-04-06T11:54:16Z</time></trkpt><trkpt lat="51.164634206462964" lon="5.180242435271013"><ele>38.0</ele><time>2026-04-06T11:54:17Z</time></trkpt><trkpt lat="51.16472965793149" lon="5.180015131950633"><ele>36.666666666666664</ele><time>2026-04-06T11:54:18Z</time></trkpt><trkpt lat="51.16484200476335" lon="5.179807790907053"><ele>35.333333333333336</ele><time>2026-04-06T11:54:19Z</time></trkpt><trkpt lat="51.164938965992526" lon="5.179582853857058"><ele>34.0</ele><time>2026-04-06T11:54:20Z</time></trkpt><trkpt lat="51.165021959258574" lon="5.1793452480913285"><ele>34.0</ele><time>2026-04-06T11:54:21Z</time></trkpt><trkpt lat="51.16511919312387" lon="5.179122021520495"><ele>34.0</ele><time>2026-04-06T11:54:22Z</time></trkpt><trkpt lat="51.16521602627253" lon="5.178896582001646"><ele>34.0</ele><time>2026-04-06T11:54:23Z</time></trkpt><trkpt lat="51.16531363025958" lon="5.178668255617949"><ele>34.0</ele><time>2026-04-06T11:54:24Z</time></trkpt><trkpt lat="51.16541231163167" lon="5.178441563559917"><ele>34.0</ele><time>2026-04-06T11:54:25Z</time></trkpt><trkpt lat="51.16551108463228" lon="5.178212509762729"><ele>34.0</ele><time>2026-04-06T11:54:26Z</time></trkpt><trkpt lat="51.165610167723024" lon="5.1779821343936305"><ele>33.66666666666667</ele><time>2026-04-06T11:54:27Z</time></trkpt><trkpt lat="51.16571030040728" lon="5.1777502403650795"><ele>33.333333333333336</ele><time>2026-04-06T11:54:28Z</time></trkpt><trkpt lat="51.16581061136058" lon="5.177517736772035"><ele>33.0</ele><time>2026-04-06T11:54:29Z</time></trkpt><trkpt lat="51.16591149150381" lon="5.177285080305013"><ele>33.0</ele><time>2026-04-06T11:54:30Z</time></trkpt><trkpt lat="51.16601298972702" lon="5.177052969398102"><ele>33.0</ele><time>2026-04-06T11:54:31Z</time></trkpt><trkpt lat="51.16611286102798" lon="5.176819650863909"><ele>33.0</ele><time>2026-04-06T11:54:32Z</time></trkpt><trkpt lat="51.16621223452577" lon="5.176585677051132"><ele>33.333333333333336</ele><time>2026-04-06T11:54:33Z</time></trkpt><trkpt lat="51.1663119099685" lon="5.176353016373901"><ele>33.66666666666667</ele><time>2026-04-06T11:54:34Z</time></trkpt><trkpt lat="51.16641184999981" lon="5.176121998001222"><ele>34.0</ele><time>2026-04-06T11:54:35Z</time></trkpt><trkpt lat="51.16650979205153" lon="5.17589522647223"><ele>33.66666666666667</ele><time>2026-04-06T11:54:36Z</time></trkpt><trkpt lat="51.16660516389593" lon="5.1756748336234795"><ele>33.333333333333336</ele><time>2026-04-06T11:54:37Z</time></trkpt><trkpt lat="51.166696776712776" lon="5.175468396070456"><ele>33.0</ele><time>2026-04-06T11:54:38Z</time></trkpt><trkpt lat="51.16678190684384" lon="5.1752681360742265"><ele>33.0</ele><time>2026-04-06T11:54:39Z</time></trkpt><trkpt lat="51.16685920231764" lon="5.175075530456224"><ele>33.0</ele><time>2026-04-06T11:54:40Z</time></trkpt><trkpt lat="51.16693400008925" lon="5.174897747130852"><ele>33.0</ele><time>2026-04-06T11:54:41Z</time></trkpt><trkpt lat="51.1670114261614" lon="5.174740147973778"><ele>33.0</ele><time>2026-04-06T11:54:42Z</time></trkpt><trkpt lat="51.1670841277207" lon="5.174592473198922"><ele>33.25</ele><time>2026-04-06T11:54:43Z</time></trkpt><trkpt lat="51.16715169937181" lon="5.17443622895002"><ele>33.5</ele><time>2026-04-06T11:54:44Z</time></trkpt><trkpt lat="51.16722213742963" lon="5.1742741468344455"><ele>33.75</ele><time>2026-04-06T11:54:45Z</time></trkpt><trkpt lat="51.167289325106026" lon="5.174127133609576"><ele>34.0</ele><time>2026-04-06T11:54:46Z</time></trkpt><trkpt lat="51.16735406268922" lon="5.173989281878804"><ele>34.0</ele><time>2026-04-06T11:54:47Z</time></trkpt><trkpt lat="51.16741611783628" lon="5.173860232005988"><ele>34.0</ele><time>2026-04-06T11:54:48Z</time></trkpt><trkpt lat="51.167465860293646" lon="5.173760733309244"><ele>34.0</ele><time>2026-04-06T11:54:49Z</time></trkpt><trkpt lat="51.16751548370709" lon="5.173653075913989"><ele>34.0</ele><time>2026-04-06T11:54:51Z</time></trkpt><trkpt lat="51.167564142034685" lon="5.17358046041918"><ele>34.0</ele><time>2026-04-06T11:55:01Z</time></trkpt><trkpt lat="51.16748810515585" lon="5.173424985326338"><ele>34.0</ele><time>2026-04-06T11:55:03Z</time></trkpt><trkpt lat="51.16743069496352" lon="5.173321412375394"><ele>34.0</ele><time>2026-04-06T11:55:04Z</time></trkpt><trkpt lat="51.16736859027131" lon="5.173215795103731"><ele>34.0</ele><time>2026-04-06T11:55:05Z</time></trkpt><trkpt lat="51.16730741834694" lon="5.173092114749642"><ele>34.0</ele><time>2026-04-06T11:55:06Z</time></trkpt><trkpt lat="51.16725532212163" lon="5.172975847275452"><ele>34.0</ele><time>2026-04-06T11:55:07Z</time></trkpt><trkpt lat="51.16720274202894" lon="5.172857158525643"><ele>34.0</ele><time>2026-04-06T11:55:08Z</time></trkpt><trkpt lat="51.167149652796866" lon="5.1727373196220165"><ele>34.0</ele><time>2026-04-06T11:55:09Z</time></trkpt><trkpt lat="51.167093821807775" lon="5.172610680229957"><ele>34.0</ele><time>2026-04-06T11:55:10Z</time></trkpt><trkpt lat="51.167033904643375" lon="5.17246870791004"><ele>34.0</ele><time>2026-04-06T11:55:11Z</time></trkpt><trkpt lat="51.16697415282137" lon="5.172312665252843"><ele>34.0</ele><time>2026-04-06T11:55:12Z</time></trkpt><trkpt lat="51.16692020145688" lon="5.172150867870061"><ele>33.6</ele><time>2026-04-06T11:55:13Z</time></trkpt><trkpt lat="51.16686950686263" lon="5.171980030308747"><ele>33.2</ele><time>2026-04-06T11:55:14Z</time></trkpt><trkpt lat="51.16682584416228" lon="5.171807523062395"><ele>32.800000000000004</ele><time>2026-04-06T11:55:15Z</time></trkpt><trkpt lat="51.16679315449304" lon="5.171654368247099"><ele>32.4</ele><time>2026-04-06T11:55:16Z</time></trkpt><trkpt lat="51.166765258440485" lon="5.171504468796514"><ele>32.0</ele><time>2026-04-06T11:55:17Z</time></trkpt><trkpt lat="51.166743349437695" lon="5.171348463025904"><ele>32.0</ele><time>2026-04-06T11:55:18Z</time></trkpt><trkpt lat="51.16672181981095" lon="5.171189781411857"><ele>32.0</ele><time>2026-04-06T11:55:19Z</time></trkpt><trkpt lat="51.166703149319524" lon="5.171036586310973"><ele>32.0</ele><time>2026-04-06T11:55:20Z</time></trkpt><trkpt lat="51.16668937619923" lon="5.17088286576005"><ele>32.0</ele><time>2026-04-06T11:55:21Z</time></trkpt><trkpt lat="51.166672150183274" lon="5.1707298093037695"><ele>32.0</ele><time>2026-04-06T11:55:22Z</time></trkpt><trkpt lat="51.16665406937211" lon="5.170582634570319"><ele>32.166666666666664</ele><time>2026-04-06T11:55:23Z</time></trkpt><trkpt lat="51.16663057639695" lon="5.170434928821526"><ele>32.33333333333333</ele><time>2026-04-06T11:55:24Z</time></trkpt><trkpt lat="51.166599990551894" lon="5.170293881452757"><ele>32.5</ele><time>2026-04-06T11:55:25Z</time></trkpt><trkpt lat="51.166567070918994" lon="5.17015644656704"><ele>32.666666666666664</ele><time>2026-04-06T11:55:26Z</time></trkpt><trkpt lat="51.166532326957224" lon="5.170040869649175"><ele>32.833333333333336</ele><time>2026-04-06T11:55:27Z</time></trkpt><trkpt lat="51.16649664116498" lon="5.16993107116169"><ele>33.0</ele><time>2026-04-06T11:55:28Z</time></trkpt><trkpt lat="51.16646000501349" lon="5.169818349705799"><ele>33.0</ele><time>2026-04-06T11:55:29Z</time></trkpt><trkpt lat="51.16641904626732" lon="5.169692328598673"><ele>33.0</ele><time>2026-04-06T11:55:30Z</time></trkpt><trkpt lat="51.166380468482494" lon="5.1695741539338975"><ele>33.0</ele><time>2026-04-06T11:55:31Z</time></trkpt><trkpt lat="51.16634466324737" lon="5.169464559202738"><ele>33.0</ele><time>2026-04-06T11:55:32Z</time></trkpt><trkpt lat="51.166311548162675" lon="5.16937298640052"><ele>33.0</ele><time>2026-04-06T11:55:33Z</time></trkpt><trkpt lat="51.166280383835065" lon="5.169263381679338"><ele>33.0</ele><time>2026-04-06T11:55:34Z</time></trkpt><trkpt lat="51.1662484964658" lon="5.16914606084519"><ele>32.833333333333336</ele><time>2026-04-06T11:55:35Z</time></trkpt><trkpt lat="51.16621890081618" lon="5.169025852475123"><ele>32.666666666666664</ele><time>2026-04-06T11:55:36Z</time></trkpt><trkpt lat="51.16619523393604" lon="5.168902701272045"><ele>32.5</ele><time>2026-04-06T11:55:37Z</time></trkpt><trkpt lat="51.16617471707757" lon="5.168776494608272"><ele>32.33333333333333</ele><time>2026-04-06T11:55:38Z</time></trkpt><trkpt lat="51.16615792921249" lon="5.16864795292878"><ele>32.166666666666664</ele><time>2026-04-06T11:55:39Z</time></trkpt><trkpt lat="51.16615370695107" lon="5.168523090985634"><ele>32.0</ele><time>2026-04-06T11:55:40Z</time></trkpt><trkpt lat="51.16614752715097" lon="5.1683926421952435"><ele>31.999999999999996</ele><time>2026-04-06T11:55:41Z</time></trkpt><trkpt lat="51.1661424878895" lon="5.168263532565856"><ele>32.0</ele><time>2026-04-06T11:55:42Z</time></trkpt><trkpt lat="51.166140929955546" lon="5.168135895092343"><ele>32.0</ele><time>2026-04-06T11:55:43Z</time></trkpt><trkpt lat="51.166142094413836" lon="5.168003840554023"><ele>32.0</ele><time>2026-04-06T11:55:44Z</time></trkpt><trkpt lat="51.16614511467847" lon="5.167871597243411"><ele>31.999999999999996</ele><time>2026-04-06T11:55:45Z</time></trkpt><trkpt lat="51.16614983044754" lon="5.167738285384023"><ele>32.0</ele><time>2026-04-06T11:55:46Z</time></trkpt><trkpt lat="51.16615551558573" lon="5.167607876517145"><ele>31.857142857142854</ele><time>2026-04-06T11:55:47Z</time></trkpt><trkpt lat="51.16616136672241" lon="5.167482425305589"><ele>31.71428571428571</ele><time>2026-04-06T11:55:48Z</time></trkpt><trkpt lat="51.166166859782074" lon="5.167367977604968"><ele>31.57142857142857</ele><time>2026-04-06T11:55:49Z</time></trkpt><trkpt lat="51.16617227494786" lon="5.167246623258598"><ele>31.42857142857143</ele><time>2026-04-06T11:55:51Z</time></trkpt><trkpt lat="51.16617686172346" lon="5.16714083997449"><ele>31.28571428571429</ele><time>2026-04-06T11:55:54Z</time></trkpt><trkpt lat="51.16618123768936" lon="5.167039918314236"><ele>31.142857142857146</ele><time>2026-04-06T11:56:01Z</time></trkpt><trkpt lat="51.16618654759117" lon="5.166917457595545"><ele>31.0</ele><time>2026-04-06T11:56:03Z</time></trkpt><trkpt lat="51.166191167327604" lon="5.166810913991795"><ele>31.0</ele><time>2026-04-06T11:56:05Z</time></trkpt><trkpt lat="51.166195898853495" lon="5.166701792120757"><ele>31.0</ele><time>2026-04-06T11:56:08Z</time></trkpt><trkpt lat="51.16619590197667" lon="5.1665874344537634"><ele>31.0</ele><time>2026-04-06T11:56:12Z</time></trkpt><trkpt lat="51.16618866216953" lon="5.166480284468563"><ele>31.0</ele><time>2026-04-06T11:56:15Z</time></trkpt><trkpt lat="51.16603399155713" lon="5.166396554653709"><ele>31.0</ele><time>2026-04-06T11:56:17Z</time></trkpt><trkpt lat="51.16593795235571" lon="5.166396286866912"><ele>31.0</ele><time>2026-04-06T11:56:18Z</time></trkpt><trkpt lat="51.165827986340005" lon="5.1663959802506545"><ele>31.0</ele><time>2026-04-06T11:56:19Z</time></trkpt><trkpt lat="51.16572827532837" lon="5.166395702227375"><ele>31.0</ele><time>2026-04-06T11:56:20Z</time></trkpt><trkpt lat="51.165625152518395" lon="5.166395414690871"><ele>31.0</ele><time>2026-04-06T11:56:21Z</time></trkpt><trkpt lat="51.16551691842735" lon="5.166395251470371"><ele>31.0</ele><time>2026-04-06T11:56:22Z</time></trkpt><trkpt lat="51.165401617634714" lon="5.166390895891502"><ele>31.0</ele><time>2026-04-06T11:56:23Z</time></trkpt><trkpt lat="51.165276533047404" lon="5.166392316835353"><ele>31.0</ele><time>2026-04-06T11:56:24Z</time></trkpt><trkpt lat="51.16514967394177" lon="5.166395762898723"><ele>31.0</ele><time>2026-04-06T11:56:25Z</time></trkpt><trkpt lat="51.165027050067714" lon="5.166405565672646"><ele>31.0</ele><time>2026-04-06T11:56:26Z</time></trkpt><trkpt lat="51.16491487619636" lon="5.166417974292323"><ele>31.200000000000003</ele><time>2026-04-06T11:56:27Z</time></trkpt><trkpt lat="51.16481136365289" lon="5.166430167309158"><ele>31.400000000000002</ele><time>2026-04-06T11:56:28Z</time></trkpt><trkpt lat="51.1647068176095" lon="5.166444675004799"><ele>31.6</ele><time>2026-04-06T11:56:29Z</time></trkpt><trkpt lat="51.16460204374485" lon="5.1664632973610916"><ele>31.8</ele><time>2026-04-06T11:56:30Z</time></trkpt><trkpt lat="51.164493951658" lon="5.166483025725138"><ele>32.0</ele><time>2026-04-06T11:56:31Z</time></trkpt><trkpt lat="51.164383575551206" lon="5.1665031709467835"><ele>32.0</ele><time>2026-04-06T11:56:32Z</time></trkpt><trkpt lat="51.1642713451824" lon="5.166523654602845"><ele>32.0</ele><time>2026-04-06T11:56:33Z</time></trkpt><trkpt lat="51.164156247818305" lon="5.166544661529117"><ele>32.0</ele><time>2026-04-06T11:56:34Z</time></trkpt><trkpt lat="51.16403850873101" lon="5.166566868748146"><ele>32.0</ele><time>2026-04-06T11:56:35Z</time></trkpt><trkpt lat="51.16391786747928" lon="5.166589714547907"><ele>32.5</ele><time>2026-04-06T11:56:36Z</time></trkpt><trkpt lat="51.163794701984266" lon="5.166613038353165"><ele>33.0</ele><time>2026-04-06T11:56:37Z</time></trkpt><trkpt lat="51.163668984587886" lon="5.166636845411402"><ele>33.5</ele><time>2026-04-06T11:56:38Z</time></trkpt><trkpt lat="51.16354122348608" lon="5.166661039483374"><ele>34.0</ele><time>2026-04-06T11:56:39Z</time></trkpt><trkpt lat="51.1634114916871" lon="5.166685606743299"><ele>34.0</ele><time>2026-04-06T11:56:40Z</time></trkpt><trkpt lat="51.16327881823652" lon="5.166709785669489"><ele>34.0</ele><time>2026-04-06T11:56:41Z</time></trkpt><trkpt lat="51.163145126008416" lon="5.166733625885634"><ele>34.0</ele><time>2026-04-06T11:56:42Z</time></trkpt><trkpt lat="51.1630118913453" lon="5.166757664928548"><ele>34.0</ele><time>2026-04-06T11:56:43Z</time></trkpt><trkpt lat="51.16288038560683" lon="5.166781669483989"><ele>33.5</ele><time>2026-04-06T11:56:44Z</time></trkpt><trkpt lat="51.1627522124694" lon="5.166804539699287"><ele>33.0</ele><time>2026-04-06T11:56:45Z</time></trkpt><trkpt lat="51.16262629510121" lon="5.166826850493608"><ele>32.5</ele><time>2026-04-06T11:56:46Z</time></trkpt><trkpt lat="51.16249968726883" lon="5.166849283623332"><ele>32.0</ele><time>2026-04-06T11:56:47Z</time></trkpt><trkpt lat="51.162370099432195" lon="5.1668722448330175"><ele>32.25</ele><time>2026-04-06T11:56:48Z</time></trkpt><trkpt lat="51.162241202010996" lon="5.166883432606387"><ele>32.5</ele><time>2026-04-06T11:56:49Z</time></trkpt><trkpt lat="51.16210863545706" lon="5.166888180847434"><ele>32.75</ele><time>2026-04-06T11:56:50Z</time></trkpt><trkpt lat="51.161979273688935" lon="5.166874847923969"><ele>33.0</ele><time>2026-04-06T11:56:51Z</time></trkpt><trkpt lat="51.16184760086331" lon="5.166854790259095"><ele>33.0</ele><time>2026-04-06T11:56:52Z</time></trkpt><trkpt lat="51.16172133997241" lon="5.1668181938908315"><ele>33.0</ele><time>2026-04-06T11:56:53Z</time></trkpt><trkpt lat="51.16159683933592" lon="5.16677469735158"><ele>33.0</ele><time>2026-04-06T11:56:54Z</time></trkpt><trkpt lat="51.1614791370611" lon="5.166723037093217"><ele>33.0</ele><time>2026-04-06T11:56:55Z</time></trkpt><trkpt lat="51.1613646136425" lon="5.166661769024559"><ele>33.0</ele><time>2026-04-06T11:56:56Z</time></trkpt><trkpt lat="51.16125139345086" lon="5.1665927180585784"><ele>33.0</ele><time>2026-04-06T11:56:57Z</time></trkpt><trkpt lat="51.161139059459714" lon="5.166524207630375"><ele>33.0</ele><time>2026-04-06T11:56:58Z</time></trkpt><trkpt lat="51.16102653563103" lon="5.166455581482708"><ele>33.0</ele><time>2026-04-06T11:56:59Z</time></trkpt><trkpt lat="51.160910275578125" lon="5.166384676356233"><ele>33.0</ele><time>2026-04-06T11:57:00Z</time></trkpt><trkpt lat="51.16079447529211" lon="5.166314064950839"><ele>33.0</ele><time>2026-04-06T11:57:01Z</time></trkpt><trkpt lat="51.160675299041884" lon="5.166241420151971"><ele>33.0</ele><time>2026-04-06T11:57:02Z</time></trkpt><trkpt lat="51.16055631692953" lon="5.166168893593929"><ele>33.0</ele><time>2026-04-06T11:57:03Z</time></trkpt><trkpt lat="51.16043400819406" lon="5.16609433962274"><ele>33.0</ele><time>2026-04-06T11:57:04Z</time></trkpt><trkpt lat="51.16031138446652" lon="5.1660192985455415"><ele>33.0</ele><time>2026-04-06T11:57:05Z</time></trkpt><trkpt lat="51.160186368953745" lon="5.165942699541342"><ele>33.0</ele><time>2026-04-06T11:57:06Z</time></trkpt><trkpt lat="51.16006119013085" lon="5.16586600053659"><ele>33.0</ele><time>2026-04-06T11:57:07Z</time></trkpt><trkpt lat="51.15993812823261" lon="5.165789466562835"><ele>33.0</ele><time>2026-04-06T11:57:08Z</time></trkpt><trkpt lat="51.159826185508436" lon="5.165714602103614"><ele>33.0</ele><time>2026-04-06T11:57:09Z</time></trkpt><trkpt lat="51.15971298294895" lon="5.165655438849238"><ele>33.0</ele><time>2026-04-06T11:57:10Z</time></trkpt><trkpt lat="51.15960075726055" lon="5.165591506549675"><ele>33.0</ele><time>2026-04-06T11:57:11Z</time></trkpt><trkpt lat="51.15948319555695" lon="5.165540163208482"><ele>32.75</ele><time>2026-04-06T11:57:12Z</time></trkpt><trkpt lat="51.15936196857293" lon="5.165502032184822"><ele>32.5</ele><time>2026-04-06T11:57:13Z</time></trkpt><trkpt lat="51.15924088705605" lon="5.165464761337368"><ele>32.25</ele><time>2026-04-06T11:57:14Z</time></trkpt><trkpt lat="51.15911689646603" lon="5.165431066497877"><ele>32.0</ele><time>2026-04-06T11:57:15Z</time></trkpt><trkpt lat="51.158997777150674" lon="5.165394661639723"><ele>32.0</ele><time>2026-04-06T11:57:16Z</time></trkpt><trkpt lat="51.15889433455605" lon="5.1653487976019825"><ele>32.0</ele><time>2026-04-06T11:57:17Z</time></trkpt><trkpt lat="51.15879847662395" lon="5.1652931975990395"><ele>32.0</ele><time>2026-04-06T11:57:18Z</time></trkpt><trkpt lat="51.158699660218495" lon="5.165225453785369"><ele>32.0</ele><time>2026-04-06T11:57:19Z</time></trkpt><trkpt lat="51.158604442773246" lon="5.165147667024198"><ele>32.0</ele><time>2026-04-06T11:57:20Z</time></trkpt><trkpt lat="51.158512221441306" lon="5.165063974057973"><ele>32.0</ele><time>2026-04-06T11:57:21Z</time></trkpt><trkpt lat="51.15841830377629" lon="5.164968734476421"><ele>32.0</ele><time>2026-04-06T11:57:22Z</time></trkpt><trkpt lat="51.15832254241777" lon="5.164871389309476"><ele>32.0</ele><time>2026-04-06T11:57:23Z</time></trkpt><trkpt lat="51.15822580595137" lon="5.164772736418812"><ele>32.0</ele><time>2026-04-06T11:57:24Z</time></trkpt><trkpt lat="51.158128190571006" lon="5.164673187212804"><ele>32.2</ele><time>2026-04-06T11:57:25Z</time></trkpt><trkpt lat="51.15803268592401" lon="5.164575790561878"><ele>32.400000000000006</ele><time>2026-04-06T11:57:26Z</time></trkpt><trkpt lat="51.15793911149383" lon="5.164480362348894"><ele>32.599999999999994</ele><time>2026-04-06T11:57:27Z</time></trkpt><trkpt lat="51.15784644155624" lon="5.164385856528384"><ele>32.8</ele><time>2026-04-06T11:57:28Z</time></trkpt><trkpt lat="51.15775618926049" lon="5.164293265763657"><ele>33.0</ele><time>2026-04-06T11:57:29Z</time></trkpt><trkpt lat="51.15766738846146" lon="5.164202317589848"><ele>33.0</ele><time>2026-04-06T11:57:30Z</time></trkpt><trkpt lat="51.157579175567584" lon="5.16411246536709"><ele>33.0</ele><time>2026-04-06T11:57:31Z</time></trkpt><trkpt lat="51.157487881898334" lon="5.164019475069088"><ele>33.0</ele><time>2026-04-06T11:57:32Z</time></trkpt><trkpt lat="51.15739519108703" lon="5.1639250612340835"><ele>33.0</ele><time>2026-04-06T11:57:33Z</time></trkpt><trkpt lat="51.15729677901381" lon="5.163825273213201"><ele>33.0</ele><time>2026-04-06T11:57:34Z</time></trkpt><trkpt lat="51.157195362482476" lon="5.163722394297816"><ele>33.5</ele><time>2026-04-06T11:57:35Z</time></trkpt><trkpt lat="51.15709177457417" lon="5.163617312631587"><ele>34.0</ele><time>2026-04-06T11:57:36Z</time></trkpt><trkpt lat="51.1569863156277" lon="5.1635068593119255"><ele>34.5</ele><time>2026-04-06T11:57:37Z</time></trkpt><trkpt lat="51.15688012962655" lon="5.163387117025757"><ele>35.0</ele><time>2026-04-06T11:57:38Z</time></trkpt><trkpt lat="51.156771773195175" lon="5.163264086758941"><ele>35.0</ele><time>2026-04-06T11:57:39Z</time></trkpt><trkpt lat="51.15667741525939" lon="5.163131945904506"><ele>35.0</ele><time>2026-04-06T11:57:40Z</time></trkpt><trkpt lat="51.156584323814634" lon="5.162982650792276"><ele>35.0</ele><time>2026-04-06T11:57:41Z</time></trkpt><trkpt lat="51.1564953724514" lon="5.162830009164504"><ele>35.0</ele><time>2026-04-06T11:57:42Z</time></trkpt><trkpt lat="51.156412358970556" lon="5.162675175942354"><ele>35.0</ele><time>2026-04-06T11:57:43Z</time></trkpt><trkpt lat="51.15633264408599" lon="5.162510582576205"><ele>35.0</ele><time>2026-04-06T11:57:44Z</time></trkpt><trkpt lat="51.15625583827401" lon="5.162351996017541"><ele>35.0</ele><time>2026-04-06T11:57:45Z</time></trkpt><trkpt lat="51.15618487932757" lon="5.1622054820357945"><ele>35.0</ele><time>2026-04-06T11:57:46Z</time></trkpt><trkpt lat="51.1561240454018" lon="5.162080126357091"><ele>34.666666666666664</ele><time>2026-04-06T11:57:47Z</time></trkpt><trkpt lat="51.15607702188107" lon="5.161983570851779"><ele>34.33333333333333</ele><time>2026-04-06T11:57:48Z</time></trkpt><trkpt lat="51.15603408887705" lon="5.161895414782831"><ele>34.0</ele><time>2026-04-06T11:57:49Z</time></trkpt><trkpt lat="51.15598975464553" lon="5.161804381679942"><ele>33.666666666666664</ele><time>2026-04-06T11:57:50Z</time></trkpt><trkpt lat="51.15593250636524" lon="5.161686831045972"><ele>33.333333333333336</ele><time>2026-04-06T11:57:51Z</time></trkpt><trkpt lat="51.15586130246446" lon="5.161540625064294"><ele>33.0</ele><time>2026-04-06T11:57:52Z</time></trkpt><trkpt lat="51.15577558551099" lon="5.161362282609817"><ele>33.333333333333336</ele><time>2026-04-06T11:57:53Z</time></trkpt><trkpt lat="51.155682767088614" lon="5.161170849156376"><ele>33.66666666666667</ele><time>2026-04-06T11:57:54Z</time></trkpt><trkpt lat="51.15558974175362" lon="5.1609798235200754"><ele>34.0</ele><time>2026-04-06T11:57:55Z</time></trkpt><trkpt lat="51.15549159402765" lon="5.16077808414436"><ele>34.0</ele><time>2026-04-06T11:57:56Z</time></trkpt><trkpt lat="51.155391655605406" lon="5.160571107837169"><ele>34.0</ele><time>2026-04-06T11:57:57Z</time></trkpt><trkpt lat="51.15528346685682" lon="5.160347113338663"><ele>34.0</ele><time>2026-04-06T11:57:58Z</time></trkpt><trkpt lat="51.15518786596963" lon="5.1601507838111935"><ele>34.0</ele><time>2026-04-06T11:57:59Z</time></trkpt><trkpt lat="51.155075730242984" lon="5.159918941303315"><ele>34.0</ele><time>2026-04-06T11:58:00Z</time></trkpt><trkpt lat="51.15496870738286" lon="5.159701307626548"><ele>34.0</ele><time>2026-04-06T11:58:01Z</time></trkpt><trkpt lat="51.154859509116946" lon="5.159485880484988"><ele>33.333333333333336</ele><time>2026-04-06T11:58:02Z</time></trkpt><trkpt lat="51.15474986981357" lon="5.159268901996244"><ele>32.666666666666664</ele><time>2026-04-06T11:58:03Z</time></trkpt><trkpt lat="51.154651439080816" lon="5.159042819884638"><ele>32.0</ele><time>2026-04-06T11:58:04Z</time></trkpt><trkpt lat="51.15455848802489" lon="5.158805971242539"><ele>32.0</ele><time>2026-04-06T11:58:05Z</time></trkpt><trkpt lat="51.154473692136854" lon="5.158561616193606"><ele>32.0</ele><time>2026-04-06T11:58:06Z</time></trkpt><trkpt lat="51.154393321796825" lon="5.158318566246576"><ele>32.0</ele><time>2026-04-06T11:58:07Z</time></trkpt><trkpt lat="51.15432582785534" lon="5.158075182309382"><ele>32.0</ele><time>2026-04-06T11:58:08Z</time></trkpt><trkpt lat="51.15426067389442" lon="5.157826412551788"><ele>32.0</ele><time>2026-04-06T11:58:09Z</time></trkpt><trkpt lat="51.15419488209588" lon="5.1575749053558715"><ele>32.0</ele><time>2026-04-06T11:58:10Z</time></trkpt><trkpt lat="51.154128141933185" lon="5.15731969924984"><ele>32.0</ele><time>2026-04-06T11:58:11Z</time></trkpt><trkpt lat="51.15406095714028" lon="5.1570627930032895"><ele>32.0</ele><time>2026-04-06T11:58:12Z</time></trkpt><trkpt lat="51.153993321887604" lon="5.1568041642438365"><ele>32.0</ele><time>2026-04-06T11:58:13Z</time></trkpt><trkpt lat="51.1539256140123" lon="5.1565452578105155"><ele>31.666666666666664</ele><time>2026-04-06T11:58:14Z</time></trkpt><trkpt lat="51.15385792123655" lon="5.156286409110057"><ele>31.333333333333336</ele><time>2026-04-06T11:58:15Z</time></trkpt><trkpt lat="51.15379022082484" lon="5.15602753119022"><ele>31.0</ele><time>2026-04-06T11:58:16Z</time></trkpt><trkpt lat="51.153722603487005" lon="5.155768970924021"><ele>30.666666666666668</ele><time>2026-04-06T11:58:17Z</time></trkpt><trkpt lat="51.15365562439661" lon="5.155512851280003"><ele>30.333333333333336</ele><time>2026-04-06T11:58:18Z</time></trkpt><trkpt lat="51.15358989862477" lon="5.155258536675172"><ele>30.0</ele><time>2026-04-06T11:58:19Z</time></trkpt><trkpt lat="51.15352424650344" lon="5.155004351395288"><ele>30.0</ele><time>2026-04-06T11:58:20Z</time></trkpt><trkpt lat="51.15345705151661" lon="5.154750722885317"><ele>30.0</ele><time>2026-04-06T11:58:21Z</time></trkpt><trkpt lat="51.153388839198854" lon="5.15449890424328"><ele>30.0</ele><time>2026-04-06T11:58:22Z</time></trkpt><trkpt lat="51.15332604675603" lon="5.154248923952462"><ele>29.666666666666664</ele><time>2026-04-06T11:58:23Z</time></trkpt><trkpt lat="51.153263313571806" lon="5.153996890317858"><ele>29.333333333333332</ele><time>2026-04-06T11:58:24Z</time></trkpt><trkpt lat="51.153197367635215" lon="5.153755105691284"><ele>29.0</ele><time>2026-04-06T11:58:25Z</time></trkpt><trkpt lat="51.153136038532814" lon="5.153530247495191"><ele>29.0</ele><time>2026-04-06T11:58:26Z</time></trkpt><trkpt lat="51.15308662234166" lon="5.153320529035146"><ele>29.0</ele><time>2026-04-06T11:58:27Z</time></trkpt><trkpt lat="51.15303798719441" lon="5.1531174826030535"><ele>29.0</ele><time>2026-04-06T11:58:28Z</time></trkpt><trkpt lat="51.15299378179373" lon="5.1529134295931325"><ele>29.0</ele><time>2026-04-06T11:58:29Z</time></trkpt><trkpt lat="51.15295594253326" lon="5.152706066741809"><ele>29.0</ele><time>2026-04-06T11:58:30Z</time></trkpt><trkpt lat="51.15292452444194" lon="5.152495663098452"><ele>29.0</ele><time>2026-04-06T11:58:31Z</time></trkpt><trkpt lat="51.15290350197075" lon="5.15228686920917"><ele>29.0</ele><time>2026-04-06T11:58:32Z</time></trkpt><trkpt lat="51.15288535193114" lon="5.152079129053361"><ele>29.0</ele><time>2026-04-06T11:58:33Z</time></trkpt><trkpt lat="51.15287374094606" lon="5.151873325322988"><ele>29.0</ele><time>2026-04-06T11:58:34Z</time></trkpt><trkpt lat="51.15286717961846" lon="5.151664912810751"><ele>29.0</ele><time>2026-04-06T11:58:35Z</time></trkpt><trkpt lat="51.15286622883935" lon="5.15145750452453"><ele>29.0</ele><time>2026-04-06T11:58:36Z</time></trkpt><trkpt lat="51.15286716224934" lon="5.1512541034228425"><ele>29.0</ele><time>2026-04-06T11:58:37Z</time></trkpt><trkpt lat="51.15286817854716" lon="5.15106210957275"><ele>28.999999999999996</ele><time>2026-04-06T11:58:38Z</time></trkpt><trkpt lat="51.15286904796296" lon="5.150897863208161"><ele>29.0</ele><time>2026-04-06T11:58:39Z</time></trkpt><trkpt lat="51.15286980259888" lon="5.150755301078997"><ele>29.0</ele><time>2026-04-06T11:58:40Z</time></trkpt><trkpt lat="51.152870452724684" lon="5.150632482591243"><ele>29.0</ele><time>2026-04-06T11:58:41Z</time></trkpt><trkpt lat="51.152871025945664" lon="5.150524192337977"><ele>28.999999999999996</ele><time>2026-04-06T11:58:42Z</time></trkpt><trkpt lat="51.15287182600592" lon="5.150373048229155"><ele>29.0</ele><time>2026-04-06T11:58:44Z</time></trkpt><trkpt lat="51.15287256452644" lon="5.1502465061117855"><ele>29.0</ele><time>2026-04-06T11:58:48Z</time></trkpt><trkpt lat="51.15287346492388" lon="5.150098192845009"><ele>29.0</ele><time>2026-04-06T11:59:12Z</time></trkpt><trkpt lat="51.15287416956267" lon="5.149982124673468"><ele>29.0</ele><time>2026-04-06T11:59:14Z</time></trkpt><trkpt lat="51.152807279948625" lon="5.149865863728799"><ele>29.0</ele><time>2026-04-06T11:59:28Z</time></trkpt><trkpt lat="51.15267759905933" lon="5.14982722469144"><ele>29.0</ele><time>2026-04-06T11:59:30Z</time></trkpt><trkpt lat="51.152589817175645" lon="5.149858171528848"><ele>29.0</ele><time>2026-04-06T11:59:31Z</time></trkpt><trkpt lat="51.15247772029615" lon="5.149951646175752"><ele>29.0</ele><time>2026-04-06T11:59:32Z</time></trkpt><trkpt lat="51.15236614783605" lon="5.150060644512472"><ele>29.0</ele><time>2026-04-06T11:59:33Z</time></trkpt><trkpt lat="51.15225564697845" lon="5.150200321374181"><ele>29.0</ele><time>2026-04-06T11:59:34Z</time></trkpt><trkpt lat="51.152120973155945" lon="5.150327787233279"><ele>29.0</ele><time>2026-04-06T11:59:35Z</time></trkpt><trkpt lat="51.151950665180095" lon="5.150423318501367"><ele>29.0</ele><time>2026-04-06T11:59:36Z</time></trkpt><trkpt lat="51.151765340392586" lon="5.150520184519429"><ele>29.0</ele><time>2026-04-06T11:59:37Z</time></trkpt><trkpt lat="51.15157920217344" lon="5.150633992713123"><ele>28.333333333333332</ele><time>2026-04-06T11:59:38Z</time></trkpt><trkpt lat="51.151386801935054" lon="5.150755536616244"><ele>27.666666666666664</ele><time>2026-04-06T11:59:39Z</time></trkpt><trkpt lat="51.15120303920874" lon="5.150864328149868"><ele>27.0</ele><time>2026-04-06T11:59:40Z</time></trkpt><trkpt lat="51.1510337542708" lon="5.150961337351275"><ele>27.0</ele><time>2026-04-06T11:59:41Z</time></trkpt><trkpt lat="51.15086996567321" lon="5.151060538384018"><ele>27.0</ele><time>2026-04-06T11:59:42Z</time></trkpt><trkpt lat="51.15070736597857" lon="5.151158102775997"><ele>27.0</ele><time>2026-04-06T11:59:43Z</time></trkpt><trkpt lat="51.15055455022224" lon="5.151249973371775"><ele>28.0</ele><time>2026-04-06T11:59:44Z</time></trkpt><trkpt lat="51.15040445826727" lon="5.151335712670902"><ele>29.0</ele><time>2026-04-06T11:59:45Z</time></trkpt><trkpt lat="51.150248943738255" lon="5.1514056117695874"><ele>30.0</ele><time>2026-04-06T11:59:46Z</time></trkpt><trkpt lat="51.15009645694422" lon="5.151495259409315"><ele>31.0</ele><time>2026-04-06T11:59:47Z</time></trkpt><trkpt lat="51.14993988459899" lon="5.151589210754713"><ele>32.0</ele><time>2026-04-06T11:59:48Z</time></trkpt><trkpt lat="51.149788883158195" lon="5.151706988204935"><ele>33.0</ele><time>2026-04-06T11:59:49Z</time></trkpt><trkpt lat="51.14963606169356" lon="5.151799103393533"><ele>33.0</ele><time>2026-04-06T11:59:50Z</time></trkpt><trkpt lat="51.149478875345174" lon="5.151865351413998"><ele>33.0</ele><time>2026-04-06T11:59:51Z</time></trkpt><trkpt lat="51.14933004846755" lon="5.151965508643475"><ele>33.0</ele><time>2026-04-06T11:59:52Z</time></trkpt><trkpt lat="51.149169353703236" lon="5.151974121652329"><ele>31.0</ele><time>2026-04-06T11:59:53Z</time></trkpt><trkpt lat="51.149012315639574" lon="5.151969451688291"><ele>29.0</ele><time>2026-04-06T11:59:54Z</time></trkpt><trkpt lat="51.148855625908894" lon="5.151941445217339"><ele>27.0</ele><time>2026-04-06T11:59:55Z</time></trkpt><trkpt lat="51.14869883336437" lon="5.151909320245603"><ele>27.0</ele><time>2026-04-06T11:59:56Z</time></trkpt><trkpt lat="51.14854629671346" lon="5.151879899595499"><ele>27.0</ele><time>2026-04-06T11:59:57Z</time></trkpt><trkpt lat="51.14840358943258" lon="5.151850665357787"><ele>27.0</ele><time>2026-04-06T11:59:58Z</time></trkpt><trkpt lat="51.14826780931307" lon="5.151823647149063"><ele>27.0</ele><time>2026-04-06T11:59:59Z</time></trkpt><trkpt lat="51.148130562663845" lon="5.1517950318912025"><ele>27.25</ele><time>2026-04-06T12:00:00Z</time></trkpt><trkpt lat="51.14799291082611" lon="5.1517674046016655"><ele>27.5</ele><time>2026-04-06T12:00:01Z</time></trkpt><trkpt lat="51.14785655222287" lon="5.151739923705722"><ele>27.75</ele><time>2026-04-06T12:00:02Z</time></trkpt><trkpt lat="51.1477157593437" lon="5.151711416936372"><ele>28.0</ele><time>2026-04-06T12:00:03Z</time></trkpt><trkpt lat="51.14757414237981" lon="5.151682743265211"><ele>28.0</ele><time>2026-04-06T12:00:04Z</time></trkpt><trkpt lat="51.14743147974297" lon="5.151653851741909"><ele>28.0</ele><time>2026-04-06T12:00:05Z</time></trkpt><trkpt lat="51.14728776699018" lon="5.151624679449653"><ele>28.0</ele><time>2026-04-06T12:00:06Z</time></trkpt><trkpt lat="51.147143447544266" lon="5.151595385163362"><ele>28.0</ele><time>2026-04-06T12:00:07Z</time></trkpt><trkpt lat="51.14699882018254" lon="5.151566027223971"><ele>27.75</ele><time>2026-04-06T12:00:08Z</time></trkpt><trkpt lat="51.146853292398575" lon="5.151536393609952"><ele>27.5</ele><time>2026-04-06T12:00:09Z</time></trkpt><trkpt lat="51.14670628604475" lon="5.151506353175383"><ele>27.25</ele><time>2026-04-06T12:00:10Z</time></trkpt><trkpt lat="51.146557802178556" lon="5.151477498280735"><ele>27.0</ele><time>2026-04-06T12:00:11Z</time></trkpt><trkpt lat="51.14640992676132" lon="5.1514479146030165"><ele>27.75</ele><time>2026-04-06T12:00:12Z</time></trkpt><trkpt lat="51.14626184022844" lon="5.151417637775538"><ele>28.5</ele><time>2026-04-06T12:00:13Z</time></trkpt><trkpt lat="51.146114227789035" lon="5.151390513421551"><ele>29.25</ele><time>2026-04-06T12:00:14Z</time></trkpt><trkpt lat="51.145979785942565" lon="5.151366123126145"><ele>30.0</ele><time>2026-04-06T12:00:15Z</time></trkpt><trkpt lat="51.14585185980987" lon="5.151341586254087"><ele>30.0</ele><time>2026-04-06T12:00:16Z</time></trkpt><trkpt lat="51.14572704241162" lon="5.151316004983263"><ele>30.0</ele><time>2026-04-06T12:00:17Z</time></trkpt><trkpt lat="51.14560681423687" lon="5.151293430097299"><ele>30.0</ele><time>2026-04-06T12:00:18Z</time></trkpt><trkpt lat="51.145498205142744" lon="5.151286665659993"><ele>30.0</ele><time>2026-04-06T12:00:19Z</time></trkpt><trkpt lat="51.1453856859759" lon="5.151273083645327"><ele>30.0</ele><time>2026-04-06T12:00:20Z</time></trkpt><trkpt lat="51.14526882489375" lon="5.151224335864038"><ele>30.0</ele><time>2026-04-06T12:00:21Z</time></trkpt><trkpt lat="51.14514392288151" lon="5.151197032229941"><ele>30.0</ele><time>2026-04-06T12:00:22Z</time></trkpt><trkpt lat="51.14501214241553" lon="5.151170452386076"><ele>30.0</ele><time>2026-04-06T12:00:23Z</time></trkpt><trkpt lat="51.14487583500857" lon="5.151143677286829"><ele>30.0</ele><time>2026-04-06T12:00:24Z</time></trkpt><trkpt lat="51.14474594595212" lon="5.151116532782366"><ele>30.0</ele><time>2026-04-06T12:00:25Z</time></trkpt><trkpt lat="51.14463197006669" lon="5.151092713911591"><ele>30.0</ele><time>2026-04-06T12:00:26Z</time></trkpt><trkpt lat="51.14452515943119" lon="5.151070554301251"><ele>30.0</ele><time>2026-04-06T12:00:27Z</time></trkpt><trkpt lat="51.14442744495554" lon="5.1510505576692776"><ele>30.0</ele><time>2026-04-06T12:00:28Z</time></trkpt><trkpt lat="51.144332636433006" lon="5.151031155753927"><ele>30.0</ele><time>2026-04-06T12:00:29Z</time></trkpt><trkpt lat="51.144236502654735" lon="5.151011482686353"><ele>30.0</ele><time>2026-04-06T12:00:30Z</time></trkpt><trkpt lat="51.14412896669347" lon="5.150985341134992"><ele>30.0</ele><time>2026-04-06T12:00:31Z</time></trkpt><trkpt lat="51.144017525558446" lon="5.150958198567616"><ele>30.0</ele><time>2026-04-06T12:00:32Z</time></trkpt><trkpt lat="51.14392002269009" lon="5.15093445079862"><ele>30.0</ele><time>2026-04-06T12:00:33Z</time></trkpt><trkpt lat="51.14382560151708" lon="5.150914487413721"><ele>30.0</ele><time>2026-04-06T12:00:34Z</time></trkpt><trkpt lat="51.14372411150889" lon="5.150894297199881"><ele>30.0</ele><time>2026-04-06T12:00:35Z</time></trkpt><trkpt lat="51.14362026331552" lon="5.150873637828122"><ele>30.0</ele><time>2026-04-06T12:00:36Z</time></trkpt><trkpt lat="51.143514979100864" lon="5.1508526927811396"><ele>30.0</ele><time>2026-04-06T12:00:37Z</time></trkpt><trkpt lat="51.14341280391463" lon="5.1508323662427244"><ele>30.0</ele><time>2026-04-06T12:00:38Z</time></trkpt><trkpt lat="51.14331891117074" lon="5.150813687402884"><ele>30.0</ele><time>2026-04-06T12:00:39Z</time></trkpt><trkpt lat="51.14321968701611" lon="5.150795895969334"><ele>30.0</ele><time>2026-04-06T12:00:40Z</time></trkpt><trkpt lat="51.143121760717065" lon="5.150776926503321"><ele>30.0</ele><time>2026-04-06T12:00:41Z</time></trkpt><trkpt lat="51.14302319485963" lon="5.150759661647568"><ele>30.0</ele><time>2026-04-06T12:00:42Z</time></trkpt><trkpt lat="51.142923060829595" lon="5.150742122110795"><ele>30.0</ele><time>2026-04-06T12:00:43Z</time></trkpt><trkpt lat="51.14282301706672" lon="5.150724598385744"><ele>30.0</ele><time>2026-04-06T12:00:44Z</time></trkpt><trkpt lat="51.14273425386577" lon="5.150708169939761"><ele>30.0</ele><time>2026-04-06T12:00:45Z</time></trkpt><trkpt lat="51.14265065643278" lon="5.150689253975873"><ele>30.0</ele><time>2026-04-06T12:00:46Z</time></trkpt><trkpt lat="51.14256787261406" lon="5.150670522105746"><ele>30.0</ele><time>2026-04-06T12:00:47Z</time></trkpt><trkpt lat="51.14247867210893" lon="5.150651706160802"><ele>30.0</ele><time>2026-04-06T12:00:48Z</time></trkpt><trkpt lat="51.14239109193137" lon="5.1506386664001536"><ele>30.166666666666668</ele><time>2026-04-06T12:00:49Z</time></trkpt><trkpt lat="51.142309565271795" lon="5.150638114306697"><ele>30.333333333333336</ele><time>2026-04-06T12:00:50Z</time></trkpt><trkpt lat="51.14223170732489" lon="5.150646083527123"><ele>30.5</ele><time>2026-04-06T12:00:51Z</time></trkpt><trkpt lat="51.14215560610202" lon="5.1506541850518595"><ele>30.666666666666668</ele><time>2026-04-06T12:00:52Z</time></trkpt><trkpt lat="51.14207687254133" lon="5.150678429069402"><ele>30.833333333333336</ele><time>2026-04-06T12:00:53Z</time></trkpt><trkpt lat="51.141996634259115" lon="5.150707957819459"><ele>31.0</ele><time>2026-04-06T12:00:54Z</time></trkpt><trkpt lat="51.14191481693375" lon="5.1507422922177994"><ele>31.000000000000004</ele><time>2026-04-06T12:00:55Z</time></trkpt><trkpt lat="51.14183121054978" lon="5.150780953783958"><ele>31.0</ele><time>2026-04-06T12:00:56Z</time></trkpt><trkpt lat="51.14175179479525" lon="5.150828745470903"><ele>31.0</ele><time>2026-04-06T12:00:57Z</time></trkpt><trkpt lat="51.141660579855774" lon="5.1508848334235"><ele>31.0</ele><time>2026-04-06T12:00:59Z</time></trkpt><trkpt lat="51.141596876662064" lon="5.150925829105967"><ele>31.000000000000004</ele><time>2026-04-06T12:01:02Z</time></trkpt><trkpt lat="51.141517275060274" lon="5.150977056720188"><ele>31.0</ele><time>2026-04-06T12:01:06Z</time></trkpt><trkpt lat="51.14144542934335" lon="5.151024402793324"><ele>31.0</ele><time>2026-04-06T12:01:09Z</time></trkpt><trkpt lat="51.14135178133722" lon="5.151085598343551"><ele>31.0</ele><time>2026-04-06T12:01:11Z</time></trkpt><trkpt lat="51.14123469187137" lon="5.151162111911824"><ele>31.0</ele><time>2026-04-06T12:01:13Z</time></trkpt><trkpt lat="51.14112983660169" lon="5.151229764649095"><ele>31.0</ele><time>2026-04-06T12:01:15Z</time></trkpt><trkpt lat="51.14102451185406" lon="5.1512974007643475"><ele>31.0</ele><time>2026-04-06T12:01:17Z</time></trkpt><trkpt lat="51.14094897654484" lon="5.151345907362216"><ele>31.000000000000004</ele><time>2026-04-06T12:01:18Z</time></trkpt><trkpt lat="51.14088054055119" lon="5.151389987450182"><ele>31.0</ele><time>2026-04-06T12:01:19Z</time></trkpt><trkpt lat="51.14081723175881" lon="5.151430738058548"><ele>31.0</ele><time>2026-04-06T12:01:20Z</time></trkpt><trkpt lat="51.14075518980996" lon="5.151470673267406"><ele>31.000000000000004</ele><time>2026-04-06T12:01:21Z</time></trkpt><trkpt lat="51.14069170012078" lon="5.151511540310471"><ele>31.0</ele><time>2026-04-06T12:01:22Z</time></trkpt><trkpt lat="51.14062331492238" lon="5.151555558530581"><ele>31.0</ele><time>2026-04-06T12:01:23Z</time></trkpt><trkpt lat="51.140551483541806" lon="5.151601794972218"><ele>31.000000000000004</ele><time>2026-04-06T12:01:24Z</time></trkpt><trkpt lat="51.14047729941473" lon="5.151649545835441"><ele>31.0</ele><time>2026-04-06T12:01:25Z</time></trkpt><trkpt lat="51.14039991898642" lon="5.151699302818377"><ele>31.0</ele><time>2026-04-06T12:01:26Z</time></trkpt><trkpt lat="51.14032109124861" lon="5.151749942210472"><ele>31.0</ele><time>2026-04-06T12:01:27Z</time></trkpt><trkpt lat="51.14024223940372" lon="5.151800594597597"><ele>31.000000000000004</ele><time>2026-04-06T12:01:28Z</time></trkpt><trkpt lat="51.140162366294085" lon="5.1518519029773"><ele>31.0</ele><time>2026-04-06T12:01:29Z</time></trkpt><trkpt lat="51.14008915572519" lon="5.151898931443798"><ele>31.000000000000004</ele><time>2026-04-06T12:01:30Z</time></trkpt><trkpt lat="51.1400212798204" lon="5.151942533222118"><ele>31.0</ele><time>2026-04-06T12:01:31Z</time></trkpt><trkpt lat="51.13995732204439" lon="5.151983618080477"><ele>31.0</ele><time>2026-04-06T12:01:32Z</time></trkpt><trkpt lat="51.13986361901663" lon="5.152043810290519"><ele>31.0</ele><time>2026-04-06T12:01:34Z</time></trkpt><trkpt lat="51.13978253111173" lon="5.152095899082763"><ele>31.000000000000004</ele><time>2026-04-06T12:01:36Z</time></trkpt><trkpt lat="51.13968289726504" lon="5.152159901351292"><ele>31.0</ele><time>2026-04-06T12:01:38Z</time></trkpt><trkpt lat="51.13956349114385" lon="5.152235446123711"><ele>30.833333333333336</ele><time>2026-04-06T12:01:40Z</time></trkpt><trkpt lat="51.13949208029418" lon="5.152280544901573"><ele>30.666666666666668</ele><time>2026-04-06T12:01:41Z</time></trkpt><trkpt lat="51.13942238453527" lon="5.1523237662715236"><ele>30.5</ele><time>2026-04-06T12:01:42Z</time></trkpt><trkpt lat="51.13936224470687" lon="5.152361144253215"><ele>30.333333333333336</ele><time>2026-04-06T12:01:43Z</time></trkpt><trkpt lat="51.139258389519455" lon="5.152425343876369"><ele>30.166666666666668</ele><time>2026-04-06T12:01:45Z</time></trkpt><trkpt lat="51.139186162245736" lon="5.15246999232588"><ele>30.0</ele><time>2026-04-06T12:01:47Z</time></trkpt><trkpt lat="51.139105236217944" lon="5.152442109246245"><ele>30.0</ele><time>2026-04-06T12:01:49Z</time></trkpt><trkpt lat="51.139085649159476" lon="5.152255105818567"><ele>30.0</ele><time>2026-04-06T12:01:50Z</time></trkpt><trkpt lat="51.13904046498282" lon="5.15211431732367"><ele>30.0</ele><time>2026-04-06T12:01:51Z</time></trkpt><trkpt lat="51.139045407387975" lon="5.15195503896655"><ele>30.0</ele><time>2026-04-06T12:01:52Z</time></trkpt><trkpt lat="51.139028057770226" lon="5.151786652961482"><ele>30.0</ele><time>2026-04-06T12:01:53Z</time></trkpt><trkpt lat="51.13900790030324" lon="5.1515910155445175"><ele>29.75</ele><time>2026-04-06T12:01:54Z</time></trkpt><trkpt lat="51.13898553099392" lon="5.151373911078871"><ele>29.5</ele><time>2026-04-06T12:01:55Z</time></trkpt><trkpt lat="51.13896403010515" lon="5.15116401747363"><ele>29.25</ele><time>2026-04-06T12:01:56Z</time></trkpt><trkpt lat="51.13894333864503" lon="5.150960647585487"><ele>29.0</ele><time>2026-04-06T12:01:57Z</time></trkpt><trkpt lat="51.13892247707878" lon="5.150755605726988"><ele>29.0</ele><time>2026-04-06T12:01:58Z</time></trkpt><trkpt lat="51.138901277393686" lon="5.150547240620823"><ele>29.0</ele><time>2026-04-06T12:01:59Z</time></trkpt><trkpt lat="51.13887904840684" lon="5.150328758798524"><ele>29.0</ele><time>2026-04-06T12:02:00Z</time></trkpt><trkpt lat="51.138855913000064" lon="5.1501013681475225"><ele>29.0</ele><time>2026-04-06T12:02:01Z</time></trkpt><trkpt lat="51.138833632620305" lon="5.149861665254632"><ele>28.666666666666664</ele><time>2026-04-06T12:02:02Z</time></trkpt><trkpt lat="51.138805243621896" lon="5.149604537776791"><ele>28.333333333333336</ele><time>2026-04-06T12:02:03Z</time></trkpt><trkpt lat="51.13877732520133" lon="5.149335971333142"><ele>28.0</ele><time>2026-04-06T12:02:04Z</time></trkpt><trkpt lat="51.13874787897854" lon="5.149053721384263"><ele>28.666666666666668</ele><time>2026-04-06T12:02:05Z</time></trkpt><trkpt lat="51.138720918586905" lon="5.148792901800865"><ele>29.333333333333336</ele><time>2026-04-06T12:02:06Z</time></trkpt><trkpt lat="51.1386940841149" lon="5.148540846062839"><ele>30.0</ele><time>2026-04-06T12:02:07Z</time></trkpt><trkpt lat="51.138667632102994" lon="5.148286624074629"><ele>30.0</ele><time>2026-04-06T12:02:08Z</time></trkpt><trkpt lat="51.13864006652518" lon="5.1480316424677595"><ele>30.0</ele><time>2026-04-06T12:02:09Z</time></trkpt><trkpt lat="51.138612596724926" lon="5.147774886457926"><ele>30.0</ele><time>2026-04-06T12:02:10Z</time></trkpt><trkpt lat="51.13858631741935" lon="5.1475180487549705"><ele>29.333333333333336</ele><time>2026-04-06T12:02:11Z</time></trkpt><trkpt lat="51.1385624871454" lon="5.147254660686429"><ele>28.666666666666668</ele><time>2026-04-06T12:02:12Z</time></trkpt><trkpt lat="51.138540465394456" lon="5.146985939520093"><ele>28.0</ele><time>2026-04-06T12:02:13Z</time></trkpt><trkpt lat="51.13852553278258" lon="5.14671101141499"><ele>27.333333333333336</ele><time>2026-04-06T12:02:14Z</time></trkpt><trkpt lat="51.1385146382836" lon="5.146429769706771"><ele>26.666666666666664</ele><time>2026-04-06T12:02:15Z</time></trkpt><trkpt lat="51.13851543768101" lon="5.146146934410377"><ele>26.0</ele><time>2026-04-06T12:02:16Z</time></trkpt><trkpt lat="51.1385161484711" lon="5.145859931578328"><ele>27.0</ele><time>2026-04-06T12:02:17Z</time></trkpt><trkpt lat="51.138527872104945" lon="5.145588405206537"><ele>28.0</ele><time>2026-04-06T12:02:18Z</time></trkpt><trkpt lat="51.13854043298321" lon="5.145335366486709"><ele>29.0</ele><time>2026-04-06T12:02:19Z</time></trkpt><trkpt lat="51.13855717213665" lon="5.145105051217103"><ele>29.0</ele><time>2026-04-06T12:02:20Z</time></trkpt><trkpt lat="51.13857444651667" lon="5.144889910278388"><ele>29.0</ele><time>2026-04-06T12:02:21Z</time></trkpt><trkpt lat="51.13859205733384" lon="5.144675621944428"><ele>29.0</ele><time>2026-04-06T12:02:22Z</time></trkpt><trkpt lat="51.13861041435363" lon="5.144465176013636"><ele>29.0</ele><time>2026-04-06T12:02:23Z</time></trkpt><trkpt lat="51.138628599379004" lon="5.144255419068594"><ele>29.25</ele><time>2026-04-06T12:02:24Z</time></trkpt><trkpt lat="51.13864705756178" lon="5.144044515864144"><ele>29.5</ele><time>2026-04-06T12:02:25Z</time></trkpt><trkpt lat="51.138665787650794" lon="5.143829971981479"><ele>29.75</ele><time>2026-04-06T12:02:26Z</time></trkpt><trkpt lat="51.13868405046449" lon="5.14361485696884"><ele>30.0</ele><time>2026-04-06T12:02:27Z</time></trkpt><trkpt lat="51.138702676944845" lon="5.143390866910064"><ele>30.0</ele><time>2026-04-06T12:02:28Z</time></trkpt><trkpt lat="51.13872497865728" lon="5.143153287130686"><ele>30.0</ele><time>2026-04-06T12:02:29Z</time></trkpt><trkpt lat="51.138744125060946" lon="5.1429025076201205"><ele>30.0</ele><time>2026-04-06T12:02:30Z</time></trkpt><trkpt lat="51.13875842615175" lon="5.1426394495938546"><ele>30.333333333333336</ele><time>2026-04-06T12:02:31Z</time></trkpt><trkpt lat="51.138761775271476" lon="5.142374165581795"><ele>30.666666666666668</ele><time>2026-04-06T12:02:32Z</time></trkpt><trkpt lat="51.138750758583896" lon="5.142099188212482"><ele>31.0</ele><time>2026-04-06T12:02:33Z</time></trkpt><trkpt lat="51.13872015171015" lon="5.141824129725434"><ele>31.0</ele><time>2026-04-06T12:02:34Z</time></trkpt><trkpt lat="51.13866910017537" lon="5.141548345901165"><ele>31.0</ele><time>2026-04-06T12:02:35Z</time></trkpt><trkpt lat="51.13860762004545" lon="5.1412814050000675"><ele>31.0</ele><time>2026-04-06T12:02:36Z</time></trkpt><trkpt lat="51.13853447830304" lon="5.1410134145776825"><ele>31.0</ele><time>2026-04-06T12:02:37Z</time></trkpt><trkpt lat="51.13844793128986" lon="5.140768691393626"><ele>31.0</ele><time>2026-04-06T12:02:38Z</time></trkpt><trkpt lat="51.138364832521745" lon="5.14053204493052"><ele>31.0</ele><time>2026-04-06T12:02:39Z</time></trkpt><trkpt lat="51.13828245237699" lon="5.14029756527239"><ele>30.666666666666668</ele><time>2026-04-06T12:02:40Z</time></trkpt><trkpt lat="51.138201616856804" lon="5.140067482223702"><ele>30.333333333333336</ele><time>2026-04-06T12:02:41Z</time></trkpt><trkpt lat="51.1381207810627" lon="5.1398373983760575"><ele>30.0</ele><time>2026-04-06T12:02:42Z</time></trkpt><trkpt lat="51.13804012312496" lon="5.13960782077141"><ele>30.0</ele><time>2026-04-06T12:02:43Z</time></trkpt><trkpt lat="51.137958982477066" lon="5.139376711224165"><ele>30.0</ele><time>2026-04-06T12:02:44Z</time></trkpt><trkpt lat="51.13787594534361" lon="5.13914452466999"><ele>30.0</ele><time>2026-04-06T12:02:45Z</time></trkpt><trkpt lat="51.137793350134224" lon="5.1389164502408615"><ele>29.666666666666664</ele><time>2026-04-06T12:02:46Z</time></trkpt><trkpt lat="51.137707332805654" lon="5.138690539791257"><ele>29.333333333333332</ele><time>2026-04-06T12:02:47Z</time></trkpt><trkpt lat="51.13761327241543" lon="5.138477970072551"><ele>29.0</ele><time>2026-04-06T12:02:48Z</time></trkpt><trkpt lat="51.13752172530472" lon="5.138270449812595"><ele>29.0</ele><time>2026-04-06T12:02:49Z</time></trkpt><trkpt lat="51.13742820829452" lon="5.138072920245617"><ele>29.0</ele><time>2026-04-06T12:02:50Z</time></trkpt><trkpt lat="51.13733507547723" lon="5.1378808595117205"><ele>29.0</ele><time>2026-04-06T12:02:51Z</time></trkpt><trkpt lat="51.1372429201441" lon="5.1376908145034"><ele>29.0</ele><time>2026-04-06T12:02:52Z</time></trkpt><trkpt lat="51.13715028573047" lon="5.13750508881347"><ele>29.0</ele><time>2026-04-06T12:02:53Z</time></trkpt><trkpt lat="51.13706092791266" lon="5.137319711951033"><ele>29.0</ele><time>2026-04-06T12:02:54Z</time></trkpt><trkpt lat="51.136975649415064" lon="5.137131142897496"><ele>29.0</ele><time>2026-04-06T12:02:55Z</time></trkpt><trkpt lat="51.13690005364142" lon="5.136932056027608"><ele>29.25</ele><time>2026-04-06T12:02:56Z</time></trkpt><trkpt lat="51.13683138784254" lon="5.136722545232587"><ele>29.5</ele><time>2026-04-06T12:02:57Z</time></trkpt><trkpt lat="51.13676220267763" lon="5.1365112950547465"><ele>29.75</ele><time>2026-04-06T12:02:58Z</time></trkpt><trkpt lat="51.13669400942488" lon="5.136300892868934"><ele>30.0</ele><time>2026-04-06T12:02:59Z</time></trkpt><trkpt lat="51.13662835551044" lon="5.136085279422621"><ele>30.333333333333336</ele><time>2026-04-06T12:03:00Z</time></trkpt><trkpt lat="51.136558973883496" lon="5.135869500540014"><ele>30.666666666666668</ele><time>2026-04-06T12:03:01Z</time></trkpt><trkpt lat="51.13648869785307" lon="5.135656508835602"><ele>31.0</ele><time>2026-04-06T12:03:02Z</time></trkpt><trkpt lat="51.13641883746546" lon="5.135444320326495"><ele>30.333333333333336</ele><time>2026-04-06T12:03:03Z</time></trkpt><trkpt lat="51.1363484269256" lon="5.1352296795506875"><ele>29.666666666666664</ele><time>2026-04-06T12:03:04Z</time></trkpt><trkpt lat="51.13627810008888" lon="5.135015748062695"><ele>29.0</ele><time>2026-04-06T12:03:05Z</time></trkpt><trkpt lat="51.13620777951306" lon="5.134801835602489"><ele>28.5</ele><time>2026-04-06T12:03:06Z</time></trkpt><trkpt lat="51.136140355234645" lon="5.134596733548431"><ele>28.0</ele><time>2026-04-06T12:03:07Z</time></trkpt><trkpt lat="51.136077462471846" lon="5.134405416189917"><ele>27.5</ele><time>2026-04-06T12:03:08Z</time></trkpt><trkpt lat="51.13601604478651" lon="5.134218586081705"><ele>27.0</ele><time>2026-04-06T12:03:09Z</time></trkpt><trkpt lat="51.13596485736214" lon="5.134062876053921"><ele>27.333333333333332</ele><time>2026-04-06T12:03:10Z</time></trkpt><trkpt lat="51.13592898006106" lon="5.1339537121419365"><ele>27.666666666666664</ele><time>2026-04-06T12:03:11Z</time></trkpt><trkpt lat="51.13589536214147" lon="5.133851191644981"><ele>28.0</ele><time>2026-04-06T12:03:13Z</time></trkpt><trkpt lat="51.13586026987209" lon="5.133744174975836"><ele>28.333333333333332</ele><time>2026-04-06T12:03:22Z</time></trkpt><trkpt lat="51.13581660903386" lon="5.133611036152039"><ele>28.666666666666664</ele><time>2026-04-06T12:03:25Z</time></trkpt><trkpt lat="51.13576570841711" lon="5.1334558583181575"><ele>29.0</ele><time>2026-04-06T12:03:27Z</time></trkpt><trkpt lat="51.13573504318533" lon="5.133362370961691"><ele>29.0</ele><time>2026-04-06T12:03:28Z</time></trkpt><trkpt lat="51.13570078340883" lon="5.133255729118001"><ele>29.0</ele><time>2026-04-06T12:03:29Z</time></trkpt><trkpt lat="51.1356641592984" lon="5.133136171413014"><ele>29.0</ele><time>2026-04-06T12:03:30Z</time></trkpt><trkpt lat="51.135628684516064" lon="5.132996322029201"><ele>29.0</ele><time>2026-04-06T12:03:31Z</time></trkpt><trkpt lat="51.1356014205984" lon="5.132841528815013"><ele>29.0</ele><time>2026-04-06T12:03:32Z</time></trkpt><trkpt lat="51.13557676136754" lon="5.132642851997899"><ele>29.0</ele><time>2026-04-06T12:03:33Z</time></trkpt><trkpt lat="51.13555352125524" lon="5.132456152224431"><ele>29.0</ele><time>2026-04-06T12:03:34Z</time></trkpt><trkpt lat="51.13552801864536" lon="5.1322579877688215"><ele>29.0</ele><time>2026-04-06T12:03:35Z</time></trkpt><trkpt lat="51.13549944808696" lon="5.13205622319712"><ele>29.0</ele><time>2026-04-06T12:03:36Z</time></trkpt><trkpt lat="51.13546897170268" lon="5.1318453186137445"><ele>29.25</ele><time>2026-04-06T12:03:37Z</time></trkpt><trkpt lat="51.13543911549589" lon="5.131631470868656"><ele>29.5</ele><time>2026-04-06T12:03:38Z</time></trkpt><trkpt lat="51.1354085007108" lon="5.1314191717871225"><ele>29.75</ele><time>2026-04-06T12:03:39Z</time></trkpt><trkpt lat="51.13537730147193" lon="5.131198563590508"><ele>30.0</ele><time>2026-04-06T12:03:40Z</time></trkpt><trkpt lat="51.135343981778284" lon="5.130968661561198"><ele>30.0</ele><time>2026-04-06T12:03:41Z</time></trkpt><trkpt lat="51.13530914134152" lon="5.130723232975829"><ele>30.0</ele><time>2026-04-06T12:03:42Z</time></trkpt><trkpt lat="51.135275541823276" lon="5.1304863554991265"><ele>30.0</ele><time>2026-04-06T12:03:43Z</time></trkpt><trkpt lat="51.135243286837756" lon="5.130254061277255"><ele>30.0</ele><time>2026-04-06T12:03:44Z</time></trkpt><trkpt lat="51.135210186931324" lon="5.130018977651939"><ele>30.0</ele><time>2026-04-06T12:03:45Z</time></trkpt><trkpt lat="51.13517684063996" lon="5.129781271746897"><ele>30.0</ele><time>2026-04-06T12:03:46Z</time></trkpt><trkpt lat="51.13514338449208" lon="5.129537109233515"><ele>29.666666666666664</ele><time>2026-04-06T12:03:47Z</time></trkpt><trkpt lat="51.135108162322595" lon="5.12928970953575"><ele>29.333333333333332</ele><time>2026-04-06T12:03:48Z</time></trkpt><trkpt lat="51.13507306617707" lon="5.129042688897102"><ele>29.0</ele><time>2026-04-06T12:03:49Z</time></trkpt><trkpt lat="51.13503777537602" lon="5.128794168559898"><ele>30.333333333333332</ele><time>2026-04-06T12:03:50Z</time></trkpt><trkpt lat="51.135001209317004" lon="5.128542211842879"><ele>31.666666666666664</ele><time>2026-04-06T12:03:51Z</time></trkpt><trkpt lat="51.13496457404266" lon="5.128289895039765"><ele>33.0</ele><time>2026-04-06T12:03:52Z</time></trkpt><trkpt lat="51.13492447108087" lon="5.128038053639034"><ele>30.333333333333336</ele><time>2026-04-06T12:03:53Z</time></trkpt><trkpt lat="51.13488276268448" lon="5.127786094286638"><ele>27.666666666666668</ele><time>2026-04-06T12:03:54Z</time></trkpt><trkpt lat="51.13482518378106" lon="5.127531791191"><ele>25.0</ele><time>2026-04-06T12:03:55Z</time></trkpt><trkpt lat="51.13476704788491" lon="5.127282753673593"><ele>24.666666666666668</ele><time>2026-04-06T12:03:56Z</time></trkpt><trkpt lat="51.13470362339753" lon="5.127032276528025"><ele>24.333333333333336</ele><time>2026-04-06T12:03:57Z</time></trkpt><trkpt lat="51.134635620414" lon="5.12677860122956"><ele>24.0</ele><time>2026-04-06T12:03:58Z</time></trkpt><trkpt lat="51.1345681353721" lon="5.1265293238983665"><ele>24.0</ele><time>2026-04-06T12:03:59Z</time></trkpt><trkpt lat="51.13450238922987" lon="5.126273641871645"><ele>24.0</ele><time>2026-04-06T12:04:00Z</time></trkpt><trkpt lat="51.13443682581592" lon="5.1260180279811"><ele>24.0</ele><time>2026-04-06T12:04:01Z</time></trkpt><trkpt lat="51.13436810998906" lon="5.125759237906761"><ele>25.0</ele><time>2026-04-06T12:04:02Z</time></trkpt><trkpt lat="51.13430050132389" lon="5.12550866097397"><ele>26.0</ele><time>2026-04-06T12:04:03Z</time></trkpt><trkpt lat="51.134233707418836" lon="5.125262260522871"><ele>27.0</ele><time>2026-04-06T12:04:04Z</time></trkpt><trkpt lat="51.13417680892871" lon="5.125022093932749"><ele>27.333333333333336</ele><time>2026-04-06T12:04:05Z</time></trkpt><trkpt lat="51.13412048481252" lon="5.124775356148669"><ele>27.666666666666668</ele><time>2026-04-06T12:04:06Z</time></trkpt><trkpt lat="51.13406968964723" lon="5.124541064080989"><ele>28.0</ele><time>2026-04-06T12:04:07Z</time></trkpt><trkpt lat="51.13401940168105" lon="5.124300530290076"><ele>27.666666666666668</ele><time>2026-04-06T12:04:08Z</time></trkpt><trkpt lat="51.13396853081911" lon="5.124057208130543"><ele>27.333333333333336</ele><time>2026-04-06T12:04:09Z</time></trkpt><trkpt lat="51.1339165525784" lon="5.123809657247447"><ele>27.0</ele><time>2026-04-06T12:04:10Z</time></trkpt><trkpt lat="51.133865016118726" lon="5.123561799487597"><ele>27.0</ele><time>2026-04-06T12:04:11Z</time></trkpt><trkpt lat="51.13381411020358" lon="5.123318682180034"><ele>27.0</ele><time>2026-04-06T12:04:12Z</time></trkpt><trkpt lat="51.133762669652874" lon="5.123073130843989"><ele>27.0</ele><time>2026-04-06T12:04:13Z</time></trkpt><trkpt lat="51.13371150851219" lon="5.122826739439135"><ele>27.0</ele><time>2026-04-06T12:04:14Z</time></trkpt><trkpt lat="51.133659709919854" lon="5.122577708776169"><ele>27.0</ele><time>2026-04-06T12:04:15Z</time></trkpt><trkpt lat="51.13360797353531" lon="5.122329842893334"><ele>27.0</ele><time>2026-04-06T12:04:16Z</time></trkpt><trkpt lat="51.133555154845915" lon="5.122080774815448"><ele>27.0</ele><time>2026-04-06T12:04:17Z</time></trkpt><trkpt lat="51.13350526108072" lon="5.121837139479909"><ele>27.0</ele><time>2026-04-06T12:04:18Z</time></trkpt><trkpt lat="51.13345489524877" lon="5.121596449578214"><ele>27.0</ele><time>2026-04-06T12:04:19Z</time></trkpt><trkpt lat="51.13340457178907" lon="5.121355713100461"><ele>27.0</ele><time>2026-04-06T12:04:20Z</time></trkpt><trkpt lat="51.13335443143382" lon="5.121115761300129"><ele>27.0</ele><time>2026-04-06T12:04:21Z</time></trkpt><trkpt lat="51.13330437405416" lon="5.120876206617963"><ele>27.0</ele><time>2026-04-06T12:04:22Z</time></trkpt><trkpt lat="51.13325411414525" lon="5.12063568268855"><ele>26.0</ele><time>2026-04-06T12:04:23Z</time></trkpt><trkpt lat="51.13320354506247" lon="5.120393679180307"><ele>25.0</ele><time>2026-04-06T12:04:24Z</time></trkpt><trkpt lat="51.13315195790306" lon="5.120149371562092"><ele>24.0</ele><time>2026-04-06T12:04:25Z</time></trkpt><trkpt lat="51.13310111706751" lon="5.11990538700763"><ele>24.0</ele><time>2026-04-06T12:04:26Z</time></trkpt><trkpt lat="51.13304935131601" lon="5.1196602001785925"><ele>24.0</ele><time>2026-04-06T12:04:27Z</time></trkpt><trkpt lat="51.13299984656009" lon="5.119425914644221"><ele>24.0</ele><time>2026-04-06T12:04:28Z</time></trkpt><trkpt lat="51.13295474265532" lon="5.119213200653066"><ele>24.25</ele><time>2026-04-06T12:04:29Z</time></trkpt><trkpt lat="51.13291321842937" lon="5.1190147782590545"><ele>24.5</ele><time>2026-04-06T12:04:30Z</time></trkpt><trkpt lat="51.13287400310265" lon="5.118828430601794"><ele>24.75</ele><time>2026-04-06T12:04:31Z</time></trkpt><trkpt lat="51.132835910652396" lon="5.11865981277964"><ele>25.0</ele><time>2026-04-06T12:04:32Z</time></trkpt><trkpt lat="51.13279591912665" lon="5.118496593293428"><ele>25.0</ele><time>2026-04-06T12:04:33Z</time></trkpt><trkpt lat="51.132747826657855" lon="5.118307114058177"><ele>25.0</ele><time>2026-04-06T12:04:34Z</time></trkpt><trkpt lat="51.13268451924615" lon="5.118099896539306"><ele>25.0</ele><time>2026-04-06T12:04:35Z</time></trkpt><trkpt lat="51.13261527394604" lon="5.117871687997597"><ele>25.0</ele><time>2026-04-06T12:04:36Z</time></trkpt><trkpt lat="51.132538586758855" lon="5.117627355915389"><ele>24.666666666666668</ele><time>2026-04-06T12:04:37Z</time></trkpt><trkpt lat="51.1324566354125" lon="5.117371459846417"><ele>24.333333333333336</ele><time>2026-04-06T12:04:38Z</time></trkpt><trkpt lat="51.13237210258192" lon="5.117107751012615"><ele>24.0</ele><time>2026-04-06T12:04:39Z</time></trkpt><trkpt lat="51.13228430826984" lon="5.1168342519731205"><ele>24.666666666666664</ele><time>2026-04-06T12:04:40Z</time></trkpt><trkpt lat="51.1321980872481" lon="5.11656522367982"><ele>25.333333333333332</ele><time>2026-04-06T12:04:41Z</time></trkpt><trkpt lat="51.132111427626484" lon="5.1163017837050875"><ele>26.0</ele><time>2026-04-06T12:04:42Z</time></trkpt><trkpt lat="51.132026102484666" lon="5.116044268568135"><ele>26.0</ele><time>2026-04-06T12:04:43Z</time></trkpt><trkpt lat="51.131941801122046" lon="5.115790801572628"><ele>26.0</ele><time>2026-04-06T12:04:44Z</time></trkpt><trkpt lat="51.13186160845932" lon="5.115543032105396"><ele>26.0</ele><time>2026-04-06T12:04:45Z</time></trkpt><trkpt lat="51.13178468573855" lon="5.115300694280499"><ele>27.333333333333332</ele><time>2026-04-06T12:04:46Z</time></trkpt><trkpt lat="51.1317080709783" lon="5.1150670175167186"><ele>28.666666666666664</ele><time>2026-04-06T12:04:47Z</time></trkpt><trkpt lat="51.13163334046303" lon="5.114832758750295"><ele>30.0</ele><time>2026-04-06T12:04:48Z</time></trkpt><trkpt lat="51.131557900908746" lon="5.1145998114636875"><ele>29.666666666666664</ele><time>2026-04-06T12:04:49Z</time></trkpt><trkpt lat="51.13148280458856" lon="5.114367689314455"><ele>29.333333333333332</ele><time>2026-04-06T12:04:50Z</time></trkpt><trkpt lat="51.13140779553042" lon="5.114135769933487"><ele>29.0</ele><time>2026-04-06T12:04:51Z</time></trkpt><trkpt lat="51.131333198327674" lon="5.113906227189631"><ele>29.0</ele><time>2026-04-06T12:04:52Z</time></trkpt><trkpt lat="51.131259580513266" lon="5.1136780456644875"><ele>29.0</ele><time>2026-04-06T12:04:53Z</time></trkpt><trkpt lat="51.13118664229166" lon="5.1134519705207335"><ele>29.0</ele><time>2026-04-06T12:04:54Z</time></trkpt><trkpt lat="51.13111337489148" lon="5.113227385779408"><ele>29.0</ele><time>2026-04-06T12:04:55Z</time></trkpt><trkpt lat="51.13104072504768" lon="5.113003733669518"><ele>29.0</ele><time>2026-04-06T12:04:56Z</time></trkpt><trkpt lat="51.13096851357025" lon="5.112779886723039"><ele>29.0</ele><time>2026-04-06T12:04:57Z</time></trkpt><trkpt lat="51.1308942913798" lon="5.11254884368377"><ele>28.666666666666664</ele><time>2026-04-06T12:04:58Z</time></trkpt><trkpt lat="51.1308185913193" lon="5.112312993749191"><ele>28.333333333333336</ele><time>2026-04-06T12:04:59Z</time></trkpt><trkpt lat="51.13074263386676" lon="5.112075735067481"><ele>28.0</ele><time>2026-04-06T12:05:00Z</time></trkpt><trkpt lat="51.13066506430512" lon="5.111835740485372"><ele>28.0</ele><time>2026-04-06T12:05:01Z</time></trkpt><trkpt lat="51.13058694129958" lon="5.111594034841"><ele>28.0</ele><time>2026-04-06T12:05:02Z</time></trkpt><trkpt lat="51.13050855441702" lon="5.111351460244082"><ele>28.0</ele><time>2026-04-06T12:05:03Z</time></trkpt><trkpt lat="51.130430614322734" lon="5.111109577754931"><ele>28.0</ele><time>2026-04-06T12:05:04Z</time></trkpt><trkpt lat="51.130353026763494" lon="5.110865434505425"><ele>28.0</ele><time>2026-04-06T12:05:05Z</time></trkpt><trkpt lat="51.13027472429296" lon="5.110620695724191"><ele>28.0</ele><time>2026-04-06T12:05:06Z</time></trkpt><trkpt lat="51.13019760684458" lon="5.110380435133515"><ele>28.666666666666668</ele><time>2026-04-06T12:05:07Z</time></trkpt><trkpt lat="51.13012075362661" lon="5.11014099812914"><ele>29.333333333333336</ele><time>2026-04-06T12:05:08Z</time></trkpt><trkpt lat="51.13004543622782" lon="5.109905463462802"><ele>30.0</ele><time>2026-04-06T12:05:09Z</time></trkpt><trkpt lat="51.129970918617076" lon="5.109671774475378"><ele>30.0</ele><time>2026-04-06T12:05:10Z</time></trkpt><trkpt lat="51.12989717098391" lon="5.109440256358823"><ele>30.0</ele><time>2026-04-06T12:05:11Z</time></trkpt><trkpt lat="51.12982648601536" lon="5.109209059713401"><ele>30.0</ele><time>2026-04-06T12:05:12Z</time></trkpt><trkpt lat="51.12976547072294" lon="5.108960097975464"><ele>30.0</ele><time>2026-04-06T12:05:13Z</time></trkpt><trkpt lat="51.129724155822935" lon="5.1087056144939185"><ele>30.0</ele><time>2026-04-06T12:05:14Z</time></trkpt><trkpt lat="51.12969339160967" lon="5.1084418397013005"><ele>30.0</ele><time>2026-04-06T12:05:15Z</time></trkpt><trkpt lat="51.12967899656166" lon="5.108173060842844"><ele>29.666666666666664</ele><time>2026-04-06T12:05:16Z</time></trkpt><trkpt lat="51.129682328341026" lon="5.107900142174116"><ele>29.333333333333332</ele><time>2026-04-06T12:05:17Z</time></trkpt><trkpt lat="51.129701889483776" lon="5.1076320775111315"><ele>29.0</ele><time>2026-04-06T12:05:18Z</time></trkpt><trkpt lat="51.129731387659476" lon="5.107359828230398"><ele>29.0</ele><time>2026-04-06T12:05:19Z</time></trkpt><trkpt lat="51.12976114244643" lon="5.10708521013901"><ele>29.0</ele><time>2026-04-06T12:05:20Z</time></trkpt><trkpt lat="51.129790786180294" lon="5.106812324056103"><ele>29.0</ele><time>2026-04-06T12:05:21Z</time></trkpt><trkpt lat="51.129821314753215" lon="5.106533827389772"><ele>29.333333333333332</ele><time>2026-04-06T12:05:22Z</time></trkpt><trkpt lat="51.12985169506043" lon="5.106256172708892"><ele>29.666666666666664</ele><time>2026-04-06T12:05:23Z</time></trkpt><trkpt lat="51.12988182570319" lon="5.105980705895993"><ele>30.0</ele><time>2026-04-06T12:05:24Z</time></trkpt><trkpt lat="51.12991037305179" lon="5.105719714126953"><ele>30.0</ele><time>2026-04-06T12:05:25Z</time></trkpt><trkpt lat="51.129939105407445" lon="5.105457030590323"><ele>30.0</ele><time>2026-04-06T12:05:26Z</time></trkpt><trkpt lat="51.12996775396186" lon="5.105195820474728"><ele>30.0</ele><time>2026-04-06T12:05:27Z</time></trkpt><trkpt lat="51.129996736597036" lon="5.104932824542241"><ele>30.0</ele><time>2026-04-06T12:05:28Z</time></trkpt><trkpt lat="51.13002617720828" lon="5.104665669791801"><ele>30.0</ele><time>2026-04-06T12:05:29Z</time></trkpt><trkpt lat="51.130056013429396" lon="5.104393979682498"><ele>30.0</ele><time>2026-04-06T12:05:30Z</time></trkpt><trkpt lat="51.13008607899345" lon="5.104120404722716"><ele>30.0</ele><time>2026-04-06T12:05:31Z</time></trkpt><trkpt lat="51.130116253066" lon="5.1038458424318005"><ele>30.0</ele><time>2026-04-06T12:05:32Z</time></trkpt><trkpt lat="51.13014667106571" lon="5.103569060563614"><ele>30.0</ele><time>2026-04-06T12:05:33Z</time></trkpt><trkpt lat="51.130177226053405" lon="5.10329103222242"><ele>29.666666666666664</ele><time>2026-04-06T12:05:34Z</time></trkpt><trkpt lat="51.13020676130442" lon="5.103022282865468"><ele>29.333333333333332</ele><time>2026-04-06T12:05:35Z</time></trkpt><trkpt lat="51.13023485446109" lon="5.1027666552884146"><ele>29.0</ele><time>2026-04-06T12:05:36Z</time></trkpt><trkpt lat="51.13026137131264" lon="5.102525262026"><ele>29.0</ele><time>2026-04-06T12:05:37Z</time></trkpt><trkpt lat="51.13028699137905" lon="5.102291774613922"><ele>29.0</ele><time>2026-04-06T12:05:38Z</time></trkpt><trkpt lat="51.13031200092013" lon="5.102063851383641"><ele>29.0</ele><time>2026-04-06T12:05:39Z</time></trkpt><trkpt lat="51.13033626398348" lon="5.101842728150514"><ele>29.0</ele><time>2026-04-06T12:05:40Z</time></trkpt><trkpt lat="51.13036003588337" lon="5.101627012198381"><ele>29.0</ele><time>2026-04-06T12:05:41Z</time></trkpt><trkpt lat="51.130384276123365" lon="5.101407775186364"><ele>29.0</ele><time>2026-04-06T12:05:42Z</time></trkpt><trkpt lat="51.13040179069437" lon="5.101193776886475"><ele>29.0</ele><time>2026-04-06T12:05:43Z</time></trkpt><trkpt lat="51.13041041595883" lon="5.10097744120116"><ele>29.0</ele><time>2026-04-06T12:05:44Z</time></trkpt><trkpt lat="51.13040769487238" lon="5.100760515039339"><ele>28.75</ele><time>2026-04-06T12:05:45Z</time></trkpt><trkpt lat="51.13039031663131" lon="5.100540479588723"><ele>28.5</ele><time>2026-04-06T12:05:46Z</time></trkpt><trkpt lat="51.1303641282941" lon="5.100325362275961"><ele>28.25</ele><time>2026-04-06T12:05:47Z</time></trkpt><trkpt lat="51.13032313071104" lon="5.100113759017417"><ele>28.0</ele><time>2026-04-06T12:05:48Z</time></trkpt><trkpt lat="51.130274574792494" lon="5.099911094059819"><ele>28.0</ele><time>2026-04-06T12:05:49Z</time></trkpt><trkpt lat="51.13022118841003" lon="5.099712852150595"><ele>28.0</ele><time>2026-04-06T12:05:50Z</time></trkpt><trkpt lat="51.130167724416104" lon="5.09951432138937"><ele>28.0</ele><time>2026-04-06T12:05:51Z</time></trkpt><trkpt lat="51.13011362781543" lon="5.099313441838332"><ele>28.0</ele><time>2026-04-06T12:05:52Z</time></trkpt><trkpt lat="51.13005930598555" lon="5.099113571038506"><ele>27.75</ele><time>2026-04-06T12:05:53Z</time></trkpt><trkpt lat="51.1300046185309" lon="5.098912731370052"><ele>27.5</ele><time>2026-04-06T12:05:54Z</time></trkpt><trkpt lat="51.12994956472726" lon="5.098710546712658"><ele>27.25</ele><time>2026-04-06T12:05:55Z</time></trkpt><trkpt lat="51.12989464507437" lon="5.098508854222027"><ele>27.0</ele><time>2026-04-06T12:05:56Z</time></trkpt><trkpt lat="51.12984093825995" lon="5.098307197100142"><ele>27.5</ele><time>2026-04-06T12:05:57Z</time></trkpt><trkpt lat="51.1297888700879" lon="5.09810304978701"><ele>28.0</ele><time>2026-04-06T12:05:58Z</time></trkpt><trkpt lat="51.12973910190518" lon="5.097897963368535"><ele>28.5</ele><time>2026-04-06T12:05:59Z</time></trkpt><trkpt lat="51.12969246152273" lon="5.097691119559169"><ele>29.0</ele><time>2026-04-06T12:06:00Z</time></trkpt><trkpt lat="51.129648194380344" lon="5.097483188532256"><ele>29.25</ele><time>2026-04-06T12:06:01Z</time></trkpt><trkpt lat="51.12960463248506" lon="5.097278545505349"><ele>29.5</ele><time>2026-04-06T12:06:02Z</time></trkpt><trkpt lat="51.1295645323618" lon="5.09707138447745"><ele>29.75</ele><time>2026-04-06T12:06:03Z</time></trkpt><trkpt lat="51.12952472600919" lon="5.096865741476798"><ele>30.0</ele><time>2026-04-06T12:06:04Z</time></trkpt><trkpt lat="51.12948518033297" lon="5.096661063290824"><ele>29.75</ele><time>2026-04-06T12:06:05Z</time></trkpt><trkpt lat="51.129445412877054" lon="5.096454789480317"><ele>29.5</ele><time>2026-04-06T12:06:06Z</time></trkpt><trkpt lat="51.129405882662" lon="5.096249142078636"><ele>29.25</ele><time>2026-04-06T12:06:07Z</time></trkpt><trkpt lat="51.129366035519624" lon="5.096043452173268"><ele>29.0</ele><time>2026-04-06T12:06:08Z</time></trkpt><trkpt lat="51.12932594853535" lon="5.095837645187091"><ele>28.75</ele><time>2026-04-06T12:06:09Z</time></trkpt><trkpt lat="51.12928723112758" lon="5.095633971936728"><ele>28.5</ele><time>2026-04-06T12:06:10Z</time></trkpt><trkpt lat="51.12925459118033" lon="5.095424452284593"><ele>28.25</ele><time>2026-04-06T12:06:11Z</time></trkpt><trkpt lat="51.129222120278854" lon="5.095215214280476"><ele>28.0</ele><time>2026-04-06T12:06:12Z</time></trkpt><trkpt lat="51.12919285459028" lon="5.0950068196221885"><ele>28.0</ele><time>2026-04-06T12:06:13Z</time></trkpt><trkpt lat="51.12916642097249" lon="5.094802596687951"><ele>28.0</ele><time>2026-04-06T12:06:14Z</time></trkpt><trkpt lat="51.12914695468129" lon="5.094595463744968"><ele>28.0</ele><time>2026-04-06T12:06:15Z</time></trkpt><trkpt lat="51.12913165608789" lon="5.094389111357293"><ele>28.0</ele><time>2026-04-06T12:06:16Z</time></trkpt><trkpt lat="51.12911632235019" lon="5.094180616732651"><ele>28.25</ele><time>2026-04-06T12:06:17Z</time></trkpt><trkpt lat="51.129101182026005" lon="5.09397475217156"><ele>28.5</ele><time>2026-04-06T12:06:18Z</time></trkpt><trkpt lat="51.12908597634338" lon="5.093767998846645"><ele>28.75</ele><time>2026-04-06T12:06:19Z</time></trkpt><trkpt lat="51.129070735262" lon="5.093560764240479"><ele>29.0</ele><time>2026-04-06T12:06:20Z</time></trkpt><trkpt lat="51.12905554801759" lon="5.093354261683677"><ele>29.0</ele><time>2026-04-06T12:06:21Z</time></trkpt><trkpt lat="51.12904022277559" lon="5.0931458827180585"><ele>29.0</ele><time>2026-04-06T12:06:22Z</time></trkpt><trkpt lat="51.129025115948" lon="5.092940473640299"><ele>29.0</ele><time>2026-04-06T12:06:23Z</time></trkpt><trkpt lat="51.1290119512485" lon="5.0927436408716025"><ele>29.0</ele><time>2026-04-06T12:06:24Z</time></trkpt><trkpt lat="51.129003204698954" lon="5.092551385249768"><ele>29.25</ele><time>2026-04-06T12:06:25Z</time></trkpt><trkpt lat="51.12899917873993" lon="5.09235976751801"><ele>29.5</ele><time>2026-04-06T12:06:26Z</time></trkpt><trkpt lat="51.129005269158604" lon="5.092173459091373"><ele>29.75</ele><time>2026-04-06T12:06:27Z</time></trkpt><trkpt lat="51.12901679963889" lon="5.091988695097203"><ele>30.0</ele><time>2026-04-06T12:06:28Z</time></trkpt><trkpt lat="51.1290321332576" lon="5.091812024760001"><ele>30.0</ele><time>2026-04-06T12:06:29Z</time></trkpt><trkpt lat="51.129050688291635" lon="5.091636224967926"><ele>30.0</ele><time>2026-04-06T12:06:30Z</time></trkpt><trkpt lat="51.129074678528276" lon="5.091469667791485"><ele>30.0</ele><time>2026-04-06T12:06:31Z</time></trkpt><trkpt lat="51.12910391756934" lon="5.091304512898687"><ele>30.0</ele><time>2026-04-06T12:06:32Z</time></trkpt><trkpt lat="51.12913797566785" lon="5.091145852285047"><ele>30.0</ele><time>2026-04-06T12:06:33Z</time></trkpt><trkpt lat="51.12917587997869" lon="5.090989917845869"><ele>30.0</ele><time>2026-04-06T12:06:34Z</time></trkpt><trkpt lat="51.129218067759204" lon="5.090838199241651"><ele>30.0</ele><time>2026-04-06T12:06:35Z</time></trkpt><trkpt lat="51.129261736808154" lon="5.090689454393397"><ele>30.0</ele><time>2026-04-06T12:06:36Z</time></trkpt><trkpt lat="51.129307383550646" lon="5.090542690234494"><ele>30.0</ele><time>2026-04-06T12:06:37Z</time></trkpt><trkpt lat="51.12935279959447" lon="5.090397548210768"><ele>30.0</ele><time>2026-04-06T12:06:38Z</time></trkpt><trkpt lat="51.12939728948395" lon="5.090255210967664"><ele>30.0</ele><time>2026-04-06T12:06:39Z</time></trkpt><trkpt lat="51.12944150946695" lon="5.090114298955531"><ele>30.0</ele><time>2026-04-06T12:06:40Z</time></trkpt><trkpt lat="51.129485367507264" lon="5.089974540311522"><ele>30.0</ele><time>2026-04-06T12:06:41Z</time></trkpt><trkpt lat="51.129528863432924" lon="5.089835935600261"><ele>30.0</ele><time>2026-04-06T12:06:42Z</time></trkpt><trkpt lat="51.12957167133651" lon="5.08969952337776"><ele>30.0</ele><time>2026-04-06T12:06:43Z</time></trkpt><trkpt lat="51.12961486751835" lon="5.089561873799807"><ele>30.0</ele><time>2026-04-06T12:06:44Z</time></trkpt><trkpt lat="51.12965779117449" lon="5.089425178942668"><ele>30.0</ele><time>2026-04-06T12:06:45Z</time></trkpt><trkpt lat="51.12970005477043" lon="5.089293222916916"><ele>30.0</ele><time>2026-04-06T12:06:46Z</time></trkpt><trkpt lat="51.12974593011335" lon="5.089166930775324"><ele>30.0</ele><time>2026-04-06T12:06:47Z</time></trkpt><trkpt lat="51.12977577785531" lon="5.08903352806819"><ele>30.0</ele><time>2026-04-06T12:06:48Z</time></trkpt><trkpt lat="51.12982150814611" lon="5.088912128033522"><ele>30.2</ele><time>2026-04-06T12:06:49Z</time></trkpt><trkpt lat="51.129868470434594" lon="5.088786762652748"><ele>30.4</ele><time>2026-04-06T12:06:50Z</time></trkpt><trkpt lat="51.12991730641311" lon="5.088653032248047"><ele>30.6</ele><time>2026-04-06T12:06:51Z</time></trkpt><trkpt lat="51.12996947819076" lon="5.088507544149172"><ele>30.8</ele><time>2026-04-06T12:06:52Z</time></trkpt><trkpt lat="51.130023971427505" lon="5.088353396749701"><ele>31.0</ele><time>2026-04-06T12:06:53Z</time></trkpt><trkpt lat="51.13008345241636" lon="5.088190288738495"><ele>30.5</ele><time>2026-04-06T12:06:54Z</time></trkpt><trkpt lat="51.1301460536169" lon="5.088020983596431"><ele>30.0</ele><time>2026-04-06T12:06:55Z</time></trkpt><trkpt lat="51.13020995717376" lon="5.087846131096839"><ele>29.5</ele><time>2026-04-06T12:06:56Z</time></trkpt><trkpt lat="51.130276230829566" lon="5.087668016542504"><ele>29.0</ele><time>2026-04-06T12:06:57Z</time></trkpt><trkpt lat="51.13034491325221" lon="5.087493788319832"><ele>29.25</ele><time>2026-04-06T12:06:58Z</time></trkpt><trkpt lat="51.130410322254576" lon="5.087316541749988"><ele>29.5</ele><time>2026-04-06T12:06:59Z</time></trkpt><trkpt lat="51.13047303881462" lon="5.087141975406857"><ele>29.75</ele><time>2026-04-06T12:07:00Z</time></trkpt><trkpt lat="51.130542806515216" lon="5.086980047037912"><ele>30.0</ele><time>2026-04-06T12:07:01Z</time></trkpt><trkpt lat="51.13059721757743" lon="5.086802845721891"><ele>30.0</ele><time>2026-04-06T12:07:02Z</time></trkpt><trkpt lat="51.130648385365035" lon="5.086629052454637"><ele>30.0</ele><time>2026-04-06T12:07:03Z</time></trkpt><trkpt lat="51.13069872838965" lon="5.086456921466846"><ele>30.0</ele><time>2026-04-06T12:07:04Z</time></trkpt><trkpt lat="51.13075056876933" lon="5.086284572118802"><ele>30.0</ele><time>2026-04-06T12:07:05Z</time></trkpt><trkpt lat="51.13080245138861" lon="5.086112493712378"><ele>30.0</ele><time>2026-04-06T12:07:06Z</time></trkpt><trkpt lat="51.13085449592787" lon="5.08593987825223"><ele>30.0</ele><time>2026-04-06T12:07:07Z</time></trkpt><trkpt lat="51.130906115274165" lon="5.0857674782200775"><ele>30.0</ele><time>2026-04-06T12:07:08Z</time></trkpt><trkpt lat="51.13095809193522" lon="5.085593573455199"><ele>30.0</ele><time>2026-04-06T12:07:09Z</time></trkpt><trkpt lat="51.13100992015372" lon="5.0854197893682835"><ele>30.25</ele><time>2026-04-06T12:07:10Z</time></trkpt><trkpt lat="51.13106154013417" lon="5.085246698434976"><ele>30.5</ele><time>2026-04-06T12:07:11Z</time></trkpt><trkpt lat="51.13110856482063" lon="5.085070404706111"><ele>30.75</ele><time>2026-04-06T12:07:12Z</time></trkpt><trkpt lat="51.13115239226966" lon="5.084892725510434"><ele>31.0</ele><time>2026-04-06T12:07:13Z</time></trkpt><trkpt lat="51.131194203247134" lon="5.084714293116139"><ele>31.75</ele><time>2026-04-06T12:07:14Z</time></trkpt><trkpt lat="51.13123126003611" lon="5.0845339577919555"><ele>32.5</ele><time>2026-04-06T12:07:15Z</time></trkpt><trkpt lat="51.13126490200821" lon="5.084355135620941"><ele>33.25</ele><time>2026-04-06T12:07:16Z</time></trkpt><trkpt lat="51.13129629061513" lon="5.08417558255174"><ele>34.0</ele><time>2026-04-06T12:07:17Z</time></trkpt><trkpt lat="51.1313256997866" lon="5.0839948776318336"><ele>34.0</ele><time>2026-04-06T12:07:18Z</time></trkpt><trkpt lat="51.13135393006459" lon="5.083813394084492"><ele>34.0</ele><time>2026-04-06T12:07:19Z</time></trkpt><trkpt lat="51.13138076152552" lon="5.083635092003263"><ele>34.0</ele><time>2026-04-06T12:07:20Z</time></trkpt><trkpt lat="51.131407257429615" lon="5.083460809900037"><ele>34.0</ele><time>2026-04-06T12:07:21Z</time></trkpt><trkpt lat="51.131431580556864" lon="5.083300819673585"><ele>34.0</ele><time>2026-04-06T12:07:22Z</time></trkpt><trkpt lat="51.13145418483435" lon="5.08315213526555"><ele>34.16666666666667</ele><time>2026-04-06T12:07:23Z</time></trkpt><trkpt lat="51.131475355881676" lon="5.083012878526325"><ele>34.333333333333336</ele><time>2026-04-06T12:07:24Z</time></trkpt><trkpt lat="51.13149485354015" lon="5.082884628571635"><ele>34.5</ele><time>2026-04-06T12:07:25Z</time></trkpt><trkpt lat="51.13151420149041" lon="5.082757363563546"><ele>34.666666666666664</ele><time>2026-04-06T12:07:26Z</time></trkpt><trkpt lat="51.131537508522605" lon="5.082632045397451"><ele>34.83333333333333</ele><time>2026-04-06T12:07:27Z</time></trkpt><trkpt lat="51.13156406312316" lon="5.08250338362616"><ele>35.0</ele><time>2026-04-06T12:07:28Z</time></trkpt><trkpt lat="51.131588418854705" lon="5.0823863246115275"><ele>34.42857142857143</ele><time>2026-04-06T12:07:29Z</time></trkpt><trkpt lat="51.13161184769811" lon="5.082273720629836"><ele>33.85714285714286</ele><time>2026-04-06T12:07:30Z</time></trkpt><trkpt lat="51.13163857614875" lon="5.082167060610489"><ele>33.285714285714285</ele><time>2026-04-06T12:07:31Z</time></trkpt><trkpt lat="51.13166816867785" lon="5.082055430385017"><ele>32.714285714285715</ele><time>2026-04-06T12:07:32Z</time></trkpt><trkpt lat="51.1316908347197" lon="5.081947188870083"><ele>32.142857142857146</ele><time>2026-04-06T12:07:33Z</time></trkpt><trkpt lat="51.13171130742264" lon="5.081835150272181"><ele>31.571428571428573</ele><time>2026-04-06T12:07:34Z</time></trkpt><trkpt lat="51.131729226196306" lon="5.081724469158766"><ele>31.0</ele><time>2026-04-06T12:07:35Z</time></trkpt><trkpt lat="51.13174675805703" lon="5.081611551127848"><ele>31.166666666666668</ele><time>2026-04-06T12:07:36Z</time></trkpt><trkpt lat="51.13176390170221" lon="5.08149943605696"><ele>31.333333333333336</ele><time>2026-04-06T12:07:37Z</time></trkpt><trkpt lat="51.131781933470556" lon="5.081380124423765"><ele>31.5</ele><time>2026-04-06T12:07:38Z</time></trkpt><trkpt lat="51.13180007369504" lon="5.081260094997247"><ele>31.666666666666664</ele><time>2026-04-06T12:07:39Z</time></trkpt><trkpt lat="51.13182081435851" lon="5.081140512571499"><ele>31.833333333333332</ele><time>2026-04-06T12:07:40Z</time></trkpt><trkpt lat="51.131842079435735" lon="5.0810175072843755"><ele>32.0</ele><time>2026-04-06T12:07:41Z</time></trkpt><trkpt lat="51.13186357422838" lon="5.080893140172553"><ele>31.999999999999996</ele><time>2026-04-06T12:07:42Z</time></trkpt><trkpt lat="51.13188557201044" lon="5.0807657555350705"><ele>32.0</ele><time>2026-04-06T12:07:43Z</time></trkpt><trkpt lat="51.13190733768779" lon="5.080639714681511"><ele>32.0</ele><time>2026-04-06T12:07:44Z</time></trkpt><trkpt lat="51.13192935641626" lon="5.080509673044579"><ele>32.0</ele><time>2026-04-06T12:07:45Z</time></trkpt><trkpt lat="51.13194901672917" lon="5.080377794418738"><ele>31.999999999999996</ele><time>2026-04-06T12:07:46Z</time></trkpt><trkpt lat="51.13196602269316" lon="5.080253236185174"><ele>32.0</ele><time>2026-04-06T12:07:47Z</time></trkpt><trkpt lat="51.13197945805996" lon="5.080138054981669"><ele>31.999999999999996</ele><time>2026-04-06T12:07:48Z</time></trkpt><trkpt lat="51.13198725144141" lon="5.08001065156116"><ele>32.0</ele><time>2026-04-06T12:07:49Z</time></trkpt><trkpt lat="51.13198407489079" lon="5.079890894862569"><ele>32.0</ele><time>2026-04-06T12:07:50Z</time></trkpt><trkpt lat="51.131981596410185" lon="5.079785336802195"><ele>32.0</ele><time>2026-04-06T12:07:51Z</time></trkpt><trkpt lat="51.131964975449904" lon="5.0796839715023685"><ele>31.999999999999996</ele><time>2026-04-06T12:07:53Z</time></trkpt><trkpt lat="51.131956609180726" lon="5.079581345385585"><ele>32.0</ele><time>2026-04-06T12:07:55Z</time></trkpt><trkpt lat="51.131941329772076" lon="5.0794049519886"><ele>31.833333333333332</ele><time>2026-04-06T12:07:57Z</time></trkpt><trkpt lat="51.13193171802178" lon="5.079296646528106"><ele>31.666666666666664</ele><time>2026-04-06T12:07:58Z</time></trkpt><trkpt lat="51.131922532411465" lon="5.0791931424094905"><ele>31.5</ele><time>2026-04-06T12:07:59Z</time></trkpt><trkpt lat="51.13191133362124" lon="5.079034746338578"><ele>31.333333333333336</ele><time>2026-04-06T12:08:01Z</time></trkpt><trkpt lat="51.131905611330545" lon="5.0788908885923645"><ele>31.166666666666668</ele><time>2026-04-06T12:08:03Z</time></trkpt><trkpt lat="51.131899621754066" lon="5.078748474044288"><ele>31.0</ele><time>2026-04-06T12:08:05Z</time></trkpt><trkpt lat="51.13189802160718" lon="5.078644730510961"><ele>31.0</ele><time>2026-04-06T12:08:06Z</time></trkpt><trkpt lat="51.13189611445837" lon="5.078521083353275"><ele>31.000000000000004</ele><time>2026-04-06T12:08:07Z</time></trkpt><trkpt lat="51.131894153222426" lon="5.078393927308777"><ele>31.0</ele><time>2026-04-06T12:08:08Z</time></trkpt><trkpt lat="51.1318983276701" lon="5.078286574593795"><ele>31.0</ele><time>2026-04-06T12:08:09Z</time></trkpt><trkpt lat="51.13190233388601" lon="5.078180917966032"><ele>31.000000000000004</ele><time>2026-04-06T12:08:10Z</time></trkpt><trkpt lat="51.13190939711364" lon="5.078078126128628"><ele>31.0</ele><time>2026-04-06T12:08:11Z</time></trkpt><trkpt lat="51.13191845672879" lon="5.077976151628022"><ele>31.0</ele><time>2026-04-06T12:08:12Z</time></trkpt><trkpt lat="51.13193924957992" lon="5.077818111283464"><ele>30.833333333333336</ele><time>2026-04-06T12:08:14Z</time></trkpt><trkpt lat="51.1319538189042" lon="5.077705771965652"><ele>30.666666666666668</ele><time>2026-04-06T12:08:16Z</time></trkpt><trkpt lat="51.13197085907291" lon="5.077585766801921"><ele>30.5</ele><time>2026-04-06T12:08:55Z</time></trkpt><trkpt lat="51.131990286031765" lon="5.07745113341293"><ele>30.333333333333336</ele><time>2026-04-06T12:08:58Z</time></trkpt><trkpt lat="51.13200560947625" lon="5.0773495154756185"><ele>30.166666666666668</ele><time>2026-04-06T12:09:00Z</time></trkpt><trkpt lat="51.13203262841651" lon="5.077215264130524"><ele>30.0</ele><time>2026-04-06T12:09:02Z</time></trkpt><trkpt lat="51.132046651895386" lon="5.07709844234825"><ele>30.0</ele><time>2026-04-06T12:09:04Z</time></trkpt><trkpt lat="51.131911247415665" lon="5.0769433063453935"><ele>30.0</ele><time>2026-04-06T12:09:05Z</time></trkpt><trkpt lat="51.13182732932954" lon="5.07691604939221"><ele>30.0</ele><time>2026-04-06T12:09:06Z</time></trkpt><trkpt lat="51.131740511987864" lon="5.076884310265434"><ele>30.0</ele><time>2026-04-06T12:09:07Z</time></trkpt><trkpt lat="51.13164326573119" lon="5.0768503216898635"><ele>30.0</ele><time>2026-04-06T12:09:08Z</time></trkpt><trkpt lat="51.13154246755606" lon="5.076825816360092"><ele>30.2</ele><time>2026-04-06T12:09:09Z</time></trkpt><trkpt lat="51.13143870892203" lon="5.076809913119841"><ele>30.4</ele><time>2026-04-06T12:09:10Z</time></trkpt><trkpt lat="51.13133058964418" lon="5.076808817529448"><ele>30.6</ele><time>2026-04-06T12:09:11Z</time></trkpt><trkpt lat="51.13122152070723" lon="5.076810338634874"><ele>30.8</ele><time>2026-04-06T12:09:12Z</time></trkpt><trkpt lat="51.13111786672735" lon="5.0768106718622334"><ele>31.0</ele><time>2026-04-06T12:09:13Z</time></trkpt><trkpt lat="51.13102932340662" lon="5.076808423969291"><ele>31.000000000000004</ele><time>2026-04-06T12:09:14Z</time></trkpt><trkpt lat="51.1309425735939" lon="5.0768013043774145"><ele>31.0</ele><time>2026-04-06T12:09:15Z</time></trkpt><trkpt lat="51.13085720511794" lon="5.076793322969399"><ele>31.0</ele><time>2026-04-06T12:09:16Z</time></trkpt><trkpt lat="51.13077840080056" lon="5.0767812915377535"><ele>31.0</ele><time>2026-04-06T12:09:17Z</time></trkpt><trkpt lat="51.13070742769667" lon="5.076752824597286"><ele>31.000000000000004</ele><time>2026-04-06T12:09:18Z</time></trkpt><trkpt lat="51.130636425605196" lon="5.076710157033262"><ele>31.0</ele><time>2026-04-06T12:09:19Z</time></trkpt><trkpt lat="51.13057144941359" lon="5.076641047738028"><ele>31.0</ele><time>2026-04-06T12:09:20Z</time></trkpt><trkpt lat="51.13050634526672" lon="5.076550820826424"><ele>31.0</ele><time>2026-04-06T12:09:21Z</time></trkpt><trkpt lat="51.13044146803167" lon="5.076433281508279"><ele>31.0</ele><time>2026-04-06T12:09:22Z</time></trkpt><trkpt lat="51.13037008275811" lon="5.076301761669155"><ele>31.0</ele><time>2026-04-06T12:09:23Z</time></trkpt><trkpt lat="51.13030115581344" lon="5.076141391928552"><ele>31.0</ele><time>2026-04-06T12:09:24Z</time></trkpt><trkpt lat="51.13023835396573" lon="5.075960119443188"><ele>31.0</ele><time>2026-04-06T12:09:25Z</time></trkpt><trkpt lat="51.130175689285046" lon="5.0757868298433335"><ele>31.0</ele><time>2026-04-06T12:09:26Z</time></trkpt><trkpt lat="51.13012429038039" lon="5.075630628430328"><ele>31.0</ele><time>2026-04-06T12:09:27Z</time></trkpt><trkpt lat="51.13007257582388" lon="5.075470964050535"><ele>31.0</ele><time>2026-04-06T12:09:28Z</time></trkpt><trkpt lat="51.1300200894015" lon="5.075308753835581"><ele>31.0</ele><time>2026-04-06T12:09:29Z</time></trkpt><trkpt lat="51.12996619699539" lon="5.075140080152293"><ele>31.0</ele><time>2026-04-06T12:09:30Z</time></trkpt><trkpt lat="51.129910190137586" lon="5.074964788352932"><ele>31.0</ele><time>2026-04-06T12:09:31Z</time></trkpt><trkpt lat="51.12985311941728" lon="5.074786166950408"><ele>31.0</ele><time>2026-04-06T12:09:32Z</time></trkpt><trkpt lat="51.12979475027751" lon="5.074603480133094"><ele>30.75</ele><time>2026-04-06T12:09:33Z</time></trkpt><trkpt lat="51.129735245207996" lon="5.074417934363608"><ele>30.5</ele><time>2026-04-06T12:09:34Z</time></trkpt><trkpt lat="51.12967449101386" lon="5.074228409404647"><ele>30.25</ele><time>2026-04-06T12:09:35Z</time></trkpt><trkpt lat="51.12961311336189" lon="5.074036939489019"><ele>30.0</ele><time>2026-04-06T12:09:36Z</time></trkpt><trkpt lat="51.12955213007117" lon="5.073846699849272"><ele>29.75</ele><time>2026-04-06T12:09:37Z</time></trkpt><trkpt lat="51.12948610107846" lon="5.073658940666689"><ele>29.5</ele><time>2026-04-06T12:09:38Z</time></trkpt><trkpt lat="51.129379914503545" lon="5.073512106971156"><ele>29.25</ele><time>2026-04-06T12:09:39Z</time></trkpt><trkpt lat="51.12928244847041" lon="5.073360170663386"><ele>29.0</ele><time>2026-04-06T12:09:40Z</time></trkpt><trkpt lat="51.12917804408854" lon="5.073208843399049"><ele>29.0</ele><time>2026-04-06T12:09:41Z</time></trkpt><trkpt lat="51.12907247598958" lon="5.0730453369111"><ele>29.0</ele><time>2026-04-06T12:09:42Z</time></trkpt><trkpt lat="51.12896506921823" lon="5.072881326490528"><ele>29.0</ele><time>2026-04-06T12:09:43Z</time></trkpt><trkpt lat="51.12887876106716" lon="5.0726816627197895"><ele>29.0</ele><time>2026-04-06T12:09:44Z</time></trkpt><trkpt lat="51.12877146404876" lon="5.07251794768471"><ele>28.666666666666664</ele><time>2026-04-06T12:09:45Z</time></trkpt><trkpt lat="51.12866579087552" lon="5.072345353474904"><ele>28.333333333333336</ele><time>2026-04-06T12:09:46Z</time></trkpt><trkpt lat="51.12854983742667" lon="5.072185332568249"><ele>28.0</ele><time>2026-04-06T12:09:47Z</time></trkpt><trkpt lat="51.128440300668274" lon="5.072018942215085"><ele>28.0</ele><time>2026-04-06T12:09:48Z</time></trkpt><trkpt lat="51.12833240008663" lon="5.071855037359821"><ele>28.0</ele><time>2026-04-06T12:09:49Z</time></trkpt><trkpt lat="51.128226528269614" lon="5.071694212610955"><ele>28.0</ele><time>2026-04-06T12:09:50Z</time></trkpt><trkpt lat="51.12810114229501" lon="5.071569113500561"><ele>28.0</ele><time>2026-04-06T12:09:51Z</time></trkpt><trkpt lat="51.127996477157296" lon="5.071410376907877"><ele>28.0</ele><time>2026-04-06T12:09:52Z</time></trkpt><trkpt lat="51.12789065170604" lon="5.071253311530229"><ele>28.0</ele><time>2026-04-06T12:09:53Z</time></trkpt><trkpt lat="51.127784718011725" lon="5.071093898402181"><ele>28.0</ele><time>2026-04-06T12:09:54Z</time></trkpt><trkpt lat="51.127694845779104" lon="5.070900432747651"><ele>28.0</ele><time>2026-04-06T12:09:55Z</time></trkpt><trkpt lat="51.127584449773266" lon="5.070735372043727"><ele>28.0</ele><time>2026-04-06T12:09:56Z</time></trkpt><trkpt lat="51.12747459057461" lon="5.070570818696097"><ele>28.0</ele><time>2026-04-06T12:09:57Z</time></trkpt><trkpt lat="51.12736715683453" lon="5.070409898348372"><ele>28.0</ele><time>2026-04-06T12:09:58Z</time></trkpt><trkpt lat="51.12726058773506" lon="5.070250273046891"><ele>28.0</ele><time>2026-04-06T12:09:59Z</time></trkpt><trkpt lat="51.12715478717463" lon="5.07009154523857"><ele>28.0</ele><time>2026-04-06T12:10:00Z</time></trkpt><trkpt lat="51.12704900706789" lon="5.06993278600438"><ele>28.0</ele><time>2026-04-06T12:10:01Z</time></trkpt><trkpt lat="51.12694310153704" lon="5.069773838441932"><ele>28.0</ele><time>2026-04-06T12:10:02Z</time></trkpt><trkpt lat="51.126836645007074" lon="5.069614063927528"><ele>28.0</ele><time>2026-04-06T12:10:03Z</time></trkpt><trkpt lat="51.12672954827262" lon="5.06945332857456"><ele>28.0</ele><time>2026-04-06T12:10:04Z</time></trkpt><trkpt lat="51.12662127628992" lon="5.069290829354668"><ele>28.0</ele><time>2026-04-06T12:10:05Z</time></trkpt><trkpt lat="51.126517958808385" lon="5.06912232215348"><ele>28.0</ele><time>2026-04-06T12:10:06Z</time></trkpt><trkpt lat="51.12641647345396" lon="5.068946936322136"><ele>28.0</ele><time>2026-04-06T12:10:07Z</time></trkpt><trkpt lat="51.12631504578074" lon="5.0687690804787815"><ele>28.0</ele><time>2026-04-06T12:10:08Z</time></trkpt><trkpt lat="51.12621388844454" lon="5.068590367723303"><ele>28.0</ele><time>2026-04-06T12:10:09Z</time></trkpt><trkpt lat="51.12611628415771" lon="5.068417931982359"><ele>28.0</ele><time>2026-04-06T12:10:10Z</time></trkpt><trkpt lat="51.12602321976409" lon="5.0682535167771965"><ele>28.0</ele><time>2026-04-06T12:10:11Z</time></trkpt><trkpt lat="51.125931189587774" lon="5.068090928606603"><ele>27.5</ele><time>2026-04-06T12:10:12Z</time></trkpt><trkpt lat="51.12583918845824" lon="5.067928391794394"><ele>27.0</ele><time>2026-04-06T12:10:13Z</time></trkpt><trkpt lat="51.125746693651934" lon="5.067764982732862"><ele>26.5</ele><time>2026-04-06T12:10:14Z</time></trkpt><trkpt lat="51.1256544374193" lon="5.0676029141880266"><ele>26.0</ele><time>2026-04-06T12:10:15Z</time></trkpt><trkpt lat="51.12556221949899" lon="5.067440903008865"><ele>26.0</ele><time>2026-04-06T12:10:16Z</time></trkpt><trkpt lat="51.12546976471871" lon="5.067277089064647"><ele>26.0</ele><time>2026-04-06T12:10:17Z</time></trkpt><trkpt lat="51.1253781788664" lon="5.067114353669417"><ele>26.0</ele><time>2026-04-06T12:10:18Z</time></trkpt><trkpt lat="51.12528600769538" lon="5.066950662347825"><ele>26.0</ele><time>2026-04-06T12:10:19Z</time></trkpt><trkpt lat="51.12519352576082" lon="5.066786411380007"><ele>26.0</ele><time>2026-04-06T12:10:20Z</time></trkpt><trkpt lat="51.12509922768159" lon="5.066622955313242"><ele>26.0</ele><time>2026-04-06T12:10:21Z</time></trkpt><trkpt lat="51.12500534199602" lon="5.066456257874931"><ele>26.0</ele><time>2026-04-06T12:10:22Z</time></trkpt><trkpt lat="51.12491294313017" lon="5.0662826774573935"><ele>26.0</ele><time>2026-04-06T12:10:23Z</time></trkpt><trkpt lat="51.124825646509386" lon="5.066101154735155"><ele>25.75</ele><time>2026-04-06T12:10:24Z</time></trkpt><trkpt lat="51.12474375500053" lon="5.065908204802793"><ele>25.5</ele><time>2026-04-06T12:10:25Z</time></trkpt><trkpt lat="51.124666021070354" lon="5.065704745217784"><ele>25.25</ele><time>2026-04-06T12:10:26Z</time></trkpt><trkpt lat="51.12459439325519" lon="5.0654914225069"><ele>25.0</ele><time>2026-04-06T12:10:27Z</time></trkpt><trkpt lat="51.12452933796984" lon="5.0652648970787775"><ele>25.0</ele><time>2026-04-06T12:10:28Z</time></trkpt><trkpt lat="51.12446592679522" lon="5.065034158137599"><ele>25.0</ele><time>2026-04-06T12:10:29Z</time></trkpt><trkpt lat="51.124402806536345" lon="5.064798570262977"><ele>25.0</ele><time>2026-04-06T12:10:30Z</time></trkpt><trkpt lat="51.12433922327197" lon="5.0645683279668665"><ele>25.25</ele><time>2026-04-06T12:10:31Z</time></trkpt><trkpt lat="51.12427925015664" lon="5.064349351478927"><ele>25.5</ele><time>2026-04-06T12:10:32Z</time></trkpt><trkpt lat="51.12422278223883" lon="5.064135683899104"><ele>25.75</ele><time>2026-04-06T12:10:33Z</time></trkpt><trkpt lat="51.12416648374042" lon="5.063926543530721"><ele>26.0</ele><time>2026-04-06T12:10:34Z</time></trkpt><trkpt lat="51.12411037951378" lon="5.063719647903581"><ele>26.333333333333332</ele><time>2026-04-06T12:10:35Z</time></trkpt><trkpt lat="51.12404843047499" lon="5.06349544012752"><ele>26.666666666666664</ele><time>2026-04-06T12:10:36Z</time></trkpt><trkpt lat="51.12398148792433" lon="5.063251420005346"><ele>27.0</ele><time>2026-04-06T12:10:37Z</time></trkpt><trkpt lat="51.12391391372121" lon="5.0630027546159395"><ele>27.0</ele><time>2026-04-06T12:10:38Z</time></trkpt><trkpt lat="51.123850002145126" lon="5.062767519676379"><ele>27.0</ele><time>2026-04-06T12:10:39Z</time></trkpt><trkpt lat="51.12378592665547" lon="5.062531887266922"><ele>27.0</ele><time>2026-04-06T12:10:40Z</time></trkpt><trkpt lat="51.123723233843215" lon="5.06230024849143"><ele>26.0</ele><time>2026-04-06T12:10:41Z</time></trkpt><trkpt lat="51.12366078799302" lon="5.0620704467321875"><ele>25.0</ele><time>2026-04-06T12:10:42Z</time></trkpt><trkpt lat="51.123597136681624" lon="5.061841942539"><ele>24.0</ele><time>2026-04-06T12:10:43Z</time></trkpt><trkpt lat="51.12353460422174" lon="5.061610488058403"><ele>24.0</ele><time>2026-04-06T12:10:44Z</time></trkpt><trkpt lat="51.123469822994224" lon="5.061378193403423"><ele>24.0</ele><time>2026-04-06T12:10:45Z</time></trkpt><trkpt lat="51.12340471709042" lon="5.061142715228984"><ele>24.0</ele><time>2026-04-06T12:10:46Z</time></trkpt><trkpt lat="51.12333336380142" lon="5.060910079189878"><ele>24.0</ele><time>2026-04-06T12:10:47Z</time></trkpt><trkpt lat="51.123250583472526" lon="5.060683752432599"><ele>24.0</ele><time>2026-04-06T12:10:48Z</time></trkpt><trkpt lat="51.12316201802626" lon="5.0604688629159975"><ele>24.0</ele><time>2026-04-06T12:10:49Z</time></trkpt><trkpt lat="51.123079718411034" lon="5.060281190327304"><ele>24.0</ele><time>2026-04-06T12:10:50Z</time></trkpt><trkpt lat="51.123001617261664" lon="5.060103091535566"><ele>24.0</ele><time>2026-04-06T12:10:51Z</time></trkpt><trkpt lat="51.122926631254224" lon="5.059930502084055"><ele>24.0</ele><time>2026-04-06T12:10:52Z</time></trkpt><trkpt lat="51.12285752263082" lon="5.059771271547197"><ele>24.0</ele><time>2026-04-06T12:10:53Z</time></trkpt><trkpt lat="51.122791625515944" lon="5.059623997435286"><ele>24.0</ele><time>2026-04-06T12:10:54Z</time></trkpt><trkpt lat="51.1227312349234" lon="5.059485537748623"><ele>24.0</ele><time>2026-04-06T12:10:55Z</time></trkpt><trkpt lat="51.12266926975149" lon="5.059343468097354"><ele>24.0</ele><time>2026-04-06T12:10:56Z</time></trkpt><trkpt lat="51.122605527492" lon="5.059197323951518"><ele>24.0</ele><time>2026-04-06T12:10:57Z</time></trkpt><trkpt lat="51.12253996854345" lon="5.059046855214463"><ele>24.0</ele><time>2026-04-06T12:10:58Z</time></trkpt><trkpt lat="51.12247236163575" lon="5.058891344709547"><ele>24.0</ele><time>2026-04-06T12:10:59Z</time></trkpt><trkpt lat="51.122403348802315" lon="5.058732600359806"><ele>24.0</ele><time>2026-04-06T12:11:00Z</time></trkpt><trkpt lat="51.12233305281558" lon="5.058570904427256"><ele>24.0</ele><time>2026-04-06T12:11:01Z</time></trkpt><trkpt lat="51.12226243315217" lon="5.058408743191231"><ele>24.0</ele><time>2026-04-06T12:11:02Z</time></trkpt><trkpt lat="51.122192431694806" lon="5.058248015056258"><ele>24.0</ele><time>2026-04-06T12:11:03Z</time></trkpt><trkpt lat="51.12212344773615" lon="5.058089623155754"><ele>24.0</ele><time>2026-04-06T12:11:04Z</time></trkpt><trkpt lat="51.12205470725822" lon="5.057930653485855"><ele>24.0</ele><time>2026-04-06T12:11:05Z</time></trkpt><trkpt lat="51.121985806309205" lon="5.057769917466359"><ele>24.0</ele><time>2026-04-06T12:11:06Z</time></trkpt><trkpt lat="51.12191566717792" lon="5.0576080755014505"><ele>24.0</ele><time>2026-04-06T12:11:07Z</time></trkpt><trkpt lat="51.121844618562946" lon="5.057446520170071"><ele>24.0</ele><time>2026-04-06T12:11:08Z</time></trkpt><trkpt lat="51.12177282465845" lon="5.057283270150238"><ele>24.0</ele><time>2026-04-06T12:11:09Z</time></trkpt><trkpt lat="51.12170189038601" lon="5.057118942814999"><ele>24.0</ele><time>2026-04-06T12:11:10Z</time></trkpt><trkpt lat="51.121639957212466" lon="5.056942825829193"><ele>24.0</ele><time>2026-04-06T12:11:11Z</time></trkpt><trkpt lat="51.12158953197219" lon="5.056747330563405"><ele>24.0</ele><time>2026-04-06T12:11:12Z</time></trkpt><trkpt lat="51.12153990334987" lon="5.056536338720673"><ele>24.0</ele><time>2026-04-06T12:11:13Z</time></trkpt><trkpt lat="51.12149173007622" lon="5.056340038700914"><ele>24.0</ele><time>2026-04-06T12:11:14Z</time></trkpt><trkpt lat="51.121445176791845" lon="5.056150642210998"><ele>24.75</ele><time>2026-04-06T12:11:15Z</time></trkpt><trkpt lat="51.12139907891825" lon="5.055965631144896"><ele>25.5</ele><time>2026-04-06T12:11:16Z</time></trkpt><trkpt lat="51.1213525101837" lon="5.055782505599408"><ele>26.25</ele><time>2026-04-06T12:11:17Z</time></trkpt><trkpt lat="51.1213063038727" lon="5.0555985170572875"><ele>27.0</ele><time>2026-04-06T12:11:18Z</time></trkpt><trkpt lat="51.12126153953589" lon="5.055410944127399"><ele>27.0</ele><time>2026-04-06T12:11:19Z</time></trkpt><trkpt lat="51.12121742291874" lon="5.055221684429005"><ele>27.0</ele><time>2026-04-06T12:11:20Z</time></trkpt><trkpt lat="51.12117283945257" lon="5.055030341970304"><ele>27.0</ele><time>2026-04-06T12:11:21Z</time></trkpt><trkpt lat="51.12113434369611" lon="5.054835757952187"><ele>27.0</ele><time>2026-04-06T12:11:22Z</time></trkpt><trkpt lat="51.12110676914114" lon="5.054636432774066"><ele>26.5</ele><time>2026-04-06T12:11:23Z</time></trkpt><trkpt lat="51.121095745187006" lon="5.054429202074565"><ele>26.0</ele><time>2026-04-06T12:11:24Z</time></trkpt><trkpt lat="51.12109828656059" lon="5.0542178420843475"><ele>25.5</ele><time>2026-04-06T12:11:25Z</time></trkpt><trkpt lat="51.121110830574196" lon="5.054001685165777"><ele>25.0</ele><time>2026-04-06T12:11:26Z</time></trkpt><trkpt lat="51.12113457425295" lon="5.0537870841712325"><ele>25.0</ele><time>2026-04-06T12:11:27Z</time></trkpt><trkpt lat="51.12116493734034" lon="5.053576104247946"><ele>25.0</ele><time>2026-04-06T12:11:28Z</time></trkpt><trkpt lat="51.121194163372486" lon="5.0533648835674185"><ele>25.0</ele><time>2026-04-06T12:11:29Z</time></trkpt><trkpt lat="51.12121996006727" lon="5.0531562494230196"><ele>25.0</ele><time>2026-04-06T12:11:30Z</time></trkpt><trkpt lat="51.12123476210689" lon="5.0529447979789355"><ele>25.25</ele><time>2026-04-06T12:11:31Z</time></trkpt><trkpt lat="51.121223272314886" lon="5.052730087449175"><ele>25.5</ele><time>2026-04-06T12:11:32Z</time></trkpt><trkpt lat="51.1211993666548" lon="5.052530101773434"><ele>25.75</ele><time>2026-04-06T12:11:33Z</time></trkpt><trkpt lat="51.12117448420529" lon="5.052331500104446"><ele>26.0</ele><time>2026-04-06T12:11:34Z</time></trkpt><trkpt lat="51.121150019126475" lon="5.052130646277503"><ele>26.0</ele><time>2026-04-06T12:11:35Z</time></trkpt><trkpt lat="51.121126100169704" lon="5.05192792495616"><ele>26.0</ele><time>2026-04-06T12:11:36Z</time></trkpt><trkpt lat="51.12110626689871" lon="5.051725700134569"><ele>26.0</ele><time>2026-04-06T12:11:37Z</time></trkpt><trkpt lat="51.12109143461432" lon="5.0515201852564"><ele>26.0</ele><time>2026-04-06T12:11:38Z</time></trkpt><trkpt lat="51.121079324398565" lon="5.05131171315356"><ele>26.0</ele><time>2026-04-06T12:11:39Z</time></trkpt><trkpt lat="51.12106705121361" lon="5.0511004379942355"><ele>26.0</ele><time>2026-04-06T12:11:40Z</time></trkpt><trkpt lat="51.12105460583877" lon="5.050889738865406"><ele>26.0</ele><time>2026-04-06T12:11:41Z</time></trkpt><trkpt lat="51.12104329978068" lon="5.050678952266465"><ele>26.0</ele><time>2026-04-06T12:11:42Z</time></trkpt><trkpt lat="51.12103307367979" lon="5.050480762668415"><ele>25.8</ele><time>2026-04-06T12:11:43Z</time></trkpt><trkpt lat="51.121019029326646" lon="5.050297440058423"><ele>25.6</ele><time>2026-04-06T12:11:44Z</time></trkpt><trkpt lat="51.12100129108093" lon="5.050130050167111"><ele>25.4</ele><time>2026-04-06T12:11:45Z</time></trkpt><trkpt lat="51.120965375291455" lon="5.049959883935305"><ele>25.2</ele><time>2026-04-06T12:11:46Z</time></trkpt><trkpt lat="51.12092504334504" lon="5.049798727428433"><ele>25.0</ele><time>2026-04-06T12:11:47Z</time></trkpt><trkpt lat="51.120888422579114" lon="5.049660655340439"><ele>24.8</ele><time>2026-04-06T12:11:48Z</time></trkpt><trkpt lat="51.12085636561633" lon="5.0495484259720875"><ele>24.6</ele><time>2026-04-06T12:11:50Z</time></trkpt><trkpt lat="51.12082191430083" lon="5.049442612568322"><ele>24.4</ele><time>2026-04-06T12:11:53Z</time></trkpt><trkpt lat="51.12091429357928" lon="5.049313310320915"><ele>24.2</ele><time>2026-04-06T12:11:55Z</time></trkpt><trkpt lat="51.12100548619496" lon="5.049278317446919"><ele>24.0</ele><time>2026-04-06T12:11:56Z</time></trkpt><trkpt lat="51.12110603317388" lon="5.049229797452638"><ele>24.0</ele><time>2026-04-06T12:11:57Z</time></trkpt><trkpt lat="51.12120215571849" lon="5.049179851937639"><ele>24.0</ele><time>2026-04-06T12:11:58Z</time></trkpt><trkpt lat="51.12130692971402" lon="5.049117745557769"><ele>24.0</ele><time>2026-04-06T12:11:59Z</time></trkpt><trkpt lat="51.12142114041237" lon="5.049040727471104"><ele>24.0</ele><time>2026-04-06T12:12:00Z</time></trkpt><trkpt lat="51.121540865407056" lon="5.048948027733519"><ele>24.0</ele><time>2026-04-06T12:12:01Z</time></trkpt><trkpt lat="51.12164827739885" lon="5.048851731044923"><ele>24.0</ele><time>2026-04-06T12:12:02Z</time></trkpt><trkpt lat="51.1217633610709" lon="5.048769678585528"><ele>24.0</ele><time>2026-04-06T12:12:03Z</time></trkpt><trkpt lat="51.12186610822093" lon="5.048630203653392"><ele>24.0</ele><time>2026-04-06T12:12:04Z</time></trkpt><trkpt lat="51.12197975523575" lon="5.04850504678618"><ele>24.0</ele><time>2026-04-06T12:12:05Z</time></trkpt><trkpt lat="51.122092882932456" lon="5.04836436071178"><ele>24.0</ele><time>2026-04-06T12:12:06Z</time></trkpt><trkpt lat="51.12220411670207" lon="5.04820745501188"><ele>24.0</ele><time>2026-04-06T12:12:07Z</time></trkpt><trkpt lat="51.12230919755642" lon="5.048040562315895"><ele>24.0</ele><time>2026-04-06T12:12:08Z</time></trkpt><trkpt lat="51.12240830227741" lon="5.047867010739439"><ele>23.75</ele><time>2026-04-06T12:12:09Z</time></trkpt><trkpt lat="51.12251411845256" lon="5.047702596702427"><ele>23.5</ele><time>2026-04-06T12:12:10Z</time></trkpt><trkpt lat="51.12260013304011" lon="5.047512700613114"><ele>23.25</ele><time>2026-04-06T12:12:11Z</time></trkpt><trkpt lat="51.12266373767924" lon="5.047304508846213"><ele>23.0</ele><time>2026-04-06T12:12:12Z</time></trkpt><trkpt lat="51.12275241324299" lon="5.0471250278492645"><ele>22.75</ele><time>2026-04-06T12:12:13Z</time></trkpt><trkpt lat="51.12282685291589" lon="5.046929271501137"><ele>22.5</ele><time>2026-04-06T12:12:14Z</time></trkpt><trkpt lat="51.1228886469584" lon="5.046719297544386"><ele>22.25</ele><time>2026-04-06T12:12:15Z</time></trkpt><trkpt lat="51.122964186720026" lon="5.046521710372007"><ele>22.0</ele><time>2026-04-06T12:12:16Z</time></trkpt><trkpt lat="51.12303887744343" lon="5.0463204998066935"><ele>22.0</ele><time>2026-04-06T12:12:17Z</time></trkpt><trkpt lat="51.12311797728342" lon="5.046111937770543"><ele>22.0</ele><time>2026-04-06T12:12:18Z</time></trkpt><trkpt lat="51.123205396440035" lon="5.04588450813394"><ele>22.0</ele><time>2026-04-06T12:12:19Z</time></trkpt><trkpt lat="51.12330362079073" lon="5.045634538184037"><ele>21.0</ele><time>2026-04-06T12:12:20Z</time></trkpt><trkpt lat="51.123414228782934" lon="5.045348087986042"><ele>20.0</ele><time>2026-04-06T12:12:21Z</time></trkpt><trkpt lat="51.12352021432898" lon="5.045073533802369"><ele>19.0</ele><time>2026-04-06T12:12:22Z</time></trkpt><trkpt lat="51.123620295464605" lon="5.044813824745558"><ele>19.0</ele><time>2026-04-06T12:12:23Z</time></trkpt><trkpt lat="51.12371710358467" lon="5.0445629203313285"><ele>19.0</ele><time>2026-04-06T12:12:24Z</time></trkpt><trkpt lat="51.12380920572389" lon="5.044323919562577"><ele>19.0</ele><time>2026-04-06T12:12:25Z</time></trkpt><trkpt lat="51.123897046259124" lon="5.044098336215016"><ele>19.0</ele><time>2026-04-06T12:12:26Z</time></trkpt><trkpt lat="51.12397960264174" lon="5.04388722848036"><ele>19.0</ele><time>2026-04-06T12:12:27Z</time></trkpt><trkpt lat="51.124055951143696" lon="5.043687016222606"><ele>19.0</ele><time>2026-04-06T12:12:28Z</time></trkpt><trkpt lat="51.124129258592184" lon="5.043495146679973"><ele>19.0</ele><time>2026-04-06T12:12:29Z</time></trkpt><trkpt lat="51.124202898385846" lon="5.043304928079958"><ele>19.0</ele><time>2026-04-06T12:12:30Z</time></trkpt><trkpt lat="51.12427540151696" lon="5.043116607124697"><ele>19.0</ele><time>2026-04-06T12:12:31Z</time></trkpt><trkpt lat="51.12434719897338" lon="5.0429295336598985"><ele>19.0</ele><time>2026-04-06T12:12:32Z</time></trkpt><trkpt lat="51.124418311217205" lon="5.042743752342214"><ele>19.0</ele><time>2026-04-06T12:12:33Z</time></trkpt><trkpt lat="51.12448877980158" lon="5.042559101774567"><ele>19.25</ele><time>2026-04-06T12:12:34Z</time></trkpt><trkpt lat="51.1245608045944" lon="5.042377256818935"><ele>19.5</ele><time>2026-04-06T12:12:35Z</time></trkpt><trkpt lat="51.124634801355874" lon="5.042190362154532"><ele>19.75</ele><time>2026-04-06T12:12:36Z</time></trkpt><trkpt lat="51.12470978276822" lon="5.041999288045364"><ele>20.0</ele><time>2026-04-06T12:12:37Z</time></trkpt><trkpt lat="51.12479787049811" lon="5.041810737015183"><ele>19.666666666666668</ele><time>2026-04-06T12:12:38Z</time></trkpt><trkpt lat="51.12489087573159" lon="5.041621675268508"><ele>19.333333333333332</ele><time>2026-04-06T12:12:39Z</time></trkpt><trkpt lat="51.12498609668755" lon="5.041420949854525"><ele>19.0</ele><time>2026-04-06T12:12:40Z</time></trkpt><trkpt lat="51.1251099962158" lon="5.04123517106331"><ele>19.0</ele><time>2026-04-06T12:12:41Z</time></trkpt><trkpt lat="51.125225969975425" lon="5.040998289294243"><ele>19.0</ele><time>2026-04-06T12:12:42Z</time></trkpt><trkpt lat="51.12536818096963" lon="5.040766005315369"><ele>19.0</ele><time>2026-04-06T12:12:43Z</time></trkpt><trkpt lat="51.12550440837544" lon="5.040551122394259"><ele>19.0</ele><time>2026-04-06T12:12:44Z</time></trkpt><trkpt lat="51.12563767656291" lon="5.040339174223327"><ele>19.0</ele><time>2026-04-06T12:12:45Z</time></trkpt><trkpt lat="51.125763918334734" lon="5.04012710113181"><ele>19.0</ele><time>2026-04-06T12:12:46Z</time></trkpt><trkpt lat="51.12588710894989" lon="5.0399163264290845"><ele>19.0</ele><time>2026-04-06T12:12:47Z</time></trkpt><trkpt lat="51.12600252701715" lon="5.039722516053086"><ele>19.0</ele><time>2026-04-06T12:12:48Z</time></trkpt><trkpt lat="51.12611408146902" lon="5.039530492012234"><ele>19.0</ele><time>2026-04-06T12:12:49Z</time></trkpt><trkpt lat="51.126226169556354" lon="5.039326688302897"><ele>19.0</ele><time>2026-04-06T12:12:50Z</time></trkpt><trkpt lat="51.12633705081641" lon="5.0391129893625255"><ele>19.0</ele><time>2026-04-06T12:12:51Z</time></trkpt><trkpt lat="51.126439778281764" lon="5.038882662045249"><ele>19.0</ele><time>2026-04-06T12:12:52Z</time></trkpt><trkpt lat="51.12654125858659" lon="5.038643140796837"><ele>19.0</ele><time>2026-04-06T12:12:53Z</time></trkpt><trkpt lat="51.12664665673525" lon="5.038404758599412"><ele>19.0</ele><time>2026-04-06T12:12:54Z</time></trkpt><trkpt lat="51.12674968701708" lon="5.038169290757278"><ele>19.0</ele><time>2026-04-06T12:12:55Z</time></trkpt><trkpt lat="51.12685299473361" lon="5.037934406356159"><ele>19.0</ele><time>2026-04-06T12:12:56Z</time></trkpt><trkpt lat="51.12695887464462" lon="5.037695051883032"><ele>19.0</ele><time>2026-04-06T12:12:57Z</time></trkpt><trkpt lat="51.12706523277355" lon="5.037453008275473"><ele>19.0</ele><time>2026-04-06T12:12:58Z</time></trkpt><trkpt lat="51.127171805281584" lon="5.037208891524457"><ele>19.0</ele><time>2026-04-06T12:12:59Z</time></trkpt><trkpt lat="51.12727823008083" lon="5.036965451600554"><ele>19.0</ele><time>2026-04-06T12:13:00Z</time></trkpt><trkpt lat="51.127385358341655" lon="5.036718978528721"><ele>19.0</ele><time>2026-04-06T12:13:01Z</time></trkpt><trkpt lat="51.12749282603015" lon="5.036470901299103"><ele>19.333333333333332</ele><time>2026-04-06T12:13:02Z</time></trkpt><trkpt lat="51.12759975365893" lon="5.036220634174553"><ele>19.666666666666668</ele><time>2026-04-06T12:13:03Z</time></trkpt><trkpt lat="51.127707739401025" lon="5.035967599807888"><ele>20.0</ele><time>2026-04-06T12:13:04Z</time></trkpt><trkpt lat="51.1278194261664" lon="5.035716624010786"><ele>20.0</ele><time>2026-04-06T12:13:05Z</time></trkpt><trkpt lat="51.127930286220575" lon="5.0354643559155035"><ele>20.0</ele><time>2026-04-06T12:13:06Z</time></trkpt><trkpt lat="51.12803960307183" lon="5.035214773360144"><ele>20.0</ele><time>2026-04-06T12:13:07Z</time></trkpt><trkpt lat="51.128146718024645" lon="5.034966884850328"><ele>20.333333333333336</ele><time>2026-04-06T12:13:08Z</time></trkpt><trkpt lat="51.128252404451615" lon="5.034719322199865"><ele>20.666666666666668</ele><time>2026-04-06T12:13:09Z</time></trkpt><trkpt lat="51.12835762946047" lon="5.034475826525831"><ele>21.0</ele><time>2026-04-06T12:13:10Z</time></trkpt><trkpt lat="51.12846350567854" lon="5.034234657953394"><ele>21.333333333333332</ele><time>2026-04-06T12:13:11Z</time></trkpt><trkpt lat="51.128571173105215" lon="5.033997874662239"><ele>21.666666666666664</ele><time>2026-04-06T12:13:12Z</time></trkpt><trkpt lat="51.12867654244184" lon="5.033760165182167"><ele>22.0</ele><time>2026-04-06T12:13:13Z</time></trkpt><trkpt lat="51.12878031999459" lon="5.033520595017209"><ele>22.333333333333332</ele><time>2026-04-06T12:13:14Z</time></trkpt><trkpt lat="51.12889745023724" lon="5.033293914656273"><ele>22.666666666666668</ele><time>2026-04-06T12:13:15Z</time></trkpt><trkpt lat="51.12902494240004" lon="5.033079465313478"><ele>23.0</ele><time>2026-04-06T12:13:16Z</time></trkpt><trkpt lat="51.1291626316359" lon="5.0328796620950165"><ele>23.333333333333336</ele><time>2026-04-06T12:13:17Z</time></trkpt><trkpt lat="51.12930479309749" lon="5.032688570023664"><ele>23.666666666666668</ele><time>2026-04-06T12:13:18Z</time></trkpt><trkpt lat="51.1294431733495" lon="5.032491707926031"><ele>24.0</ele><time>2026-04-06T12:13:19Z</time></trkpt><trkpt lat="51.129579909511435" lon="5.03229611128314"><ele>24.666666666666664</ele><time>2026-04-06T12:13:20Z</time></trkpt><trkpt lat="51.12971886360796" lon="5.032100622988905"><ele>25.333333333333332</ele><time>2026-04-06T12:13:21Z</time></trkpt><trkpt lat="51.129857712606324" lon="5.031904928313594"><ele>26.0</ele><time>2026-04-06T12:13:22Z</time></trkpt><trkpt lat="51.129996851609896" lon="5.031709364038801"><ele>25.0</ele><time>2026-04-06T12:13:23Z</time></trkpt><trkpt lat="51.13013530845312" lon="5.031511521532056"><ele>24.0</ele><time>2026-04-06T12:13:24Z</time></trkpt><trkpt lat="51.1302736855609" lon="5.0313100141840055"><ele>23.0</ele><time>2026-04-06T12:13:25Z</time></trkpt><trkpt lat="51.130412050558036" lon="5.0311043509578575"><ele>23.0</ele><time>2026-04-06T12:13:26Z</time></trkpt><trkpt lat="51.13055502909298" lon="5.030906782599213"><ele>23.0</ele><time>2026-04-06T12:13:27Z</time></trkpt><trkpt lat="51.130698657119794" lon="5.030707100475243"><ele>23.0</ele><time>2026-04-06T12:13:28Z</time></trkpt><trkpt lat="51.13084238189356" lon="5.030505240499741"><ele>22.666666666666668</ele><time>2026-04-06T12:13:29Z</time></trkpt><trkpt lat="51.1309859854213" lon="5.030305002307416"><ele>22.333333333333332</ele><time>2026-04-06T12:13:30Z</time></trkpt><trkpt lat="51.131128445504054" lon="5.030105488774666"><ele>22.0</ele><time>2026-04-06T12:13:31Z</time></trkpt><trkpt lat="51.13126933680915" lon="5.029905477797937"><ele>22.0</ele><time>2026-04-06T12:13:32Z</time></trkpt><trkpt lat="51.131409920122465" lon="5.029706042743921"><ele>22.0</ele><time>2026-04-06T12:13:33Z</time></trkpt><trkpt lat="51.13155061056134" lon="5.029507987270135"><ele>22.0</ele><time>2026-04-06T12:13:34Z</time></trkpt><trkpt lat="51.131692736488525" lon="5.029314249857976"><ele>22.0</ele><time>2026-04-06T12:13:35Z</time></trkpt><trkpt lat="51.131830376316216" lon="5.029115324787778"><ele>22.0</ele><time>2026-04-06T12:13:36Z</time></trkpt><trkpt lat="51.13196092426335" lon="5.028906922053329"><ele>22.0</ele><time>2026-04-06T12:13:37Z</time></trkpt><trkpt lat="51.132096728166495" lon="5.028705858040868"><ele>22.0</ele><time>2026-04-06T12:13:38Z</time></trkpt><trkpt lat="51.132232906421635" lon="5.028505579093336"><ele>22.0</ele><time>2026-04-06T12:13:39Z</time></trkpt><trkpt lat="51.132367361762974" lon="5.02830262367455"><ele>22.0</ele><time>2026-04-06T12:13:40Z</time></trkpt><trkpt lat="51.132502359653934" lon="5.028096852107599"><ele>22.0</ele><time>2026-04-06T12:13:41Z</time></trkpt><trkpt lat="51.13263734661893" lon="5.027892157256858"><ele>22.0</ele><time>2026-04-06T12:13:42Z</time></trkpt><trkpt lat="51.132774626097564" lon="5.027685861611841"><ele>22.0</ele><time>2026-04-06T12:13:43Z</time></trkpt><trkpt lat="51.132913069284115" lon="5.027478267527604"><ele>21.666666666666664</ele><time>2026-04-06T12:13:44Z</time></trkpt><trkpt lat="51.133051745700726" lon="5.027270208550264"><ele>21.333333333333332</ele><time>2026-04-06T12:13:45Z</time></trkpt><trkpt lat="51.133190510033764" lon="5.027061414808091"><ele>21.0</ele><time>2026-04-06T12:13:46Z</time></trkpt><trkpt lat="51.13333011031853" lon="5.026852115571852"><ele>21.666666666666668</ele><time>2026-04-06T12:13:47Z</time></trkpt><trkpt lat="51.13347088171519" lon="5.026641534352592"><ele>22.333333333333336</ele><time>2026-04-06T12:13:48Z</time></trkpt><trkpt lat="51.13361120580907" lon="5.026432628889931"><ele>23.0</ele><time>2026-04-06T12:13:49Z</time></trkpt><trkpt lat="51.13375139700358" lon="5.026224221186944"><ele>23.0</ele><time>2026-04-06T12:13:50Z</time></trkpt><trkpt lat="51.133891331472455" lon="5.02601662356894"><ele>23.0</ele><time>2026-04-06T12:13:51Z</time></trkpt><trkpt lat="51.13403035974831" lon="5.025805587690797"><ele>23.0</ele><time>2026-04-06T12:13:52Z</time></trkpt><trkpt lat="51.134168321413206" lon="5.025593495084265"><ele>23.0</ele><time>2026-04-06T12:13:53Z</time></trkpt><trkpt lat="51.13430671156704" lon="5.0253802523287066"><ele>23.0</ele><time>2026-04-06T12:13:54Z</time></trkpt><trkpt lat="51.1344491768985" lon="5.0251706159948215"><ele>23.0</ele><time>2026-04-06T12:13:55Z</time></trkpt><trkpt lat="51.13459352007988" lon="5.024966696783007"><ele>22.666666666666668</ele><time>2026-04-06T12:13:56Z</time></trkpt><trkpt lat="51.13473787438905" lon="5.024762598181359"><ele>22.333333333333332</ele><time>2026-04-06T12:13:57Z</time></trkpt><trkpt lat="51.1348796714562" lon="5.024553517349078"><ele>22.0</ele><time>2026-04-06T12:13:58Z</time></trkpt><trkpt lat="51.13501848007264" lon="5.024340555599028"><ele>22.666666666666664</ele><time>2026-04-06T12:13:59Z</time></trkpt><trkpt lat="51.1351580301968" lon="5.024128297249323"><ele>23.333333333333332</ele><time>2026-04-06T12:14:00Z</time></trkpt><trkpt lat="51.13529441368722" lon="5.023924611004437"><ele>24.0</ele><time>2026-04-06T12:14:01Z</time></trkpt><trkpt lat="51.13541969449978" lon="5.023717573247416"><ele>24.0</ele><time>2026-04-06T12:14:02Z</time></trkpt><trkpt lat="51.13553716522641" lon="5.023499870914065"><ele>24.0</ele><time>2026-04-06T12:14:03Z</time></trkpt><trkpt lat="51.13565041838818" lon="5.023275217718709"><ele>24.0</ele><time>2026-04-06T12:14:04Z</time></trkpt><trkpt lat="51.13575777383187" lon="5.023042389140871"><ele>23.666666666666668</ele><time>2026-04-06T12:14:05Z</time></trkpt><trkpt lat="51.135865571849784" lon="5.022806070363216"><ele>23.333333333333336</ele><time>2026-04-06T12:14:06Z</time></trkpt><trkpt lat="51.13597658443128" lon="5.022572175092007"><ele>23.0</ele><time>2026-04-06T12:14:07Z</time></trkpt><trkpt lat="51.13608854660314" lon="5.022337970917801"><ele>23.0</ele><time>2026-04-06T12:14:08Z</time></trkpt><trkpt lat="51.13620036553756" lon="5.022102647820137"><ele>23.0</ele><time>2026-04-06T12:14:09Z</time></trkpt><trkpt lat="51.13631358768224" lon="5.021865682873223"><ele>23.0</ele><time>2026-04-06T12:14:10Z</time></trkpt><trkpt lat="51.136426531149915" lon="5.021628347968797"><ele>22.666666666666668</ele><time>2026-04-06T12:14:11Z</time></trkpt><trkpt lat="51.136539996355076" lon="5.0213905427782395"><ele>22.333333333333332</ele><time>2026-04-06T12:14:12Z</time></trkpt><trkpt lat="51.136652995944154" lon="5.021154115585053"><ele>22.0</ele><time>2026-04-06T12:14:13Z</time></trkpt><trkpt lat="51.13676499508838" lon="5.020916051909446"><ele>22.333333333333332</ele><time>2026-04-06T12:14:14Z</time></trkpt><trkpt lat="51.136877100368146" lon="5.020678340630056"><ele>22.666666666666668</ele><time>2026-04-06T12:14:15Z</time></trkpt><trkpt lat="51.13699120655859" lon="5.020440133774581"><ele>23.0</ele><time>2026-04-06T12:14:16Z</time></trkpt><trkpt lat="51.13710506115539" lon="5.020201588293642"><ele>23.333333333333336</ele><time>2026-04-06T12:14:17Z</time></trkpt><trkpt lat="51.13721819808411" lon="5.019962599512971"><ele>23.666666666666668</ele><time>2026-04-06T12:14:18Z</time></trkpt><trkpt lat="51.137330151418084" lon="5.019722639782128"><ele>24.0</ele><time>2026-04-06T12:14:19Z</time></trkpt><trkpt lat="51.13744172521616" lon="5.019485419588061"><ele>24.0</ele><time>2026-04-06T12:14:20Z</time></trkpt><trkpt lat="51.137553028115974" lon="5.0192505393429805"><ele>24.0</ele><time>2026-04-06T12:14:21Z</time></trkpt><trkpt lat="51.13766370400184" lon="5.019020686315496"><ele>24.0</ele><time>2026-04-06T12:14:22Z</time></trkpt><trkpt lat="51.13777345970718" lon="5.01878680465246"><ele>23.333333333333332</ele><time>2026-04-06T12:14:23Z</time></trkpt><trkpt lat="51.13788274713413" lon="5.018556903346649"><ele>22.666666666666664</ele><time>2026-04-06T12:14:24Z</time></trkpt><trkpt lat="51.137992081443436" lon="5.018327680532391"><ele>22.0</ele><time>2026-04-06T12:14:25Z</time></trkpt><trkpt lat="51.138102183913816" lon="5.01810225439632"><ele>21.666666666666664</ele><time>2026-04-06T12:14:26Z</time></trkpt><trkpt lat="51.138209211941145" lon="5.017873996002401"><ele>21.333333333333332</ele><time>2026-04-06T12:14:27Z</time></trkpt><trkpt lat="51.138316142995414" lon="5.017649923063963"><ele>21.0</ele><time>2026-04-06T12:14:28Z</time></trkpt><trkpt lat="51.13842218984122" lon="5.017422913475166"><ele>21.0</ele><time>2026-04-06T12:14:29Z</time></trkpt><trkpt lat="51.1385274868402" lon="5.01719799891268"><ele>21.0</ele><time>2026-04-06T12:14:30Z</time></trkpt><trkpt lat="51.13863351256282" lon="5.0169733574093325"><ele>21.0</ele><time>2026-04-06T12:14:31Z</time></trkpt><trkpt lat="51.13874220441415" lon="5.016750106678756"><ele>21.0</ele><time>2026-04-06T12:14:32Z</time></trkpt><trkpt lat="51.138849967654664" lon="5.016526314186374"><ele>21.0</ele><time>2026-04-06T12:14:33Z</time></trkpt><trkpt lat="51.138957422696556" lon="5.016299779536324"><ele>21.0</ele><time>2026-04-06T12:14:34Z</time></trkpt><trkpt lat="51.13906611920393" lon="5.016073828321549"><ele>21.0</ele><time>2026-04-06T12:14:35Z</time></trkpt><trkpt lat="51.139172771961576" lon="5.015845382053482"><ele>21.0</ele><time>2026-04-06T12:14:36Z</time></trkpt><trkpt lat="51.139279767550235" lon="5.015615683558776"><ele>21.0</ele><time>2026-04-06T12:14:37Z</time></trkpt><trkpt lat="51.13939028551225" lon="5.0153890721724945"><ele>21.0</ele><time>2026-04-06T12:14:38Z</time></trkpt><trkpt lat="51.139497585241145" lon="5.015162519352032"><ele>21.0</ele><time>2026-04-06T12:14:39Z</time></trkpt><trkpt lat="51.13960491389855" lon="5.014935306101034"><ele>21.0</ele><time>2026-04-06T12:14:40Z</time></trkpt><trkpt lat="51.13971298412962" lon="5.0147074470850495"><ele>21.0</ele><time>2026-04-06T12:14:41Z</time></trkpt><trkpt lat="51.13982601824873" lon="5.014484897907845"><ele>21.0</ele><time>2026-04-06T12:14:42Z</time></trkpt><trkpt lat="51.13993915110328" lon="5.014263689163626"><ele>21.0</ele><time>2026-04-06T12:14:43Z</time></trkpt><trkpt lat="51.140045360273575" lon="5.014031045041249"><ele>21.0</ele><time>2026-04-06T12:14:44Z</time></trkpt><trkpt lat="51.14014480371807" lon="5.0137909461399905"><ele>21.0</ele><time>2026-04-06T12:14:45Z</time></trkpt><trkpt lat="51.1402391193911" lon="5.013542082748355"><ele>21.0</ele><time>2026-04-06T12:14:46Z</time></trkpt><trkpt lat="51.14032741753477" lon="5.013287819624875"><ele>21.0</ele><time>2026-04-06T12:14:47Z</time></trkpt><trkpt lat="51.14040238498388" lon="5.013042721125495"><ele>21.0</ele><time>2026-04-06T12:14:48Z</time></trkpt><trkpt lat="51.140471126352125" lon="5.012788475802516"><ele>21.0</ele><time>2026-04-06T12:14:49Z</time></trkpt><trkpt lat="51.14053954624568" lon="5.01253389182848"><ele>21.0</ele><time>2026-04-06T12:14:50Z</time></trkpt><trkpt lat="51.14061060972784" lon="5.012281980180968"><ele>21.0</ele><time>2026-04-06T12:14:51Z</time></trkpt><trkpt lat="51.14068052326163" lon="5.012029159057012"><ele>21.0</ele><time>2026-04-06T12:14:52Z</time></trkpt><trkpt lat="51.140748106973525" lon="5.01177459879932"><ele>21.0</ele><time>2026-04-06T12:14:53Z</time></trkpt><trkpt lat="51.140817037978636" lon="5.0115255074710525"><ele>21.0</ele><time>2026-04-06T12:14:54Z</time></trkpt><trkpt lat="51.14088310159872" lon="5.011294878250448"><ele>21.0</ele><time>2026-04-06T12:14:55Z</time></trkpt><trkpt lat="51.1409455753733" lon="5.011077782499887"><ele>21.0</ele><time>2026-04-06T12:14:56Z</time></trkpt><trkpt lat="51.14100162574034" lon="5.010875072848474"><ele>21.0</ele><time>2026-04-06T12:14:57Z</time></trkpt><trkpt lat="51.14105447078187" lon="5.010683217488396"><ele>21.0</ele><time>2026-04-06T12:14:58Z</time></trkpt><trkpt lat="51.14110350631174" lon="5.010504105882353"><ele>21.0</ele><time>2026-04-06T12:14:59Z</time></trkpt><trkpt lat="51.14114834817121" lon="5.01033303692727"><ele>21.0</ele><time>2026-04-06T12:15:00Z</time></trkpt><trkpt lat="51.14119293477968" lon="5.010173424602879"><ele>21.0</ele><time>2026-04-06T12:15:01Z</time></trkpt><trkpt lat="51.14123869415528" lon="5.010026604220142"><ele>21.0</ele><time>2026-04-06T12:15:02Z</time></trkpt><trkpt lat="51.141278652379675" lon="5.009879320656792"><ele>21.0</ele><time>2026-04-06T12:15:03Z</time></trkpt><trkpt lat="51.14129941461775" lon="5.009743967867015"><ele>21.0</ele><time>2026-04-06T12:15:04Z</time></trkpt><trkpt lat="51.141302259524615" lon="5.009616926439063"><ele>21.0</ele><time>2026-04-06T12:15:05Z</time></trkpt><trkpt lat="51.141294589368755" lon="5.0094924004491475"><ele>21.0</ele><time>2026-04-06T12:15:06Z</time></trkpt><trkpt lat="51.14124990618703" lon="5.00933994278504"><ele>21.0</ele><time>2026-04-06T12:15:08Z</time></trkpt><trkpt lat="51.141360691920255" lon="5.0092182220333195"><ele>21.0</ele><time>2026-04-06T12:15:09Z</time></trkpt><trkpt lat="51.141384959621924" lon="5.009038116443092"><ele>21.0</ele><time>2026-04-06T12:15:11Z</time></trkpt><trkpt lat="51.14136119479983" lon="5.008911669456929"><ele>20.75</ele><time>2026-04-06T12:15:12Z</time></trkpt><trkpt lat="51.14131352300336" lon="5.008774985890412"><ele>20.5</ele><time>2026-04-06T12:15:13Z</time></trkpt><trkpt lat="51.14125620063887" lon="5.00862366470391"><ele>20.25</ele><time>2026-04-06T12:15:14Z</time></trkpt><trkpt lat="51.141191834694084" lon="5.008449334809477"><ele>20.0</ele><time>2026-04-06T12:15:15Z</time></trkpt><trkpt lat="51.1411203185099" lon="5.008241583656516"><ele>19.666666666666668</ele><time>2026-04-06T12:15:16Z</time></trkpt><trkpt lat="51.14106570945678" lon="5.008017930014277"><ele>19.333333333333332</ele><time>2026-04-06T12:15:17Z</time></trkpt><trkpt lat="51.140991338151814" lon="5.007789480829632"><ele>19.0</ele><time>2026-04-06T12:15:18Z</time></trkpt><trkpt lat="51.14090508009487" lon="5.007556277532186"><ele>18.666666666666664</ele><time>2026-04-06T12:15:19Z</time></trkpt><trkpt lat="51.14081530553996" lon="5.007323450777627"><ele>18.333333333333332</ele><time>2026-04-06T12:15:20Z</time></trkpt><trkpt lat="51.14072354987362" lon="5.007094595444229"><ele>18.0</ele><time>2026-04-06T12:15:21Z</time></trkpt><trkpt lat="51.140629841185515" lon="5.00686152136831"><ele>19.333333333333332</ele><time>2026-04-06T12:15:22Z</time></trkpt><trkpt lat="51.14053794339601" lon="5.006631785803722"><ele>20.666666666666664</ele><time>2026-04-06T12:15:23Z</time></trkpt><trkpt lat="51.14045197051843" lon="5.006416978657581"><ele>22.0</ele><time>2026-04-06T12:15:24Z</time></trkpt><trkpt lat="51.140366016542664" lon="5.006203930811659"><ele>22.0</ele><time>2026-04-06T12:15:25Z</time></trkpt><trkpt lat="51.1402808303569" lon="5.005989746722709"><ele>22.0</ele><time>2026-04-06T12:15:26Z</time></trkpt><trkpt lat="51.14019376792603" lon="5.005771020795271"><ele>22.0</ele><time>2026-04-06T12:15:27Z</time></trkpt><trkpt lat="51.14012623473653" lon="5.005530213497181"><ele>21.0</ele><time>2026-04-06T12:15:28Z</time></trkpt><trkpt lat="51.14007146597912" lon="5.0052714257218645"><ele>20.0</ele><time>2026-04-06T12:15:29Z</time></trkpt><trkpt lat="51.1400062835755" lon="5.0050081356812255"><ele>19.0</ele><time>2026-04-06T12:15:30Z</time></trkpt><trkpt lat="51.1399613475239" lon="5.004743959409302"><ele>18.666666666666664</ele><time>2026-04-06T12:15:31Z</time></trkpt><trkpt lat="51.139916618905765" lon="5.004480258512148"><ele>18.333333333333332</ele><time>2026-04-06T12:15:32Z</time></trkpt><trkpt lat="51.139872231722784" lon="5.0042194834339"><ele>18.0</ele><time>2026-04-06T12:15:33Z</time></trkpt><trkpt lat="51.139827932753214" lon="5.003956627255017"><ele>18.0</ele><time>2026-04-06T12:15:34Z</time></trkpt><trkpt lat="51.139783125447785" lon="5.0036903655395975"><ele>18.0</ele><time>2026-04-06T12:15:35Z</time></trkpt><trkpt lat="51.1397335058459" lon="5.003420668303121"><ele>18.0</ele><time>2026-04-06T12:15:36Z</time></trkpt><trkpt lat="51.13969272364942" lon="5.003141891169597"><ele>18.0</ele><time>2026-04-06T12:15:37Z</time></trkpt><trkpt lat="51.13962265618468" lon="5.002871516427786"><ele>18.0</ele><time>2026-04-06T12:15:38Z</time></trkpt><trkpt lat="51.139535510183535" lon="5.002607565633977"><ele>18.0</ele><time>2026-04-06T12:15:39Z</time></trkpt><trkpt lat="51.13944695346022" lon="5.00234502042791"><ele>18.0</ele><time>2026-04-06T12:15:40Z</time></trkpt><trkpt lat="51.13935788335767" lon="5.002080170786501"><ele>18.0</ele><time>2026-04-06T12:15:41Z</time></trkpt><trkpt lat="51.13926891645332" lon="5.001815277288645"><ele>18.0</ele><time>2026-04-06T12:15:42Z</time></trkpt><trkpt lat="51.13918097155885" lon="5.001552188147418"><ele>18.0</ele><time>2026-04-06T12:15:43Z</time></trkpt><trkpt lat="51.13909475263513" lon="5.001297158108181"><ele>18.0</ele><time>2026-04-06T12:15:44Z</time></trkpt><trkpt lat="51.13901160584779" lon="5.001049647312146"><ele>18.0</ele><time>2026-04-06T12:15:45Z</time></trkpt><trkpt lat="51.13893451196719" lon="5.000815811554198"><ele>18.0</ele><time>2026-04-06T12:15:46Z</time></trkpt><trkpt lat="51.138862068699396" lon="5.000596242912022"><ele>18.0</ele><time>2026-04-06T12:15:47Z</time></trkpt><trkpt lat="51.13879719478683" lon="5.0003899302627"><ele>18.0</ele><time>2026-04-06T12:15:48Z</time></trkpt><trkpt lat="51.13875337504764" lon="5.000201231410435"><ele>18.0</ele><time>2026-04-06T12:15:49Z</time></trkpt><trkpt lat="51.138718017831984" lon="5.000020110191015"><ele>18.0</ele><time>2026-04-06T12:15:50Z</time></trkpt><trkpt lat="51.13868912925171" lon="4.9998450869663165"><ele>18.0</ele><time>2026-04-06T12:15:51Z</time></trkpt><trkpt lat="51.13866717410374" lon="4.999678227856106"><ele>18.0</ele><time>2026-04-06T12:15:52Z</time></trkpt><trkpt lat="51.13864423389958" lon="4.999504110647385"><ele>18.0</ele><time>2026-04-06T12:15:53Z</time></trkpt><trkpt lat="51.13862349503908" lon="4.99932890925043"><ele>18.0</ele><time>2026-04-06T12:15:54Z</time></trkpt><trkpt lat="51.138613929005054" lon="4.999146776242159"><ele>18.0</ele><time>2026-04-06T12:15:55Z</time></trkpt><trkpt lat="51.13862624544715" lon="4.998946060171822"><ele>18.0</ele><time>2026-04-06T12:15:56Z</time></trkpt><trkpt lat="51.1386444413199" lon="4.998724753352828"><ele>18.0</ele><time>2026-04-06T12:15:57Z</time></trkpt><trkpt lat="51.13867336003053" lon="4.998499671806057"><ele>18.0</ele><time>2026-04-06T12:15:58Z</time></trkpt><trkpt lat="51.13869755567221" lon="4.998260145238372"><ele>17.75</ele><time>2026-04-06T12:15:59Z</time></trkpt><trkpt lat="51.13869501825628" lon="4.998007406740976"><ele>17.5</ele><time>2026-04-06T12:16:00Z</time></trkpt><trkpt lat="51.13867200069436" lon="4.997766214362601"><ele>17.25</ele><time>2026-04-06T12:16:01Z</time></trkpt><trkpt lat="51.13866167288208" lon="4.997547179100157"><ele>17.0</ele><time>2026-04-06T12:16:02Z</time></trkpt><trkpt lat="51.13866920535741" lon="4.997343778804451"><ele>17.0</ele><time>2026-04-06T12:16:03Z</time></trkpt><trkpt lat="51.138646324743085" lon="4.99715992992568"><ele>17.0</ele><time>2026-04-06T12:16:04Z</time></trkpt><trkpt lat="51.13864076631419" lon="4.996999804635074"><ele>17.0</ele><time>2026-04-06T12:16:05Z</time></trkpt><trkpt lat="51.13863389372656" lon="4.996874777807408"><ele>17.0</ele><time>2026-04-06T12:16:06Z</time></trkpt><trkpt lat="51.13863167943238" lon="4.996716022154501"><ele>17.0</ele><time>2026-04-06T12:16:08Z</time></trkpt><trkpt lat="51.1386273556206" lon="4.996606526097861"><ele>17.2</ele><time>2026-04-06T12:16:10Z</time></trkpt><trkpt lat="51.13862529757556" lon="4.996437061762906"><ele>17.4</ele><time>2026-04-06T12:16:12Z</time></trkpt><trkpt lat="51.138624825560385" lon="4.996266234020368"><ele>17.6</ele><time>2026-04-06T12:16:14Z</time></trkpt><trkpt lat="51.138623763195554" lon="4.99611434849487"><ele>17.8</ele><time>2026-04-06T12:16:16Z</time></trkpt><trkpt lat="51.13862314648363" lon="4.995969181965708"><ele>18.0</ele><time>2026-04-06T12:16:18Z</time></trkpt><trkpt lat="51.138620151539214" lon="4.9958334397103945"><ele>18.0</ele><time>2026-04-06T12:16:20Z</time></trkpt><trkpt lat="51.138618758789335" lon="4.995664222505617"><ele>18.0</ele><time>2026-04-06T12:16:22Z</time></trkpt><trkpt lat="51.138616108364374" lon="4.995504629520014"><ele>18.0</ele><time>2026-04-06T12:16:24Z</time></trkpt><trkpt lat="51.13862428842658" lon="4.995358792411211"><ele>18.0</ele><time>2026-04-06T12:16:26Z</time></trkpt><trkpt lat="51.138611769395496" lon="4.995205613701644"><ele>18.0</ele><time>2026-04-06T12:16:28Z</time></trkpt><trkpt lat="51.13858985038849" lon="4.995061808701833"><ele>17.833333333333332</ele><time>2026-04-06T12:16:30Z</time></trkpt><trkpt lat="51.138561242936866" lon="4.994937408987135"><ele>17.666666666666668</ele><time>2026-04-06T12:16:32Z</time></trkpt><trkpt lat="51.13853187166376" lon="4.994824502322989"><ele>17.5</ele><time>2026-04-06T12:16:34Z</time></trkpt><trkpt lat="51.138495637397355" lon="4.994696965936375"><ele>17.333333333333336</ele><time>2026-04-06T12:16:36Z</time></trkpt><trkpt lat="51.1384594155876" lon="4.994589708243925"><ele>17.166666666666668</ele><time>2026-04-06T12:16:38Z</time></trkpt><trkpt lat="51.13841770602554" lon="4.994473144936028"><ele>17.0</ele><time>2026-04-06T12:16:40Z</time></trkpt><trkpt lat="51.13836621500067" lon="4.994333464771473"><ele>17.0</ele><time>2026-04-06T12:16:42Z</time></trkpt><trkpt lat="51.13830691145212" lon="4.994177716218231"><ele>17.0</ele><time>2026-04-06T12:16:44Z</time></trkpt><trkpt lat="51.13827088693422" lon="4.994082803580799"><ele>17.0</ele><time>2026-04-06T12:16:45Z</time></trkpt><trkpt lat="51.138226679516045" lon="4.993968457896642"><ele>17.0</ele><time>2026-04-06T12:16:46Z</time></trkpt><trkpt lat="51.13816986385825" lon="4.993819214101309"><ele>17.0</ele><time>2026-04-06T12:16:47Z</time></trkpt><trkpt lat="51.13810608405074" lon="4.9936531938292"><ele>16.75</ele><time>2026-04-06T12:16:48Z</time></trkpt><trkpt lat="51.13803836153688" lon="4.9934773508313075"><ele>16.5</ele><time>2026-04-06T12:16:49Z</time></trkpt><trkpt lat="51.137962693774455" lon="4.993281051851749"><ele>16.25</ele><time>2026-04-06T12:16:50Z</time></trkpt><trkpt lat="51.137892227865514" lon="4.993099334096522"><ele>16.0</ele><time>2026-04-06T12:16:51Z</time></trkpt><trkpt lat="51.13782467965297" lon="4.992924241123814"><ele>16.0</ele><time>2026-04-06T12:16:52Z</time></trkpt><trkpt lat="51.13775766853105" lon="4.992750521229451"><ele>16.0</ele><time>2026-04-06T12:16:53Z</time></trkpt><trkpt lat="51.137692552778326" lon="4.992583136523104"><ele>16.0</ele><time>2026-04-06T12:16:54Z</time></trkpt><trkpt lat="51.13762860679566" lon="4.992418603254671"><ele>16.0</ele><time>2026-04-06T12:16:55Z</time></trkpt><trkpt lat="51.137565906097464" lon="4.992257373581454"><ele>16.0</ele><time>2026-04-06T12:16:56Z</time></trkpt><trkpt lat="51.137503596282535" lon="4.992102962453019"><ele>16.0</ele><time>2026-04-06T12:16:57Z</time></trkpt><trkpt lat="51.13744563772974" lon="4.991959334435124"><ele>16.0</ele><time>2026-04-06T12:16:58Z</time></trkpt><trkpt lat="51.13739143363665" lon="4.991825010163158"><ele>16.0</ele><time>2026-04-06T12:16:59Z</time></trkpt><trkpt lat="51.13733923035415" lon="4.991693934917573"><ele>16.0</ele><time>2026-04-06T12:17:00Z</time></trkpt><trkpt lat="51.13729415693681" lon="4.991580723966646"><ele>16.166666666666664</ele><time>2026-04-06T12:17:01Z</time></trkpt><trkpt lat="51.13725323144501" lon="4.991475139577126"><ele>16.333333333333332</ele><time>2026-04-06T12:17:02Z</time></trkpt><trkpt lat="51.1372140533198" lon="4.991373541445094"><ele>16.5</ele><time>2026-04-06T12:17:03Z</time></trkpt><trkpt lat="51.137168700961496" lon="4.991254839115036"><ele>16.666666666666668</ele><time>2026-04-06T12:17:04Z</time></trkpt><trkpt lat="51.13711524939094" lon="4.991115580884129"><ele>16.833333333333336</ele><time>2026-04-06T12:17:05Z</time></trkpt><trkpt lat="51.13706343366678" lon="4.990985014216773"><ele>17.0</ele><time>2026-04-06T12:17:06Z</time></trkpt><trkpt lat="51.13701905655602" lon="4.990868501837755"><ele>17.166666666666668</ele><time>2026-04-06T12:17:07Z</time></trkpt><trkpt lat="51.13698283454341" lon="4.990762268603002"><ele>17.333333333333336</ele><time>2026-04-06T12:17:08Z</time></trkpt><trkpt lat="51.13696364701381" lon="4.990642086873018"><ele>17.5</ele><time>2026-04-06T12:17:09Z</time></trkpt><trkpt lat="51.136956469638896" lon="4.990507506677901"><ele>17.666666666666668</ele><time>2026-04-06T12:17:10Z</time></trkpt><trkpt lat="51.13695760344183" lon="4.990364425271596"><ele>17.833333333333332</ele><time>2026-04-06T12:17:11Z</time></trkpt><trkpt lat="51.136964543941794" lon="4.990217352611175"><ele>18.0</ele><time>2026-04-06T12:17:12Z</time></trkpt><trkpt lat="51.13697356360726" lon="4.990078922553449"><ele>18.0</ele><time>2026-04-06T12:17:13Z</time></trkpt><trkpt lat="51.136981682549816" lon="4.989955294941667"><ele>18.0</ele><time>2026-04-06T12:17:14Z</time></trkpt><trkpt lat="51.136989131228894" lon="4.989841874532648"><ele>18.0</ele><time>2026-04-06T12:17:15Z</time></trkpt><trkpt lat="51.13699997735759" lon="4.989737711739535"><ele>18.0</ele><time>2026-04-06T12:17:16Z</time></trkpt><trkpt lat="51.13701013541654" lon="4.989637926781201"><ele>18.0</ele><time>2026-04-06T12:17:17Z</time></trkpt><trkpt lat="51.13709954005203" lon="4.989524203315287"><ele>18.0</ele><time>2026-04-06T12:17:19Z</time></trkpt><trkpt lat="51.1371669562764" lon="4.989520393751391"><ele>18.0</ele><time>2026-04-06T12:17:20Z</time></trkpt><trkpt lat="51.13723469440332" lon="4.989526815704221"><ele>18.0</ele><time>2026-04-06T12:17:21Z</time></trkpt><trkpt lat="51.13730010471121" lon="4.989516708522041"><ele>18.0</ele><time>2026-04-06T12:17:22Z</time></trkpt><trkpt lat="51.13740656037431" lon="4.989351529332786"><ele>18.0</ele><time>2026-04-06T12:17:24Z</time></trkpt><trkpt lat="51.13742614159062" lon="4.989232699715881"><ele>18.0</ele><time>2026-04-06T12:17:25Z</time></trkpt><trkpt lat="51.137444970618674" lon="4.989118434669347"><ele>18.0</ele><time>2026-04-06T12:17:26Z</time></trkpt><trkpt lat="51.137464194255976" lon="4.989001774993564"><ele>18.166666666666668</ele><time>2026-04-06T12:17:27Z</time></trkpt><trkpt lat="51.13748510611556" lon="4.988874870065431"><ele>18.333333333333332</ele><time>2026-04-06T12:17:28Z</time></trkpt><trkpt lat="51.13750677170164" lon="4.98874405598772"><ele>18.5</ele><time>2026-04-06T12:17:29Z</time></trkpt><trkpt lat="51.13752738123239" lon="4.988619368903355"><ele>18.666666666666664</ele><time>2026-04-06T12:17:30Z</time></trkpt><trkpt lat="51.137548129306595" lon="4.98849109147515"><ele>18.833333333333332</ele><time>2026-04-06T12:17:31Z</time></trkpt><trkpt lat="51.13756908497129" lon="4.98836153047495"><ele>19.0</ele><time>2026-04-06T12:17:32Z</time></trkpt><trkpt lat="51.13759085760412" lon="4.988226227026022"><ele>19.2</ele><time>2026-04-06T12:17:33Z</time></trkpt><trkpt lat="51.13761407877194" lon="4.988081592467408"><ele>19.4</ele><time>2026-04-06T12:17:34Z</time></trkpt><trkpt lat="51.13763895841126" lon="4.9879274647609035"><ele>19.6</ele><time>2026-04-06T12:17:35Z</time></trkpt><trkpt lat="51.137652809561054" lon="4.9877555039520445"><ele>19.8</ele><time>2026-04-06T12:17:36Z</time></trkpt><trkpt lat="51.137684215611124" lon="4.9875739442647395"><ele>20.0</ele><time>2026-04-06T12:17:37Z</time></trkpt><trkpt lat="51.13771247315637" lon="4.98736946193653"><ele>20.0</ele><time>2026-04-06T12:17:38Z</time></trkpt><trkpt lat="51.137746841118975" lon="4.987169352759358"><ele>20.0</ele><time>2026-04-06T12:17:39Z</time></trkpt><trkpt lat="51.13773810368017" lon="4.986947993817402"><ele>20.0</ele><time>2026-04-06T12:17:40Z</time></trkpt><trkpt lat="51.137706971647496" lon="4.98672694973349"><ele>20.0</ele><time>2026-04-06T12:17:41Z</time></trkpt><trkpt lat="51.13767722190758" lon="4.986495156702723"><ele>20.0</ele><time>2026-04-06T12:17:42Z</time></trkpt><trkpt lat="51.137654743014714" lon="4.986265651559672"><ele>20.0</ele><time>2026-04-06T12:17:43Z</time></trkpt><trkpt lat="51.137669771081015" lon="4.986031881868367"><ele>20.0</ele><time>2026-04-06T12:17:44Z</time></trkpt><trkpt lat="51.13772318046088" lon="4.98581047031658"><ele>20.0</ele><time>2026-04-06T12:17:45Z</time></trkpt><trkpt lat="51.13778664897323" lon="4.985570365644237"><ele>20.0</ele><time>2026-04-06T12:17:46Z</time></trkpt><trkpt lat="51.137848652958475" lon="4.985326711395893"><ele>20.0</ele><time>2026-04-06T12:17:47Z</time></trkpt><trkpt lat="51.13789965174648" lon="4.9850682816933025"><ele>20.0</ele><time>2026-04-06T12:17:48Z</time></trkpt><trkpt lat="51.137972148874326" lon="4.984822958360902"><ele>20.0</ele><time>2026-04-06T12:17:49Z</time></trkpt><trkpt lat="51.13802452089487" lon="4.984561134294994"><ele>20.0</ele><time>2026-04-06T12:17:50Z</time></trkpt><trkpt lat="51.13806752015672" lon="4.984303382137427"><ele>20.0</ele><time>2026-04-06T12:17:51Z</time></trkpt><trkpt lat="51.13809747404208" lon="4.984039717477963"><ele>20.0</ele><time>2026-04-06T12:17:52Z</time></trkpt><trkpt lat="51.13811172767373" lon="4.983774021717324"><ele>20.0</ele><time>2026-04-06T12:17:53Z</time></trkpt><trkpt lat="51.13810896667486" lon="4.9835057979714374"><ele>20.0</ele><time>2026-04-06T12:17:54Z</time></trkpt><trkpt lat="51.138089065480095" lon="4.983238800233997"><ele>20.0</ele><time>2026-04-06T12:17:55Z</time></trkpt><trkpt lat="51.138053775580545" lon="4.982972160624673"><ele>20.0</ele><time>2026-04-06T12:17:56Z</time></trkpt><trkpt lat="51.13801018377346" lon="4.982690738255217"><ele>20.0</ele><time>2026-04-06T12:17:57Z</time></trkpt><trkpt lat="51.137964125240686" lon="4.982390887303047"><ele>20.0</ele><time>2026-04-06T12:17:58Z</time></trkpt><trkpt lat="51.13791104570535" lon="4.982057661457686"><ele>20.0</ele><time>2026-04-06T12:17:59Z</time></trkpt><trkpt lat="51.137858854282584" lon="4.981723852861458"><ele>20.0</ele><time>2026-04-06T12:18:00Z</time></trkpt><trkpt lat="51.13781215539165" lon="4.981423798949855"><ele>20.0</ele><time>2026-04-06T12:18:01Z</time></trkpt><trkpt lat="51.13776737404748" lon="4.9811360679185785"><ele>20.0</ele><time>2026-04-06T12:18:02Z</time></trkpt><trkpt lat="51.13772628855603" lon="4.98086800846281"><ele>20.0</ele><time>2026-04-06T12:18:03Z</time></trkpt><trkpt lat="51.13768983579197" lon="4.980623527265675"><ele>20.25</ele><time>2026-04-06T12:18:04Z</time></trkpt><trkpt lat="51.13765979713936" lon="4.9804171851092764"><ele>20.5</ele><time>2026-04-06T12:18:05Z</time></trkpt><trkpt lat="51.137632777541405" lon="4.980224716891066"><ele>20.75</ele><time>2026-04-06T12:18:06Z</time></trkpt><trkpt lat="51.1376109816723" lon="4.980059320671565"><ele>21.0</ele><time>2026-04-06T12:18:07Z</time></trkpt><trkpt lat="51.13759533953623" lon="4.97991988940707"><ele>21.0</ele><time>2026-04-06T12:18:08Z</time></trkpt><trkpt lat="51.13758123501896" lon="4.979763744789079"><ele>21.0</ele><time>2026-04-06T12:18:10Z</time></trkpt><trkpt lat="51.13764858598915" lon="4.979652681779157"><ele>21.0</ele><time>2026-04-06T12:18:24Z</time></trkpt><trkpt lat="51.137741135415546" lon="4.979664600698791"><ele>21.0</ele><time>2026-04-06T12:18:25Z</time></trkpt><trkpt lat="51.1378320277025" lon="4.979700232971523"><ele>21.0</ele><time>2026-04-06T12:18:26Z</time></trkpt><trkpt lat="51.13789597534508" lon="4.979729179453118"><ele>21.0</ele><time>2026-04-06T12:18:27Z</time></trkpt><trkpt lat="51.1379934051673" lon="4.979681898465254"><ele>21.0</ele><time>2026-04-06T12:18:29Z</time></trkpt><trkpt lat="51.13802005814454" lon="4.979577691694807"><ele>21.0</ele><time>2026-04-06T12:18:30Z</time></trkpt><trkpt lat="51.13802550597951" lon="4.97943951235745"><ele>21.0</ele><time>2026-04-06T12:18:31Z</time></trkpt><trkpt lat="51.138015908712056" lon="4.979257304426039"><ele>21.0</ele><time>2026-04-06T12:18:32Z</time></trkpt><trkpt lat="51.13800367892967" lon="4.979072758498999"><ele>21.0</ele><time>2026-04-06T12:18:33Z</time></trkpt><trkpt lat="51.13797853410987" lon="4.978863451381274"><ele>21.0</ele><time>2026-04-06T12:18:34Z</time></trkpt><trkpt lat="51.13792851768272" lon="4.978649274373796"><ele>21.0</ele><time>2026-04-06T12:18:35Z</time></trkpt><trkpt lat="51.13786044625219" lon="4.978443507235587"><ele>21.0</ele><time>2026-04-06T12:18:36Z</time></trkpt><trkpt lat="51.13778928912918" lon="4.978240409839281"><ele>21.0</ele><time>2026-04-06T12:18:37Z</time></trkpt><trkpt lat="51.13773457663862" lon="4.9780244961855935"><ele>21.333333333333332</ele><time>2026-04-06T12:18:38Z</time></trkpt><trkpt lat="51.137707174985586" lon="4.977779320181622"><ele>21.666666666666664</ele><time>2026-04-06T12:18:39Z</time></trkpt><trkpt lat="51.137702547269235" lon="4.977511980001727"><ele>22.0</ele><time>2026-04-06T12:18:40Z</time></trkpt><trkpt lat="51.13769816260231" lon="4.9772310816672025"><ele>22.0</ele><time>2026-04-06T12:18:41Z</time></trkpt><trkpt lat="51.13768512984202" lon="4.976964630961992"><ele>22.0</ele><time>2026-04-06T12:18:42Z</time></trkpt><trkpt lat="51.13767008925086" lon="4.976714634419505"><ele>22.0</ele><time>2026-04-06T12:18:43Z</time></trkpt><trkpt lat="51.13765272347747" lon="4.976472396070136"><ele>21.666666666666664</ele><time>2026-04-06T12:18:44Z</time></trkpt><trkpt lat="51.13765837217508" lon="4.976222423151399"><ele>21.333333333333332</ele><time>2026-04-06T12:18:45Z</time></trkpt><trkpt lat="51.137635418398716" lon="4.975970167714061"><ele>21.0</ele><time>2026-04-06T12:18:46Z</time></trkpt><trkpt lat="51.13759487675806" lon="4.975719212346634"><ele>21.0</ele><time>2026-04-06T12:18:47Z</time></trkpt><trkpt lat="51.137545090426514" lon="4.975479006743532"><ele>21.0</ele><time>2026-04-06T12:18:48Z</time></trkpt><trkpt lat="51.137484605797965" lon="4.9752434733201705"><ele>21.0</ele><time>2026-04-06T12:18:49Z</time></trkpt><trkpt lat="51.13738835809983" lon="4.975025733441914"><ele>21.0</ele><time>2026-04-06T12:18:50Z</time></trkpt><trkpt lat="51.137276903459174" lon="4.974824094083599"><ele>21.0</ele><time>2026-04-06T12:18:51Z</time></trkpt><trkpt lat="51.137157217599736" lon="4.974628538365411"><ele>21.0</ele><time>2026-04-06T12:18:52Z</time></trkpt><trkpt lat="51.13703081544513" lon="4.974429218030113"><ele>21.0</ele><time>2026-04-06T12:18:53Z</time></trkpt><trkpt lat="51.13691258297707" lon="4.9742383503782035"><ele>21.0</ele><time>2026-04-06T12:18:54Z</time></trkpt><trkpt lat="51.13681891795335" lon="4.974019802671058"><ele>21.0</ele><time>2026-04-06T12:18:55Z</time></trkpt><trkpt lat="51.136728631459924" lon="4.973782906807177"><ele>21.0</ele><time>2026-04-06T12:18:56Z</time></trkpt><trkpt lat="51.13664808222698" lon="4.973533721323114"><ele>21.0</ele><time>2026-04-06T12:18:57Z</time></trkpt><trkpt lat="51.13659401928286" lon="4.9732564887568955"><ele>21.0</ele><time>2026-04-06T12:18:58Z</time></trkpt><trkpt lat="51.13655369663653" lon="4.972965541551736"><ele>20.666666666666668</ele><time>2026-04-06T12:18:59Z</time></trkpt><trkpt lat="51.13651631198248" lon="4.972693169850841"><ele>20.333333333333336</ele><time>2026-04-06T12:19:00Z</time></trkpt><trkpt lat="51.13647943766898" lon="4.97243912088723"><ele>20.0</ele><time>2026-04-06T12:19:01Z</time></trkpt><trkpt lat="51.13643870124471" lon="4.972209757081267"><ele>20.0</ele><time>2026-04-06T12:19:02Z</time></trkpt><trkpt lat="51.13638569710641" lon="4.972004178375724"><ele>20.0</ele><time>2026-04-06T12:19:03Z</time></trkpt><trkpt lat="51.13633803595545" lon="4.971826392564308"><ele>20.0</ele><time>2026-04-06T12:19:04Z</time></trkpt><trkpt lat="51.136297206919586" lon="4.971676345299988"><ele>20.0</ele><time>2026-04-06T12:19:05Z</time></trkpt><trkpt lat="51.136262043759395" lon="4.971551944325309"><ele>20.0</ele><time>2026-04-06T12:19:06Z</time></trkpt><trkpt lat="51.13623832633507" lon="4.971457735455381"><ele>19.8</ele><time>2026-04-06T12:19:07Z</time></trkpt><trkpt lat="51.13624374484011" lon="4.971328705548295"><ele>19.6</ele><time>2026-04-06T12:19:09Z</time></trkpt><trkpt lat="51.13638987757819" lon="4.97124995820913"><ele>19.4</ele><time>2026-04-06T12:19:11Z</time></trkpt><trkpt lat="51.136478604423885" lon="4.971226367380413"><ele>19.2</ele><time>2026-04-06T12:19:12Z</time></trkpt><trkpt lat="51.13658368134879" lon="4.971198292068445"><ele>19.0</ele><time>2026-04-06T12:19:13Z</time></trkpt><trkpt lat="51.1366984674813" lon="4.971169587260506"><ele>19.5</ele><time>2026-04-06T12:19:14Z</time></trkpt><trkpt lat="51.136827516615405" lon="4.9711482265217"><ele>20.0</ele><time>2026-04-06T12:19:15Z</time></trkpt><trkpt lat="51.1369692467094" lon="4.9711449668484855"><ele>20.5</ele><time>2026-04-06T12:19:16Z</time></trkpt><trkpt lat="51.137112841444306" lon="4.9711743540284035"><ele>21.0</ele><time>2026-04-06T12:19:17Z</time></trkpt><trkpt lat="51.137237050315235" lon="4.971222786016666"><ele>21.0</ele><time>2026-04-06T12:19:18Z</time></trkpt><trkpt lat="51.13736064269687" lon="4.97126896747404"><ele>21.0</ele><time>2026-04-06T12:19:19Z</time></trkpt><trkpt lat="51.13748514888575" lon="4.971307055002274"><ele>21.0</ele><time>2026-04-06T12:19:20Z</time></trkpt><trkpt lat="51.13761509272673" lon="4.971341520659599"><ele>21.0</ele><time>2026-04-06T12:19:21Z</time></trkpt><trkpt lat="51.137740008364126" lon="4.971366787019836"><ele>20.5</ele><time>2026-04-06T12:19:22Z</time></trkpt><trkpt lat="51.13786157709656" lon="4.971351866818452"><ele>20.0</ele><time>2026-04-06T12:19:23Z</time></trkpt><trkpt lat="51.13798057884304" lon="4.97128540370411"><ele>19.5</ele><time>2026-04-06T12:19:24Z</time></trkpt><trkpt lat="51.13811000606773" lon="4.971180737181308"><ele>19.0</ele><time>2026-04-06T12:19:25Z</time></trkpt><trkpt lat="51.13825769674741" lon="4.971068164712416"><ele>18.666666666666664</ele><time>2026-04-06T12:19:26Z</time></trkpt><trkpt lat="51.13842536530139" lon="4.970968616043087"><ele>18.333333333333332</ele><time>2026-04-06T12:19:27Z</time></trkpt><trkpt lat="51.13858633559047" lon="4.970876694956839"><ele>18.0</ele><time>2026-04-06T12:19:28Z</time></trkpt><trkpt lat="51.13875647588338" lon="4.9707800660253785"><ele>18.0</ele><time>2026-04-06T12:19:29Z</time></trkpt><trkpt lat="51.1389301305887" lon="4.970681177292247"><ele>18.0</ele><time>2026-04-06T12:19:30Z</time></trkpt><trkpt lat="51.139104396759116" lon="4.970581783103328"><ele>18.0</ele><time>2026-04-06T12:19:31Z</time></trkpt><trkpt lat="51.13927546097897" lon="4.970483314194479"><ele>18.333333333333332</ele><time>2026-04-06T12:19:32Z</time></trkpt><trkpt lat="51.13944116551331" lon="4.970387405016209"><ele>18.666666666666664</ele><time>2026-04-06T12:19:33Z</time></trkpt><trkpt lat="51.13959446611697" lon="4.970299974213522"><ele>19.0</ele><time>2026-04-06T12:19:34Z</time></trkpt><trkpt lat="51.139740442935334" lon="4.970220097976356"><ele>19.0</ele><time>2026-04-06T12:19:35Z</time></trkpt><trkpt lat="51.13987732671977" lon="4.970145118349719"><ele>19.0</ele><time>2026-04-06T12:19:36Z</time></trkpt><trkpt lat="51.140004720250346" lon="4.970072467228966"><ele>19.0</ele><time>2026-04-06T12:19:37Z</time></trkpt><trkpt lat="51.1401257245449" lon="4.970011479594528"><ele>19.0</ele><time>2026-04-06T12:19:38Z</time></trkpt><trkpt lat="51.14024199961377" lon="4.969992870932804"><ele>18.75</ele><time>2026-04-06T12:19:39Z</time></trkpt><trkpt lat="51.14035360567601" lon="4.970007126453385"><ele>18.5</ele><time>2026-04-06T12:19:40Z</time></trkpt><trkpt lat="51.140458757512754" lon="4.970033438248957"><ele>18.25</ele><time>2026-04-06T12:19:41Z</time></trkpt><trkpt lat="51.14058552496188" lon="4.969933346515327"><ele>18.0</ele><time>2026-04-06T12:19:42Z</time></trkpt><trkpt lat="51.14069972149231" lon="4.96981249884576"><ele>18.666666666666668</ele><time>2026-04-06T12:19:43Z</time></trkpt><trkpt lat="51.140825058378276" lon="4.969668548151117"><ele>19.333333333333336</ele><time>2026-04-06T12:19:44Z</time></trkpt><trkpt lat="51.140975630578836" lon="4.9695321498459"><ele>20.0</ele><time>2026-04-06T12:19:45Z</time></trkpt><trkpt lat="51.141118919888164" lon="4.969383687572926"><ele>20.0</ele><time>2026-04-06T12:19:46Z</time></trkpt><trkpt lat="51.14125929285692" lon="4.969217680198662"><ele>20.0</ele><time>2026-04-06T12:19:47Z</time></trkpt><trkpt lat="51.14140644105594" lon="4.96904580316381"><ele>20.0</ele><time>2026-04-06T12:19:48Z</time></trkpt><trkpt lat="51.141560804516565" lon="4.968876330173916"><ele>19.666666666666668</ele><time>2026-04-06T12:19:49Z</time></trkpt><trkpt lat="51.14171970271555" lon="4.96870187465072"><ele>19.333333333333332</ele><time>2026-04-06T12:19:50Z</time></trkpt><trkpt lat="51.141890615404094" lon="4.968547772442046"><ele>19.0</ele><time>2026-04-06T12:19:51Z</time></trkpt><trkpt lat="51.14206663378316" lon="4.968404997982325"><ele>18.666666666666664</ele><time>2026-04-06T12:19:52Z</time></trkpt><trkpt lat="51.14224059833329" lon="4.968255796713559"><ele>18.333333333333332</ele><time>2026-04-06T12:19:53Z</time></trkpt><trkpt lat="51.142412421434166" lon="4.968110050834214"><ele>18.0</ele><time>2026-04-06T12:19:54Z</time></trkpt><trkpt lat="51.142580447362704" lon="4.967968104369843"><ele>19.0</ele><time>2026-04-06T12:19:55Z</time></trkpt><trkpt lat="51.14274323642367" lon="4.9678266083238825"><ele>20.0</ele><time>2026-04-06T12:19:56Z</time></trkpt><trkpt lat="51.14290462153892" lon="4.967695396578265"><ele>21.0</ele><time>2026-04-06T12:19:57Z</time></trkpt><trkpt lat="51.14306089828421" lon="4.96756604750316"><ele>21.333333333333332</ele><time>2026-04-06T12:19:58Z</time></trkpt><trkpt lat="51.143209858818" lon="4.967440043739065"><ele>21.666666666666664</ele><time>2026-04-06T12:19:59Z</time></trkpt><trkpt lat="51.143359661522354" lon="4.967328921465368"><ele>22.0</ele><time>2026-04-06T12:20:00Z</time></trkpt><trkpt lat="51.14351605589261" lon="4.967249166375128"><ele>22.0</ele><time>2026-04-06T12:20:01Z</time></trkpt><trkpt lat="51.143680817451674" lon="4.967194006919989"><ele>22.0</ele><time>2026-04-06T12:20:02Z</time></trkpt><trkpt lat="51.143854534118844" lon="4.967156839529819"><ele>22.0</ele><time>2026-04-06T12:20:03Z</time></trkpt><trkpt lat="51.14403167462023" lon="4.967125946556247"><ele>21.666666666666664</ele><time>2026-04-06T12:20:04Z</time></trkpt><trkpt lat="51.14420967903462" lon="4.9670956498045085"><ele>21.333333333333332</ele><time>2026-04-06T12:20:05Z</time></trkpt><trkpt lat="51.14438421366862" lon="4.967063796783542"><ele>21.0</ele><time>2026-04-06T12:20:06Z</time></trkpt><trkpt lat="51.14455477601427" lon="4.967040240765267"><ele>21.0</ele><time>2026-04-06T12:20:07Z</time></trkpt><trkpt lat="51.14471945507171" lon="4.9670441229153965"><ele>21.0</ele><time>2026-04-06T12:20:08Z</time></trkpt><trkpt lat="51.14487506234548" lon="4.967043564424209"><ele>21.0</ele><time>2026-04-06T12:20:09Z</time></trkpt><trkpt lat="51.14502284793521" lon="4.967042550223633"><ele>20.5</ele><time>2026-04-06T12:20:10Z</time></trkpt><trkpt lat="51.145162486223214" lon="4.967042307282242"><ele>20.0</ele><time>2026-04-06T12:20:11Z</time></trkpt><trkpt lat="51.145290114597714" lon="4.967038964542655"><ele>19.5</ele><time>2026-04-06T12:20:12Z</time></trkpt><trkpt lat="51.14540731477015" lon="4.967023086636122"><ele>19.0</ele><time>2026-04-06T12:20:13Z</time></trkpt><trkpt lat="51.145516601656155" lon="4.967007906919949"><ele>19.0</ele><time>2026-04-06T12:20:14Z</time></trkpt><trkpt lat="51.14561776677508" lon="4.966913643956215"><ele>19.0</ele><time>2026-04-06T12:20:15Z</time></trkpt><trkpt lat="51.14570338840517" lon="4.966759280089495"><ele>19.0</ele><time>2026-04-06T12:20:16Z</time></trkpt><trkpt lat="51.14580840832843" lon="4.966613941141417"><ele>19.0</ele><time>2026-04-06T12:20:17Z</time></trkpt><trkpt lat="51.14591528934407" lon="4.966435083314594"><ele>18.666666666666664</ele><time>2026-04-06T12:20:18Z</time></trkpt><trkpt lat="51.14605695513532" lon="4.966292206994118"><ele>18.333333333333332</ele><time>2026-04-06T12:20:19Z</time></trkpt><trkpt lat="51.14622599617906" lon="4.966186891425418"><ele>18.0</ele><time>2026-04-06T12:20:20Z</time></trkpt><trkpt lat="51.146410358110614" lon="4.966069763138178"><ele>18.0</ele><time>2026-04-06T12:20:21Z</time></trkpt><trkpt lat="51.14661618787468" lon="4.965914285796719"><ele>18.0</ele><time>2026-04-06T12:20:22Z</time></trkpt><trkpt lat="51.14684676794341" lon="4.965786568786188"><ele>18.0</ele><time>2026-04-06T12:20:23Z</time></trkpt><trkpt lat="51.1470914928578" lon="4.965661468552915"><ele>18.0</ele><time>2026-04-06T12:20:24Z</time></trkpt><trkpt lat="51.147307525894796" lon="4.9655460669462235"><ele>18.333333333333332</ele><time>2026-04-06T12:20:25Z</time></trkpt><trkpt lat="51.14750155954048" lon="4.965445272953038"><ele>18.666666666666664</ele><time>2026-04-06T12:20:26Z</time></trkpt><trkpt lat="51.147658590648135" lon="4.965363359405275"><ele>19.0</ele><time>2026-04-06T12:20:27Z</time></trkpt><trkpt lat="51.14779438228296" lon="4.965292918974993"><ele>19.0</ele><time>2026-04-06T12:20:28Z</time></trkpt><trkpt lat="51.14791602999154" lon="4.965227370068437"><ele>19.0</ele><time>2026-04-06T12:20:29Z</time></trkpt><trkpt lat="51.148025747357686" lon="4.965165617002883"><ele>19.0</ele><time>2026-04-06T12:20:30Z</time></trkpt><trkpt lat="51.148116308429344" lon="4.965112947688257"><ele>19.0</ele><time>2026-04-06T12:20:31Z</time></trkpt><trkpt lat="51.14818767621842" lon="4.965071502387404"><ele>19.0</ele><time>2026-04-06T12:20:32Z</time></trkpt><trkpt lat="51.14825585839446" lon="4.9650329595294105"><ele>19.333333333333332</ele><time>2026-04-06T12:20:33Z</time></trkpt><trkpt lat="51.14831767251743" lon="4.964998256877206"><ele>19.666666666666664</ele><time>2026-04-06T12:20:34Z</time></trkpt><trkpt lat="51.148423056895716" lon="4.964941322004418"><ele>20.0</ele><time>2026-04-06T12:20:36Z</time></trkpt><trkpt lat="51.14851612628669" lon="4.964888862377565"><ele>20.333333333333332</ele><time>2026-04-06T12:20:38Z</time></trkpt><trkpt lat="51.14857905502465" lon="4.964853245184864"><ele>20.666666666666668</ele><time>2026-04-06T12:20:41Z</time></trkpt><trkpt lat="51.14866308852704" lon="4.964791819572327"><ele>21.0</ele><time>2026-04-06T12:21:30Z</time></trkpt><trkpt lat="51.14872437385927" lon="4.9647556180598"><ele>21.0</ele><time>2026-04-06T12:21:32Z</time></trkpt><trkpt lat="51.14880501250327" lon="4.964714230667018"><ele>21.0</ele><time>2026-04-06T12:21:34Z</time></trkpt><trkpt lat="51.14886984450852" lon="4.964678197828389"><ele>21.0</ele><time>2026-04-06T12:21:35Z</time></trkpt><trkpt lat="51.14895102105114" lon="4.964626859348417"><ele>21.0</ele><time>2026-04-06T12:21:36Z</time></trkpt><trkpt lat="51.1490461723948" lon="4.96455911326877"><ele>21.0</ele><time>2026-04-06T12:21:37Z</time></trkpt><trkpt lat="51.149143451982674" lon="4.964495829655612"><ele>21.0</ele><time>2026-04-06T12:21:38Z</time></trkpt><trkpt lat="51.14925605782002" lon="4.9644623476450915"><ele>21.0</ele><time>2026-04-06T12:21:39Z</time></trkpt><trkpt lat="51.14938261786853" lon="4.9644086535994685"><ele>21.0</ele><time>2026-04-06T12:21:40Z</time></trkpt><trkpt lat="51.14952052046077" lon="4.964393418801848"><ele>21.0</ele><time>2026-04-06T12:21:41Z</time></trkpt><trkpt lat="51.14965853211733" lon="4.964402628782545"><ele>21.0</ele><time>2026-04-06T12:21:42Z</time></trkpt><trkpt lat="51.149797199476566" lon="4.964371404116638"><ele>21.0</ele><time>2026-04-06T12:21:43Z</time></trkpt><trkpt lat="51.149943825358626" lon="4.964326504272829"><ele>21.0</ele><time>2026-04-06T12:21:44Z</time></trkpt><trkpt lat="51.150096372438874" lon="4.96425033940797"><ele>21.0</ele><time>2026-04-06T12:21:45Z</time></trkpt><trkpt lat="51.150254194089456" lon="4.964162442939065"><ele>20.333333333333332</ele><time>2026-04-06T12:21:46Z</time></trkpt><trkpt lat="51.15043276141079" lon="4.964096173587458"><ele>19.666666666666664</ele><time>2026-04-06T12:21:47Z</time></trkpt><trkpt lat="51.15061158316672" lon="4.964004111532587"><ele>19.0</ele><time>2026-04-06T12:21:48Z</time></trkpt><trkpt lat="51.15077214989458" lon="4.963897461193479"><ele>19.0</ele><time>2026-04-06T12:21:49Z</time></trkpt><trkpt lat="51.150936955106474" lon="4.9638144384191305"><ele>19.0</ele><time>2026-04-06T12:21:50Z</time></trkpt><trkpt lat="51.151099888129494" lon="4.96372980069509"><ele>19.0</ele><time>2026-04-06T12:21:51Z</time></trkpt><trkpt lat="51.15127073836736" lon="4.963676579550716"><ele>19.0</ele><time>2026-04-06T12:21:52Z</time></trkpt><trkpt lat="51.1514358555013" lon="4.963573881147667"><ele>19.0</ele><time>2026-04-06T12:21:53Z</time></trkpt><trkpt lat="51.151611747576695" lon="4.9635266979575015"><ele>19.0</ele><time>2026-04-06T12:21:54Z</time></trkpt><trkpt lat="51.15178970327768" lon="4.963480260703218"><ele>19.666666666666664</ele><time>2026-04-06T12:21:55Z</time></trkpt><trkpt lat="51.15197110425305" lon="4.963431025662091"><ele>20.333333333333332</ele><time>2026-04-06T12:21:56Z</time></trkpt><trkpt lat="51.15214740524665" lon="4.963413379056488"><ele>21.0</ele><time>2026-04-06T12:21:57Z</time></trkpt><trkpt lat="51.152310516276934" lon="4.963398847366133"><ele>21.0</ele><time>2026-04-06T12:21:58Z</time></trkpt><trkpt lat="51.15246397712552" lon="4.963388834982318"><ele>21.0</ele><time>2026-04-06T12:21:59Z</time></trkpt><trkpt lat="51.152606663949015" lon="4.963371980448694"><ele>21.0</ele><time>2026-04-06T12:22:00Z</time></trkpt><trkpt lat="51.152754458848065" lon="4.963335467569715"><ele>21.0</ele><time>2026-04-06T12:22:01Z</time></trkpt><trkpt lat="51.1528939556551" lon="4.963219556202621"><ele>20.666666666666668</ele><time>2026-04-06T12:22:02Z</time></trkpt><trkpt lat="51.153044468208485" lon="4.963108680973836"><ele>20.333333333333336</ele><time>2026-04-06T12:22:03Z</time></trkpt><trkpt lat="51.153199823389336" lon="4.962991684436354"><ele>20.0</ele><time>2026-04-06T12:22:04Z</time></trkpt><trkpt lat="51.15336326519865" lon="4.962870969060843"><ele>20.0</ele><time>2026-04-06T12:22:05Z</time></trkpt><trkpt lat="51.15353187435749" lon="4.962747030283587"><ele>20.0</ele><time>2026-04-06T12:22:06Z</time></trkpt><trkpt lat="51.153707508510344" lon="4.962621429707156"><ele>20.0</ele><time>2026-04-06T12:22:07Z</time></trkpt><trkpt lat="51.15388739108343" lon="4.962491670340721"><ele>20.0</ele><time>2026-04-06T12:22:08Z</time></trkpt><trkpt lat="51.154069071132874" lon="4.962354533018977"><ele>20.0</ele><time>2026-04-06T12:22:09Z</time></trkpt><trkpt lat="51.15425062630035" lon="4.9622191430613585"><ele>20.0</ele><time>2026-04-06T12:22:10Z</time></trkpt><trkpt lat="51.154415176801294" lon="4.962098657053467"><ele>20.0</ele><time>2026-04-06T12:22:11Z</time></trkpt><trkpt lat="51.15457104486455" lon="4.961986317188226"><ele>20.0</ele><time>2026-04-06T12:22:12Z</time></trkpt><trkpt lat="51.15470955338955" lon="4.96188210335591"><ele>20.0</ele><time>2026-04-06T12:22:13Z</time></trkpt><trkpt lat="51.15482720618511" lon="4.961813350203206"><ele>20.0</ele><time>2026-04-06T12:22:14Z</time></trkpt><trkpt lat="51.154915343578" lon="4.961726406645811"><ele>20.2</ele><time>2026-04-06T12:22:15Z</time></trkpt><trkpt lat="51.15499083902935" lon="4.961702819283685"><ele>20.4</ele><time>2026-04-06T12:22:16Z</time></trkpt><trkpt lat="51.1550720242095" lon="4.9617027903576"><ele>20.6</ele><time>2026-04-06T12:22:18Z</time></trkpt><trkpt lat="51.155165997039056" lon="4.961673911750391"><ele>20.8</ele><time>2026-04-06T12:22:20Z</time></trkpt><trkpt lat="51.1551955643945" lon="4.9614846223983955"><ele>21.0</ele><time>2026-04-06T12:22:21Z</time></trkpt><trkpt lat="51.155227143826956" lon="4.961332494575386"><ele>21.0</ele><time>2026-04-06T12:22:22Z</time></trkpt><trkpt lat="51.1552579465763" lon="4.961153461790569"><ele>21.0</ele><time>2026-04-06T12:22:23Z</time></trkpt><trkpt lat="51.15527913585938" lon="4.960948356412925"><ele>21.0</ele><time>2026-04-06T12:22:24Z</time></trkpt><trkpt lat="51.15528022873707" lon="4.960726996758049"><ele>21.0</ele><time>2026-04-06T12:22:25Z</time></trkpt><trkpt lat="51.15525952450174" lon="4.960504989305305"><ele>21.0</ele><time>2026-04-06T12:22:26Z</time></trkpt><trkpt lat="51.15522409518857" lon="4.960260584179943"><ele>21.0</ele><time>2026-04-06T12:22:27Z</time></trkpt><trkpt lat="51.15518294798758" lon="4.95998247973614"><ele>21.0</ele><time>2026-04-06T12:22:28Z</time></trkpt><trkpt lat="51.15515427789564" lon="4.959695088769125"><ele>21.0</ele><time>2026-04-06T12:22:29Z</time></trkpt><trkpt lat="51.15513465525619" lon="4.959411074543231"><ele>21.0</ele><time>2026-04-06T12:22:30Z</time></trkpt><trkpt lat="51.15511941335265" lon="4.95910347477687"><ele>21.0</ele><time>2026-04-06T12:22:31Z</time></trkpt><trkpt lat="51.155106578962105" lon="4.958794166621861"><ele>21.0</ele><time>2026-04-06T12:22:32Z</time></trkpt><trkpt lat="51.15509725757451" lon="4.958490126845282"><ele>21.0</ele><time>2026-04-06T12:22:33Z</time></trkpt><trkpt lat="51.15509182464129" lon="4.958184787439845"><ele>21.0</ele><time>2026-04-06T12:22:34Z</time></trkpt><trkpt lat="51.155076393862274" lon="4.957878666432324"><ele>20.333333333333332</ele><time>2026-04-06T12:22:35Z</time></trkpt><trkpt lat="51.15504202129596" lon="4.95756639356349"><ele>19.666666666666664</ele><time>2026-04-06T12:22:36Z</time></trkpt><trkpt lat="51.155010717129365" lon="4.957245129127651"><ele>19.0</ele><time>2026-04-06T12:22:37Z</time></trkpt><trkpt lat="51.15498120908882" lon="4.956918871692603"><ele>19.0</ele><time>2026-04-06T12:22:38Z</time></trkpt><trkpt lat="51.1549502784084" lon="4.956592830071107"><ele>19.0</ele><time>2026-04-06T12:22:39Z</time></trkpt><trkpt lat="51.154921645006105" lon="4.95629382961301"><ele>19.0</ele><time>2026-04-06T12:22:40Z</time></trkpt><trkpt lat="51.15491172945401" lon="4.956007769548132"><ele>19.333333333333332</ele><time>2026-04-06T12:22:41Z</time></trkpt><trkpt lat="51.15488725474367" lon="4.9557412949964466"><ele>19.666666666666668</ele><time>2026-04-06T12:22:42Z</time></trkpt><trkpt lat="51.15486418020034" lon="4.955489787952369"><ele>20.0</ele><time>2026-04-06T12:22:43Z</time></trkpt><trkpt lat="51.15484130588298" lon="4.95525566518771"><ele>20.25</ele><time>2026-04-06T12:22:44Z</time></trkpt><trkpt lat="51.15481696826351" lon="4.955036515663393"><ele>20.5</ele><time>2026-04-06T12:22:45Z</time></trkpt><trkpt lat="51.154805628925374" lon="4.954812634864821"><ele>20.75</ele><time>2026-04-06T12:22:46Z</time></trkpt><trkpt lat="51.15485802077431" lon="4.954568957711231"><ele>21.0</ele><time>2026-04-06T12:22:47Z</time></trkpt><trkpt lat="51.15490366343036" lon="4.9543303556788105"><ele>21.0</ele><time>2026-04-06T12:22:48Z</time></trkpt><trkpt lat="51.15493335816538" lon="4.954071489904555"><ele>21.0</ele><time>2026-04-06T12:22:49Z</time></trkpt><trkpt lat="51.155016512812374" lon="4.953828116895392"><ele>21.0</ele><time>2026-04-06T12:22:50Z</time></trkpt><trkpt lat="51.15511675467089" lon="4.953589720460371"><ele>20.666666666666668</ele><time>2026-04-06T12:22:51Z</time></trkpt><trkpt lat="51.15520883847305" lon="4.953347273941072"><ele>20.333333333333336</ele><time>2026-04-06T12:22:52Z</time></trkpt><trkpt lat="51.15529035077007" lon="4.9530756893435095"><ele>20.0</ele><time>2026-04-06T12:22:53Z</time></trkpt><trkpt lat="51.155369532011186" lon="4.9527901284175035"><ele>20.333333333333336</ele><time>2026-04-06T12:22:54Z</time></trkpt><trkpt lat="51.15545399204181" lon="4.952498142568302"><ele>20.666666666666668</ele><time>2026-04-06T12:22:55Z</time></trkpt><trkpt lat="51.15553029112612" lon="4.95220361384409"><ele>21.0</ele><time>2026-04-06T12:22:56Z</time></trkpt><trkpt lat="51.155591657351856" lon="4.951894812965199"><ele>21.333333333333332</ele><time>2026-04-06T12:22:57Z</time></trkpt><trkpt lat="51.15564107293815" lon="4.951571917401737"><ele>21.666666666666664</ele><time>2026-04-06T12:22:58Z</time></trkpt><trkpt lat="51.15570258416703" lon="4.951246271300599"><ele>22.0</ele><time>2026-04-06T12:22:59Z</time></trkpt><trkpt lat="51.15575006299227" lon="4.950908618123491"><ele>21.333333333333332</ele><time>2026-04-06T12:23:00Z</time></trkpt><trkpt lat="51.1557986617924" lon="4.950577647283125"><ele>20.666666666666668</ele><time>2026-04-06T12:23:01Z</time></trkpt><trkpt lat="51.15584794925706" lon="4.950251306405742"><ele>20.0</ele><time>2026-04-06T12:23:02Z</time></trkpt><trkpt lat="51.15590071886887" lon="4.949931133653907"><ele>20.0</ele><time>2026-04-06T12:23:03Z</time></trkpt><trkpt lat="51.15595744622979" lon="4.949614561066243"><ele>20.0</ele><time>2026-04-06T12:23:04Z</time></trkpt><trkpt lat="51.15601678785398" lon="4.949295996287612"><ele>20.0</ele><time>2026-04-06T12:23:05Z</time></trkpt><trkpt lat="51.15607524180493" lon="4.948977194826484"><ele>20.0</ele><time>2026-04-06T12:23:06Z</time></trkpt><trkpt lat="51.156136130706486" lon="4.948677859145723"><ele>20.0</ele><time>2026-04-06T12:23:07Z</time></trkpt><trkpt lat="51.156182287448416" lon="4.948381758186102"><ele>20.0</ele><time>2026-04-06T12:23:08Z</time></trkpt><trkpt lat="51.1562413699605" lon="4.948101973232017"><ele>20.0</ele><time>2026-04-06T12:23:09Z</time></trkpt><trkpt lat="51.15629761778721" lon="4.947828950736881"><ele>20.0</ele><time>2026-04-06T12:23:10Z</time></trkpt><trkpt lat="51.156344569656696" lon="4.9475555767727775"><ele>20.0</ele><time>2026-04-06T12:23:11Z</time></trkpt><trkpt lat="51.15639517687999" lon="4.947283964042407"><ele>20.0</ele><time>2026-04-06T12:23:12Z</time></trkpt><trkpt lat="51.156392647496006" lon="4.946994742028843"><ele>20.0</ele><time>2026-04-06T12:23:13Z</time></trkpt><trkpt lat="51.15641475829603" lon="4.9467023509855546"><ele>20.0</ele><time>2026-04-06T12:23:14Z</time></trkpt><trkpt lat="51.15641343511124" lon="4.9464037583440295"><ele>20.0</ele><time>2026-04-06T12:23:15Z</time></trkpt><trkpt lat="51.15640513929244" lon="4.946101460350599"><ele>20.0</ele><time>2026-04-06T12:23:16Z</time></trkpt><trkpt lat="51.1563925133144" lon="4.9458079617690585"><ele>20.0</ele><time>2026-04-06T12:23:17Z</time></trkpt><trkpt lat="51.1563744385488" lon="4.945517674850582"><ele>20.0</ele><time>2026-04-06T12:23:18Z</time></trkpt><trkpt lat="51.15633288022669" lon="4.945237299387661"><ele>20.0</ele><time>2026-04-06T12:23:19Z</time></trkpt><trkpt lat="51.15631600380325" lon="4.944956946514987"><ele>20.0</ele><time>2026-04-06T12:23:20Z</time></trkpt><trkpt lat="51.15626323428024" lon="4.944696246873004"><ele>20.5</ele><time>2026-04-06T12:23:21Z</time></trkpt><trkpt lat="51.15620118830295" lon="4.9444643283477445"><ele>21.0</ele><time>2026-04-06T12:23:22Z</time></trkpt><trkpt lat="51.156142081747916" lon="4.944249210091544"><ele>21.5</ele><time>2026-04-06T12:23:23Z</time></trkpt><trkpt lat="51.15609279462739" lon="4.94406587635768"><ele>22.0</ele><time>2026-04-06T12:23:24Z</time></trkpt><trkpt lat="51.15605337016084" lon="4.943910577118074"><ele>22.0</ele><time>2026-04-06T12:23:25Z</time></trkpt><trkpt lat="51.15602533519892" lon="4.943764308443071"><ele>22.0</ele><time>2026-04-06T12:23:26Z</time></trkpt><trkpt lat="51.15599462087487" lon="4.9436246599843905"><ele>22.0</ele><time>2026-04-06T12:23:27Z</time></trkpt><trkpt lat="51.15601743956926" lon="4.943489783023131"><ele>22.0</ele><time>2026-04-06T12:23:28Z</time></trkpt><trkpt lat="51.1560183053824" lon="4.9433568780806745"><ele>22.0</ele><time>2026-04-06T12:23:29Z</time></trkpt><trkpt lat="51.15606169136846" lon="4.943250668343615"><ele>22.0</ele><time>2026-04-06T12:23:30Z</time></trkpt><trkpt lat="51.15610534034582" lon="4.943127435918364"><ele>22.0</ele><time>2026-04-06T12:23:31Z</time></trkpt><trkpt lat="51.15615860860696" lon="4.943009351782412"><ele>22.0</ele><time>2026-04-06T12:23:32Z</time></trkpt><trkpt lat="51.1562187501839" lon="4.9428992964806335"><ele>22.0</ele><time>2026-04-06T12:23:33Z</time></trkpt><trkpt lat="51.156277759432946" lon="4.942785135034293"><ele>22.0</ele><time>2026-04-06T12:23:34Z</time></trkpt><trkpt lat="51.15634154032743" lon="4.942640715002904"><ele>22.0</ele><time>2026-04-06T12:23:35Z</time></trkpt><trkpt lat="51.15640047214327" lon="4.942468165394518"><ele>22.0</ele><time>2026-04-06T12:23:36Z</time></trkpt><trkpt lat="51.156453181715115" lon="4.942274419151188"><ele>22.0</ele><time>2026-04-06T12:23:37Z</time></trkpt><trkpt lat="51.156502812134654" lon="4.942062671156323"><ele>22.0</ele><time>2026-04-06T12:23:38Z</time></trkpt><trkpt lat="51.1565342084185" lon="4.941855426931033"><ele>22.0</ele><time>2026-04-06T12:23:39Z</time></trkpt><trkpt lat="51.15658265434983" lon="4.941655610945937"><ele>22.0</ele><time>2026-04-06T12:23:40Z</time></trkpt><trkpt lat="51.156633759003526" lon="4.941450641992212"><ele>22.0</ele><time>2026-04-06T12:23:41Z</time></trkpt><trkpt lat="51.15668447971623" lon="4.941238454045049"><ele>22.0</ele><time>2026-04-06T12:23:42Z</time></trkpt><trkpt lat="51.156732715575686" lon="4.9410264424674075"><ele>22.0</ele><time>2026-04-06T12:23:43Z</time></trkpt><trkpt lat="51.15677438799995" lon="4.940836376947644"><ele>22.0</ele><time>2026-04-06T12:23:44Z</time></trkpt><trkpt lat="51.156802307232006" lon="4.9406731956737815"><ele>22.0</ele><time>2026-04-06T12:23:45Z</time></trkpt><trkpt lat="51.156838654367284" lon="4.940551952737353"><ele>22.0</ele><time>2026-04-06T12:23:46Z</time></trkpt><trkpt lat="51.156854842630025" lon="4.940444245681099"><ele>22.0</ele><time>2026-04-06T12:23:47Z</time></trkpt><trkpt lat="51.156901287524065" lon="4.940283792312157"><ele>22.0</ele><time>2026-04-06T12:23:49Z</time></trkpt><trkpt lat="51.15701600856077" lon="4.940277927717141"><ele>22.0</ele><time>2026-04-06T12:23:50Z</time></trkpt><trkpt lat="51.1571192124158" lon="4.940247491314263"><ele>22.0</ele><time>2026-04-06T12:23:51Z</time></trkpt><trkpt lat="51.157235827749524" lon="4.940187388377018"><ele>22.0</ele><time>2026-04-06T12:23:52Z</time></trkpt><trkpt lat="51.15735894933583" lon="4.940099637606576"><ele>22.0</ele><time>2026-04-06T12:23:53Z</time></trkpt><trkpt lat="51.15747243719945" lon="4.940012910894445"><ele>22.0</ele><time>2026-04-06T12:23:54Z</time></trkpt><trkpt lat="51.15759904184991" lon="4.9399524808007405"><ele>22.0</ele><time>2026-04-06T12:23:55Z</time></trkpt><trkpt lat="51.15773480477914" lon="4.939930923922306"><ele>22.0</ele><time>2026-04-06T12:23:56Z</time></trkpt><trkpt lat="51.1578636483343" lon="4.939931243186048"><ele>22.0</ele><time>2026-04-06T12:23:57Z</time></trkpt><trkpt lat="51.15798836263196" lon="4.939960588784647"><ele>22.0</ele><time>2026-04-06T12:23:58Z</time></trkpt><trkpt lat="51.15810676083775" lon="4.940046823390264"><ele>22.0</ele><time>2026-04-06T12:23:59Z</time></trkpt><trkpt lat="51.15822509686881" lon="4.94015798291548"><ele>22.0</ele><time>2026-04-06T12:24:00Z</time></trkpt><trkpt lat="51.158362620541034" lon="4.940271521323285"><ele>22.0</ele><time>2026-04-06T12:24:01Z</time></trkpt><trkpt lat="51.15851613458683" lon="4.94037974451993"><ele>22.0</ele><time>2026-04-06T12:24:02Z</time></trkpt><trkpt lat="51.15866354170257" lon="4.940469865962855"><ele>22.0</ele><time>2026-04-06T12:24:03Z</time></trkpt><trkpt lat="51.15881570727089" lon="4.940548288075255"><ele>22.0</ele><time>2026-04-06T12:24:04Z</time></trkpt><trkpt lat="51.158970242353746" lon="4.94063772467594"><ele>21.333333333333332</ele><time>2026-04-06T12:24:05Z</time></trkpt><trkpt lat="51.15912636680617" lon="4.940736190866519"><ele>20.666666666666668</ele><time>2026-04-06T12:24:06Z</time></trkpt><trkpt lat="51.159283040803835" lon="4.940838612106507"><ele>20.0</ele><time>2026-04-06T12:24:07Z</time></trkpt><trkpt lat="51.159438782236066" lon="4.940947426465444"><ele>20.0</ele><time>2026-04-06T12:24:08Z</time></trkpt><trkpt lat="51.15959048332952" lon="4.941068871695545"><ele>20.0</ele><time>2026-04-06T12:24:09Z</time></trkpt><trkpt lat="51.15973708052976" lon="4.9412063338928975"><ele>20.0</ele><time>2026-04-06T12:24:10Z</time></trkpt><trkpt lat="51.159878665965394" lon="4.94135906631113"><ele>20.0</ele><time>2026-04-06T12:24:11Z</time></trkpt><trkpt lat="51.160014081966715" lon="4.94152605327508"><ele>20.0</ele><time>2026-04-06T12:24:12Z</time></trkpt><trkpt lat="51.16014566099181" lon="4.941700870138707"><ele>20.0</ele><time>2026-04-06T12:24:13Z</time></trkpt><trkpt lat="51.160277530918435" lon="4.941879277171955"><ele>19.666666666666668</ele><time>2026-04-06T12:24:14Z</time></trkpt><trkpt lat="51.1604092765467" lon="4.942053392264748"><ele>19.333333333333332</ele><time>2026-04-06T12:24:15Z</time></trkpt><trkpt lat="51.16054000710137" lon="4.942223424888234"><ele>19.0</ele><time>2026-04-06T12:24:16Z</time></trkpt><trkpt lat="51.16066294889305" lon="4.942390746233858"><ele>18.75</ele><time>2026-04-06T12:24:17Z</time></trkpt><trkpt lat="51.16077512962719" lon="4.94255043281856"><ele>18.5</ele><time>2026-04-06T12:24:18Z</time></trkpt><trkpt lat="51.16087366437501" lon="4.942715564230377"><ele>18.25</ele><time>2026-04-06T12:24:19Z</time></trkpt><trkpt lat="51.160965337444615" lon="4.94290138820924"><ele>18.0</ele><time>2026-04-06T12:24:20Z</time></trkpt><trkpt lat="51.16105580814545" lon="4.943093774905359"><ele>18.0</ele><time>2026-04-06T12:24:21Z</time></trkpt><trkpt lat="51.161152123532545" lon="4.9432832010427115"><ele>18.0</ele><time>2026-04-06T12:24:22Z</time></trkpt><trkpt lat="51.161243697572374" lon="4.943487878263186"><ele>18.0</ele><time>2026-04-06T12:24:23Z</time></trkpt><trkpt lat="51.16133777176142" lon="4.943690849588112"><ele>18.333333333333332</ele><time>2026-04-06T12:24:24Z</time></trkpt><trkpt lat="51.16143333285258" lon="4.943890122738395"><ele>18.666666666666664</ele><time>2026-04-06T12:24:25Z</time></trkpt><trkpt lat="51.161524365841636" lon="4.944086650543539"><ele>19.0</ele><time>2026-04-06T12:24:26Z</time></trkpt><trkpt lat="51.161609468130074" lon="4.944271909081973"><ele>19.25</ele><time>2026-04-06T12:24:27Z</time></trkpt><trkpt lat="51.161689820137546" lon="4.944447722818373"><ele>19.5</ele><time>2026-04-06T12:24:28Z</time></trkpt><trkpt lat="51.161762913826166" lon="4.9446064045624425"><ele>19.75</ele><time>2026-04-06T12:24:29Z</time></trkpt><trkpt lat="51.161834421204105" lon="4.944748267430215"><ele>20.0</ele><time>2026-04-06T12:24:30Z</time></trkpt><trkpt lat="51.16191270629426" lon="4.9448507536574215"><ele>20.0</ele><time>2026-04-06T12:24:31Z</time></trkpt><trkpt lat="51.161999108378346" lon="4.944932552041573"><ele>20.0</ele><time>2026-04-06T12:24:32Z</time></trkpt><trkpt lat="51.16211574965757" lon="4.94492414711413"><ele>20.0</ele><time>2026-04-06T12:24:33Z</time></trkpt><trkpt lat="51.162230192050615" lon="4.944912887120081"><ele>20.0</ele><time>2026-04-06T12:24:34Z</time></trkpt><trkpt lat="51.16234611028314" lon="4.944891180749221"><ele>20.0</ele><time>2026-04-06T12:24:35Z</time></trkpt><trkpt lat="51.162466437793206" lon="4.94487592654005"><ele>19.75</ele><time>2026-04-06T12:24:36Z</time></trkpt><trkpt lat="51.16258677291579" lon="4.9448754218011315"><ele>19.5</ele><time>2026-04-06T12:24:37Z</time></trkpt><trkpt lat="51.16270959874475" lon="4.944882137867583"><ele>19.25</ele><time>2026-04-06T12:24:38Z</time></trkpt><trkpt lat="51.162829847424895" lon="4.94488875236453"><ele>19.0</ele><time>2026-04-06T12:24:39Z</time></trkpt><trkpt lat="51.162946441952684" lon="4.9448779051230645"><ele>19.0</ele><time>2026-04-06T12:24:40Z</time></trkpt><trkpt lat="51.1630613772353" lon="4.9448276639906"><ele>19.0</ele><time>2026-04-06T12:24:41Z</time></trkpt><trkpt lat="51.163173850673495" lon="4.944742465276957"><ele>19.0</ele><time>2026-04-06T12:24:42Z</time></trkpt><trkpt lat="51.16329517888284" lon="4.944662322857949"><ele>19.0</ele><time>2026-04-06T12:24:43Z</time></trkpt><trkpt lat="51.16340624304886" lon="4.944539553420384"><ele>19.0</ele><time>2026-04-06T12:24:44Z</time></trkpt><trkpt lat="51.163531247462" lon="4.944443159182931"><ele>19.0</ele><time>2026-04-06T12:24:45Z</time></trkpt><trkpt lat="51.163661941067495" lon="4.944347784935065"><ele>19.0</ele><time>2026-04-06T12:24:46Z</time></trkpt><trkpt lat="51.16379798265538" lon="4.944260464824655"><ele>19.0</ele><time>2026-04-06T12:24:47Z</time></trkpt><trkpt lat="51.163941230377965" lon="4.944196390878201"><ele>19.333333333333332</ele><time>2026-04-06T12:24:48Z</time></trkpt><trkpt lat="51.16408979386834" lon="4.94415092437697"><ele>19.666666666666668</ele><time>2026-04-06T12:24:49Z</time></trkpt><trkpt lat="51.16424048822352" lon="4.944123193346304"><ele>20.0</ele><time>2026-04-06T12:24:50Z</time></trkpt><trkpt lat="51.164391800695086" lon="4.9441066771199855"><ele>20.0</ele><time>2026-04-06T12:24:51Z</time></trkpt><trkpt lat="51.16453950889475" lon="4.9440866958579"><ele>20.0</ele><time>2026-04-06T12:24:52Z</time></trkpt><trkpt lat="51.16468519887721" lon="4.944059071814405"><ele>20.0</ele><time>2026-04-06T12:24:53Z</time></trkpt><trkpt lat="51.16483080688442" lon="4.944031348019536"><ele>20.0</ele><time>2026-04-06T12:24:54Z</time></trkpt><trkpt lat="51.164973911783385" lon="4.944010071137959"><ele>20.0</ele><time>2026-04-06T12:24:55Z</time></trkpt><trkpt lat="51.16511586763461" lon="4.944001451810876"><ele>20.0</ele><time>2026-04-06T12:24:56Z</time></trkpt><trkpt lat="51.16525597956168" lon="4.944015524198897"><ele>20.0</ele><time>2026-04-06T12:24:57Z</time></trkpt><trkpt lat="51.165395612867414" lon="4.944045815692318"><ele>20.0</ele><time>2026-04-06T12:24:58Z</time></trkpt><trkpt lat="51.165535234218474" lon="4.94407756207463"><ele>20.0</ele><time>2026-04-06T12:24:59Z</time></trkpt><trkpt lat="51.16567744816718" lon="4.94411009066517"><ele>20.0</ele><time>2026-04-06T12:25:00Z</time></trkpt><trkpt lat="51.16582220953842" lon="4.944141492673195"><ele>20.0</ele><time>2026-04-06T12:25:01Z</time></trkpt><trkpt lat="51.16596843241945" lon="4.944173300996471"><ele>20.0</ele><time>2026-04-06T12:25:02Z</time></trkpt><trkpt lat="51.16611150951908" lon="4.944206492712646"><ele>20.0</ele><time>2026-04-06T12:25:03Z</time></trkpt><trkpt lat="51.16623929743613" lon="4.944235878083946"><ele>20.0</ele><time>2026-04-06T12:25:04Z</time></trkpt><trkpt lat="51.16635820085487" lon="4.944265543474468"><ele>20.0</ele><time>2026-04-06T12:25:05Z</time></trkpt><trkpt lat="51.16646359546974" lon="4.944298583266854"><ele>20.0</ele><time>2026-04-06T12:25:06Z</time></trkpt><trkpt lat="51.1665480711101" lon="4.9443360912191086"><ele>20.0</ele><time>2026-04-06T12:25:07Z</time></trkpt><trkpt lat="51.166610886550956" lon="4.944383275686863"><ele>20.0</ele><time>2026-04-06T12:25:08Z</time></trkpt><trkpt lat="51.16668897849615" lon="4.944510156072733"><ele>20.0</ele><time>2026-04-06T12:25:10Z</time></trkpt><trkpt lat="51.16676688761762" lon="4.944542765464336"><ele>20.0</ele><time>2026-04-06T12:25:12Z</time></trkpt><trkpt lat="51.16686171439154" lon="4.944412663785124"><ele>20.0</ele><time>2026-04-06T12:25:14Z</time></trkpt><trkpt lat="51.16688816107439" lon="4.944281068754301"><ele>20.0</ele><time>2026-04-06T12:25:15Z</time></trkpt><trkpt lat="51.16697441584605" lon="4.944175139046721"><ele>20.0</ele><time>2026-04-06T12:25:16Z</time></trkpt><trkpt lat="51.167042101175504" lon="4.944065691194163"><ele>20.0</ele><time>2026-04-06T12:25:17Z</time></trkpt><trkpt lat="51.167108304841875" lon="4.943956712940506"><ele>20.0</ele><time>2026-04-06T12:25:18Z</time></trkpt><trkpt lat="51.16717541475553" lon="4.943847320402799"><ele>20.0</ele><time>2026-04-06T12:25:19Z</time></trkpt><trkpt lat="51.16724090886233" lon="4.943740433317168"><ele>20.0</ele><time>2026-04-06T12:25:20Z</time></trkpt><trkpt lat="51.167298181841424" lon="4.943623848601661"><ele>20.0</ele><time>2026-04-06T12:25:21Z</time></trkpt><trkpt lat="51.167340022687895" lon="4.943504060469794"><ele>20.0</ele><time>2026-04-06T12:25:22Z</time></trkpt><trkpt lat="51.16738329786364" lon="4.943402133294626"><ele>20.0</ele><time>2026-04-06T12:25:23Z</time></trkpt><trkpt lat="51.16744490923679" lon="4.9433511444897675"><ele>20.0</ele><time>2026-04-06T12:25:24Z</time></trkpt><trkpt lat="51.16759309553955" lon="4.943347777079412"><ele>20.0</ele><time>2026-04-06T12:25:26Z</time></trkpt><trkpt lat="51.167658498484634" lon="4.943212611960396"><ele>20.0</ele><time>2026-04-06T12:25:27Z</time></trkpt><trkpt lat="51.16774212905288" lon="4.943105367861733"><ele>20.0</ele><time>2026-04-06T12:25:28Z</time></trkpt><trkpt lat="51.167836746048884" lon="4.943000774998261"><ele>20.0</ele><time>2026-04-06T12:25:29Z</time></trkpt><trkpt lat="51.16792668438525" lon="4.942931953750616"><ele>20.0</ele><time>2026-04-06T12:25:30Z</time></trkpt><trkpt lat="51.16798224807611" lon="4.942821650406422"><ele>20.0</ele><time>2026-04-06T12:25:31Z</time></trkpt><trkpt lat="51.16805584673035" lon="4.942727562475132"><ele>20.0</ele><time>2026-04-06T12:25:32Z</time></trkpt><trkpt lat="51.168143101608074" lon="4.942614213150045"><ele>20.0</ele><time>2026-04-06T12:25:33Z</time></trkpt><trkpt lat="51.16824644671977" lon="4.94248591422057"><ele>20.0</ele><time>2026-04-06T12:25:34Z</time></trkpt><trkpt lat="51.16835628292988" lon="4.942353716490955"><ele>20.0</ele><time>2026-04-06T12:25:35Z</time></trkpt><trkpt lat="51.168459541082235" lon="4.942240672045031"><ele>19.5</ele><time>2026-04-06T12:25:36Z</time></trkpt><trkpt lat="51.16855803232707" lon="4.942110860689977"><ele>19.0</ele><time>2026-04-06T12:25:37Z</time></trkpt><trkpt lat="51.168683228549895" lon="4.942012931928912"><ele>18.5</ele><time>2026-04-06T12:25:38Z</time></trkpt><trkpt lat="51.16880843411345" lon="4.941884875926499"><ele>18.0</ele><time>2026-04-06T12:25:39Z</time></trkpt><trkpt lat="51.1689257696723" lon="4.941739840666075"><ele>18.0</ele><time>2026-04-06T12:25:40Z</time></trkpt><trkpt lat="51.16905021657906" lon="4.941631171536366"><ele>18.0</ele><time>2026-04-06T12:25:41Z</time></trkpt><trkpt lat="51.169169502909334" lon="4.941513858005653"><ele>18.0</ele><time>2026-04-06T12:25:42Z</time></trkpt><trkpt lat="51.16928385448548" lon="4.941385407608425"><ele>18.0</ele><time>2026-04-06T12:25:43Z</time></trkpt><trkpt lat="51.169401194824545" lon="4.9412615009870935"><ele>18.0</ele><time>2026-04-06T12:25:44Z</time></trkpt><trkpt lat="51.16951858539157" lon="4.941134171707867"><ele>18.0</ele><time>2026-04-06T12:25:45Z</time></trkpt><trkpt lat="51.16963450500486" lon="4.941002343045462"><ele>18.0</ele><time>2026-04-06T12:25:46Z</time></trkpt><trkpt lat="51.16975441948693" lon="4.940878193249678"><ele>18.0</ele><time>2026-04-06T12:25:47Z</time></trkpt><trkpt lat="51.16987469954513" lon="4.940754802353507"><ele>17.75</ele><time>2026-04-06T12:25:48Z</time></trkpt><trkpt lat="51.169994821723314" lon="4.940630422067282"><ele>17.5</ele><time>2026-04-06T12:25:49Z</time></trkpt><trkpt lat="51.170114792904485" lon="4.940505450908656"><ele>17.25</ele><time>2026-04-06T12:25:50Z</time></trkpt><trkpt lat="51.17023366469262" lon="4.940377857265102"><ele>17.0</ele><time>2026-04-06T12:25:51Z</time></trkpt><trkpt lat="51.170354841287825" lon="4.940282095166861"><ele>17.0</ele><time>2026-04-06T12:25:52Z</time></trkpt><trkpt lat="51.1704541085037" lon="4.940179244905319"><ele>17.0</ele><time>2026-04-06T12:25:53Z</time></trkpt><trkpt lat="51.17054631611579" lon="4.940083690178104"><ele>17.0</ele><time>2026-04-06T12:25:54Z</time></trkpt><trkpt lat="51.17063256632225" lon="4.9400016503053665"><ele>17.0</ele><time>2026-04-06T12:25:55Z</time></trkpt><trkpt lat="51.170721623100405" lon="4.939917821665424"><ele>17.0</ele><time>2026-04-06T12:25:56Z</time></trkpt><trkpt lat="51.17081415260456" lon="4.939818921886779"><ele>17.5</ele><time>2026-04-06T12:25:57Z</time></trkpt><trkpt lat="51.17091476561836" lon="4.939717677682581"><ele>18.0</ele><time>2026-04-06T12:25:58Z</time></trkpt><trkpt lat="51.171027630419154" lon="4.939602155251996"><ele>18.5</ele><time>2026-04-06T12:25:59Z</time></trkpt><trkpt lat="51.17115146759915" lon="4.939473233902219"><ele>19.0</ele><time>2026-04-06T12:26:00Z</time></trkpt><trkpt lat="51.171288403527214" lon="4.9393297997326"><ele>19.0</ele><time>2026-04-06T12:26:01Z</time></trkpt><trkpt lat="51.17143095440091" lon="4.939183763994082"><ele>19.0</ele><time>2026-04-06T12:26:02Z</time></trkpt><trkpt lat="51.17157271121424" lon="4.939037468798982"><ele>19.0</ele><time>2026-04-06T12:26:03Z</time></trkpt><trkpt lat="51.17172626732763" lon="4.938878996536823"><ele>18.666666666666664</ele><time>2026-04-06T12:26:04Z</time></trkpt><trkpt lat="51.17188988104708" lon="4.9387090999006045"><ele>18.333333333333332</ele><time>2026-04-06T12:26:05Z</time></trkpt><trkpt lat="51.17205320182086" lon="4.93853922244763"><ele>18.0</ele><time>2026-04-06T12:26:06Z</time></trkpt><trkpt lat="51.172215439080574" lon="4.938372233805913"><ele>18.0</ele><time>2026-04-06T12:26:07Z</time></trkpt><trkpt lat="51.172375389929016" lon="4.938206311555126"><ele>18.0</ele><time>2026-04-06T12:26:08Z</time></trkpt><trkpt lat="51.17253365672625" lon="4.93804065037287"><ele>18.0</ele><time>2026-04-06T12:26:09Z</time></trkpt><trkpt lat="51.17269400355099" lon="4.937876061090995"><ele>18.0</ele><time>2026-04-06T12:26:10Z</time></trkpt><trkpt lat="51.17285832130855" lon="4.93771033290214"><ele>18.0</ele><time>2026-04-06T12:26:11Z</time></trkpt><trkpt lat="51.17303077465033" lon="4.937554228770652"><ele>18.0</ele><time>2026-04-06T12:26:12Z</time></trkpt><trkpt lat="51.173209793960226" lon="4.937412579666831"><ele>18.333333333333332</ele><time>2026-04-06T12:26:13Z</time></trkpt><trkpt lat="51.17339896221022" lon="4.937291445114952"><ele>18.666666666666664</ele><time>2026-04-06T12:26:14Z</time></trkpt><trkpt lat="51.173587606959586" lon="4.937179723553307"><ele>19.0</ele><time>2026-04-06T12:26:15Z</time></trkpt><trkpt lat="51.17377865420914" lon="4.937086846139001"><ele>19.0</ele><time>2026-04-06T12:26:16Z</time></trkpt><trkpt lat="51.173974672482714" lon="4.937018397101027"><ele>19.0</ele><time>2026-04-06T12:26:17Z</time></trkpt><trkpt lat="51.17417032386736" lon="4.936964761236118"><ele>19.0</ele><time>2026-04-06T12:26:18Z</time></trkpt><trkpt lat="51.174368221534934" lon="4.936935765948861"><ele>19.0</ele><time>2026-04-06T12:26:19Z</time></trkpt><trkpt lat="51.17456580846143" lon="4.936919299689664"><ele>19.0</ele><time>2026-04-06T12:26:20Z</time></trkpt><trkpt lat="51.174765022673895" lon="4.936922044448886"><ele>19.0</ele><time>2026-04-06T12:26:21Z</time></trkpt><trkpt lat="51.17496472701149" lon="4.936936435427651"><ele>19.333333333333332</ele><time>2026-04-06T12:26:22Z</time></trkpt><trkpt lat="51.175163519271514" lon="4.936953281321985"><ele>19.666666666666668</ele><time>2026-04-06T12:26:23Z</time></trkpt><trkpt lat="51.17536293474048" lon="4.936970217243989"><ele>20.0</ele><time>2026-04-06T12:26:24Z</time></trkpt><trkpt lat="51.17556214683684" lon="4.936986862970041"><ele>19.333333333333336</ele><time>2026-04-06T12:26:25Z</time></trkpt><trkpt lat="51.17575957987784" lon="4.9370021617237105"><ele>18.666666666666668</ele><time>2026-04-06T12:26:26Z</time></trkpt><trkpt lat="51.17595438298113" lon="4.937017256685644"><ele>18.0</ele><time>2026-04-06T12:26:27Z</time></trkpt><trkpt lat="51.17614450055999" lon="4.937030524187528"><ele>18.0</ele><time>2026-04-06T12:26:28Z</time></trkpt><trkpt lat="51.17632946786374" lon="4.93704280461167"><ele>18.0</ele><time>2026-04-06T12:26:29Z</time></trkpt><trkpt lat="51.176516536763074" lon="4.937055624167556"><ele>18.0</ele><time>2026-04-06T12:26:30Z</time></trkpt><trkpt lat="51.17670337171588" lon="4.93706970551318"><ele>18.333333333333332</ele><time>2026-04-06T12:26:31Z</time></trkpt><trkpt lat="51.17689163325288" lon="4.937087196254552"><ele>18.666666666666664</ele><time>2026-04-06T12:26:32Z</time></trkpt><trkpt lat="51.177079955302204" lon="4.937104697913647"><ele>19.0</ele><time>2026-04-06T12:26:33Z</time></trkpt><trkpt lat="51.177267989553116" lon="4.937118551857025"><ele>19.0</ele><time>2026-04-06T12:26:34Z</time></trkpt><trkpt lat="51.17745562440709" lon="4.937132546381072"><ele>19.0</ele><time>2026-04-06T12:26:35Z</time></trkpt><trkpt lat="51.1776435134147" lon="4.937146998378316"><ele>19.0</ele><time>2026-04-06T12:26:36Z</time></trkpt><trkpt lat="51.1778309210642" lon="4.937161240065149"><ele>19.0</ele><time>2026-04-06T12:26:37Z</time></trkpt><trkpt lat="51.17801731009399" lon="4.937175404328067"><ele>19.0</ele><time>2026-04-06T12:26:38Z</time></trkpt><trkpt lat="51.17820434781792" lon="4.937189280953161"><ele>19.0</ele><time>2026-04-06T12:26:39Z</time></trkpt><trkpt lat="51.17839079725184" lon="4.937203135581654"><ele>18.666666666666664</ele><time>2026-04-06T12:26:40Z</time></trkpt><trkpt lat="51.178575041764624" lon="4.937216826366986"><ele>18.333333333333332</ele><time>2026-04-06T12:26:41Z</time></trkpt><trkpt lat="51.17875658280436" lon="4.9372046735278"><ele>18.0</ele><time>2026-04-06T12:26:42Z</time></trkpt><trkpt lat="51.17893044079607" lon="4.937224399087427"><ele>17.333333333333332</ele><time>2026-04-06T12:26:43Z</time></trkpt><trkpt lat="51.17909368470871" lon="4.937239262145254"><ele>16.666666666666664</ele><time>2026-04-06T12:26:44Z</time></trkpt><trkpt lat="51.179248721754135" lon="4.937251448975587"><ele>16.0</ele><time>2026-04-06T12:26:45Z</time></trkpt><trkpt lat="51.17939559508999" lon="4.937254478308606"><ele>16.0</ele><time>2026-04-06T12:26:46Z</time></trkpt><trkpt lat="51.179531927169606" lon="4.937234964768889"><ele>16.0</ele><time>2026-04-06T12:26:47Z</time></trkpt><trkpt lat="51.179651902679325" lon="4.937170905840132"><ele>16.0</ele><time>2026-04-06T12:26:48Z</time></trkpt><trkpt lat="51.17976673093662" lon="4.93708788421437"><ele>16.0</ele><time>2026-04-06T12:26:49Z</time></trkpt><trkpt lat="51.17987326718984" lon="4.937003643908902"><ele>16.0</ele><time>2026-04-06T12:26:50Z</time></trkpt><trkpt lat="51.17997489109314" lon="4.93692474746305"><ele>16.0</ele><time>2026-04-06T12:26:51Z</time></trkpt><trkpt lat="51.18005876030531" lon="4.9368711274723305"><ele>16.0</ele><time>2026-04-06T12:26:52Z</time></trkpt><trkpt lat="51.18011868852379" lon="4.936825448358925"><ele>16.0</ele><time>2026-04-06T12:26:53Z</time></trkpt><trkpt lat="51.18010932794933" lon="4.936570511190342"><ele>16.0</ele><time>2026-04-06T12:26:54Z</time></trkpt><trkpt lat="51.180124220317516" lon="4.936385426503287"><ele>16.333333333333332</ele><time>2026-04-06T12:26:55Z</time></trkpt><trkpt lat="51.18014438736283" lon="4.936172118851732"><ele>16.666666666666668</ele><time>2026-04-06T12:26:56Z</time></trkpt><trkpt lat="51.18017565719798" lon="4.935921626338208"><ele>17.0</ele><time>2026-04-06T12:26:57Z</time></trkpt><trkpt lat="51.18021671070749" lon="4.935639738633639"><ele>17.0</ele><time>2026-04-06T12:26:58Z</time></trkpt><trkpt lat="51.1802540361233" lon="4.935370342948863"><ele>17.0</ele><time>2026-04-06T12:26:59Z</time></trkpt><trkpt lat="51.18029334112681" lon="4.9350895312095435"><ele>17.0</ele><time>2026-04-06T12:27:00Z</time></trkpt><trkpt lat="51.18033148217639" lon="4.934808182418609"><ele>17.333333333333336</ele><time>2026-04-06T12:27:01Z</time></trkpt><trkpt lat="51.180368107499184" lon="4.93454697159424"><ele>17.666666666666668</ele><time>2026-04-06T12:27:02Z</time></trkpt><trkpt lat="51.180405311124204" lon="4.934289367007299"><ele>18.0</ele><time>2026-04-06T12:27:03Z</time></trkpt><trkpt lat="51.180443659054816" lon="4.934032462802791"><ele>18.0</ele><time>2026-04-06T12:27:04Z</time></trkpt><trkpt lat="51.18047982054732" lon="4.933774085530936"><ele>18.0</ele><time>2026-04-06T12:27:05Z</time></trkpt><trkpt lat="51.180516507530854" lon="4.933509679322259"><ele>18.0</ele><time>2026-04-06T12:27:06Z</time></trkpt><trkpt lat="51.18055293358059" lon="4.933238548665434"><ele>18.333333333333332</ele><time>2026-04-06T12:27:07Z</time></trkpt><trkpt lat="51.18058937703688" lon="4.932967477664121"><ele>18.666666666666664</ele><time>2026-04-06T12:27:08Z</time></trkpt><trkpt lat="51.180628890962595" lon="4.932698080157638"><ele>19.0</ele><time>2026-04-06T12:27:09Z</time></trkpt><trkpt lat="51.18066531788131" lon="4.932452101036672"><ele>19.0</ele><time>2026-04-06T12:27:10Z</time></trkpt><trkpt lat="51.180698808118166" lon="4.932221134895375"><ele>19.0</ele><time>2026-04-06T12:27:11Z</time></trkpt><trkpt lat="51.180730473066156" lon="4.9320190320704915"><ele>19.0</ele><time>2026-04-06T12:27:12Z</time></trkpt><trkpt lat="51.18075655548972" lon="4.931850945884696"><ele>19.0</ele><time>2026-04-06T12:27:13Z</time></trkpt><trkpt lat="51.1807783911764" lon="4.931693575334661"><ele>18.8</ele><time>2026-04-06T12:27:14Z</time></trkpt><trkpt lat="51.18080192317914" lon="4.931548954479911"><ele>18.599999999999998</ele><time>2026-04-06T12:27:15Z</time></trkpt><trkpt lat="51.180825107634206" lon="4.93139025291248"><ele>18.4</ele><time>2026-04-06T12:27:16Z</time></trkpt><trkpt lat="51.180850651635055" lon="4.931210189002914"><ele>18.2</ele><time>2026-04-06T12:27:17Z</time></trkpt><trkpt lat="51.18088296414254" lon="4.931014341108522"><ele>18.0</ele><time>2026-04-06T12:27:18Z</time></trkpt><trkpt lat="51.180917597788714" lon="4.930802504345835"><ele>18.666666666666668</ele><time>2026-04-06T12:27:19Z</time></trkpt><trkpt lat="51.180955042699786" lon="4.930564740118405"><ele>19.333333333333336</ele><time>2026-04-06T12:27:20Z</time></trkpt><trkpt lat="51.18099493682152" lon="4.930312150312716"><ele>20.0</ele><time>2026-04-06T12:27:21Z</time></trkpt><trkpt lat="51.18103165746066" lon="4.930072246781741"><ele>20.0</ele><time>2026-04-06T12:27:22Z</time></trkpt><trkpt lat="51.181069793722706" lon="4.929821866473984"><ele>20.0</ele><time>2026-04-06T12:27:23Z</time></trkpt><trkpt lat="51.181108037348736" lon="4.9295672806682305"><ele>20.0</ele><time>2026-04-06T12:27:24Z</time></trkpt><trkpt lat="51.18114967925886" lon="4.92930949168124"><ele>19.666666666666668</ele><time>2026-04-06T12:27:25Z</time></trkpt><trkpt lat="51.18119359968696" lon="4.929052171306431"><ele>19.333333333333332</ele><time>2026-04-06T12:27:26Z</time></trkpt><trkpt lat="51.181230022263286" lon="4.92879740029383"><ele>19.0</ele><time>2026-04-06T12:27:27Z</time></trkpt><trkpt lat="51.18126771471808" lon="4.928541964810976"><ele>19.0</ele><time>2026-04-06T12:27:28Z</time></trkpt><trkpt lat="51.18130765576349" lon="4.92828056904964"><ele>19.0</ele><time>2026-04-06T12:27:29Z</time></trkpt><trkpt lat="51.18134827727778" lon="4.928017446457992"><ele>19.0</ele><time>2026-04-06T12:27:30Z</time></trkpt><trkpt lat="51.181387591014044" lon="4.9277533208973265"><ele>19.333333333333332</ele><time>2026-04-06T12:27:31Z</time></trkpt><trkpt lat="51.181429044357145" lon="4.927488678940616"><ele>19.666666666666668</ele><time>2026-04-06T12:27:32Z</time></trkpt><trkpt lat="51.181469837258916" lon="4.9272224282909285"><ele>20.0</ele><time>2026-04-06T12:27:33Z</time></trkpt><trkpt lat="51.18150950593553" lon="4.926953244375561"><ele>20.333333333333336</ele><time>2026-04-06T12:27:34Z</time></trkpt><trkpt lat="51.18156672234216" lon="4.926687104485889"><ele>20.666666666666668</ele><time>2026-04-06T12:27:35Z</time></trkpt><trkpt lat="51.181608976826624" lon="4.926412136593777"><ele>21.0</ele><time>2026-04-06T12:27:36Z</time></trkpt><trkpt lat="51.181637423571985" lon="4.926130227989575"><ele>20.333333333333332</ele><time>2026-04-06T12:27:37Z</time></trkpt><trkpt lat="51.18168275789021" lon="4.925847939371501"><ele>19.666666666666664</ele><time>2026-04-06T12:27:38Z</time></trkpt><trkpt lat="51.1817274683752" lon="4.925560223542543"><ele>19.0</ele><time>2026-04-06T12:27:39Z</time></trkpt><trkpt lat="51.18177079257099" lon="4.925271196687682"><ele>19.333333333333332</ele><time>2026-04-06T12:27:40Z</time></trkpt><trkpt lat="51.181812438065045" lon="4.924985120659651"><ele>19.666666666666668</ele><time>2026-04-06T12:27:41Z</time></trkpt><trkpt lat="51.18185880513312" lon="4.924698362990995"><ele>20.0</ele><time>2026-04-06T12:27:42Z</time></trkpt><trkpt lat="51.18190489795187" lon="4.92441730086728"><ele>20.333333333333336</ele><time>2026-04-06T12:27:43Z</time></trkpt><trkpt lat="51.18194819550923" lon="4.9241337508316185"><ele>20.666666666666668</ele><time>2026-04-06T12:27:44Z</time></trkpt><trkpt lat="51.181989631006545" lon="4.923847134356346"><ele>21.0</ele><time>2026-04-06T12:27:45Z</time></trkpt><trkpt lat="51.18203302129335" lon="4.923564090551352"><ele>20.333333333333332</ele><time>2026-04-06T12:27:46Z</time></trkpt><trkpt lat="51.18209105606876" lon="4.923285214238698"><ele>19.666666666666664</ele><time>2026-04-06T12:27:47Z</time></trkpt><trkpt lat="51.18213529925066" lon="4.923000484910809"><ele>19.0</ele><time>2026-04-06T12:27:48Z</time></trkpt><trkpt lat="51.182180056024876" lon="4.922714507972153"><ele>19.0</ele><time>2026-04-06T12:27:49Z</time></trkpt><trkpt lat="51.18222550261464" lon="4.92242621458338"><ele>19.0</ele><time>2026-04-06T12:27:50Z</time></trkpt><trkpt lat="51.182270857944744" lon="4.9221386832512595"><ele>19.0</ele><time>2026-04-06T12:27:51Z</time></trkpt><trkpt lat="51.18231636597863" lon="4.921849441124229"><ele>19.0</ele><time>2026-04-06T12:27:52Z</time></trkpt><trkpt lat="51.18236216294311" lon="4.9215571507330615"><ele>19.0</ele><time>2026-04-06T12:27:53Z</time></trkpt><trkpt lat="51.18240715862226" lon="4.921264978530269"><ele>19.0</ele><time>2026-04-06T12:27:54Z</time></trkpt><trkpt lat="51.18245103464525" lon="4.920973588626175"><ele>19.333333333333332</ele><time>2026-04-06T12:27:55Z</time></trkpt><trkpt lat="51.182479111209595" lon="4.920681735210325"><ele>19.666666666666668</ele><time>2026-04-06T12:27:56Z</time></trkpt><trkpt lat="51.18252284445838" lon="4.920396769424033"><ele>20.0</ele><time>2026-04-06T12:27:57Z</time></trkpt><trkpt lat="51.182581738949935" lon="4.920120275690934"><ele>20.666666666666668</ele><time>2026-04-06T12:27:58Z</time></trkpt><trkpt lat="51.18262659073464" lon="4.9198389840150405"><ele>21.333333333333332</ele><time>2026-04-06T12:27:59Z</time></trkpt><trkpt lat="51.18265595650087" lon="4.9195450840137225"><ele>22.0</ele><time>2026-04-06T12:28:00Z</time></trkpt><trkpt lat="51.182718953630555" lon="4.919257064744277"><ele>22.666666666666664</ele><time>2026-04-06T12:28:01Z</time></trkpt><trkpt lat="51.182765700003046" lon="4.9189616495145705"><ele>23.333333333333332</ele><time>2026-04-06T12:28:02Z</time></trkpt><trkpt lat="51.18281272807519" lon="4.918665850056349"><ele>24.0</ele><time>2026-04-06T12:28:03Z</time></trkpt><trkpt lat="51.182857965647806" lon="4.9183741841359625"><ele>24.0</ele><time>2026-04-06T12:28:04Z</time></trkpt><trkpt lat="51.18290262754242" lon="4.918089648936387"><ele>24.0</ele><time>2026-04-06T12:28:05Z</time></trkpt><trkpt lat="51.182947930900156" lon="4.917808203359923"><ele>24.0</ele><time>2026-04-06T12:28:06Z</time></trkpt><trkpt lat="51.182993115637764" lon="4.9175269083745174"><ele>23.0</ele><time>2026-04-06T12:28:07Z</time></trkpt><trkpt lat="51.18304292763968" lon="4.91724895481331"><ele>22.0</ele><time>2026-04-06T12:28:08Z</time></trkpt><trkpt lat="51.183101304845295" lon="4.916977319542217"><ele>21.0</ele><time>2026-04-06T12:28:09Z</time></trkpt><trkpt lat="51.18317316337994" lon="4.9167167047987395"><ele>20.0</ele><time>2026-04-06T12:28:10Z</time></trkpt><trkpt lat="51.18325352646778" lon="4.916459271560746"><ele>19.0</ele><time>2026-04-06T12:28:11Z</time></trkpt><trkpt lat="51.18332972470686" lon="4.91619911677705"><ele>18.0</ele><time>2026-04-06T12:28:12Z</time></trkpt><trkpt lat="51.18338796961691" lon="4.915919174678455"><ele>17.666666666666668</ele><time>2026-04-06T12:28:13Z</time></trkpt><trkpt lat="51.1834257798721" lon="4.9156306683136695"><ele>17.333333333333336</ele><time>2026-04-06T12:28:14Z</time></trkpt><trkpt lat="51.18345736458314" lon="4.915338359863872"><ele>17.0</ele><time>2026-04-06T12:28:15Z</time></trkpt><trkpt lat="51.18346500482118" lon="4.915037408726909"><ele>16.666666666666668</ele><time>2026-04-06T12:28:16Z</time></trkpt><trkpt lat="51.183453982504794" lon="4.914738161703524"><ele>16.333333333333332</ele><time>2026-04-06T12:28:17Z</time></trkpt><trkpt lat="51.18343200573869" lon="4.9144401654054874"><ele>16.0</ele><time>2026-04-06T12:28:18Z</time></trkpt><trkpt lat="51.183406606245164" lon="4.914140015041437"><ele>16.0</ele><time>2026-04-06T12:28:19Z</time></trkpt><trkpt lat="51.18338162150607" lon="4.913839342927769"><ele>16.0</ele><time>2026-04-06T12:28:20Z</time></trkpt><trkpt lat="51.18336624600339" lon="4.9135414374685755"><ele>16.0</ele><time>2026-04-06T12:28:21Z</time></trkpt><trkpt lat="51.183371872723406" lon="4.91324014986053"><ele>16.666666666666664</ele><time>2026-04-06T12:28:22Z</time></trkpt><trkpt lat="51.1833905598818" lon="4.912941491817258"><ele>17.333333333333332</ele><time>2026-04-06T12:28:23Z</time></trkpt><trkpt lat="51.18341133765155" lon="4.9126421937509335"><ele>18.0</ele><time>2026-04-06T12:28:24Z</time></trkpt><trkpt lat="51.18343562927365" lon="4.912348752802759"><ele>18.0</ele><time>2026-04-06T12:28:25Z</time></trkpt><trkpt lat="51.18345947372607" lon="4.912061447457299"><ele>18.0</ele><time>2026-04-06T12:28:26Z</time></trkpt><trkpt lat="51.18348278064002" lon="4.9117826649914464"><ele>18.0</ele><time>2026-04-06T12:28:27Z</time></trkpt><trkpt lat="51.18350572886049" lon="4.911508173078928"><ele>17.666666666666668</ele><time>2026-04-06T12:28:28Z</time></trkpt><trkpt lat="51.18352764559838" lon="4.911238922424004"><ele>17.333333333333336</ele><time>2026-04-06T12:28:29Z</time></trkpt><trkpt lat="51.183549649528906" lon="4.91097618112925"><ele>17.0</ele><time>2026-04-06T12:28:30Z</time></trkpt><trkpt lat="51.1835714924065" lon="4.910725376241804"><ele>16.75</ele><time>2026-04-06T12:28:31Z</time></trkpt><trkpt lat="51.18359276674756" lon="4.9104857232459125"><ele>16.5</ele><time>2026-04-06T12:28:32Z</time></trkpt><trkpt lat="51.183612582311646" lon="4.9102620359779605"><ele>16.25</ele><time>2026-04-06T12:28:33Z</time></trkpt><trkpt lat="51.183631240504816" lon="4.910050645447673"><ele>16.0</ele><time>2026-04-06T12:28:34Z</time></trkpt><trkpt lat="51.18364874200161" lon="4.9098523599672195"><ele>15.833333333333332</ele><time>2026-04-06T12:28:35Z</time></trkpt><trkpt lat="51.18366323697561" lon="4.90968813703616"><ele>15.666666666666666</ele><time>2026-04-06T12:28:36Z</time></trkpt><trkpt lat="51.18366475228104" lon="4.909544345554152"><ele>15.5</ele><time>2026-04-06T12:28:37Z</time></trkpt><trkpt lat="51.183729053904145" lon="4.909457680112633"><ele>15.333333333333332</ele><time>2026-04-06T12:28:38Z</time></trkpt><trkpt lat="51.183802241589625" lon="4.909419569813817"><ele>15.166666666666666</ele><time>2026-04-06T12:28:39Z</time></trkpt><trkpt lat="51.18388337134245" lon="4.909355354054944"><ele>15.0</ele><time>2026-04-06T12:28:40Z</time></trkpt><trkpt lat="51.18397493599483" lon="4.909286755073359"><ele>15.4</ele><time>2026-04-06T12:28:41Z</time></trkpt><trkpt lat="51.184073396958986" lon="4.909214451041532"><ele>15.8</ele><time>2026-04-06T12:28:42Z</time></trkpt><trkpt lat="51.18417492773882" lon="4.909141540900528"><ele>16.2</ele><time>2026-04-06T12:28:43Z</time></trkpt><trkpt lat="51.18427062035169" lon="4.909072823210811"><ele>16.6</ele><time>2026-04-06T12:28:44Z</time></trkpt><trkpt lat="51.18434199945991" lon="4.909021565248147"><ele>17.0</ele><time>2026-04-06T12:28:45Z</time></trkpt><trkpt lat="51.18438846730595" lon="4.908751214150139"><ele>17.0</ele><time>2026-04-06T12:28:47Z</time></trkpt><trkpt lat="51.18440576466773" lon="4.908598943985955"><ele>17.0</ele><time>2026-04-06T12:28:48Z</time></trkpt><trkpt lat="51.184423569411486" lon="4.908424686550405"><ele>17.0</ele><time>2026-04-06T12:28:49Z</time></trkpt><trkpt lat="51.18444557690542" lon="4.908238691408296"><ele>17.0</ele><time>2026-04-06T12:28:50Z</time></trkpt><trkpt lat="51.18446692860131" lon="4.908065727156971"><ele>17.0</ele><time>2026-04-06T12:28:51Z</time></trkpt><trkpt lat="51.184503916126346" lon="4.907922605134909"><ele>17.0</ele><time>2026-04-06T12:28:52Z</time></trkpt><trkpt lat="51.18450492679485" lon="4.907785305708952"><ele>17.0</ele><time>2026-04-06T12:28:53Z</time></trkpt><trkpt lat="51.18453422289687" lon="4.907678712305518"><ele>17.0</ele><time>2026-04-06T12:28:54Z</time></trkpt><trkpt lat="51.18454087052446" lon="4.907536462280003"><ele>17.0</ele><time>2026-04-06T12:28:56Z</time></trkpt><trkpt lat="51.184373892222894" lon="4.907454660051758"><ele>17.0</ele><time>2026-04-06T12:28:57Z</time></trkpt><trkpt lat="51.18429163782022" lon="4.907420382594554"><ele>17.0</ele><time>2026-04-06T12:28:58Z</time></trkpt><trkpt lat="51.18419973281176" lon="4.907371476559301"><ele>17.0</ele><time>2026-04-06T12:28:59Z</time></trkpt><trkpt lat="51.184119504877316" lon="4.907278614860171"><ele>17.0</ele><time>2026-04-06T12:29:00Z</time></trkpt><trkpt lat="51.18403930405782" lon="4.907181686571505"><ele>17.0</ele><time>2026-04-06T12:29:01Z</time></trkpt><trkpt lat="51.18395222654576" lon="4.907074764521134"><ele>17.0</ele><time>2026-04-06T12:29:02Z</time></trkpt><trkpt lat="51.18386100806306" lon="4.906963125117516"><ele>17.2</ele><time>2026-04-06T12:29:03Z</time></trkpt><trkpt lat="51.183768779879394" lon="4.906850494277893"><ele>17.4</ele><time>2026-04-06T12:29:04Z</time></trkpt><trkpt lat="51.18368429514427" lon="4.906747319953336"><ele>17.6</ele><time>2026-04-06T12:29:05Z</time></trkpt><trkpt lat="51.183599227692" lon="4.906643433834069"><ele>17.8</ele><time>2026-04-06T12:29:06Z</time></trkpt><trkpt lat="51.18351438433448" lon="4.906539821500369"><ele>18.0</ele><time>2026-04-06T12:29:07Z</time></trkpt><trkpt lat="51.183424241427446" lon="4.9064297371821"><ele>18.0</ele><time>2026-04-06T12:29:08Z</time></trkpt><trkpt lat="51.18333630580517" lon="4.906313785264375"><ele>18.0</ele><time>2026-04-06T12:29:09Z</time></trkpt><trkpt lat="51.183245870009586" lon="4.90619382829672"><ele>18.0</ele><time>2026-04-06T12:29:10Z</time></trkpt><trkpt lat="51.1831600107268" lon="4.906063839892385"><ele>18.0</ele><time>2026-04-06T12:29:11Z</time></trkpt><trkpt lat="51.183073736355894" lon="4.905935992413712"><ele>17.6</ele><time>2026-04-06T12:29:12Z</time></trkpt><trkpt lat="51.18298782826753" lon="4.905808687609677"><ele>17.200000000000003</ele><time>2026-04-06T12:29:13Z</time></trkpt><trkpt lat="51.182905832578385" lon="4.905683533602756"><ele>16.8</ele><time>2026-04-06T12:29:14Z</time></trkpt><trkpt lat="51.182825067957644" lon="4.905559184086452"><ele>16.400000000000002</ele><time>2026-04-06T12:29:15Z</time></trkpt><trkpt lat="51.182753106437126" lon="4.90544838841422"><ele>16.0</ele><time>2026-04-06T12:29:16Z</time></trkpt><trkpt lat="51.18269388294284" lon="4.905357188553775"><ele>16.0</ele><time>2026-04-06T12:29:17Z</time></trkpt><trkpt lat="51.182646927537775" lon="4.9052848201104755"><ele>16.0</ele><time>2026-04-06T12:29:18Z</time></trkpt><trkpt lat="51.1825812149844" lon="4.905183541375673"><ele>16.0</ele><time>2026-04-06T12:29:20Z</time></trkpt><trkpt lat="51.182450672371765" lon="4.905289436133718"><ele>16.0</ele><time>2026-04-06T12:29:22Z</time></trkpt><trkpt lat="51.182394498512465" lon="4.905390731930994"><ele>16.0</ele><time>2026-04-06T12:29:23Z</time></trkpt><trkpt lat="51.182334871247186" lon="4.905492006753669"><ele>15.8</ele><time>2026-04-06T12:29:24Z</time></trkpt><trkpt lat="51.182277005250036" lon="4.905587690780823"><ele>15.600000000000001</ele><time>2026-04-06T12:29:25Z</time></trkpt><trkpt lat="51.182215664621395" lon="4.9056745749615684"><ele>15.4</ele><time>2026-04-06T12:29:26Z</time></trkpt><trkpt lat="51.18215744157371" lon="4.905748350963121"><ele>15.2</ele><time>2026-04-06T12:29:27Z</time></trkpt><trkpt lat="51.18206275452773" lon="4.905815739502902"><ele>15.0</ele><time>2026-04-06T12:29:29Z</time></trkpt><trkpt lat="51.18211702465343" lon="4.906064687415094"><ele>15.4</ele><time>2026-04-06T12:29:30Z</time></trkpt><trkpt lat="51.182141189543735" lon="4.906203678483558"><ele>15.8</ele><time>2026-04-06T12:29:31Z</time></trkpt><trkpt lat="51.182170270057604" lon="4.906355663962694"><ele>16.2</ele><time>2026-04-06T12:29:32Z</time></trkpt><trkpt lat="51.18220280766609" lon="4.906518907000654"><ele>16.6</ele><time>2026-04-06T12:29:33Z</time></trkpt><trkpt lat="51.182235391634634" lon="4.9066938192220375"><ele>17.0</ele><time>2026-04-06T12:29:34Z</time></trkpt><trkpt lat="51.18226801246978" lon="4.906875485612177"><ele>17.25</ele><time>2026-04-06T12:29:35Z</time></trkpt><trkpt lat="51.182301363629165" lon="4.907065844288435"><ele>17.5</ele><time>2026-04-06T12:29:36Z</time></trkpt><trkpt lat="51.18233714564697" lon="4.907262197021602"><ele>17.75</ele><time>2026-04-06T12:29:37Z</time></trkpt><trkpt lat="51.18237256497673" lon="4.907462933325115"><ele>18.0</ele><time>2026-04-06T12:29:38Z</time></trkpt><trkpt lat="51.182400791674695" lon="4.9076437118471405"><ele>17.6</ele><time>2026-04-06T12:29:39Z</time></trkpt><trkpt lat="51.1824237327438" lon="4.90779618630997"><ele>17.200000000000003</ele><time>2026-04-06T12:29:40Z</time></trkpt><trkpt lat="51.18244080969957" lon="4.9079256473638475"><ele>16.8</ele><time>2026-04-06T12:29:41Z</time></trkpt><trkpt lat="51.182453520068776" lon="4.908026720146251"><ele>16.400000000000002</ele><time>2026-04-06T12:29:42Z</time></trkpt><trkpt lat="51.182486310143695" lon="4.908122774691749"><ele>16.0</ele><time>2026-04-06T12:29:45Z</time></trkpt><trkpt lat="51.18268038894136" lon="4.908051783278611"><ele>16.0</ele><time>2026-04-06T12:29:50Z</time></trkpt><trkpt lat="51.18273878017305" lon="4.908010383840095"><ele>16.0</ele><time>2026-04-06T12:29:52Z</time></trkpt></trkseg></trk></gpx>